<?xml version="1.0" encoding="utf-8"?>
<gpx xmlns:xsi="http://www.w3.org/2001/XMLSchema-instance" xmlns:xsd="http://www.w3.org/2001/XMLSchema" version="1.1" creator="Shapelink.com" xmlns="http://www.topografix.com/GPX/1/1" xmlns:gpxtpx="http://www.garmin.com/xmlschemas/TrackPointExtension/v1">
  <metadata>
    <name>Cykling 190.06 km, 2016-04-18</name>
    <desc></desc>
    <author><name>Alexander Engvall</name></author> 
    <time>2016-04-18T09:18:59Z</time>
  </metadata>
  <trk>
    <name>Cykling 190.06 km, 2016-04-18</name>
    <trkseg>
      <trkpt lat="39.896736" lon="3.074783">
        <ele>0</ele>
        <time>2016-04-18T09:18:59Z</time>
      </trkpt>
      <trkpt lat="39.896721" lon="3.074761">
        <ele>0.2</ele>
        <time>2016-04-18T09:19:00Z</time>
      </trkpt>
      <trkpt lat="39.89669" lon="3.074707">
        <ele>1.4</ele>
        <time>2016-04-18T09:19:01Z</time>
      </trkpt>
      <trkpt lat="39.896653" lon="3.074617">
        <ele>2.6</ele>
        <time>2016-04-18T09:19:02Z</time>
      </trkpt>
      <trkpt lat="39.896619" lon="3.074552">
        <ele>2.6</ele>
        <time>2016-04-18T09:19:03Z</time>
      </trkpt>
      <trkpt lat="39.896582" lon="3.07449">
        <ele>2.6</ele>
        <time>2016-04-18T09:19:04Z</time>
      </trkpt>
      <trkpt lat="39.896539" lon="3.074431">
        <ele>2.6</ele>
        <time>2016-04-18T09:19:05Z</time>
      </trkpt>
      <trkpt lat="39.896497" lon="3.074372">
        <ele>2.6</ele>
        <time>2016-04-18T09:19:06Z</time>
      </trkpt>
      <trkpt lat="39.896454" lon="3.074312">
        <ele>2.6</ele>
        <time>2016-04-18T09:19:07Z</time>
      </trkpt>
      <trkpt lat="39.896374" lon="3.074185">
        <ele>2.6</ele>
        <time>2016-04-18T09:19:09Z</time>
      </trkpt>
      <trkpt lat="39.896275" lon="3.073994">
        <ele>2.6</ele>
        <time>2016-04-18T09:19:12Z</time>
      </trkpt>
      <trkpt lat="39.896233" lon="3.073782">
        <ele>2.6</ele>
        <time>2016-04-18T09:19:15Z</time>
      </trkpt>
      <trkpt lat="39.896223" lon="3.073711">
        <ele>2.6</ele>
        <time>2016-04-18T09:19:16Z</time>
      </trkpt>
      <trkpt lat="39.89613" lon="3.073535">
        <ele>2.6</ele>
        <time>2016-04-18T09:19:19Z</time>
      </trkpt>
      <trkpt lat="39.895958" lon="3.073481">
        <ele>2.6</ele>
        <time>2016-04-18T09:19:22Z</time>
      </trkpt>
      <trkpt lat="39.895719" lon="3.073611">
        <ele>2.6</ele>
        <time>2016-04-18T09:19:26Z</time>
      </trkpt>
      <trkpt lat="39.895509" lon="3.073621">
        <ele>2.6</ele>
        <time>2016-04-18T09:19:29Z</time>
      </trkpt>
      <trkpt lat="39.895158" lon="3.073621">
        <ele>2.6</ele>
        <time>2016-04-18T09:19:34Z</time>
      </trkpt>
      <trkpt lat="39.894657" lon="3.073631">
        <ele>2.6</ele>
        <time>2016-04-18T09:19:41Z</time>
      </trkpt>
      <trkpt lat="39.894296" lon="3.073647">
        <ele>2.6</ele>
        <time>2016-04-18T09:19:46Z</time>
      </trkpt>
      <trkpt lat="39.894225" lon="3.073653">
        <ele>2.6</ele>
        <time>2016-04-18T09:19:47Z</time>
      </trkpt>
      <trkpt lat="39.893791" lon="3.07366">
        <ele>2.6</ele>
        <time>2016-04-18T09:19:53Z</time>
      </trkpt>
      <trkpt lat="39.893717" lon="3.07366">
        <ele>2.6</ele>
        <time>2016-04-18T09:19:54Z</time>
      </trkpt>
      <trkpt lat="39.893349" lon="3.073662">
        <ele>2.6</ele>
        <time>2016-04-18T09:19:59Z</time>
      </trkpt>
      <trkpt lat="39.893052" lon="3.073668">
        <ele>2.6</ele>
        <time>2016-04-18T09:20:03Z</time>
      </trkpt>
      <trkpt lat="39.892612" lon="3.073673">
        <ele>2.6</ele>
        <time>2016-04-18T09:20:09Z</time>
      </trkpt>
      <trkpt lat="39.892538" lon="3.073677">
        <ele>2.6</ele>
        <time>2016-04-18T09:20:10Z</time>
      </trkpt>
      <trkpt lat="39.892162" lon="3.073687">
        <ele>2.6</ele>
        <time>2016-04-18T09:20:15Z</time>
      </trkpt>
      <trkpt lat="39.891943" lon="3.073693">
        <ele>2.6</ele>
        <time>2016-04-18T09:20:18Z</time>
      </trkpt>
      <trkpt lat="39.891516" lon="3.073689">
        <ele>2.6</ele>
        <time>2016-04-18T09:20:24Z</time>
      </trkpt>
      <trkpt lat="39.891297" lon="3.073692">
        <ele>2.2</ele>
        <time>2016-04-18T09:20:27Z</time>
      </trkpt>
      <trkpt lat="39.891228" lon="3.073691">
        <ele>2</ele>
        <time>2016-04-18T09:20:28Z</time>
      </trkpt>
      <trkpt lat="39.891153" lon="3.073691">
        <ele>1.6</ele>
        <time>2016-04-18T09:20:29Z</time>
      </trkpt>
      <trkpt lat="39.891082" lon="3.073693">
        <ele>1.2</ele>
        <time>2016-04-18T09:20:30Z</time>
      </trkpt>
      <trkpt lat="39.891011" lon="3.073696">
        <ele>1.2</ele>
        <time>2016-04-18T09:20:31Z</time>
      </trkpt>
      <trkpt lat="39.890798" lon="3.073671">
        <ele>1.2</ele>
        <time>2016-04-18T09:20:34Z</time>
      </trkpt>
      <trkpt lat="39.890656" lon="3.073616">
        <ele>1.2</ele>
        <time>2016-04-18T09:20:36Z</time>
      </trkpt>
      <trkpt lat="39.890528" lon="3.073537">
        <ele>1.2</ele>
        <time>2016-04-18T09:20:38Z</time>
      </trkpt>
      <trkpt lat="39.890334" lon="3.073414">
        <ele>1.2</ele>
        <time>2016-04-18T09:20:41Z</time>
      </trkpt>
      <trkpt lat="39.89002" lon="3.073157">
        <ele>1.2</ele>
        <time>2016-04-18T09:20:46Z</time>
      </trkpt>
      <trkpt lat="39.889616" lon="3.072857">
        <ele>1.2</ele>
        <time>2016-04-18T09:20:52Z</time>
      </trkpt>
      <trkpt lat="39.889487" lon="3.072765">
        <ele>1.2</ele>
        <time>2016-04-18T09:20:54Z</time>
      </trkpt>
      <trkpt lat="39.889245" lon="3.072547">
        <ele>1.2</ele>
        <time>2016-04-18T09:20:58Z</time>
      </trkpt>
      <trkpt lat="39.889016" lon="3.07228">
        <ele>1.2</ele>
        <time>2016-04-18T09:21:02Z</time>
      </trkpt>
      <trkpt lat="39.888862" lon="3.072065">
        <ele>1.2</ele>
        <time>2016-04-18T09:21:05Z</time>
      </trkpt>
      <trkpt lat="39.888485" lon="3.071445">
        <ele>1.2</ele>
        <time>2016-04-18T09:21:13Z</time>
      </trkpt>
      <trkpt lat="39.888437" lon="3.071363">
        <ele>1.2</ele>
        <time>2016-04-18T09:21:14Z</time>
      </trkpt>
      <trkpt lat="39.888084" lon="3.070734">
        <ele>1.2</ele>
        <time>2016-04-18T09:21:22Z</time>
      </trkpt>
      <trkpt lat="39.88804" lon="3.070656">
        <ele>1.2</ele>
        <time>2016-04-18T09:21:23Z</time>
      </trkpt>
      <trkpt lat="39.887871" lon="3.070351">
        <ele>1.6</ele>
        <time>2016-04-18T09:21:27Z</time>
      </trkpt>
      <trkpt lat="39.887827" lon="3.070273">
        <ele>2</ele>
        <time>2016-04-18T09:21:28Z</time>
      </trkpt>
      <trkpt lat="39.887782" lon="3.070192">
        <ele>2.4</ele>
        <time>2016-04-18T09:21:29Z</time>
      </trkpt>
      <trkpt lat="39.887738" lon="3.070115">
        <ele>2.8</ele>
        <time>2016-04-18T09:21:30Z</time>
      </trkpt>
      <trkpt lat="39.887695" lon="3.070038">
        <ele>3.2</ele>
        <time>2016-04-18T09:21:31Z</time>
      </trkpt>
      <trkpt lat="39.887607" lon="3.069885">
        <ele>3.2</ele>
        <time>2016-04-18T09:21:33Z</time>
      </trkpt>
      <trkpt lat="39.88726" lon="3.069283">
        <ele>3.2</ele>
        <time>2016-04-18T09:21:41Z</time>
      </trkpt>
      <trkpt lat="39.886921" lon="3.068669">
        <ele>3.2</ele>
        <time>2016-04-18T09:21:49Z</time>
      </trkpt>
      <trkpt lat="39.886879" lon="3.068594">
        <ele>3.2</ele>
        <time>2016-04-18T09:21:50Z</time>
      </trkpt>
      <trkpt lat="39.886833" lon="3.068516">
        <ele>3.6</ele>
        <time>2016-04-18T09:21:51Z</time>
      </trkpt>
      <trkpt lat="39.886789" lon="3.06844">
        <ele>4.2</ele>
        <time>2016-04-18T09:21:52Z</time>
      </trkpt>
      <trkpt lat="39.886748" lon="3.068363">
        <ele>4.6</ele>
        <time>2016-04-18T09:21:53Z</time>
      </trkpt>
      <trkpt lat="39.886706" lon="3.068285">
        <ele>5</ele>
        <time>2016-04-18T09:21:54Z</time>
      </trkpt>
      <trkpt lat="39.886663" lon="3.068208">
        <ele>5.4</ele>
        <time>2016-04-18T09:21:55Z</time>
      </trkpt>
      <trkpt lat="39.886532" lon="3.067979">
        <ele>5.4</ele>
        <time>2016-04-18T09:21:58Z</time>
      </trkpt>
      <trkpt lat="39.886402" lon="3.067745">
        <ele>5.4</ele>
        <time>2016-04-18T09:22:01Z</time>
      </trkpt>
      <trkpt lat="39.886271" lon="3.067515">
        <ele>5.4</ele>
        <time>2016-04-18T09:22:04Z</time>
      </trkpt>
      <trkpt lat="39.886139" lon="3.06728">
        <ele>5.4</ele>
        <time>2016-04-18T09:22:07Z</time>
      </trkpt>
      <trkpt lat="39.885783" lon="3.066649">
        <ele>5.4</ele>
        <time>2016-04-18T09:22:15Z</time>
      </trkpt>
      <trkpt lat="39.885738" lon="3.06657">
        <ele>5.4</ele>
        <time>2016-04-18T09:22:16Z</time>
      </trkpt>
      <trkpt lat="39.885379" lon="3.065943">
        <ele>5.4</ele>
        <time>2016-04-18T09:22:24Z</time>
      </trkpt>
      <trkpt lat="39.885334" lon="3.065864">
        <ele>5.4</ele>
        <time>2016-04-18T09:22:25Z</time>
      </trkpt>
      <trkpt lat="39.885069" lon="3.065387">
        <ele>6</ele>
        <time>2016-04-18T09:22:31Z</time>
      </trkpt>
      <trkpt lat="39.885025" lon="3.06531">
        <ele>6.4</ele>
        <time>2016-04-18T09:22:32Z</time>
      </trkpt>
      <trkpt lat="39.884981" lon="3.065233">
        <ele>7.2</ele>
        <time>2016-04-18T09:22:33Z</time>
      </trkpt>
      <trkpt lat="39.884936" lon="3.065154">
        <ele>7.6</ele>
        <time>2016-04-18T09:22:34Z</time>
      </trkpt>
      <trkpt lat="39.884573" lon="3.064511">
        <ele>7.6</ele>
        <time>2016-04-18T09:22:42Z</time>
      </trkpt>
      <trkpt lat="39.884214" lon="3.063862">
        <ele>7.6</ele>
        <time>2016-04-18T09:22:50Z</time>
      </trkpt>
      <trkpt lat="39.884183" lon="3.063768">
        <ele>7.6</ele>
        <time>2016-04-18T09:22:51Z</time>
      </trkpt>
      <trkpt lat="39.884123" lon="3.063381">
        <ele>7.6</ele>
        <time>2016-04-18T09:22:55Z</time>
      </trkpt>
      <trkpt lat="39.884079" lon="3.063196">
        <ele>7.6</ele>
        <time>2016-04-18T09:22:57Z</time>
      </trkpt>
      <trkpt lat="39.884048" lon="3.063104">
        <ele>8</ele>
        <time>2016-04-18T09:22:58Z</time>
      </trkpt>
      <trkpt lat="39.884011" lon="3.063023">
        <ele>8.4</ele>
        <time>2016-04-18T09:22:59Z</time>
      </trkpt>
      <trkpt lat="39.883966" lon="3.062956">
        <ele>8.8</ele>
        <time>2016-04-18T09:23:00Z</time>
      </trkpt>
      <trkpt lat="39.883917" lon="3.06289">
        <ele>9.2</ele>
        <time>2016-04-18T09:23:01Z</time>
      </trkpt>
      <trkpt lat="39.883868" lon="3.062817">
        <ele>9.6</ele>
        <time>2016-04-18T09:23:02Z</time>
      </trkpt>
      <trkpt lat="39.883823" lon="3.062735">
        <ele>9.6</ele>
        <time>2016-04-18T09:23:03Z</time>
      </trkpt>
      <trkpt lat="39.883784" lon="3.062646">
        <ele>9.6</ele>
        <time>2016-04-18T09:23:04Z</time>
      </trkpt>
      <trkpt lat="39.883494" lon="3.06202">
        <ele>9.6</ele>
        <time>2016-04-18T09:23:11Z</time>
      </trkpt>
      <trkpt lat="39.883442" lon="3.061947">
        <ele>9.6</ele>
        <time>2016-04-18T09:23:12Z</time>
      </trkpt>
      <trkpt lat="39.883275" lon="3.061727">
        <ele>9.6</ele>
        <time>2016-04-18T09:23:15Z</time>
      </trkpt>
      <trkpt lat="39.883062" lon="3.0613">
        <ele>9.6</ele>
        <time>2016-04-18T09:23:20Z</time>
      </trkpt>
      <trkpt lat="39.882783" lon="3.060705">
        <ele>9.6</ele>
        <time>2016-04-18T09:23:27Z</time>
      </trkpt>
      <trkpt lat="39.882642" lon="3.060476">
        <ele>9.6</ele>
        <time>2016-04-18T09:23:30Z</time>
      </trkpt>
      <trkpt lat="39.88258" lon="3.060421">
        <ele>9.6</ele>
        <time>2016-04-18T09:23:31Z</time>
      </trkpt>
      <trkpt lat="39.882444" lon="3.060412">
        <ele>9.6</ele>
        <time>2016-04-18T09:23:33Z</time>
      </trkpt>
      <trkpt lat="39.882353" lon="3.060526">
        <ele>9.6</ele>
        <time>2016-04-18T09:23:35Z</time>
      </trkpt>
      <trkpt lat="39.882183" lon="3.060863">
        <ele>9.6</ele>
        <time>2016-04-18T09:23:39Z</time>
      </trkpt>
      <trkpt lat="39.882147" lon="3.060953">
        <ele>9.6</ele>
        <time>2016-04-18T09:23:40Z</time>
      </trkpt>
      <trkpt lat="39.882111" lon="3.061032">
        <ele>9.6</ele>
        <time>2016-04-18T09:23:41Z</time>
      </trkpt>
      <trkpt lat="39.882021" lon="3.061178">
        <ele>9.6</ele>
        <time>2016-04-18T09:23:43Z</time>
      </trkpt>
      <trkpt lat="39.881884" lon="3.06142">
        <ele>9.2</ele>
        <time>2016-04-18T09:23:46Z</time>
      </trkpt>
      <trkpt lat="39.881838" lon="3.061504">
        <ele>8.8</ele>
        <time>2016-04-18T09:23:47Z</time>
      </trkpt>
      <trkpt lat="39.881792" lon="3.061587">
        <ele>8</ele>
        <time>2016-04-18T09:23:48Z</time>
      </trkpt>
      <trkpt lat="39.881748" lon="3.061669">
        <ele>7.6</ele>
        <time>2016-04-18T09:23:49Z</time>
      </trkpt>
      <trkpt lat="39.881432" lon="3.062236">
        <ele>7.6</ele>
        <time>2016-04-18T09:23:56Z</time>
      </trkpt>
      <trkpt lat="39.881264" lon="3.062557">
        <ele>7.6</ele>
        <time>2016-04-18T09:24:00Z</time>
      </trkpt>
      <trkpt lat="39.881224" lon="3.062641">
        <ele>7.6</ele>
        <time>2016-04-18T09:24:01Z</time>
      </trkpt>
      <trkpt lat="39.881041" lon="3.062947">
        <ele>7.6</ele>
        <time>2016-04-18T09:24:05Z</time>
      </trkpt>
      <trkpt lat="39.880999" lon="3.063004">
        <ele>7.6</ele>
        <time>2016-04-18T09:24:06Z</time>
      </trkpt>
      <trkpt lat="39.88096" lon="3.063045">
        <ele>7.6</ele>
        <time>2016-04-18T09:24:07Z</time>
      </trkpt>
      <trkpt lat="39.880873" lon="3.063072">
        <ele>7.6</ele>
        <time>2016-04-18T09:24:09Z</time>
      </trkpt>
      <trkpt lat="39.880762" lon="3.063055">
        <ele>7.6</ele>
        <time>2016-04-18T09:24:11Z</time>
      </trkpt>
      <trkpt lat="39.880625" lon="3.06302">
        <ele>7.6</ele>
        <time>2016-04-18T09:24:13Z</time>
      </trkpt>
      <trkpt lat="39.880318" lon="3.062937">
        <ele>7.6</ele>
        <time>2016-04-18T09:24:18Z</time>
      </trkpt>
      <trkpt lat="39.879949" lon="3.062835">
        <ele>7.6</ele>
        <time>2016-04-18T09:24:24Z</time>
      </trkpt>
      <trkpt lat="39.879659" lon="3.062749">
        <ele>7.6</ele>
        <time>2016-04-18T09:24:28Z</time>
      </trkpt>
      <trkpt lat="39.879586" lon="3.062717">
        <ele>7.6</ele>
        <time>2016-04-18T09:24:29Z</time>
      </trkpt>
      <trkpt lat="39.879513" lon="3.062675">
        <ele>7.6</ele>
        <time>2016-04-18T09:24:30Z</time>
      </trkpt>
      <trkpt lat="39.879313" lon="3.062573">
        <ele>7.6</ele>
        <time>2016-04-18T09:24:33Z</time>
      </trkpt>
      <trkpt lat="39.878853" lon="3.062403">
        <ele>7.6</ele>
        <time>2016-04-18T09:24:39Z</time>
      </trkpt>
      <trkpt lat="39.878439" lon="3.062228">
        <ele>7.6</ele>
        <time>2016-04-18T09:24:45Z</time>
      </trkpt>
      <trkpt lat="39.878375" lon="3.062183">
        <ele>7.6</ele>
        <time>2016-04-18T09:24:46Z</time>
      </trkpt>
      <trkpt lat="39.878116" lon="3.061985">
        <ele>7.6</ele>
        <time>2016-04-18T09:24:50Z</time>
      </trkpt>
      <trkpt lat="39.877791" lon="3.061709">
        <ele>7.6</ele>
        <time>2016-04-18T09:24:55Z</time>
      </trkpt>
      <trkpt lat="39.87765" lon="3.061607">
        <ele>7.6</ele>
        <time>2016-04-18T09:24:57Z</time>
      </trkpt>
      <trkpt lat="39.877178" lon="3.06126">
        <ele>7.6</ele>
        <time>2016-04-18T09:25:04Z</time>
      </trkpt>
      <trkpt lat="39.8767" lon="3.060831">
        <ele>7.6</ele>
        <time>2016-04-18T09:25:11Z</time>
      </trkpt>
      <trkpt lat="39.876368" lon="3.060525">
        <ele>7.6</ele>
        <time>2016-04-18T09:25:16Z</time>
      </trkpt>
      <trkpt lat="39.876165" lon="3.060336">
        <ele>7.6</ele>
        <time>2016-04-18T09:25:19Z</time>
      </trkpt>
      <trkpt lat="39.875754" lon="3.05998">
        <ele>7.6</ele>
        <time>2016-04-18T09:25:25Z</time>
      </trkpt>
      <trkpt lat="39.875259" lon="3.059625">
        <ele>7.6</ele>
        <time>2016-04-18T09:25:32Z</time>
      </trkpt>
      <trkpt lat="39.874715" lon="3.059273">
        <ele>7.6</ele>
        <time>2016-04-18T09:25:40Z</time>
      </trkpt>
      <trkpt lat="39.874535" lon="3.059146">
        <ele>7.6</ele>
        <time>2016-04-18T09:25:43Z</time>
      </trkpt>
      <trkpt lat="39.874364" lon="3.059034">
        <ele>7.6</ele>
        <time>2016-04-18T09:25:46Z</time>
      </trkpt>
      <trkpt lat="39.874309" lon="3.058996">
        <ele>7.6</ele>
        <time>2016-04-18T09:25:47Z</time>
      </trkpt>
      <trkpt lat="39.874203" lon="3.05891">
        <ele>7.6</ele>
        <time>2016-04-18T09:25:49Z</time>
      </trkpt>
      <trkpt lat="39.874132" lon="3.058774">
        <ele>7.6</ele>
        <time>2016-04-18T09:25:51Z</time>
      </trkpt>
      <trkpt lat="39.874137" lon="3.0585">
        <ele>7.6</ele>
        <time>2016-04-18T09:25:54Z</time>
      </trkpt>
      <trkpt lat="39.874149" lon="3.057928">
        <ele>7.6</ele>
        <time>2016-04-18T09:26:00Z</time>
      </trkpt>
      <trkpt lat="39.874149" lon="3.057828">
        <ele>7.6</ele>
        <time>2016-04-18T09:26:01Z</time>
      </trkpt>
      <trkpt lat="39.874153" lon="3.057528">
        <ele>7.6</ele>
        <time>2016-04-18T09:26:04Z</time>
      </trkpt>
      <trkpt lat="39.874193" lon="3.057339">
        <ele>7.6</ele>
        <time>2016-04-18T09:26:06Z</time>
      </trkpt>
      <trkpt lat="39.874208" lon="3.057252">
        <ele>7.6</ele>
        <time>2016-04-18T09:26:07Z</time>
      </trkpt>
      <trkpt lat="39.874209" lon="3.056993">
        <ele>7.6</ele>
        <time>2016-04-18T09:26:10Z</time>
      </trkpt>
      <trkpt lat="39.874182" lon="3.056812">
        <ele>7.6</ele>
        <time>2016-04-18T09:26:12Z</time>
      </trkpt>
      <trkpt lat="39.874145" lon="3.056545">
        <ele>7.6</ele>
        <time>2016-04-18T09:26:15Z</time>
      </trkpt>
      <trkpt lat="39.874144" lon="3.056454">
        <ele>7.6</ele>
        <time>2016-04-18T09:26:16Z</time>
      </trkpt>
      <trkpt lat="39.874154" lon="3.056111">
        <ele>7.6</ele>
        <time>2016-04-18T09:26:20Z</time>
      </trkpt>
      <trkpt lat="39.874145" lon="3.056023">
        <ele>7.6</ele>
        <time>2016-04-18T09:26:21Z</time>
      </trkpt>
      <trkpt lat="39.874096" lon="3.055857">
        <ele>8</ele>
        <time>2016-04-18T09:26:23Z</time>
      </trkpt>
      <trkpt lat="39.874061" lon="3.055778">
        <ele>8.4</ele>
        <time>2016-04-18T09:26:24Z</time>
      </trkpt>
      <trkpt lat="39.874024" lon="3.055704">
        <ele>9</ele>
        <time>2016-04-18T09:26:25Z</time>
      </trkpt>
      <trkpt lat="39.873982" lon="3.055628">
        <ele>9.4</ele>
        <time>2016-04-18T09:26:26Z</time>
      </trkpt>
      <trkpt lat="39.87394" lon="3.055552">
        <ele>9.8</ele>
        <time>2016-04-18T09:26:27Z</time>
      </trkpt>
      <trkpt lat="39.873764" lon="3.055259">
        <ele>9.8</ele>
        <time>2016-04-18T09:26:31Z</time>
      </trkpt>
      <trkpt lat="39.873707" lon="3.055201">
        <ele>9.8</ele>
        <time>2016-04-18T09:26:32Z</time>
      </trkpt>
      <trkpt lat="39.873501" lon="3.05493">
        <ele>9.8</ele>
        <time>2016-04-18T09:26:36Z</time>
      </trkpt>
      <trkpt lat="39.873415" lon="3.054558">
        <ele>9.8</ele>
        <time>2016-04-18T09:26:40Z</time>
      </trkpt>
      <trkpt lat="39.873355" lon="3.053991">
        <ele>9.8</ele>
        <time>2016-04-18T09:26:46Z</time>
      </trkpt>
      <trkpt lat="39.873275" lon="3.053222">
        <ele>9.8</ele>
        <time>2016-04-18T09:26:54Z</time>
      </trkpt>
      <trkpt lat="39.873265" lon="3.053126">
        <ele>9.8</ele>
        <time>2016-04-18T09:26:55Z</time>
      </trkpt>
      <trkpt lat="39.873179" lon="3.052364">
        <ele>10.2</ele>
        <time>2016-04-18T09:27:03Z</time>
      </trkpt>
      <trkpt lat="39.873167" lon="3.052272">
        <ele>10.6</ele>
        <time>2016-04-18T09:27:04Z</time>
      </trkpt>
      <trkpt lat="39.873152" lon="3.052172">
        <ele>11.6</ele>
        <time>2016-04-18T09:27:05Z</time>
      </trkpt>
      <trkpt lat="39.87314" lon="3.052075">
        <ele>12</ele>
        <time>2016-04-18T09:27:06Z</time>
      </trkpt>
      <trkpt lat="39.873064" lon="3.051495">
        <ele>12</ele>
        <time>2016-04-18T09:27:12Z</time>
      </trkpt>
      <trkpt lat="39.872986" lon="3.050968">
        <ele>12</ele>
        <time>2016-04-18T09:27:18Z</time>
      </trkpt>
      <trkpt lat="39.872843" lon="3.050273">
        <ele>12</ele>
        <time>2016-04-18T09:27:26Z</time>
      </trkpt>
      <trkpt lat="39.872777" lon="3.049764">
        <ele>12.4</ele>
        <time>2016-04-18T09:27:32Z</time>
      </trkpt>
      <trkpt lat="39.872769" lon="3.049689">
        <ele>12.8</ele>
        <time>2016-04-18T09:27:33Z</time>
      </trkpt>
      <trkpt lat="39.872763" lon="3.049614">
        <ele>13.2</ele>
        <time>2016-04-18T09:27:34Z</time>
      </trkpt>
      <trkpt lat="39.872759" lon="3.04954">
        <ele>13.6</ele>
        <time>2016-04-18T09:27:35Z</time>
      </trkpt>
      <trkpt lat="39.872749" lon="3.049463">
        <ele>14.2</ele>
        <time>2016-04-18T09:27:36Z</time>
      </trkpt>
      <trkpt lat="39.87273" lon="3.049394">
        <ele>14.2</ele>
        <time>2016-04-18T09:27:37Z</time>
      </trkpt>
      <trkpt lat="39.872692" lon="3.049338">
        <ele>14.2</ele>
        <time>2016-04-18T09:27:38Z</time>
      </trkpt>
      <trkpt lat="39.872572" lon="3.049324">
        <ele>14.2</ele>
        <time>2016-04-18T09:27:40Z</time>
      </trkpt>
      <trkpt lat="39.872441" lon="3.049379">
        <ele>14.2</ele>
        <time>2016-04-18T09:27:42Z</time>
      </trkpt>
      <trkpt lat="39.872289" lon="3.049425">
        <ele>14.2</ele>
        <time>2016-04-18T09:27:44Z</time>
      </trkpt>
      <trkpt lat="39.872212" lon="3.049448">
        <ele>13.6</ele>
        <time>2016-04-18T09:27:45Z</time>
      </trkpt>
      <trkpt lat="39.872135" lon="3.04947">
        <ele>13.2</ele>
        <time>2016-04-18T09:27:46Z</time>
      </trkpt>
      <trkpt lat="39.872059" lon="3.049495">
        <ele>12.8</ele>
        <time>2016-04-18T09:27:47Z</time>
      </trkpt>
      <trkpt lat="39.871985" lon="3.04952">
        <ele>12.4</ele>
        <time>2016-04-18T09:27:48Z</time>
      </trkpt>
      <trkpt lat="39.871913" lon="3.049542">
        <ele>12</ele>
        <time>2016-04-18T09:27:49Z</time>
      </trkpt>
      <trkpt lat="39.871838" lon="3.049563">
        <ele>12</ele>
        <time>2016-04-18T09:27:50Z</time>
      </trkpt>
      <trkpt lat="39.871519" lon="3.049627">
        <ele>11.6</ele>
        <time>2016-04-18T09:27:54Z</time>
      </trkpt>
      <trkpt lat="39.871445" lon="3.049641">
        <ele>10.8</ele>
        <time>2016-04-18T09:27:55Z</time>
      </trkpt>
      <trkpt lat="39.871377" lon="3.049649">
        <ele>10.4</ele>
        <time>2016-04-18T09:27:56Z</time>
      </trkpt>
      <trkpt lat="39.871319" lon="3.049662">
        <ele>10</ele>
        <time>2016-04-18T09:27:57Z</time>
      </trkpt>
      <trkpt lat="39.871251" lon="3.049605">
        <ele>10</ele>
        <time>2016-04-18T09:27:59Z</time>
      </trkpt>
      <trkpt lat="39.871243" lon="3.049468">
        <ele>10</ele>
        <time>2016-04-18T09:28:02Z</time>
      </trkpt>
      <trkpt lat="39.871237" lon="3.049354">
        <ele>10</ele>
        <time>2016-04-18T09:28:04Z</time>
      </trkpt>
      <trkpt lat="39.87122" lon="3.049232">
        <ele>10</ele>
        <time>2016-04-18T09:28:06Z</time>
      </trkpt>
      <trkpt lat="39.871198" lon="3.049119">
        <ele>10.4</ele>
        <time>2016-04-18T09:28:08Z</time>
      </trkpt>
      <trkpt lat="39.871183" lon="3.049061">
        <ele>10.8</ele>
        <time>2016-04-18T09:28:09Z</time>
      </trkpt>
      <trkpt lat="39.87117" lon="3.048997">
        <ele>11.4</ele>
        <time>2016-04-18T09:28:10Z</time>
      </trkpt>
      <trkpt lat="39.871154" lon="3.048936">
        <ele>11.8</ele>
        <time>2016-04-18T09:28:11Z</time>
      </trkpt>
      <trkpt lat="39.87114" lon="3.048874">
        <ele>12.2</ele>
        <time>2016-04-18T09:28:12Z</time>
      </trkpt>
      <trkpt lat="39.871112" lon="3.048744">
        <ele>12.6</ele>
        <time>2016-04-18T09:28:14Z</time>
      </trkpt>
      <trkpt lat="39.871099" lon="3.048679">
        <ele>13.2</ele>
        <time>2016-04-18T09:28:15Z</time>
      </trkpt>
      <trkpt lat="39.871084" lon="3.048614">
        <ele>13.6</ele>
        <time>2016-04-18T09:28:16Z</time>
      </trkpt>
      <trkpt lat="39.871071" lon="3.048549">
        <ele>14</ele>
        <time>2016-04-18T09:28:17Z</time>
      </trkpt>
      <trkpt lat="39.871063" lon="3.048492">
        <ele>14.4</ele>
        <time>2016-04-18T09:28:18Z</time>
      </trkpt>
      <trkpt lat="39.871046" lon="3.048442">
        <ele>14.4</ele>
        <time>2016-04-18T09:28:19Z</time>
      </trkpt>
      <trkpt lat="39.871003" lon="3.048333">
        <ele>14.8</ele>
        <time>2016-04-18T09:28:21Z</time>
      </trkpt>
      <trkpt lat="39.870983" lon="3.048276">
        <ele>15.2</ele>
        <time>2016-04-18T09:28:22Z</time>
      </trkpt>
      <trkpt lat="39.870958" lon="3.048226">
        <ele>15.6</ele>
        <time>2016-04-18T09:28:23Z</time>
      </trkpt>
      <trkpt lat="39.870929" lon="3.048169">
        <ele>16</ele>
        <time>2016-04-18T09:28:24Z</time>
      </trkpt>
      <trkpt lat="39.8709" lon="3.048109">
        <ele>16.4</ele>
        <time>2016-04-18T09:28:25Z</time>
      </trkpt>
      <trkpt lat="39.870843" lon="3.047992">
        <ele>16.4</ele>
        <time>2016-04-18T09:28:27Z</time>
      </trkpt>
      <trkpt lat="39.870757" lon="3.047813">
        <ele>16.4</ele>
        <time>2016-04-18T09:28:30Z</time>
      </trkpt>
      <trkpt lat="39.870698" lon="3.047692">
        <ele>16.8</ele>
        <time>2016-04-18T09:28:32Z</time>
      </trkpt>
      <trkpt lat="39.87067" lon="3.047626">
        <ele>17.2</ele>
        <time>2016-04-18T09:28:33Z</time>
      </trkpt>
      <trkpt lat="39.870642" lon="3.047561">
        <ele>17.6</ele>
        <time>2016-04-18T09:28:34Z</time>
      </trkpt>
      <trkpt lat="39.870611" lon="3.047497">
        <ele>18</ele>
        <time>2016-04-18T09:28:35Z</time>
      </trkpt>
      <trkpt lat="39.870577" lon="3.047432">
        <ele>18.6</ele>
        <time>2016-04-18T09:28:36Z</time>
      </trkpt>
      <trkpt lat="39.870357" lon="3.04709">
        <ele>18.6</ele>
        <time>2016-04-18T09:28:42Z</time>
      </trkpt>
      <trkpt lat="39.870159" lon="3.046819">
        <ele>18.6</ele>
        <time>2016-04-18T09:28:47Z</time>
      </trkpt>
      <trkpt lat="39.870113" lon="3.046781">
        <ele>18.6</ele>
        <time>2016-04-18T09:28:48Z</time>
      </trkpt>
      <trkpt lat="39.869889" lon="3.046573">
        <ele>19</ele>
        <time>2016-04-18T09:28:53Z</time>
      </trkpt>
      <trkpt lat="39.869844" lon="3.046535">
        <ele>19.4</ele>
        <time>2016-04-18T09:28:54Z</time>
      </trkpt>
      <trkpt lat="39.869795" lon="3.046511">
        <ele>20</ele>
        <time>2016-04-18T09:28:55Z</time>
      </trkpt>
      <trkpt lat="39.869741" lon="3.046512">
        <ele>20.4</ele>
        <time>2016-04-18T09:28:56Z</time>
      </trkpt>
      <trkpt lat="39.869694" lon="3.046537">
        <ele>20.8</ele>
        <time>2016-04-18T09:28:57Z</time>
      </trkpt>
      <trkpt lat="39.869649" lon="3.046564">
        <ele>20.8</ele>
        <time>2016-04-18T09:28:58Z</time>
      </trkpt>
      <trkpt lat="39.869285" lon="3.046793">
        <ele>20.8</ele>
        <time>2016-04-18T09:29:06Z</time>
      </trkpt>
      <trkpt lat="39.869241" lon="3.046819">
        <ele>21.2</ele>
        <time>2016-04-18T09:29:07Z</time>
      </trkpt>
      <trkpt lat="39.869199" lon="3.046844">
        <ele>21.8</ele>
        <time>2016-04-18T09:29:08Z</time>
      </trkpt>
      <trkpt lat="39.869157" lon="3.046855">
        <ele>22.6</ele>
        <time>2016-04-18T09:29:09Z</time>
      </trkpt>
      <trkpt lat="39.869112" lon="3.046852">
        <ele>23</ele>
        <time>2016-04-18T09:29:10Z</time>
      </trkpt>
      <trkpt lat="39.869078" lon="3.046815">
        <ele>23</ele>
        <time>2016-04-18T09:29:11Z</time>
      </trkpt>
      <trkpt lat="39.869003" lon="3.046649">
        <ele>23</ele>
        <time>2016-04-18T09:29:14Z</time>
      </trkpt>
      <trkpt lat="39.86898" lon="3.04659">
        <ele>23</ele>
        <time>2016-04-18T09:29:15Z</time>
      </trkpt>
      <trkpt lat="39.868832" lon="3.046295">
        <ele>23</ele>
        <time>2016-04-18T09:29:20Z</time>
      </trkpt>
      <trkpt lat="39.868763" lon="3.046182">
        <ele>23.4</ele>
        <time>2016-04-18T09:29:22Z</time>
      </trkpt>
      <trkpt lat="39.868725" lon="3.046128">
        <ele>24</ele>
        <time>2016-04-18T09:29:23Z</time>
      </trkpt>
      <trkpt lat="39.868688" lon="3.046071">
        <ele>24.4</ele>
        <time>2016-04-18T09:29:24Z</time>
      </trkpt>
      <trkpt lat="39.86865" lon="3.046017">
        <ele>24.8</ele>
        <time>2016-04-18T09:29:25Z</time>
      </trkpt>
      <trkpt lat="39.868614" lon="3.045962">
        <ele>25.4</ele>
        <time>2016-04-18T09:29:26Z</time>
      </trkpt>
      <trkpt lat="39.868575" lon="3.045911">
        <ele>25.4</ele>
        <time>2016-04-18T09:29:27Z</time>
      </trkpt>
      <trkpt lat="39.868417" lon="3.04572">
        <ele>25.4</ele>
        <time>2016-04-18T09:29:31Z</time>
      </trkpt>
      <trkpt lat="39.868375" lon="3.045673">
        <ele>25.4</ele>
        <time>2016-04-18T09:29:32Z</time>
      </trkpt>
      <trkpt lat="39.868292" lon="3.045578">
        <ele>25.4</ele>
        <time>2016-04-18T09:29:34Z</time>
      </trkpt>
      <trkpt lat="39.868207" lon="3.045475">
        <ele>25.4</ele>
        <time>2016-04-18T09:29:36Z</time>
      </trkpt>
      <trkpt lat="39.868138" lon="3.04537">
        <ele>25.4</ele>
        <time>2016-04-18T09:29:38Z</time>
      </trkpt>
      <trkpt lat="39.86806" lon="3.045279">
        <ele>25.4</ele>
        <time>2016-04-18T09:29:40Z</time>
      </trkpt>
      <trkpt lat="39.868021" lon="3.045231">
        <ele>25.8</ele>
        <time>2016-04-18T09:29:41Z</time>
      </trkpt>
      <trkpt lat="39.867981" lon="3.045179">
        <ele>26.2</ele>
        <time>2016-04-18T09:29:42Z</time>
      </trkpt>
      <trkpt lat="39.86794" lon="3.045121">
        <ele>26.6</ele>
        <time>2016-04-18T09:29:43Z</time>
      </trkpt>
      <trkpt lat="39.867897" lon="3.045065">
        <ele>27</ele>
        <time>2016-04-18T09:29:44Z</time>
      </trkpt>
      <trkpt lat="39.867856" lon="3.045015">
        <ele>27.4</ele>
        <time>2016-04-18T09:29:45Z</time>
      </trkpt>
      <trkpt lat="39.867811" lon="3.044961">
        <ele>27.4</ele>
        <time>2016-04-18T09:29:46Z</time>
      </trkpt>
      <trkpt lat="39.867581" lon="3.044695">
        <ele>27.4</ele>
        <time>2016-04-18T09:29:51Z</time>
      </trkpt>
      <trkpt lat="39.867493" lon="3.044592">
        <ele>27.4</ele>
        <time>2016-04-18T09:29:53Z</time>
      </trkpt>
      <trkpt lat="39.867446" lon="3.044543">
        <ele>27.8</ele>
        <time>2016-04-18T09:29:54Z</time>
      </trkpt>
      <trkpt lat="39.867397" lon="3.04449">
        <ele>28.2</ele>
        <time>2016-04-18T09:29:55Z</time>
      </trkpt>
      <trkpt lat="39.867347" lon="3.044439">
        <ele>28.6</ele>
        <time>2016-04-18T09:29:56Z</time>
      </trkpt>
      <trkpt lat="39.8673" lon="3.044383">
        <ele>29</ele>
        <time>2016-04-18T09:29:57Z</time>
      </trkpt>
      <trkpt lat="39.867246" lon="3.04433">
        <ele>29.6</ele>
        <time>2016-04-18T09:29:58Z</time>
      </trkpt>
      <trkpt lat="39.866947" lon="3.044035">
        <ele>29.6</ele>
        <time>2016-04-18T09:30:04Z</time>
      </trkpt>
      <trkpt lat="39.866631" lon="3.043736">
        <ele>29.6</ele>
        <time>2016-04-18T09:30:10Z</time>
      </trkpt>
      <trkpt lat="39.866285" lon="3.043373">
        <ele>29.6</ele>
        <time>2016-04-18T09:30:17Z</time>
      </trkpt>
      <trkpt lat="39.866208" lon="3.043243">
        <ele>29.6</ele>
        <time>2016-04-18T09:30:19Z</time>
      </trkpt>
      <trkpt lat="39.866189" lon="3.043157">
        <ele>29.6</ele>
        <time>2016-04-18T09:30:20Z</time>
      </trkpt>
      <trkpt lat="39.866154" lon="3.042992">
        <ele>29.6</ele>
        <time>2016-04-18T09:30:22Z</time>
      </trkpt>
      <trkpt lat="39.866032" lon="3.042796">
        <ele>29.6</ele>
        <time>2016-04-18T09:30:25Z</time>
      </trkpt>
      <trkpt lat="39.86592" lon="3.042726">
        <ele>29.6</ele>
        <time>2016-04-18T09:30:27Z</time>
      </trkpt>
      <trkpt lat="39.865759" lon="3.042621">
        <ele>29.6</ele>
        <time>2016-04-18T09:30:30Z</time>
      </trkpt>
      <trkpt lat="39.865611" lon="3.042524">
        <ele>30</ele>
        <time>2016-04-18T09:30:33Z</time>
      </trkpt>
      <trkpt lat="39.865561" lon="3.042493">
        <ele>30.4</ele>
        <time>2016-04-18T09:30:34Z</time>
      </trkpt>
      <trkpt lat="39.865518" lon="3.042462">
        <ele>30.8</ele>
        <time>2016-04-18T09:30:35Z</time>
      </trkpt>
      <trkpt lat="39.865477" lon="3.042436">
        <ele>31.4</ele>
        <time>2016-04-18T09:30:36Z</time>
      </trkpt>
      <trkpt lat="39.865438" lon="3.042407">
        <ele>31.8</ele>
        <time>2016-04-18T09:30:37Z</time>
      </trkpt>
      <trkpt lat="39.865394" lon="3.042384">
        <ele>32.2</ele>
        <time>2016-04-18T09:30:38Z</time>
      </trkpt>
      <trkpt lat="39.865352" lon="3.042362">
        <ele>32.6</ele>
        <time>2016-04-18T09:30:39Z</time>
      </trkpt>
      <trkpt lat="39.86531" lon="3.042336">
        <ele>33</ele>
        <time>2016-04-18T09:30:40Z</time>
      </trkpt>
      <trkpt lat="39.865266" lon="3.042308">
        <ele>33.4</ele>
        <time>2016-04-18T09:30:41Z</time>
      </trkpt>
      <trkpt lat="39.865222" lon="3.042286">
        <ele>33.8</ele>
        <time>2016-04-18T09:30:42Z</time>
      </trkpt>
      <trkpt lat="39.864957" lon="3.042118">
        <ele>33.8</ele>
        <time>2016-04-18T09:30:48Z</time>
      </trkpt>
      <trkpt lat="39.864821" lon="3.042046">
        <ele>34.4</ele>
        <time>2016-04-18T09:30:51Z</time>
      </trkpt>
      <trkpt lat="39.864779" lon="3.04202">
        <ele>34.8</ele>
        <time>2016-04-18T09:30:52Z</time>
      </trkpt>
      <trkpt lat="39.864741" lon="3.041992">
        <ele>35.2</ele>
        <time>2016-04-18T09:30:53Z</time>
      </trkpt>
      <trkpt lat="39.864703" lon="3.041961">
        <ele>35.6</ele>
        <time>2016-04-18T09:30:54Z</time>
      </trkpt>
      <trkpt lat="39.864665" lon="3.041932">
        <ele>36.2</ele>
        <time>2016-04-18T09:30:55Z</time>
      </trkpt>
      <trkpt lat="39.864625" lon="3.041899">
        <ele>36.2</ele>
        <time>2016-04-18T09:30:56Z</time>
      </trkpt>
      <trkpt lat="39.864507" lon="3.041809">
        <ele>36.6</ele>
        <time>2016-04-18T09:30:59Z</time>
      </trkpt>
      <trkpt lat="39.864469" lon="3.041784">
        <ele>37</ele>
        <time>2016-04-18T09:31:00Z</time>
      </trkpt>
      <trkpt lat="39.864425" lon="3.041753">
        <ele>37.4</ele>
        <time>2016-04-18T09:31:01Z</time>
      </trkpt>
      <trkpt lat="39.864384" lon="3.041721">
        <ele>38</ele>
        <time>2016-04-18T09:31:02Z</time>
      </trkpt>
      <trkpt lat="39.864343" lon="3.04169">
        <ele>38.4</ele>
        <time>2016-04-18T09:31:03Z</time>
      </trkpt>
      <trkpt lat="39.864049" lon="3.041472">
        <ele>38.4</ele>
        <time>2016-04-18T09:31:10Z</time>
      </trkpt>
      <trkpt lat="39.864008" lon="3.041441">
        <ele>38.8</ele>
        <time>2016-04-18T09:31:11Z</time>
      </trkpt>
      <trkpt lat="39.863969" lon="3.041409">
        <ele>39.2</ele>
        <time>2016-04-18T09:31:12Z</time>
      </trkpt>
      <trkpt lat="39.863929" lon="3.041374">
        <ele>40.2</ele>
        <time>2016-04-18T09:31:13Z</time>
      </trkpt>
      <trkpt lat="39.863889" lon="3.041341">
        <ele>40.6</ele>
        <time>2016-04-18T09:31:14Z</time>
      </trkpt>
      <trkpt lat="39.863694" lon="3.041178">
        <ele>40.6</ele>
        <time>2016-04-18T09:31:19Z</time>
      </trkpt>
      <trkpt lat="39.863614" lon="3.041111">
        <ele>40.6</ele>
        <time>2016-04-18T09:31:21Z</time>
      </trkpt>
      <trkpt lat="39.863462" lon="3.040976">
        <ele>41</ele>
        <time>2016-04-18T09:31:25Z</time>
      </trkpt>
      <trkpt lat="39.863425" lon="3.040943">
        <ele>41.4</ele>
        <time>2016-04-18T09:31:26Z</time>
      </trkpt>
      <trkpt lat="39.863387" lon="3.040911">
        <ele>41.8</ele>
        <time>2016-04-18T09:31:27Z</time>
      </trkpt>
      <trkpt lat="39.86335" lon="3.040878">
        <ele>42.2</ele>
        <time>2016-04-18T09:31:28Z</time>
      </trkpt>
      <trkpt lat="39.863314" lon="3.040851">
        <ele>42.6</ele>
        <time>2016-04-18T09:31:29Z</time>
      </trkpt>
      <trkpt lat="39.863214" lon="3.040767">
        <ele>42.6</ele>
        <time>2016-04-18T09:31:32Z</time>
      </trkpt>
      <trkpt lat="39.86318" lon="3.040741">
        <ele>43.2</ele>
        <time>2016-04-18T09:31:33Z</time>
      </trkpt>
      <trkpt lat="39.863148" lon="3.040717">
        <ele>43.6</ele>
        <time>2016-04-18T09:31:34Z</time>
      </trkpt>
      <trkpt lat="39.863116" lon="3.040692">
        <ele>44.2</ele>
        <time>2016-04-18T09:31:35Z</time>
      </trkpt>
      <trkpt lat="39.863087" lon="3.040665">
        <ele>44.6</ele>
        <time>2016-04-18T09:31:36Z</time>
      </trkpt>
      <trkpt lat="39.863058" lon="3.040641">
        <ele>45.2</ele>
        <time>2016-04-18T09:31:37Z</time>
      </trkpt>
      <trkpt lat="39.863029" lon="3.040618">
        <ele>45.6</ele>
        <time>2016-04-18T09:31:38Z</time>
      </trkpt>
      <trkpt lat="39.863002" lon="3.040591">
        <ele>46</ele>
        <time>2016-04-18T09:31:39Z</time>
      </trkpt>
      <trkpt lat="39.862975" lon="3.040559">
        <ele>46.4</ele>
        <time>2016-04-18T09:31:40Z</time>
      </trkpt>
      <trkpt lat="39.862948" lon="3.04053">
        <ele>46.8</ele>
        <time>2016-04-18T09:31:41Z</time>
      </trkpt>
      <trkpt lat="39.86292" lon="3.040501">
        <ele>47.2</ele>
        <time>2016-04-18T09:31:42Z</time>
      </trkpt>
      <trkpt lat="39.862825" lon="3.040415">
        <ele>47.6</ele>
        <time>2016-04-18T09:31:45Z</time>
      </trkpt>
      <trkpt lat="39.86279" lon="3.040388">
        <ele>48.2</ele>
        <time>2016-04-18T09:31:46Z</time>
      </trkpt>
      <trkpt lat="39.862755" lon="3.040358">
        <ele>48.6</ele>
        <time>2016-04-18T09:31:47Z</time>
      </trkpt>
      <trkpt lat="39.862722" lon="3.040327">
        <ele>49</ele>
        <time>2016-04-18T09:31:48Z</time>
      </trkpt>
      <trkpt lat="39.862687" lon="3.0403">
        <ele>49.6</ele>
        <time>2016-04-18T09:31:49Z</time>
      </trkpt>
      <trkpt lat="39.862528" lon="3.040163">
        <ele>49.6</ele>
        <time>2016-04-18T09:31:54Z</time>
      </trkpt>
      <trkpt lat="39.862452" lon="3.040106">
        <ele>50</ele>
        <time>2016-04-18T09:31:56Z</time>
      </trkpt>
      <trkpt lat="39.862415" lon="3.040075">
        <ele>50.4</ele>
        <time>2016-04-18T09:31:57Z</time>
      </trkpt>
      <trkpt lat="39.862375" lon="3.040046">
        <ele>50.8</ele>
        <time>2016-04-18T09:31:58Z</time>
      </trkpt>
      <trkpt lat="39.862338" lon="3.040016">
        <ele>51.2</ele>
        <time>2016-04-18T09:31:59Z</time>
      </trkpt>
      <trkpt lat="39.862302" lon="3.039988">
        <ele>51.6</ele>
        <time>2016-04-18T09:32:00Z</time>
      </trkpt>
      <trkpt lat="39.862236" lon="3.039938">
        <ele>52</ele>
        <time>2016-04-18T09:32:02Z</time>
      </trkpt>
      <trkpt lat="39.862205" lon="3.039922">
        <ele>52.4</ele>
        <time>2016-04-18T09:32:03Z</time>
      </trkpt>
      <trkpt lat="39.86217" lon="3.039917">
        <ele>52.8</ele>
        <time>2016-04-18T09:32:04Z</time>
      </trkpt>
      <trkpt lat="39.862134" lon="3.03993">
        <ele>53.2</ele>
        <time>2016-04-18T09:32:05Z</time>
      </trkpt>
      <trkpt lat="39.862095" lon="3.03995">
        <ele>53.8</ele>
        <time>2016-04-18T09:32:06Z</time>
      </trkpt>
      <trkpt lat="39.862007" lon="3.039999">
        <ele>53.8</ele>
        <time>2016-04-18T09:32:08Z</time>
      </trkpt>
      <trkpt lat="39.861864" lon="3.040107">
        <ele>53.8</ele>
        <time>2016-04-18T09:32:11Z</time>
      </trkpt>
      <trkpt lat="39.861613" lon="3.040308">
        <ele>53.2</ele>
        <time>2016-04-18T09:32:15Z</time>
      </trkpt>
      <trkpt lat="39.861541" lon="3.040367">
        <ele>52.6</ele>
        <time>2016-04-18T09:32:16Z</time>
      </trkpt>
      <trkpt lat="39.861462" lon="3.040428">
        <ele>52.2</ele>
        <time>2016-04-18T09:32:17Z</time>
      </trkpt>
      <trkpt lat="39.861375" lon="3.040494">
        <ele>51.2</ele>
        <time>2016-04-18T09:32:18Z</time>
      </trkpt>
      <trkpt lat="39.861279" lon="3.040569">
        <ele>50.4</ele>
        <time>2016-04-18T09:32:19Z</time>
      </trkpt>
      <trkpt lat="39.861175" lon="3.040648">
        <ele>49.2</ele>
        <time>2016-04-18T09:32:20Z</time>
      </trkpt>
      <trkpt lat="39.861059" lon="3.040739">
        <ele>47.6</ele>
        <time>2016-04-18T09:32:21Z</time>
      </trkpt>
      <trkpt lat="39.860943" lon="3.040827">
        <ele>46</ele>
        <time>2016-04-18T09:32:22Z</time>
      </trkpt>
      <trkpt lat="39.860831" lon="3.040914">
        <ele>44</ele>
        <time>2016-04-18T09:32:23Z</time>
      </trkpt>
      <trkpt lat="39.860722" lon="3.040999">
        <ele>42.2</ele>
        <time>2016-04-18T09:32:24Z</time>
      </trkpt>
      <trkpt lat="39.860613" lon="3.041088">
        <ele>40.4</ele>
        <time>2016-04-18T09:32:25Z</time>
      </trkpt>
      <trkpt lat="39.860511" lon="3.04117">
        <ele>38.6</ele>
        <time>2016-04-18T09:32:26Z</time>
      </trkpt>
      <trkpt lat="39.860409" lon="3.041249">
        <ele>35.4</ele>
        <time>2016-04-18T09:32:27Z</time>
      </trkpt>
      <trkpt lat="39.86032" lon="3.04131">
        <ele>33.8</ele>
        <time>2016-04-18T09:32:28Z</time>
      </trkpt>
      <trkpt lat="39.860238" lon="3.041324">
        <ele>32.2</ele>
        <time>2016-04-18T09:32:29Z</time>
      </trkpt>
      <trkpt lat="39.86016" lon="3.041298">
        <ele>30.6</ele>
        <time>2016-04-18T09:32:30Z</time>
      </trkpt>
      <trkpt lat="39.860018" lon="3.041182">
        <ele>30.6</ele>
        <time>2016-04-18T09:32:32Z</time>
      </trkpt>
      <trkpt lat="39.859946" lon="3.041102">
        <ele>30.6</ele>
        <time>2016-04-18T09:32:33Z</time>
      </trkpt>
      <trkpt lat="39.859879" lon="3.041025">
        <ele>30.6</ele>
        <time>2016-04-18T09:32:34Z</time>
      </trkpt>
      <trkpt lat="39.859535" lon="3.040641">
        <ele>30.6</ele>
        <time>2016-04-18T09:32:39Z</time>
      </trkpt>
      <trkpt lat="39.859386" lon="3.040492">
        <ele>30.2</ele>
        <time>2016-04-18T09:32:41Z</time>
      </trkpt>
      <trkpt lat="39.859312" lon="3.040413">
        <ele>29.8</ele>
        <time>2016-04-18T09:32:42Z</time>
      </trkpt>
      <trkpt lat="39.859239" lon="3.040333">
        <ele>29.2</ele>
        <time>2016-04-18T09:32:43Z</time>
      </trkpt>
      <trkpt lat="39.859163" lon="3.040249">
        <ele>28.8</ele>
        <time>2016-04-18T09:32:44Z</time>
      </trkpt>
      <trkpt lat="39.859091" lon="3.040171">
        <ele>28.4</ele>
        <time>2016-04-18T09:32:45Z</time>
      </trkpt>
      <trkpt lat="39.858949" lon="3.04002">
        <ele>28.4</ele>
        <time>2016-04-18T09:32:47Z</time>
      </trkpt>
      <trkpt lat="39.858884" lon="3.039942">
        <ele>28</ele>
        <time>2016-04-18T09:32:48Z</time>
      </trkpt>
      <trkpt lat="39.858821" lon="3.039864">
        <ele>27.6</ele>
        <time>2016-04-18T09:32:49Z</time>
      </trkpt>
      <trkpt lat="39.85876" lon="3.03978">
        <ele>27.2</ele>
        <time>2016-04-18T09:32:50Z</time>
      </trkpt>
      <trkpt lat="39.858696" lon="3.039696">
        <ele>26.8</ele>
        <time>2016-04-18T09:32:51Z</time>
      </trkpt>
      <trkpt lat="39.85863" lon="3.039621">
        <ele>26.2</ele>
        <time>2016-04-18T09:32:52Z</time>
      </trkpt>
      <trkpt lat="39.858494" lon="3.039482">
        <ele>26.2</ele>
        <time>2016-04-18T09:32:54Z</time>
      </trkpt>
      <trkpt lat="39.858188" lon="3.03914">
        <ele>26.2</ele>
        <time>2016-04-18T09:32:59Z</time>
      </trkpt>
      <trkpt lat="39.85813" lon="3.039081">
        <ele>26.2</ele>
        <time>2016-04-18T09:33:00Z</time>
      </trkpt>
      <trkpt lat="39.85807" lon="3.039031">
        <ele>26.8</ele>
        <time>2016-04-18T09:33:01Z</time>
      </trkpt>
      <trkpt lat="39.858006" lon="3.038997">
        <ele>27.2</ele>
        <time>2016-04-18T09:33:02Z</time>
      </trkpt>
      <trkpt lat="39.857949" lon="3.038968">
        <ele>27.6</ele>
        <time>2016-04-18T09:33:03Z</time>
      </trkpt>
      <trkpt lat="39.857891" lon="3.038937">
        <ele>28</ele>
        <time>2016-04-18T09:33:04Z</time>
      </trkpt>
      <trkpt lat="39.857832" lon="3.038897">
        <ele>28.4</ele>
        <time>2016-04-18T09:33:05Z</time>
      </trkpt>
      <trkpt lat="39.857774" lon="3.038846">
        <ele>28.4</ele>
        <time>2016-04-18T09:33:06Z</time>
      </trkpt>
      <trkpt lat="39.857616" lon="3.038697">
        <ele>28.4</ele>
        <time>2016-04-18T09:33:09Z</time>
      </trkpt>
      <trkpt lat="39.857264" lon="3.038344">
        <ele>28.4</ele>
        <time>2016-04-18T09:33:16Z</time>
      </trkpt>
      <trkpt lat="39.857209" lon="3.038294">
        <ele>29.4</ele>
        <time>2016-04-18T09:33:17Z</time>
      </trkpt>
      <trkpt lat="39.857158" lon="3.038249">
        <ele>29.8</ele>
        <time>2016-04-18T09:33:18Z</time>
      </trkpt>
      <trkpt lat="39.857105" lon="3.038205">
        <ele>30.2</ele>
        <time>2016-04-18T09:33:19Z</time>
      </trkpt>
      <trkpt lat="39.857054" lon="3.03816">
        <ele>30.6</ele>
        <time>2016-04-18T09:33:20Z</time>
      </trkpt>
      <trkpt lat="39.856795" lon="3.037918">
        <ele>30.6</ele>
        <time>2016-04-18T09:33:25Z</time>
      </trkpt>
      <trkpt lat="39.856699" lon="3.0378">
        <ele>30.6</ele>
        <time>2016-04-18T09:33:27Z</time>
      </trkpt>
      <trkpt lat="39.856545" lon="3.037624">
        <ele>30.6</ele>
        <time>2016-04-18T09:33:30Z</time>
      </trkpt>
      <trkpt lat="39.85623" lon="3.037389">
        <ele>30.6</ele>
        <time>2016-04-18T09:33:35Z</time>
      </trkpt>
      <trkpt lat="39.855932" lon="3.03723">
        <ele>30.6</ele>
        <time>2016-04-18T09:33:39Z</time>
      </trkpt>
      <trkpt lat="39.855853" lon="3.037203">
        <ele>30.2</ele>
        <time>2016-04-18T09:33:40Z</time>
      </trkpt>
      <trkpt lat="39.855776" lon="3.037163">
        <ele>29.2</ele>
        <time>2016-04-18T09:33:41Z</time>
      </trkpt>
      <trkpt lat="39.855716" lon="3.037099">
        <ele>28.8</ele>
        <time>2016-04-18T09:33:42Z</time>
      </trkpt>
      <trkpt lat="39.855665" lon="3.03702">
        <ele>28.4</ele>
        <time>2016-04-18T09:33:43Z</time>
      </trkpt>
      <trkpt lat="39.855437" lon="3.03668">
        <ele>28.4</ele>
        <time>2016-04-18T09:33:48Z</time>
      </trkpt>
      <trkpt lat="39.855449" lon="3.036529">
        <ele>28.4</ele>
        <time>2016-04-18T09:33:50Z</time>
      </trkpt>
      <trkpt lat="39.855519" lon="3.036391">
        <ele>28.8</ele>
        <time>2016-04-18T09:33:52Z</time>
      </trkpt>
      <trkpt lat="39.855553" lon="3.03632">
        <ele>29.2</ele>
        <time>2016-04-18T09:33:53Z</time>
      </trkpt>
      <trkpt lat="39.855585" lon="3.036249">
        <ele>29.6</ele>
        <time>2016-04-18T09:33:54Z</time>
      </trkpt>
      <trkpt lat="39.855621" lon="3.036178">
        <ele>30</ele>
        <time>2016-04-18T09:33:55Z</time>
      </trkpt>
      <trkpt lat="39.855656" lon="3.036107">
        <ele>30.4</ele>
        <time>2016-04-18T09:33:56Z</time>
      </trkpt>
      <trkpt lat="39.855816" lon="3.035747">
        <ele>30.4</ele>
        <time>2016-04-18T09:34:01Z</time>
      </trkpt>
      <trkpt lat="39.855921" lon="3.035454">
        <ele>30.4</ele>
        <time>2016-04-18T09:34:05Z</time>
      </trkpt>
      <trkpt lat="39.855943" lon="3.03538">
        <ele>30.4</ele>
        <time>2016-04-18T09:34:06Z</time>
      </trkpt>
      <trkpt lat="39.85602" lon="3.035152">
        <ele>30.4</ele>
        <time>2016-04-18T09:34:09Z</time>
      </trkpt>
      <trkpt lat="39.856071" lon="3.03492">
        <ele>30.8</ele>
        <time>2016-04-18T09:34:12Z</time>
      </trkpt>
      <trkpt lat="39.856083" lon="3.034849">
        <ele>31.2</ele>
        <time>2016-04-18T09:34:13Z</time>
      </trkpt>
      <trkpt lat="39.856097" lon="3.034779">
        <ele>31.6</ele>
        <time>2016-04-18T09:34:14Z</time>
      </trkpt>
      <trkpt lat="39.856116" lon="3.034704">
        <ele>32</ele>
        <time>2016-04-18T09:34:15Z</time>
      </trkpt>
      <trkpt lat="39.856133" lon="3.03463">
        <ele>32.4</ele>
        <time>2016-04-18T09:34:16Z</time>
      </trkpt>
      <trkpt lat="39.856158" lon="3.03456">
        <ele>32.4</ele>
        <time>2016-04-18T09:34:17Z</time>
      </trkpt>
      <trkpt lat="39.85618" lon="3.03449">
        <ele>32.4</ele>
        <time>2016-04-18T09:34:18Z</time>
      </trkpt>
      <trkpt lat="39.85623" lon="3.03435">
        <ele>33</ele>
        <time>2016-04-18T09:34:20Z</time>
      </trkpt>
      <trkpt lat="39.85626" lon="3.034284">
        <ele>33.4</ele>
        <time>2016-04-18T09:34:21Z</time>
      </trkpt>
      <trkpt lat="39.856293" lon="3.034218">
        <ele>33.8</ele>
        <time>2016-04-18T09:34:22Z</time>
      </trkpt>
      <trkpt lat="39.856327" lon="3.034154">
        <ele>34.2</ele>
        <time>2016-04-18T09:34:23Z</time>
      </trkpt>
      <trkpt lat="39.856363" lon="3.034092">
        <ele>34.6</ele>
        <time>2016-04-18T09:34:24Z</time>
      </trkpt>
      <trkpt lat="39.856619" lon="3.033662">
        <ele>34.6</ele>
        <time>2016-04-18T09:34:31Z</time>
      </trkpt>
      <trkpt lat="39.856742" lon="3.033505">
        <ele>34.6</ele>
        <time>2016-04-18T09:34:34Z</time>
      </trkpt>
      <trkpt lat="39.85683" lon="3.033408">
        <ele>35</ele>
        <time>2016-04-18T09:34:36Z</time>
      </trkpt>
      <trkpt lat="39.856872" lon="3.033356">
        <ele>35.4</ele>
        <time>2016-04-18T09:34:37Z</time>
      </trkpt>
      <trkpt lat="39.856912" lon="3.033306">
        <ele>35.8</ele>
        <time>2016-04-18T09:34:38Z</time>
      </trkpt>
      <trkpt lat="39.856949" lon="3.033256">
        <ele>36.4</ele>
        <time>2016-04-18T09:34:39Z</time>
      </trkpt>
      <trkpt lat="39.856982" lon="3.033205">
        <ele>36.8</ele>
        <time>2016-04-18T09:34:40Z</time>
      </trkpt>
      <trkpt lat="39.857078" lon="3.033064">
        <ele>36.8</ele>
        <time>2016-04-18T09:34:43Z</time>
      </trkpt>
      <trkpt lat="39.857107" lon="3.03302">
        <ele>37.2</ele>
        <time>2016-04-18T09:34:44Z</time>
      </trkpt>
      <trkpt lat="39.857138" lon="3.032973">
        <ele>37.6</ele>
        <time>2016-04-18T09:34:45Z</time>
      </trkpt>
      <trkpt lat="39.857162" lon="3.032924">
        <ele>38</ele>
        <time>2016-04-18T09:34:46Z</time>
      </trkpt>
      <trkpt lat="39.857184" lon="3.032872">
        <ele>38.4</ele>
        <time>2016-04-18T09:34:47Z</time>
      </trkpt>
      <trkpt lat="39.857191" lon="3.032812">
        <ele>38.8</ele>
        <time>2016-04-18T09:34:48Z</time>
      </trkpt>
      <trkpt lat="39.857189" lon="3.032753">
        <ele>38.8</ele>
        <time>2016-04-18T09:34:49Z</time>
      </trkpt>
      <trkpt lat="39.857189" lon="3.032697">
        <ele>38.8</ele>
        <time>2016-04-18T09:34:50Z</time>
      </trkpt>
      <trkpt lat="39.857193" lon="3.032641">
        <ele>39.4</ele>
        <time>2016-04-18T09:34:51Z</time>
      </trkpt>
      <trkpt lat="39.857194" lon="3.032582">
        <ele>39.8</ele>
        <time>2016-04-18T09:34:52Z</time>
      </trkpt>
      <trkpt lat="39.857196" lon="3.032527">
        <ele>40.2</ele>
        <time>2016-04-18T09:34:53Z</time>
      </trkpt>
      <trkpt lat="39.857196" lon="3.032474">
        <ele>40.8</ele>
        <time>2016-04-18T09:34:54Z</time>
      </trkpt>
      <trkpt lat="39.857197" lon="3.032424">
        <ele>41.2</ele>
        <time>2016-04-18T09:34:55Z</time>
      </trkpt>
      <trkpt lat="39.857198" lon="3.032268">
        <ele>41.6</ele>
        <time>2016-04-18T09:34:58Z</time>
      </trkpt>
      <trkpt lat="39.857198" lon="3.032212">
        <ele>42</ele>
        <time>2016-04-18T09:34:59Z</time>
      </trkpt>
      <trkpt lat="39.857201" lon="3.032159">
        <ele>42.4</ele>
        <time>2016-04-18T09:35:00Z</time>
      </trkpt>
      <trkpt lat="39.857202" lon="3.032106">
        <ele>42.8</ele>
        <time>2016-04-18T09:35:01Z</time>
      </trkpt>
      <trkpt lat="39.857204" lon="3.032053">
        <ele>43.2</ele>
        <time>2016-04-18T09:35:02Z</time>
      </trkpt>
      <trkpt lat="39.857205" lon="3.031942">
        <ele>43.2</ele>
        <time>2016-04-18T09:35:04Z</time>
      </trkpt>
      <trkpt lat="39.857204" lon="3.031835">
        <ele>43.2</ele>
        <time>2016-04-18T09:35:06Z</time>
      </trkpt>
      <trkpt lat="39.857197" lon="3.031675">
        <ele>43.2</ele>
        <time>2016-04-18T09:35:09Z</time>
      </trkpt>
      <trkpt lat="39.857199" lon="3.031623">
        <ele>43.2</ele>
        <time>2016-04-18T09:35:10Z</time>
      </trkpt>
      <trkpt lat="39.857201" lon="3.031518">
        <ele>43.6</ele>
        <time>2016-04-18T09:35:12Z</time>
      </trkpt>
      <trkpt lat="39.8572" lon="3.031465">
        <ele>44</ele>
        <time>2016-04-18T09:35:13Z</time>
      </trkpt>
      <trkpt lat="39.857201" lon="3.031409">
        <ele>44.6</ele>
        <time>2016-04-18T09:35:14Z</time>
      </trkpt>
      <trkpt lat="39.8572" lon="3.031358">
        <ele>45</ele>
        <time>2016-04-18T09:35:15Z</time>
      </trkpt>
      <trkpt lat="39.857202" lon="3.031311">
        <ele>45.4</ele>
        <time>2016-04-18T09:35:16Z</time>
      </trkpt>
      <trkpt lat="39.857213" lon="3.031211">
        <ele>45.4</ele>
        <time>2016-04-18T09:35:18Z</time>
      </trkpt>
      <trkpt lat="39.857227" lon="3.031113">
        <ele>46.2</ele>
        <time>2016-04-18T09:35:20Z</time>
      </trkpt>
      <trkpt lat="39.857228" lon="3.031065">
        <ele>46.6</ele>
        <time>2016-04-18T09:35:21Z</time>
      </trkpt>
      <trkpt lat="39.857235" lon="3.031016">
        <ele>47</ele>
        <time>2016-04-18T09:35:22Z</time>
      </trkpt>
      <trkpt lat="39.857247" lon="3.03097">
        <ele>47.4</ele>
        <time>2016-04-18T09:35:23Z</time>
      </trkpt>
      <trkpt lat="39.857268" lon="3.030873">
        <ele>47.4</ele>
        <time>2016-04-18T09:35:25Z</time>
      </trkpt>
      <trkpt lat="39.857273" lon="3.030716">
        <ele>47.4</ele>
        <time>2016-04-18T09:35:28Z</time>
      </trkpt>
      <trkpt lat="39.857264" lon="3.030613">
        <ele>47.4</ele>
        <time>2016-04-18T09:35:30Z</time>
      </trkpt>
      <trkpt lat="39.857257" lon="3.030562">
        <ele>47.8</ele>
        <time>2016-04-18T09:35:31Z</time>
      </trkpt>
      <trkpt lat="39.857247" lon="3.030512">
        <ele>48.4</ele>
        <time>2016-04-18T09:35:32Z</time>
      </trkpt>
      <trkpt lat="39.857239" lon="3.030465">
        <ele>48.8</ele>
        <time>2016-04-18T09:35:33Z</time>
      </trkpt>
      <trkpt lat="39.85723" lon="3.030421">
        <ele>49.2</ele>
        <time>2016-04-18T09:35:34Z</time>
      </trkpt>
      <trkpt lat="39.857219" lon="3.03038">
        <ele>49.6</ele>
        <time>2016-04-18T09:35:35Z</time>
      </trkpt>
      <trkpt lat="39.857208" lon="3.030336">
        <ele>49.6</ele>
        <time>2016-04-18T09:35:36Z</time>
      </trkpt>
      <trkpt lat="39.857184" lon="3.030258">
        <ele>50</ele>
        <time>2016-04-18T09:35:38Z</time>
      </trkpt>
      <trkpt lat="39.857172" lon="3.03022">
        <ele>50.6</ele>
        <time>2016-04-18T09:35:39Z</time>
      </trkpt>
      <trkpt lat="39.857161" lon="3.03018">
        <ele>51</ele>
        <time>2016-04-18T09:35:40Z</time>
      </trkpt>
      <trkpt lat="39.857148" lon="3.030142">
        <ele>51.4</ele>
        <time>2016-04-18T09:35:41Z</time>
      </trkpt>
      <trkpt lat="39.857136" lon="3.030101">
        <ele>51.8</ele>
        <time>2016-04-18T09:35:42Z</time>
      </trkpt>
      <trkpt lat="39.857123" lon="3.030062">
        <ele>51.8</ele>
        <time>2016-04-18T09:35:43Z</time>
      </trkpt>
      <trkpt lat="39.857086" lon="3.029982">
        <ele>52.8</ele>
        <time>2016-04-18T09:35:45Z</time>
      </trkpt>
      <trkpt lat="39.85706" lon="3.029944">
        <ele>53.2</ele>
        <time>2016-04-18T09:35:46Z</time>
      </trkpt>
      <trkpt lat="39.857031" lon="3.029915">
        <ele>53.6</ele>
        <time>2016-04-18T09:35:47Z</time>
      </trkpt>
      <trkpt lat="39.857005" lon="3.029906">
        <ele>54</ele>
        <time>2016-04-18T09:35:48Z</time>
      </trkpt>
      <trkpt lat="39.856899" lon="3.029959">
        <ele>54</ele>
        <time>2016-04-18T09:35:52Z</time>
      </trkpt>
      <trkpt lat="39.856862" lon="3.029977">
        <ele>54</ele>
        <time>2016-04-18T09:35:53Z</time>
      </trkpt>
      <trkpt lat="39.856825" lon="3.030007">
        <ele>54</ele>
        <time>2016-04-18T09:35:54Z</time>
      </trkpt>
      <trkpt lat="39.856708" lon="3.030143">
        <ele>54</ele>
        <time>2016-04-18T09:35:57Z</time>
      </trkpt>
      <trkpt lat="39.856668" lon="3.030204">
        <ele>53.6</ele>
        <time>2016-04-18T09:35:58Z</time>
      </trkpt>
      <trkpt lat="39.856627" lon="3.030273">
        <ele>53.2</ele>
        <time>2016-04-18T09:35:59Z</time>
      </trkpt>
      <trkpt lat="39.856585" lon="3.030339">
        <ele>52.8</ele>
        <time>2016-04-18T09:36:00Z</time>
      </trkpt>
      <trkpt lat="39.856541" lon="3.030407">
        <ele>52.4</ele>
        <time>2016-04-18T09:36:01Z</time>
      </trkpt>
      <trkpt lat="39.856494" lon="3.030478">
        <ele>52</ele>
        <time>2016-04-18T09:36:02Z</time>
      </trkpt>
      <trkpt lat="39.856393" lon="3.030636">
        <ele>51.6</ele>
        <time>2016-04-18T09:36:04Z</time>
      </trkpt>
      <trkpt lat="39.856338" lon="3.030716">
        <ele>51.2</ele>
        <time>2016-04-18T09:36:05Z</time>
      </trkpt>
      <trkpt lat="39.856279" lon="3.030799">
        <ele>50.8</ele>
        <time>2016-04-18T09:36:06Z</time>
      </trkpt>
      <trkpt lat="39.856212" lon="3.03089">
        <ele>50</ele>
        <time>2016-04-18T09:36:07Z</time>
      </trkpt>
      <trkpt lat="39.856148" lon="3.030978">
        <ele>49.4</ele>
        <time>2016-04-18T09:36:08Z</time>
      </trkpt>
      <trkpt lat="39.856082" lon="3.031065">
        <ele>48.8</ele>
        <time>2016-04-18T09:36:09Z</time>
      </trkpt>
      <trkpt lat="39.856013" lon="3.03115">
        <ele>47.4</ele>
        <time>2016-04-18T09:36:10Z</time>
      </trkpt>
      <trkpt lat="39.855943" lon="3.031235">
        <ele>46.8</ele>
        <time>2016-04-18T09:36:11Z</time>
      </trkpt>
      <trkpt lat="39.855871" lon="3.031321">
        <ele>46</ele>
        <time>2016-04-18T09:36:12Z</time>
      </trkpt>
      <trkpt lat="39.855795" lon="3.031405">
        <ele>45.4</ele>
        <time>2016-04-18T09:36:13Z</time>
      </trkpt>
      <trkpt lat="39.855716" lon="3.031492">
        <ele>44.6</ele>
        <time>2016-04-18T09:36:14Z</time>
      </trkpt>
      <trkpt lat="39.855637" lon="3.031573">
        <ele>43.8</ele>
        <time>2016-04-18T09:36:15Z</time>
      </trkpt>
      <trkpt lat="39.855561" lon="3.031653">
        <ele>43.2</ele>
        <time>2016-04-18T09:36:16Z</time>
      </trkpt>
      <trkpt lat="39.855486" lon="3.03173">
        <ele>42.8</ele>
        <time>2016-04-18T09:36:17Z</time>
      </trkpt>
      <trkpt lat="39.855412" lon="3.031806">
        <ele>42.2</ele>
        <time>2016-04-18T09:36:18Z</time>
      </trkpt>
      <trkpt lat="39.855338" lon="3.031886">
        <ele>41.6</ele>
        <time>2016-04-18T09:36:19Z</time>
      </trkpt>
      <trkpt lat="39.855267" lon="3.031964">
        <ele>41</ele>
        <time>2016-04-18T09:36:20Z</time>
      </trkpt>
      <trkpt lat="39.855197" lon="3.03204">
        <ele>41</ele>
        <time>2016-04-18T09:36:21Z</time>
      </trkpt>
      <trkpt lat="39.855055" lon="3.032191">
        <ele>41</ele>
        <time>2016-04-18T09:36:23Z</time>
      </trkpt>
      <trkpt lat="39.854982" lon="3.032263">
        <ele>41</ele>
        <time>2016-04-18T09:36:24Z</time>
      </trkpt>
      <trkpt lat="39.854704" lon="3.032556">
        <ele>41</ele>
        <time>2016-04-18T09:36:28Z</time>
      </trkpt>
      <trkpt lat="39.854322" lon="3.032967">
        <ele>41</ele>
        <time>2016-04-18T09:36:34Z</time>
      </trkpt>
      <trkpt lat="39.854197" lon="3.033102">
        <ele>41</ele>
        <time>2016-04-18T09:36:36Z</time>
      </trkpt>
      <trkpt lat="39.854024" lon="3.033288">
        <ele>41</ele>
        <time>2016-04-18T09:36:39Z</time>
      </trkpt>
      <trkpt lat="39.853913" lon="3.033412">
        <ele>41</ele>
        <time>2016-04-18T09:36:41Z</time>
      </trkpt>
      <trkpt lat="39.853859" lon="3.033471">
        <ele>41.4</ele>
        <time>2016-04-18T09:36:42Z</time>
      </trkpt>
      <trkpt lat="39.853799" lon="3.033535">
        <ele>42</ele>
        <time>2016-04-18T09:36:43Z</time>
      </trkpt>
      <trkpt lat="39.853744" lon="3.033593">
        <ele>42.4</ele>
        <time>2016-04-18T09:36:44Z</time>
      </trkpt>
      <trkpt lat="39.853688" lon="3.033652">
        <ele>42.8</ele>
        <time>2016-04-18T09:36:45Z</time>
      </trkpt>
      <trkpt lat="39.853634" lon="3.033711">
        <ele>43.2</ele>
        <time>2016-04-18T09:36:46Z</time>
      </trkpt>
      <trkpt lat="39.853465" lon="3.033883">
        <ele>43.2</ele>
        <time>2016-04-18T09:36:49Z</time>
      </trkpt>
      <trkpt lat="39.853408" lon="3.033944">
        <ele>43.8</ele>
        <time>2016-04-18T09:36:50Z</time>
      </trkpt>
      <trkpt lat="39.853344" lon="3.034009">
        <ele>44.2</ele>
        <time>2016-04-18T09:36:51Z</time>
      </trkpt>
      <trkpt lat="39.853281" lon="3.034064">
        <ele>44.6</ele>
        <time>2016-04-18T09:36:52Z</time>
      </trkpt>
      <trkpt lat="39.853214" lon="3.034113">
        <ele>45</ele>
        <time>2016-04-18T09:36:53Z</time>
      </trkpt>
      <trkpt lat="39.853145" lon="3.034155">
        <ele>45.4</ele>
        <time>2016-04-18T09:36:54Z</time>
      </trkpt>
      <trkpt lat="39.853004" lon="3.034236">
        <ele>45.4</ele>
        <time>2016-04-18T09:36:56Z</time>
      </trkpt>
      <trkpt lat="39.852639" lon="3.034378">
        <ele>45.4</ele>
        <time>2016-04-18T09:37:01Z</time>
      </trkpt>
      <trkpt lat="39.852564" lon="3.034384">
        <ele>45.4</ele>
        <time>2016-04-18T09:37:02Z</time>
      </trkpt>
      <trkpt lat="39.852334" lon="3.034395">
        <ele>45.4</ele>
        <time>2016-04-18T09:37:05Z</time>
      </trkpt>
      <trkpt lat="39.851934" lon="3.034322">
        <ele>45.4</ele>
        <time>2016-04-18T09:37:10Z</time>
      </trkpt>
      <trkpt lat="39.851396" lon="3.034094">
        <ele>45.4</ele>
        <time>2016-04-18T09:37:17Z</time>
      </trkpt>
      <trkpt lat="39.850875" lon="3.033813">
        <ele>45.4</ele>
        <time>2016-04-18T09:37:24Z</time>
      </trkpt>
      <trkpt lat="39.850443" lon="3.033626">
        <ele>45.4</ele>
        <time>2016-04-18T09:37:30Z</time>
      </trkpt>
      <trkpt lat="39.849932" lon="3.03349">
        <ele>45.4</ele>
        <time>2016-04-18T09:37:37Z</time>
      </trkpt>
      <trkpt lat="39.849345" lon="3.03341">
        <ele>45.4</ele>
        <time>2016-04-18T09:37:45Z</time>
      </trkpt>
      <trkpt lat="39.849077" lon="3.033395">
        <ele>46.4</ele>
        <time>2016-04-18T09:37:49Z</time>
      </trkpt>
      <trkpt lat="39.849012" lon="3.033394">
        <ele>46.8</ele>
        <time>2016-04-18T09:37:50Z</time>
      </trkpt>
      <trkpt lat="39.848945" lon="3.033392">
        <ele>47.2</ele>
        <time>2016-04-18T09:37:51Z</time>
      </trkpt>
      <trkpt lat="39.848876" lon="3.033385">
        <ele>47.6</ele>
        <time>2016-04-18T09:37:52Z</time>
      </trkpt>
      <trkpt lat="39.848478" lon="3.03336">
        <ele>48.2</ele>
        <time>2016-04-18T09:37:58Z</time>
      </trkpt>
      <trkpt lat="39.848409" lon="3.033355">
        <ele>48.6</ele>
        <time>2016-04-18T09:37:59Z</time>
      </trkpt>
      <trkpt lat="39.848344" lon="3.033347">
        <ele>49</ele>
        <time>2016-04-18T09:38:00Z</time>
      </trkpt>
      <trkpt lat="39.848278" lon="3.033337">
        <ele>49.4</ele>
        <time>2016-04-18T09:38:01Z</time>
      </trkpt>
      <trkpt lat="39.848211" lon="3.033326">
        <ele>49.8</ele>
        <time>2016-04-18T09:38:02Z</time>
      </trkpt>
      <trkpt lat="39.847943" lon="3.033291">
        <ele>49.8</ele>
        <time>2016-04-18T09:38:06Z</time>
      </trkpt>
      <trkpt lat="39.847548" lon="3.033215">
        <ele>50.2</ele>
        <time>2016-04-18T09:38:12Z</time>
      </trkpt>
      <trkpt lat="39.84748" lon="3.033201">
        <ele>50.6</ele>
        <time>2016-04-18T09:38:13Z</time>
      </trkpt>
      <trkpt lat="39.847414" lon="3.033185">
        <ele>51.6</ele>
        <time>2016-04-18T09:38:14Z</time>
      </trkpt>
      <trkpt lat="39.847349" lon="3.033164">
        <ele>52</ele>
        <time>2016-04-18T09:38:15Z</time>
      </trkpt>
      <trkpt lat="39.847148" lon="3.033098">
        <ele>52</ele>
        <time>2016-04-18T09:38:18Z</time>
      </trkpt>
      <trkpt lat="39.847017" lon="3.033047">
        <ele>52</ele>
        <time>2016-04-18T09:38:20Z</time>
      </trkpt>
      <trkpt lat="39.846885" lon="3.032992">
        <ele>52.4</ele>
        <time>2016-04-18T09:38:22Z</time>
      </trkpt>
      <trkpt lat="39.846819" lon="3.03296">
        <ele>52.8</ele>
        <time>2016-04-18T09:38:23Z</time>
      </trkpt>
      <trkpt lat="39.846755" lon="3.032925">
        <ele>53.2</ele>
        <time>2016-04-18T09:38:24Z</time>
      </trkpt>
      <trkpt lat="39.846693" lon="3.032888">
        <ele>53.6</ele>
        <time>2016-04-18T09:38:25Z</time>
      </trkpt>
      <trkpt lat="39.846631" lon="3.032846">
        <ele>54</ele>
        <time>2016-04-18T09:38:26Z</time>
      </trkpt>
      <trkpt lat="39.846504" lon="3.032765">
        <ele>54</ele>
        <time>2016-04-18T09:38:28Z</time>
      </trkpt>
      <trkpt lat="39.846196" lon="3.032538">
        <ele>54</ele>
        <time>2016-04-18T09:38:33Z</time>
      </trkpt>
      <trkpt lat="39.846086" lon="3.032441">
        <ele>54</ele>
        <time>2016-04-18T09:38:35Z</time>
      </trkpt>
      <trkpt lat="39.84603" lon="3.032395">
        <ele>54.4</ele>
        <time>2016-04-18T09:38:36Z</time>
      </trkpt>
      <trkpt lat="39.845973" lon="3.032347">
        <ele>55</ele>
        <time>2016-04-18T09:38:37Z</time>
      </trkpt>
      <trkpt lat="39.845921" lon="3.032302">
        <ele>55.4</ele>
        <time>2016-04-18T09:38:38Z</time>
      </trkpt>
      <trkpt lat="39.845868" lon="3.032255">
        <ele>56.2</ele>
        <time>2016-04-18T09:38:39Z</time>
      </trkpt>
      <trkpt lat="39.845658" lon="3.032075">
        <ele>56.2</ele>
        <time>2016-04-18T09:38:43Z</time>
      </trkpt>
      <trkpt lat="39.845606" lon="3.03203">
        <ele>56.6</ele>
        <time>2016-04-18T09:38:44Z</time>
      </trkpt>
      <trkpt lat="39.845554" lon="3.031987">
        <ele>57.2</ele>
        <time>2016-04-18T09:38:45Z</time>
      </trkpt>
      <trkpt lat="39.845505" lon="3.031944">
        <ele>57.6</ele>
        <time>2016-04-18T09:38:46Z</time>
      </trkpt>
      <trkpt lat="39.845455" lon="3.031901">
        <ele>58</ele>
        <time>2016-04-18T09:38:47Z</time>
      </trkpt>
      <trkpt lat="39.845407" lon="3.031857">
        <ele>58.4</ele>
        <time>2016-04-18T09:38:48Z</time>
      </trkpt>
      <trkpt lat="39.845312" lon="3.031777">
        <ele>58.8</ele>
        <time>2016-04-18T09:38:50Z</time>
      </trkpt>
      <trkpt lat="39.845266" lon="3.031731">
        <ele>59.2</ele>
        <time>2016-04-18T09:38:51Z</time>
      </trkpt>
      <trkpt lat="39.845221" lon="3.031689">
        <ele>59.6</ele>
        <time>2016-04-18T09:38:52Z</time>
      </trkpt>
      <trkpt lat="39.845175" lon="3.03165">
        <ele>60</ele>
        <time>2016-04-18T09:38:53Z</time>
      </trkpt>
      <trkpt lat="39.845133" lon="3.031613">
        <ele>60.4</ele>
        <time>2016-04-18T09:38:54Z</time>
      </trkpt>
      <trkpt lat="39.844953" lon="3.031452">
        <ele>60.8</ele>
        <time>2016-04-18T09:38:58Z</time>
      </trkpt>
      <trkpt lat="39.844914" lon="3.031416">
        <ele>61.2</ele>
        <time>2016-04-18T09:38:59Z</time>
      </trkpt>
      <trkpt lat="39.844872" lon="3.031375">
        <ele>61.8</ele>
        <time>2016-04-18T09:39:00Z</time>
      </trkpt>
      <trkpt lat="39.844828" lon="3.031339">
        <ele>62.2</ele>
        <time>2016-04-18T09:39:01Z</time>
      </trkpt>
      <trkpt lat="39.844784" lon="3.031299">
        <ele>62.6</ele>
        <time>2016-04-18T09:39:02Z</time>
      </trkpt>
      <trkpt lat="39.844696" lon="3.031211">
        <ele>62.6</ele>
        <time>2016-04-18T09:39:04Z</time>
      </trkpt>
      <trkpt lat="39.844653" lon="3.031164">
        <ele>62.6</ele>
        <time>2016-04-18T09:39:05Z</time>
      </trkpt>
      <trkpt lat="39.844504" lon="3.031046">
        <ele>63</ele>
        <time>2016-04-18T09:39:08Z</time>
      </trkpt>
      <trkpt lat="39.844452" lon="3.031001">
        <ele>63.4</ele>
        <time>2016-04-18T09:39:09Z</time>
      </trkpt>
      <trkpt lat="39.844395" lon="3.030966">
        <ele>64</ele>
        <time>2016-04-18T09:39:10Z</time>
      </trkpt>
      <trkpt lat="39.844338" lon="3.030933">
        <ele>64.4</ele>
        <time>2016-04-18T09:39:11Z</time>
      </trkpt>
      <trkpt lat="39.844276" lon="3.030899">
        <ele>64.8</ele>
        <time>2016-04-18T09:39:12Z</time>
      </trkpt>
      <trkpt lat="39.84422" lon="3.030858">
        <ele>64.8</ele>
        <time>2016-04-18T09:39:13Z</time>
      </trkpt>
      <trkpt lat="39.84404" lon="3.030749">
        <ele>64.8</ele>
        <time>2016-04-18T09:39:16Z</time>
      </trkpt>
      <trkpt lat="39.843867" lon="3.030653">
        <ele>65.2</ele>
        <time>2016-04-18T09:39:19Z</time>
      </trkpt>
      <trkpt lat="39.843812" lon="3.030624">
        <ele>65.6</ele>
        <time>2016-04-18T09:39:20Z</time>
      </trkpt>
      <trkpt lat="39.843756" lon="3.030594">
        <ele>66</ele>
        <time>2016-04-18T09:39:21Z</time>
      </trkpt>
      <trkpt lat="39.843701" lon="3.030569">
        <ele>66.6</ele>
        <time>2016-04-18T09:39:22Z</time>
      </trkpt>
      <trkpt lat="39.843645" lon="3.03054">
        <ele>67</ele>
        <time>2016-04-18T09:39:23Z</time>
      </trkpt>
      <trkpt lat="39.84325" lon="3.030378">
        <ele>67</ele>
        <time>2016-04-18T09:39:30Z</time>
      </trkpt>
      <trkpt lat="39.843139" lon="3.030339">
        <ele>67</ele>
        <time>2016-04-18T09:39:32Z</time>
      </trkpt>
      <trkpt lat="39.842959" lon="3.030272">
        <ele>67</ele>
        <time>2016-04-18T09:39:35Z</time>
      </trkpt>
      <trkpt lat="39.842733" lon="3.030179">
        <ele>67</ele>
        <time>2016-04-18T09:39:39Z</time>
      </trkpt>
      <trkpt lat="39.842512" lon="3.030093">
        <ele>67</ele>
        <time>2016-04-18T09:39:43Z</time>
      </trkpt>
      <trkpt lat="39.842216" lon="3.02998">
        <ele>67</ele>
        <time>2016-04-18T09:39:48Z</time>
      </trkpt>
      <trkpt lat="39.842089" lon="3.029927">
        <ele>67</ele>
        <time>2016-04-18T09:39:50Z</time>
      </trkpt>
      <trkpt lat="39.841891" lon="3.029826">
        <ele>67</ele>
        <time>2016-04-18T09:39:53Z</time>
      </trkpt>
      <trkpt lat="39.841754" lon="3.029764">
        <ele>67</ele>
        <time>2016-04-18T09:39:55Z</time>
      </trkpt>
      <trkpt lat="39.841609" lon="3.029708">
        <ele>67</ele>
        <time>2016-04-18T09:39:57Z</time>
      </trkpt>
      <trkpt lat="39.841453" lon="3.029656">
        <ele>67</ele>
        <time>2016-04-18T09:39:59Z</time>
      </trkpt>
      <trkpt lat="39.841375" lon="3.029627">
        <ele>66.4</ele>
        <time>2016-04-18T09:40:00Z</time>
      </trkpt>
      <trkpt lat="39.841294" lon="3.029594">
        <ele>66</ele>
        <time>2016-04-18T09:40:01Z</time>
      </trkpt>
      <trkpt lat="39.841213" lon="3.029559">
        <ele>65.6</ele>
        <time>2016-04-18T09:40:02Z</time>
      </trkpt>
      <trkpt lat="39.841127" lon="3.029528">
        <ele>65.2</ele>
        <time>2016-04-18T09:40:03Z</time>
      </trkpt>
      <trkpt lat="39.841039" lon="3.029497">
        <ele>64.8</ele>
        <time>2016-04-18T09:40:04Z</time>
      </trkpt>
      <trkpt lat="39.840849" lon="3.029448">
        <ele>64.2</ele>
        <time>2016-04-18T09:40:06Z</time>
      </trkpt>
      <trkpt lat="39.840747" lon="3.029418">
        <ele>63.8</ele>
        <time>2016-04-18T09:40:07Z</time>
      </trkpt>
      <trkpt lat="39.840649" lon="3.029394">
        <ele>63.4</ele>
        <time>2016-04-18T09:40:08Z</time>
      </trkpt>
      <trkpt lat="39.840545" lon="3.029371">
        <ele>63</ele>
        <time>2016-04-18T09:40:09Z</time>
      </trkpt>
      <trkpt lat="39.840438" lon="3.029346">
        <ele>62.4</ele>
        <time>2016-04-18T09:40:10Z</time>
      </trkpt>
      <trkpt lat="39.840329" lon="3.029328">
        <ele>61.8</ele>
        <time>2016-04-18T09:40:11Z</time>
      </trkpt>
      <trkpt lat="39.840215" lon="3.029313">
        <ele>61.2</ele>
        <time>2016-04-18T09:40:12Z</time>
      </trkpt>
      <trkpt lat="39.840102" lon="3.029307">
        <ele>60.4</ele>
        <time>2016-04-18T09:40:13Z</time>
      </trkpt>
      <trkpt lat="39.83999" lon="3.029299">
        <ele>59.6</ele>
        <time>2016-04-18T09:40:14Z</time>
      </trkpt>
      <trkpt lat="39.839875" lon="3.029299">
        <ele>59</ele>
        <time>2016-04-18T09:40:15Z</time>
      </trkpt>
      <trkpt lat="39.839759" lon="3.029301">
        <ele>58.2</ele>
        <time>2016-04-18T09:40:16Z</time>
      </trkpt>
      <trkpt lat="39.839641" lon="3.029312">
        <ele>57.6</ele>
        <time>2016-04-18T09:40:17Z</time>
      </trkpt>
      <trkpt lat="39.839524" lon="3.029323">
        <ele>56.2</ele>
        <time>2016-04-18T09:40:18Z</time>
      </trkpt>
      <trkpt lat="39.839405" lon="3.029334">
        <ele>55.6</ele>
        <time>2016-04-18T09:40:19Z</time>
      </trkpt>
      <trkpt lat="39.839286" lon="3.029345">
        <ele>54.8</ele>
        <time>2016-04-18T09:40:20Z</time>
      </trkpt>
      <trkpt lat="39.839167" lon="3.029355">
        <ele>54.2</ele>
        <time>2016-04-18T09:40:21Z</time>
      </trkpt>
      <trkpt lat="39.839041" lon="3.029368">
        <ele>53.4</ele>
        <time>2016-04-18T09:40:22Z</time>
      </trkpt>
      <trkpt lat="39.838919" lon="3.029379">
        <ele>52.8</ele>
        <time>2016-04-18T09:40:23Z</time>
      </trkpt>
      <trkpt lat="39.838674" lon="3.029401">
        <ele>52.2</ele>
        <time>2016-04-18T09:40:25Z</time>
      </trkpt>
      <trkpt lat="39.83855" lon="3.029412">
        <ele>51.8</ele>
        <time>2016-04-18T09:40:26Z</time>
      </trkpt>
      <trkpt lat="39.838421" lon="3.029421">
        <ele>51.4</ele>
        <time>2016-04-18T09:40:27Z</time>
      </trkpt>
      <trkpt lat="39.838296" lon="3.029433">
        <ele>50.8</ele>
        <time>2016-04-18T09:40:28Z</time>
      </trkpt>
      <trkpt lat="39.838171" lon="3.02944">
        <ele>50.2</ele>
        <time>2016-04-18T09:40:29Z</time>
      </trkpt>
      <trkpt lat="39.838049" lon="3.02945">
        <ele>49.6</ele>
        <time>2016-04-18T09:40:30Z</time>
      </trkpt>
      <trkpt lat="39.83793" lon="3.029459">
        <ele>49</ele>
        <time>2016-04-18T09:40:31Z</time>
      </trkpt>
      <trkpt lat="39.83781" lon="3.029462">
        <ele>48.4</ele>
        <time>2016-04-18T09:40:32Z</time>
      </trkpt>
      <trkpt lat="39.837692" lon="3.029465">
        <ele>47.8</ele>
        <time>2016-04-18T09:40:33Z</time>
      </trkpt>
      <trkpt lat="39.837576" lon="3.029461">
        <ele>47.4</ele>
        <time>2016-04-18T09:40:34Z</time>
      </trkpt>
      <trkpt lat="39.837461" lon="3.029457">
        <ele>46.8</ele>
        <time>2016-04-18T09:40:35Z</time>
      </trkpt>
      <trkpt lat="39.837346" lon="3.029451">
        <ele>46.2</ele>
        <time>2016-04-18T09:40:36Z</time>
      </trkpt>
      <trkpt lat="39.837016" lon="3.029433">
        <ele>46.2</ele>
        <time>2016-04-18T09:40:39Z</time>
      </trkpt>
      <trkpt lat="39.836476" lon="3.029405">
        <ele>46.2</ele>
        <time>2016-04-18T09:40:44Z</time>
      </trkpt>
      <trkpt lat="39.836165" lon="3.029381">
        <ele>46.2</ele>
        <time>2016-04-18T09:40:47Z</time>
      </trkpt>
      <trkpt lat="39.835958" lon="3.029368">
        <ele>46.2</ele>
        <time>2016-04-18T09:40:49Z</time>
      </trkpt>
      <trkpt lat="39.83555" lon="3.029346">
        <ele>46.2</ele>
        <time>2016-04-18T09:40:53Z</time>
      </trkpt>
      <trkpt lat="39.835065" lon="3.029306">
        <ele>46.2</ele>
        <time>2016-04-18T09:40:58Z</time>
      </trkpt>
      <trkpt lat="39.834511" lon="3.029276">
        <ele>46.2</ele>
        <time>2016-04-18T09:41:04Z</time>
      </trkpt>
      <trkpt lat="39.834246" lon="3.029252">
        <ele>46.2</ele>
        <time>2016-04-18T09:41:07Z</time>
      </trkpt>
      <trkpt lat="39.833759" lon="3.029226">
        <ele>46.2</ele>
        <time>2016-04-18T09:41:13Z</time>
      </trkpt>
      <trkpt lat="39.833684" lon="3.029223">
        <ele>46.2</ele>
        <time>2016-04-18T09:41:14Z</time>
      </trkpt>
      <trkpt lat="39.833526" lon="3.029209">
        <ele>46.6</ele>
        <time>2016-04-18T09:41:16Z</time>
      </trkpt>
      <trkpt lat="39.833448" lon="3.029201">
        <ele>47</ele>
        <time>2016-04-18T09:41:17Z</time>
      </trkpt>
      <trkpt lat="39.833374" lon="3.029194">
        <ele>47.6</ele>
        <time>2016-04-18T09:41:18Z</time>
      </trkpt>
      <trkpt lat="39.833298" lon="3.029188">
        <ele>48</ele>
        <time>2016-04-18T09:41:19Z</time>
      </trkpt>
      <trkpt lat="39.833222" lon="3.029186">
        <ele>48.4</ele>
        <time>2016-04-18T09:41:20Z</time>
      </trkpt>
      <trkpt lat="39.833077" lon="3.029176">
        <ele>48.4</ele>
        <time>2016-04-18T09:41:22Z</time>
      </trkpt>
      <trkpt lat="39.832859" lon="3.029157">
        <ele>48.8</ele>
        <time>2016-04-18T09:41:25Z</time>
      </trkpt>
      <trkpt lat="39.83279" lon="3.02915">
        <ele>49.2</ele>
        <time>2016-04-18T09:41:26Z</time>
      </trkpt>
      <trkpt lat="39.83272" lon="3.029144">
        <ele>49.6</ele>
        <time>2016-04-18T09:41:27Z</time>
      </trkpt>
      <trkpt lat="39.832652" lon="3.029142">
        <ele>50</ele>
        <time>2016-04-18T09:41:28Z</time>
      </trkpt>
      <trkpt lat="39.832585" lon="3.029138">
        <ele>50.4</ele>
        <time>2016-04-18T09:41:29Z</time>
      </trkpt>
      <trkpt lat="39.832519" lon="3.029129">
        <ele>50.4</ele>
        <time>2016-04-18T09:41:30Z</time>
      </trkpt>
      <trkpt lat="39.832194" lon="3.029107">
        <ele>50.8</ele>
        <time>2016-04-18T09:41:35Z</time>
      </trkpt>
      <trkpt lat="39.832132" lon="3.029103">
        <ele>51.4</ele>
        <time>2016-04-18T09:41:36Z</time>
      </trkpt>
      <trkpt lat="39.832071" lon="3.029099">
        <ele>51.8</ele>
        <time>2016-04-18T09:41:37Z</time>
      </trkpt>
      <trkpt lat="39.832004" lon="3.029094">
        <ele>52.2</ele>
        <time>2016-04-18T09:41:38Z</time>
      </trkpt>
      <trkpt lat="39.831938" lon="3.029086">
        <ele>52.6</ele>
        <time>2016-04-18T09:41:39Z</time>
      </trkpt>
      <trkpt lat="39.831809" lon="3.029061">
        <ele>52.6</ele>
        <time>2016-04-18T09:41:41Z</time>
      </trkpt>
      <trkpt lat="39.831612" lon="3.029047">
        <ele>52.6</ele>
        <time>2016-04-18T09:41:44Z</time>
      </trkpt>
      <trkpt lat="39.831061" lon="3.029019">
        <ele>52.6</ele>
        <time>2016-04-18T09:41:52Z</time>
      </trkpt>
      <trkpt lat="39.830661" lon="3.028996">
        <ele>52.6</ele>
        <time>2016-04-18T09:41:58Z</time>
      </trkpt>
      <trkpt lat="39.830239" lon="3.028974">
        <ele>52.6</ele>
        <time>2016-04-18T09:42:04Z</time>
      </trkpt>
      <trkpt lat="39.829645" lon="3.028947">
        <ele>52.6</ele>
        <time>2016-04-18T09:42:12Z</time>
      </trkpt>
      <trkpt lat="39.829038" lon="3.028912">
        <ele>52.6</ele>
        <time>2016-04-18T09:42:20Z</time>
      </trkpt>
      <trkpt lat="39.828962" lon="3.028908">
        <ele>52.6</ele>
        <time>2016-04-18T09:42:21Z</time>
      </trkpt>
      <trkpt lat="39.828885" lon="3.028901">
        <ele>53</ele>
        <time>2016-04-18T09:42:22Z</time>
      </trkpt>
      <trkpt lat="39.828803" lon="3.028895">
        <ele>53.4</ele>
        <time>2016-04-18T09:42:23Z</time>
      </trkpt>
      <trkpt lat="39.828727" lon="3.028891">
        <ele>53.8</ele>
        <time>2016-04-18T09:42:24Z</time>
      </trkpt>
      <trkpt lat="39.82865" lon="3.028888">
        <ele>54.2</ele>
        <time>2016-04-18T09:42:25Z</time>
      </trkpt>
      <trkpt lat="39.828576" lon="3.028885">
        <ele>54.8</ele>
        <time>2016-04-18T09:42:26Z</time>
      </trkpt>
      <trkpt lat="39.828283" lon="3.028869">
        <ele>54.8</ele>
        <time>2016-04-18T09:42:30Z</time>
      </trkpt>
      <trkpt lat="39.827793" lon="3.028836">
        <ele>55.2</ele>
        <time>2016-04-18T09:42:37Z</time>
      </trkpt>
      <trkpt lat="39.827726" lon="3.028833">
        <ele>55.6</ele>
        <time>2016-04-18T09:42:38Z</time>
      </trkpt>
      <trkpt lat="39.827662" lon="3.028826">
        <ele>56</ele>
        <time>2016-04-18T09:42:39Z</time>
      </trkpt>
      <trkpt lat="39.827598" lon="3.028827">
        <ele>56.4</ele>
        <time>2016-04-18T09:42:40Z</time>
      </trkpt>
      <trkpt lat="39.827537" lon="3.028819">
        <ele>56.8</ele>
        <time>2016-04-18T09:42:41Z</time>
      </trkpt>
      <trkpt lat="39.82736" lon="3.028806">
        <ele>56.8</ele>
        <time>2016-04-18T09:42:44Z</time>
      </trkpt>
      <trkpt lat="39.827246" lon="3.028794">
        <ele>57.2</ele>
        <time>2016-04-18T09:42:46Z</time>
      </trkpt>
      <trkpt lat="39.827197" lon="3.028789">
        <ele>58</ele>
        <time>2016-04-18T09:42:47Z</time>
      </trkpt>
      <trkpt lat="39.827144" lon="3.028789">
        <ele>58.4</ele>
        <time>2016-04-18T09:42:48Z</time>
      </trkpt>
      <trkpt lat="39.827094" lon="3.028781">
        <ele>58.8</ele>
        <time>2016-04-18T09:42:49Z</time>
      </trkpt>
      <trkpt lat="39.826952" lon="3.028767">
        <ele>59.4</ele>
        <time>2016-04-18T09:42:52Z</time>
      </trkpt>
      <trkpt lat="39.826907" lon="3.028762">
        <ele>59.8</ele>
        <time>2016-04-18T09:42:53Z</time>
      </trkpt>
      <trkpt lat="39.826859" lon="3.028754">
        <ele>60.2</ele>
        <time>2016-04-18T09:42:54Z</time>
      </trkpt>
      <trkpt lat="39.826815" lon="3.028748">
        <ele>60.6</ele>
        <time>2016-04-18T09:42:55Z</time>
      </trkpt>
      <trkpt lat="39.826769" lon="3.028747">
        <ele>61</ele>
        <time>2016-04-18T09:42:56Z</time>
      </trkpt>
      <trkpt lat="39.826624" lon="3.028744">
        <ele>61.6</ele>
        <time>2016-04-18T09:42:59Z</time>
      </trkpt>
      <trkpt lat="39.826578" lon="3.028748">
        <ele>62</ele>
        <time>2016-04-18T09:43:00Z</time>
      </trkpt>
      <trkpt lat="39.826527" lon="3.02875">
        <ele>62.4</ele>
        <time>2016-04-18T09:43:01Z</time>
      </trkpt>
      <trkpt lat="39.826475" lon="3.028748">
        <ele>62.8</ele>
        <time>2016-04-18T09:43:02Z</time>
      </trkpt>
      <trkpt lat="39.82643" lon="3.028744">
        <ele>63.2</ele>
        <time>2016-04-18T09:43:03Z</time>
      </trkpt>
      <trkpt lat="39.826289" lon="3.028719">
        <ele>63.6</ele>
        <time>2016-04-18T09:43:06Z</time>
      </trkpt>
      <trkpt lat="39.826244" lon="3.028712">
        <ele>64</ele>
        <time>2016-04-18T09:43:07Z</time>
      </trkpt>
      <trkpt lat="39.826197" lon="3.028696">
        <ele>64.6</ele>
        <time>2016-04-18T09:43:08Z</time>
      </trkpt>
      <trkpt lat="39.82615" lon="3.028694">
        <ele>65</ele>
        <time>2016-04-18T09:43:09Z</time>
      </trkpt>
      <trkpt lat="39.826103" lon="3.028691">
        <ele>65.4</ele>
        <time>2016-04-18T09:43:10Z</time>
      </trkpt>
      <trkpt lat="39.825964" lon="3.028677">
        <ele>65.8</ele>
        <time>2016-04-18T09:43:13Z</time>
      </trkpt>
      <trkpt lat="39.825918" lon="3.028681">
        <ele>66.2</ele>
        <time>2016-04-18T09:43:14Z</time>
      </trkpt>
      <trkpt lat="39.825869" lon="3.02868">
        <ele>66.8</ele>
        <time>2016-04-18T09:43:15Z</time>
      </trkpt>
      <trkpt lat="39.825821" lon="3.028686">
        <ele>67.2</ele>
        <time>2016-04-18T09:43:16Z</time>
      </trkpt>
      <trkpt lat="39.825771" lon="3.028686">
        <ele>67.6</ele>
        <time>2016-04-18T09:43:17Z</time>
      </trkpt>
      <trkpt lat="39.82553" lon="3.028675">
        <ele>67.6</ele>
        <time>2016-04-18T09:43:22Z</time>
      </trkpt>
      <trkpt lat="39.825327" lon="3.028659">
        <ele>68</ele>
        <time>2016-04-18T09:43:26Z</time>
      </trkpt>
      <trkpt lat="39.825278" lon="3.028648">
        <ele>68.4</ele>
        <time>2016-04-18T09:43:27Z</time>
      </trkpt>
      <trkpt lat="39.825224" lon="3.028645">
        <ele>69</ele>
        <time>2016-04-18T09:43:28Z</time>
      </trkpt>
      <trkpt lat="39.825172" lon="3.028641">
        <ele>69.4</ele>
        <time>2016-04-18T09:43:29Z</time>
      </trkpt>
      <trkpt lat="39.825124" lon="3.028628">
        <ele>69.8</ele>
        <time>2016-04-18T09:43:30Z</time>
      </trkpt>
      <trkpt lat="39.824914" lon="3.028568">
        <ele>69.8</ele>
        <time>2016-04-18T09:43:34Z</time>
      </trkpt>
      <trkpt lat="39.82486" lon="3.028565">
        <ele>69.8</ele>
        <time>2016-04-18T09:43:35Z</time>
      </trkpt>
      <trkpt lat="39.824639" lon="3.028522">
        <ele>69.8</ele>
        <time>2016-04-18T09:43:39Z</time>
      </trkpt>
      <trkpt lat="39.824241" lon="3.028454">
        <ele>69.8</ele>
        <time>2016-04-18T09:43:46Z</time>
      </trkpt>
      <trkpt lat="39.823871" lon="3.028373">
        <ele>69.8</ele>
        <time>2016-04-18T09:43:52Z</time>
      </trkpt>
      <trkpt lat="39.823473" lon="3.028297">
        <ele>69.8</ele>
        <time>2016-04-18T09:43:58Z</time>
      </trkpt>
      <trkpt lat="39.822959" lon="3.028188">
        <ele>69.8</ele>
        <time>2016-04-18T09:44:05Z</time>
      </trkpt>
      <trkpt lat="39.82281" lon="3.028151">
        <ele>69.8</ele>
        <time>2016-04-18T09:44:07Z</time>
      </trkpt>
      <trkpt lat="39.822496" lon="3.028062">
        <ele>69.4</ele>
        <time>2016-04-18T09:44:11Z</time>
      </trkpt>
      <trkpt lat="39.822414" lon="3.028035">
        <ele>69</ele>
        <time>2016-04-18T09:44:12Z</time>
      </trkpt>
      <trkpt lat="39.822328" lon="3.028009">
        <ele>68.6</ele>
        <time>2016-04-18T09:44:13Z</time>
      </trkpt>
      <trkpt lat="39.822242" lon="3.027984">
        <ele>68.2</ele>
        <time>2016-04-18T09:44:14Z</time>
      </trkpt>
      <trkpt lat="39.822156" lon="3.027947">
        <ele>67.8</ele>
        <time>2016-04-18T09:44:15Z</time>
      </trkpt>
      <trkpt lat="39.821876" lon="3.027858">
        <ele>67.8</ele>
        <time>2016-04-18T09:44:18Z</time>
      </trkpt>
      <trkpt lat="39.821783" lon="3.027825">
        <ele>67.8</ele>
        <time>2016-04-18T09:44:19Z</time>
      </trkpt>
      <trkpt lat="39.821687" lon="3.027793">
        <ele>67.2</ele>
        <time>2016-04-18T09:44:20Z</time>
      </trkpt>
      <trkpt lat="39.821591" lon="3.027757">
        <ele>66.8</ele>
        <time>2016-04-18T09:44:21Z</time>
      </trkpt>
      <trkpt lat="39.821498" lon="3.027729">
        <ele>66.2</ele>
        <time>2016-04-18T09:44:22Z</time>
      </trkpt>
      <trkpt lat="39.821403" lon="3.027705">
        <ele>65.8</ele>
        <time>2016-04-18T09:44:23Z</time>
      </trkpt>
      <trkpt lat="39.821301" lon="3.027675">
        <ele>65.4</ele>
        <time>2016-04-18T09:44:24Z</time>
      </trkpt>
      <trkpt lat="39.821202" lon="3.027648">
        <ele>64.2</ele>
        <time>2016-04-18T09:44:25Z</time>
      </trkpt>
      <trkpt lat="39.821103" lon="3.027618">
        <ele>63.6</ele>
        <time>2016-04-18T09:44:26Z</time>
      </trkpt>
      <trkpt lat="39.821003" lon="3.027587">
        <ele>63</ele>
        <time>2016-04-18T09:44:27Z</time>
      </trkpt>
      <trkpt lat="39.820898" lon="3.027553">
        <ele>62.4</ele>
        <time>2016-04-18T09:44:28Z</time>
      </trkpt>
      <trkpt lat="39.820593" lon="3.02745">
        <ele>62.4</ele>
        <time>2016-04-18T09:44:31Z</time>
      </trkpt>
      <trkpt lat="39.82048" lon="3.027416">
        <ele>62.4</ele>
        <time>2016-04-18T09:44:32Z</time>
      </trkpt>
      <trkpt lat="39.82037" lon="3.027382">
        <ele>62</ele>
        <time>2016-04-18T09:44:33Z</time>
      </trkpt>
      <trkpt lat="39.820264" lon="3.02735">
        <ele>61.4</ele>
        <time>2016-04-18T09:44:34Z</time>
      </trkpt>
      <trkpt lat="39.820158" lon="3.027315">
        <ele>61</ele>
        <time>2016-04-18T09:44:35Z</time>
      </trkpt>
      <trkpt lat="39.820048" lon="3.02728">
        <ele>60.4</ele>
        <time>2016-04-18T09:44:36Z</time>
      </trkpt>
      <trkpt lat="39.819932" lon="3.027257">
        <ele>60</ele>
        <time>2016-04-18T09:44:37Z</time>
      </trkpt>
      <trkpt lat="39.819821" lon="3.027233">
        <ele>60</ele>
        <time>2016-04-18T09:44:38Z</time>
      </trkpt>
      <trkpt lat="39.819702" lon="3.027206">
        <ele>59.4</ele>
        <time>2016-04-18T09:44:39Z</time>
      </trkpt>
      <trkpt lat="39.819586" lon="3.02718">
        <ele>58.8</ele>
        <time>2016-04-18T09:44:40Z</time>
      </trkpt>
      <trkpt lat="39.81947" lon="3.027158">
        <ele>58</ele>
        <time>2016-04-18T09:44:41Z</time>
      </trkpt>
      <trkpt lat="39.819351" lon="3.027135">
        <ele>57.4</ele>
        <time>2016-04-18T09:44:42Z</time>
      </trkpt>
      <trkpt lat="39.819231" lon="3.027115">
        <ele>56.8</ele>
        <time>2016-04-18T09:44:43Z</time>
      </trkpt>
      <trkpt lat="39.818989" lon="3.027074">
        <ele>56.8</ele>
        <time>2016-04-18T09:44:45Z</time>
      </trkpt>
      <trkpt lat="39.818874" lon="3.027058">
        <ele>56.2</ele>
        <time>2016-04-18T09:44:46Z</time>
      </trkpt>
      <trkpt lat="39.818755" lon="3.027037">
        <ele>55.8</ele>
        <time>2016-04-18T09:44:47Z</time>
      </trkpt>
      <trkpt lat="39.818629" lon="3.027025">
        <ele>55.2</ele>
        <time>2016-04-18T09:44:48Z</time>
      </trkpt>
      <trkpt lat="39.81851" lon="3.027007">
        <ele>54.8</ele>
        <time>2016-04-18T09:44:49Z</time>
      </trkpt>
      <trkpt lat="39.818391" lon="3.026989">
        <ele>53.6</ele>
        <time>2016-04-18T09:44:50Z</time>
      </trkpt>
      <trkpt lat="39.818272" lon="3.026971">
        <ele>53</ele>
        <time>2016-04-18T09:44:51Z</time>
      </trkpt>
      <trkpt lat="39.81815" lon="3.02695">
        <ele>52.4</ele>
        <time>2016-04-18T09:44:52Z</time>
      </trkpt>
      <trkpt lat="39.818033" lon="3.026931">
        <ele>52</ele>
        <time>2016-04-18T09:44:53Z</time>
      </trkpt>
      <trkpt lat="39.817917" lon="3.026913">
        <ele>51.6</ele>
        <time>2016-04-18T09:44:54Z</time>
      </trkpt>
      <trkpt lat="39.817804" lon="3.026896">
        <ele>51.2</ele>
        <time>2016-04-18T09:44:55Z</time>
      </trkpt>
      <trkpt lat="39.817687" lon="3.026884">
        <ele>50.8</ele>
        <time>2016-04-18T09:44:56Z</time>
      </trkpt>
      <trkpt lat="39.817575" lon="3.026868">
        <ele>50.4</ele>
        <time>2016-04-18T09:44:57Z</time>
      </trkpt>
      <trkpt lat="39.817462" lon="3.026846">
        <ele>49.8</ele>
        <time>2016-04-18T09:44:58Z</time>
      </trkpt>
      <trkpt lat="39.817352" lon="3.026833">
        <ele>49.4</ele>
        <time>2016-04-18T09:44:59Z</time>
      </trkpt>
      <trkpt lat="39.817238" lon="3.026814">
        <ele>48.8</ele>
        <time>2016-04-18T09:45:00Z</time>
      </trkpt>
      <trkpt lat="39.817127" lon="3.026795">
        <ele>48.4</ele>
        <time>2016-04-18T09:45:01Z</time>
      </trkpt>
      <trkpt lat="39.817016" lon="3.026778">
        <ele>47.8</ele>
        <time>2016-04-18T09:45:02Z</time>
      </trkpt>
      <trkpt lat="39.816802" lon="3.026744">
        <ele>47.8</ele>
        <time>2016-04-18T09:45:04Z</time>
      </trkpt>
      <trkpt lat="39.81659" lon="3.026717">
        <ele>47.8</ele>
        <time>2016-04-18T09:45:06Z</time>
      </trkpt>
      <trkpt lat="39.816262" lon="3.026686">
        <ele>47.8</ele>
        <time>2016-04-18T09:45:09Z</time>
      </trkpt>
      <trkpt lat="39.816049" lon="3.026665">
        <ele>47.2</ele>
        <time>2016-04-18T09:45:11Z</time>
      </trkpt>
      <trkpt lat="39.815945" lon="3.026656">
        <ele>46.8</ele>
        <time>2016-04-18T09:45:12Z</time>
      </trkpt>
      <trkpt lat="39.815839" lon="3.026645">
        <ele>46.2</ele>
        <time>2016-04-18T09:45:13Z</time>
      </trkpt>
      <trkpt lat="39.815733" lon="3.026625">
        <ele>45.8</ele>
        <time>2016-04-18T09:45:14Z</time>
      </trkpt>
      <trkpt lat="39.815633" lon="3.02662">
        <ele>45.2</ele>
        <time>2016-04-18T09:45:15Z</time>
      </trkpt>
      <trkpt lat="39.815237" lon="3.02658">
        <ele>45.2</ele>
        <time>2016-04-18T09:45:19Z</time>
      </trkpt>
      <trkpt lat="39.814933" lon="3.026549">
        <ele>45.2</ele>
        <time>2016-04-18T09:45:22Z</time>
      </trkpt>
      <trkpt lat="39.814831" lon="3.026538">
        <ele>44.8</ele>
        <time>2016-04-18T09:45:23Z</time>
      </trkpt>
      <trkpt lat="39.814728" lon="3.026528">
        <ele>44.4</ele>
        <time>2016-04-18T09:45:24Z</time>
      </trkpt>
      <trkpt lat="39.814621" lon="3.026518">
        <ele>44</ele>
        <time>2016-04-18T09:45:25Z</time>
      </trkpt>
      <trkpt lat="39.814513" lon="3.026508">
        <ele>43.4</ele>
        <time>2016-04-18T09:45:26Z</time>
      </trkpt>
      <trkpt lat="39.814407" lon="3.026495">
        <ele>43</ele>
        <time>2016-04-18T09:45:27Z</time>
      </trkpt>
      <trkpt lat="39.814089" lon="3.026456">
        <ele>42.6</ele>
        <time>2016-04-18T09:45:30Z</time>
      </trkpt>
      <trkpt lat="39.813982" lon="3.026438">
        <ele>42.2</ele>
        <time>2016-04-18T09:45:31Z</time>
      </trkpt>
      <trkpt lat="39.813875" lon="3.026429">
        <ele>41.6</ele>
        <time>2016-04-18T09:45:32Z</time>
      </trkpt>
      <trkpt lat="39.81377" lon="3.026414">
        <ele>41.2</ele>
        <time>2016-04-18T09:45:33Z</time>
      </trkpt>
      <trkpt lat="39.813669" lon="3.026396">
        <ele>40.8</ele>
        <time>2016-04-18T09:45:34Z</time>
      </trkpt>
      <trkpt lat="39.813462" lon="3.026367">
        <ele>40.4</ele>
        <time>2016-04-18T09:45:36Z</time>
      </trkpt>
      <trkpt lat="39.813356" lon="3.026351">
        <ele>40</ele>
        <time>2016-04-18T09:45:37Z</time>
      </trkpt>
      <trkpt lat="39.813256" lon="3.026335">
        <ele>39.6</ele>
        <time>2016-04-18T09:45:38Z</time>
      </trkpt>
      <trkpt lat="39.813158" lon="3.026318">
        <ele>39.2</ele>
        <time>2016-04-18T09:45:39Z</time>
      </trkpt>
      <trkpt lat="39.813059" lon="3.026303">
        <ele>38.8</ele>
        <time>2016-04-18T09:45:40Z</time>
      </trkpt>
      <trkpt lat="39.812753" lon="3.026253">
        <ele>38.8</ele>
        <time>2016-04-18T09:45:43Z</time>
      </trkpt>
      <trkpt lat="39.812654" lon="3.026234">
        <ele>38.8</ele>
        <time>2016-04-18T09:45:44Z</time>
      </trkpt>
      <trkpt lat="39.812558" lon="3.026216">
        <ele>38.8</ele>
        <time>2016-04-18T09:45:45Z</time>
      </trkpt>
      <trkpt lat="39.811999" lon="3.026106">
        <ele>38.8</ele>
        <time>2016-04-18T09:45:51Z</time>
      </trkpt>
      <trkpt lat="39.811811" lon="3.026066">
        <ele>38.8</ele>
        <time>2016-04-18T09:45:53Z</time>
      </trkpt>
      <trkpt lat="39.81162" lon="3.026024">
        <ele>38.8</ele>
        <time>2016-04-18T09:45:55Z</time>
      </trkpt>
      <trkpt lat="39.811324" lon="3.025964">
        <ele>38.8</ele>
        <time>2016-04-18T09:45:58Z</time>
      </trkpt>
      <trkpt lat="39.811226" lon="3.02595">
        <ele>38.2</ele>
        <time>2016-04-18T09:45:59Z</time>
      </trkpt>
      <trkpt lat="39.811125" lon="3.025936">
        <ele>37.8</ele>
        <time>2016-04-18T09:46:00Z</time>
      </trkpt>
      <trkpt lat="39.811025" lon="3.025923">
        <ele>37.4</ele>
        <time>2016-04-18T09:46:01Z</time>
      </trkpt>
      <trkpt lat="39.810925" lon="3.02591">
        <ele>36.8</ele>
        <time>2016-04-18T09:46:02Z</time>
      </trkpt>
      <trkpt lat="39.810824" lon="3.025889">
        <ele>36.4</ele>
        <time>2016-04-18T09:46:03Z</time>
      </trkpt>
      <trkpt lat="39.81062" lon="3.02585">
        <ele>36</ele>
        <time>2016-04-18T09:46:05Z</time>
      </trkpt>
      <trkpt lat="39.810514" lon="3.025828">
        <ele>35.4</ele>
        <time>2016-04-18T09:46:06Z</time>
      </trkpt>
      <trkpt lat="39.810401" lon="3.025804">
        <ele>34.6</ele>
        <time>2016-04-18T09:46:07Z</time>
      </trkpt>
      <trkpt lat="39.810292" lon="3.02578">
        <ele>33.8</ele>
        <time>2016-04-18T09:46:08Z</time>
      </trkpt>
      <trkpt lat="39.810184" lon="3.025756">
        <ele>33.2</ele>
        <time>2016-04-18T09:46:09Z</time>
      </trkpt>
      <trkpt lat="39.810073" lon="3.025729">
        <ele>32.4</ele>
        <time>2016-04-18T09:46:10Z</time>
      </trkpt>
      <trkpt lat="39.809964" lon="3.025692">
        <ele>31.6</ele>
        <time>2016-04-18T09:46:11Z</time>
      </trkpt>
      <trkpt lat="39.809853" lon="3.025655">
        <ele>31.2</ele>
        <time>2016-04-18T09:46:12Z</time>
      </trkpt>
      <trkpt lat="39.809744" lon="3.025604">
        <ele>30.8</ele>
        <time>2016-04-18T09:46:13Z</time>
      </trkpt>
      <trkpt lat="39.809635" lon="3.025541">
        <ele>30.4</ele>
        <time>2016-04-18T09:46:14Z</time>
      </trkpt>
      <trkpt lat="39.809529" lon="3.025473">
        <ele>29.8</ele>
        <time>2016-04-18T09:46:15Z</time>
      </trkpt>
      <trkpt lat="39.809418" lon="3.025415">
        <ele>29.2</ele>
        <time>2016-04-18T09:46:16Z</time>
      </trkpt>
      <trkpt lat="39.809315" lon="3.02535">
        <ele>28.6</ele>
        <time>2016-04-18T09:46:17Z</time>
      </trkpt>
      <trkpt lat="39.809205" lon="3.025285">
        <ele>28</ele>
        <time>2016-04-18T09:46:18Z</time>
      </trkpt>
      <trkpt lat="39.809093" lon="3.025221">
        <ele>27.4</ele>
        <time>2016-04-18T09:46:19Z</time>
      </trkpt>
      <trkpt lat="39.808987" lon="3.025156">
        <ele>26.8</ele>
        <time>2016-04-18T09:46:20Z</time>
      </trkpt>
      <trkpt lat="39.808883" lon="3.025093">
        <ele>26.4</ele>
        <time>2016-04-18T09:46:21Z</time>
      </trkpt>
      <trkpt lat="39.808782" lon="3.025032">
        <ele>25.8</ele>
        <time>2016-04-18T09:46:22Z</time>
      </trkpt>
      <trkpt lat="39.808677" lon="3.024956">
        <ele>25.2</ele>
        <time>2016-04-18T09:46:23Z</time>
      </trkpt>
      <trkpt lat="39.808578" lon="3.024888">
        <ele>25.2</ele>
        <time>2016-04-18T09:46:24Z</time>
      </trkpt>
      <trkpt lat="39.808478" lon="3.024822">
        <ele>25.2</ele>
        <time>2016-04-18T09:46:25Z</time>
      </trkpt>
      <trkpt lat="39.808091" lon="3.024591">
        <ele>24.2</ele>
        <time>2016-04-18T09:46:29Z</time>
      </trkpt>
      <trkpt lat="39.807994" lon="3.024536">
        <ele>23.6</ele>
        <time>2016-04-18T09:46:30Z</time>
      </trkpt>
      <trkpt lat="39.807904" lon="3.024489">
        <ele>23.2</ele>
        <time>2016-04-18T09:46:31Z</time>
      </trkpt>
      <trkpt lat="39.807815" lon="3.02444">
        <ele>22.8</ele>
        <time>2016-04-18T09:46:32Z</time>
      </trkpt>
      <trkpt lat="39.807727" lon="3.02439">
        <ele>23.2</ele>
        <time>2016-04-18T09:46:33Z</time>
      </trkpt>
      <trkpt lat="39.807639" lon="3.024339">
        <ele>23.6</ele>
        <time>2016-04-18T09:46:34Z</time>
      </trkpt>
      <trkpt lat="39.807551" lon="3.024285">
        <ele>24</ele>
        <time>2016-04-18T09:46:35Z</time>
      </trkpt>
      <trkpt lat="39.807464" lon="3.024225">
        <ele>24.4</ele>
        <time>2016-04-18T09:46:36Z</time>
      </trkpt>
      <trkpt lat="39.807374" lon="3.02417">
        <ele>24.8</ele>
        <time>2016-04-18T09:46:37Z</time>
      </trkpt>
      <trkpt lat="39.807279" lon="3.024106">
        <ele>24.8</ele>
        <time>2016-04-18T09:46:38Z</time>
      </trkpt>
      <trkpt lat="39.807097" lon="3.023989">
        <ele>24.8</ele>
        <time>2016-04-18T09:46:40Z</time>
      </trkpt>
      <trkpt lat="39.806918" lon="3.023866">
        <ele>24.8</ele>
        <time>2016-04-18T09:46:42Z</time>
      </trkpt>
      <trkpt lat="39.806553" lon="3.023622">
        <ele>24.8</ele>
        <time>2016-04-18T09:46:46Z</time>
      </trkpt>
      <trkpt lat="39.806089" lon="3.023316">
        <ele>24.8</ele>
        <time>2016-04-18T09:46:51Z</time>
      </trkpt>
      <trkpt lat="39.805994" lon="3.023258">
        <ele>24.4</ele>
        <time>2016-04-18T09:46:52Z</time>
      </trkpt>
      <trkpt lat="39.805896" lon="3.023195">
        <ele>23.6</ele>
        <time>2016-04-18T09:46:53Z</time>
      </trkpt>
      <trkpt lat="39.805802" lon="3.023132">
        <ele>23</ele>
        <time>2016-04-18T09:46:54Z</time>
      </trkpt>
      <trkpt lat="39.805707" lon="3.023068">
        <ele>22.6</ele>
        <time>2016-04-18T09:46:55Z</time>
      </trkpt>
      <trkpt lat="39.805131" lon="3.022686">
        <ele>22.2</ele>
        <time>2016-04-18T09:47:01Z</time>
      </trkpt>
      <trkpt lat="39.805033" lon="3.022621">
        <ele>21.8</ele>
        <time>2016-04-18T09:47:02Z</time>
      </trkpt>
      <trkpt lat="39.804933" lon="3.022558">
        <ele>21.4</ele>
        <time>2016-04-18T09:47:03Z</time>
      </trkpt>
      <trkpt lat="39.804836" lon="3.022491">
        <ele>21</ele>
        <time>2016-04-18T09:47:04Z</time>
      </trkpt>
      <trkpt lat="39.80474" lon="3.022428">
        <ele>20.6</ele>
        <time>2016-04-18T09:47:05Z</time>
      </trkpt>
      <trkpt lat="39.804363" lon="3.022174">
        <ele>20.6</ele>
        <time>2016-04-18T09:47:09Z</time>
      </trkpt>
      <trkpt lat="39.803851" lon="3.021844">
        <ele>20.6</ele>
        <time>2016-04-18T09:47:15Z</time>
      </trkpt>
      <trkpt lat="39.803528" lon="3.021617">
        <ele>20.6</ele>
        <time>2016-04-18T09:47:19Z</time>
      </trkpt>
      <trkpt lat="39.803279" lon="3.021433">
        <ele>20.6</ele>
        <time>2016-04-18T09:47:22Z</time>
      </trkpt>
      <trkpt lat="39.802771" lon="3.021121">
        <ele>20.6</ele>
        <time>2016-04-18T09:47:28Z</time>
      </trkpt>
      <trkpt lat="39.802686" lon="3.021065">
        <ele>20.6</ele>
        <time>2016-04-18T09:47:29Z</time>
      </trkpt>
      <trkpt lat="39.802168" lon="3.020752">
        <ele>20.6</ele>
        <time>2016-04-18T09:47:35Z</time>
      </trkpt>
      <trkpt lat="39.801987" lon="3.020663">
        <ele>20.6</ele>
        <time>2016-04-18T09:47:37Z</time>
      </trkpt>
      <trkpt lat="39.801715" lon="3.020537">
        <ele>20.6</ele>
        <time>2016-04-18T09:47:40Z</time>
      </trkpt>
      <trkpt lat="39.801624" lon="3.020501">
        <ele>20.2</ele>
        <time>2016-04-18T09:47:41Z</time>
      </trkpt>
      <trkpt lat="39.801531" lon="3.020466">
        <ele>19.4</ele>
        <time>2016-04-18T09:47:42Z</time>
      </trkpt>
      <trkpt lat="39.801437" lon="3.02044">
        <ele>18.8</ele>
        <time>2016-04-18T09:47:43Z</time>
      </trkpt>
      <trkpt lat="39.801344" lon="3.020414">
        <ele>18.4</ele>
        <time>2016-04-18T09:47:44Z</time>
      </trkpt>
      <trkpt lat="39.800791" lon="3.020324">
        <ele>18.4</ele>
        <time>2016-04-18T09:47:50Z</time>
      </trkpt>
      <trkpt lat="39.800701" lon="3.020317">
        <ele>18</ele>
        <time>2016-04-18T09:47:51Z</time>
      </trkpt>
      <trkpt lat="39.800612" lon="3.020313">
        <ele>17.6</ele>
        <time>2016-04-18T09:47:52Z</time>
      </trkpt>
      <trkpt lat="39.800522" lon="3.020313">
        <ele>17.2</ele>
        <time>2016-04-18T09:47:53Z</time>
      </trkpt>
      <trkpt lat="39.80043" lon="3.020315">
        <ele>16.8</ele>
        <time>2016-04-18T09:47:54Z</time>
      </trkpt>
      <trkpt lat="39.800344" lon="3.020323">
        <ele>16.4</ele>
        <time>2016-04-18T09:47:55Z</time>
      </trkpt>
      <trkpt lat="39.800079" lon="3.020353">
        <ele>16.4</ele>
        <time>2016-04-18T09:47:58Z</time>
      </trkpt>
      <trkpt lat="39.799822" lon="3.02039">
        <ele>16.4</ele>
        <time>2016-04-18T09:48:01Z</time>
      </trkpt>
      <trkpt lat="39.799416" lon="3.020453">
        <ele>16.4</ele>
        <time>2016-04-18T09:48:06Z</time>
      </trkpt>
      <trkpt lat="39.798835" lon="3.020562">
        <ele>16.4</ele>
        <time>2016-04-18T09:48:13Z</time>
      </trkpt>
      <trkpt lat="39.798667" lon="3.020589">
        <ele>16.4</ele>
        <time>2016-04-18T09:48:15Z</time>
      </trkpt>
      <trkpt lat="39.798403" lon="3.020637">
        <ele>16.4</ele>
        <time>2016-04-18T09:48:18Z</time>
      </trkpt>
      <trkpt lat="39.797863" lon="3.020734">
        <ele>16.4</ele>
        <time>2016-04-18T09:48:24Z</time>
      </trkpt>
      <trkpt lat="39.797511" lon="3.020791">
        <ele>16.4</ele>
        <time>2016-04-18T09:48:28Z</time>
      </trkpt>
      <trkpt lat="39.79714" lon="3.020858">
        <ele>16.4</ele>
        <time>2016-04-18T09:48:32Z</time>
      </trkpt>
      <trkpt lat="39.796691" lon="3.020918">
        <ele>16</ele>
        <time>2016-04-18T09:48:37Z</time>
      </trkpt>
      <trkpt lat="39.796611" lon="3.020898">
        <ele>15.6</ele>
        <time>2016-04-18T09:48:38Z</time>
      </trkpt>
      <trkpt lat="39.796525" lon="3.020879">
        <ele>15.2</ele>
        <time>2016-04-18T09:48:39Z</time>
      </trkpt>
      <trkpt lat="39.796442" lon="3.020859">
        <ele>14.8</ele>
        <time>2016-04-18T09:48:40Z</time>
      </trkpt>
      <trkpt lat="39.796366" lon="3.020826">
        <ele>14.4</ele>
        <time>2016-04-18T09:48:41Z</time>
      </trkpt>
      <trkpt lat="39.796229" lon="3.020738">
        <ele>14.4</ele>
        <time>2016-04-18T09:48:43Z</time>
      </trkpt>
      <trkpt lat="39.79608" lon="3.020689">
        <ele>14.4</ele>
        <time>2016-04-18T09:48:45Z</time>
      </trkpt>
      <trkpt lat="39.795945" lon="3.020774">
        <ele>14.4</ele>
        <time>2016-04-18T09:48:47Z</time>
      </trkpt>
      <trkpt lat="39.795864" lon="3.02092">
        <ele>14.4</ele>
        <time>2016-04-18T09:48:49Z</time>
      </trkpt>
      <trkpt lat="39.795797" lon="3.020969">
        <ele>14.4</ele>
        <time>2016-04-18T09:48:50Z</time>
      </trkpt>
      <trkpt lat="39.79557" lon="3.020943">
        <ele>14.4</ele>
        <time>2016-04-18T09:48:53Z</time>
      </trkpt>
      <trkpt lat="39.795428" lon="3.020858">
        <ele>14.4</ele>
        <time>2016-04-18T09:48:55Z</time>
      </trkpt>
      <trkpt lat="39.795285" lon="3.020787">
        <ele>14.4</ele>
        <time>2016-04-18T09:48:57Z</time>
      </trkpt>
      <trkpt lat="39.795147" lon="3.020722">
        <ele>14.4</ele>
        <time>2016-04-18T09:48:59Z</time>
      </trkpt>
      <trkpt lat="39.795013" lon="3.020689">
        <ele>14.4</ele>
        <time>2016-04-18T09:49:01Z</time>
      </trkpt>
      <trkpt lat="39.794886" lon="3.020678">
        <ele>14.4</ele>
        <time>2016-04-18T09:49:03Z</time>
      </trkpt>
      <trkpt lat="39.794759" lon="3.020691">
        <ele>14.4</ele>
        <time>2016-04-18T09:49:05Z</time>
      </trkpt>
      <trkpt lat="39.794637" lon="3.020728">
        <ele>14.4</ele>
        <time>2016-04-18T09:49:07Z</time>
      </trkpt>
      <trkpt lat="39.79458" lon="3.020751">
        <ele>14.8</ele>
        <time>2016-04-18T09:49:08Z</time>
      </trkpt>
      <trkpt lat="39.794529" lon="3.020782">
        <ele>15.2</ele>
        <time>2016-04-18T09:49:09Z</time>
      </trkpt>
      <trkpt lat="39.794482" lon="3.020811">
        <ele>15.8</ele>
        <time>2016-04-18T09:49:10Z</time>
      </trkpt>
      <trkpt lat="39.794439" lon="3.02083">
        <ele>16.2</ele>
        <time>2016-04-18T09:49:11Z</time>
      </trkpt>
      <trkpt lat="39.794402" lon="3.020839">
        <ele>16.6</ele>
        <time>2016-04-18T09:49:12Z</time>
      </trkpt>
      <trkpt lat="39.794366" lon="3.020844">
        <ele>16.6</ele>
        <time>2016-04-18T09:49:13Z</time>
      </trkpt>
      <trkpt lat="39.794219" lon="3.020759">
        <ele>16.6</ele>
        <time>2016-04-18T09:49:16Z</time>
      </trkpt>
      <trkpt lat="39.794051" lon="3.020689">
        <ele>16.6</ele>
        <time>2016-04-18T09:49:19Z</time>
      </trkpt>
      <trkpt lat="39.793924" lon="3.020701">
        <ele>16.6</ele>
        <time>2016-04-18T09:49:21Z</time>
      </trkpt>
      <trkpt lat="39.793696" lon="3.020878">
        <ele>16.6</ele>
        <time>2016-04-18T09:49:25Z</time>
      </trkpt>
      <trkpt lat="39.793611" lon="3.021104">
        <ele>16.6</ele>
        <time>2016-04-18T09:49:28Z</time>
      </trkpt>
      <trkpt lat="39.793605" lon="3.021361">
        <ele>16.6</ele>
        <time>2016-04-18T09:49:31Z</time>
      </trkpt>
      <trkpt lat="39.793634" lon="3.021513">
        <ele>16.6</ele>
        <time>2016-04-18T09:49:33Z</time>
      </trkpt>
      <trkpt lat="39.793626" lon="3.021657">
        <ele>16.6</ele>
        <time>2016-04-18T09:49:35Z</time>
      </trkpt>
      <trkpt lat="39.793572" lon="3.021711">
        <ele>16.6</ele>
        <time>2016-04-18T09:49:36Z</time>
      </trkpt>
      <trkpt lat="39.793434" lon="3.021728">
        <ele>16.6</ele>
        <time>2016-04-18T09:49:38Z</time>
      </trkpt>
      <trkpt lat="39.793298" lon="3.02171">
        <ele>16.6</ele>
        <time>2016-04-18T09:49:40Z</time>
      </trkpt>
      <trkpt lat="39.793231" lon="3.021686">
        <ele>16.6</ele>
        <time>2016-04-18T09:49:41Z</time>
      </trkpt>
      <trkpt lat="39.793174" lon="3.021623">
        <ele>16.6</ele>
        <time>2016-04-18T09:49:42Z</time>
      </trkpt>
      <trkpt lat="39.792985" lon="3.021505">
        <ele>16.6</ele>
        <time>2016-04-18T09:49:45Z</time>
      </trkpt>
      <trkpt lat="39.792831" lon="3.021501">
        <ele>16.6</ele>
        <time>2016-04-18T09:49:47Z</time>
      </trkpt>
      <trkpt lat="39.792754" lon="3.0215">
        <ele>16.2</ele>
        <time>2016-04-18T09:49:48Z</time>
      </trkpt>
      <trkpt lat="39.792676" lon="3.021497">
        <ele>15.8</ele>
        <time>2016-04-18T09:49:49Z</time>
      </trkpt>
      <trkpt lat="39.792581" lon="3.02149">
        <ele>15.4</ele>
        <time>2016-04-18T09:49:50Z</time>
      </trkpt>
      <trkpt lat="39.792487" lon="3.021491">
        <ele>15</ele>
        <time>2016-04-18T09:49:51Z</time>
      </trkpt>
      <trkpt lat="39.792386" lon="3.021499">
        <ele>14.4</ele>
        <time>2016-04-18T09:49:52Z</time>
      </trkpt>
      <trkpt lat="39.792274" lon="3.02151">
        <ele>13.8</ele>
        <time>2016-04-18T09:49:53Z</time>
      </trkpt>
      <trkpt lat="39.792173" lon="3.021519">
        <ele>13.4</ele>
        <time>2016-04-18T09:49:54Z</time>
      </trkpt>
      <trkpt lat="39.792072" lon="3.021528">
        <ele>12.8</ele>
        <time>2016-04-18T09:49:55Z</time>
      </trkpt>
      <trkpt lat="39.791971" lon="3.021535">
        <ele>12.4</ele>
        <time>2016-04-18T09:49:56Z</time>
      </trkpt>
      <trkpt lat="39.791681" lon="3.021554">
        <ele>12.4</ele>
        <time>2016-04-18T09:49:59Z</time>
      </trkpt>
      <trkpt lat="39.791581" lon="3.021561">
        <ele>12</ele>
        <time>2016-04-18T09:50:00Z</time>
      </trkpt>
      <trkpt lat="39.791486" lon="3.021566">
        <ele>11.6</ele>
        <time>2016-04-18T09:50:01Z</time>
      </trkpt>
      <trkpt lat="39.791391" lon="3.021573">
        <ele>11.2</ele>
        <time>2016-04-18T09:50:02Z</time>
      </trkpt>
      <trkpt lat="39.791296" lon="3.021581">
        <ele>10.6</ele>
        <time>2016-04-18T09:50:03Z</time>
      </trkpt>
      <trkpt lat="39.791203" lon="3.021589">
        <ele>10.2</ele>
        <time>2016-04-18T09:50:04Z</time>
      </trkpt>
      <trkpt lat="39.791113" lon="3.021594">
        <ele>10.2</ele>
        <time>2016-04-18T09:50:05Z</time>
      </trkpt>
      <trkpt lat="39.791022" lon="3.021603">
        <ele>10.2</ele>
        <time>2016-04-18T09:50:06Z</time>
      </trkpt>
      <trkpt lat="39.790843" lon="3.021618">
        <ele>10.2</ele>
        <time>2016-04-18T09:50:08Z</time>
      </trkpt>
      <trkpt lat="39.790593" lon="3.021635">
        <ele>10.2</ele>
        <time>2016-04-18T09:50:11Z</time>
      </trkpt>
      <trkpt lat="39.790516" lon="3.021644">
        <ele>10.2</ele>
        <time>2016-04-18T09:50:12Z</time>
      </trkpt>
      <trkpt lat="39.79009" lon="3.021679">
        <ele>10.2</ele>
        <time>2016-04-18T09:50:17Z</time>
      </trkpt>
      <trkpt lat="39.789916" lon="3.021695">
        <ele>10.2</ele>
        <time>2016-04-18T09:50:19Z</time>
      </trkpt>
      <trkpt lat="39.789829" lon="3.021702">
        <ele>10.2</ele>
        <time>2016-04-18T09:50:20Z</time>
      </trkpt>
      <trkpt lat="39.789251" lon="3.021742">
        <ele>10.2</ele>
        <time>2016-04-18T09:50:27Z</time>
      </trkpt>
      <trkpt lat="39.788674" lon="3.021787">
        <ele>10.2</ele>
        <time>2016-04-18T09:50:34Z</time>
      </trkpt>
      <trkpt lat="39.788422" lon="3.021806">
        <ele>10.2</ele>
        <time>2016-04-18T09:50:37Z</time>
      </trkpt>
      <trkpt lat="39.788089" lon="3.021832">
        <ele>10.2</ele>
        <time>2016-04-18T09:50:41Z</time>
      </trkpt>
      <trkpt lat="39.787748" lon="3.021853">
        <ele>10.2</ele>
        <time>2016-04-18T09:50:45Z</time>
      </trkpt>
      <trkpt lat="39.787158" lon="3.021888">
        <ele>10.2</ele>
        <time>2016-04-18T09:50:52Z</time>
      </trkpt>
      <trkpt lat="39.786985" lon="3.0219">
        <ele>10.2</ele>
        <time>2016-04-18T09:50:54Z</time>
      </trkpt>
      <trkpt lat="39.786388" lon="3.021938">
        <ele>10.2</ele>
        <time>2016-04-18T09:51:01Z</time>
      </trkpt>
      <trkpt lat="39.786307" lon="3.021945">
        <ele>10.2</ele>
        <time>2016-04-18T09:51:02Z</time>
      </trkpt>
      <trkpt lat="39.785745" lon="3.022013">
        <ele>10.2</ele>
        <time>2016-04-18T09:51:09Z</time>
      </trkpt>
      <trkpt lat="39.785667" lon="3.022021">
        <ele>10.2</ele>
        <time>2016-04-18T09:51:10Z</time>
      </trkpt>
      <trkpt lat="39.785432" lon="3.022053">
        <ele>10.8</ele>
        <time>2016-04-18T09:51:13Z</time>
      </trkpt>
      <trkpt lat="39.785352" lon="3.022066">
        <ele>11.2</ele>
        <time>2016-04-18T09:51:14Z</time>
      </trkpt>
      <trkpt lat="39.785267" lon="3.022078">
        <ele>11.6</ele>
        <time>2016-04-18T09:51:15Z</time>
      </trkpt>
      <trkpt lat="39.785184" lon="3.022089">
        <ele>12</ele>
        <time>2016-04-18T09:51:16Z</time>
      </trkpt>
      <trkpt lat="39.7851" lon="3.022102">
        <ele>12.6</ele>
        <time>2016-04-18T09:51:17Z</time>
      </trkpt>
      <trkpt lat="39.78451" lon="3.0222">
        <ele>12.6</ele>
        <time>2016-04-18T09:51:24Z</time>
      </trkpt>
      <trkpt lat="39.784259" lon="3.022238">
        <ele>12.6</ele>
        <time>2016-04-18T09:51:27Z</time>
      </trkpt>
      <trkpt lat="39.783677" lon="3.022323">
        <ele>12.6</ele>
        <time>2016-04-18T09:51:34Z</time>
      </trkpt>
      <trkpt lat="39.783436" lon="3.022353">
        <ele>12.6</ele>
        <time>2016-04-18T09:51:37Z</time>
      </trkpt>
      <trkpt lat="39.782864" lon="3.022437">
        <ele>12.6</ele>
        <time>2016-04-18T09:51:44Z</time>
      </trkpt>
      <trkpt lat="39.7823" lon="3.02251">
        <ele>12.6</ele>
        <time>2016-04-18T09:51:51Z</time>
      </trkpt>
      <trkpt lat="39.782133" lon="3.022533">
        <ele>12.6</ele>
        <time>2016-04-18T09:51:53Z</time>
      </trkpt>
      <trkpt lat="39.781551" lon="3.022584">
        <ele>12.6</ele>
        <time>2016-04-18T09:52:00Z</time>
      </trkpt>
      <trkpt lat="39.781303" lon="3.022596">
        <ele>12.6</ele>
        <time>2016-04-18T09:52:03Z</time>
      </trkpt>
      <trkpt lat="39.780729" lon="3.022589">
        <ele>12.6</ele>
        <time>2016-04-18T09:52:10Z</time>
      </trkpt>
      <trkpt lat="39.780647" lon="3.022588">
        <ele>12.6</ele>
        <time>2016-04-18T09:52:11Z</time>
      </trkpt>
      <trkpt lat="39.780308" lon="3.022584">
        <ele>12.6</ele>
        <time>2016-04-18T09:52:15Z</time>
      </trkpt>
      <trkpt lat="39.779705" lon="3.022579">
        <ele>12.6</ele>
        <time>2016-04-18T09:52:22Z</time>
      </trkpt>
      <trkpt lat="39.779141" lon="3.022594">
        <ele>12.6</ele>
        <time>2016-04-18T09:52:29Z</time>
      </trkpt>
      <trkpt lat="39.77906" lon="3.022602">
        <ele>12.6</ele>
        <time>2016-04-18T09:52:30Z</time>
      </trkpt>
      <trkpt lat="39.77851" lon="3.022706">
        <ele>12.6</ele>
        <time>2016-04-18T09:52:37Z</time>
      </trkpt>
      <trkpt lat="39.778056" lon="3.022905">
        <ele>12.6</ele>
        <time>2016-04-18T09:52:42Z</time>
      </trkpt>
      <trkpt lat="39.778056" lon="3.022905">
        <ele>12.6</ele>
        <time>2016-04-18T09:52:43Z</time>
      </trkpt>
      <trkpt lat="39.777569" lon="3.023219">
        <ele>12.6</ele>
        <time>2016-04-18T09:52:50Z</time>
      </trkpt>
      <trkpt lat="39.777503" lon="3.023263">
        <ele>12.6</ele>
        <time>2016-04-18T09:52:51Z</time>
      </trkpt>
      <trkpt lat="39.776976" lon="3.023636">
        <ele>12.6</ele>
        <time>2016-04-18T09:52:59Z</time>
      </trkpt>
      <trkpt lat="39.776912" lon="3.02368">
        <ele>12.6</ele>
        <time>2016-04-18T09:53:00Z</time>
      </trkpt>
      <trkpt lat="39.77667" lon="3.023849">
        <ele>12.6</ele>
        <time>2016-04-18T09:53:04Z</time>
      </trkpt>
      <trkpt lat="39.776495" lon="3.02398">
        <ele>12.6</ele>
        <time>2016-04-18T09:53:07Z</time>
      </trkpt>
      <trkpt lat="39.776332" lon="3.024081">
        <ele>13</ele>
        <time>2016-04-18T09:53:10Z</time>
      </trkpt>
      <trkpt lat="39.776279" lon="3.024104">
        <ele>13.4</ele>
        <time>2016-04-18T09:53:11Z</time>
      </trkpt>
      <trkpt lat="39.776222" lon="3.024117">
        <ele>13.8</ele>
        <time>2016-04-18T09:53:12Z</time>
      </trkpt>
      <trkpt lat="39.776168" lon="3.024119">
        <ele>14.2</ele>
        <time>2016-04-18T09:53:13Z</time>
      </trkpt>
      <trkpt lat="39.776113" lon="3.024122">
        <ele>14.8</ele>
        <time>2016-04-18T09:53:14Z</time>
      </trkpt>
      <trkpt lat="39.776" lon="3.024162">
        <ele>14.8</ele>
        <time>2016-04-18T09:53:16Z</time>
      </trkpt>
      <trkpt lat="39.775881" lon="3.024328">
        <ele>14.8</ele>
        <time>2016-04-18T09:53:19Z</time>
      </trkpt>
      <trkpt lat="39.775725" lon="3.024477">
        <ele>14.8</ele>
        <time>2016-04-18T09:53:22Z</time>
      </trkpt>
      <trkpt lat="39.775601" lon="3.02455">
        <ele>14.8</ele>
        <time>2016-04-18T09:53:24Z</time>
      </trkpt>
      <trkpt lat="39.775355" lon="3.024712">
        <ele>14.8</ele>
        <time>2016-04-18T09:53:28Z</time>
      </trkpt>
      <trkpt lat="39.774938" lon="3.024986">
        <ele>14.8</ele>
        <time>2016-04-18T09:53:35Z</time>
      </trkpt>
      <trkpt lat="39.77464" lon="3.025187">
        <ele>14.8</ele>
        <time>2016-04-18T09:53:40Z</time>
      </trkpt>
      <trkpt lat="39.774448" lon="3.025313">
        <ele>14.8</ele>
        <time>2016-04-18T09:53:43Z</time>
      </trkpt>
      <trkpt lat="39.774039" lon="3.025565">
        <ele>14.8</ele>
        <time>2016-04-18T09:53:50Z</time>
      </trkpt>
      <trkpt lat="39.773934" lon="3.025637">
        <ele>14.8</ele>
        <time>2016-04-18T09:53:52Z</time>
      </trkpt>
      <trkpt lat="39.773882" lon="3.025679">
        <ele>15.2</ele>
        <time>2016-04-18T09:53:53Z</time>
      </trkpt>
      <trkpt lat="39.773829" lon="3.025719">
        <ele>16</ele>
        <time>2016-04-18T09:53:54Z</time>
      </trkpt>
      <trkpt lat="39.773772" lon="3.025751">
        <ele>16.4</ele>
        <time>2016-04-18T09:53:55Z</time>
      </trkpt>
      <trkpt lat="39.773714" lon="3.025777">
        <ele>16.8</ele>
        <time>2016-04-18T09:53:56Z</time>
      </trkpt>
      <trkpt lat="39.773591" lon="3.025783">
        <ele>16.8</ele>
        <time>2016-04-18T09:53:58Z</time>
      </trkpt>
      <trkpt lat="39.773435" lon="3.025663">
        <ele>16.8</ele>
        <time>2016-04-18T09:54:01Z</time>
      </trkpt>
      <trkpt lat="39.773268" lon="3.025632">
        <ele>16.8</ele>
        <time>2016-04-18T09:54:04Z</time>
      </trkpt>
      <trkpt lat="39.773098" lon="3.025727">
        <ele>16.8</ele>
        <time>2016-04-18T09:54:07Z</time>
      </trkpt>
      <trkpt lat="39.773044" lon="3.025763">
        <ele>16.8</ele>
        <time>2016-04-18T09:54:08Z</time>
      </trkpt>
      <trkpt lat="39.77264" lon="3.026015">
        <ele>16.8</ele>
        <time>2016-04-18T09:54:15Z</time>
      </trkpt>
      <trkpt lat="39.772416" lon="3.026163">
        <ele>16.8</ele>
        <time>2016-04-18T09:54:19Z</time>
      </trkpt>
      <trkpt lat="39.772313" lon="3.026238">
        <ele>16.8</ele>
        <time>2016-04-18T09:54:21Z</time>
      </trkpt>
      <trkpt lat="39.771853" lon="3.026536">
        <ele>16.8</ele>
        <time>2016-04-18T09:54:29Z</time>
      </trkpt>
      <trkpt lat="39.7718" lon="3.026574">
        <ele>16.8</ele>
        <time>2016-04-18T09:54:30Z</time>
      </trkpt>
      <trkpt lat="39.771581" lon="3.026749">
        <ele>16.8</ele>
        <time>2016-04-18T09:54:34Z</time>
      </trkpt>
      <trkpt lat="39.771185" lon="3.027031">
        <ele>16.8</ele>
        <time>2016-04-18T09:54:41Z</time>
      </trkpt>
      <trkpt lat="39.770832" lon="3.027314">
        <ele>16.8</ele>
        <time>2016-04-18T09:54:47Z</time>
      </trkpt>
      <trkpt lat="39.770612" lon="3.027482">
        <ele>16.8</ele>
        <time>2016-04-18T09:54:51Z</time>
      </trkpt>
      <trkpt lat="39.770564" lon="3.027521">
        <ele>16.8</ele>
        <time>2016-04-18T09:54:52Z</time>
      </trkpt>
      <trkpt lat="39.77048" lon="3.027578">
        <ele>16.8</ele>
        <time>2016-04-18T09:54:54Z</time>
      </trkpt>
      <trkpt lat="39.770443" lon="3.027585">
        <ele>16.8</ele>
        <time>2016-04-18T09:54:55Z</time>
      </trkpt>
      <trkpt lat="39.770401" lon="3.027584">
        <ele>16.8</ele>
        <time>2016-04-18T09:54:56Z</time>
      </trkpt>
      <trkpt lat="39.77025" lon="3.027529">
        <ele>16.8</ele>
        <time>2016-04-18T09:54:59Z</time>
      </trkpt>
      <trkpt lat="39.770202" lon="3.027483">
        <ele>16.8</ele>
        <time>2016-04-18T09:55:00Z</time>
      </trkpt>
      <trkpt lat="39.770065" lon="3.027323">
        <ele>16.8</ele>
        <time>2016-04-18T09:55:03Z</time>
      </trkpt>
      <trkpt lat="39.769941" lon="3.02714">
        <ele>16.8</ele>
        <time>2016-04-18T09:55:06Z</time>
      </trkpt>
      <trkpt lat="39.769821" lon="3.026951">
        <ele>16.8</ele>
        <time>2016-04-18T09:55:09Z</time>
      </trkpt>
      <trkpt lat="39.769694" lon="3.026779">
        <ele>16.8</ele>
        <time>2016-04-18T09:55:12Z</time>
      </trkpt>
      <trkpt lat="39.769583" lon="3.026603">
        <ele>16.8</ele>
        <time>2016-04-18T09:55:16Z</time>
      </trkpt>
      <trkpt lat="39.769513" lon="3.026625">
        <ele>16.8</ele>
        <time>2016-04-18T09:55:20Z</time>
      </trkpt>
      <trkpt lat="39.769471" lon="3.026662">
        <ele>16.8</ele>
        <time>2016-04-18T09:55:22Z</time>
      </trkpt>
      <trkpt lat="39.769373" lon="3.026739">
        <ele>16.8</ele>
        <time>2016-04-18T09:55:24Z</time>
      </trkpt>
      <trkpt lat="39.769334" lon="3.026773">
        <ele>16.8</ele>
        <time>2016-04-18T09:55:25Z</time>
      </trkpt>
      <trkpt lat="39.769288" lon="3.026826">
        <ele>16.8</ele>
        <time>2016-04-18T09:55:28Z</time>
      </trkpt>
      <trkpt lat="39.769257" lon="3.026847">
        <ele>16.8</ele>
        <time>2016-04-18T09:55:30Z</time>
      </trkpt>
      <trkpt lat="39.769204" lon="3.026861">
        <ele>16.8</ele>
        <time>2016-04-18T09:55:32Z</time>
      </trkpt>
      <trkpt lat="39.769074" lon="3.026951">
        <ele>16.8</ele>
        <time>2016-04-18T09:55:35Z</time>
      </trkpt>
      <trkpt lat="39.768779" lon="3.027273">
        <ele>16.8</ele>
        <time>2016-04-18T09:55:40Z</time>
      </trkpt>
      <trkpt lat="39.768536" lon="3.027496">
        <ele>16.8</ele>
        <time>2016-04-18T09:55:43Z</time>
      </trkpt>
      <trkpt lat="39.768279" lon="3.027706">
        <ele>16.8</ele>
        <time>2016-04-18T09:55:46Z</time>
      </trkpt>
      <trkpt lat="39.767977" lon="3.027947">
        <ele>16.8</ele>
        <time>2016-04-18T09:55:50Z</time>
      </trkpt>
      <trkpt lat="39.767906" lon="3.028003">
        <ele>16.8</ele>
        <time>2016-04-18T09:55:51Z</time>
      </trkpt>
      <trkpt lat="39.76771" lon="3.028104">
        <ele>16.8</ele>
        <time>2016-04-18T09:55:54Z</time>
      </trkpt>
      <trkpt lat="39.7673" lon="3.028401">
        <ele>16.8</ele>
        <time>2016-04-18T09:56:01Z</time>
      </trkpt>
      <trkpt lat="39.767077" lon="3.028542">
        <ele>16.8</ele>
        <time>2016-04-18T09:56:05Z</time>
      </trkpt>
      <trkpt lat="39.766981" lon="3.028591">
        <ele>16.8</ele>
        <time>2016-04-18T09:56:07Z</time>
      </trkpt>
      <trkpt lat="39.766936" lon="3.028645">
        <ele>16.8</ele>
        <time>2016-04-18T09:56:08Z</time>
      </trkpt>
      <trkpt lat="39.766783" lon="3.028728">
        <ele>16.8</ele>
        <time>2016-04-18T09:56:11Z</time>
      </trkpt>
      <trkpt lat="39.76654" lon="3.028983">
        <ele>16.8</ele>
        <time>2016-04-18T09:56:16Z</time>
      </trkpt>
      <trkpt lat="39.766206" lon="3.029224">
        <ele>16.8</ele>
        <time>2016-04-18T09:56:22Z</time>
      </trkpt>
      <trkpt lat="39.765847" lon="3.029474">
        <ele>16.8</ele>
        <time>2016-04-18T09:56:28Z</time>
      </trkpt>
      <trkpt lat="39.765576" lon="3.029622">
        <ele>16.8</ele>
        <time>2016-04-18T09:56:33Z</time>
      </trkpt>
      <trkpt lat="39.765512" lon="3.029623">
        <ele>16.8</ele>
        <time>2016-04-18T09:56:34Z</time>
      </trkpt>
      <trkpt lat="39.76538" lon="3.029626">
        <ele>16.8</ele>
        <time>2016-04-18T09:56:36Z</time>
      </trkpt>
      <trkpt lat="39.765257" lon="3.029721">
        <ele>16.8</ele>
        <time>2016-04-18T09:56:38Z</time>
      </trkpt>
      <trkpt lat="39.765172" lon="3.029843">
        <ele>16.8</ele>
        <time>2016-04-18T09:56:40Z</time>
      </trkpt>
      <trkpt lat="39.765127" lon="3.029895">
        <ele>16.8</ele>
        <time>2016-04-18T09:56:41Z</time>
      </trkpt>
      <trkpt lat="39.765071" lon="3.029939">
        <ele>16.8</ele>
        <time>2016-04-18T09:56:42Z</time>
      </trkpt>
      <trkpt lat="39.764877" lon="3.030033">
        <ele>16.8</ele>
        <time>2016-04-18T09:56:45Z</time>
      </trkpt>
      <trkpt lat="39.764734" lon="3.030085">
        <ele>16.8</ele>
        <time>2016-04-18T09:56:47Z</time>
      </trkpt>
      <trkpt lat="39.764377" lon="3.030186">
        <ele>16.8</ele>
        <time>2016-04-18T09:56:52Z</time>
      </trkpt>
      <trkpt lat="39.764241" lon="3.030216">
        <ele>16.8</ele>
        <time>2016-04-18T09:56:54Z</time>
      </trkpt>
      <trkpt lat="39.763904" lon="3.030355">
        <ele>16.8</ele>
        <time>2016-04-18T09:56:59Z</time>
      </trkpt>
      <trkpt lat="39.763841" lon="3.030388">
        <ele>16.8</ele>
        <time>2016-04-18T09:57:00Z</time>
      </trkpt>
      <trkpt lat="39.763431" lon="3.030636">
        <ele>16.8</ele>
        <time>2016-04-18T09:57:06Z</time>
      </trkpt>
      <trkpt lat="39.763073" lon="3.030869">
        <ele>16.8</ele>
        <time>2016-04-18T09:57:11Z</time>
      </trkpt>
      <trkpt lat="39.762921" lon="3.030969">
        <ele>16.8</ele>
        <time>2016-04-18T09:57:13Z</time>
      </trkpt>
      <trkpt lat="39.762387" lon="3.031322">
        <ele>16.8</ele>
        <time>2016-04-18T09:57:20Z</time>
      </trkpt>
      <trkpt lat="39.762238" lon="3.031425">
        <ele>16.8</ele>
        <time>2016-04-18T09:57:22Z</time>
      </trkpt>
      <trkpt lat="39.76172" lon="3.031765">
        <ele>16.8</ele>
        <time>2016-04-18T09:57:29Z</time>
      </trkpt>
      <trkpt lat="39.761433" lon="3.031955">
        <ele>16.8</ele>
        <time>2016-04-18T09:57:33Z</time>
      </trkpt>
      <trkpt lat="39.76094" lon="3.032289">
        <ele>16.8</ele>
        <time>2016-04-18T09:57:40Z</time>
      </trkpt>
      <trkpt lat="39.7608" lon="3.032388">
        <ele>16.8</ele>
        <time>2016-04-18T09:57:42Z</time>
      </trkpt>
      <trkpt lat="39.760313" lon="3.032727">
        <ele>16.8</ele>
        <time>2016-04-18T09:57:49Z</time>
      </trkpt>
      <trkpt lat="39.760242" lon="3.03278">
        <ele>16.8</ele>
        <time>2016-04-18T09:57:50Z</time>
      </trkpt>
      <trkpt lat="39.759757" lon="3.033106">
        <ele>16.8</ele>
        <time>2016-04-18T09:57:57Z</time>
      </trkpt>
      <trkpt lat="39.759683" lon="3.033147">
        <ele>16.8</ele>
        <time>2016-04-18T09:57:58Z</time>
      </trkpt>
      <trkpt lat="39.759123" lon="3.033485">
        <ele>16.8</ele>
        <time>2016-04-18T09:58:06Z</time>
      </trkpt>
      <trkpt lat="39.758671" lon="3.03387">
        <ele>16.8</ele>
        <time>2016-04-18T09:58:13Z</time>
      </trkpt>
      <trkpt lat="39.758232" lon="3.034265">
        <ele>16.8</ele>
        <time>2016-04-18T09:58:20Z</time>
      </trkpt>
      <trkpt lat="39.757733" lon="3.034721">
        <ele>16.8</ele>
        <time>2016-04-18T09:58:28Z</time>
      </trkpt>
      <trkpt lat="39.757246" lon="3.035164">
        <ele>16.8</ele>
        <time>2016-04-18T09:58:36Z</time>
      </trkpt>
      <trkpt lat="39.757186" lon="3.035219">
        <ele>16.8</ele>
        <time>2016-04-18T09:58:37Z</time>
      </trkpt>
      <trkpt lat="39.757005" lon="3.035377">
        <ele>17.4</ele>
        <time>2016-04-18T09:58:40Z</time>
      </trkpt>
      <trkpt lat="39.756944" lon="3.035431">
        <ele>17.8</ele>
        <time>2016-04-18T09:58:41Z</time>
      </trkpt>
      <trkpt lat="39.756885" lon="3.035487">
        <ele>18.2</ele>
        <time>2016-04-18T09:58:42Z</time>
      </trkpt>
      <trkpt lat="39.756822" lon="3.035545">
        <ele>18.6</ele>
        <time>2016-04-18T09:58:43Z</time>
      </trkpt>
      <trkpt lat="39.756761" lon="3.0356">
        <ele>19</ele>
        <time>2016-04-18T09:58:44Z</time>
      </trkpt>
      <trkpt lat="39.756703" lon="3.035654">
        <ele>19</ele>
        <time>2016-04-18T09:58:45Z</time>
      </trkpt>
      <trkpt lat="39.75624" lon="3.036065">
        <ele>19</ele>
        <time>2016-04-18T09:58:53Z</time>
      </trkpt>
      <trkpt lat="39.756186" lon="3.036116">
        <ele>19.4</ele>
        <time>2016-04-18T09:58:54Z</time>
      </trkpt>
      <trkpt lat="39.756132" lon="3.036166">
        <ele>19.8</ele>
        <time>2016-04-18T09:58:55Z</time>
      </trkpt>
      <trkpt lat="39.756077" lon="3.036217">
        <ele>20.2</ele>
        <time>2016-04-18T09:58:56Z</time>
      </trkpt>
      <trkpt lat="39.756022" lon="3.036268">
        <ele>20.6</ele>
        <time>2016-04-18T09:58:57Z</time>
      </trkpt>
      <trkpt lat="39.755967" lon="3.036321">
        <ele>21.2</ele>
        <time>2016-04-18T09:58:58Z</time>
      </trkpt>
      <trkpt lat="39.755724" lon="3.036537">
        <ele>21.2</ele>
        <time>2016-04-18T09:59:02Z</time>
      </trkpt>
      <trkpt lat="39.755286" lon="3.036938">
        <ele>21.2</ele>
        <time>2016-04-18T09:59:09Z</time>
      </trkpt>
      <trkpt lat="39.755158" lon="3.037052">
        <ele>20.6</ele>
        <time>2016-04-18T09:59:11Z</time>
      </trkpt>
      <trkpt lat="39.755093" lon="3.037108">
        <ele>20.2</ele>
        <time>2016-04-18T09:59:12Z</time>
      </trkpt>
      <trkpt lat="39.755028" lon="3.037165">
        <ele>19.8</ele>
        <time>2016-04-18T09:59:13Z</time>
      </trkpt>
      <trkpt lat="39.75496" lon="3.037225">
        <ele>19</ele>
        <time>2016-04-18T09:59:14Z</time>
      </trkpt>
      <trkpt lat="39.75464" lon="3.037522">
        <ele>19</ele>
        <time>2016-04-18T09:59:19Z</time>
      </trkpt>
      <trkpt lat="39.754306" lon="3.037818">
        <ele>19</ele>
        <time>2016-04-18T09:59:24Z</time>
      </trkpt>
      <trkpt lat="39.754173" lon="3.037938">
        <ele>19</ele>
        <time>2016-04-18T09:59:26Z</time>
      </trkpt>
      <trkpt lat="39.753842" lon="3.03824">
        <ele>18.6</ele>
        <time>2016-04-18T09:59:31Z</time>
      </trkpt>
      <trkpt lat="39.753778" lon="3.038299">
        <ele>18</ele>
        <time>2016-04-18T09:59:32Z</time>
      </trkpt>
      <trkpt lat="39.753713" lon="3.038355">
        <ele>17.6</ele>
        <time>2016-04-18T09:59:33Z</time>
      </trkpt>
      <trkpt lat="39.753648" lon="3.03841">
        <ele>17</ele>
        <time>2016-04-18T09:59:34Z</time>
      </trkpt>
      <trkpt lat="39.753578" lon="3.038467">
        <ele>16.6</ele>
        <time>2016-04-18T09:59:35Z</time>
      </trkpt>
      <trkpt lat="39.753267" lon="3.03876">
        <ele>16.6</ele>
        <time>2016-04-18T09:59:40Z</time>
      </trkpt>
      <trkpt lat="39.752888" lon="3.039099">
        <ele>16.6</ele>
        <time>2016-04-18T09:59:46Z</time>
      </trkpt>
      <trkpt lat="39.752409" lon="3.03953">
        <ele>16.6</ele>
        <time>2016-04-18T09:59:53Z</time>
      </trkpt>
      <trkpt lat="39.752267" lon="3.039664">
        <ele>16.6</ele>
        <time>2016-04-18T09:59:55Z</time>
      </trkpt>
      <trkpt lat="39.752044" lon="3.039865">
        <ele>16.2</ele>
        <time>2016-04-18T09:59:58Z</time>
      </trkpt>
      <trkpt lat="39.751967" lon="3.039935">
        <ele>15.8</ele>
        <time>2016-04-18T09:59:59Z</time>
      </trkpt>
      <trkpt lat="39.751894" lon="3.040002">
        <ele>15.4</ele>
        <time>2016-04-18T10:00:00Z</time>
      </trkpt>
      <trkpt lat="39.751822" lon="3.040071">
        <ele>14.8</ele>
        <time>2016-04-18T10:00:01Z</time>
      </trkpt>
      <trkpt lat="39.751753" lon="3.040136">
        <ele>14.4</ele>
        <time>2016-04-18T10:00:02Z</time>
      </trkpt>
      <trkpt lat="39.75168" lon="3.040199">
        <ele>14.4</ele>
        <time>2016-04-18T10:00:03Z</time>
      </trkpt>
      <trkpt lat="39.751461" lon="3.040392">
        <ele>14.4</ele>
        <time>2016-04-18T10:00:06Z</time>
      </trkpt>
      <trkpt lat="39.751052" lon="3.040761">
        <ele>14.4</ele>
        <time>2016-04-18T10:00:12Z</time>
      </trkpt>
      <trkpt lat="39.750594" lon="3.041175">
        <ele>14.4</ele>
        <time>2016-04-18T10:00:19Z</time>
      </trkpt>
      <trkpt lat="39.750469" lon="3.041288">
        <ele>14.8</ele>
        <time>2016-04-18T10:00:21Z</time>
      </trkpt>
      <trkpt lat="39.750407" lon="3.041345">
        <ele>15.2</ele>
        <time>2016-04-18T10:00:22Z</time>
      </trkpt>
      <trkpt lat="39.750344" lon="3.041401">
        <ele>15.6</ele>
        <time>2016-04-18T10:00:23Z</time>
      </trkpt>
      <trkpt lat="39.750282" lon="3.041457">
        <ele>16</ele>
        <time>2016-04-18T10:00:24Z</time>
      </trkpt>
      <trkpt lat="39.75022" lon="3.041513">
        <ele>16.6</ele>
        <time>2016-04-18T10:00:25Z</time>
      </trkpt>
      <trkpt lat="39.749902" lon="3.041804">
        <ele>16.6</ele>
        <time>2016-04-18T10:00:30Z</time>
      </trkpt>
      <trkpt lat="39.74958" lon="3.042092">
        <ele>16.6</ele>
        <time>2016-04-18T10:00:35Z</time>
      </trkpt>
      <trkpt lat="39.749265" lon="3.042373">
        <ele>16.6</ele>
        <time>2016-04-18T10:00:40Z</time>
      </trkpt>
      <trkpt lat="39.748757" lon="3.042825">
        <ele>16.6</ele>
        <time>2016-04-18T10:00:48Z</time>
      </trkpt>
      <trkpt lat="39.748693" lon="3.042883">
        <ele>16.6</ele>
        <time>2016-04-18T10:00:49Z</time>
      </trkpt>
      <trkpt lat="39.748227" lon="3.043303">
        <ele>16.6</ele>
        <time>2016-04-18T10:00:56Z</time>
      </trkpt>
      <trkpt lat="39.748091" lon="3.043426">
        <ele>16.6</ele>
        <time>2016-04-18T10:00:58Z</time>
      </trkpt>
      <trkpt lat="39.747623" lon="3.043859">
        <ele>16.6</ele>
        <time>2016-04-18T10:01:05Z</time>
      </trkpt>
      <trkpt lat="39.747557" lon="3.04392">
        <ele>16.6</ele>
        <time>2016-04-18T10:01:06Z</time>
      </trkpt>
      <trkpt lat="39.747075" lon="3.044349">
        <ele>16.6</ele>
        <time>2016-04-18T10:01:13Z</time>
      </trkpt>
      <trkpt lat="39.747007" lon="3.044413">
        <ele>16.6</ele>
        <time>2016-04-18T10:01:14Z</time>
      </trkpt>
      <trkpt lat="39.746536" lon="3.04485">
        <ele>16.6</ele>
        <time>2016-04-18T10:01:21Z</time>
      </trkpt>
      <trkpt lat="39.74647" lon="3.04491">
        <ele>16.6</ele>
        <time>2016-04-18T10:01:22Z</time>
      </trkpt>
      <trkpt lat="39.74613" lon="3.045211">
        <ele>16.6</ele>
        <time>2016-04-18T10:01:27Z</time>
      </trkpt>
      <trkpt lat="39.745857" lon="3.045447">
        <ele>16.6</ele>
        <time>2016-04-18T10:01:31Z</time>
      </trkpt>
      <trkpt lat="39.7454" lon="3.04586">
        <ele>16.6</ele>
        <time>2016-04-18T10:01:38Z</time>
      </trkpt>
      <trkpt lat="39.745274" lon="3.045967">
        <ele>16.6</ele>
        <time>2016-04-18T10:01:40Z</time>
      </trkpt>
      <trkpt lat="39.744866" lon="3.046335">
        <ele>16.6</ele>
        <time>2016-04-18T10:01:47Z</time>
      </trkpt>
      <trkpt lat="39.744762" lon="3.04643">
        <ele>17</ele>
        <time>2016-04-18T10:01:49Z</time>
      </trkpt>
      <trkpt lat="39.744711" lon="3.046473">
        <ele>17.4</ele>
        <time>2016-04-18T10:01:50Z</time>
      </trkpt>
      <trkpt lat="39.744663" lon="3.046518">
        <ele>17.8</ele>
        <time>2016-04-18T10:01:51Z</time>
      </trkpt>
      <trkpt lat="39.744616" lon="3.046567">
        <ele>18.2</ele>
        <time>2016-04-18T10:01:52Z</time>
      </trkpt>
      <trkpt lat="39.744571" lon="3.046611">
        <ele>18.6</ele>
        <time>2016-04-18T10:01:53Z</time>
      </trkpt>
      <trkpt lat="39.74441" lon="3.046776">
        <ele>19</ele>
        <time>2016-04-18T10:01:57Z</time>
      </trkpt>
      <trkpt lat="39.744376" lon="3.046811">
        <ele>19.4</ele>
        <time>2016-04-18T10:01:58Z</time>
      </trkpt>
      <trkpt lat="39.744344" lon="3.046843">
        <ele>20</ele>
        <time>2016-04-18T10:01:59Z</time>
      </trkpt>
      <trkpt lat="39.744312" lon="3.046874">
        <ele>20.4</ele>
        <time>2016-04-18T10:02:00Z</time>
      </trkpt>
      <trkpt lat="39.744282" lon="3.046905">
        <ele>20.8</ele>
        <time>2016-04-18T10:02:01Z</time>
      </trkpt>
      <trkpt lat="39.744255" lon="3.046937">
        <ele>21.2</ele>
        <time>2016-04-18T10:02:02Z</time>
      </trkpt>
      <trkpt lat="39.744227" lon="3.046968">
        <ele>21.6</ele>
        <time>2016-04-18T10:02:03Z</time>
      </trkpt>
      <trkpt lat="39.7442" lon="3.046997">
        <ele>22</ele>
        <time>2016-04-18T10:02:04Z</time>
      </trkpt>
      <trkpt lat="39.744174" lon="3.047026">
        <ele>22.4</ele>
        <time>2016-04-18T10:02:05Z</time>
      </trkpt>
      <trkpt lat="39.744148" lon="3.047054">
        <ele>23</ele>
        <time>2016-04-18T10:02:06Z</time>
      </trkpt>
      <trkpt lat="39.744049" lon="3.047165">
        <ele>23.4</ele>
        <time>2016-04-18T10:02:10Z</time>
      </trkpt>
      <trkpt lat="39.744022" lon="3.04719">
        <ele>23.8</ele>
        <time>2016-04-18T10:02:11Z</time>
      </trkpt>
      <trkpt lat="39.743994" lon="3.047214">
        <ele>24.2</ele>
        <time>2016-04-18T10:02:12Z</time>
      </trkpt>
      <trkpt lat="39.743968" lon="3.047241">
        <ele>24.6</ele>
        <time>2016-04-18T10:02:13Z</time>
      </trkpt>
      <trkpt lat="39.743941" lon="3.047269">
        <ele>25</ele>
        <time>2016-04-18T10:02:14Z</time>
      </trkpt>
      <trkpt lat="39.743846" lon="3.047377">
        <ele>25.6</ele>
        <time>2016-04-18T10:02:18Z</time>
      </trkpt>
      <trkpt lat="39.743823" lon="3.047403">
        <ele>26</ele>
        <time>2016-04-18T10:02:19Z</time>
      </trkpt>
      <trkpt lat="39.743801" lon="3.047431">
        <ele>26.4</ele>
        <time>2016-04-18T10:02:20Z</time>
      </trkpt>
      <trkpt lat="39.743778" lon="3.047458">
        <ele>26.8</ele>
        <time>2016-04-18T10:02:21Z</time>
      </trkpt>
      <trkpt lat="39.743754" lon="3.047484">
        <ele>27.2</ele>
        <time>2016-04-18T10:02:22Z</time>
      </trkpt>
      <trkpt lat="39.743656" lon="3.047583">
        <ele>27.2</ele>
        <time>2016-04-18T10:02:26Z</time>
      </trkpt>
      <trkpt lat="39.743608" lon="3.047634">
        <ele>27.6</ele>
        <time>2016-04-18T10:02:28Z</time>
      </trkpt>
      <trkpt lat="39.743584" lon="3.047661">
        <ele>28.2</ele>
        <time>2016-04-18T10:02:29Z</time>
      </trkpt>
      <trkpt lat="39.743558" lon="3.047691">
        <ele>28.6</ele>
        <time>2016-04-18T10:02:30Z</time>
      </trkpt>
      <trkpt lat="39.743536" lon="3.047717">
        <ele>29.4</ele>
        <time>2016-04-18T10:02:31Z</time>
      </trkpt>
      <trkpt lat="39.743487" lon="3.047768">
        <ele>29.4</ele>
        <time>2016-04-18T10:02:33Z</time>
      </trkpt>
      <trkpt lat="39.743464" lon="3.047789">
        <ele>29.8</ele>
        <time>2016-04-18T10:02:34Z</time>
      </trkpt>
      <trkpt lat="39.743443" lon="3.047811">
        <ele>30.2</ele>
        <time>2016-04-18T10:02:35Z</time>
      </trkpt>
      <trkpt lat="39.74342" lon="3.047834">
        <ele>30.6</ele>
        <time>2016-04-18T10:02:36Z</time>
      </trkpt>
      <trkpt lat="39.743396" lon="3.047861">
        <ele>31.2</ele>
        <time>2016-04-18T10:02:37Z</time>
      </trkpt>
      <trkpt lat="39.743371" lon="3.047885">
        <ele>31.6</ele>
        <time>2016-04-18T10:02:38Z</time>
      </trkpt>
      <trkpt lat="39.743322" lon="3.047938">
        <ele>31.6</ele>
        <time>2016-04-18T10:02:40Z</time>
      </trkpt>
      <trkpt lat="39.74325" lon="3.048019">
        <ele>32</ele>
        <time>2016-04-18T10:02:43Z</time>
      </trkpt>
      <trkpt lat="39.743224" lon="3.048046">
        <ele>32.4</ele>
        <time>2016-04-18T10:02:44Z</time>
      </trkpt>
      <trkpt lat="39.743198" lon="3.048077">
        <ele>32.8</ele>
        <time>2016-04-18T10:02:45Z</time>
      </trkpt>
      <trkpt lat="39.74317" lon="3.048105">
        <ele>33.2</ele>
        <time>2016-04-18T10:02:46Z</time>
      </trkpt>
      <trkpt lat="39.743143" lon="3.048134">
        <ele>33.6</ele>
        <time>2016-04-18T10:02:47Z</time>
      </trkpt>
      <trkpt lat="39.743043" lon="3.048247">
        <ele>34</ele>
        <time>2016-04-18T10:02:51Z</time>
      </trkpt>
      <trkpt lat="39.743023" lon="3.048273">
        <ele>34.4</ele>
        <time>2016-04-18T10:02:52Z</time>
      </trkpt>
      <trkpt lat="39.743003" lon="3.048301">
        <ele>35</ele>
        <time>2016-04-18T10:02:53Z</time>
      </trkpt>
      <trkpt lat="39.74298" lon="3.048321">
        <ele>35.8</ele>
        <time>2016-04-18T10:02:54Z</time>
      </trkpt>
      <trkpt lat="39.742956" lon="3.048346">
        <ele>35.8</ele>
        <time>2016-04-18T10:02:55Z</time>
      </trkpt>
      <trkpt lat="39.742907" lon="3.048397">
        <ele>36.2</ele>
        <time>2016-04-18T10:02:57Z</time>
      </trkpt>
      <trkpt lat="39.742884" lon="3.048423">
        <ele>36.6</ele>
        <time>2016-04-18T10:02:58Z</time>
      </trkpt>
      <trkpt lat="39.742862" lon="3.048448">
        <ele>37</ele>
        <time>2016-04-18T10:02:59Z</time>
      </trkpt>
      <trkpt lat="39.742841" lon="3.048473">
        <ele>37.4</ele>
        <time>2016-04-18T10:03:00Z</time>
      </trkpt>
      <trkpt lat="39.742818" lon="3.048502">
        <ele>37.8</ele>
        <time>2016-04-18T10:03:01Z</time>
      </trkpt>
      <trkpt lat="39.742751" lon="3.048574">
        <ele>37.8</ele>
        <time>2016-04-18T10:03:04Z</time>
      </trkpt>
      <trkpt lat="39.742701" lon="3.048631">
        <ele>38.2</ele>
        <time>2016-04-18T10:03:06Z</time>
      </trkpt>
      <trkpt lat="39.74267" lon="3.048658">
        <ele>38.6</ele>
        <time>2016-04-18T10:03:07Z</time>
      </trkpt>
      <trkpt lat="39.742637" lon="3.04869">
        <ele>39</ele>
        <time>2016-04-18T10:03:08Z</time>
      </trkpt>
      <trkpt lat="39.742607" lon="3.048723">
        <ele>39.4</ele>
        <time>2016-04-18T10:03:09Z</time>
      </trkpt>
      <trkpt lat="39.74258" lon="3.048756">
        <ele>40</ele>
        <time>2016-04-18T10:03:10Z</time>
      </trkpt>
      <trkpt lat="39.742498" lon="3.048856">
        <ele>40.4</ele>
        <time>2016-04-18T10:03:13Z</time>
      </trkpt>
      <trkpt lat="39.742473" lon="3.048892">
        <ele>40.8</ele>
        <time>2016-04-18T10:03:14Z</time>
      </trkpt>
      <trkpt lat="39.742445" lon="3.048924">
        <ele>41.2</ele>
        <time>2016-04-18T10:03:15Z</time>
      </trkpt>
      <trkpt lat="39.742417" lon="3.048956">
        <ele>41.6</ele>
        <time>2016-04-18T10:03:16Z</time>
      </trkpt>
      <trkpt lat="39.742389" lon="3.048988">
        <ele>42</ele>
        <time>2016-04-18T10:03:17Z</time>
      </trkpt>
      <trkpt lat="39.742302" lon="3.049091">
        <ele>42.4</ele>
        <time>2016-04-18T10:03:20Z</time>
      </trkpt>
      <trkpt lat="39.742274" lon="3.049122">
        <ele>42.8</ele>
        <time>2016-04-18T10:03:21Z</time>
      </trkpt>
      <trkpt lat="39.742249" lon="3.049154">
        <ele>43.4</ele>
        <time>2016-04-18T10:03:22Z</time>
      </trkpt>
      <trkpt lat="39.742221" lon="3.049187">
        <ele>43.8</ele>
        <time>2016-04-18T10:03:23Z</time>
      </trkpt>
      <trkpt lat="39.742196" lon="3.049217">
        <ele>44.2</ele>
        <time>2016-04-18T10:03:24Z</time>
      </trkpt>
      <trkpt lat="39.742037" lon="3.049414">
        <ele>44.6</ele>
        <time>2016-04-18T10:03:30Z</time>
      </trkpt>
      <trkpt lat="39.742008" lon="3.049449">
        <ele>45</ele>
        <time>2016-04-18T10:03:31Z</time>
      </trkpt>
      <trkpt lat="39.741979" lon="3.049485">
        <ele>45.4</ele>
        <time>2016-04-18T10:03:32Z</time>
      </trkpt>
      <trkpt lat="39.741952" lon="3.049519">
        <ele>45.8</ele>
        <time>2016-04-18T10:03:33Z</time>
      </trkpt>
      <trkpt lat="39.741927" lon="3.049553">
        <ele>46.2</ele>
        <time>2016-04-18T10:03:34Z</time>
      </trkpt>
      <trkpt lat="39.74179" lon="3.049749">
        <ele>46.2</ele>
        <time>2016-04-18T10:03:39Z</time>
      </trkpt>
      <trkpt lat="39.741599" lon="3.049989">
        <ele>46.2</ele>
        <time>2016-04-18T10:03:45Z</time>
      </trkpt>
      <trkpt lat="39.741402" lon="3.050233">
        <ele>46.6</ele>
        <time>2016-04-18T10:03:51Z</time>
      </trkpt>
      <trkpt lat="39.741366" lon="3.050275">
        <ele>47</ele>
        <time>2016-04-18T10:03:52Z</time>
      </trkpt>
      <trkpt lat="39.74133" lon="3.050318">
        <ele>47.4</ele>
        <time>2016-04-18T10:03:53Z</time>
      </trkpt>
      <trkpt lat="39.741294" lon="3.050363">
        <ele>48</ele>
        <time>2016-04-18T10:03:54Z</time>
      </trkpt>
      <trkpt lat="39.741257" lon="3.050408">
        <ele>48.4</ele>
        <time>2016-04-18T10:03:55Z</time>
      </trkpt>
      <trkpt lat="39.741055" lon="3.050673">
        <ele>48.4</ele>
        <time>2016-04-18T10:04:01Z</time>
      </trkpt>
      <trkpt lat="39.740958" lon="3.050808">
        <ele>48.8</ele>
        <time>2016-04-18T10:04:04Z</time>
      </trkpt>
      <trkpt lat="39.740927" lon="3.050852">
        <ele>49.4</ele>
        <time>2016-04-18T10:04:05Z</time>
      </trkpt>
      <trkpt lat="39.740893" lon="3.050897">
        <ele>49.8</ele>
        <time>2016-04-18T10:04:06Z</time>
      </trkpt>
      <trkpt lat="39.740859" lon="3.050939">
        <ele>50.4</ele>
        <time>2016-04-18T10:04:07Z</time>
      </trkpt>
      <trkpt lat="39.740824" lon="3.050981">
        <ele>50.8</ele>
        <time>2016-04-18T10:04:08Z</time>
      </trkpt>
      <trkpt lat="39.740787" lon="3.051024">
        <ele>50.8</ele>
        <time>2016-04-18T10:04:09Z</time>
      </trkpt>
      <trkpt lat="39.740558" lon="3.051243">
        <ele>50.8</ele>
        <time>2016-04-18T10:04:15Z</time>
      </trkpt>
      <trkpt lat="39.740436" lon="3.05134">
        <ele>50.8</ele>
        <time>2016-04-18T10:04:18Z</time>
      </trkpt>
      <trkpt lat="39.740313" lon="3.051417">
        <ele>50.8</ele>
        <time>2016-04-18T10:04:21Z</time>
      </trkpt>
      <trkpt lat="39.740274" lon="3.05144">
        <ele>51.2</ele>
        <time>2016-04-18T10:04:22Z</time>
      </trkpt>
      <trkpt lat="39.740236" lon="3.051456">
        <ele>51.8</ele>
        <time>2016-04-18T10:04:23Z</time>
      </trkpt>
      <trkpt lat="39.740199" lon="3.051476">
        <ele>52.2</ele>
        <time>2016-04-18T10:04:24Z</time>
      </trkpt>
      <trkpt lat="39.740159" lon="3.051499">
        <ele>52.6</ele>
        <time>2016-04-18T10:04:25Z</time>
      </trkpt>
      <trkpt lat="39.740121" lon="3.051524">
        <ele>53</ele>
        <time>2016-04-18T10:04:26Z</time>
      </trkpt>
      <trkpt lat="39.740084" lon="3.051554">
        <ele>53</ele>
        <time>2016-04-18T10:04:27Z</time>
      </trkpt>
      <trkpt lat="39.739973" lon="3.051634">
        <ele>53.6</ele>
        <time>2016-04-18T10:04:30Z</time>
      </trkpt>
      <trkpt lat="39.739939" lon="3.051666">
        <ele>54</ele>
        <time>2016-04-18T10:04:31Z</time>
      </trkpt>
      <trkpt lat="39.739907" lon="3.051705">
        <ele>54.8</ele>
        <time>2016-04-18T10:04:32Z</time>
      </trkpt>
      <trkpt lat="39.739879" lon="3.051745">
        <ele>55.4</ele>
        <time>2016-04-18T10:04:33Z</time>
      </trkpt>
      <trkpt lat="39.739769" lon="3.051909">
        <ele>55.8</ele>
        <time>2016-04-18T10:04:37Z</time>
      </trkpt>
      <trkpt lat="39.739736" lon="3.051946">
        <ele>56.2</ele>
        <time>2016-04-18T10:04:38Z</time>
      </trkpt>
      <trkpt lat="39.739696" lon="3.051978">
        <ele>56.8</ele>
        <time>2016-04-18T10:04:39Z</time>
      </trkpt>
      <trkpt lat="39.739657" lon="3.052">
        <ele>57.2</ele>
        <time>2016-04-18T10:04:40Z</time>
      </trkpt>
      <trkpt lat="39.73962" lon="3.05203">
        <ele>57.6</ele>
        <time>2016-04-18T10:04:41Z</time>
      </trkpt>
      <trkpt lat="39.739512" lon="3.052141">
        <ele>57.6</ele>
        <time>2016-04-18T10:04:44Z</time>
      </trkpt>
      <trkpt lat="39.739445" lon="3.052212">
        <ele>57.6</ele>
        <time>2016-04-18T10:04:46Z</time>
      </trkpt>
      <trkpt lat="39.739358" lon="3.052317">
        <ele>57.6</ele>
        <time>2016-04-18T10:04:49Z</time>
      </trkpt>
      <trkpt lat="39.739284" lon="3.052369">
        <ele>58</ele>
        <time>2016-04-18T10:04:52Z</time>
      </trkpt>
      <trkpt lat="39.739262" lon="3.052389">
        <ele>58.4</ele>
        <time>2016-04-18T10:04:53Z</time>
      </trkpt>
      <trkpt lat="39.73924" lon="3.052411">
        <ele>59</ele>
        <time>2016-04-18T10:04:54Z</time>
      </trkpt>
      <trkpt lat="39.739217" lon="3.052431">
        <ele>59.4</ele>
        <time>2016-04-18T10:04:55Z</time>
      </trkpt>
      <trkpt lat="39.739189" lon="3.052449">
        <ele>59.8</ele>
        <time>2016-04-18T10:04:56Z</time>
      </trkpt>
      <trkpt lat="39.739137" lon="3.052513">
        <ele>59.8</ele>
        <time>2016-04-18T10:04:58Z</time>
      </trkpt>
      <trkpt lat="39.739002" lon="3.052697">
        <ele>59.8</ele>
        <time>2016-04-18T10:05:03Z</time>
      </trkpt>
      <trkpt lat="39.738783" lon="3.052997">
        <ele>59.8</ele>
        <time>2016-04-18T10:05:11Z</time>
      </trkpt>
      <trkpt lat="39.738583" lon="3.053309">
        <ele>59.8</ele>
        <time>2016-04-18T10:05:17Z</time>
      </trkpt>
      <trkpt lat="39.738429" lon="3.05357">
        <ele>59.8</ele>
        <time>2016-04-18T10:05:22Z</time>
      </trkpt>
      <trkpt lat="39.738395" lon="3.053621">
        <ele>59.8</ele>
        <time>2016-04-18T10:05:23Z</time>
      </trkpt>
      <trkpt lat="39.738139" lon="3.054033">
        <ele>59.8</ele>
        <time>2016-04-18T10:05:30Z</time>
      </trkpt>
      <trkpt lat="39.738025" lon="3.054193">
        <ele>59.8</ele>
        <time>2016-04-18T10:05:33Z</time>
      </trkpt>
      <trkpt lat="39.737987" lon="3.05424">
        <ele>60.2</ele>
        <time>2016-04-18T10:05:34Z</time>
      </trkpt>
      <trkpt lat="39.737951" lon="3.054293">
        <ele>60.6</ele>
        <time>2016-04-18T10:05:35Z</time>
      </trkpt>
      <trkpt lat="39.737917" lon="3.054351">
        <ele>61</ele>
        <time>2016-04-18T10:05:36Z</time>
      </trkpt>
      <trkpt lat="39.737887" lon="3.054408">
        <ele>61.4</ele>
        <time>2016-04-18T10:05:37Z</time>
      </trkpt>
      <trkpt lat="39.737855" lon="3.054463">
        <ele>61.8</ele>
        <time>2016-04-18T10:05:38Z</time>
      </trkpt>
      <trkpt lat="39.737748" lon="3.05463">
        <ele>61.8</ele>
        <time>2016-04-18T10:05:41Z</time>
      </trkpt>
      <trkpt lat="39.737709" lon="3.054678">
        <ele>61.8</ele>
        <time>2016-04-18T10:05:42Z</time>
      </trkpt>
      <trkpt lat="39.7376" lon="3.05483">
        <ele>62.2</ele>
        <time>2016-04-18T10:05:45Z</time>
      </trkpt>
      <trkpt lat="39.737564" lon="3.054878">
        <ele>63</ele>
        <time>2016-04-18T10:05:46Z</time>
      </trkpt>
      <trkpt lat="39.73753" lon="3.054932">
        <ele>63.6</ele>
        <time>2016-04-18T10:05:47Z</time>
      </trkpt>
      <trkpt lat="39.737495" lon="3.05498">
        <ele>64</ele>
        <time>2016-04-18T10:05:48Z</time>
      </trkpt>
      <trkpt lat="39.737248" lon="3.055314">
        <ele>64</ele>
        <time>2016-04-18T10:05:55Z</time>
      </trkpt>
      <trkpt lat="39.737215" lon="3.055363">
        <ele>64.4</ele>
        <time>2016-04-18T10:05:56Z</time>
      </trkpt>
      <trkpt lat="39.737177" lon="3.05541">
        <ele>64.8</ele>
        <time>2016-04-18T10:05:57Z</time>
      </trkpt>
      <trkpt lat="39.737138" lon="3.055455">
        <ele>65.2</ele>
        <time>2016-04-18T10:05:58Z</time>
      </trkpt>
      <trkpt lat="39.737101" lon="3.055503">
        <ele>65.6</ele>
        <time>2016-04-18T10:05:59Z</time>
      </trkpt>
      <trkpt lat="39.737063" lon="3.05555">
        <ele>66</ele>
        <time>2016-04-18T10:06:00Z</time>
      </trkpt>
      <trkpt lat="39.736952" lon="3.055699">
        <ele>66</ele>
        <time>2016-04-18T10:06:03Z</time>
      </trkpt>
      <trkpt lat="39.736848" lon="3.055828">
        <ele>66</ele>
        <time>2016-04-18T10:06:06Z</time>
      </trkpt>
      <trkpt lat="39.736739" lon="3.055938">
        <ele>66</ele>
        <time>2016-04-18T10:06:09Z</time>
      </trkpt>
      <trkpt lat="39.736615" lon="3.056059">
        <ele>66.4</ele>
        <time>2016-04-18T10:06:13Z</time>
      </trkpt>
      <trkpt lat="39.736589" lon="3.056085">
        <ele>66.8</ele>
        <time>2016-04-18T10:06:14Z</time>
      </trkpt>
      <trkpt lat="39.736561" lon="3.056095">
        <ele>67.2</ele>
        <time>2016-04-18T10:06:15Z</time>
      </trkpt>
      <trkpt lat="39.736528" lon="3.05611">
        <ele>67.6</ele>
        <time>2016-04-18T10:06:16Z</time>
      </trkpt>
      <trkpt lat="39.736491" lon="3.056127">
        <ele>68</ele>
        <time>2016-04-18T10:06:17Z</time>
      </trkpt>
      <trkpt lat="39.736461" lon="3.056145">
        <ele>68</ele>
        <time>2016-04-18T10:06:18Z</time>
      </trkpt>
      <trkpt lat="39.736442" lon="3.056174">
        <ele>68</ele>
        <time>2016-04-18T10:06:19Z</time>
      </trkpt>
      <trkpt lat="39.736398" lon="3.056226">
        <ele>68</ele>
        <time>2016-04-18T10:06:21Z</time>
      </trkpt>
      <trkpt lat="39.736376" lon="3.056253">
        <ele>68</ele>
        <time>2016-04-18T10:06:22Z</time>
      </trkpt>
      <trkpt lat="39.736331" lon="3.056298">
        <ele>68</ele>
        <time>2016-04-18T10:06:24Z</time>
      </trkpt>
      <trkpt lat="39.736287" lon="3.056337">
        <ele>68</ele>
        <time>2016-04-18T10:06:26Z</time>
      </trkpt>
      <trkpt lat="39.736275" lon="3.056352">
        <ele>68</ele>
        <time>2016-04-18T10:06:27Z</time>
      </trkpt>
      <trkpt lat="39.736265" lon="3.056363">
        <ele>68</ele>
        <time>2016-04-18T10:06:28Z</time>
      </trkpt>
      <trkpt lat="39.73625" lon="3.05637">
        <ele>68</ele>
        <time>2016-04-18T10:06:29Z</time>
      </trkpt>
      <trkpt lat="39.736225" lon="3.056406">
        <ele>68</ele>
        <time>2016-04-18T10:06:33Z</time>
      </trkpt>
      <trkpt lat="39.736217" lon="3.05642">
        <ele>68</ele>
        <time>2016-04-18T10:06:34Z</time>
      </trkpt>
      <trkpt lat="39.73621" lon="3.056432">
        <ele>68</ele>
        <time>2016-04-18T10:06:35Z</time>
      </trkpt>
      <trkpt lat="39.735989" lon="3.056624">
        <ele>68</ele>
        <time>2016-04-18T10:06:56Z</time>
      </trkpt>
      <trkpt lat="39.735939" lon="3.056662">
        <ele>68</ele>
        <time>2016-04-18T10:06:58Z</time>
      </trkpt>
      <trkpt lat="39.735888" lon="3.056711">
        <ele>68</ele>
        <time>2016-04-18T10:07:02Z</time>
      </trkpt>
      <trkpt lat="39.735764" lon="3.056771">
        <ele>68</ele>
        <time>2016-04-18T10:07:07Z</time>
      </trkpt>
      <trkpt lat="39.735667" lon="3.056862">
        <ele>68</ele>
        <time>2016-04-18T10:07:10Z</time>
      </trkpt>
      <trkpt lat="39.735617" lon="3.056875">
        <ele>68</ele>
        <time>2016-04-18T10:07:11Z</time>
      </trkpt>
      <trkpt lat="39.735576" lon="3.056904">
        <ele>68</ele>
        <time>2016-04-18T10:07:12Z</time>
      </trkpt>
      <trkpt lat="39.735488" lon="3.05696">
        <ele>68</ele>
        <time>2016-04-18T10:07:14Z</time>
      </trkpt>
      <trkpt lat="39.735337" lon="3.05701">
        <ele>68</ele>
        <time>2016-04-18T10:07:17Z</time>
      </trkpt>
      <trkpt lat="39.735291" lon="3.057029">
        <ele>68</ele>
        <time>2016-04-18T10:07:18Z</time>
      </trkpt>
      <trkpt lat="39.735144" lon="3.057099">
        <ele>68</ele>
        <time>2016-04-18T10:07:21Z</time>
      </trkpt>
      <trkpt lat="39.735096" lon="3.057125">
        <ele>68</ele>
        <time>2016-04-18T10:07:22Z</time>
      </trkpt>
      <trkpt lat="39.734918" lon="3.057218">
        <ele>68</ele>
        <time>2016-04-18T10:07:26Z</time>
      </trkpt>
      <trkpt lat="39.734781" lon="3.057287">
        <ele>68</ele>
        <time>2016-04-18T10:07:29Z</time>
      </trkpt>
      <trkpt lat="39.734738" lon="3.057307">
        <ele>68.4</ele>
        <time>2016-04-18T10:07:30Z</time>
      </trkpt>
      <trkpt lat="39.734679" lon="3.057318">
        <ele>69</ele>
        <time>2016-04-18T10:07:31Z</time>
      </trkpt>
      <trkpt lat="39.734631" lon="3.057335">
        <ele>69.4</ele>
        <time>2016-04-18T10:07:32Z</time>
      </trkpt>
      <trkpt lat="39.734581" lon="3.057358">
        <ele>69.8</ele>
        <time>2016-04-18T10:07:33Z</time>
      </trkpt>
      <trkpt lat="39.734524" lon="3.057379">
        <ele>70.2</ele>
        <time>2016-04-18T10:07:34Z</time>
      </trkpt>
      <trkpt lat="39.734474" lon="3.0574">
        <ele>70.2</ele>
        <time>2016-04-18T10:07:35Z</time>
      </trkpt>
      <trkpt lat="39.734323" lon="3.057461">
        <ele>70.2</ele>
        <time>2016-04-18T10:07:38Z</time>
      </trkpt>
      <trkpt lat="39.734221" lon="3.057503">
        <ele>70.6</ele>
        <time>2016-04-18T10:07:40Z</time>
      </trkpt>
      <trkpt lat="39.734167" lon="3.057517">
        <ele>71.2</ele>
        <time>2016-04-18T10:07:41Z</time>
      </trkpt>
      <trkpt lat="39.734112" lon="3.057534">
        <ele>71.6</ele>
        <time>2016-04-18T10:07:42Z</time>
      </trkpt>
      <trkpt lat="39.734063" lon="3.057559">
        <ele>72</ele>
        <time>2016-04-18T10:07:43Z</time>
      </trkpt>
      <trkpt lat="39.734017" lon="3.05759">
        <ele>72.4</ele>
        <time>2016-04-18T10:07:44Z</time>
      </trkpt>
      <trkpt lat="39.733928" lon="3.057635">
        <ele>72.8</ele>
        <time>2016-04-18T10:07:46Z</time>
      </trkpt>
      <trkpt lat="39.733881" lon="3.057658">
        <ele>73.2</ele>
        <time>2016-04-18T10:07:47Z</time>
      </trkpt>
      <trkpt lat="39.733827" lon="3.057678">
        <ele>73.6</ele>
        <time>2016-04-18T10:07:48Z</time>
      </trkpt>
      <trkpt lat="39.733773" lon="3.0577">
        <ele>74</ele>
        <time>2016-04-18T10:07:49Z</time>
      </trkpt>
      <trkpt lat="39.733717" lon="3.057718">
        <ele>74.4</ele>
        <time>2016-04-18T10:07:50Z</time>
      </trkpt>
      <trkpt lat="39.733619" lon="3.057768">
        <ele>74.4</ele>
        <time>2016-04-18T10:07:52Z</time>
      </trkpt>
      <trkpt lat="39.733575" lon="3.057801">
        <ele>74.4</ele>
        <time>2016-04-18T10:07:53Z</time>
      </trkpt>
      <trkpt lat="39.733384" lon="3.057913">
        <ele>74.4</ele>
        <time>2016-04-18T10:07:57Z</time>
      </trkpt>
      <trkpt lat="39.733336" lon="3.057935">
        <ele>74.4</ele>
        <time>2016-04-18T10:07:58Z</time>
      </trkpt>
      <trkpt lat="39.733101" lon="3.058042">
        <ele>74.8</ele>
        <time>2016-04-18T10:08:03Z</time>
      </trkpt>
      <trkpt lat="39.733054" lon="3.058064">
        <ele>75.2</ele>
        <time>2016-04-18T10:08:04Z</time>
      </trkpt>
      <trkpt lat="39.733003" lon="3.058087">
        <ele>75.6</ele>
        <time>2016-04-18T10:08:05Z</time>
      </trkpt>
      <trkpt lat="39.732953" lon="3.058113">
        <ele>76</ele>
        <time>2016-04-18T10:08:06Z</time>
      </trkpt>
      <trkpt lat="39.732906" lon="3.058142">
        <ele>76.6</ele>
        <time>2016-04-18T10:08:07Z</time>
      </trkpt>
      <trkpt lat="39.732746" lon="3.058217">
        <ele>76.6</ele>
        <time>2016-04-18T10:08:10Z</time>
      </trkpt>
      <trkpt lat="39.732374" lon="3.058351">
        <ele>76.6</ele>
        <time>2016-04-18T10:08:16Z</time>
      </trkpt>
      <trkpt lat="39.732132" lon="3.058459">
        <ele>76.6</ele>
        <time>2016-04-18T10:08:20Z</time>
      </trkpt>
      <trkpt lat="39.732002" lon="3.058507">
        <ele>76.6</ele>
        <time>2016-04-18T10:08:22Z</time>
      </trkpt>
      <trkpt lat="39.731939" lon="3.05854">
        <ele>76.6</ele>
        <time>2016-04-18T10:08:23Z</time>
      </trkpt>
      <trkpt lat="39.731876" lon="3.058578">
        <ele>76.6</ele>
        <time>2016-04-18T10:08:24Z</time>
      </trkpt>
      <trkpt lat="39.731674" lon="3.058664">
        <ele>76</ele>
        <time>2016-04-18T10:08:27Z</time>
      </trkpt>
      <trkpt lat="39.731608" lon="3.058687">
        <ele>75.6</ele>
        <time>2016-04-18T10:08:28Z</time>
      </trkpt>
      <trkpt lat="39.731546" lon="3.05871">
        <ele>75.2</ele>
        <time>2016-04-18T10:08:29Z</time>
      </trkpt>
      <trkpt lat="39.731484" lon="3.058729">
        <ele>74.8</ele>
        <time>2016-04-18T10:08:30Z</time>
      </trkpt>
      <trkpt lat="39.731418" lon="3.058751">
        <ele>74.2</ele>
        <time>2016-04-18T10:08:31Z</time>
      </trkpt>
      <trkpt lat="39.731066" lon="3.058866">
        <ele>74.2</ele>
        <time>2016-04-18T10:08:36Z</time>
      </trkpt>
      <trkpt lat="39.730693" lon="3.058967">
        <ele>74.2</ele>
        <time>2016-04-18T10:08:41Z</time>
      </trkpt>
      <trkpt lat="39.730544" lon="3.059002">
        <ele>74.2</ele>
        <time>2016-04-18T10:08:43Z</time>
      </trkpt>
      <trkpt lat="39.730241" lon="3.059053">
        <ele>74.2</ele>
        <time>2016-04-18T10:08:47Z</time>
      </trkpt>
      <trkpt lat="39.729928" lon="3.059139">
        <ele>74.2</ele>
        <time>2016-04-18T10:08:51Z</time>
      </trkpt>
      <trkpt lat="39.72955" lon="3.059324">
        <ele>74.2</ele>
        <time>2016-04-18T10:08:56Z</time>
      </trkpt>
      <trkpt lat="39.72948" lon="3.059355">
        <ele>74.2</ele>
        <time>2016-04-18T10:08:57Z</time>
      </trkpt>
      <trkpt lat="39.728921" lon="3.059632">
        <ele>74.2</ele>
        <time>2016-04-18T10:09:05Z</time>
      </trkpt>
      <trkpt lat="39.72871" lon="3.059754">
        <ele>74.8</ele>
        <time>2016-04-18T10:09:08Z</time>
      </trkpt>
      <trkpt lat="39.728639" lon="3.059793">
        <ele>75.2</ele>
        <time>2016-04-18T10:09:09Z</time>
      </trkpt>
      <trkpt lat="39.728569" lon="3.059827">
        <ele>75.6</ele>
        <time>2016-04-18T10:09:10Z</time>
      </trkpt>
      <trkpt lat="39.728503" lon="3.059857">
        <ele>76</ele>
        <time>2016-04-18T10:09:11Z</time>
      </trkpt>
      <trkpt lat="39.728432" lon="3.059887">
        <ele>76.4</ele>
        <time>2016-04-18T10:09:12Z</time>
      </trkpt>
      <trkpt lat="39.727907" lon="3.06012">
        <ele>76.4</ele>
        <time>2016-04-18T10:09:20Z</time>
      </trkpt>
      <trkpt lat="39.727655" lon="3.06025">
        <ele>77</ele>
        <time>2016-04-18T10:09:24Z</time>
      </trkpt>
      <trkpt lat="39.727594" lon="3.060288">
        <ele>77.4</ele>
        <time>2016-04-18T10:09:25Z</time>
      </trkpt>
      <trkpt lat="39.727527" lon="3.060318">
        <ele>77.8</ele>
        <time>2016-04-18T10:09:26Z</time>
      </trkpt>
      <trkpt lat="39.727469" lon="3.060345">
        <ele>78.6</ele>
        <time>2016-04-18T10:09:27Z</time>
      </trkpt>
      <trkpt lat="39.727226" lon="3.060469">
        <ele>78.6</ele>
        <time>2016-04-18T10:09:31Z</time>
      </trkpt>
      <trkpt lat="39.727166" lon="3.060502">
        <ele>79</ele>
        <time>2016-04-18T10:09:32Z</time>
      </trkpt>
      <trkpt lat="39.727106" lon="3.060531">
        <ele>79.4</ele>
        <time>2016-04-18T10:09:33Z</time>
      </trkpt>
      <trkpt lat="39.72704" lon="3.060564">
        <ele>79.8</ele>
        <time>2016-04-18T10:09:34Z</time>
      </trkpt>
      <trkpt lat="39.726977" lon="3.060596">
        <ele>80.4</ele>
        <time>2016-04-18T10:09:35Z</time>
      </trkpt>
      <trkpt lat="39.726915" lon="3.060628">
        <ele>80.8</ele>
        <time>2016-04-18T10:09:36Z</time>
      </trkpt>
      <trkpt lat="39.72648" lon="3.060844">
        <ele>80.8</ele>
        <time>2016-04-18T10:09:43Z</time>
      </trkpt>
      <trkpt lat="39.726223" lon="3.060974">
        <ele>81.2</ele>
        <time>2016-04-18T10:09:47Z</time>
      </trkpt>
      <trkpt lat="39.726152" lon="3.061012">
        <ele>81.6</ele>
        <time>2016-04-18T10:09:48Z</time>
      </trkpt>
      <trkpt lat="39.726087" lon="3.061048">
        <ele>82</ele>
        <time>2016-04-18T10:09:49Z</time>
      </trkpt>
      <trkpt lat="39.72602" lon="3.06108">
        <ele>82.4</ele>
        <time>2016-04-18T10:09:50Z</time>
      </trkpt>
      <trkpt lat="39.725956" lon="3.061114">
        <ele>82.8</ele>
        <time>2016-04-18T10:09:51Z</time>
      </trkpt>
      <trkpt lat="39.725888" lon="3.061145">
        <ele>82.8</ele>
        <time>2016-04-18T10:09:52Z</time>
      </trkpt>
      <trkpt lat="39.725475" lon="3.061351">
        <ele>82.8</ele>
        <time>2016-04-18T10:09:58Z</time>
      </trkpt>
      <trkpt lat="39.725408" lon="3.061386">
        <ele>82.8</ele>
        <time>2016-04-18T10:09:59Z</time>
      </trkpt>
      <trkpt lat="39.724985" lon="3.06164">
        <ele>82.8</ele>
        <time>2016-04-18T10:10:05Z</time>
      </trkpt>
      <trkpt lat="39.72481" lon="3.061839">
        <ele>82.8</ele>
        <time>2016-04-18T10:10:08Z</time>
      </trkpt>
      <trkpt lat="39.724758" lon="3.061919">
        <ele>82.8</ele>
        <time>2016-04-18T10:10:09Z</time>
      </trkpt>
      <trkpt lat="39.724536" lon="3.062361">
        <ele>82.8</ele>
        <time>2016-04-18T10:10:14Z</time>
      </trkpt>
      <trkpt lat="39.724459" lon="3.062538">
        <ele>82.8</ele>
        <time>2016-04-18T10:10:16Z</time>
      </trkpt>
      <trkpt lat="39.724292" lon="3.062905">
        <ele>82.8</ele>
        <time>2016-04-18T10:10:20Z</time>
      </trkpt>
      <trkpt lat="39.724246" lon="3.062992">
        <ele>82.8</ele>
        <time>2016-04-18T10:10:21Z</time>
      </trkpt>
      <trkpt lat="39.724085" lon="3.063234">
        <ele>82.4</ele>
        <time>2016-04-18T10:10:24Z</time>
      </trkpt>
      <trkpt lat="39.724025" lon="3.063312">
        <ele>82</ele>
        <time>2016-04-18T10:10:25Z</time>
      </trkpt>
      <trkpt lat="39.723967" lon="3.063386">
        <ele>81.6</ele>
        <time>2016-04-18T10:10:26Z</time>
      </trkpt>
      <trkpt lat="39.723901" lon="3.063461">
        <ele>81.2</ele>
        <time>2016-04-18T10:10:27Z</time>
      </trkpt>
      <trkpt lat="39.723837" lon="3.063526">
        <ele>80.6</ele>
        <time>2016-04-18T10:10:28Z</time>
      </trkpt>
      <trkpt lat="39.723707" lon="3.063644">
        <ele>80.6</ele>
        <time>2016-04-18T10:10:30Z</time>
      </trkpt>
      <trkpt lat="39.723635" lon="3.063701">
        <ele>80.6</ele>
        <time>2016-04-18T10:10:31Z</time>
      </trkpt>
      <trkpt lat="39.723133" lon="3.064056">
        <ele>80.6</ele>
        <time>2016-04-18T10:10:38Z</time>
      </trkpt>
      <trkpt lat="39.722626" lon="3.064411">
        <ele>80.6</ele>
        <time>2016-04-18T10:10:45Z</time>
      </trkpt>
      <trkpt lat="39.722478" lon="3.064514">
        <ele>80.6</ele>
        <time>2016-04-18T10:10:47Z</time>
      </trkpt>
      <trkpt lat="39.722338" lon="3.064617">
        <ele>80.6</ele>
        <time>2016-04-18T10:10:49Z</time>
      </trkpt>
      <trkpt lat="39.722121" lon="3.064774">
        <ele>80.6</ele>
        <time>2016-04-18T10:10:52Z</time>
      </trkpt>
      <trkpt lat="39.721976" lon="3.064878">
        <ele>80.6</ele>
        <time>2016-04-18T10:10:54Z</time>
      </trkpt>
      <trkpt lat="39.721538" lon="3.065194">
        <ele>80.2</ele>
        <time>2016-04-18T10:11:00Z</time>
      </trkpt>
      <trkpt lat="39.721464" lon="3.065246">
        <ele>79.8</ele>
        <time>2016-04-18T10:11:01Z</time>
      </trkpt>
      <trkpt lat="39.721391" lon="3.065297">
        <ele>79.2</ele>
        <time>2016-04-18T10:11:02Z</time>
      </trkpt>
      <trkpt lat="39.721319" lon="3.06535">
        <ele>78.8</ele>
        <time>2016-04-18T10:11:03Z</time>
      </trkpt>
      <trkpt lat="39.721244" lon="3.065401">
        <ele>78.2</ele>
        <time>2016-04-18T10:11:04Z</time>
      </trkpt>
      <trkpt lat="39.720868" lon="3.065665">
        <ele>78.2</ele>
        <time>2016-04-18T10:11:09Z</time>
      </trkpt>
      <trkpt lat="39.720352" lon="3.066038">
        <ele>78.2</ele>
        <time>2016-04-18T10:11:16Z</time>
      </trkpt>
      <trkpt lat="39.720208" lon="3.066141">
        <ele>78.2</ele>
        <time>2016-04-18T10:11:18Z</time>
      </trkpt>
      <trkpt lat="39.719707" lon="3.066498">
        <ele>78.2</ele>
        <time>2016-04-18T10:11:25Z</time>
      </trkpt>
      <trkpt lat="39.719635" lon="3.066547">
        <ele>78.2</ele>
        <time>2016-04-18T10:11:26Z</time>
      </trkpt>
      <trkpt lat="39.719154" lon="3.066884">
        <ele>78.2</ele>
        <time>2016-04-18T10:11:33Z</time>
      </trkpt>
      <trkpt lat="39.718879" lon="3.067079">
        <ele>78.2</ele>
        <time>2016-04-18T10:11:37Z</time>
      </trkpt>
      <trkpt lat="39.718617" lon="3.067311">
        <ele>78.2</ele>
        <time>2016-04-18T10:11:41Z</time>
      </trkpt>
      <trkpt lat="39.718487" lon="3.06746">
        <ele>77.8</ele>
        <time>2016-04-18T10:11:43Z</time>
      </trkpt>
      <trkpt lat="39.718417" lon="3.06753">
        <ele>77.4</ele>
        <time>2016-04-18T10:11:44Z</time>
      </trkpt>
      <trkpt lat="39.718342" lon="3.067603">
        <ele>77</ele>
        <time>2016-04-18T10:11:45Z</time>
      </trkpt>
      <trkpt lat="39.718263" lon="3.067679">
        <ele>76.6</ele>
        <time>2016-04-18T10:11:46Z</time>
      </trkpt>
      <trkpt lat="39.718183" lon="3.067758">
        <ele>76.2</ele>
        <time>2016-04-18T10:11:47Z</time>
      </trkpt>
      <trkpt lat="39.718103" lon="3.067838">
        <ele>75.6</ele>
        <time>2016-04-18T10:11:48Z</time>
      </trkpt>
      <trkpt lat="39.718024" lon="3.067919">
        <ele>75</ele>
        <time>2016-04-18T10:11:49Z</time>
      </trkpt>
      <trkpt lat="39.717939" lon="3.068005">
        <ele>74.6</ele>
        <time>2016-04-18T10:11:50Z</time>
      </trkpt>
      <trkpt lat="39.717857" lon="3.068092">
        <ele>74</ele>
        <time>2016-04-18T10:11:51Z</time>
      </trkpt>
      <trkpt lat="39.717775" lon="3.06818">
        <ele>73.4</ele>
        <time>2016-04-18T10:11:52Z</time>
      </trkpt>
      <trkpt lat="39.717692" lon="3.068271">
        <ele>72.6</ele>
        <time>2016-04-18T10:11:53Z</time>
      </trkpt>
      <trkpt lat="39.717609" lon="3.06836">
        <ele>71.8</ele>
        <time>2016-04-18T10:11:54Z</time>
      </trkpt>
      <trkpt lat="39.717521" lon="3.068447">
        <ele>71</ele>
        <time>2016-04-18T10:11:55Z</time>
      </trkpt>
      <trkpt lat="39.717432" lon="3.068529">
        <ele>69.4</ele>
        <time>2016-04-18T10:11:56Z</time>
      </trkpt>
      <trkpt lat="39.717159" lon="3.068773">
        <ele>69</ele>
        <time>2016-04-18T10:11:59Z</time>
      </trkpt>
      <trkpt lat="39.717072" lon="3.068853">
        <ele>68.4</ele>
        <time>2016-04-18T10:12:00Z</time>
      </trkpt>
      <trkpt lat="39.716985" lon="3.068932">
        <ele>68</ele>
        <time>2016-04-18T10:12:01Z</time>
      </trkpt>
      <trkpt lat="39.7169" lon="3.06901">
        <ele>67.6</ele>
        <time>2016-04-18T10:12:02Z</time>
      </trkpt>
      <trkpt lat="39.716812" lon="3.069084">
        <ele>67.2</ele>
        <time>2016-04-18T10:12:03Z</time>
      </trkpt>
      <trkpt lat="39.716527" lon="3.069284">
        <ele>67.2</ele>
        <time>2016-04-18T10:12:06Z</time>
      </trkpt>
      <trkpt lat="39.716437" lon="3.069346">
        <ele>67.2</ele>
        <time>2016-04-18T10:12:07Z</time>
      </trkpt>
      <trkpt lat="39.716348" lon="3.069407">
        <ele>67.2</ele>
        <time>2016-04-18T10:12:08Z</time>
      </trkpt>
      <trkpt lat="39.716021" lon="3.069665">
        <ele>67.2</ele>
        <time>2016-04-18T10:12:12Z</time>
      </trkpt>
      <trkpt lat="39.715817" lon="3.06987">
        <ele>67.2</ele>
        <time>2016-04-18T10:12:15Z</time>
      </trkpt>
      <trkpt lat="39.715763" lon="3.069959">
        <ele>67.2</ele>
        <time>2016-04-18T10:12:16Z</time>
      </trkpt>
      <trkpt lat="39.715701" lon="3.070157">
        <ele>67.2</ele>
        <time>2016-04-18T10:12:18Z</time>
      </trkpt>
      <trkpt lat="39.715672" lon="3.070256">
        <ele>67.2</ele>
        <time>2016-04-18T10:12:19Z</time>
      </trkpt>
      <trkpt lat="39.715574" lon="3.070568">
        <ele>67.2</ele>
        <time>2016-04-18T10:12:22Z</time>
      </trkpt>
      <trkpt lat="39.715407" lon="3.071092">
        <ele>67.2</ele>
        <time>2016-04-18T10:12:27Z</time>
      </trkpt>
      <trkpt lat="39.715247" lon="3.071736">
        <ele>67.2</ele>
        <time>2016-04-18T10:12:33Z</time>
      </trkpt>
      <trkpt lat="39.715063" lon="3.072243">
        <ele>67.2</ele>
        <time>2016-04-18T10:12:38Z</time>
      </trkpt>
      <trkpt lat="39.714864" lon="3.072823">
        <ele>67.2</ele>
        <time>2016-04-18T10:12:44Z</time>
      </trkpt>
      <trkpt lat="39.714751" lon="3.073087">
        <ele>67.2</ele>
        <time>2016-04-18T10:12:47Z</time>
      </trkpt>
      <trkpt lat="39.714631" lon="3.073333">
        <ele>67.2</ele>
        <time>2016-04-18T10:12:50Z</time>
      </trkpt>
      <trkpt lat="39.714582" lon="3.073403">
        <ele>67.2</ele>
        <time>2016-04-18T10:12:51Z</time>
      </trkpt>
      <trkpt lat="39.714358" lon="3.07365">
        <ele>67.2</ele>
        <time>2016-04-18T10:12:55Z</time>
      </trkpt>
      <trkpt lat="39.714298" lon="3.073702">
        <ele>67.2</ele>
        <time>2016-04-18T10:12:56Z</time>
      </trkpt>
      <trkpt lat="39.714087" lon="3.073823">
        <ele>67.2</ele>
        <time>2016-04-18T10:12:59Z</time>
      </trkpt>
      <trkpt lat="39.713938" lon="3.073869">
        <ele>67.2</ele>
        <time>2016-04-18T10:13:01Z</time>
      </trkpt>
      <trkpt lat="39.713637" lon="3.073986">
        <ele>67.2</ele>
        <time>2016-04-18T10:13:05Z</time>
      </trkpt>
      <trkpt lat="39.713144" lon="3.074296">
        <ele>67.2</ele>
        <time>2016-04-18T10:13:12Z</time>
      </trkpt>
      <trkpt lat="39.71296" lon="3.074483">
        <ele>67.6</ele>
        <time>2016-04-18T10:13:15Z</time>
      </trkpt>
      <trkpt lat="39.712903" lon="3.07455">
        <ele>68</ele>
        <time>2016-04-18T10:13:16Z</time>
      </trkpt>
      <trkpt lat="39.712845" lon="3.074616">
        <ele>68.4</ele>
        <time>2016-04-18T10:13:17Z</time>
      </trkpt>
      <trkpt lat="39.712789" lon="3.07468">
        <ele>68.8</ele>
        <time>2016-04-18T10:13:18Z</time>
      </trkpt>
      <trkpt lat="39.712729" lon="3.074742">
        <ele>69.2</ele>
        <time>2016-04-18T10:13:19Z</time>
      </trkpt>
      <trkpt lat="39.712601" lon="3.074847">
        <ele>69.2</ele>
        <time>2016-04-18T10:13:21Z</time>
      </trkpt>
      <trkpt lat="39.712474" lon="3.074926">
        <ele>69.2</ele>
        <time>2016-04-18T10:13:23Z</time>
      </trkpt>
      <trkpt lat="39.712299" lon="3.075044">
        <ele>69.6</ele>
        <time>2016-04-18T10:13:26Z</time>
      </trkpt>
      <trkpt lat="39.712243" lon="3.075083">
        <ele>70.2</ele>
        <time>2016-04-18T10:13:27Z</time>
      </trkpt>
      <trkpt lat="39.712185" lon="3.075121">
        <ele>70.6</ele>
        <time>2016-04-18T10:13:28Z</time>
      </trkpt>
      <trkpt lat="39.712125" lon="3.07516">
        <ele>71</ele>
        <time>2016-04-18T10:13:29Z</time>
      </trkpt>
      <trkpt lat="39.712067" lon="3.075196">
        <ele>71.4</ele>
        <time>2016-04-18T10:13:30Z</time>
      </trkpt>
      <trkpt lat="39.711895" lon="3.075282">
        <ele>71.8</ele>
        <time>2016-04-18T10:13:33Z</time>
      </trkpt>
      <trkpt lat="39.711843" lon="3.075305">
        <ele>72.6</ele>
        <time>2016-04-18T10:13:34Z</time>
      </trkpt>
      <trkpt lat="39.71179" lon="3.075324">
        <ele>73</ele>
        <time>2016-04-18T10:13:35Z</time>
      </trkpt>
      <trkpt lat="39.711734" lon="3.075346">
        <ele>73.4</ele>
        <time>2016-04-18T10:13:36Z</time>
      </trkpt>
      <trkpt lat="39.711579" lon="3.075406">
        <ele>73.8</ele>
        <time>2016-04-18T10:13:39Z</time>
      </trkpt>
      <trkpt lat="39.711526" lon="3.075426">
        <ele>74.2</ele>
        <time>2016-04-18T10:13:40Z</time>
      </trkpt>
      <trkpt lat="39.711473" lon="3.075449">
        <ele>74.6</ele>
        <time>2016-04-18T10:13:41Z</time>
      </trkpt>
      <trkpt lat="39.711422" lon="3.075473">
        <ele>75</ele>
        <time>2016-04-18T10:13:42Z</time>
      </trkpt>
      <trkpt lat="39.711369" lon="3.075498">
        <ele>75.4</ele>
        <time>2016-04-18T10:13:43Z</time>
      </trkpt>
      <trkpt lat="39.711266" lon="3.075558">
        <ele>75.4</ele>
        <time>2016-04-18T10:13:45Z</time>
      </trkpt>
      <trkpt lat="39.711072" lon="3.075691">
        <ele>76</ele>
        <time>2016-04-18T10:13:49Z</time>
      </trkpt>
      <trkpt lat="39.711023" lon="3.075727">
        <ele>76.6</ele>
        <time>2016-04-18T10:13:50Z</time>
      </trkpt>
      <trkpt lat="39.71097" lon="3.075764">
        <ele>77</ele>
        <time>2016-04-18T10:13:51Z</time>
      </trkpt>
      <trkpt lat="39.710921" lon="3.075796">
        <ele>77.6</ele>
        <time>2016-04-18T10:13:52Z</time>
      </trkpt>
      <trkpt lat="39.710871" lon="3.075833">
        <ele>78</ele>
        <time>2016-04-18T10:13:53Z</time>
      </trkpt>
      <trkpt lat="39.710404" lon="3.076143">
        <ele>78</ele>
        <time>2016-04-18T10:14:02Z</time>
      </trkpt>
      <trkpt lat="39.71005" lon="3.076361">
        <ele>78</ele>
        <time>2016-04-18T10:14:09Z</time>
      </trkpt>
      <trkpt lat="39.709999" lon="3.07639">
        <ele>78</ele>
        <time>2016-04-18T10:14:10Z</time>
      </trkpt>
      <trkpt lat="39.709712" lon="3.076541">
        <ele>78</ele>
        <time>2016-04-18T10:14:15Z</time>
      </trkpt>
      <trkpt lat="39.709639" lon="3.076579">
        <ele>78</ele>
        <time>2016-04-18T10:14:16Z</time>
      </trkpt>
      <trkpt lat="39.709311" lon="3.076734">
        <ele>77.6</ele>
        <time>2016-04-18T10:14:20Z</time>
      </trkpt>
      <trkpt lat="39.709223" lon="3.076774">
        <ele>77</ele>
        <time>2016-04-18T10:14:21Z</time>
      </trkpt>
      <trkpt lat="39.709134" lon="3.076815">
        <ele>76.6</ele>
        <time>2016-04-18T10:14:22Z</time>
      </trkpt>
      <trkpt lat="39.709044" lon="3.076859">
        <ele>76.2</ele>
        <time>2016-04-18T10:14:23Z</time>
      </trkpt>
      <trkpt lat="39.708956" lon="3.076913">
        <ele>75</ele>
        <time>2016-04-18T10:14:24Z</time>
      </trkpt>
      <trkpt lat="39.708868" lon="3.076974">
        <ele>74.4</ele>
        <time>2016-04-18T10:14:25Z</time>
      </trkpt>
      <trkpt lat="39.708775" lon="3.077038">
        <ele>73.6</ele>
        <time>2016-04-18T10:14:26Z</time>
      </trkpt>
      <trkpt lat="39.708678" lon="3.077106">
        <ele>73</ele>
        <time>2016-04-18T10:14:27Z</time>
      </trkpt>
      <trkpt lat="39.708577" lon="3.077177">
        <ele>72.2</ele>
        <time>2016-04-18T10:14:28Z</time>
      </trkpt>
      <trkpt lat="39.708482" lon="3.077247">
        <ele>71.6</ele>
        <time>2016-04-18T10:14:29Z</time>
      </trkpt>
      <trkpt lat="39.708385" lon="3.077314">
        <ele>70.8</ele>
        <time>2016-04-18T10:14:30Z</time>
      </trkpt>
      <trkpt lat="39.708286" lon="3.077379">
        <ele>70.4</ele>
        <time>2016-04-18T10:14:31Z</time>
      </trkpt>
      <trkpt lat="39.708188" lon="3.077446">
        <ele>70</ele>
        <time>2016-04-18T10:14:32Z</time>
      </trkpt>
      <trkpt lat="39.708088" lon="3.077504">
        <ele>69.6</ele>
        <time>2016-04-18T10:14:33Z</time>
      </trkpt>
      <trkpt lat="39.707987" lon="3.077564">
        <ele>69.2</ele>
        <time>2016-04-18T10:14:34Z</time>
      </trkpt>
      <trkpt lat="39.707887" lon="3.07762">
        <ele>68.6</ele>
        <time>2016-04-18T10:14:35Z</time>
      </trkpt>
      <trkpt lat="39.707781" lon="3.077677">
        <ele>68.2</ele>
        <time>2016-04-18T10:14:36Z</time>
      </trkpt>
      <trkpt lat="39.707681" lon="3.077733">
        <ele>67.6</ele>
        <time>2016-04-18T10:14:37Z</time>
      </trkpt>
      <trkpt lat="39.707584" lon="3.077792">
        <ele>67</ele>
        <time>2016-04-18T10:14:38Z</time>
      </trkpt>
      <trkpt lat="39.70749" lon="3.077857">
        <ele>66.6</ele>
        <time>2016-04-18T10:14:39Z</time>
      </trkpt>
      <trkpt lat="39.707398" lon="3.077919">
        <ele>66</ele>
        <time>2016-04-18T10:14:40Z</time>
      </trkpt>
      <trkpt lat="39.70731" lon="3.077983">
        <ele>66</ele>
        <time>2016-04-18T10:14:41Z</time>
      </trkpt>
      <trkpt lat="39.707222" lon="3.078046">
        <ele>66</ele>
        <time>2016-04-18T10:14:42Z</time>
      </trkpt>
      <trkpt lat="39.707044" lon="3.07817">
        <ele>66</ele>
        <time>2016-04-18T10:14:44Z</time>
      </trkpt>
      <trkpt lat="39.706799" lon="3.078336">
        <ele>66</ele>
        <time>2016-04-18T10:14:47Z</time>
      </trkpt>
      <trkpt lat="39.70672" lon="3.078392">
        <ele>66</ele>
        <time>2016-04-18T10:14:48Z</time>
      </trkpt>
      <trkpt lat="39.706487" lon="3.078587">
        <ele>66</ele>
        <time>2016-04-18T10:14:51Z</time>
      </trkpt>
      <trkpt lat="39.706325" lon="3.078703">
        <ele>66</ele>
        <time>2016-04-18T10:14:53Z</time>
      </trkpt>
      <trkpt lat="39.706072" lon="3.078864">
        <ele>65.6</ele>
        <time>2016-04-18T10:14:56Z</time>
      </trkpt>
      <trkpt lat="39.705986" lon="3.07892">
        <ele>65</ele>
        <time>2016-04-18T10:14:57Z</time>
      </trkpt>
      <trkpt lat="39.7059" lon="3.078997">
        <ele>64.6</ele>
        <time>2016-04-18T10:14:58Z</time>
      </trkpt>
      <trkpt lat="39.705819" lon="3.079073">
        <ele>64</ele>
        <time>2016-04-18T10:14:59Z</time>
      </trkpt>
      <trkpt lat="39.705738" lon="3.07915">
        <ele>63.4</ele>
        <time>2016-04-18T10:15:00Z</time>
      </trkpt>
      <trkpt lat="39.705659" lon="3.079229">
        <ele>62.8</ele>
        <time>2016-04-18T10:15:01Z</time>
      </trkpt>
      <trkpt lat="39.705578" lon="3.079307">
        <ele>62</ele>
        <time>2016-04-18T10:15:02Z</time>
      </trkpt>
      <trkpt lat="39.705496" lon="3.079381">
        <ele>61.2</ele>
        <time>2016-04-18T10:15:03Z</time>
      </trkpt>
      <trkpt lat="39.705411" lon="3.079456">
        <ele>60.4</ele>
        <time>2016-04-18T10:15:04Z</time>
      </trkpt>
      <trkpt lat="39.705331" lon="3.079535">
        <ele>59.8</ele>
        <time>2016-04-18T10:15:05Z</time>
      </trkpt>
      <trkpt lat="39.705254" lon="3.079607">
        <ele>59</ele>
        <time>2016-04-18T10:15:06Z</time>
      </trkpt>
      <trkpt lat="39.705178" lon="3.079685">
        <ele>59</ele>
        <time>2016-04-18T10:15:07Z</time>
      </trkpt>
      <trkpt lat="39.704893" lon="3.079981">
        <ele>59</ele>
        <time>2016-04-18T10:15:11Z</time>
      </trkpt>
      <trkpt lat="39.704828" lon="3.080055">
        <ele>59</ele>
        <time>2016-04-18T10:15:12Z</time>
      </trkpt>
      <trkpt lat="39.704691" lon="3.080215">
        <ele>59</ele>
        <time>2016-04-18T10:15:14Z</time>
      </trkpt>
      <trkpt lat="39.70456" lon="3.080391">
        <ele>58.6</ele>
        <time>2016-04-18T10:15:16Z</time>
      </trkpt>
      <trkpt lat="39.704489" lon="3.080477">
        <ele>58.2</ele>
        <time>2016-04-18T10:15:17Z</time>
      </trkpt>
      <trkpt lat="39.704416" lon="3.080557">
        <ele>57.8</ele>
        <time>2016-04-18T10:15:18Z</time>
      </trkpt>
      <trkpt lat="39.704346" lon="3.080641">
        <ele>56.8</ele>
        <time>2016-04-18T10:15:19Z</time>
      </trkpt>
      <trkpt lat="39.704276" lon="3.080725">
        <ele>55.8</ele>
        <time>2016-04-18T10:15:20Z</time>
      </trkpt>
      <trkpt lat="39.704204" lon="3.080807">
        <ele>54.8</ele>
        <time>2016-04-18T10:15:21Z</time>
      </trkpt>
      <trkpt lat="39.704138" lon="3.08089">
        <ele>53.8</ele>
        <time>2016-04-18T10:15:22Z</time>
      </trkpt>
      <trkpt lat="39.704072" lon="3.080967">
        <ele>52.8</ele>
        <time>2016-04-18T10:15:23Z</time>
      </trkpt>
      <trkpt lat="39.703937" lon="3.08112">
        <ele>53.2</ele>
        <time>2016-04-18T10:15:25Z</time>
      </trkpt>
      <trkpt lat="39.703866" lon="3.081192">
        <ele>53.6</ele>
        <time>2016-04-18T10:15:26Z</time>
      </trkpt>
      <trkpt lat="39.703794" lon="3.081263">
        <ele>54</ele>
        <time>2016-04-18T10:15:27Z</time>
      </trkpt>
      <trkpt lat="39.703718" lon="3.08134">
        <ele>54.4</ele>
        <time>2016-04-18T10:15:28Z</time>
      </trkpt>
      <trkpt lat="39.703645" lon="3.08141">
        <ele>54.8</ele>
        <time>2016-04-18T10:15:29Z</time>
      </trkpt>
      <trkpt lat="39.703497" lon="3.081549">
        <ele>54.8</ele>
        <time>2016-04-18T10:15:31Z</time>
      </trkpt>
      <trkpt lat="39.703352" lon="3.081682">
        <ele>54.8</ele>
        <time>2016-04-18T10:15:33Z</time>
      </trkpt>
      <trkpt lat="39.703003" lon="3.081973">
        <ele>54.8</ele>
        <time>2016-04-18T10:15:38Z</time>
      </trkpt>
      <trkpt lat="39.702832" lon="3.082133">
        <ele>54.8</ele>
        <time>2016-04-18T10:15:41Z</time>
      </trkpt>
      <trkpt lat="39.702795" lon="3.082183">
        <ele>54.8</ele>
        <time>2016-04-18T10:15:42Z</time>
      </trkpt>
      <trkpt lat="39.702593" lon="3.082349">
        <ele>54.8</ele>
        <time>2016-04-18T10:15:46Z</time>
      </trkpt>
      <trkpt lat="39.702437" lon="3.082491">
        <ele>54.8</ele>
        <time>2016-04-18T10:15:49Z</time>
      </trkpt>
      <trkpt lat="39.702321" lon="3.082599">
        <ele>54.8</ele>
        <time>2016-04-18T10:15:51Z</time>
      </trkpt>
      <trkpt lat="39.702022" lon="3.082888">
        <ele>54.8</ele>
        <time>2016-04-18T10:15:56Z</time>
      </trkpt>
      <trkpt lat="39.701898" lon="3.083008">
        <ele>54.8</ele>
        <time>2016-04-18T10:15:58Z</time>
      </trkpt>
      <trkpt lat="39.701593" lon="3.083321">
        <ele>54.8</ele>
        <time>2016-04-18T10:16:03Z</time>
      </trkpt>
      <trkpt lat="39.701399" lon="3.083525">
        <ele>54.8</ele>
        <time>2016-04-18T10:16:06Z</time>
      </trkpt>
      <trkpt lat="39.701337" lon="3.083589">
        <ele>54.8</ele>
        <time>2016-04-18T10:16:07Z</time>
      </trkpt>
      <trkpt lat="39.701015" lon="3.083895">
        <ele>54.8</ele>
        <time>2016-04-18T10:16:12Z</time>
      </trkpt>
      <trkpt lat="39.70088" lon="3.084018">
        <ele>54.8</ele>
        <time>2016-04-18T10:16:14Z</time>
      </trkpt>
      <trkpt lat="39.700543" lon="3.084311">
        <ele>54.8</ele>
        <time>2016-04-18T10:16:19Z</time>
      </trkpt>
      <trkpt lat="39.700193" lon="3.084586">
        <ele>54.8</ele>
        <time>2016-04-18T10:16:24Z</time>
      </trkpt>
      <trkpt lat="39.699719" lon="3.084983">
        <ele>54.8</ele>
        <time>2016-04-18T10:16:31Z</time>
      </trkpt>
      <trkpt lat="39.69935" lon="3.085349">
        <ele>54.8</ele>
        <time>2016-04-18T10:16:37Z</time>
      </trkpt>
      <trkpt lat="39.699281" lon="3.08539">
        <ele>54.8</ele>
        <time>2016-04-18T10:16:38Z</time>
      </trkpt>
      <trkpt lat="39.698862" lon="3.085611">
        <ele>54.8</ele>
        <time>2016-04-18T10:16:44Z</time>
      </trkpt>
      <trkpt lat="39.698797" lon="3.085652">
        <ele>54.8</ele>
        <time>2016-04-18T10:16:45Z</time>
      </trkpt>
      <trkpt lat="39.698557" lon="3.085756">
        <ele>55.2</ele>
        <time>2016-04-18T10:16:49Z</time>
      </trkpt>
      <trkpt lat="39.698503" lon="3.085776">
        <ele>55.8</ele>
        <time>2016-04-18T10:16:50Z</time>
      </trkpt>
      <trkpt lat="39.69845" lon="3.085795">
        <ele>56.2</ele>
        <time>2016-04-18T10:16:51Z</time>
      </trkpt>
      <trkpt lat="39.6984" lon="3.085816">
        <ele>56.6</ele>
        <time>2016-04-18T10:16:52Z</time>
      </trkpt>
      <trkpt lat="39.698355" lon="3.085835">
        <ele>57.6</ele>
        <time>2016-04-18T10:16:53Z</time>
      </trkpt>
      <trkpt lat="39.698312" lon="3.085845">
        <ele>58</ele>
        <time>2016-04-18T10:16:54Z</time>
      </trkpt>
      <trkpt lat="39.698273" lon="3.085862">
        <ele>58.6</ele>
        <time>2016-04-18T10:16:55Z</time>
      </trkpt>
      <trkpt lat="39.698237" lon="3.085875">
        <ele>59</ele>
        <time>2016-04-18T10:16:56Z</time>
      </trkpt>
      <trkpt lat="39.698203" lon="3.085886">
        <ele>59.4</ele>
        <time>2016-04-18T10:16:57Z</time>
      </trkpt>
      <trkpt lat="39.698092" lon="3.085922">
        <ele>60</ele>
        <time>2016-04-18T10:17:00Z</time>
      </trkpt>
      <trkpt lat="39.698054" lon="3.085936">
        <ele>60.4</ele>
        <time>2016-04-18T10:17:01Z</time>
      </trkpt>
      <trkpt lat="39.698016" lon="3.085948">
        <ele>60.8</ele>
        <time>2016-04-18T10:17:02Z</time>
      </trkpt>
      <trkpt lat="39.697981" lon="3.085963">
        <ele>61.2</ele>
        <time>2016-04-18T10:17:03Z</time>
      </trkpt>
      <trkpt lat="39.697944" lon="3.085977">
        <ele>61.8</ele>
        <time>2016-04-18T10:17:04Z</time>
      </trkpt>
      <trkpt lat="39.697783" lon="3.086054">
        <ele>61.8</ele>
        <time>2016-04-18T10:17:09Z</time>
      </trkpt>
      <trkpt lat="39.697754" lon="3.086079">
        <ele>62.2</ele>
        <time>2016-04-18T10:17:10Z</time>
      </trkpt>
      <trkpt lat="39.69772" lon="3.0861">
        <ele>62.6</ele>
        <time>2016-04-18T10:17:11Z</time>
      </trkpt>
      <trkpt lat="39.697689" lon="3.086133">
        <ele>63</ele>
        <time>2016-04-18T10:17:12Z</time>
      </trkpt>
      <trkpt lat="39.697659" lon="3.086165">
        <ele>63.4</ele>
        <time>2016-04-18T10:17:13Z</time>
      </trkpt>
      <trkpt lat="39.697626" lon="3.086196">
        <ele>63.8</ele>
        <time>2016-04-18T10:17:14Z</time>
      </trkpt>
      <trkpt lat="39.697567" lon="3.086255">
        <ele>63.8</ele>
        <time>2016-04-18T10:17:16Z</time>
      </trkpt>
      <trkpt lat="39.697509" lon="3.086315">
        <ele>64.2</ele>
        <time>2016-04-18T10:17:18Z</time>
      </trkpt>
      <trkpt lat="39.69748" lon="3.086345">
        <ele>64.6</ele>
        <time>2016-04-18T10:17:19Z</time>
      </trkpt>
      <trkpt lat="39.697453" lon="3.086374">
        <ele>65</ele>
        <time>2016-04-18T10:17:20Z</time>
      </trkpt>
      <trkpt lat="39.697426" lon="3.086406">
        <ele>65.6</ele>
        <time>2016-04-18T10:17:21Z</time>
      </trkpt>
      <trkpt lat="39.697402" lon="3.086441">
        <ele>66</ele>
        <time>2016-04-18T10:17:22Z</time>
      </trkpt>
      <trkpt lat="39.697348" lon="3.086514">
        <ele>66</ele>
        <time>2016-04-18T10:17:24Z</time>
      </trkpt>
      <trkpt lat="39.697191" lon="3.086804">
        <ele>66</ele>
        <time>2016-04-18T10:17:31Z</time>
      </trkpt>
      <trkpt lat="39.697112" lon="3.086981">
        <ele>66</ele>
        <time>2016-04-18T10:17:35Z</time>
      </trkpt>
      <trkpt lat="39.697072" lon="3.087074">
        <ele>66.4</ele>
        <time>2016-04-18T10:17:37Z</time>
      </trkpt>
      <trkpt lat="39.697049" lon="3.087118">
        <ele>66.8</ele>
        <time>2016-04-18T10:17:38Z</time>
      </trkpt>
      <trkpt lat="39.697026" lon="3.087156">
        <ele>67.2</ele>
        <time>2016-04-18T10:17:39Z</time>
      </trkpt>
      <trkpt lat="39.697003" lon="3.087193">
        <ele>67.6</ele>
        <time>2016-04-18T10:17:40Z</time>
      </trkpt>
      <trkpt lat="39.696982" lon="3.087234">
        <ele>68</ele>
        <time>2016-04-18T10:17:41Z</time>
      </trkpt>
      <trkpt lat="39.696868" lon="3.087378">
        <ele>68</ele>
        <time>2016-04-18T10:17:45Z</time>
      </trkpt>
      <trkpt lat="39.696836" lon="3.087411">
        <ele>68.4</ele>
        <time>2016-04-18T10:17:46Z</time>
      </trkpt>
      <trkpt lat="39.696804" lon="3.087442">
        <ele>68.8</ele>
        <time>2016-04-18T10:17:47Z</time>
      </trkpt>
      <trkpt lat="39.696769" lon="3.087469">
        <ele>69.2</ele>
        <time>2016-04-18T10:17:48Z</time>
      </trkpt>
      <trkpt lat="39.696741" lon="3.087502">
        <ele>69.8</ele>
        <time>2016-04-18T10:17:49Z</time>
      </trkpt>
      <trkpt lat="39.696708" lon="3.087527">
        <ele>70.2</ele>
        <time>2016-04-18T10:17:50Z</time>
      </trkpt>
      <trkpt lat="39.696671" lon="3.087558">
        <ele>70.2</ele>
        <time>2016-04-18T10:17:51Z</time>
      </trkpt>
      <trkpt lat="39.696395" lon="3.087822">
        <ele>70.2</ele>
        <time>2016-04-18T10:17:58Z</time>
      </trkpt>
      <trkpt lat="39.696169" lon="3.088094">
        <ele>70.2</ele>
        <time>2016-04-18T10:18:04Z</time>
      </trkpt>
      <trkpt lat="39.69603" lon="3.088412">
        <ele>70.6</ele>
        <time>2016-04-18T10:18:10Z</time>
      </trkpt>
      <trkpt lat="39.696003" lon="3.088456">
        <ele>71</ele>
        <time>2016-04-18T10:18:11Z</time>
      </trkpt>
      <trkpt lat="39.695972" lon="3.088494">
        <ele>71.4</ele>
        <time>2016-04-18T10:18:12Z</time>
      </trkpt>
      <trkpt lat="39.695938" lon="3.088532">
        <ele>71.8</ele>
        <time>2016-04-18T10:18:13Z</time>
      </trkpt>
      <trkpt lat="39.695901" lon="3.088563">
        <ele>72.2</ele>
        <time>2016-04-18T10:18:14Z</time>
      </trkpt>
      <trkpt lat="39.695861" lon="3.088587">
        <ele>72.2</ele>
        <time>2016-04-18T10:18:15Z</time>
      </trkpt>
      <trkpt lat="39.695824" lon="3.088611">
        <ele>72.2</ele>
        <time>2016-04-18T10:18:16Z</time>
      </trkpt>
      <trkpt lat="39.695785" lon="3.088629">
        <ele>72.6</ele>
        <time>2016-04-18T10:18:17Z</time>
      </trkpt>
      <trkpt lat="39.695744" lon="3.088645">
        <ele>73.2</ele>
        <time>2016-04-18T10:18:18Z</time>
      </trkpt>
      <trkpt lat="39.695705" lon="3.088663">
        <ele>73.6</ele>
        <time>2016-04-18T10:18:19Z</time>
      </trkpt>
      <trkpt lat="39.695663" lon="3.08868">
        <ele>74</ele>
        <time>2016-04-18T10:18:20Z</time>
      </trkpt>
      <trkpt lat="39.695623" lon="3.088704">
        <ele>74.6</ele>
        <time>2016-04-18T10:18:21Z</time>
      </trkpt>
      <trkpt lat="39.695581" lon="3.088731">
        <ele>74.6</ele>
        <time>2016-04-18T10:18:22Z</time>
      </trkpt>
      <trkpt lat="39.695497" lon="3.088795">
        <ele>74.6</ele>
        <time>2016-04-18T10:18:24Z</time>
      </trkpt>
      <trkpt lat="39.69538" lon="3.088929">
        <ele>74.6</ele>
        <time>2016-04-18T10:18:27Z</time>
      </trkpt>
      <trkpt lat="39.69523" lon="3.08912">
        <ele>75</ele>
        <time>2016-04-18T10:18:31Z</time>
      </trkpt>
      <trkpt lat="39.695193" lon="3.089171">
        <ele>75.4</ele>
        <time>2016-04-18T10:18:32Z</time>
      </trkpt>
      <trkpt lat="39.695154" lon="3.08922">
        <ele>75.8</ele>
        <time>2016-04-18T10:18:33Z</time>
      </trkpt>
      <trkpt lat="39.695119" lon="3.089271">
        <ele>76.2</ele>
        <time>2016-04-18T10:18:34Z</time>
      </trkpt>
      <trkpt lat="39.695077" lon="3.089309">
        <ele>76.6</ele>
        <time>2016-04-18T10:18:35Z</time>
      </trkpt>
      <trkpt lat="39.694887" lon="3.089565">
        <ele>76.6</ele>
        <time>2016-04-18T10:18:40Z</time>
      </trkpt>
      <trkpt lat="39.694587" lon="3.089902">
        <ele>76.6</ele>
        <time>2016-04-18T10:18:46Z</time>
      </trkpt>
      <trkpt lat="39.694427" lon="3.090083">
        <ele>76.6</ele>
        <time>2016-04-18T10:18:49Z</time>
      </trkpt>
      <trkpt lat="39.69428" lon="3.090246">
        <ele>76.6</ele>
        <time>2016-04-18T10:18:52Z</time>
      </trkpt>
      <trkpt lat="39.694237" lon="3.090305">
        <ele>76.6</ele>
        <time>2016-04-18T10:18:53Z</time>
      </trkpt>
      <trkpt lat="39.69405" lon="3.090548">
        <ele>76.6</ele>
        <time>2016-04-18T10:18:57Z</time>
      </trkpt>
      <trkpt lat="39.693798" lon="3.090876">
        <ele>76</ele>
        <time>2016-04-18T10:19:02Z</time>
      </trkpt>
      <trkpt lat="39.693749" lon="3.090942">
        <ele>75.6</ele>
        <time>2016-04-18T10:19:03Z</time>
      </trkpt>
      <trkpt lat="39.693702" lon="3.091005">
        <ele>75.2</ele>
        <time>2016-04-18T10:19:04Z</time>
      </trkpt>
      <trkpt lat="39.693653" lon="3.091071">
        <ele>74.8</ele>
        <time>2016-04-18T10:19:05Z</time>
      </trkpt>
      <trkpt lat="39.693607" lon="3.091135">
        <ele>74.4</ele>
        <time>2016-04-18T10:19:06Z</time>
      </trkpt>
      <trkpt lat="39.693411" lon="3.09139">
        <ele>74.4</ele>
        <time>2016-04-18T10:19:10Z</time>
      </trkpt>
      <trkpt lat="39.69337" lon="3.091456">
        <ele>74.4</ele>
        <time>2016-04-18T10:19:11Z</time>
      </trkpt>
      <trkpt lat="39.693333" lon="3.091534">
        <ele>74.4</ele>
        <time>2016-04-18T10:19:12Z</time>
      </trkpt>
      <trkpt lat="39.693251" lon="3.091761">
        <ele>74.4</ele>
        <time>2016-04-18T10:19:15Z</time>
      </trkpt>
      <trkpt lat="39.693224" lon="3.091834">
        <ele>74.4</ele>
        <time>2016-04-18T10:19:16Z</time>
      </trkpt>
      <trkpt lat="39.693195" lon="3.091912">
        <ele>74.8</ele>
        <time>2016-04-18T10:19:17Z</time>
      </trkpt>
      <trkpt lat="39.693167" lon="3.09199">
        <ele>75.2</ele>
        <time>2016-04-18T10:19:18Z</time>
      </trkpt>
      <trkpt lat="39.693133" lon="3.092074">
        <ele>76</ele>
        <time>2016-04-18T10:19:19Z</time>
      </trkpt>
      <trkpt lat="39.693096" lon="3.092155">
        <ele>76.4</ele>
        <time>2016-04-18T10:19:20Z</time>
      </trkpt>
      <trkpt lat="39.693051" lon="3.092225">
        <ele>76.4</ele>
        <time>2016-04-18T10:19:21Z</time>
      </trkpt>
      <trkpt lat="39.692993" lon="3.092281">
        <ele>76.4</ele>
        <time>2016-04-18T10:19:22Z</time>
      </trkpt>
      <trkpt lat="39.692764" lon="3.092448">
        <ele>76.4</ele>
        <time>2016-04-18T10:19:26Z</time>
      </trkpt>
      <trkpt lat="39.692513" lon="3.09264">
        <ele>76.4</ele>
        <time>2016-04-18T10:19:30Z</time>
      </trkpt>
      <trkpt lat="39.692453" lon="3.092713">
        <ele>76</ele>
        <time>2016-04-18T10:19:31Z</time>
      </trkpt>
      <trkpt lat="39.692398" lon="3.092804">
        <ele>75.4</ele>
        <time>2016-04-18T10:19:32Z</time>
      </trkpt>
      <trkpt lat="39.692345" lon="3.092898">
        <ele>75</ele>
        <time>2016-04-18T10:19:33Z</time>
      </trkpt>
      <trkpt lat="39.692288" lon="3.092986">
        <ele>74.2</ele>
        <time>2016-04-18T10:19:34Z</time>
      </trkpt>
      <trkpt lat="39.692231" lon="3.093075">
        <ele>73.6</ele>
        <time>2016-04-18T10:19:35Z</time>
      </trkpt>
      <trkpt lat="39.692177" lon="3.093163">
        <ele>72.8</ele>
        <time>2016-04-18T10:19:36Z</time>
      </trkpt>
      <trkpt lat="39.692119" lon="3.093254">
        <ele>72.2</ele>
        <time>2016-04-18T10:19:37Z</time>
      </trkpt>
      <trkpt lat="39.692065" lon="3.093338">
        <ele>71.4</ele>
        <time>2016-04-18T10:19:38Z</time>
      </trkpt>
      <trkpt lat="39.691804" lon="3.093725">
        <ele>71.4</ele>
        <time>2016-04-18T10:19:43Z</time>
      </trkpt>
      <trkpt lat="39.691744" lon="3.093787">
        <ele>71.4</ele>
        <time>2016-04-18T10:19:44Z</time>
      </trkpt>
      <trkpt lat="39.69153" lon="3.09404">
        <ele>71.8</ele>
        <time>2016-04-18T10:19:48Z</time>
      </trkpt>
      <trkpt lat="39.691475" lon="3.0941">
        <ele>72.4</ele>
        <time>2016-04-18T10:19:49Z</time>
      </trkpt>
      <trkpt lat="39.691424" lon="3.09416">
        <ele>72.8</ele>
        <time>2016-04-18T10:19:50Z</time>
      </trkpt>
      <trkpt lat="39.691373" lon="3.094219">
        <ele>73.2</ele>
        <time>2016-04-18T10:19:51Z</time>
      </trkpt>
      <trkpt lat="39.691327" lon="3.094279">
        <ele>73.6</ele>
        <time>2016-04-18T10:19:52Z</time>
      </trkpt>
      <trkpt lat="39.691279" lon="3.094339">
        <ele>74</ele>
        <time>2016-04-18T10:19:53Z</time>
      </trkpt>
      <trkpt lat="39.691227" lon="3.094393">
        <ele>74.4</ele>
        <time>2016-04-18T10:19:54Z</time>
      </trkpt>
      <trkpt lat="39.691175" lon="3.094439">
        <ele>74.8</ele>
        <time>2016-04-18T10:19:55Z</time>
      </trkpt>
      <trkpt lat="39.691121" lon="3.094478">
        <ele>75.4</ele>
        <time>2016-04-18T10:19:56Z</time>
      </trkpt>
      <trkpt lat="39.691067" lon="3.094518">
        <ele>75.8</ele>
        <time>2016-04-18T10:19:57Z</time>
      </trkpt>
      <trkpt lat="39.690791" lon="3.094719">
        <ele>75.8</ele>
        <time>2016-04-18T10:20:02Z</time>
      </trkpt>
      <trkpt lat="39.690679" lon="3.094801">
        <ele>75.8</ele>
        <time>2016-04-18T10:20:04Z</time>
      </trkpt>
      <trkpt lat="39.690294" lon="3.095061">
        <ele>75.8</ele>
        <time>2016-04-18T10:20:10Z</time>
      </trkpt>
      <trkpt lat="39.690107" lon="3.095156">
        <ele>75.8</ele>
        <time>2016-04-18T10:20:13Z</time>
      </trkpt>
      <trkpt lat="39.689992" lon="3.095251">
        <ele>75.8</ele>
        <time>2016-04-18T10:20:15Z</time>
      </trkpt>
      <trkpt lat="39.68958" lon="3.095604">
        <ele>75.8</ele>
        <time>2016-04-18T10:20:22Z</time>
      </trkpt>
      <trkpt lat="39.689287" lon="3.095861">
        <ele>75.8</ele>
        <time>2016-04-18T10:20:27Z</time>
      </trkpt>
      <trkpt lat="39.689179" lon="3.095967">
        <ele>75.8</ele>
        <time>2016-04-18T10:20:29Z</time>
      </trkpt>
      <trkpt lat="39.689133" lon="3.096023">
        <ele>75.8</ele>
        <time>2016-04-18T10:20:30Z</time>
      </trkpt>
      <trkpt lat="39.688987" lon="3.096232">
        <ele>75.8</ele>
        <time>2016-04-18T10:20:33Z</time>
      </trkpt>
      <trkpt lat="39.688937" lon="3.096306">
        <ele>75.8</ele>
        <time>2016-04-18T10:20:34Z</time>
      </trkpt>
      <trkpt lat="39.688682" lon="3.096694">
        <ele>75.8</ele>
        <time>2016-04-18T10:20:39Z</time>
      </trkpt>
      <trkpt lat="39.688593" lon="3.096829">
        <ele>75.8</ele>
        <time>2016-04-18T10:20:41Z</time>
      </trkpt>
      <trkpt lat="39.688419" lon="3.097067">
        <ele>75.8</ele>
        <time>2016-04-18T10:20:45Z</time>
      </trkpt>
      <trkpt lat="39.68833" lon="3.097177">
        <ele>75.8</ele>
        <time>2016-04-18T10:20:47Z</time>
      </trkpt>
      <trkpt lat="39.687948" lon="3.09764">
        <ele>75.8</ele>
        <time>2016-04-18T10:20:55Z</time>
      </trkpt>
      <trkpt lat="39.687678" lon="3.097972">
        <ele>75.2</ele>
        <time>2016-04-18T10:21:00Z</time>
      </trkpt>
      <trkpt lat="39.687626" lon="3.098042">
        <ele>74.8</ele>
        <time>2016-04-18T10:21:01Z</time>
      </trkpt>
      <trkpt lat="39.687577" lon="3.098108">
        <ele>74.4</ele>
        <time>2016-04-18T10:21:02Z</time>
      </trkpt>
      <trkpt lat="39.687526" lon="3.098174">
        <ele>74</ele>
        <time>2016-04-18T10:21:03Z</time>
      </trkpt>
      <trkpt lat="39.687477" lon="3.098238">
        <ele>73.4</ele>
        <time>2016-04-18T10:21:04Z</time>
      </trkpt>
      <trkpt lat="39.687301" lon="3.098496">
        <ele>73.4</ele>
        <time>2016-04-18T10:21:08Z</time>
      </trkpt>
      <trkpt lat="39.687027" lon="3.098905">
        <ele>73.4</ele>
        <time>2016-04-18T10:21:14Z</time>
      </trkpt>
      <trkpt lat="39.686923" lon="3.099046">
        <ele>73.4</ele>
        <time>2016-04-18T10:21:16Z</time>
      </trkpt>
      <trkpt lat="39.686772" lon="3.099251">
        <ele>73.4</ele>
        <time>2016-04-18T10:21:19Z</time>
      </trkpt>
      <trkpt lat="39.686723" lon="3.099316">
        <ele>73.4</ele>
        <time>2016-04-18T10:21:20Z</time>
      </trkpt>
      <trkpt lat="39.686353" lon="3.099841">
        <ele>73.4</ele>
        <time>2016-04-18T10:21:28Z</time>
      </trkpt>
      <trkpt lat="39.68631" lon="3.099911">
        <ele>73.4</ele>
        <time>2016-04-18T10:21:29Z</time>
      </trkpt>
      <trkpt lat="39.686201" lon="3.100117">
        <ele>73.4</ele>
        <time>2016-04-18T10:21:32Z</time>
      </trkpt>
      <trkpt lat="39.686104" lon="3.100282">
        <ele>73.8</ele>
        <time>2016-04-18T10:21:35Z</time>
      </trkpt>
      <trkpt lat="39.686074" lon="3.100331">
        <ele>74.2</ele>
        <time>2016-04-18T10:21:36Z</time>
      </trkpt>
      <trkpt lat="39.686054" lon="3.100388">
        <ele>74.6</ele>
        <time>2016-04-18T10:21:37Z</time>
      </trkpt>
      <trkpt lat="39.686046" lon="3.100445">
        <ele>75.2</ele>
        <time>2016-04-18T10:21:38Z</time>
      </trkpt>
      <trkpt lat="39.686045" lon="3.100497">
        <ele>75.6</ele>
        <time>2016-04-18T10:21:39Z</time>
      </trkpt>
      <trkpt lat="39.686082" lon="3.10073">
        <ele>75.6</ele>
        <time>2016-04-18T10:21:43Z</time>
      </trkpt>
      <trkpt lat="39.686077" lon="3.100849">
        <ele>75.6</ele>
        <time>2016-04-18T10:21:45Z</time>
      </trkpt>
      <trkpt lat="39.686055" lon="3.100906">
        <ele>75.6</ele>
        <time>2016-04-18T10:21:47Z</time>
      </trkpt>
      <trkpt lat="39.68605" lon="3.100901">
        <ele>75.6</ele>
        <time>2016-04-18T10:21:49Z</time>
      </trkpt>
      <trkpt lat="39.686043" lon="3.100923">
        <ele>75.6</ele>
        <time>2016-04-18T10:23:00Z</time>
      </trkpt>
      <trkpt lat="39.68603" lon="3.100949">
        <ele>75.6</ele>
        <time>2016-04-18T10:23:01Z</time>
      </trkpt>
      <trkpt lat="39.685975" lon="3.100992">
        <ele>75.6</ele>
        <time>2016-04-18T10:23:03Z</time>
      </trkpt>
      <trkpt lat="39.685927" lon="3.100988">
        <ele>75.6</ele>
        <time>2016-04-18T10:23:04Z</time>
      </trkpt>
      <trkpt lat="39.685882" lon="3.100976">
        <ele>75.6</ele>
        <time>2016-04-18T10:23:05Z</time>
      </trkpt>
      <trkpt lat="39.685836" lon="3.100965">
        <ele>75.6</ele>
        <time>2016-04-18T10:23:06Z</time>
      </trkpt>
      <trkpt lat="39.685694" lon="3.100937">
        <ele>75.6</ele>
        <time>2016-04-18T10:23:09Z</time>
      </trkpt>
      <trkpt lat="39.685543" lon="3.100904">
        <ele>75.6</ele>
        <time>2016-04-18T10:23:12Z</time>
      </trkpt>
      <trkpt lat="39.68544" lon="3.10089">
        <ele>75.6</ele>
        <time>2016-04-18T10:23:14Z</time>
      </trkpt>
      <trkpt lat="39.68539" lon="3.100872">
        <ele>75.6</ele>
        <time>2016-04-18T10:23:15Z</time>
      </trkpt>
      <trkpt lat="39.685331" lon="3.10086">
        <ele>75.6</ele>
        <time>2016-04-18T10:23:16Z</time>
      </trkpt>
      <trkpt lat="39.685027" lon="3.100789">
        <ele>75.6</ele>
        <time>2016-04-18T10:23:21Z</time>
      </trkpt>
      <trkpt lat="39.684892" lon="3.100761">
        <ele>75.6</ele>
        <time>2016-04-18T10:23:23Z</time>
      </trkpt>
      <trkpt lat="39.68469" lon="3.100724">
        <ele>75.6</ele>
        <time>2016-04-18T10:23:26Z</time>
      </trkpt>
      <trkpt lat="39.684477" lon="3.100676">
        <ele>75.2</ele>
        <time>2016-04-18T10:23:29Z</time>
      </trkpt>
      <trkpt lat="39.684403" lon="3.100662">
        <ele>74.8</ele>
        <time>2016-04-18T10:23:30Z</time>
      </trkpt>
      <trkpt lat="39.684328" lon="3.100646">
        <ele>74.4</ele>
        <time>2016-04-18T10:23:31Z</time>
      </trkpt>
      <trkpt lat="39.684254" lon="3.100632">
        <ele>74</ele>
        <time>2016-04-18T10:23:32Z</time>
      </trkpt>
      <trkpt lat="39.684181" lon="3.100613">
        <ele>73.6</ele>
        <time>2016-04-18T10:23:33Z</time>
      </trkpt>
      <trkpt lat="39.683886" lon="3.100544">
        <ele>73.6</ele>
        <time>2016-04-18T10:23:37Z</time>
      </trkpt>
      <trkpt lat="39.683581" lon="3.100479">
        <ele>73.6</ele>
        <time>2016-04-18T10:23:41Z</time>
      </trkpt>
      <trkpt lat="39.683044" lon="3.100364">
        <ele>73.6</ele>
        <time>2016-04-18T10:23:48Z</time>
      </trkpt>
      <trkpt lat="39.682483" lon="3.100253">
        <ele>73.6</ele>
        <time>2016-04-18T10:23:55Z</time>
      </trkpt>
      <trkpt lat="39.682405" lon="3.100235">
        <ele>73.6</ele>
        <time>2016-04-18T10:23:56Z</time>
      </trkpt>
      <trkpt lat="39.681838" lon="3.100117">
        <ele>73.6</ele>
        <time>2016-04-18T10:24:03Z</time>
      </trkpt>
      <trkpt lat="39.681758" lon="3.100097">
        <ele>73.6</ele>
        <time>2016-04-18T10:24:04Z</time>
      </trkpt>
      <trkpt lat="39.681349" lon="3.100001">
        <ele>73.6</ele>
        <time>2016-04-18T10:24:09Z</time>
      </trkpt>
      <trkpt lat="39.681268" lon="3.09998">
        <ele>73.6</ele>
        <time>2016-04-18T10:24:10Z</time>
      </trkpt>
      <trkpt lat="39.681185" lon="3.099959">
        <ele>73.6</ele>
        <time>2016-04-18T10:24:11Z</time>
      </trkpt>
      <trkpt lat="39.680679" lon="3.099858">
        <ele>73.6</ele>
        <time>2016-04-18T10:24:17Z</time>
      </trkpt>
      <trkpt lat="39.680088" lon="3.09979">
        <ele>73.6</ele>
        <time>2016-04-18T10:24:24Z</time>
      </trkpt>
      <trkpt lat="39.679495" lon="3.099829">
        <ele>73.6</ele>
        <time>2016-04-18T10:24:31Z</time>
      </trkpt>
      <trkpt lat="39.678897" lon="3.099858">
        <ele>73.6</ele>
        <time>2016-04-18T10:24:38Z</time>
      </trkpt>
      <trkpt lat="39.678626" lon="3.099874">
        <ele>73</ele>
        <time>2016-04-18T10:24:41Z</time>
      </trkpt>
      <trkpt lat="39.678533" lon="3.099875">
        <ele>72.6</ele>
        <time>2016-04-18T10:24:42Z</time>
      </trkpt>
      <trkpt lat="39.67844" lon="3.09988">
        <ele>72.2</ele>
        <time>2016-04-18T10:24:43Z</time>
      </trkpt>
      <trkpt lat="39.678339" lon="3.099888">
        <ele>71.6</ele>
        <time>2016-04-18T10:24:44Z</time>
      </trkpt>
      <trkpt lat="39.678244" lon="3.099892">
        <ele>71.2</ele>
        <time>2016-04-18T10:24:45Z</time>
      </trkpt>
      <trkpt lat="39.677659" lon="3.099918">
        <ele>70.8</ele>
        <time>2016-04-18T10:24:51Z</time>
      </trkpt>
      <trkpt lat="39.677556" lon="3.099909">
        <ele>70.4</ele>
        <time>2016-04-18T10:24:52Z</time>
      </trkpt>
      <trkpt lat="39.677463" lon="3.099898">
        <ele>70</ele>
        <time>2016-04-18T10:24:53Z</time>
      </trkpt>
      <trkpt lat="39.677376" lon="3.099889">
        <ele>69.6</ele>
        <time>2016-04-18T10:24:54Z</time>
      </trkpt>
      <trkpt lat="39.677283" lon="3.099876">
        <ele>69.2</ele>
        <time>2016-04-18T10:24:55Z</time>
      </trkpt>
      <trkpt lat="39.67673" lon="3.099789">
        <ele>69.2</ele>
        <time>2016-04-18T10:25:01Z</time>
      </trkpt>
      <trkpt lat="39.676636" lon="3.099773">
        <ele>69.2</ele>
        <time>2016-04-18T10:25:02Z</time>
      </trkpt>
      <trkpt lat="39.676072" lon="3.09968">
        <ele>69.2</ele>
        <time>2016-04-18T10:25:09Z</time>
      </trkpt>
      <trkpt lat="39.675802" lon="3.099634">
        <ele>69.2</ele>
        <time>2016-04-18T10:25:12Z</time>
      </trkpt>
      <trkpt lat="39.675261" lon="3.099543">
        <ele>69.2</ele>
        <time>2016-04-18T10:25:18Z</time>
      </trkpt>
      <trkpt lat="39.675081" lon="3.099513">
        <ele>69.2</ele>
        <time>2016-04-18T10:25:20Z</time>
      </trkpt>
      <trkpt lat="39.674468" lon="3.099411">
        <ele>69.2</ele>
        <time>2016-04-18T10:25:27Z</time>
      </trkpt>
      <trkpt lat="39.673852" lon="3.099308">
        <ele>69.2</ele>
        <time>2016-04-18T10:25:34Z</time>
      </trkpt>
      <trkpt lat="39.67376" lon="3.099295">
        <ele>69.2</ele>
        <time>2016-04-18T10:25:35Z</time>
      </trkpt>
      <trkpt lat="39.673482" lon="3.099251">
        <ele>68.6</ele>
        <time>2016-04-18T10:25:38Z</time>
      </trkpt>
      <trkpt lat="39.673389" lon="3.099238">
        <ele>68.2</ele>
        <time>2016-04-18T10:25:39Z</time>
      </trkpt>
      <trkpt lat="39.673297" lon="3.099222">
        <ele>67.8</ele>
        <time>2016-04-18T10:25:40Z</time>
      </trkpt>
      <trkpt lat="39.673205" lon="3.099206">
        <ele>67.4</ele>
        <time>2016-04-18T10:25:41Z</time>
      </trkpt>
      <trkpt lat="39.673113" lon="3.099188">
        <ele>67</ele>
        <time>2016-04-18T10:25:42Z</time>
      </trkpt>
      <trkpt lat="39.673021" lon="3.099172">
        <ele>67</ele>
        <time>2016-04-18T10:25:43Z</time>
      </trkpt>
      <trkpt lat="39.672639" lon="3.099107">
        <ele>67</ele>
        <time>2016-04-18T10:25:47Z</time>
      </trkpt>
      <trkpt lat="39.672442" lon="3.099077">
        <ele>66.4</ele>
        <time>2016-04-18T10:25:49Z</time>
      </trkpt>
      <trkpt lat="39.672341" lon="3.09906">
        <ele>66</ele>
        <time>2016-04-18T10:25:50Z</time>
      </trkpt>
      <trkpt lat="39.672238" lon="3.099044">
        <ele>65.6</ele>
        <time>2016-04-18T10:25:51Z</time>
      </trkpt>
      <trkpt lat="39.672133" lon="3.099027">
        <ele>65</ele>
        <time>2016-04-18T10:25:52Z</time>
      </trkpt>
      <trkpt lat="39.672025" lon="3.099011">
        <ele>64.6</ele>
        <time>2016-04-18T10:25:53Z</time>
      </trkpt>
      <trkpt lat="39.67192" lon="3.098996">
        <ele>64.2</ele>
        <time>2016-04-18T10:25:54Z</time>
      </trkpt>
      <trkpt lat="39.671811" lon="3.098979">
        <ele>63.6</ele>
        <time>2016-04-18T10:25:55Z</time>
      </trkpt>
      <trkpt lat="39.671698" lon="3.09896">
        <ele>63.2</ele>
        <time>2016-04-18T10:25:56Z</time>
      </trkpt>
      <trkpt lat="39.671583" lon="3.09894">
        <ele>62.8</ele>
        <time>2016-04-18T10:25:57Z</time>
      </trkpt>
      <trkpt lat="39.671465" lon="3.09892">
        <ele>62.2</ele>
        <time>2016-04-18T10:25:58Z</time>
      </trkpt>
      <trkpt lat="39.671346" lon="3.0989">
        <ele>61.6</ele>
        <time>2016-04-18T10:25:59Z</time>
      </trkpt>
      <trkpt lat="39.671225" lon="3.098878">
        <ele>61.2</ele>
        <time>2016-04-18T10:26:00Z</time>
      </trkpt>
      <trkpt lat="39.671103" lon="3.098856">
        <ele>60.6</ele>
        <time>2016-04-18T10:26:01Z</time>
      </trkpt>
      <trkpt lat="39.670981" lon="3.098835">
        <ele>60</ele>
        <time>2016-04-18T10:26:02Z</time>
      </trkpt>
      <trkpt lat="39.670856" lon="3.098812">
        <ele>59.2</ele>
        <time>2016-04-18T10:26:03Z</time>
      </trkpt>
      <trkpt lat="39.670744" lon="3.098787">
        <ele>58.6</ele>
        <time>2016-04-18T10:26:04Z</time>
      </trkpt>
      <trkpt lat="39.670626" lon="3.098765">
        <ele>58</ele>
        <time>2016-04-18T10:26:05Z</time>
      </trkpt>
      <trkpt lat="39.670053" lon="3.098674">
        <ele>58</ele>
        <time>2016-04-18T10:26:10Z</time>
      </trkpt>
      <trkpt lat="39.669831" lon="3.098645">
        <ele>58</ele>
        <time>2016-04-18T10:26:12Z</time>
      </trkpt>
      <trkpt lat="39.669199" lon="3.098536">
        <ele>58</ele>
        <time>2016-04-18T10:26:18Z</time>
      </trkpt>
      <trkpt lat="39.668575" lon="3.098433">
        <ele>58</ele>
        <time>2016-04-18T10:26:24Z</time>
      </trkpt>
      <trkpt lat="39.668469" lon="3.098415">
        <ele>58</ele>
        <time>2016-04-18T10:26:25Z</time>
      </trkpt>
      <trkpt lat="39.668059" lon="3.098343">
        <ele>57.6</ele>
        <time>2016-04-18T10:26:29Z</time>
      </trkpt>
      <trkpt lat="39.667953" lon="3.098325">
        <ele>57.2</ele>
        <time>2016-04-18T10:26:30Z</time>
      </trkpt>
      <trkpt lat="39.667852" lon="3.098309">
        <ele>56.8</ele>
        <time>2016-04-18T10:26:31Z</time>
      </trkpt>
      <trkpt lat="39.667748" lon="3.098293">
        <ele>56.4</ele>
        <time>2016-04-18T10:26:32Z</time>
      </trkpt>
      <trkpt lat="39.667649" lon="3.098278">
        <ele>56</ele>
        <time>2016-04-18T10:26:33Z</time>
      </trkpt>
      <trkpt lat="39.66735" lon="3.09823">
        <ele>56</ele>
        <time>2016-04-18T10:26:36Z</time>
      </trkpt>
      <trkpt lat="39.666767" lon="3.098134">
        <ele>56</ele>
        <time>2016-04-18T10:26:42Z</time>
      </trkpt>
      <trkpt lat="39.666197" lon="3.098042">
        <ele>56</ele>
        <time>2016-04-18T10:26:48Z</time>
      </trkpt>
      <trkpt lat="39.666023" lon="3.098011">
        <ele>56</ele>
        <time>2016-04-18T10:26:50Z</time>
      </trkpt>
      <trkpt lat="39.665677" lon="3.097952">
        <ele>56.4</ele>
        <time>2016-04-18T10:26:54Z</time>
      </trkpt>
      <trkpt lat="39.665592" lon="3.097939">
        <ele>56.8</ele>
        <time>2016-04-18T10:26:55Z</time>
      </trkpt>
      <trkpt lat="39.665509" lon="3.097926">
        <ele>57.2</ele>
        <time>2016-04-18T10:26:56Z</time>
      </trkpt>
      <trkpt lat="39.665425" lon="3.097914">
        <ele>57.6</ele>
        <time>2016-04-18T10:26:57Z</time>
      </trkpt>
      <trkpt lat="39.665341" lon="3.0979">
        <ele>58</ele>
        <time>2016-04-18T10:26:58Z</time>
      </trkpt>
      <trkpt lat="39.665256" lon="3.097886">
        <ele>58</ele>
        <time>2016-04-18T10:26:59Z</time>
      </trkpt>
      <trkpt lat="39.664662" lon="3.097789">
        <ele>58</ele>
        <time>2016-04-18T10:27:06Z</time>
      </trkpt>
      <trkpt lat="39.664485" lon="3.097759">
        <ele>58</ele>
        <time>2016-04-18T10:27:08Z</time>
      </trkpt>
      <trkpt lat="39.66389" lon="3.09766">
        <ele>58</ele>
        <time>2016-04-18T10:27:15Z</time>
      </trkpt>
      <trkpt lat="39.663719" lon="3.097631">
        <ele>58</ele>
        <time>2016-04-18T10:27:17Z</time>
      </trkpt>
      <trkpt lat="39.663107" lon="3.097528">
        <ele>58</ele>
        <time>2016-04-18T10:27:24Z</time>
      </trkpt>
      <trkpt lat="39.663024" lon="3.097514">
        <ele>58</ele>
        <time>2016-04-18T10:27:25Z</time>
      </trkpt>
      <trkpt lat="39.662456" lon="3.097419">
        <ele>58</ele>
        <time>2016-04-18T10:27:32Z</time>
      </trkpt>
      <trkpt lat="39.661991" lon="3.09734">
        <ele>58.4</ele>
        <time>2016-04-18T10:27:38Z</time>
      </trkpt>
      <trkpt lat="39.661914" lon="3.097326">
        <ele>59</ele>
        <time>2016-04-18T10:27:39Z</time>
      </trkpt>
      <trkpt lat="39.661837" lon="3.097312">
        <ele>59.4</ele>
        <time>2016-04-18T10:27:40Z</time>
      </trkpt>
      <trkpt lat="39.661761" lon="3.097299">
        <ele>59.8</ele>
        <time>2016-04-18T10:27:41Z</time>
      </trkpt>
      <trkpt lat="39.661685" lon="3.097285">
        <ele>60.2</ele>
        <time>2016-04-18T10:27:42Z</time>
      </trkpt>
      <trkpt lat="39.661374" lon="3.097238">
        <ele>60.2</ele>
        <time>2016-04-18T10:27:46Z</time>
      </trkpt>
      <trkpt lat="39.66083" lon="3.097145">
        <ele>60.2</ele>
        <time>2016-04-18T10:27:53Z</time>
      </trkpt>
      <trkpt lat="39.660587" lon="3.09711">
        <ele>60.2</ele>
        <time>2016-04-18T10:27:56Z</time>
      </trkpt>
      <trkpt lat="39.660016" lon="3.097014">
        <ele>60.2</ele>
        <time>2016-04-18T10:28:03Z</time>
      </trkpt>
      <trkpt lat="39.659446" lon="3.096926">
        <ele>60.2</ele>
        <time>2016-04-18T10:28:10Z</time>
      </trkpt>
      <trkpt lat="39.659285" lon="3.0969">
        <ele>60.2</ele>
        <time>2016-04-18T10:28:12Z</time>
      </trkpt>
      <trkpt lat="39.658714" lon="3.096835">
        <ele>60.2</ele>
        <time>2016-04-18T10:28:19Z</time>
      </trkpt>
      <trkpt lat="39.658632" lon="3.096838">
        <ele>60.2</ele>
        <time>2016-04-18T10:28:20Z</time>
      </trkpt>
      <trkpt lat="39.65808" lon="3.096927">
        <ele>60.2</ele>
        <time>2016-04-18T10:28:27Z</time>
      </trkpt>
      <trkpt lat="39.657545" lon="3.097106">
        <ele>60.2</ele>
        <time>2016-04-18T10:28:34Z</time>
      </trkpt>
      <trkpt lat="39.657472" lon="3.097132">
        <ele>60.2</ele>
        <time>2016-04-18T10:28:35Z</time>
      </trkpt>
      <trkpt lat="39.656948" lon="3.097308">
        <ele>60.2</ele>
        <time>2016-04-18T10:28:42Z</time>
      </trkpt>
      <trkpt lat="39.656582" lon="3.097429">
        <ele>61</ele>
        <time>2016-04-18T10:28:47Z</time>
      </trkpt>
      <trkpt lat="39.656512" lon="3.097452">
        <ele>61.4</ele>
        <time>2016-04-18T10:28:48Z</time>
      </trkpt>
      <trkpt lat="39.656444" lon="3.097475">
        <ele>62</ele>
        <time>2016-04-18T10:28:49Z</time>
      </trkpt>
      <trkpt lat="39.656375" lon="3.0975">
        <ele>62.4</ele>
        <time>2016-04-18T10:28:50Z</time>
      </trkpt>
      <trkpt lat="39.656309" lon="3.097526">
        <ele>62.4</ele>
        <time>2016-04-18T10:28:51Z</time>
      </trkpt>
      <trkpt lat="39.65593" lon="3.097678">
        <ele>62.8</ele>
        <time>2016-04-18T10:28:57Z</time>
      </trkpt>
      <trkpt lat="39.655872" lon="3.097702">
        <ele>63.2</ele>
        <time>2016-04-18T10:28:58Z</time>
      </trkpt>
      <trkpt lat="39.655818" lon="3.097727">
        <ele>63.6</ele>
        <time>2016-04-18T10:28:59Z</time>
      </trkpt>
      <trkpt lat="39.655765" lon="3.097752">
        <ele>64.2</ele>
        <time>2016-04-18T10:29:00Z</time>
      </trkpt>
      <trkpt lat="39.65571" lon="3.097776">
        <ele>64.6</ele>
        <time>2016-04-18T10:29:01Z</time>
      </trkpt>
      <trkpt lat="39.655563" lon="3.09784">
        <ele>65</ele>
        <time>2016-04-18T10:29:04Z</time>
      </trkpt>
      <trkpt lat="39.655515" lon="3.09786">
        <ele>65.4</ele>
        <time>2016-04-18T10:29:05Z</time>
      </trkpt>
      <trkpt lat="39.655471" lon="3.097882">
        <ele>65.8</ele>
        <time>2016-04-18T10:29:06Z</time>
      </trkpt>
      <trkpt lat="39.655427" lon="3.097905">
        <ele>66.4</ele>
        <time>2016-04-18T10:29:07Z</time>
      </trkpt>
      <trkpt lat="39.655387" lon="3.097924">
        <ele>66.8</ele>
        <time>2016-04-18T10:29:08Z</time>
      </trkpt>
      <trkpt lat="39.655273" lon="3.097985">
        <ele>66.8</ele>
        <time>2016-04-18T10:29:11Z</time>
      </trkpt>
      <trkpt lat="39.655235" lon="3.098004">
        <ele>67.2</ele>
        <time>2016-04-18T10:29:12Z</time>
      </trkpt>
      <trkpt lat="39.655199" lon="3.098024">
        <ele>68</ele>
        <time>2016-04-18T10:29:13Z</time>
      </trkpt>
      <trkpt lat="39.655162" lon="3.098045">
        <ele>68.4</ele>
        <time>2016-04-18T10:29:14Z</time>
      </trkpt>
      <trkpt lat="39.655125" lon="3.098067">
        <ele>68.8</ele>
        <time>2016-04-18T10:29:15Z</time>
      </trkpt>
      <trkpt lat="39.655014" lon="3.098136">
        <ele>69.2</ele>
        <time>2016-04-18T10:29:18Z</time>
      </trkpt>
      <trkpt lat="39.654975" lon="3.098157">
        <ele>69.6</ele>
        <time>2016-04-18T10:29:19Z</time>
      </trkpt>
      <trkpt lat="39.654936" lon="3.09818">
        <ele>70</ele>
        <time>2016-04-18T10:29:20Z</time>
      </trkpt>
      <trkpt lat="39.654898" lon="3.098196">
        <ele>70.4</ele>
        <time>2016-04-18T10:29:21Z</time>
      </trkpt>
      <trkpt lat="39.654858" lon="3.098215">
        <ele>70.8</ele>
        <time>2016-04-18T10:29:22Z</time>
      </trkpt>
      <trkpt lat="39.65478" lon="3.098257">
        <ele>71.2</ele>
        <time>2016-04-18T10:29:24Z</time>
      </trkpt>
      <trkpt lat="39.654745" lon="3.098279">
        <ele>71.6</ele>
        <time>2016-04-18T10:29:25Z</time>
      </trkpt>
      <trkpt lat="39.654709" lon="3.098301">
        <ele>72.2</ele>
        <time>2016-04-18T10:29:26Z</time>
      </trkpt>
      <trkpt lat="39.654672" lon="3.098322">
        <ele>72.6</ele>
        <time>2016-04-18T10:29:27Z</time>
      </trkpt>
      <trkpt lat="39.654633" lon="3.098344">
        <ele>73</ele>
        <time>2016-04-18T10:29:28Z</time>
      </trkpt>
      <trkpt lat="39.65448" lon="3.098433">
        <ele>73.4</ele>
        <time>2016-04-18T10:29:32Z</time>
      </trkpt>
      <trkpt lat="39.654446" lon="3.098455">
        <ele>73.8</ele>
        <time>2016-04-18T10:29:33Z</time>
      </trkpt>
      <trkpt lat="39.654411" lon="3.098479">
        <ele>74.2</ele>
        <time>2016-04-18T10:29:34Z</time>
      </trkpt>
      <trkpt lat="39.654377" lon="3.098503">
        <ele>74.6</ele>
        <time>2016-04-18T10:29:35Z</time>
      </trkpt>
      <trkpt lat="39.654342" lon="3.098527">
        <ele>75.2</ele>
        <time>2016-04-18T10:29:36Z</time>
      </trkpt>
      <trkpt lat="39.654193" lon="3.098623">
        <ele>75.6</ele>
        <time>2016-04-18T10:29:40Z</time>
      </trkpt>
      <trkpt lat="39.654157" lon="3.098649">
        <ele>76</ele>
        <time>2016-04-18T10:29:41Z</time>
      </trkpt>
      <trkpt lat="39.654121" lon="3.098676">
        <ele>76.4</ele>
        <time>2016-04-18T10:29:42Z</time>
      </trkpt>
      <trkpt lat="39.654086" lon="3.098699">
        <ele>76.8</ele>
        <time>2016-04-18T10:29:43Z</time>
      </trkpt>
      <trkpt lat="39.654053" lon="3.098722">
        <ele>77.4</ele>
        <time>2016-04-18T10:29:44Z</time>
      </trkpt>
      <trkpt lat="39.653918" lon="3.098819">
        <ele>77.8</ele>
        <time>2016-04-18T10:29:48Z</time>
      </trkpt>
      <trkpt lat="39.653881" lon="3.098843">
        <ele>78.2</ele>
        <time>2016-04-18T10:29:49Z</time>
      </trkpt>
      <trkpt lat="39.653846" lon="3.098867">
        <ele>78.6</ele>
        <time>2016-04-18T10:29:50Z</time>
      </trkpt>
      <trkpt lat="39.653811" lon="3.098892">
        <ele>79</ele>
        <time>2016-04-18T10:29:51Z</time>
      </trkpt>
      <trkpt lat="39.653778" lon="3.098918">
        <ele>79.4</ele>
        <time>2016-04-18T10:29:52Z</time>
      </trkpt>
      <trkpt lat="39.653611" lon="3.099046">
        <ele>80</ele>
        <time>2016-04-18T10:29:57Z</time>
      </trkpt>
      <trkpt lat="39.653582" lon="3.099069">
        <ele>80.4</ele>
        <time>2016-04-18T10:29:58Z</time>
      </trkpt>
      <trkpt lat="39.65355" lon="3.099092">
        <ele>80.8</ele>
        <time>2016-04-18T10:29:59Z</time>
      </trkpt>
      <trkpt lat="39.653518" lon="3.099117">
        <ele>81.2</ele>
        <time>2016-04-18T10:30:00Z</time>
      </trkpt>
      <trkpt lat="39.653486" lon="3.099143">
        <ele>81.8</ele>
        <time>2016-04-18T10:30:01Z</time>
      </trkpt>
      <trkpt lat="39.653349" lon="3.099248">
        <ele>82.2</ele>
        <time>2016-04-18T10:30:05Z</time>
      </trkpt>
      <trkpt lat="39.653314" lon="3.099274">
        <ele>82.6</ele>
        <time>2016-04-18T10:30:06Z</time>
      </trkpt>
      <trkpt lat="39.653282" lon="3.099298">
        <ele>83</ele>
        <time>2016-04-18T10:30:07Z</time>
      </trkpt>
      <trkpt lat="39.653252" lon="3.099318">
        <ele>83.4</ele>
        <time>2016-04-18T10:30:08Z</time>
      </trkpt>
      <trkpt lat="39.653221" lon="3.099341">
        <ele>83.8</ele>
        <time>2016-04-18T10:30:09Z</time>
      </trkpt>
      <trkpt lat="39.653071" lon="3.099458">
        <ele>84.2</ele>
        <time>2016-04-18T10:30:14Z</time>
      </trkpt>
      <trkpt lat="39.653039" lon="3.099481">
        <ele>84.6</ele>
        <time>2016-04-18T10:30:15Z</time>
      </trkpt>
      <trkpt lat="39.653004" lon="3.099506">
        <ele>85.2</ele>
        <time>2016-04-18T10:30:16Z</time>
      </trkpt>
      <trkpt lat="39.652972" lon="3.099532">
        <ele>85.6</ele>
        <time>2016-04-18T10:30:17Z</time>
      </trkpt>
      <trkpt lat="39.652938" lon="3.099556">
        <ele>86</ele>
        <time>2016-04-18T10:30:18Z</time>
      </trkpt>
      <trkpt lat="39.652776" lon="3.099681">
        <ele>86.4</ele>
        <time>2016-04-18T10:30:23Z</time>
      </trkpt>
      <trkpt lat="39.652744" lon="3.099709">
        <ele>86.8</ele>
        <time>2016-04-18T10:30:24Z</time>
      </trkpt>
      <trkpt lat="39.65271" lon="3.099738">
        <ele>87.2</ele>
        <time>2016-04-18T10:30:25Z</time>
      </trkpt>
      <trkpt lat="39.652678" lon="3.099765">
        <ele>87.6</ele>
        <time>2016-04-18T10:30:26Z</time>
      </trkpt>
      <trkpt lat="39.652645" lon="3.099789">
        <ele>88.2</ele>
        <time>2016-04-18T10:30:27Z</time>
      </trkpt>
      <trkpt lat="39.652487" lon="3.099902">
        <ele>88.6</ele>
        <time>2016-04-18T10:30:32Z</time>
      </trkpt>
      <trkpt lat="39.652454" lon="3.099928">
        <ele>89</ele>
        <time>2016-04-18T10:30:33Z</time>
      </trkpt>
      <trkpt lat="39.65242" lon="3.099953">
        <ele>89.4</ele>
        <time>2016-04-18T10:30:34Z</time>
      </trkpt>
      <trkpt lat="39.652387" lon="3.099978">
        <ele>89.8</ele>
        <time>2016-04-18T10:30:35Z</time>
      </trkpt>
      <trkpt lat="39.652354" lon="3.100007">
        <ele>90.2</ele>
        <time>2016-04-18T10:30:36Z</time>
      </trkpt>
      <trkpt lat="39.652241" lon="3.100074">
        <ele>90.2</ele>
        <time>2016-04-18T10:30:39Z</time>
      </trkpt>
      <trkpt lat="39.652147" lon="3.100138">
        <ele>90.2</ele>
        <time>2016-04-18T10:30:41Z</time>
      </trkpt>
      <trkpt lat="39.652018" lon="3.100228">
        <ele>90.6</ele>
        <time>2016-04-18T10:30:44Z</time>
      </trkpt>
      <trkpt lat="39.651973" lon="3.100261">
        <ele>91</ele>
        <time>2016-04-18T10:30:45Z</time>
      </trkpt>
      <trkpt lat="39.651927" lon="3.100291">
        <ele>91.4</ele>
        <time>2016-04-18T10:30:46Z</time>
      </trkpt>
      <trkpt lat="39.651879" lon="3.100321">
        <ele>91.8</ele>
        <time>2016-04-18T10:30:47Z</time>
      </trkpt>
      <trkpt lat="39.651832" lon="3.10035">
        <ele>92.2</ele>
        <time>2016-04-18T10:30:48Z</time>
      </trkpt>
      <trkpt lat="39.651696" lon="3.100432">
        <ele>92.2</ele>
        <time>2016-04-18T10:30:51Z</time>
      </trkpt>
      <trkpt lat="39.651352" lon="3.100604">
        <ele>92.6</ele>
        <time>2016-04-18T10:30:58Z</time>
      </trkpt>
      <trkpt lat="39.651302" lon="3.100628">
        <ele>93</ele>
        <time>2016-04-18T10:30:59Z</time>
      </trkpt>
      <trkpt lat="39.651252" lon="3.10065">
        <ele>93.6</ele>
        <time>2016-04-18T10:31:00Z</time>
      </trkpt>
      <trkpt lat="39.651202" lon="3.100672">
        <ele>94</ele>
        <time>2016-04-18T10:31:01Z</time>
      </trkpt>
      <trkpt lat="39.651149" lon="3.100691">
        <ele>94.4</ele>
        <time>2016-04-18T10:31:02Z</time>
      </trkpt>
      <trkpt lat="39.650986" lon="3.100756">
        <ele>94.4</ele>
        <time>2016-04-18T10:31:05Z</time>
      </trkpt>
      <trkpt lat="39.65068" lon="3.100832">
        <ele>94.4</ele>
        <time>2016-04-18T10:31:10Z</time>
      </trkpt>
      <trkpt lat="39.650543" lon="3.100858">
        <ele>94.4</ele>
        <time>2016-04-18T10:31:12Z</time>
      </trkpt>
      <trkpt lat="39.650322" lon="3.100893">
        <ele>94</ele>
        <time>2016-04-18T10:31:15Z</time>
      </trkpt>
      <trkpt lat="39.650242" lon="3.100901">
        <ele>93.4</ele>
        <time>2016-04-18T10:31:16Z</time>
      </trkpt>
      <trkpt lat="39.650159" lon="3.100902">
        <ele>92.6</ele>
        <time>2016-04-18T10:31:17Z</time>
      </trkpt>
      <trkpt lat="39.650076" lon="3.100896">
        <ele>92.2</ele>
        <time>2016-04-18T10:31:18Z</time>
      </trkpt>
      <trkpt lat="39.649901" lon="3.100867">
        <ele>91.8</ele>
        <time>2016-04-18T10:31:20Z</time>
      </trkpt>
      <trkpt lat="39.649811" lon="3.100845">
        <ele>91.4</ele>
        <time>2016-04-18T10:31:21Z</time>
      </trkpt>
      <trkpt lat="39.649718" lon="3.100822">
        <ele>91</ele>
        <time>2016-04-18T10:31:22Z</time>
      </trkpt>
      <trkpt lat="39.649619" lon="3.100798">
        <ele>90.6</ele>
        <time>2016-04-18T10:31:23Z</time>
      </trkpt>
      <trkpt lat="39.649519" lon="3.100766">
        <ele>89.8</ele>
        <time>2016-04-18T10:31:24Z</time>
      </trkpt>
      <trkpt lat="39.649412" lon="3.100724">
        <ele>89.2</ele>
        <time>2016-04-18T10:31:25Z</time>
      </trkpt>
      <trkpt lat="39.649309" lon="3.100679">
        <ele>88.6</ele>
        <time>2016-04-18T10:31:26Z</time>
      </trkpt>
      <trkpt lat="39.649202" lon="3.100633">
        <ele>88</ele>
        <time>2016-04-18T10:31:27Z</time>
      </trkpt>
      <trkpt lat="39.649094" lon="3.100588">
        <ele>87.2</ele>
        <time>2016-04-18T10:31:28Z</time>
      </trkpt>
      <trkpt lat="39.648987" lon="3.100539">
        <ele>86.6</ele>
        <time>2016-04-18T10:31:29Z</time>
      </trkpt>
      <trkpt lat="39.64888" lon="3.100488">
        <ele>85.8</ele>
        <time>2016-04-18T10:31:30Z</time>
      </trkpt>
      <trkpt lat="39.648773" lon="3.100435">
        <ele>85.2</ele>
        <time>2016-04-18T10:31:31Z</time>
      </trkpt>
      <trkpt lat="39.648661" lon="3.100381">
        <ele>84.4</ele>
        <time>2016-04-18T10:31:32Z</time>
      </trkpt>
      <trkpt lat="39.648555" lon="3.100335">
        <ele>83.8</ele>
        <time>2016-04-18T10:31:33Z</time>
      </trkpt>
      <trkpt lat="39.648451" lon="3.100296">
        <ele>83.2</ele>
        <time>2016-04-18T10:31:34Z</time>
      </trkpt>
      <trkpt lat="39.648348" lon="3.100264">
        <ele>82.4</ele>
        <time>2016-04-18T10:31:35Z</time>
      </trkpt>
      <trkpt lat="39.647841" lon="3.100187">
        <ele>82.4</ele>
        <time>2016-04-18T10:31:40Z</time>
      </trkpt>
      <trkpt lat="39.647645" lon="3.100183">
        <ele>82.4</ele>
        <time>2016-04-18T10:31:42Z</time>
      </trkpt>
      <trkpt lat="39.647255" lon="3.100203">
        <ele>82.4</ele>
        <time>2016-04-18T10:31:46Z</time>
      </trkpt>
      <trkpt lat="39.646678" lon="3.100246">
        <ele>82.4</ele>
        <time>2016-04-18T10:31:52Z</time>
      </trkpt>
      <trkpt lat="39.646499" lon="3.100265">
        <ele>82.4</ele>
        <time>2016-04-18T10:31:54Z</time>
      </trkpt>
      <trkpt lat="39.646324" lon="3.100247">
        <ele>82.4</ele>
        <time>2016-04-18T10:31:56Z</time>
      </trkpt>
      <trkpt lat="39.646248" lon="3.100197">
        <ele>82.4</ele>
        <time>2016-04-18T10:31:57Z</time>
      </trkpt>
      <trkpt lat="39.646014" lon="3.100097">
        <ele>82.4</ele>
        <time>2016-04-18T10:32:00Z</time>
      </trkpt>
      <trkpt lat="39.645777" lon="3.100224">
        <ele>82.4</ele>
        <time>2016-04-18T10:32:03Z</time>
      </trkpt>
      <trkpt lat="39.645694" lon="3.100257">
        <ele>82.4</ele>
        <time>2016-04-18T10:32:04Z</time>
      </trkpt>
      <trkpt lat="39.645513" lon="3.100267">
        <ele>82.4</ele>
        <time>2016-04-18T10:32:06Z</time>
      </trkpt>
      <trkpt lat="39.645332" lon="3.100252">
        <ele>82</ele>
        <time>2016-04-18T10:32:08Z</time>
      </trkpt>
      <trkpt lat="39.645246" lon="3.100242">
        <ele>81.6</ele>
        <time>2016-04-18T10:32:09Z</time>
      </trkpt>
      <trkpt lat="39.645158" lon="3.10023">
        <ele>81.2</ele>
        <time>2016-04-18T10:32:10Z</time>
      </trkpt>
      <trkpt lat="39.645077" lon="3.100218">
        <ele>80.8</ele>
        <time>2016-04-18T10:32:11Z</time>
      </trkpt>
      <trkpt lat="39.644999" lon="3.100205">
        <ele>80.4</ele>
        <time>2016-04-18T10:32:12Z</time>
      </trkpt>
      <trkpt lat="39.644922" lon="3.100193">
        <ele>80.4</ele>
        <time>2016-04-18T10:32:13Z</time>
      </trkpt>
      <trkpt lat="39.644387" lon="3.100086">
        <ele>80.4</ele>
        <time>2016-04-18T10:32:20Z</time>
      </trkpt>
      <trkpt lat="39.644234" lon="3.100059">
        <ele>80.4</ele>
        <time>2016-04-18T10:32:22Z</time>
      </trkpt>
      <trkpt lat="39.643771" lon="3.099987">
        <ele>80.4</ele>
        <time>2016-04-18T10:32:28Z</time>
      </trkpt>
      <trkpt lat="39.643333" lon="3.100006">
        <ele>80.4</ele>
        <time>2016-04-18T10:32:34Z</time>
      </trkpt>
      <trkpt lat="39.643184" lon="3.100042">
        <ele>80.4</ele>
        <time>2016-04-18T10:32:36Z</time>
      </trkpt>
      <trkpt lat="39.64303" lon="3.100086">
        <ele>80.4</ele>
        <time>2016-04-18T10:32:38Z</time>
      </trkpt>
      <trkpt lat="39.642879" lon="3.100143">
        <ele>80.4</ele>
        <time>2016-04-18T10:32:40Z</time>
      </trkpt>
      <trkpt lat="39.642587" lon="3.100297">
        <ele>80.4</ele>
        <time>2016-04-18T10:32:44Z</time>
      </trkpt>
      <trkpt lat="39.642515" lon="3.100341">
        <ele>80.4</ele>
        <time>2016-04-18T10:32:45Z</time>
      </trkpt>
      <trkpt lat="39.642444" lon="3.100389">
        <ele>80.4</ele>
        <time>2016-04-18T10:32:46Z</time>
      </trkpt>
      <trkpt lat="39.642302" lon="3.100491">
        <ele>80.4</ele>
        <time>2016-04-18T10:32:48Z</time>
      </trkpt>
      <trkpt lat="39.642163" lon="3.100596">
        <ele>80.4</ele>
        <time>2016-04-18T10:32:50Z</time>
      </trkpt>
      <trkpt lat="39.641951" lon="3.100753">
        <ele>80.4</ele>
        <time>2016-04-18T10:32:53Z</time>
      </trkpt>
      <trkpt lat="39.641879" lon="3.100807">
        <ele>80</ele>
        <time>2016-04-18T10:32:54Z</time>
      </trkpt>
      <trkpt lat="39.6418" lon="3.100864">
        <ele>79.6</ele>
        <time>2016-04-18T10:32:55Z</time>
      </trkpt>
      <trkpt lat="39.641726" lon="3.100919">
        <ele>78.8</ele>
        <time>2016-04-18T10:32:56Z</time>
      </trkpt>
      <trkpt lat="39.641652" lon="3.100974">
        <ele>78.4</ele>
        <time>2016-04-18T10:32:57Z</time>
      </trkpt>
      <trkpt lat="39.641508" lon="3.101081">
        <ele>78.4</ele>
        <time>2016-04-18T10:32:59Z</time>
      </trkpt>
      <trkpt lat="39.641367" lon="3.101188">
        <ele>78.4</ele>
        <time>2016-04-18T10:33:01Z</time>
      </trkpt>
      <trkpt lat="39.641225" lon="3.101292">
        <ele>78.4</ele>
        <time>2016-04-18T10:33:03Z</time>
      </trkpt>
      <trkpt lat="39.64109" lon="3.101394">
        <ele>78.4</ele>
        <time>2016-04-18T10:33:05Z</time>
      </trkpt>
      <trkpt lat="39.640743" lon="3.101657">
        <ele>78.4</ele>
        <time>2016-04-18T10:33:10Z</time>
      </trkpt>
      <trkpt lat="39.640265" lon="3.101982">
        <ele>78.4</ele>
        <time>2016-04-18T10:33:17Z</time>
      </trkpt>
      <trkpt lat="39.640117" lon="3.102064">
        <ele>78.4</ele>
        <time>2016-04-18T10:33:19Z</time>
      </trkpt>
      <trkpt lat="39.639893" lon="3.102169">
        <ele>78.4</ele>
        <time>2016-04-18T10:33:22Z</time>
      </trkpt>
      <trkpt lat="39.639586" lon="3.102287">
        <ele>78.4</ele>
        <time>2016-04-18T10:33:26Z</time>
      </trkpt>
      <trkpt lat="39.639042" lon="3.102435">
        <ele>78.4</ele>
        <time>2016-04-18T10:33:33Z</time>
      </trkpt>
      <trkpt lat="39.638962" lon="3.102451">
        <ele>78.4</ele>
        <time>2016-04-18T10:33:34Z</time>
      </trkpt>
      <trkpt lat="39.638725" lon="3.102492">
        <ele>78.4</ele>
        <time>2016-04-18T10:33:37Z</time>
      </trkpt>
      <trkpt lat="39.638253" lon="3.102556">
        <ele>78.4</ele>
        <time>2016-04-18T10:33:43Z</time>
      </trkpt>
      <trkpt lat="39.638174" lon="3.102567">
        <ele>78.8</ele>
        <time>2016-04-18T10:33:44Z</time>
      </trkpt>
      <trkpt lat="39.638097" lon="3.10258">
        <ele>79.6</ele>
        <time>2016-04-18T10:33:45Z</time>
      </trkpt>
      <trkpt lat="39.63802" lon="3.102594">
        <ele>80</ele>
        <time>2016-04-18T10:33:46Z</time>
      </trkpt>
      <trkpt lat="39.637941" lon="3.10261">
        <ele>80.4</ele>
        <time>2016-04-18T10:33:47Z</time>
      </trkpt>
      <trkpt lat="39.637575" lon="3.102693">
        <ele>80.4</ele>
        <time>2016-04-18T10:33:52Z</time>
      </trkpt>
      <trkpt lat="39.637045" lon="3.102863">
        <ele>80.4</ele>
        <time>2016-04-18T10:33:59Z</time>
      </trkpt>
      <trkpt lat="39.636898" lon="3.102918">
        <ele>80.4</ele>
        <time>2016-04-18T10:34:01Z</time>
      </trkpt>
      <trkpt lat="39.636373" lon="3.103149">
        <ele>80.4</ele>
        <time>2016-04-18T10:34:08Z</time>
      </trkpt>
      <trkpt lat="39.6363" lon="3.103187">
        <ele>80.4</ele>
        <time>2016-04-18T10:34:09Z</time>
      </trkpt>
      <trkpt lat="39.635944" lon="3.103388">
        <ele>80.4</ele>
        <time>2016-04-18T10:34:14Z</time>
      </trkpt>
      <trkpt lat="39.635736" lon="3.103519">
        <ele>80.4</ele>
        <time>2016-04-18T10:34:17Z</time>
      </trkpt>
      <trkpt lat="39.635464" lon="3.103699">
        <ele>80.4</ele>
        <time>2016-04-18T10:34:21Z</time>
      </trkpt>
      <trkpt lat="39.63513" lon="3.103932">
        <ele>80.4</ele>
        <time>2016-04-18T10:34:26Z</time>
      </trkpt>
      <trkpt lat="39.634624" lon="3.104312">
        <ele>80.4</ele>
        <time>2016-04-18T10:34:34Z</time>
      </trkpt>
      <trkpt lat="39.634562" lon="3.104353">
        <ele>80.4</ele>
        <time>2016-04-18T10:34:35Z</time>
      </trkpt>
      <trkpt lat="39.634203" lon="3.104614">
        <ele>80.8</ele>
        <time>2016-04-18T10:34:41Z</time>
      </trkpt>
      <trkpt lat="39.634143" lon="3.104655">
        <ele>81.2</ele>
        <time>2016-04-18T10:34:42Z</time>
      </trkpt>
      <trkpt lat="39.634079" lon="3.104701">
        <ele>81.6</ele>
        <time>2016-04-18T10:34:43Z</time>
      </trkpt>
      <trkpt lat="39.63402" lon="3.104747">
        <ele>82</ele>
        <time>2016-04-18T10:34:44Z</time>
      </trkpt>
      <trkpt lat="39.633963" lon="3.104794">
        <ele>82.4</ele>
        <time>2016-04-18T10:34:45Z</time>
      </trkpt>
      <trkpt lat="39.633718" lon="3.104978">
        <ele>82.4</ele>
        <time>2016-04-18T10:34:49Z</time>
      </trkpt>
      <trkpt lat="39.63341" lon="3.105201">
        <ele>82.4</ele>
        <time>2016-04-18T10:34:54Z</time>
      </trkpt>
      <trkpt lat="39.633084" lon="3.105405">
        <ele>82.8</ele>
        <time>2016-04-18T10:34:59Z</time>
      </trkpt>
      <trkpt lat="39.633022" lon="3.105442">
        <ele>83.2</ele>
        <time>2016-04-18T10:35:00Z</time>
      </trkpt>
      <trkpt lat="39.63296" lon="3.105478">
        <ele>83.6</ele>
        <time>2016-04-18T10:35:01Z</time>
      </trkpt>
      <trkpt lat="39.632893" lon="3.105516">
        <ele>84</ele>
        <time>2016-04-18T10:35:02Z</time>
      </trkpt>
      <trkpt lat="39.632828" lon="3.105551">
        <ele>84.6</ele>
        <time>2016-04-18T10:35:03Z</time>
      </trkpt>
      <trkpt lat="39.632364" lon="3.105751">
        <ele>84.6</ele>
        <time>2016-04-18T10:35:10Z</time>
      </trkpt>
      <trkpt lat="39.631829" lon="3.105911">
        <ele>85</ele>
        <time>2016-04-18T10:35:18Z</time>
      </trkpt>
      <trkpt lat="39.631759" lon="3.105929">
        <ele>85.4</ele>
        <time>2016-04-18T10:35:19Z</time>
      </trkpt>
      <trkpt lat="39.631691" lon="3.105947">
        <ele>85.8</ele>
        <time>2016-04-18T10:35:20Z</time>
      </trkpt>
      <trkpt lat="39.631622" lon="3.105965">
        <ele>86.2</ele>
        <time>2016-04-18T10:35:21Z</time>
      </trkpt>
      <trkpt lat="39.631554" lon="3.105982">
        <ele>86.6</ele>
        <time>2016-04-18T10:35:22Z</time>
      </trkpt>
      <trkpt lat="39.631205" lon="3.106069">
        <ele>86.6</ele>
        <time>2016-04-18T10:35:27Z</time>
      </trkpt>
      <trkpt lat="39.630616" lon="3.106254">
        <ele>86.6</ele>
        <time>2016-04-18T10:35:35Z</time>
      </trkpt>
      <trkpt lat="39.63054" lon="3.106286">
        <ele>86.6</ele>
        <time>2016-04-18T10:35:36Z</time>
      </trkpt>
      <trkpt lat="39.630003" lon="3.10656">
        <ele>86.6</ele>
        <time>2016-04-18T10:35:43Z</time>
      </trkpt>
      <trkpt lat="39.629787" lon="3.106694">
        <ele>86.6</ele>
        <time>2016-04-18T10:35:46Z</time>
      </trkpt>
      <trkpt lat="39.629567" lon="3.106835">
        <ele>86.6</ele>
        <time>2016-04-18T10:35:49Z</time>
      </trkpt>
      <trkpt lat="39.629497" lon="3.106881">
        <ele>86.6</ele>
        <time>2016-04-18T10:35:50Z</time>
      </trkpt>
      <trkpt lat="39.629285" lon="3.107018">
        <ele>86.6</ele>
        <time>2016-04-18T10:35:53Z</time>
      </trkpt>
      <trkpt lat="39.629148" lon="3.107105">
        <ele>86.6</ele>
        <time>2016-04-18T10:35:55Z</time>
      </trkpt>
      <trkpt lat="39.629078" lon="3.107148">
        <ele>86.6</ele>
        <time>2016-04-18T10:35:56Z</time>
      </trkpt>
      <trkpt lat="39.629012" lon="3.107188">
        <ele>86.6</ele>
        <time>2016-04-18T10:35:57Z</time>
      </trkpt>
      <trkpt lat="39.628874" lon="3.107275">
        <ele>86.6</ele>
        <time>2016-04-18T10:35:59Z</time>
      </trkpt>
      <trkpt lat="39.628368" lon="3.107555">
        <ele>86.6</ele>
        <time>2016-04-18T10:36:06Z</time>
      </trkpt>
      <trkpt lat="39.628297" lon="3.107593">
        <ele>86.6</ele>
        <time>2016-04-18T10:36:07Z</time>
      </trkpt>
      <trkpt lat="39.628016" lon="3.107737">
        <ele>86.6</ele>
        <time>2016-04-18T10:36:11Z</time>
      </trkpt>
      <trkpt lat="39.627878" lon="3.107805">
        <ele>86.6</ele>
        <time>2016-04-18T10:36:13Z</time>
      </trkpt>
      <trkpt lat="39.627808" lon="3.107836">
        <ele>86.6</ele>
        <time>2016-04-18T10:36:14Z</time>
      </trkpt>
      <trkpt lat="39.627394" lon="3.108052">
        <ele>86.6</ele>
        <time>2016-04-18T10:36:20Z</time>
      </trkpt>
      <trkpt lat="39.627055" lon="3.10821">
        <ele>86.6</ele>
        <time>2016-04-18T10:36:25Z</time>
      </trkpt>
      <trkpt lat="39.626984" lon="3.108244">
        <ele>86.6</ele>
        <time>2016-04-18T10:36:26Z</time>
      </trkpt>
      <trkpt lat="39.62641" lon="3.108524">
        <ele>86.6</ele>
        <time>2016-04-18T10:36:34Z</time>
      </trkpt>
      <trkpt lat="39.625909" lon="3.108771">
        <ele>86.6</ele>
        <time>2016-04-18T10:36:41Z</time>
      </trkpt>
      <trkpt lat="39.62584" lon="3.108806">
        <ele>86.6</ele>
        <time>2016-04-18T10:36:42Z</time>
      </trkpt>
      <trkpt lat="39.62549" lon="3.108975">
        <ele>87</ele>
        <time>2016-04-18T10:36:47Z</time>
      </trkpt>
      <trkpt lat="39.62542" lon="3.109011">
        <ele>87.4</ele>
        <time>2016-04-18T10:36:48Z</time>
      </trkpt>
      <trkpt lat="39.625345" lon="3.109047">
        <ele>87.8</ele>
        <time>2016-04-18T10:36:49Z</time>
      </trkpt>
      <trkpt lat="39.625275" lon="3.109082">
        <ele>88.2</ele>
        <time>2016-04-18T10:36:50Z</time>
      </trkpt>
      <trkpt lat="39.625206" lon="3.109116">
        <ele>88.6</ele>
        <time>2016-04-18T10:36:51Z</time>
      </trkpt>
      <trkpt lat="39.625138" lon="3.10915">
        <ele>88.6</ele>
        <time>2016-04-18T10:36:52Z</time>
      </trkpt>
      <trkpt lat="39.624584" lon="3.109423">
        <ele>88.6</ele>
        <time>2016-04-18T10:37:00Z</time>
      </trkpt>
      <trkpt lat="39.624026" lon="3.10969">
        <ele>88.6</ele>
        <time>2016-04-18T10:37:08Z</time>
      </trkpt>
      <trkpt lat="39.623954" lon="3.109721">
        <ele>88.6</ele>
        <time>2016-04-18T10:37:09Z</time>
      </trkpt>
      <trkpt lat="39.623587" lon="3.109839">
        <ele>88.6</ele>
        <time>2016-04-18T10:37:14Z</time>
      </trkpt>
      <trkpt lat="39.623511" lon="3.109857">
        <ele>88.6</ele>
        <time>2016-04-18T10:37:15Z</time>
      </trkpt>
      <trkpt lat="39.622973" lon="3.109954">
        <ele>88.6</ele>
        <time>2016-04-18T10:37:22Z</time>
      </trkpt>
      <trkpt lat="39.622814" lon="3.109981">
        <ele>88.6</ele>
        <time>2016-04-18T10:37:24Z</time>
      </trkpt>
      <trkpt lat="39.622485" lon="3.110038">
        <ele>88.6</ele>
        <time>2016-04-18T10:37:28Z</time>
      </trkpt>
      <trkpt lat="39.622247" lon="3.110077">
        <ele>88.6</ele>
        <time>2016-04-18T10:37:31Z</time>
      </trkpt>
      <trkpt lat="39.622169" lon="3.110093">
        <ele>88.6</ele>
        <time>2016-04-18T10:37:32Z</time>
      </trkpt>
      <trkpt lat="39.621676" lon="3.110189">
        <ele>88.6</ele>
        <time>2016-04-18T10:37:38Z</time>
      </trkpt>
      <trkpt lat="39.621586" lon="3.110198">
        <ele>88.6</ele>
        <time>2016-04-18T10:37:39Z</time>
      </trkpt>
      <trkpt lat="39.62141" lon="3.110175">
        <ele>88.6</ele>
        <time>2016-04-18T10:37:41Z</time>
      </trkpt>
      <trkpt lat="39.621235" lon="3.110126">
        <ele>88.6</ele>
        <time>2016-04-18T10:37:43Z</time>
      </trkpt>
      <trkpt lat="39.620987" lon="3.110037">
        <ele>88.2</ele>
        <time>2016-04-18T10:37:46Z</time>
      </trkpt>
      <trkpt lat="39.620907" lon="3.110007">
        <ele>87.8</ele>
        <time>2016-04-18T10:37:47Z</time>
      </trkpt>
      <trkpt lat="39.620824" lon="3.109977">
        <ele>87.4</ele>
        <time>2016-04-18T10:37:48Z</time>
      </trkpt>
      <trkpt lat="39.620747" lon="3.109947">
        <ele>87</ele>
        <time>2016-04-18T10:37:49Z</time>
      </trkpt>
      <trkpt lat="39.620668" lon="3.10992">
        <ele>86.6</ele>
        <time>2016-04-18T10:37:50Z</time>
      </trkpt>
      <trkpt lat="39.620437" lon="3.109808">
        <ele>86.6</ele>
        <time>2016-04-18T10:37:53Z</time>
      </trkpt>
      <trkpt lat="39.620372" lon="3.109738">
        <ele>86.6</ele>
        <time>2016-04-18T10:37:54Z</time>
      </trkpt>
      <trkpt lat="39.620243" lon="3.1096">
        <ele>86.6</ele>
        <time>2016-04-18T10:37:56Z</time>
      </trkpt>
      <trkpt lat="39.62008" lon="3.109493">
        <ele>86.6</ele>
        <time>2016-04-18T10:37:58Z</time>
      </trkpt>
      <trkpt lat="39.619893" lon="3.109403">
        <ele>86.6</ele>
        <time>2016-04-18T10:38:00Z</time>
      </trkpt>
      <trkpt lat="39.619605" lon="3.109258">
        <ele>86.6</ele>
        <time>2016-04-18T10:38:03Z</time>
      </trkpt>
      <trkpt lat="39.619511" lon="3.109224">
        <ele>86.6</ele>
        <time>2016-04-18T10:38:04Z</time>
      </trkpt>
      <trkpt lat="39.619237" lon="3.109136">
        <ele>86.6</ele>
        <time>2016-04-18T10:38:07Z</time>
      </trkpt>
      <trkpt lat="39.619151" lon="3.109107">
        <ele>86.6</ele>
        <time>2016-04-18T10:38:08Z</time>
      </trkpt>
      <trkpt lat="39.618812" lon="3.108999">
        <ele>86.6</ele>
        <time>2016-04-18T10:38:12Z</time>
      </trkpt>
      <trkpt lat="39.618558" lon="3.108937">
        <ele>86.6</ele>
        <time>2016-04-18T10:38:15Z</time>
      </trkpt>
      <trkpt lat="39.618396" lon="3.108998">
        <ele>86.6</ele>
        <time>2016-04-18T10:38:17Z</time>
      </trkpt>
      <trkpt lat="39.618199" lon="3.109218">
        <ele>86.6</ele>
        <time>2016-04-18T10:38:20Z</time>
      </trkpt>
      <trkpt lat="39.617794" lon="3.109746">
        <ele>86.6</ele>
        <time>2016-04-18T10:38:27Z</time>
      </trkpt>
      <trkpt lat="39.617745" lon="3.109815">
        <ele>87</ele>
        <time>2016-04-18T10:38:28Z</time>
      </trkpt>
      <trkpt lat="39.617698" lon="3.109879">
        <ele>87.4</ele>
        <time>2016-04-18T10:38:29Z</time>
      </trkpt>
      <trkpt lat="39.617648" lon="3.109943">
        <ele>87.8</ele>
        <time>2016-04-18T10:38:30Z</time>
      </trkpt>
      <trkpt lat="39.617596" lon="3.110009">
        <ele>88.2</ele>
        <time>2016-04-18T10:38:31Z</time>
      </trkpt>
      <trkpt lat="39.617543" lon="3.110078">
        <ele>88.6</ele>
        <time>2016-04-18T10:38:32Z</time>
      </trkpt>
      <trkpt lat="39.617394" lon="3.110273">
        <ele>88.6</ele>
        <time>2016-04-18T10:38:35Z</time>
      </trkpt>
      <trkpt lat="39.617169" lon="3.110564">
        <ele>88.6</ele>
        <time>2016-04-18T10:38:40Z</time>
      </trkpt>
      <trkpt lat="39.617126" lon="3.110619">
        <ele>89</ele>
        <time>2016-04-18T10:38:41Z</time>
      </trkpt>
      <trkpt lat="39.617081" lon="3.110672">
        <ele>89.4</ele>
        <time>2016-04-18T10:38:42Z</time>
      </trkpt>
      <trkpt lat="39.617035" lon="3.110722">
        <ele>89.8</ele>
        <time>2016-04-18T10:38:43Z</time>
      </trkpt>
      <trkpt lat="39.616991" lon="3.110771">
        <ele>90.2</ele>
        <time>2016-04-18T10:38:44Z</time>
      </trkpt>
      <trkpt lat="39.616946" lon="3.110819">
        <ele>90.6</ele>
        <time>2016-04-18T10:38:45Z</time>
      </trkpt>
      <trkpt lat="39.616908" lon="3.110868">
        <ele>90.6</ele>
        <time>2016-04-18T10:38:46Z</time>
      </trkpt>
      <trkpt lat="39.616871" lon="3.110915">
        <ele>90.6</ele>
        <time>2016-04-18T10:38:47Z</time>
      </trkpt>
      <trkpt lat="39.616688" lon="3.111138">
        <ele>90.6</ele>
        <time>2016-04-18T10:38:52Z</time>
      </trkpt>
      <trkpt lat="39.61665" lon="3.111178">
        <ele>90.6</ele>
        <time>2016-04-18T10:38:53Z</time>
      </trkpt>
      <trkpt lat="39.616448" lon="3.111371">
        <ele>91</ele>
        <time>2016-04-18T10:38:58Z</time>
      </trkpt>
      <trkpt lat="39.616404" lon="3.111409">
        <ele>91.4</ele>
        <time>2016-04-18T10:38:59Z</time>
      </trkpt>
      <trkpt lat="39.616361" lon="3.111441">
        <ele>91.8</ele>
        <time>2016-04-18T10:39:00Z</time>
      </trkpt>
      <trkpt lat="39.616316" lon="3.111474">
        <ele>92.2</ele>
        <time>2016-04-18T10:39:01Z</time>
      </trkpt>
      <trkpt lat="39.616274" lon="3.111506">
        <ele>92.6</ele>
        <time>2016-04-18T10:39:02Z</time>
      </trkpt>
      <trkpt lat="39.616228" lon="3.111532">
        <ele>92.6</ele>
        <time>2016-04-18T10:39:03Z</time>
      </trkpt>
      <trkpt lat="39.616055" lon="3.11165">
        <ele>92.6</ele>
        <time>2016-04-18T10:39:07Z</time>
      </trkpt>
      <trkpt lat="39.615974" lon="3.111706">
        <ele>93</ele>
        <time>2016-04-18T10:39:09Z</time>
      </trkpt>
      <trkpt lat="39.615937" lon="3.111728">
        <ele>93.6</ele>
        <time>2016-04-18T10:39:10Z</time>
      </trkpt>
      <trkpt lat="39.6159" lon="3.111719">
        <ele>94</ele>
        <time>2016-04-18T10:39:11Z</time>
      </trkpt>
      <trkpt lat="39.615873" lon="3.111691">
        <ele>94.4</ele>
        <time>2016-04-18T10:39:12Z</time>
      </trkpt>
      <trkpt lat="39.615849" lon="3.111651">
        <ele>94.8</ele>
        <time>2016-04-18T10:39:13Z</time>
      </trkpt>
      <trkpt lat="39.615831" lon="3.11161">
        <ele>94.8</ele>
        <time>2016-04-18T10:39:14Z</time>
      </trkpt>
      <trkpt lat="39.615813" lon="3.11156">
        <ele>94.8</ele>
        <time>2016-04-18T10:39:15Z</time>
      </trkpt>
      <trkpt lat="39.615787" lon="3.11151">
        <ele>94.8</ele>
        <time>2016-04-18T10:39:16Z</time>
      </trkpt>
      <trkpt lat="39.615716" lon="3.111386">
        <ele>94.8</ele>
        <time>2016-04-18T10:39:18Z</time>
      </trkpt>
      <trkpt lat="39.615606" lon="3.11119">
        <ele>94.8</ele>
        <time>2016-04-18T10:39:21Z</time>
      </trkpt>
      <trkpt lat="39.615575" lon="3.111123">
        <ele>94.8</ele>
        <time>2016-04-18T10:39:22Z</time>
      </trkpt>
      <trkpt lat="39.615512" lon="3.110994">
        <ele>94.8</ele>
        <time>2016-04-18T10:39:24Z</time>
      </trkpt>
      <trkpt lat="39.615299" lon="3.110495">
        <ele>94.8</ele>
        <time>2016-04-18T10:39:31Z</time>
      </trkpt>
      <trkpt lat="39.615188" lon="3.110178">
        <ele>94.8</ele>
        <time>2016-04-18T10:39:35Z</time>
      </trkpt>
      <trkpt lat="39.615159" lon="3.110094">
        <ele>94.8</ele>
        <time>2016-04-18T10:39:36Z</time>
      </trkpt>
      <trkpt lat="39.615095" lon="3.109932">
        <ele>94.8</ele>
        <time>2016-04-18T10:39:38Z</time>
      </trkpt>
      <trkpt lat="39.615003" lon="3.109865">
        <ele>94.8</ele>
        <time>2016-04-18T10:39:40Z</time>
      </trkpt>
      <trkpt lat="39.614835" lon="3.109897">
        <ele>94.8</ele>
        <time>2016-04-18T10:39:43Z</time>
      </trkpt>
      <trkpt lat="39.614779" lon="3.109915">
        <ele>94.8</ele>
        <time>2016-04-18T10:39:44Z</time>
      </trkpt>
      <trkpt lat="39.614662" lon="3.109952">
        <ele>94.8</ele>
        <time>2016-04-18T10:39:46Z</time>
      </trkpt>
      <trkpt lat="39.614436" lon="3.110001">
        <ele>94.8</ele>
        <time>2016-04-18T10:39:50Z</time>
      </trkpt>
      <trkpt lat="39.614258" lon="3.110017">
        <ele>94.8</ele>
        <time>2016-04-18T10:39:53Z</time>
      </trkpt>
      <trkpt lat="39.614171" lon="3.110045">
        <ele>94.8</ele>
        <time>2016-04-18T10:39:55Z</time>
      </trkpt>
      <trkpt lat="39.614054" lon="3.110076">
        <ele>94.8</ele>
        <time>2016-04-18T10:39:59Z</time>
      </trkpt>
      <trkpt lat="39.61386" lon="3.110142">
        <ele>94.8</ele>
        <time>2016-04-18T10:40:04Z</time>
      </trkpt>
      <trkpt lat="39.613813" lon="3.110166">
        <ele>94.8</ele>
        <time>2016-04-18T10:40:05Z</time>
      </trkpt>
      <trkpt lat="39.613682" lon="3.11021">
        <ele>94.8</ele>
        <time>2016-04-18T10:40:08Z</time>
      </trkpt>
      <trkpt lat="39.613558" lon="3.110252">
        <ele>95.2</ele>
        <time>2016-04-18T10:40:11Z</time>
      </trkpt>
      <trkpt lat="39.613517" lon="3.110264">
        <ele>95.6</ele>
        <time>2016-04-18T10:40:12Z</time>
      </trkpt>
      <trkpt lat="39.613475" lon="3.110277">
        <ele>96</ele>
        <time>2016-04-18T10:40:13Z</time>
      </trkpt>
      <trkpt lat="39.613433" lon="3.110292">
        <ele>96.4</ele>
        <time>2016-04-18T10:40:14Z</time>
      </trkpt>
      <trkpt lat="39.613393" lon="3.110308">
        <ele>96.8</ele>
        <time>2016-04-18T10:40:15Z</time>
      </trkpt>
      <trkpt lat="39.613178" lon="3.110373">
        <ele>96.8</ele>
        <time>2016-04-18T10:40:20Z</time>
      </trkpt>
      <trkpt lat="39.613131" lon="3.110379">
        <ele>96.8</ele>
        <time>2016-04-18T10:40:21Z</time>
      </trkpt>
      <trkpt lat="39.613051" lon="3.1104">
        <ele>97.2</ele>
        <time>2016-04-18T10:40:23Z</time>
      </trkpt>
      <trkpt lat="39.613018" lon="3.110412">
        <ele>97.6</ele>
        <time>2016-04-18T10:40:24Z</time>
      </trkpt>
      <trkpt lat="39.612983" lon="3.110433">
        <ele>98</ele>
        <time>2016-04-18T10:40:25Z</time>
      </trkpt>
      <trkpt lat="39.612941" lon="3.110435">
        <ele>98.4</ele>
        <time>2016-04-18T10:40:26Z</time>
      </trkpt>
      <trkpt lat="39.612897" lon="3.110433">
        <ele>98.8</ele>
        <time>2016-04-18T10:40:27Z</time>
      </trkpt>
      <trkpt lat="39.612733" lon="3.110443">
        <ele>98.8</ele>
        <time>2016-04-18T10:40:31Z</time>
      </trkpt>
      <trkpt lat="39.6127" lon="3.110453">
        <ele>98.8</ele>
        <time>2016-04-18T10:40:32Z</time>
      </trkpt>
      <trkpt lat="39.612618" lon="3.110483">
        <ele>99.4</ele>
        <time>2016-04-18T10:40:34Z</time>
      </trkpt>
      <trkpt lat="39.612578" lon="3.110494">
        <ele>99.8</ele>
        <time>2016-04-18T10:40:35Z</time>
      </trkpt>
      <trkpt lat="39.612534" lon="3.110508">
        <ele>100.2</ele>
        <time>2016-04-18T10:40:36Z</time>
      </trkpt>
      <trkpt lat="39.61249" lon="3.110529">
        <ele>100.6</ele>
        <time>2016-04-18T10:40:37Z</time>
      </trkpt>
      <trkpt lat="39.612447" lon="3.110546">
        <ele>101</ele>
        <time>2016-04-18T10:40:38Z</time>
      </trkpt>
      <trkpt lat="39.612307" lon="3.11059">
        <ele>101</ele>
        <time>2016-04-18T10:40:41Z</time>
      </trkpt>
      <trkpt lat="39.612211" lon="3.110621">
        <ele>101</ele>
        <time>2016-04-18T10:40:43Z</time>
      </trkpt>
      <trkpt lat="39.612166" lon="3.110631">
        <ele>101.4</ele>
        <time>2016-04-18T10:40:44Z</time>
      </trkpt>
      <trkpt lat="39.612126" lon="3.110632">
        <ele>101.8</ele>
        <time>2016-04-18T10:40:45Z</time>
      </trkpt>
      <trkpt lat="39.612088" lon="3.110642">
        <ele>102.2</ele>
        <time>2016-04-18T10:40:46Z</time>
      </trkpt>
      <trkpt lat="39.612038" lon="3.110644">
        <ele>102.6</ele>
        <time>2016-04-18T10:40:47Z</time>
      </trkpt>
      <trkpt lat="39.611995" lon="3.110639">
        <ele>103</ele>
        <time>2016-04-18T10:40:48Z</time>
      </trkpt>
      <trkpt lat="39.611814" lon="3.110602">
        <ele>103</ele>
        <time>2016-04-18T10:40:52Z</time>
      </trkpt>
      <trkpt lat="39.611728" lon="3.110552">
        <ele>103</ele>
        <time>2016-04-18T10:40:54Z</time>
      </trkpt>
      <trkpt lat="39.611461" lon="3.110388">
        <ele>103</ele>
        <time>2016-04-18T10:40:59Z</time>
      </trkpt>
      <trkpt lat="39.611397" lon="3.110375">
        <ele>103</ele>
        <time>2016-04-18T10:41:00Z</time>
      </trkpt>
      <trkpt lat="39.611147" lon="3.11039">
        <ele>103</ele>
        <time>2016-04-18T10:41:04Z</time>
      </trkpt>
      <trkpt lat="39.611018" lon="3.110376">
        <ele>103</ele>
        <time>2016-04-18T10:41:06Z</time>
      </trkpt>
      <trkpt lat="39.610646" lon="3.110402">
        <ele>103</ele>
        <time>2016-04-18T10:41:12Z</time>
      </trkpt>
      <trkpt lat="39.610476" lon="3.110431">
        <ele>103</ele>
        <time>2016-04-18T10:41:15Z</time>
      </trkpt>
      <trkpt lat="39.610323" lon="3.11047">
        <ele>103</ele>
        <time>2016-04-18T10:41:18Z</time>
      </trkpt>
      <trkpt lat="39.610125" lon="3.110532">
        <ele>103.4</ele>
        <time>2016-04-18T10:41:22Z</time>
      </trkpt>
      <trkpt lat="39.610072" lon="3.11054">
        <ele>104</ele>
        <time>2016-04-18T10:41:23Z</time>
      </trkpt>
      <trkpt lat="39.610019" lon="3.110547">
        <ele>104.4</ele>
        <time>2016-04-18T10:41:24Z</time>
      </trkpt>
      <trkpt lat="39.609968" lon="3.110556">
        <ele>104.8</ele>
        <time>2016-04-18T10:41:25Z</time>
      </trkpt>
      <trkpt lat="39.609917" lon="3.110565">
        <ele>105.2</ele>
        <time>2016-04-18T10:41:26Z</time>
      </trkpt>
      <trkpt lat="39.609867" lon="3.110574">
        <ele>105.2</ele>
        <time>2016-04-18T10:41:27Z</time>
      </trkpt>
      <trkpt lat="39.609819" lon="3.110598">
        <ele>105.2</ele>
        <time>2016-04-18T10:41:28Z</time>
      </trkpt>
      <trkpt lat="39.609659" lon="3.110627">
        <ele>105.2</ele>
        <time>2016-04-18T10:41:31Z</time>
      </trkpt>
      <trkpt lat="39.609554" lon="3.110636">
        <ele>105.2</ele>
        <time>2016-04-18T10:41:33Z</time>
      </trkpt>
      <trkpt lat="39.609502" lon="3.110634">
        <ele>105.6</ele>
        <time>2016-04-18T10:41:34Z</time>
      </trkpt>
      <trkpt lat="39.60945" lon="3.110628">
        <ele>106.2</ele>
        <time>2016-04-18T10:41:35Z</time>
      </trkpt>
      <trkpt lat="39.6094" lon="3.110619">
        <ele>106.6</ele>
        <time>2016-04-18T10:41:36Z</time>
      </trkpt>
      <trkpt lat="39.609349" lon="3.110614">
        <ele>107</ele>
        <time>2016-04-18T10:41:37Z</time>
      </trkpt>
      <trkpt lat="39.609298" lon="3.11061">
        <ele>107.4</ele>
        <time>2016-04-18T10:41:38Z</time>
      </trkpt>
      <trkpt lat="39.609063" lon="3.110558">
        <ele>107.8</ele>
        <time>2016-04-18T10:41:43Z</time>
      </trkpt>
      <trkpt lat="39.609024" lon="3.110533">
        <ele>108.4</ele>
        <time>2016-04-18T10:41:44Z</time>
      </trkpt>
      <trkpt lat="39.608988" lon="3.110505">
        <ele>108.8</ele>
        <time>2016-04-18T10:41:45Z</time>
      </trkpt>
      <trkpt lat="39.608949" lon="3.110479">
        <ele>109.2</ele>
        <time>2016-04-18T10:41:46Z</time>
      </trkpt>
      <trkpt lat="39.60891" lon="3.110452">
        <ele>109.6</ele>
        <time>2016-04-18T10:41:47Z</time>
      </trkpt>
      <trkpt lat="39.608801" lon="3.110387">
        <ele>110</ele>
        <time>2016-04-18T10:41:50Z</time>
      </trkpt>
      <trkpt lat="39.608766" lon="3.110365">
        <ele>110.6</ele>
        <time>2016-04-18T10:41:51Z</time>
      </trkpt>
      <trkpt lat="39.608734" lon="3.110343">
        <ele>111</ele>
        <time>2016-04-18T10:41:52Z</time>
      </trkpt>
      <trkpt lat="39.608702" lon="3.110323">
        <ele>111.4</ele>
        <time>2016-04-18T10:41:53Z</time>
      </trkpt>
      <trkpt lat="39.608664" lon="3.110307">
        <ele>111.8</ele>
        <time>2016-04-18T10:41:54Z</time>
      </trkpt>
      <trkpt lat="39.608555" lon="3.110254">
        <ele>112.4</ele>
        <time>2016-04-18T10:41:57Z</time>
      </trkpt>
      <trkpt lat="39.608519" lon="3.110237">
        <ele>112.8</ele>
        <time>2016-04-18T10:41:58Z</time>
      </trkpt>
      <trkpt lat="39.608481" lon="3.110219">
        <ele>113.2</ele>
        <time>2016-04-18T10:41:59Z</time>
      </trkpt>
      <trkpt lat="39.608445" lon="3.110197">
        <ele>113.8</ele>
        <time>2016-04-18T10:42:00Z</time>
      </trkpt>
      <trkpt lat="39.60841" lon="3.110174">
        <ele>114.2</ele>
        <time>2016-04-18T10:42:01Z</time>
      </trkpt>
      <trkpt lat="39.608306" lon="3.110077">
        <ele>114.2</ele>
        <time>2016-04-18T10:42:04Z</time>
      </trkpt>
      <trkpt lat="39.608238" lon="3.109939">
        <ele>114.6</ele>
        <time>2016-04-18T10:42:07Z</time>
      </trkpt>
      <trkpt lat="39.608219" lon="3.10989">
        <ele>115</ele>
        <time>2016-04-18T10:42:08Z</time>
      </trkpt>
      <trkpt lat="39.608195" lon="3.109845">
        <ele>115.4</ele>
        <time>2016-04-18T10:42:09Z</time>
      </trkpt>
      <trkpt lat="39.60817" lon="3.109795">
        <ele>115.8</ele>
        <time>2016-04-18T10:42:10Z</time>
      </trkpt>
      <trkpt lat="39.608147" lon="3.109749">
        <ele>116.2</ele>
        <time>2016-04-18T10:42:11Z</time>
      </trkpt>
      <trkpt lat="39.607993" lon="3.109478">
        <ele>116.2</ele>
        <time>2016-04-18T10:42:17Z</time>
      </trkpt>
      <trkpt lat="39.607921" lon="3.109425">
        <ele>116.2</ele>
        <time>2016-04-18T10:42:19Z</time>
      </trkpt>
      <trkpt lat="39.60788" lon="3.109407">
        <ele>116.8</ele>
        <time>2016-04-18T10:42:20Z</time>
      </trkpt>
      <trkpt lat="39.607838" lon="3.109394">
        <ele>117.2</ele>
        <time>2016-04-18T10:42:21Z</time>
      </trkpt>
      <trkpt lat="39.607794" lon="3.109382">
        <ele>118</ele>
        <time>2016-04-18T10:42:22Z</time>
      </trkpt>
      <trkpt lat="39.607752" lon="3.109366">
        <ele>118.4</ele>
        <time>2016-04-18T10:42:23Z</time>
      </trkpt>
      <trkpt lat="39.607623" lon="3.10932">
        <ele>118.4</ele>
        <time>2016-04-18T10:42:26Z</time>
      </trkpt>
      <trkpt lat="39.60754" lon="3.109291">
        <ele>118.8</ele>
        <time>2016-04-18T10:42:28Z</time>
      </trkpt>
      <trkpt lat="39.607497" lon="3.109278">
        <ele>119.2</ele>
        <time>2016-04-18T10:42:29Z</time>
      </trkpt>
      <trkpt lat="39.607455" lon="3.109264">
        <ele>119.6</ele>
        <time>2016-04-18T10:42:30Z</time>
      </trkpt>
      <trkpt lat="39.607415" lon="3.109248">
        <ele>120</ele>
        <time>2016-04-18T10:42:31Z</time>
      </trkpt>
      <trkpt lat="39.60737" lon="3.109228">
        <ele>120.4</ele>
        <time>2016-04-18T10:42:32Z</time>
      </trkpt>
      <trkpt lat="39.607281" lon="3.109187">
        <ele>120.4</ele>
        <time>2016-04-18T10:42:34Z</time>
      </trkpt>
      <trkpt lat="39.607194" lon="3.109123">
        <ele>120.4</ele>
        <time>2016-04-18T10:42:36Z</time>
      </trkpt>
      <trkpt lat="39.607074" lon="3.108989">
        <ele>120.4</ele>
        <time>2016-04-18T10:42:39Z</time>
      </trkpt>
      <trkpt lat="39.60676" lon="3.108589">
        <ele>120.4</ele>
        <time>2016-04-18T10:42:47Z</time>
      </trkpt>
      <trkpt lat="39.606593" lon="3.108374">
        <ele>120.4</ele>
        <time>2016-04-18T10:42:51Z</time>
      </trkpt>
      <trkpt lat="39.606507" lon="3.108253">
        <ele>120.4</ele>
        <time>2016-04-18T10:42:53Z</time>
      </trkpt>
      <trkpt lat="39.60646" lon="3.108188">
        <ele>120.4</ele>
        <time>2016-04-18T10:42:54Z</time>
      </trkpt>
      <trkpt lat="39.606255" lon="3.107899">
        <ele>120.4</ele>
        <time>2016-04-18T10:42:58Z</time>
      </trkpt>
      <trkpt lat="39.6062" lon="3.107826">
        <ele>120</ele>
        <time>2016-04-18T10:42:59Z</time>
      </trkpt>
      <trkpt lat="39.606139" lon="3.107762">
        <ele>119.6</ele>
        <time>2016-04-18T10:43:00Z</time>
      </trkpt>
      <trkpt lat="39.606066" lon="3.107726">
        <ele>119.2</ele>
        <time>2016-04-18T10:43:01Z</time>
      </trkpt>
      <trkpt lat="39.605988" lon="3.107722">
        <ele>118.8</ele>
        <time>2016-04-18T10:43:02Z</time>
      </trkpt>
      <trkpt lat="39.605909" lon="3.10775">
        <ele>118.4</ele>
        <time>2016-04-18T10:43:03Z</time>
      </trkpt>
      <trkpt lat="39.605778" lon="3.107827">
        <ele>118.4</ele>
        <time>2016-04-18T10:43:05Z</time>
      </trkpt>
      <trkpt lat="39.605708" lon="3.10783">
        <ele>118.4</ele>
        <time>2016-04-18T10:43:06Z</time>
      </trkpt>
      <trkpt lat="39.605639" lon="3.107797">
        <ele>118.4</ele>
        <time>2016-04-18T10:43:07Z</time>
      </trkpt>
      <trkpt lat="39.605505" lon="3.107589">
        <ele>118.4</ele>
        <time>2016-04-18T10:43:10Z</time>
      </trkpt>
      <trkpt lat="39.605459" lon="3.107451">
        <ele>118.4</ele>
        <time>2016-04-18T10:43:12Z</time>
      </trkpt>
      <trkpt lat="39.605435" lon="3.107392">
        <ele>118.8</ele>
        <time>2016-04-18T10:43:13Z</time>
      </trkpt>
      <trkpt lat="39.605411" lon="3.107337">
        <ele>119.2</ele>
        <time>2016-04-18T10:43:14Z</time>
      </trkpt>
      <trkpt lat="39.605386" lon="3.107286">
        <ele>119.6</ele>
        <time>2016-04-18T10:43:15Z</time>
      </trkpt>
      <trkpt lat="39.605363" lon="3.107232">
        <ele>120</ele>
        <time>2016-04-18T10:43:16Z</time>
      </trkpt>
      <trkpt lat="39.605343" lon="3.107186">
        <ele>120.4</ele>
        <time>2016-04-18T10:43:17Z</time>
      </trkpt>
      <trkpt lat="39.605322" lon="3.107129">
        <ele>120.8</ele>
        <time>2016-04-18T10:43:18Z</time>
      </trkpt>
      <trkpt lat="39.605304" lon="3.107078">
        <ele>121.4</ele>
        <time>2016-04-18T10:43:19Z</time>
      </trkpt>
      <trkpt lat="39.605285" lon="3.107028">
        <ele>121.8</ele>
        <time>2016-04-18T10:43:20Z</time>
      </trkpt>
      <trkpt lat="39.605266" lon="3.106976">
        <ele>122.2</ele>
        <time>2016-04-18T10:43:21Z</time>
      </trkpt>
      <trkpt lat="39.605247" lon="3.10692">
        <ele>122.6</ele>
        <time>2016-04-18T10:43:22Z</time>
      </trkpt>
      <trkpt lat="39.605186" lon="3.106758">
        <ele>122.6</ele>
        <time>2016-04-18T10:43:25Z</time>
      </trkpt>
      <trkpt lat="39.605111" lon="3.106594">
        <ele>122.6</ele>
        <time>2016-04-18T10:43:28Z</time>
      </trkpt>
      <trkpt lat="39.605088" lon="3.106538">
        <ele>123</ele>
        <time>2016-04-18T10:43:29Z</time>
      </trkpt>
      <trkpt lat="39.605063" lon="3.106482">
        <ele>123.6</ele>
        <time>2016-04-18T10:43:30Z</time>
      </trkpt>
      <trkpt lat="39.605037" lon="3.10643">
        <ele>124</ele>
        <time>2016-04-18T10:43:31Z</time>
      </trkpt>
      <trkpt lat="39.605011" lon="3.106372">
        <ele>124.4</ele>
        <time>2016-04-18T10:43:32Z</time>
      </trkpt>
      <trkpt lat="39.604988" lon="3.106314">
        <ele>124.8</ele>
        <time>2016-04-18T10:43:33Z</time>
      </trkpt>
      <trkpt lat="39.604909" lon="3.106102">
        <ele>124.8</ele>
        <time>2016-04-18T10:43:37Z</time>
      </trkpt>
      <trkpt lat="39.604861" lon="3.106">
        <ele>125.2</ele>
        <time>2016-04-18T10:43:39Z</time>
      </trkpt>
      <trkpt lat="39.604838" lon="3.105944">
        <ele>125.6</ele>
        <time>2016-04-18T10:43:40Z</time>
      </trkpt>
      <trkpt lat="39.604815" lon="3.105892">
        <ele>126</ele>
        <time>2016-04-18T10:43:41Z</time>
      </trkpt>
      <trkpt lat="39.604793" lon="3.105839">
        <ele>126.6</ele>
        <time>2016-04-18T10:43:42Z</time>
      </trkpt>
      <trkpt lat="39.604771" lon="3.105786">
        <ele>127</ele>
        <time>2016-04-18T10:43:43Z</time>
      </trkpt>
      <trkpt lat="39.604727" lon="3.105676">
        <ele>127</ele>
        <time>2016-04-18T10:43:45Z</time>
      </trkpt>
      <trkpt lat="39.604685" lon="3.105577">
        <ele>127</ele>
        <time>2016-04-18T10:43:47Z</time>
      </trkpt>
      <trkpt lat="39.604647" lon="3.105486">
        <ele>127.4</ele>
        <time>2016-04-18T10:43:49Z</time>
      </trkpt>
      <trkpt lat="39.604629" lon="3.105441">
        <ele>127.8</ele>
        <time>2016-04-18T10:43:50Z</time>
      </trkpt>
      <trkpt lat="39.60461" lon="3.105393">
        <ele>128.2</ele>
        <time>2016-04-18T10:43:51Z</time>
      </trkpt>
      <trkpt lat="39.604591" lon="3.105346">
        <ele>128.6</ele>
        <time>2016-04-18T10:43:52Z</time>
      </trkpt>
      <trkpt lat="39.604572" lon="3.105299">
        <ele>129</ele>
        <time>2016-04-18T10:43:53Z</time>
      </trkpt>
      <trkpt lat="39.60453" lon="3.105198">
        <ele>129</ele>
        <time>2016-04-18T10:43:55Z</time>
      </trkpt>
      <trkpt lat="39.604422" lon="3.104904">
        <ele>129.4</ele>
        <time>2016-04-18T10:44:01Z</time>
      </trkpt>
      <trkpt lat="39.604405" lon="3.104856">
        <ele>129.8</ele>
        <time>2016-04-18T10:44:02Z</time>
      </trkpt>
      <trkpt lat="39.604385" lon="3.104806">
        <ele>130.4</ele>
        <time>2016-04-18T10:44:03Z</time>
      </trkpt>
      <trkpt lat="39.604366" lon="3.104757">
        <ele>130.8</ele>
        <time>2016-04-18T10:44:04Z</time>
      </trkpt>
      <trkpt lat="39.604348" lon="3.104706">
        <ele>131.2</ele>
        <time>2016-04-18T10:44:05Z</time>
      </trkpt>
      <trkpt lat="39.60426" lon="3.104479">
        <ele>131.6</ele>
        <time>2016-04-18T10:44:10Z</time>
      </trkpt>
      <trkpt lat="39.604241" lon="3.104434">
        <ele>132</ele>
        <time>2016-04-18T10:44:11Z</time>
      </trkpt>
      <trkpt lat="39.604224" lon="3.104392">
        <ele>132.4</ele>
        <time>2016-04-18T10:44:12Z</time>
      </trkpt>
      <trkpt lat="39.604208" lon="3.10435">
        <ele>132.8</ele>
        <time>2016-04-18T10:44:13Z</time>
      </trkpt>
      <trkpt lat="39.604192" lon="3.104308">
        <ele>133.4</ele>
        <time>2016-04-18T10:44:14Z</time>
      </trkpt>
      <trkpt lat="39.604134" lon="3.104139">
        <ele>133.8</ele>
        <time>2016-04-18T10:44:18Z</time>
      </trkpt>
      <trkpt lat="39.604119" lon="3.104097">
        <ele>134.2</ele>
        <time>2016-04-18T10:44:19Z</time>
      </trkpt>
      <trkpt lat="39.604101" lon="3.10406">
        <ele>134.8</ele>
        <time>2016-04-18T10:44:20Z</time>
      </trkpt>
      <trkpt lat="39.604085" lon="3.104022">
        <ele>135.2</ele>
        <time>2016-04-18T10:44:21Z</time>
      </trkpt>
      <trkpt lat="39.604071" lon="3.103984">
        <ele>135.6</ele>
        <time>2016-04-18T10:44:22Z</time>
      </trkpt>
      <trkpt lat="39.604043" lon="3.103904">
        <ele>136.2</ele>
        <time>2016-04-18T10:44:24Z</time>
      </trkpt>
      <trkpt lat="39.604029" lon="3.103858">
        <ele>136.6</ele>
        <time>2016-04-18T10:44:25Z</time>
      </trkpt>
      <trkpt lat="39.604012" lon="3.103815">
        <ele>137.4</ele>
        <time>2016-04-18T10:44:26Z</time>
      </trkpt>
      <trkpt lat="39.604" lon="3.103772">
        <ele>137.8</ele>
        <time>2016-04-18T10:44:27Z</time>
      </trkpt>
      <trkpt lat="39.603913" lon="3.103554">
        <ele>137.8</ele>
        <time>2016-04-18T10:44:32Z</time>
      </trkpt>
      <trkpt lat="39.603766" lon="3.103194">
        <ele>137.8</ele>
        <time>2016-04-18T10:44:39Z</time>
      </trkpt>
      <trkpt lat="39.603673" lon="3.102972">
        <ele>137.8</ele>
        <time>2016-04-18T10:44:43Z</time>
      </trkpt>
      <trkpt lat="39.603648" lon="3.10292">
        <ele>137.8</ele>
        <time>2016-04-18T10:44:44Z</time>
      </trkpt>
      <trkpt lat="39.603622" lon="3.102863">
        <ele>137.8</ele>
        <time>2016-04-18T10:44:45Z</time>
      </trkpt>
      <trkpt lat="39.603536" lon="3.102681">
        <ele>137.8</ele>
        <time>2016-04-18T10:44:48Z</time>
      </trkpt>
      <trkpt lat="39.603453" lon="3.102496">
        <ele>137.8</ele>
        <time>2016-04-18T10:44:51Z</time>
      </trkpt>
      <trkpt lat="39.603425" lon="3.102436">
        <ele>137.8</ele>
        <time>2016-04-18T10:44:52Z</time>
      </trkpt>
      <trkpt lat="39.603214" lon="3.101949">
        <ele>137.8</ele>
        <time>2016-04-18T10:45:00Z</time>
      </trkpt>
      <trkpt lat="39.603168" lon="3.101849">
        <ele>137.8</ele>
        <time>2016-04-18T10:45:02Z</time>
      </trkpt>
      <trkpt lat="39.603124" lon="3.101759">
        <ele>138.4</ele>
        <time>2016-04-18T10:45:04Z</time>
      </trkpt>
      <trkpt lat="39.60311" lon="3.101717">
        <ele>138.8</ele>
        <time>2016-04-18T10:45:05Z</time>
      </trkpt>
      <trkpt lat="39.60309" lon="3.101676">
        <ele>139.4</ele>
        <time>2016-04-18T10:45:06Z</time>
      </trkpt>
      <trkpt lat="39.603071" lon="3.101637">
        <ele>139.8</ele>
        <time>2016-04-18T10:45:07Z</time>
      </trkpt>
      <trkpt lat="39.603053" lon="3.101598">
        <ele>140.2</ele>
        <time>2016-04-18T10:45:08Z</time>
      </trkpt>
      <trkpt lat="39.603" lon="3.101482">
        <ele>140.8</ele>
        <time>2016-04-18T10:45:11Z</time>
      </trkpt>
      <trkpt lat="39.602983" lon="3.101445">
        <ele>141.2</ele>
        <time>2016-04-18T10:45:12Z</time>
      </trkpt>
      <trkpt lat="39.60296" lon="3.10141">
        <ele>141.6</ele>
        <time>2016-04-18T10:45:13Z</time>
      </trkpt>
      <trkpt lat="39.602947" lon="3.101379">
        <ele>142</ele>
        <time>2016-04-18T10:45:14Z</time>
      </trkpt>
      <trkpt lat="39.602934" lon="3.101351">
        <ele>142.6</ele>
        <time>2016-04-18T10:45:15Z</time>
      </trkpt>
      <trkpt lat="39.60292" lon="3.101318">
        <ele>143</ele>
        <time>2016-04-18T10:45:16Z</time>
      </trkpt>
      <trkpt lat="39.602912" lon="3.101289">
        <ele>143.4</ele>
        <time>2016-04-18T10:45:17Z</time>
      </trkpt>
      <trkpt lat="39.602896" lon="3.101255">
        <ele>143.8</ele>
        <time>2016-04-18T10:45:18Z</time>
      </trkpt>
      <trkpt lat="39.602879" lon="3.101216">
        <ele>144.2</ele>
        <time>2016-04-18T10:45:19Z</time>
      </trkpt>
      <trkpt lat="39.602861" lon="3.101176">
        <ele>144.6</ele>
        <time>2016-04-18T10:45:20Z</time>
      </trkpt>
      <trkpt lat="39.602818" lon="3.101099">
        <ele>144.6</ele>
        <time>2016-04-18T10:45:22Z</time>
      </trkpt>
      <trkpt lat="39.602799" lon="3.101062">
        <ele>145</ele>
        <time>2016-04-18T10:45:23Z</time>
      </trkpt>
      <trkpt lat="39.60278" lon="3.101021">
        <ele>145.4</ele>
        <time>2016-04-18T10:45:24Z</time>
      </trkpt>
      <trkpt lat="39.60276" lon="3.100983">
        <ele>146</ele>
        <time>2016-04-18T10:45:25Z</time>
      </trkpt>
      <trkpt lat="39.602741" lon="3.100942">
        <ele>146.4</ele>
        <time>2016-04-18T10:45:26Z</time>
      </trkpt>
      <trkpt lat="39.602721" lon="3.1009">
        <ele>146.8</ele>
        <time>2016-04-18T10:45:27Z</time>
      </trkpt>
      <trkpt lat="39.60266" lon="3.100785">
        <ele>146.8</ele>
        <time>2016-04-18T10:45:30Z</time>
      </trkpt>
      <trkpt lat="39.602641" lon="3.100745">
        <ele>147.2</ele>
        <time>2016-04-18T10:45:31Z</time>
      </trkpt>
      <trkpt lat="39.60262" lon="3.100708">
        <ele>147.6</ele>
        <time>2016-04-18T10:45:32Z</time>
      </trkpt>
      <trkpt lat="39.602599" lon="3.100667">
        <ele>148</ele>
        <time>2016-04-18T10:45:33Z</time>
      </trkpt>
      <trkpt lat="39.602578" lon="3.100624">
        <ele>148.6</ele>
        <time>2016-04-18T10:45:34Z</time>
      </trkpt>
      <trkpt lat="39.602557" lon="3.100579">
        <ele>149</ele>
        <time>2016-04-18T10:45:35Z</time>
      </trkpt>
      <trkpt lat="39.602491" lon="3.100452">
        <ele>149</ele>
        <time>2016-04-18T10:45:38Z</time>
      </trkpt>
      <trkpt lat="39.602366" lon="3.100197">
        <ele>149.4</ele>
        <time>2016-04-18T10:45:43Z</time>
      </trkpt>
      <trkpt lat="39.60234" lon="3.100143">
        <ele>149.8</ele>
        <time>2016-04-18T10:45:44Z</time>
      </trkpt>
      <trkpt lat="39.602311" lon="3.10009">
        <ele>150.2</ele>
        <time>2016-04-18T10:45:45Z</time>
      </trkpt>
      <trkpt lat="39.602282" lon="3.100031">
        <ele>150.6</ele>
        <time>2016-04-18T10:45:46Z</time>
      </trkpt>
      <trkpt lat="39.602252" lon="3.099966">
        <ele>151</ele>
        <time>2016-04-18T10:45:47Z</time>
      </trkpt>
      <trkpt lat="39.602113" lon="3.099707">
        <ele>151</ele>
        <time>2016-04-18T10:45:51Z</time>
      </trkpt>
      <trkpt lat="39.602036" lon="3.099555">
        <ele>150.6</ele>
        <time>2016-04-18T10:45:53Z</time>
      </trkpt>
      <trkpt lat="39.601994" lon="3.099471">
        <ele>150.2</ele>
        <time>2016-04-18T10:45:54Z</time>
      </trkpt>
      <trkpt lat="39.601951" lon="3.099388">
        <ele>149.6</ele>
        <time>2016-04-18T10:45:55Z</time>
      </trkpt>
      <trkpt lat="39.60191" lon="3.099301">
        <ele>149.2</ele>
        <time>2016-04-18T10:45:56Z</time>
      </trkpt>
      <trkpt lat="39.601866" lon="3.099209">
        <ele>148.8</ele>
        <time>2016-04-18T10:45:57Z</time>
      </trkpt>
      <trkpt lat="39.601822" lon="3.09911">
        <ele>148.2</ele>
        <time>2016-04-18T10:45:58Z</time>
      </trkpt>
      <trkpt lat="39.601774" lon="3.099005">
        <ele>147.8</ele>
        <time>2016-04-18T10:45:59Z</time>
      </trkpt>
      <trkpt lat="39.601726" lon="3.098892">
        <ele>147</ele>
        <time>2016-04-18T10:46:00Z</time>
      </trkpt>
      <trkpt lat="39.601676" lon="3.098769">
        <ele>146.2</ele>
        <time>2016-04-18T10:46:01Z</time>
      </trkpt>
      <trkpt lat="39.601626" lon="3.098646">
        <ele>145.4</ele>
        <time>2016-04-18T10:46:02Z</time>
      </trkpt>
      <trkpt lat="39.601567" lon="3.098519">
        <ele>144.6</ele>
        <time>2016-04-18T10:46:03Z</time>
      </trkpt>
      <trkpt lat="39.601512" lon="3.098399">
        <ele>143.8</ele>
        <time>2016-04-18T10:46:04Z</time>
      </trkpt>
      <trkpt lat="39.601457" lon="3.098271">
        <ele>142.2</ele>
        <time>2016-04-18T10:46:05Z</time>
      </trkpt>
      <trkpt lat="39.601404" lon="3.098147">
        <ele>141.6</ele>
        <time>2016-04-18T10:46:06Z</time>
      </trkpt>
      <trkpt lat="39.601352" lon="3.098021">
        <ele>140.8</ele>
        <time>2016-04-18T10:46:07Z</time>
      </trkpt>
      <trkpt lat="39.601301" lon="3.097894">
        <ele>140.2</ele>
        <time>2016-04-18T10:46:08Z</time>
      </trkpt>
      <trkpt lat="39.601251" lon="3.097761">
        <ele>139.6</ele>
        <time>2016-04-18T10:46:09Z</time>
      </trkpt>
      <trkpt lat="39.601226" lon="3.097626">
        <ele>138.8</ele>
        <time>2016-04-18T10:46:10Z</time>
      </trkpt>
      <trkpt lat="39.601209" lon="3.097483">
        <ele>138.2</ele>
        <time>2016-04-18T10:46:11Z</time>
      </trkpt>
      <trkpt lat="39.601197" lon="3.097342">
        <ele>137.4</ele>
        <time>2016-04-18T10:46:12Z</time>
      </trkpt>
      <trkpt lat="39.601184" lon="3.097202">
        <ele>137</ele>
        <time>2016-04-18T10:46:13Z</time>
      </trkpt>
      <trkpt lat="39.601165" lon="3.097065">
        <ele>136.4</ele>
        <time>2016-04-18T10:46:14Z</time>
      </trkpt>
      <trkpt lat="39.601146" lon="3.096927">
        <ele>136</ele>
        <time>2016-04-18T10:46:15Z</time>
      </trkpt>
      <trkpt lat="39.601127" lon="3.096793">
        <ele>135.4</ele>
        <time>2016-04-18T10:46:16Z</time>
      </trkpt>
      <trkpt lat="39.601102" lon="3.096658">
        <ele>135</ele>
        <time>2016-04-18T10:46:17Z</time>
      </trkpt>
      <trkpt lat="39.601061" lon="3.096538">
        <ele>135</ele>
        <time>2016-04-18T10:46:18Z</time>
      </trkpt>
      <trkpt lat="39.601008" lon="3.096422">
        <ele>135</ele>
        <time>2016-04-18T10:46:19Z</time>
      </trkpt>
      <trkpt lat="39.600957" lon="3.096312">
        <ele>135</ele>
        <time>2016-04-18T10:46:20Z</time>
      </trkpt>
      <trkpt lat="39.6009" lon="3.09621">
        <ele>135</ele>
        <time>2016-04-18T10:46:21Z</time>
      </trkpt>
      <trkpt lat="39.600846" lon="3.096112">
        <ele>135</ele>
        <time>2016-04-18T10:46:22Z</time>
      </trkpt>
      <trkpt lat="39.600795" lon="3.09602">
        <ele>135</ele>
        <time>2016-04-18T10:46:23Z</time>
      </trkpt>
      <trkpt lat="39.600558" lon="3.095573">
        <ele>135</ele>
        <time>2016-04-18T10:46:28Z</time>
      </trkpt>
      <trkpt lat="39.600512" lon="3.095492">
        <ele>135</ele>
        <time>2016-04-18T10:46:29Z</time>
      </trkpt>
      <trkpt lat="39.600423" lon="3.095338">
        <ele>135</ele>
        <time>2016-04-18T10:46:31Z</time>
      </trkpt>
      <trkpt lat="39.60038" lon="3.09527">
        <ele>135.4</ele>
        <time>2016-04-18T10:46:32Z</time>
      </trkpt>
      <trkpt lat="39.600339" lon="3.095203">
        <ele>136</ele>
        <time>2016-04-18T10:46:33Z</time>
      </trkpt>
      <trkpt lat="39.600302" lon="3.095141">
        <ele>136.4</ele>
        <time>2016-04-18T10:46:34Z</time>
      </trkpt>
      <trkpt lat="39.600267" lon="3.095085">
        <ele>137</ele>
        <time>2016-04-18T10:46:35Z</time>
      </trkpt>
      <trkpt lat="39.600231" lon="3.095028">
        <ele>137.4</ele>
        <time>2016-04-18T10:46:36Z</time>
      </trkpt>
      <trkpt lat="39.600197" lon="3.094974">
        <ele>138</ele>
        <time>2016-04-18T10:46:37Z</time>
      </trkpt>
      <trkpt lat="39.600165" lon="3.094924">
        <ele>138.4</ele>
        <time>2016-04-18T10:46:38Z</time>
      </trkpt>
      <trkpt lat="39.600136" lon="3.094875">
        <ele>139</ele>
        <time>2016-04-18T10:46:39Z</time>
      </trkpt>
      <trkpt lat="39.600111" lon="3.094827">
        <ele>139.4</ele>
        <time>2016-04-18T10:46:40Z</time>
      </trkpt>
      <trkpt lat="39.600086" lon="3.094776">
        <ele>140</ele>
        <time>2016-04-18T10:46:41Z</time>
      </trkpt>
      <trkpt lat="39.600034" lon="3.094688">
        <ele>140.4</ele>
        <time>2016-04-18T10:46:43Z</time>
      </trkpt>
      <trkpt lat="39.600018" lon="3.094643">
        <ele>140.8</ele>
        <time>2016-04-18T10:46:44Z</time>
      </trkpt>
      <trkpt lat="39.599993" lon="3.094602">
        <ele>141.2</ele>
        <time>2016-04-18T10:46:45Z</time>
      </trkpt>
      <trkpt lat="39.59997" lon="3.094561">
        <ele>141.8</ele>
        <time>2016-04-18T10:46:46Z</time>
      </trkpt>
      <trkpt lat="39.599948" lon="3.094521">
        <ele>142.2</ele>
        <time>2016-04-18T10:46:47Z</time>
      </trkpt>
      <trkpt lat="39.599907" lon="3.094456">
        <ele>142.6</ele>
        <time>2016-04-18T10:46:49Z</time>
      </trkpt>
      <trkpt lat="39.599896" lon="3.094434">
        <ele>143</ele>
        <time>2016-04-18T10:46:50Z</time>
      </trkpt>
      <trkpt lat="39.599883" lon="3.094407">
        <ele>143.4</ele>
        <time>2016-04-18T10:46:51Z</time>
      </trkpt>
      <trkpt lat="39.599869" lon="3.094378">
        <ele>143.8</ele>
        <time>2016-04-18T10:46:52Z</time>
      </trkpt>
      <trkpt lat="39.59985" lon="3.094341">
        <ele>144.2</ele>
        <time>2016-04-18T10:46:53Z</time>
      </trkpt>
      <trkpt lat="39.599806" lon="3.09427">
        <ele>145</ele>
        <time>2016-04-18T10:46:55Z</time>
      </trkpt>
      <trkpt lat="39.599786" lon="3.094236">
        <ele>145.4</ele>
        <time>2016-04-18T10:46:56Z</time>
      </trkpt>
      <trkpt lat="39.599763" lon="3.0942">
        <ele>146</ele>
        <time>2016-04-18T10:46:57Z</time>
      </trkpt>
      <trkpt lat="39.599743" lon="3.094165">
        <ele>146.4</ele>
        <time>2016-04-18T10:46:58Z</time>
      </trkpt>
      <trkpt lat="39.599683" lon="3.094068">
        <ele>146.8</ele>
        <time>2016-04-18T10:47:01Z</time>
      </trkpt>
      <trkpt lat="39.599667" lon="3.094038">
        <ele>147.2</ele>
        <time>2016-04-18T10:47:02Z</time>
      </trkpt>
      <trkpt lat="39.599648" lon="3.094002">
        <ele>147.6</ele>
        <time>2016-04-18T10:47:03Z</time>
      </trkpt>
      <trkpt lat="39.599627" lon="3.093971">
        <ele>148</ele>
        <time>2016-04-18T10:47:04Z</time>
      </trkpt>
      <trkpt lat="39.5996" lon="3.093949">
        <ele>148.4</ele>
        <time>2016-04-18T10:47:05Z</time>
      </trkpt>
      <trkpt lat="39.599543" lon="3.093862">
        <ele>148.8</ele>
        <time>2016-04-18T10:47:08Z</time>
      </trkpt>
      <trkpt lat="39.599533" lon="3.093834">
        <ele>149.4</ele>
        <time>2016-04-18T10:47:09Z</time>
      </trkpt>
      <trkpt lat="39.599517" lon="3.093802">
        <ele>149.8</ele>
        <time>2016-04-18T10:47:10Z</time>
      </trkpt>
      <trkpt lat="39.599502" lon="3.093771">
        <ele>150.2</ele>
        <time>2016-04-18T10:47:11Z</time>
      </trkpt>
      <trkpt lat="39.599481" lon="3.093739">
        <ele>150.6</ele>
        <time>2016-04-18T10:47:12Z</time>
      </trkpt>
      <trkpt lat="39.599423" lon="3.093635">
        <ele>151</ele>
        <time>2016-04-18T10:47:15Z</time>
      </trkpt>
      <trkpt lat="39.599402" lon="3.093603">
        <ele>151.4</ele>
        <time>2016-04-18T10:47:16Z</time>
      </trkpt>
      <trkpt lat="39.599383" lon="3.093569">
        <ele>152</ele>
        <time>2016-04-18T10:47:17Z</time>
      </trkpt>
      <trkpt lat="39.599363" lon="3.093536">
        <ele>152.4</ele>
        <time>2016-04-18T10:47:18Z</time>
      </trkpt>
      <trkpt lat="39.599321" lon="3.093472">
        <ele>152.8</ele>
        <time>2016-04-18T10:47:19Z</time>
      </trkpt>
      <trkpt lat="39.599225" lon="3.093374">
        <ele>153.2</ele>
        <time>2016-04-18T10:47:24Z</time>
      </trkpt>
      <trkpt lat="39.5992" lon="3.093352">
        <ele>153.8</ele>
        <time>2016-04-18T10:47:25Z</time>
      </trkpt>
      <trkpt lat="39.599175" lon="3.093323">
        <ele>154.2</ele>
        <time>2016-04-18T10:47:26Z</time>
      </trkpt>
      <trkpt lat="39.599152" lon="3.093295">
        <ele>154.6</ele>
        <time>2016-04-18T10:47:27Z</time>
      </trkpt>
      <trkpt lat="39.599131" lon="3.09327">
        <ele>155.2</ele>
        <time>2016-04-18T10:47:28Z</time>
      </trkpt>
      <trkpt lat="39.599065" lon="3.093186">
        <ele>155.6</ele>
        <time>2016-04-18T10:47:31Z</time>
      </trkpt>
      <trkpt lat="39.599048" lon="3.093157">
        <ele>156</ele>
        <time>2016-04-18T10:47:32Z</time>
      </trkpt>
      <trkpt lat="39.599033" lon="3.093126">
        <ele>156.4</ele>
        <time>2016-04-18T10:47:33Z</time>
      </trkpt>
      <trkpt lat="39.599015" lon="3.093103">
        <ele>156.8</ele>
        <time>2016-04-18T10:47:34Z</time>
      </trkpt>
      <trkpt lat="39.598996" lon="3.093082">
        <ele>157.2</ele>
        <time>2016-04-18T10:47:35Z</time>
      </trkpt>
      <trkpt lat="39.598945" lon="3.09299">
        <ele>157.2</ele>
        <time>2016-04-18T10:47:38Z</time>
      </trkpt>
      <trkpt lat="39.59889" lon="3.092906">
        <ele>157.6</ele>
        <time>2016-04-18T10:47:41Z</time>
      </trkpt>
      <trkpt lat="39.59887" lon="3.092881">
        <ele>158</ele>
        <time>2016-04-18T10:47:42Z</time>
      </trkpt>
      <trkpt lat="39.598854" lon="3.092852">
        <ele>158.4</ele>
        <time>2016-04-18T10:47:43Z</time>
      </trkpt>
      <trkpt lat="39.598836" lon="3.092826">
        <ele>159.2</ele>
        <time>2016-04-18T10:47:44Z</time>
      </trkpt>
      <trkpt lat="39.598823" lon="3.092803">
        <ele>159.2</ele>
        <time>2016-04-18T10:47:45Z</time>
      </trkpt>
      <trkpt lat="39.598796" lon="3.092762">
        <ele>159.8</ele>
        <time>2016-04-18T10:47:47Z</time>
      </trkpt>
      <trkpt lat="39.598786" lon="3.092734">
        <ele>160.2</ele>
        <time>2016-04-18T10:47:48Z</time>
      </trkpt>
      <trkpt lat="39.598769" lon="3.092707">
        <ele>160.6</ele>
        <time>2016-04-18T10:47:49Z</time>
      </trkpt>
      <trkpt lat="39.59875" lon="3.092686">
        <ele>161</ele>
        <time>2016-04-18T10:47:50Z</time>
      </trkpt>
      <trkpt lat="39.598732" lon="3.092662">
        <ele>161.4</ele>
        <time>2016-04-18T10:47:51Z</time>
      </trkpt>
      <trkpt lat="39.598668" lon="3.092543">
        <ele>161.4</ele>
        <time>2016-04-18T10:47:55Z</time>
      </trkpt>
      <trkpt lat="39.598651" lon="3.09252">
        <ele>161.8</ele>
        <time>2016-04-18T10:47:56Z</time>
      </trkpt>
      <trkpt lat="39.598635" lon="3.092494">
        <ele>162.2</ele>
        <time>2016-04-18T10:47:57Z</time>
      </trkpt>
      <trkpt lat="39.59862" lon="3.09247">
        <ele>162.6</ele>
        <time>2016-04-18T10:47:58Z</time>
      </trkpt>
      <trkpt lat="39.598604" lon="3.092443">
        <ele>163</ele>
        <time>2016-04-18T10:47:59Z</time>
      </trkpt>
      <trkpt lat="39.598589" lon="3.092415">
        <ele>163.6</ele>
        <time>2016-04-18T10:48:00Z</time>
      </trkpt>
      <trkpt lat="39.59854" lon="3.092337">
        <ele>163.6</ele>
        <time>2016-04-18T10:48:03Z</time>
      </trkpt>
      <trkpt lat="39.598528" lon="3.092311">
        <ele>164</ele>
        <time>2016-04-18T10:48:04Z</time>
      </trkpt>
      <trkpt lat="39.598515" lon="3.092285">
        <ele>164.4</ele>
        <time>2016-04-18T10:48:05Z</time>
      </trkpt>
      <trkpt lat="39.598501" lon="3.092257">
        <ele>164.8</ele>
        <time>2016-04-18T10:48:06Z</time>
      </trkpt>
      <trkpt lat="39.598488" lon="3.092236">
        <ele>165.4</ele>
        <time>2016-04-18T10:48:07Z</time>
      </trkpt>
      <trkpt lat="39.598471" lon="3.092209">
        <ele>165.8</ele>
        <time>2016-04-18T10:48:08Z</time>
      </trkpt>
      <trkpt lat="39.598438" lon="3.092157">
        <ele>166.2</ele>
        <time>2016-04-18T10:48:10Z</time>
      </trkpt>
      <trkpt lat="39.59842" lon="3.092132">
        <ele>166.6</ele>
        <time>2016-04-18T10:48:11Z</time>
      </trkpt>
      <trkpt lat="39.598406" lon="3.092109">
        <ele>167.2</ele>
        <time>2016-04-18T10:48:12Z</time>
      </trkpt>
      <trkpt lat="39.598392" lon="3.092088">
        <ele>167.6</ele>
        <time>2016-04-18T10:48:13Z</time>
      </trkpt>
      <trkpt lat="39.598377" lon="3.092063">
        <ele>168</ele>
        <time>2016-04-18T10:48:14Z</time>
      </trkpt>
      <trkpt lat="39.598328" lon="3.091962">
        <ele>168.4</ele>
        <time>2016-04-18T10:48:18Z</time>
      </trkpt>
      <trkpt lat="39.598316" lon="3.091936">
        <ele>168.8</ele>
        <time>2016-04-18T10:48:19Z</time>
      </trkpt>
      <trkpt lat="39.598298" lon="3.091908">
        <ele>169.2</ele>
        <time>2016-04-18T10:48:20Z</time>
      </trkpt>
      <trkpt lat="39.598279" lon="3.091878">
        <ele>169.8</ele>
        <time>2016-04-18T10:48:21Z</time>
      </trkpt>
      <trkpt lat="39.598264" lon="3.091848">
        <ele>170.2</ele>
        <time>2016-04-18T10:48:22Z</time>
      </trkpt>
      <trkpt lat="39.598233" lon="3.091789">
        <ele>170.2</ele>
        <time>2016-04-18T10:48:24Z</time>
      </trkpt>
      <trkpt lat="39.598188" lon="3.091715">
        <ele>170.6</ele>
        <time>2016-04-18T10:48:27Z</time>
      </trkpt>
      <trkpt lat="39.598181" lon="3.091693">
        <ele>171</ele>
        <time>2016-04-18T10:48:28Z</time>
      </trkpt>
      <trkpt lat="39.59817" lon="3.091664">
        <ele>171.4</ele>
        <time>2016-04-18T10:48:29Z</time>
      </trkpt>
      <trkpt lat="39.598162" lon="3.09164">
        <ele>171.8</ele>
        <time>2016-04-18T10:48:30Z</time>
      </trkpt>
      <trkpt lat="39.598145" lon="3.091607">
        <ele>172.2</ele>
        <time>2016-04-18T10:48:31Z</time>
      </trkpt>
      <trkpt lat="39.598085" lon="3.091482">
        <ele>172.2</ele>
        <time>2016-04-18T10:48:34Z</time>
      </trkpt>
      <trkpt lat="39.598027" lon="3.091391">
        <ele>172.2</ele>
        <time>2016-04-18T10:48:36Z</time>
      </trkpt>
      <trkpt lat="39.597964" lon="3.091252">
        <ele>172.2</ele>
        <time>2016-04-18T10:48:39Z</time>
      </trkpt>
      <trkpt lat="39.597946" lon="3.091212">
        <ele>172.6</ele>
        <time>2016-04-18T10:48:40Z</time>
      </trkpt>
      <trkpt lat="39.597922" lon="3.091168">
        <ele>173</ele>
        <time>2016-04-18T10:48:41Z</time>
      </trkpt>
      <trkpt lat="39.597919" lon="3.091131">
        <ele>173.6</ele>
        <time>2016-04-18T10:48:42Z</time>
      </trkpt>
      <trkpt lat="39.59792" lon="3.091089">
        <ele>174</ele>
        <time>2016-04-18T10:48:43Z</time>
      </trkpt>
      <trkpt lat="39.597917" lon="3.091044">
        <ele>174.4</ele>
        <time>2016-04-18T10:48:44Z</time>
      </trkpt>
      <trkpt lat="39.597945" lon="3.090912">
        <ele>174.8</ele>
        <time>2016-04-18T10:48:47Z</time>
      </trkpt>
      <trkpt lat="39.597961" lon="3.090869">
        <ele>175.2</ele>
        <time>2016-04-18T10:48:48Z</time>
      </trkpt>
      <trkpt lat="39.597977" lon="3.090827">
        <ele>175.6</ele>
        <time>2016-04-18T10:48:49Z</time>
      </trkpt>
      <trkpt lat="39.597979" lon="3.090783">
        <ele>176</ele>
        <time>2016-04-18T10:48:50Z</time>
      </trkpt>
      <trkpt lat="39.597985" lon="3.090738">
        <ele>176.4</ele>
        <time>2016-04-18T10:48:51Z</time>
      </trkpt>
      <trkpt lat="39.597992" lon="3.090609">
        <ele>176.4</ele>
        <time>2016-04-18T10:48:54Z</time>
      </trkpt>
      <trkpt lat="39.597993" lon="3.090568">
        <ele>176.8</ele>
        <time>2016-04-18T10:48:55Z</time>
      </trkpt>
      <trkpt lat="39.597997" lon="3.090533">
        <ele>177.4</ele>
        <time>2016-04-18T10:48:56Z</time>
      </trkpt>
      <trkpt lat="39.598004" lon="3.090501">
        <ele>177.8</ele>
        <time>2016-04-18T10:48:57Z</time>
      </trkpt>
      <trkpt lat="39.598011" lon="3.090473">
        <ele>178.8</ele>
        <time>2016-04-18T10:48:58Z</time>
      </trkpt>
      <trkpt lat="39.598008" lon="3.090438">
        <ele>178.8</ele>
        <time>2016-04-18T10:48:59Z</time>
      </trkpt>
      <trkpt lat="39.598005" lon="3.090403">
        <ele>178.8</ele>
        <time>2016-04-18T10:49:00Z</time>
      </trkpt>
      <trkpt lat="39.597984" lon="3.090257">
        <ele>179.2</ele>
        <time>2016-04-18T10:49:04Z</time>
      </trkpt>
      <trkpt lat="39.597974" lon="3.090221">
        <ele>179.8</ele>
        <time>2016-04-18T10:49:05Z</time>
      </trkpt>
      <trkpt lat="39.597968" lon="3.090184">
        <ele>180.2</ele>
        <time>2016-04-18T10:49:06Z</time>
      </trkpt>
      <trkpt lat="39.597971" lon="3.090151">
        <ele>180.6</ele>
        <time>2016-04-18T10:49:07Z</time>
      </trkpt>
      <trkpt lat="39.597971" lon="3.090116">
        <ele>181</ele>
        <time>2016-04-18T10:49:08Z</time>
      </trkpt>
      <trkpt lat="39.597935" lon="3.08984">
        <ele>181</ele>
        <time>2016-04-18T10:49:14Z</time>
      </trkpt>
      <trkpt lat="39.597923" lon="3.089788">
        <ele>181.4</ele>
        <time>2016-04-18T10:49:15Z</time>
      </trkpt>
      <trkpt lat="39.597907" lon="3.089725">
        <ele>181.8</ele>
        <time>2016-04-18T10:49:16Z</time>
      </trkpt>
      <trkpt lat="39.597888" lon="3.089672">
        <ele>182.2</ele>
        <time>2016-04-18T10:49:17Z</time>
      </trkpt>
      <trkpt lat="39.597875" lon="3.089618">
        <ele>182.6</ele>
        <time>2016-04-18T10:49:18Z</time>
      </trkpt>
      <trkpt lat="39.597867" lon="3.089564">
        <ele>183</ele>
        <time>2016-04-18T10:49:19Z</time>
      </trkpt>
      <trkpt lat="39.597859" lon="3.089461">
        <ele>183</ele>
        <time>2016-04-18T10:49:21Z</time>
      </trkpt>
      <trkpt lat="39.59783" lon="3.089266">
        <ele>183</ele>
        <time>2016-04-18T10:49:25Z</time>
      </trkpt>
      <trkpt lat="39.597813" lon="3.089177">
        <ele>183.4</ele>
        <time>2016-04-18T10:49:27Z</time>
      </trkpt>
      <trkpt lat="39.597804" lon="3.089131">
        <ele>184</ele>
        <time>2016-04-18T10:49:28Z</time>
      </trkpt>
      <trkpt lat="39.597799" lon="3.089083">
        <ele>184.4</ele>
        <time>2016-04-18T10:49:29Z</time>
      </trkpt>
      <trkpt lat="39.597795" lon="3.089039">
        <ele>184.8</ele>
        <time>2016-04-18T10:49:30Z</time>
      </trkpt>
      <trkpt lat="39.59779" lon="3.088993">
        <ele>185.2</ele>
        <time>2016-04-18T10:49:31Z</time>
      </trkpt>
      <trkpt lat="39.597785" lon="3.088713">
        <ele>185.2</ele>
        <time>2016-04-18T10:49:37Z</time>
      </trkpt>
      <trkpt lat="39.597792" lon="3.088674">
        <ele>185.6</ele>
        <time>2016-04-18T10:49:38Z</time>
      </trkpt>
      <trkpt lat="39.597802" lon="3.088643">
        <ele>186.2</ele>
        <time>2016-04-18T10:49:39Z</time>
      </trkpt>
      <trkpt lat="39.597815" lon="3.088607">
        <ele>186.6</ele>
        <time>2016-04-18T10:49:40Z</time>
      </trkpt>
      <trkpt lat="39.597818" lon="3.08857">
        <ele>187</ele>
        <time>2016-04-18T10:49:41Z</time>
      </trkpt>
      <trkpt lat="39.597821" lon="3.088531">
        <ele>187.4</ele>
        <time>2016-04-18T10:49:42Z</time>
      </trkpt>
      <trkpt lat="39.597846" lon="3.088288">
        <ele>187.8</ele>
        <time>2016-04-18T10:49:48Z</time>
      </trkpt>
      <trkpt lat="39.597852" lon="3.088239">
        <ele>188.6</ele>
        <time>2016-04-18T10:49:49Z</time>
      </trkpt>
      <trkpt lat="39.597854" lon="3.088191">
        <ele>189.2</ele>
        <time>2016-04-18T10:49:50Z</time>
      </trkpt>
      <trkpt lat="39.597862" lon="3.088147">
        <ele>189.6</ele>
        <time>2016-04-18T10:49:51Z</time>
      </trkpt>
      <trkpt lat="39.597886" lon="3.087969">
        <ele>189.6</ele>
        <time>2016-04-18T10:49:55Z</time>
      </trkpt>
      <trkpt lat="39.597897" lon="3.087926">
        <ele>190</ele>
        <time>2016-04-18T10:49:56Z</time>
      </trkpt>
      <trkpt lat="39.5979" lon="3.087879">
        <ele>190.4</ele>
        <time>2016-04-18T10:49:57Z</time>
      </trkpt>
      <trkpt lat="39.597902" lon="3.087838">
        <ele>190.8</ele>
        <time>2016-04-18T10:49:58Z</time>
      </trkpt>
      <trkpt lat="39.597899" lon="3.087788">
        <ele>191.2</ele>
        <time>2016-04-18T10:49:59Z</time>
      </trkpt>
      <trkpt lat="39.597899" lon="3.087741">
        <ele>191.6</ele>
        <time>2016-04-18T10:50:00Z</time>
      </trkpt>
      <trkpt lat="39.597896" lon="3.087449">
        <ele>191.6</ele>
        <time>2016-04-18T10:50:06Z</time>
      </trkpt>
      <trkpt lat="39.597892" lon="3.087393">
        <ele>192</ele>
        <time>2016-04-18T10:50:07Z</time>
      </trkpt>
      <trkpt lat="39.597889" lon="3.087339">
        <ele>192.6</ele>
        <time>2016-04-18T10:50:08Z</time>
      </trkpt>
      <trkpt lat="39.597886" lon="3.087297">
        <ele>193</ele>
        <time>2016-04-18T10:50:09Z</time>
      </trkpt>
      <trkpt lat="39.597887" lon="3.08726">
        <ele>193.4</ele>
        <time>2016-04-18T10:50:10Z</time>
      </trkpt>
      <trkpt lat="39.597879" lon="3.087214">
        <ele>193.8</ele>
        <time>2016-04-18T10:50:11Z</time>
      </trkpt>
      <trkpt lat="39.59784" lon="3.087064">
        <ele>194.4</ele>
        <time>2016-04-18T10:50:14Z</time>
      </trkpt>
      <trkpt lat="39.597812" lon="3.087017">
        <ele>194.8</ele>
        <time>2016-04-18T10:50:15Z</time>
      </trkpt>
      <trkpt lat="39.597785" lon="3.086976">
        <ele>195.2</ele>
        <time>2016-04-18T10:50:16Z</time>
      </trkpt>
      <trkpt lat="39.597752" lon="3.086937">
        <ele>195.6</ele>
        <time>2016-04-18T10:50:17Z</time>
      </trkpt>
      <trkpt lat="39.597711" lon="3.086904">
        <ele>196</ele>
        <time>2016-04-18T10:50:18Z</time>
      </trkpt>
      <trkpt lat="39.597672" lon="3.08687">
        <ele>196</ele>
        <time>2016-04-18T10:50:19Z</time>
      </trkpt>
      <trkpt lat="39.597591" lon="3.0868">
        <ele>196.4</ele>
        <time>2016-04-18T10:50:21Z</time>
      </trkpt>
      <trkpt lat="39.597553" lon="3.086768">
        <ele>196.8</ele>
        <time>2016-04-18T10:50:22Z</time>
      </trkpt>
      <trkpt lat="39.597514" lon="3.086738">
        <ele>197.2</ele>
        <time>2016-04-18T10:50:23Z</time>
      </trkpt>
      <trkpt lat="39.597477" lon="3.086707">
        <ele>197.8</ele>
        <time>2016-04-18T10:50:24Z</time>
      </trkpt>
      <trkpt lat="39.597439" lon="3.086686">
        <ele>198.2</ele>
        <time>2016-04-18T10:50:25Z</time>
      </trkpt>
      <trkpt lat="39.597403" lon="3.086671">
        <ele>198.2</ele>
        <time>2016-04-18T10:50:26Z</time>
      </trkpt>
      <trkpt lat="39.59737" lon="3.086659">
        <ele>198.6</ele>
        <time>2016-04-18T10:50:27Z</time>
      </trkpt>
      <trkpt lat="39.597336" lon="3.086648">
        <ele>199</ele>
        <time>2016-04-18T10:50:28Z</time>
      </trkpt>
      <trkpt lat="39.597301" lon="3.086642">
        <ele>199.6</ele>
        <time>2016-04-18T10:50:29Z</time>
      </trkpt>
      <trkpt lat="39.597267" lon="3.086633">
        <ele>200</ele>
        <time>2016-04-18T10:50:30Z</time>
      </trkpt>
      <trkpt lat="39.597237" lon="3.086632">
        <ele>200.4</ele>
        <time>2016-04-18T10:50:31Z</time>
      </trkpt>
      <trkpt lat="39.597199" lon="3.086636">
        <ele>200.4</ele>
        <time>2016-04-18T10:50:32Z</time>
      </trkpt>
      <trkpt lat="39.597083" lon="3.086624">
        <ele>200.8</ele>
        <time>2016-04-18T10:50:36Z</time>
      </trkpt>
      <trkpt lat="39.597055" lon="3.086623">
        <ele>201.2</ele>
        <time>2016-04-18T10:50:37Z</time>
      </trkpt>
      <trkpt lat="39.597029" lon="3.086625">
        <ele>202.2</ele>
        <time>2016-04-18T10:50:38Z</time>
      </trkpt>
      <trkpt lat="39.597009" lon="3.086608">
        <ele>202.6</ele>
        <time>2016-04-18T10:50:39Z</time>
      </trkpt>
      <trkpt lat="39.596954" lon="3.08653">
        <ele>203</ele>
        <time>2016-04-18T10:50:42Z</time>
      </trkpt>
      <trkpt lat="39.596941" lon="3.086507">
        <ele>203.4</ele>
        <time>2016-04-18T10:50:43Z</time>
      </trkpt>
      <trkpt lat="39.596927" lon="3.086479">
        <ele>203.8</ele>
        <time>2016-04-18T10:50:44Z</time>
      </trkpt>
      <trkpt lat="39.596913" lon="3.086446">
        <ele>204.2</ele>
        <time>2016-04-18T10:50:45Z</time>
      </trkpt>
      <trkpt lat="39.5969" lon="3.086414">
        <ele>204.6</ele>
        <time>2016-04-18T10:50:46Z</time>
      </trkpt>
      <trkpt lat="39.596879" lon="3.08639">
        <ele>204.6</ele>
        <time>2016-04-18T10:50:47Z</time>
      </trkpt>
      <trkpt lat="39.596864" lon="3.086359">
        <ele>204.6</ele>
        <time>2016-04-18T10:50:48Z</time>
      </trkpt>
      <trkpt lat="39.596876" lon="3.086328">
        <ele>205</ele>
        <time>2016-04-18T10:50:49Z</time>
      </trkpt>
      <trkpt lat="39.596875" lon="3.086299">
        <ele>205.6</ele>
        <time>2016-04-18T10:50:50Z</time>
      </trkpt>
      <trkpt lat="39.596869" lon="3.086264">
        <ele>206</ele>
        <time>2016-04-18T10:50:51Z</time>
      </trkpt>
      <trkpt lat="39.596868" lon="3.086234">
        <ele>206.4</ele>
        <time>2016-04-18T10:50:52Z</time>
      </trkpt>
      <trkpt lat="39.596867" lon="3.086209">
        <ele>206.8</ele>
        <time>2016-04-18T10:50:53Z</time>
      </trkpt>
      <trkpt lat="39.596844" lon="3.086159">
        <ele>206.8</ele>
        <time>2016-04-18T10:50:55Z</time>
      </trkpt>
      <trkpt lat="39.596842" lon="3.086123">
        <ele>206.8</ele>
        <time>2016-04-18T10:50:56Z</time>
      </trkpt>
      <trkpt lat="39.596837" lon="3.086096">
        <ele>207.2</ele>
        <time>2016-04-18T10:50:57Z</time>
      </trkpt>
      <trkpt lat="39.596826" lon="3.086066">
        <ele>207.6</ele>
        <time>2016-04-18T10:50:58Z</time>
      </trkpt>
      <trkpt lat="39.596816" lon="3.086034">
        <ele>208.2</ele>
        <time>2016-04-18T10:50:59Z</time>
      </trkpt>
      <trkpt lat="39.596806" lon="3.086003">
        <ele>208.6</ele>
        <time>2016-04-18T10:51:00Z</time>
      </trkpt>
      <trkpt lat="39.59679" lon="3.085972">
        <ele>209</ele>
        <time>2016-04-18T10:51:01Z</time>
      </trkpt>
      <trkpt lat="39.596753" lon="3.085902">
        <ele>209.4</ele>
        <time>2016-04-18T10:51:04Z</time>
      </trkpt>
      <trkpt lat="39.596743" lon="3.085877">
        <ele>209.8</ele>
        <time>2016-04-18T10:51:05Z</time>
      </trkpt>
      <trkpt lat="39.596733" lon="3.085853">
        <ele>210.2</ele>
        <time>2016-04-18T10:51:06Z</time>
      </trkpt>
      <trkpt lat="39.596721" lon="3.08583">
        <ele>210.6</ele>
        <time>2016-04-18T10:51:07Z</time>
      </trkpt>
      <trkpt lat="39.596707" lon="3.085808">
        <ele>211</ele>
        <time>2016-04-18T10:51:08Z</time>
      </trkpt>
      <trkpt lat="39.596677" lon="3.08576">
        <ele>211</ele>
        <time>2016-04-18T10:51:10Z</time>
      </trkpt>
      <trkpt lat="39.596662" lon="3.08574">
        <ele>211</ele>
        <time>2016-04-18T10:51:11Z</time>
      </trkpt>
      <trkpt lat="39.596631" lon="3.08569">
        <ele>211.4</ele>
        <time>2016-04-18T10:51:13Z</time>
      </trkpt>
      <trkpt lat="39.596609" lon="3.085673">
        <ele>211.8</ele>
        <time>2016-04-18T10:51:14Z</time>
      </trkpt>
      <trkpt lat="39.596594" lon="3.08565">
        <ele>212.2</ele>
        <time>2016-04-18T10:51:15Z</time>
      </trkpt>
      <trkpt lat="39.596578" lon="3.085625">
        <ele>212.6</ele>
        <time>2016-04-18T10:51:16Z</time>
      </trkpt>
      <trkpt lat="39.596562" lon="3.085597">
        <ele>213</ele>
        <time>2016-04-18T10:51:17Z</time>
      </trkpt>
      <trkpt lat="39.59648" lon="3.085528">
        <ele>213.6</ele>
        <time>2016-04-18T10:51:21Z</time>
      </trkpt>
      <trkpt lat="39.596458" lon="3.085521">
        <ele>214</ele>
        <time>2016-04-18T10:51:22Z</time>
      </trkpt>
      <trkpt lat="39.596431" lon="3.08551">
        <ele>214.4</ele>
        <time>2016-04-18T10:51:23Z</time>
      </trkpt>
      <trkpt lat="39.596406" lon="3.085493">
        <ele>214.8</ele>
        <time>2016-04-18T10:51:24Z</time>
      </trkpt>
      <trkpt lat="39.596385" lon="3.085482">
        <ele>215.2</ele>
        <time>2016-04-18T10:51:25Z</time>
      </trkpt>
      <trkpt lat="39.596294" lon="3.085452">
        <ele>215.2</ele>
        <time>2016-04-18T10:51:29Z</time>
      </trkpt>
      <trkpt lat="39.596208" lon="3.085442">
        <ele>215.6</ele>
        <time>2016-04-18T10:51:32Z</time>
      </trkpt>
      <trkpt lat="39.596182" lon="3.085437">
        <ele>216</ele>
        <time>2016-04-18T10:51:33Z</time>
      </trkpt>
      <trkpt lat="39.596156" lon="3.085429">
        <ele>216.6</ele>
        <time>2016-04-18T10:51:34Z</time>
      </trkpt>
      <trkpt lat="39.59613" lon="3.085421">
        <ele>217</ele>
        <time>2016-04-18T10:51:35Z</time>
      </trkpt>
      <trkpt lat="39.596105" lon="3.085416">
        <ele>217.4</ele>
        <time>2016-04-18T10:51:36Z</time>
      </trkpt>
      <trkpt lat="39.59599" lon="3.085389">
        <ele>217.4</ele>
        <time>2016-04-18T10:51:41Z</time>
      </trkpt>
      <trkpt lat="39.595968" lon="3.085381">
        <ele>217.8</ele>
        <time>2016-04-18T10:51:42Z</time>
      </trkpt>
      <trkpt lat="39.595944" lon="3.08537">
        <ele>218.2</ele>
        <time>2016-04-18T10:51:43Z</time>
      </trkpt>
      <trkpt lat="39.59592" lon="3.085363">
        <ele>218.6</ele>
        <time>2016-04-18T10:51:44Z</time>
      </trkpt>
      <trkpt lat="39.5959" lon="3.08536">
        <ele>219</ele>
        <time>2016-04-18T10:51:45Z</time>
      </trkpt>
      <trkpt lat="39.595881" lon="3.085359">
        <ele>219.4</ele>
        <time>2016-04-18T10:51:46Z</time>
      </trkpt>
      <trkpt lat="39.595855" lon="3.085358">
        <ele>219.4</ele>
        <time>2016-04-18T10:51:47Z</time>
      </trkpt>
      <trkpt lat="39.595774" lon="3.085333">
        <ele>219.8</ele>
        <time>2016-04-18T10:51:50Z</time>
      </trkpt>
      <trkpt lat="39.595744" lon="3.085334">
        <ele>220.6</ele>
        <time>2016-04-18T10:51:51Z</time>
      </trkpt>
      <trkpt lat="39.59571" lon="3.085332">
        <ele>221</ele>
        <time>2016-04-18T10:51:52Z</time>
      </trkpt>
      <trkpt lat="39.595683" lon="3.085331">
        <ele>221.4</ele>
        <time>2016-04-18T10:51:53Z</time>
      </trkpt>
      <trkpt lat="39.595521" lon="3.085331">
        <ele>222</ele>
        <time>2016-04-18T10:51:59Z</time>
      </trkpt>
      <trkpt lat="39.595495" lon="3.085308">
        <ele>222.4</ele>
        <time>2016-04-18T10:52:00Z</time>
      </trkpt>
      <trkpt lat="39.595472" lon="3.085287">
        <ele>222.8</ele>
        <time>2016-04-18T10:52:01Z</time>
      </trkpt>
      <trkpt lat="39.595452" lon="3.085257">
        <ele>223.2</ele>
        <time>2016-04-18T10:52:02Z</time>
      </trkpt>
      <trkpt lat="39.595447" lon="3.085219">
        <ele>223.6</ele>
        <time>2016-04-18T10:52:03Z</time>
      </trkpt>
      <trkpt lat="39.595449" lon="3.085195">
        <ele>223.6</ele>
        <time>2016-04-18T10:52:04Z</time>
      </trkpt>
      <trkpt lat="39.595437" lon="3.085124">
        <ele>223.6</ele>
        <time>2016-04-18T10:52:06Z</time>
      </trkpt>
      <trkpt lat="39.595423" lon="3.084994">
        <ele>223.6</ele>
        <time>2016-04-18T10:52:09Z</time>
      </trkpt>
      <trkpt lat="39.59542" lon="3.084952">
        <ele>224</ele>
        <time>2016-04-18T10:52:10Z</time>
      </trkpt>
      <trkpt lat="39.595415" lon="3.08491">
        <ele>224.6</ele>
        <time>2016-04-18T10:52:11Z</time>
      </trkpt>
      <trkpt lat="39.595412" lon="3.08487">
        <ele>225</ele>
        <time>2016-04-18T10:52:12Z</time>
      </trkpt>
      <trkpt lat="39.595406" lon="3.084832">
        <ele>225.4</ele>
        <time>2016-04-18T10:52:13Z</time>
      </trkpt>
      <trkpt lat="39.595397" lon="3.084792">
        <ele>225.8</ele>
        <time>2016-04-18T10:52:14Z</time>
      </trkpt>
      <trkpt lat="39.595393" lon="3.084715">
        <ele>225.8</ele>
        <time>2016-04-18T10:52:16Z</time>
      </trkpt>
      <trkpt lat="39.595358" lon="3.084603">
        <ele>226.4</ele>
        <time>2016-04-18T10:52:19Z</time>
      </trkpt>
      <trkpt lat="39.595343" lon="3.084574">
        <ele>226.8</ele>
        <time>2016-04-18T10:52:20Z</time>
      </trkpt>
      <trkpt lat="39.595325" lon="3.08454">
        <ele>227.2</ele>
        <time>2016-04-18T10:52:21Z</time>
      </trkpt>
      <trkpt lat="39.595321" lon="3.084513">
        <ele>227.6</ele>
        <time>2016-04-18T10:52:22Z</time>
      </trkpt>
      <trkpt lat="39.59531" lon="3.084479">
        <ele>228.2</ele>
        <time>2016-04-18T10:52:23Z</time>
      </trkpt>
      <trkpt lat="39.595277" lon="3.084416">
        <ele>228.2</ele>
        <time>2016-04-18T10:52:25Z</time>
      </trkpt>
      <trkpt lat="39.595246" lon="3.0844">
        <ele>228.6</ele>
        <time>2016-04-18T10:52:26Z</time>
      </trkpt>
      <trkpt lat="39.595214" lon="3.084401">
        <ele>229</ele>
        <time>2016-04-18T10:52:27Z</time>
      </trkpt>
      <trkpt lat="39.595182" lon="3.084424">
        <ele>229.6</ele>
        <time>2016-04-18T10:52:28Z</time>
      </trkpt>
      <trkpt lat="39.595171" lon="3.084465">
        <ele>230</ele>
        <time>2016-04-18T10:52:29Z</time>
      </trkpt>
      <trkpt lat="39.595166" lon="3.084512">
        <ele>230.4</ele>
        <time>2016-04-18T10:52:30Z</time>
      </trkpt>
      <trkpt lat="39.595173" lon="3.084562">
        <ele>230.4</ele>
        <time>2016-04-18T10:52:31Z</time>
      </trkpt>
      <trkpt lat="39.595184" lon="3.084657">
        <ele>231</ele>
        <time>2016-04-18T10:52:33Z</time>
      </trkpt>
      <trkpt lat="39.595183" lon="3.084701">
        <ele>231.4</ele>
        <time>2016-04-18T10:52:34Z</time>
      </trkpt>
      <trkpt lat="39.595184" lon="3.08474">
        <ele>231.8</ele>
        <time>2016-04-18T10:52:35Z</time>
      </trkpt>
      <trkpt lat="39.59518" lon="3.084775">
        <ele>232.2</ele>
        <time>2016-04-18T10:52:36Z</time>
      </trkpt>
      <trkpt lat="39.595175" lon="3.08481">
        <ele>232.8</ele>
        <time>2016-04-18T10:52:37Z</time>
      </trkpt>
      <trkpt lat="39.595175" lon="3.084884">
        <ele>233.2</ele>
        <time>2016-04-18T10:52:39Z</time>
      </trkpt>
      <trkpt lat="39.595164" lon="3.084915">
        <ele>233.6</ele>
        <time>2016-04-18T10:52:40Z</time>
      </trkpt>
      <trkpt lat="39.59516" lon="3.084945">
        <ele>234</ele>
        <time>2016-04-18T10:52:41Z</time>
      </trkpt>
      <trkpt lat="39.59516" lon="3.084977">
        <ele>234.8</ele>
        <time>2016-04-18T10:52:42Z</time>
      </trkpt>
      <trkpt lat="39.595146" lon="3.085004">
        <ele>234.8</ele>
        <time>2016-04-18T10:52:43Z</time>
      </trkpt>
      <trkpt lat="39.595135" lon="3.085064">
        <ele>234.8</ele>
        <time>2016-04-18T10:52:45Z</time>
      </trkpt>
      <trkpt lat="39.595131" lon="3.08509">
        <ele>235.2</ele>
        <time>2016-04-18T10:52:46Z</time>
      </trkpt>
      <trkpt lat="39.595124" lon="3.085117">
        <ele>235.8</ele>
        <time>2016-04-18T10:52:47Z</time>
      </trkpt>
      <trkpt lat="39.595124" lon="3.085146">
        <ele>236.2</ele>
        <time>2016-04-18T10:52:48Z</time>
      </trkpt>
      <trkpt lat="39.595116" lon="3.085177">
        <ele>236.6</ele>
        <time>2016-04-18T10:52:49Z</time>
      </trkpt>
      <trkpt lat="39.595106" lon="3.085206">
        <ele>237</ele>
        <time>2016-04-18T10:52:50Z</time>
      </trkpt>
      <trkpt lat="39.5951" lon="3.085237">
        <ele>237</ele>
        <time>2016-04-18T10:52:51Z</time>
      </trkpt>
      <trkpt lat="39.595095" lon="3.085269">
        <ele>237</ele>
        <time>2016-04-18T10:52:52Z</time>
      </trkpt>
      <trkpt lat="39.59506" lon="3.085435">
        <ele>237</ele>
        <time>2016-04-18T10:52:58Z</time>
      </trkpt>
      <trkpt lat="39.595059" lon="3.085453">
        <ele>237.4</ele>
        <time>2016-04-18T10:52:59Z</time>
      </trkpt>
      <trkpt lat="39.595058" lon="3.085477">
        <ele>238</ele>
        <time>2016-04-18T10:53:00Z</time>
      </trkpt>
      <trkpt lat="39.595059" lon="3.085502">
        <ele>238.4</ele>
        <time>2016-04-18T10:53:01Z</time>
      </trkpt>
      <trkpt lat="39.595056" lon="3.08553">
        <ele>238.8</ele>
        <time>2016-04-18T10:53:02Z</time>
      </trkpt>
      <trkpt lat="39.595054" lon="3.085553">
        <ele>239.2</ele>
        <time>2016-04-18T10:53:03Z</time>
      </trkpt>
      <trkpt lat="39.595041" lon="3.085566">
        <ele>239.2</ele>
        <time>2016-04-18T10:53:04Z</time>
      </trkpt>
      <trkpt lat="39.595047" lon="3.085636">
        <ele>240</ele>
        <time>2016-04-18T10:53:07Z</time>
      </trkpt>
      <trkpt lat="39.595045" lon="3.085666">
        <ele>240.4</ele>
        <time>2016-04-18T10:53:08Z</time>
      </trkpt>
      <trkpt lat="39.595049" lon="3.085698">
        <ele>240.8</ele>
        <time>2016-04-18T10:53:09Z</time>
      </trkpt>
      <trkpt lat="39.595049" lon="3.085731">
        <ele>241.2</ele>
        <time>2016-04-18T10:53:10Z</time>
      </trkpt>
      <trkpt lat="39.595068" lon="3.085778">
        <ele>241.2</ele>
        <time>2016-04-18T10:53:12Z</time>
      </trkpt>
      <trkpt lat="39.595088" lon="3.085842">
        <ele>241.8</ele>
        <time>2016-04-18T10:53:14Z</time>
      </trkpt>
      <trkpt lat="39.595095" lon="3.08587">
        <ele>242.2</ele>
        <time>2016-04-18T10:53:15Z</time>
      </trkpt>
      <trkpt lat="39.595105" lon="3.085892">
        <ele>242.6</ele>
        <time>2016-04-18T10:53:16Z</time>
      </trkpt>
      <trkpt lat="39.595112" lon="3.085919">
        <ele>243</ele>
        <time>2016-04-18T10:53:17Z</time>
      </trkpt>
      <trkpt lat="39.595126" lon="3.085937">
        <ele>243.4</ele>
        <time>2016-04-18T10:53:18Z</time>
      </trkpt>
      <trkpt lat="39.595191" lon="3.086036">
        <ele>243.4</ele>
        <time>2016-04-18T10:53:22Z</time>
      </trkpt>
      <trkpt lat="39.59521" lon="3.086057">
        <ele>243.8</ele>
        <time>2016-04-18T10:53:23Z</time>
      </trkpt>
      <trkpt lat="39.595225" lon="3.086083">
        <ele>244.4</ele>
        <time>2016-04-18T10:53:24Z</time>
      </trkpt>
      <trkpt lat="39.595242" lon="3.086097">
        <ele>244.8</ele>
        <time>2016-04-18T10:53:25Z</time>
      </trkpt>
      <trkpt lat="39.595265" lon="3.08612">
        <ele>245.2</ele>
        <time>2016-04-18T10:53:26Z</time>
      </trkpt>
      <trkpt lat="39.595289" lon="3.086143">
        <ele>245.6</ele>
        <time>2016-04-18T10:53:27Z</time>
      </trkpt>
      <trkpt lat="39.595357" lon="3.086143">
        <ele>245.6</ele>
        <time>2016-04-18T10:53:30Z</time>
      </trkpt>
      <trkpt lat="39.595387" lon="3.086147">
        <ele>245.6</ele>
        <time>2016-04-18T10:53:31Z</time>
      </trkpt>
      <trkpt lat="39.595446" lon="3.086215">
        <ele>246</ele>
        <time>2016-04-18T10:53:34Z</time>
      </trkpt>
      <trkpt lat="39.595473" lon="3.086237">
        <ele>246.4</ele>
        <time>2016-04-18T10:53:35Z</time>
      </trkpt>
      <trkpt lat="39.595495" lon="3.086238">
        <ele>246.8</ele>
        <time>2016-04-18T10:53:36Z</time>
      </trkpt>
      <trkpt lat="39.595524" lon="3.086247">
        <ele>247.4</ele>
        <time>2016-04-18T10:53:37Z</time>
      </trkpt>
      <trkpt lat="39.595555" lon="3.086261">
        <ele>247.8</ele>
        <time>2016-04-18T10:53:38Z</time>
      </trkpt>
      <trkpt lat="39.595692" lon="3.086376">
        <ele>248.2</ele>
        <time>2016-04-18T10:53:43Z</time>
      </trkpt>
      <trkpt lat="39.595719" lon="3.086409">
        <ele>248.6</ele>
        <time>2016-04-18T10:53:44Z</time>
      </trkpt>
      <trkpt lat="39.595743" lon="3.086448">
        <ele>249</ele>
        <time>2016-04-18T10:53:45Z</time>
      </trkpt>
      <trkpt lat="39.595764" lon="3.086489">
        <ele>249.6</ele>
        <time>2016-04-18T10:53:46Z</time>
      </trkpt>
      <trkpt lat="39.595779" lon="3.086533">
        <ele>250</ele>
        <time>2016-04-18T10:53:47Z</time>
      </trkpt>
      <trkpt lat="39.595791" lon="3.086575">
        <ele>250</ele>
        <time>2016-04-18T10:53:48Z</time>
      </trkpt>
      <trkpt lat="39.59584" lon="3.086719">
        <ele>250.4</ele>
        <time>2016-04-18T10:53:52Z</time>
      </trkpt>
      <trkpt lat="39.595846" lon="3.086753">
        <ele>250.8</ele>
        <time>2016-04-18T10:53:53Z</time>
      </trkpt>
      <trkpt lat="39.595857" lon="3.086789">
        <ele>251.4</ele>
        <time>2016-04-18T10:53:54Z</time>
      </trkpt>
      <trkpt lat="39.595866" lon="3.086822">
        <ele>251.8</ele>
        <time>2016-04-18T10:53:55Z</time>
      </trkpt>
      <trkpt lat="39.59588" lon="3.086855">
        <ele>252.2</ele>
        <time>2016-04-18T10:53:56Z</time>
      </trkpt>
      <trkpt lat="39.59589" lon="3.086976">
        <ele>252.2</ele>
        <time>2016-04-18T10:53:59Z</time>
      </trkpt>
      <trkpt lat="39.5959" lon="3.087016">
        <ele>252.6</ele>
        <time>2016-04-18T10:54:00Z</time>
      </trkpt>
      <trkpt lat="39.59591" lon="3.087056">
        <ele>253</ele>
        <time>2016-04-18T10:54:01Z</time>
      </trkpt>
      <trkpt lat="39.595911" lon="3.087097">
        <ele>253.4</ele>
        <time>2016-04-18T10:54:02Z</time>
      </trkpt>
      <trkpt lat="39.595909" lon="3.087132">
        <ele>253.8</ele>
        <time>2016-04-18T10:54:03Z</time>
      </trkpt>
      <trkpt lat="39.595908" lon="3.087166">
        <ele>254.2</ele>
        <time>2016-04-18T10:54:04Z</time>
      </trkpt>
      <trkpt lat="39.595911" lon="3.087201">
        <ele>254.2</ele>
        <time>2016-04-18T10:54:05Z</time>
      </trkpt>
      <trkpt lat="39.595917" lon="3.0873">
        <ele>254.6</ele>
        <time>2016-04-18T10:54:08Z</time>
      </trkpt>
      <trkpt lat="39.595916" lon="3.087333">
        <ele>255.2</ele>
        <time>2016-04-18T10:54:09Z</time>
      </trkpt>
      <trkpt lat="39.59592" lon="3.087365">
        <ele>255.6</ele>
        <time>2016-04-18T10:54:10Z</time>
      </trkpt>
      <trkpt lat="39.595908" lon="3.087399">
        <ele>256</ele>
        <time>2016-04-18T10:54:11Z</time>
      </trkpt>
      <trkpt lat="39.595908" lon="3.087433">
        <ele>256.4</ele>
        <time>2016-04-18T10:54:12Z</time>
      </trkpt>
      <trkpt lat="39.595899" lon="3.087493">
        <ele>256.4</ele>
        <time>2016-04-18T10:54:14Z</time>
      </trkpt>
      <trkpt lat="39.595894" lon="3.087558">
        <ele>256.8</ele>
        <time>2016-04-18T10:54:16Z</time>
      </trkpt>
      <trkpt lat="39.595894" lon="3.087596">
        <ele>257.2</ele>
        <time>2016-04-18T10:54:17Z</time>
      </trkpt>
      <trkpt lat="39.595887" lon="3.087619">
        <ele>257.6</ele>
        <time>2016-04-18T10:54:18Z</time>
      </trkpt>
      <trkpt lat="39.595871" lon="3.087641">
        <ele>258</ele>
        <time>2016-04-18T10:54:19Z</time>
      </trkpt>
      <trkpt lat="39.595861" lon="3.087661">
        <ele>258.4</ele>
        <time>2016-04-18T10:54:20Z</time>
      </trkpt>
      <trkpt lat="39.595839" lon="3.087707">
        <ele>258.4</ele>
        <time>2016-04-18T10:54:22Z</time>
      </trkpt>
      <trkpt lat="39.595805" lon="3.087739">
        <ele>259</ele>
        <time>2016-04-18T10:54:24Z</time>
      </trkpt>
      <trkpt lat="39.595784" lon="3.08775">
        <ele>259.4</ele>
        <time>2016-04-18T10:54:25Z</time>
      </trkpt>
      <trkpt lat="39.595763" lon="3.087766">
        <ele>259.8</ele>
        <time>2016-04-18T10:54:26Z</time>
      </trkpt>
      <trkpt lat="39.595745" lon="3.087782">
        <ele>260.2</ele>
        <time>2016-04-18T10:54:27Z</time>
      </trkpt>
      <trkpt lat="39.595729" lon="3.087803">
        <ele>260.8</ele>
        <time>2016-04-18T10:54:28Z</time>
      </trkpt>
      <trkpt lat="39.595686" lon="3.087834">
        <ele>260.8</ele>
        <time>2016-04-18T10:54:30Z</time>
      </trkpt>
      <trkpt lat="39.595638" lon="3.087857">
        <ele>261.2</ele>
        <time>2016-04-18T10:54:32Z</time>
      </trkpt>
      <trkpt lat="39.595619" lon="3.087879">
        <ele>261.6</ele>
        <time>2016-04-18T10:54:33Z</time>
      </trkpt>
      <trkpt lat="39.595602" lon="3.087897">
        <ele>262</ele>
        <time>2016-04-18T10:54:34Z</time>
      </trkpt>
      <trkpt lat="39.595582" lon="3.08792">
        <ele>262.4</ele>
        <time>2016-04-18T10:54:35Z</time>
      </trkpt>
      <trkpt lat="39.595556" lon="3.087937">
        <ele>262.8</ele>
        <time>2016-04-18T10:54:36Z</time>
      </trkpt>
      <trkpt lat="39.595448" lon="3.088042">
        <ele>263.2</ele>
        <time>2016-04-18T10:54:41Z</time>
      </trkpt>
      <trkpt lat="39.595428" lon="3.088062">
        <ele>263.6</ele>
        <time>2016-04-18T10:54:42Z</time>
      </trkpt>
      <trkpt lat="39.595407" lon="3.088086">
        <ele>264</ele>
        <time>2016-04-18T10:54:43Z</time>
      </trkpt>
      <trkpt lat="39.595384" lon="3.088104">
        <ele>264.4</ele>
        <time>2016-04-18T10:54:44Z</time>
      </trkpt>
      <trkpt lat="39.595357" lon="3.088116">
        <ele>264.8</ele>
        <time>2016-04-18T10:54:45Z</time>
      </trkpt>
      <trkpt lat="39.595273" lon="3.088218">
        <ele>264.8</ele>
        <time>2016-04-18T10:54:49Z</time>
      </trkpt>
      <trkpt lat="39.595224" lon="3.088271">
        <ele>265.2</ele>
        <time>2016-04-18T10:54:51Z</time>
      </trkpt>
      <trkpt lat="39.595199" lon="3.088297">
        <ele>265.6</ele>
        <time>2016-04-18T10:54:52Z</time>
      </trkpt>
      <trkpt lat="39.595165" lon="3.088312">
        <ele>266</ele>
        <time>2016-04-18T10:54:53Z</time>
      </trkpt>
      <trkpt lat="39.595138" lon="3.088341">
        <ele>266.4</ele>
        <time>2016-04-18T10:54:54Z</time>
      </trkpt>
      <trkpt lat="39.595109" lon="3.088373">
        <ele>266.8</ele>
        <time>2016-04-18T10:54:55Z</time>
      </trkpt>
      <trkpt lat="39.594904" lon="3.088475">
        <ele>266.8</ele>
        <time>2016-04-18T10:55:01Z</time>
      </trkpt>
      <trkpt lat="39.594871" lon="3.088459">
        <ele>266.8</ele>
        <time>2016-04-18T10:55:02Z</time>
      </trkpt>
      <trkpt lat="39.594752" lon="3.088391">
        <ele>266.8</ele>
        <time>2016-04-18T10:55:05Z</time>
      </trkpt>
      <trkpt lat="39.594606" lon="3.088257">
        <ele>267.2</ele>
        <time>2016-04-18T10:55:09Z</time>
      </trkpt>
      <trkpt lat="39.594573" lon="3.088218">
        <ele>268</ele>
        <time>2016-04-18T10:55:10Z</time>
      </trkpt>
      <trkpt lat="39.594533" lon="3.088188">
        <ele>268.4</ele>
        <time>2016-04-18T10:55:11Z</time>
      </trkpt>
      <trkpt lat="39.594493" lon="3.088162">
        <ele>269</ele>
        <time>2016-04-18T10:55:12Z</time>
      </trkpt>
      <trkpt lat="39.59424" lon="3.087997">
        <ele>269</ele>
        <time>2016-04-18T10:55:18Z</time>
      </trkpt>
      <trkpt lat="39.594199" lon="3.087992">
        <ele>269.4</ele>
        <time>2016-04-18T10:55:19Z</time>
      </trkpt>
      <trkpt lat="39.594159" lon="3.087971">
        <ele>269.8</ele>
        <time>2016-04-18T10:55:20Z</time>
      </trkpt>
      <trkpt lat="39.594122" lon="3.087936">
        <ele>270.2</ele>
        <time>2016-04-18T10:55:21Z</time>
      </trkpt>
      <trkpt lat="39.594101" lon="3.087886">
        <ele>270.6</ele>
        <time>2016-04-18T10:55:22Z</time>
      </trkpt>
      <trkpt lat="39.594111" lon="3.087836">
        <ele>271</ele>
        <time>2016-04-18T10:55:23Z</time>
      </trkpt>
      <trkpt lat="39.594152" lon="3.087818">
        <ele>271</ele>
        <time>2016-04-18T10:55:24Z</time>
      </trkpt>
      <trkpt lat="39.594193" lon="3.087835">
        <ele>271.4</ele>
        <time>2016-04-18T10:55:25Z</time>
      </trkpt>
      <trkpt lat="39.594227" lon="3.087878">
        <ele>271.8</ele>
        <time>2016-04-18T10:55:26Z</time>
      </trkpt>
      <trkpt lat="39.594266" lon="3.087908">
        <ele>272.2</ele>
        <time>2016-04-18T10:55:27Z</time>
      </trkpt>
      <trkpt lat="39.594309" lon="3.087946">
        <ele>272.6</ele>
        <time>2016-04-18T10:55:28Z</time>
      </trkpt>
      <trkpt lat="39.594357" lon="3.087984">
        <ele>273.2</ele>
        <time>2016-04-18T10:55:29Z</time>
      </trkpt>
      <trkpt lat="39.594449" lon="3.088037">
        <ele>273.2</ele>
        <time>2016-04-18T10:55:31Z</time>
      </trkpt>
      <trkpt lat="39.594638" lon="3.088125">
        <ele>273.6</ele>
        <time>2016-04-18T10:55:35Z</time>
      </trkpt>
      <trkpt lat="39.594676" lon="3.088141">
        <ele>274</ele>
        <time>2016-04-18T10:55:36Z</time>
      </trkpt>
      <trkpt lat="39.594715" lon="3.088155">
        <ele>274.4</ele>
        <time>2016-04-18T10:55:37Z</time>
      </trkpt>
      <trkpt lat="39.594756" lon="3.08817">
        <ele>275</ele>
        <time>2016-04-18T10:55:38Z</time>
      </trkpt>
      <trkpt lat="39.594798" lon="3.088177">
        <ele>275.4</ele>
        <time>2016-04-18T10:55:39Z</time>
      </trkpt>
      <trkpt lat="39.59488" lon="3.088164">
        <ele>275.8</ele>
        <time>2016-04-18T10:55:41Z</time>
      </trkpt>
      <trkpt lat="39.594913" lon="3.088148">
        <ele>276.2</ele>
        <time>2016-04-18T10:55:42Z</time>
      </trkpt>
      <trkpt lat="39.594944" lon="3.088129">
        <ele>276.6</ele>
        <time>2016-04-18T10:55:43Z</time>
      </trkpt>
      <trkpt lat="39.594971" lon="3.088092">
        <ele>277</ele>
        <time>2016-04-18T10:55:44Z</time>
      </trkpt>
      <trkpt lat="39.595002" lon="3.088056">
        <ele>277.4</ele>
        <time>2016-04-18T10:55:45Z</time>
      </trkpt>
      <trkpt lat="39.595031" lon="3.088017">
        <ele>277.4</ele>
        <time>2016-04-18T10:55:46Z</time>
      </trkpt>
      <trkpt lat="39.595163" lon="3.087863">
        <ele>277.8</ele>
        <time>2016-04-18T10:55:51Z</time>
      </trkpt>
      <trkpt lat="39.595177" lon="3.087822">
        <ele>278.2</ele>
        <time>2016-04-18T10:55:52Z</time>
      </trkpt>
      <trkpt lat="39.5952" lon="3.087777">
        <ele>278.6</ele>
        <time>2016-04-18T10:55:53Z</time>
      </trkpt>
      <trkpt lat="39.595218" lon="3.087719">
        <ele>279</ele>
        <time>2016-04-18T10:55:54Z</time>
      </trkpt>
      <trkpt lat="39.59524" lon="3.087659">
        <ele>279.4</ele>
        <time>2016-04-18T10:55:55Z</time>
      </trkpt>
      <trkpt lat="39.595252" lon="3.087594">
        <ele>279.4</ele>
        <time>2016-04-18T10:55:56Z</time>
      </trkpt>
      <trkpt lat="39.595216" lon="3.08741">
        <ele>279.4</ele>
        <time>2016-04-18T10:55:59Z</time>
      </trkpt>
      <trkpt lat="39.595172" lon="3.087298">
        <ele>279.4</ele>
        <time>2016-04-18T10:56:01Z</time>
      </trkpt>
      <trkpt lat="39.595143" lon="3.087248">
        <ele>279.4</ele>
        <time>2016-04-18T10:56:02Z</time>
      </trkpt>
      <trkpt lat="39.595079" lon="3.087177">
        <ele>279.8</ele>
        <time>2016-04-18T10:56:04Z</time>
      </trkpt>
      <trkpt lat="39.595043" lon="3.087151">
        <ele>280.2</ele>
        <time>2016-04-18T10:56:05Z</time>
      </trkpt>
      <trkpt lat="39.595011" lon="3.087127">
        <ele>280.6</ele>
        <time>2016-04-18T10:56:06Z</time>
      </trkpt>
      <trkpt lat="39.594971" lon="3.087106">
        <ele>281.2</ele>
        <time>2016-04-18T10:56:07Z</time>
      </trkpt>
      <trkpt lat="39.594938" lon="3.087088">
        <ele>281.6</ele>
        <time>2016-04-18T10:56:08Z</time>
      </trkpt>
      <trkpt lat="39.594904" lon="3.087079">
        <ele>281.6</ele>
        <time>2016-04-18T10:56:09Z</time>
      </trkpt>
      <trkpt lat="39.594858" lon="3.087099">
        <ele>281.6</ele>
        <time>2016-04-18T10:56:11Z</time>
      </trkpt>
      <trkpt lat="39.594845" lon="3.087128">
        <ele>282</ele>
        <time>2016-04-18T10:56:12Z</time>
      </trkpt>
      <trkpt lat="39.594848" lon="3.087158">
        <ele>282.4</ele>
        <time>2016-04-18T10:56:13Z</time>
      </trkpt>
      <trkpt lat="39.59487" lon="3.087185">
        <ele>282.8</ele>
        <time>2016-04-18T10:56:14Z</time>
      </trkpt>
      <trkpt lat="39.594888" lon="3.087214">
        <ele>283.4</ele>
        <time>2016-04-18T10:56:15Z</time>
      </trkpt>
      <trkpt lat="39.594906" lon="3.087244">
        <ele>283.8</ele>
        <time>2016-04-18T10:56:16Z</time>
      </trkpt>
      <trkpt lat="39.59496" lon="3.087375">
        <ele>284.2</ele>
        <time>2016-04-18T10:56:20Z</time>
      </trkpt>
      <trkpt lat="39.594967" lon="3.087417">
        <ele>284.8</ele>
        <time>2016-04-18T10:56:21Z</time>
      </trkpt>
      <trkpt lat="39.594971" lon="3.087457">
        <ele>285.2</ele>
        <time>2016-04-18T10:56:22Z</time>
      </trkpt>
      <trkpt lat="39.594971" lon="3.087497">
        <ele>285.6</ele>
        <time>2016-04-18T10:56:23Z</time>
      </trkpt>
      <trkpt lat="39.594963" lon="3.087532">
        <ele>286</ele>
        <time>2016-04-18T10:56:24Z</time>
      </trkpt>
      <trkpt lat="39.594948" lon="3.087599">
        <ele>286</ele>
        <time>2016-04-18T10:56:26Z</time>
      </trkpt>
      <trkpt lat="39.594954" lon="3.087639">
        <ele>286</ele>
        <time>2016-04-18T10:56:27Z</time>
      </trkpt>
      <trkpt lat="39.594951" lon="3.087746">
        <ele>286</ele>
        <time>2016-04-18T10:56:30Z</time>
      </trkpt>
      <trkpt lat="39.594942" lon="3.087814">
        <ele>286</ele>
        <time>2016-04-18T10:56:32Z</time>
      </trkpt>
      <trkpt lat="39.595014" lon="3.087758">
        <ele>286</ele>
        <time>2016-04-18T11:04:26Z</time>
      </trkpt>
      <trkpt lat="39.595022" lon="3.087736">
        <ele>286</ele>
        <time>2016-04-18T11:04:27Z</time>
      </trkpt>
      <trkpt lat="39.595042" lon="3.087661">
        <ele>286</ele>
        <time>2016-04-18T11:04:30Z</time>
      </trkpt>
      <trkpt lat="39.595037" lon="3.08763">
        <ele>286</ele>
        <time>2016-04-18T11:04:31Z</time>
      </trkpt>
      <trkpt lat="39.595015" lon="3.087567">
        <ele>286</ele>
        <time>2016-04-18T11:04:33Z</time>
      </trkpt>
      <trkpt lat="39.594976" lon="3.087467">
        <ele>286</ele>
        <time>2016-04-18T11:04:36Z</time>
      </trkpt>
      <trkpt lat="39.594941" lon="3.087399">
        <ele>286</ele>
        <time>2016-04-18T11:04:38Z</time>
      </trkpt>
      <trkpt lat="39.594893" lon="3.08732">
        <ele>286</ele>
        <time>2016-04-18T11:04:40Z</time>
      </trkpt>
      <trkpt lat="39.594871" lon="3.087271">
        <ele>286</ele>
        <time>2016-04-18T11:04:41Z</time>
      </trkpt>
      <trkpt lat="39.594864" lon="3.087217">
        <ele>285.6</ele>
        <time>2016-04-18T11:04:42Z</time>
      </trkpt>
      <trkpt lat="39.594878" lon="3.087179">
        <ele>285.2</ele>
        <time>2016-04-18T11:04:43Z</time>
      </trkpt>
      <trkpt lat="39.594914" lon="3.087154">
        <ele>284.8</ele>
        <time>2016-04-18T11:04:44Z</time>
      </trkpt>
      <trkpt lat="39.594961" lon="3.087152">
        <ele>284.4</ele>
        <time>2016-04-18T11:04:45Z</time>
      </trkpt>
      <trkpt lat="39.595004" lon="3.087161">
        <ele>283.8</ele>
        <time>2016-04-18T11:04:46Z</time>
      </trkpt>
      <trkpt lat="39.595047" lon="3.087192">
        <ele>283.2</ele>
        <time>2016-04-18T11:04:47Z</time>
      </trkpt>
      <trkpt lat="39.595089" lon="3.087232">
        <ele>282.6</ele>
        <time>2016-04-18T11:04:48Z</time>
      </trkpt>
      <trkpt lat="39.595131" lon="3.087287">
        <ele>282</ele>
        <time>2016-04-18T11:04:49Z</time>
      </trkpt>
      <trkpt lat="39.59517" lon="3.087347">
        <ele>281.4</ele>
        <time>2016-04-18T11:04:50Z</time>
      </trkpt>
      <trkpt lat="39.595203" lon="3.087418">
        <ele>281</ele>
        <time>2016-04-18T11:04:51Z</time>
      </trkpt>
      <trkpt lat="39.595228" lon="3.087493">
        <ele>280.6</ele>
        <time>2016-04-18T11:04:52Z</time>
      </trkpt>
      <trkpt lat="39.595235" lon="3.087576">
        <ele>280</ele>
        <time>2016-04-18T11:04:53Z</time>
      </trkpt>
      <trkpt lat="39.595229" lon="3.087657">
        <ele>279.6</ele>
        <time>2016-04-18T11:04:54Z</time>
      </trkpt>
      <trkpt lat="39.595209" lon="3.087735">
        <ele>279.2</ele>
        <time>2016-04-18T11:04:55Z</time>
      </trkpt>
      <trkpt lat="39.595134" lon="3.087895">
        <ele>279.2</ele>
        <time>2016-04-18T11:04:57Z</time>
      </trkpt>
      <trkpt lat="39.595022" lon="3.088035">
        <ele>279.2</ele>
        <time>2016-04-18T11:04:59Z</time>
      </trkpt>
      <trkpt lat="39.594884" lon="3.08814">
        <ele>278.8</ele>
        <time>2016-04-18T11:05:01Z</time>
      </trkpt>
      <trkpt lat="39.594806" lon="3.088156">
        <ele>277.8</ele>
        <time>2016-04-18T11:05:02Z</time>
      </trkpt>
      <trkpt lat="39.594724" lon="3.088139">
        <ele>277.4</ele>
        <time>2016-04-18T11:05:03Z</time>
      </trkpt>
      <trkpt lat="39.594636" lon="3.088105">
        <ele>276.8</ele>
        <time>2016-04-18T11:05:04Z</time>
      </trkpt>
      <trkpt lat="39.59455" lon="3.088068">
        <ele>276.2</ele>
        <time>2016-04-18T11:05:05Z</time>
      </trkpt>
      <trkpt lat="39.594468" lon="3.088028">
        <ele>275.6</ele>
        <time>2016-04-18T11:05:06Z</time>
      </trkpt>
      <trkpt lat="39.594391" lon="3.087986">
        <ele>274.8</ele>
        <time>2016-04-18T11:05:07Z</time>
      </trkpt>
      <trkpt lat="39.594321" lon="3.087941">
        <ele>274.2</ele>
        <time>2016-04-18T11:05:08Z</time>
      </trkpt>
      <trkpt lat="39.594262" lon="3.087895">
        <ele>274.2</ele>
        <time>2016-04-18T11:05:09Z</time>
      </trkpt>
      <trkpt lat="39.594155" lon="3.087815">
        <ele>274.2</ele>
        <time>2016-04-18T11:05:11Z</time>
      </trkpt>
      <trkpt lat="39.594105" lon="3.087813">
        <ele>273.8</ele>
        <time>2016-04-18T11:05:12Z</time>
      </trkpt>
      <trkpt lat="39.594079" lon="3.087853">
        <ele>273.4</ele>
        <time>2016-04-18T11:05:13Z</time>
      </trkpt>
      <trkpt lat="39.594095" lon="3.087903">
        <ele>273</ele>
        <time>2016-04-18T11:05:14Z</time>
      </trkpt>
      <trkpt lat="39.594134" lon="3.087949">
        <ele>272.6</ele>
        <time>2016-04-18T11:05:15Z</time>
      </trkpt>
      <trkpt lat="39.594189" lon="3.087985">
        <ele>272.2</ele>
        <time>2016-04-18T11:05:16Z</time>
      </trkpt>
      <trkpt lat="39.59425" lon="3.088015">
        <ele>271.6</ele>
        <time>2016-04-18T11:05:17Z</time>
      </trkpt>
      <trkpt lat="39.594309" lon="3.088049">
        <ele>271</ele>
        <time>2016-04-18T11:05:18Z</time>
      </trkpt>
      <trkpt lat="39.594371" lon="3.088096">
        <ele>270.6</ele>
        <time>2016-04-18T11:05:19Z</time>
      </trkpt>
      <trkpt lat="39.594434" lon="3.088148">
        <ele>270</ele>
        <time>2016-04-18T11:05:20Z</time>
      </trkpt>
      <trkpt lat="39.594503" lon="3.088207">
        <ele>269.6</ele>
        <time>2016-04-18T11:05:21Z</time>
      </trkpt>
      <trkpt lat="39.594576" lon="3.088273">
        <ele>269</ele>
        <time>2016-04-18T11:05:22Z</time>
      </trkpt>
      <trkpt lat="39.59465" lon="3.088341">
        <ele>268.4</ele>
        <time>2016-04-18T11:05:23Z</time>
      </trkpt>
      <trkpt lat="39.594727" lon="3.088409">
        <ele>268</ele>
        <time>2016-04-18T11:05:24Z</time>
      </trkpt>
      <trkpt lat="39.594811" lon="3.088461">
        <ele>267.4</ele>
        <time>2016-04-18T11:05:25Z</time>
      </trkpt>
      <trkpt lat="39.594897" lon="3.088483">
        <ele>267</ele>
        <time>2016-04-18T11:05:26Z</time>
      </trkpt>
      <trkpt lat="39.594978" lon="3.088463">
        <ele>266</ele>
        <time>2016-04-18T11:05:27Z</time>
      </trkpt>
      <trkpt lat="39.595054" lon="3.088411">
        <ele>265.6</ele>
        <time>2016-04-18T11:05:28Z</time>
      </trkpt>
      <trkpt lat="39.595114" lon="3.088358">
        <ele>265.2</ele>
        <time>2016-04-18T11:05:29Z</time>
      </trkpt>
      <trkpt lat="39.59518" lon="3.088295">
        <ele>264.6</ele>
        <time>2016-04-18T11:05:30Z</time>
      </trkpt>
      <trkpt lat="39.595307" lon="3.088166">
        <ele>264.6</ele>
        <time>2016-04-18T11:05:32Z</time>
      </trkpt>
      <trkpt lat="39.595451" lon="3.088034">
        <ele>264.2</ele>
        <time>2016-04-18T11:05:34Z</time>
      </trkpt>
      <trkpt lat="39.595529" lon="3.087968">
        <ele>263.8</ele>
        <time>2016-04-18T11:05:35Z</time>
      </trkpt>
      <trkpt lat="39.595611" lon="3.087903">
        <ele>263.2</ele>
        <time>2016-04-18T11:05:36Z</time>
      </trkpt>
      <trkpt lat="39.595684" lon="3.087845">
        <ele>262.6</ele>
        <time>2016-04-18T11:05:37Z</time>
      </trkpt>
      <trkpt lat="39.595751" lon="3.087792">
        <ele>261.8</ele>
        <time>2016-04-18T11:05:38Z</time>
      </trkpt>
      <trkpt lat="39.595814" lon="3.087722">
        <ele>261.2</ele>
        <time>2016-04-18T11:05:39Z</time>
      </trkpt>
      <trkpt lat="39.595864" lon="3.087634">
        <ele>260.4</ele>
        <time>2016-04-18T11:05:40Z</time>
      </trkpt>
      <trkpt lat="39.595895" lon="3.087525">
        <ele>259.8</ele>
        <time>2016-04-18T11:05:41Z</time>
      </trkpt>
      <trkpt lat="39.595909" lon="3.087401">
        <ele>259</ele>
        <time>2016-04-18T11:05:42Z</time>
      </trkpt>
      <trkpt lat="39.595911" lon="3.087269">
        <ele>258</ele>
        <time>2016-04-18T11:05:43Z</time>
      </trkpt>
      <trkpt lat="39.595907" lon="3.087137">
        <ele>257.2</ele>
        <time>2016-04-18T11:05:44Z</time>
      </trkpt>
      <trkpt lat="39.595893" lon="3.087004">
        <ele>256.2</ele>
        <time>2016-04-18T11:05:45Z</time>
      </trkpt>
      <trkpt lat="39.59587" lon="3.086875">
        <ele>255</ele>
        <time>2016-04-18T11:05:46Z</time>
      </trkpt>
      <trkpt lat="39.595847" lon="3.086756">
        <ele>254</ele>
        <time>2016-04-18T11:05:47Z</time>
      </trkpt>
      <trkpt lat="39.595819" lon="3.086643">
        <ele>253</ele>
        <time>2016-04-18T11:05:48Z</time>
      </trkpt>
      <trkpt lat="39.595786" lon="3.086532">
        <ele>252.2</ele>
        <time>2016-04-18T11:05:49Z</time>
      </trkpt>
      <trkpt lat="39.595742" lon="3.086433">
        <ele>251.2</ele>
        <time>2016-04-18T11:05:50Z</time>
      </trkpt>
      <trkpt lat="39.595681" lon="3.086356">
        <ele>250.2</ele>
        <time>2016-04-18T11:05:51Z</time>
      </trkpt>
      <trkpt lat="39.595607" lon="3.086296">
        <ele>249</ele>
        <time>2016-04-18T11:05:52Z</time>
      </trkpt>
      <trkpt lat="39.595529" lon="3.086249">
        <ele>248.4</ele>
        <time>2016-04-18T11:05:53Z</time>
      </trkpt>
      <trkpt lat="39.595451" lon="3.086215">
        <ele>247.8</ele>
        <time>2016-04-18T11:05:54Z</time>
      </trkpt>
      <trkpt lat="39.595363" lon="3.08619">
        <ele>247.2</ele>
        <time>2016-04-18T11:05:55Z</time>
      </trkpt>
      <trkpt lat="39.595274" lon="3.086149">
        <ele>246.4</ele>
        <time>2016-04-18T11:05:56Z</time>
      </trkpt>
      <trkpt lat="39.59519" lon="3.086085">
        <ele>245.8</ele>
        <time>2016-04-18T11:05:57Z</time>
      </trkpt>
      <trkpt lat="39.595111" lon="3.086006">
        <ele>245.2</ele>
        <time>2016-04-18T11:05:58Z</time>
      </trkpt>
      <trkpt lat="39.595058" lon="3.085914">
        <ele>244.4</ele>
        <time>2016-04-18T11:05:59Z</time>
      </trkpt>
      <trkpt lat="39.595027" lon="3.085803">
        <ele>243.8</ele>
        <time>2016-04-18T11:06:00Z</time>
      </trkpt>
      <trkpt lat="39.595021" lon="3.085678">
        <ele>242.8</ele>
        <time>2016-04-18T11:06:01Z</time>
      </trkpt>
      <trkpt lat="39.595034" lon="3.085549">
        <ele>242</ele>
        <time>2016-04-18T11:06:02Z</time>
      </trkpt>
      <trkpt lat="39.595056" lon="3.085413">
        <ele>241</ele>
        <time>2016-04-18T11:06:03Z</time>
      </trkpt>
      <trkpt lat="39.595081" lon="3.085275">
        <ele>240</ele>
        <time>2016-04-18T11:06:04Z</time>
      </trkpt>
      <trkpt lat="39.595107" lon="3.085135">
        <ele>238.8</ele>
        <time>2016-04-18T11:06:05Z</time>
      </trkpt>
      <trkpt lat="39.595131" lon="3.084992">
        <ele>237.6</ele>
        <time>2016-04-18T11:06:06Z</time>
      </trkpt>
      <trkpt lat="39.59515" lon="3.084867">
        <ele>236.4</ele>
        <time>2016-04-18T11:06:07Z</time>
      </trkpt>
      <trkpt lat="39.59516" lon="3.084756">
        <ele>235.2</ele>
        <time>2016-04-18T11:06:08Z</time>
      </trkpt>
      <trkpt lat="39.595155" lon="3.084657">
        <ele>234</ele>
        <time>2016-04-18T11:06:09Z</time>
      </trkpt>
      <trkpt lat="39.595137" lon="3.08457">
        <ele>232.6</ele>
        <time>2016-04-18T11:06:10Z</time>
      </trkpt>
      <trkpt lat="39.595119" lon="3.084498">
        <ele>231.4</ele>
        <time>2016-04-18T11:06:11Z</time>
      </trkpt>
      <trkpt lat="39.595131" lon="3.084439">
        <ele>231.4</ele>
        <time>2016-04-18T11:06:12Z</time>
      </trkpt>
      <trkpt lat="39.595222" lon="3.084415">
        <ele>231.4</ele>
        <time>2016-04-18T11:06:14Z</time>
      </trkpt>
      <trkpt lat="39.595267" lon="3.084486">
        <ele>231</ele>
        <time>2016-04-18T11:06:15Z</time>
      </trkpt>
      <trkpt lat="39.595307" lon="3.084588">
        <ele>230.6</ele>
        <time>2016-04-18T11:06:16Z</time>
      </trkpt>
      <trkpt lat="39.595341" lon="3.084716">
        <ele>229</ele>
        <time>2016-04-18T11:06:17Z</time>
      </trkpt>
      <trkpt lat="39.595356" lon="3.084851">
        <ele>228</ele>
        <time>2016-04-18T11:06:18Z</time>
      </trkpt>
      <trkpt lat="39.595369" lon="3.084989">
        <ele>227</ele>
        <time>2016-04-18T11:06:19Z</time>
      </trkpt>
      <trkpt lat="39.595372" lon="3.085117">
        <ele>226</ele>
        <time>2016-04-18T11:06:20Z</time>
      </trkpt>
      <trkpt lat="39.59538" lon="3.085234">
        <ele>225</ele>
        <time>2016-04-18T11:06:21Z</time>
      </trkpt>
      <trkpt lat="39.595409" lon="3.085324">
        <ele>224.2</ele>
        <time>2016-04-18T11:06:22Z</time>
      </trkpt>
      <trkpt lat="39.595445" lon="3.085399">
        <ele>223.8</ele>
        <time>2016-04-18T11:06:23Z</time>
      </trkpt>
      <trkpt lat="39.595487" lon="3.085456">
        <ele>223.2</ele>
        <time>2016-04-18T11:06:24Z</time>
      </trkpt>
      <trkpt lat="39.595541" lon="3.085488">
        <ele>222.8</ele>
        <time>2016-04-18T11:06:25Z</time>
      </trkpt>
      <trkpt lat="39.595635" lon="3.085491">
        <ele>222.2</ele>
        <time>2016-04-18T11:06:26Z</time>
      </trkpt>
      <trkpt lat="39.595745" lon="3.085497">
        <ele>221.4</ele>
        <time>2016-04-18T11:06:27Z</time>
      </trkpt>
      <trkpt lat="39.59586" lon="3.085508">
        <ele>220.4</ele>
        <time>2016-04-18T11:06:28Z</time>
      </trkpt>
      <trkpt lat="39.595987" lon="3.085517">
        <ele>219.4</ele>
        <time>2016-04-18T11:06:29Z</time>
      </trkpt>
      <trkpt lat="39.596108" lon="3.08553">
        <ele>218.2</ele>
        <time>2016-04-18T11:06:30Z</time>
      </trkpt>
      <trkpt lat="39.596225" lon="3.085555">
        <ele>217</ele>
        <time>2016-04-18T11:06:31Z</time>
      </trkpt>
      <trkpt lat="39.596331" lon="3.085593">
        <ele>215.8</ele>
        <time>2016-04-18T11:06:32Z</time>
      </trkpt>
      <trkpt lat="39.596427" lon="3.085649">
        <ele>214.6</ele>
        <time>2016-04-18T11:06:33Z</time>
      </trkpt>
      <trkpt lat="39.596515" lon="3.085729">
        <ele>213.2</ele>
        <time>2016-04-18T11:06:34Z</time>
      </trkpt>
      <trkpt lat="39.596593" lon="3.085832">
        <ele>212</ele>
        <time>2016-04-18T11:06:35Z</time>
      </trkpt>
      <trkpt lat="39.596661" lon="3.085954">
        <ele>211.2</ele>
        <time>2016-04-18T11:06:36Z</time>
      </trkpt>
      <trkpt lat="39.596721" lon="3.086083">
        <ele>210.4</ele>
        <time>2016-04-18T11:06:37Z</time>
      </trkpt>
      <trkpt lat="39.596764" lon="3.086222">
        <ele>209.2</ele>
        <time>2016-04-18T11:06:38Z</time>
      </trkpt>
      <trkpt lat="39.596797" lon="3.086354">
        <ele>208</ele>
        <time>2016-04-18T11:06:39Z</time>
      </trkpt>
      <trkpt lat="39.596827" lon="3.086481">
        <ele>207</ele>
        <time>2016-04-18T11:06:40Z</time>
      </trkpt>
      <trkpt lat="39.596871" lon="3.086582">
        <ele>206</ele>
        <time>2016-04-18T11:06:41Z</time>
      </trkpt>
      <trkpt lat="39.596933" lon="3.086645">
        <ele>204.4</ele>
        <time>2016-04-18T11:06:42Z</time>
      </trkpt>
      <trkpt lat="39.596997" lon="3.086679">
        <ele>203.4</ele>
        <time>2016-04-18T11:06:43Z</time>
      </trkpt>
      <trkpt lat="39.597078" lon="3.086679">
        <ele>202.8</ele>
        <time>2016-04-18T11:06:44Z</time>
      </trkpt>
      <trkpt lat="39.597175" lon="3.086677">
        <ele>202</ele>
        <time>2016-04-18T11:06:45Z</time>
      </trkpt>
      <trkpt lat="39.597271" lon="3.086702">
        <ele>201</ele>
        <time>2016-04-18T11:06:46Z</time>
      </trkpt>
      <trkpt lat="39.597366" lon="3.086746">
        <ele>200</ele>
        <time>2016-04-18T11:06:47Z</time>
      </trkpt>
      <trkpt lat="39.597461" lon="3.0868">
        <ele>199</ele>
        <time>2016-04-18T11:06:48Z</time>
      </trkpt>
      <trkpt lat="39.597556" lon="3.086866">
        <ele>198</ele>
        <time>2016-04-18T11:06:49Z</time>
      </trkpt>
      <trkpt lat="39.597637" lon="3.086943">
        <ele>197.2</ele>
        <time>2016-04-18T11:06:50Z</time>
      </trkpt>
      <trkpt lat="39.597707" lon="3.087041">
        <ele>196.2</ele>
        <time>2016-04-18T11:06:51Z</time>
      </trkpt>
      <trkpt lat="39.597755" lon="3.087164">
        <ele>195.4</ele>
        <time>2016-04-18T11:06:52Z</time>
      </trkpt>
      <trkpt lat="39.597784" lon="3.087285">
        <ele>194.6</ele>
        <time>2016-04-18T11:06:53Z</time>
      </trkpt>
      <trkpt lat="39.597804" lon="3.087405">
        <ele>193.6</ele>
        <time>2016-04-18T11:06:54Z</time>
      </trkpt>
      <trkpt lat="39.59782" lon="3.08753">
        <ele>192.8</ele>
        <time>2016-04-18T11:06:55Z</time>
      </trkpt>
      <trkpt lat="39.597831" lon="3.087662">
        <ele>191.8</ele>
        <time>2016-04-18T11:06:56Z</time>
      </trkpt>
      <trkpt lat="39.59783" lon="3.087798">
        <ele>191</ele>
        <time>2016-04-18T11:06:57Z</time>
      </trkpt>
      <trkpt lat="39.597815" lon="3.087936">
        <ele>190.2</ele>
        <time>2016-04-18T11:06:58Z</time>
      </trkpt>
      <trkpt lat="39.597798" lon="3.088072">
        <ele>189.4</ele>
        <time>2016-04-18T11:06:59Z</time>
      </trkpt>
      <trkpt lat="39.597783" lon="3.08822">
        <ele>188.6</ele>
        <time>2016-04-18T11:07:00Z</time>
      </trkpt>
      <trkpt lat="39.59777" lon="3.088363">
        <ele>187.8</ele>
        <time>2016-04-18T11:07:01Z</time>
      </trkpt>
      <trkpt lat="39.597755" lon="3.088503">
        <ele>187.2</ele>
        <time>2016-04-18T11:07:02Z</time>
      </trkpt>
      <trkpt lat="39.597743" lon="3.088644">
        <ele>186.4</ele>
        <time>2016-04-18T11:07:03Z</time>
      </trkpt>
      <trkpt lat="39.597739" lon="3.088786">
        <ele>185.6</ele>
        <time>2016-04-18T11:07:04Z</time>
      </trkpt>
      <trkpt lat="39.597742" lon="3.088927">
        <ele>185</ele>
        <time>2016-04-18T11:07:05Z</time>
      </trkpt>
      <trkpt lat="39.597751" lon="3.089073">
        <ele>183.4</ele>
        <time>2016-04-18T11:07:06Z</time>
      </trkpt>
      <trkpt lat="39.597768" lon="3.089226">
        <ele>182.6</ele>
        <time>2016-04-18T11:07:07Z</time>
      </trkpt>
      <trkpt lat="39.597789" lon="3.089371">
        <ele>182</ele>
        <time>2016-04-18T11:07:08Z</time>
      </trkpt>
      <trkpt lat="39.597811" lon="3.089513">
        <ele>181.4</ele>
        <time>2016-04-18T11:07:09Z</time>
      </trkpt>
      <trkpt lat="39.597833" lon="3.089659">
        <ele>180.8</ele>
        <time>2016-04-18T11:07:10Z</time>
      </trkpt>
      <trkpt lat="39.597858" lon="3.089801">
        <ele>180.2</ele>
        <time>2016-04-18T11:07:11Z</time>
      </trkpt>
      <trkpt lat="39.597883" lon="3.089943">
        <ele>179.4</ele>
        <time>2016-04-18T11:07:12Z</time>
      </trkpt>
      <trkpt lat="39.597905" lon="3.090083">
        <ele>179</ele>
        <time>2016-04-18T11:07:13Z</time>
      </trkpt>
      <trkpt lat="39.597928" lon="3.090222">
        <ele>178.6</ele>
        <time>2016-04-18T11:07:14Z</time>
      </trkpt>
      <trkpt lat="39.597954" lon="3.090371">
        <ele>178.2</ele>
        <time>2016-04-18T11:07:15Z</time>
      </trkpt>
      <trkpt lat="39.597967" lon="3.090515">
        <ele>177.8</ele>
        <time>2016-04-18T11:07:16Z</time>
      </trkpt>
      <trkpt lat="39.597967" lon="3.090656">
        <ele>177.2</ele>
        <time>2016-04-18T11:07:17Z</time>
      </trkpt>
      <trkpt lat="39.597942" lon="3.090786">
        <ele>176.6</ele>
        <time>2016-04-18T11:07:18Z</time>
      </trkpt>
      <trkpt lat="39.597911" lon="3.090906">
        <ele>176</ele>
        <time>2016-04-18T11:07:19Z</time>
      </trkpt>
      <trkpt lat="39.597897" lon="3.091025">
        <ele>175.4</ele>
        <time>2016-04-18T11:07:20Z</time>
      </trkpt>
      <trkpt lat="39.59791" lon="3.091152">
        <ele>174.8</ele>
        <time>2016-04-18T11:07:21Z</time>
      </trkpt>
      <trkpt lat="39.597949" lon="3.091279">
        <ele>174.2</ele>
        <time>2016-04-18T11:07:22Z</time>
      </trkpt>
      <trkpt lat="39.598003" lon="3.091408">
        <ele>173.6</ele>
        <time>2016-04-18T11:07:23Z</time>
      </trkpt>
      <trkpt lat="39.598057" lon="3.091526">
        <ele>172.6</ele>
        <time>2016-04-18T11:07:24Z</time>
      </trkpt>
      <trkpt lat="39.598125" lon="3.091654">
        <ele>171.8</ele>
        <time>2016-04-18T11:07:25Z</time>
      </trkpt>
      <trkpt lat="39.598194" lon="3.091774">
        <ele>170.8</ele>
        <time>2016-04-18T11:07:26Z</time>
      </trkpt>
      <trkpt lat="39.59826" lon="3.091892">
        <ele>169.8</ele>
        <time>2016-04-18T11:07:27Z</time>
      </trkpt>
      <trkpt lat="39.598331" lon="3.092009">
        <ele>168.8</ele>
        <time>2016-04-18T11:07:28Z</time>
      </trkpt>
      <trkpt lat="39.598402" lon="3.092128">
        <ele>167.8</ele>
        <time>2016-04-18T11:07:29Z</time>
      </trkpt>
      <trkpt lat="39.598481" lon="3.092261">
        <ele>167</ele>
        <time>2016-04-18T11:07:30Z</time>
      </trkpt>
      <trkpt lat="39.598556" lon="3.092389">
        <ele>165</ele>
        <time>2016-04-18T11:07:31Z</time>
      </trkpt>
      <trkpt lat="39.598635" lon="3.092526">
        <ele>164</ele>
        <time>2016-04-18T11:07:32Z</time>
      </trkpt>
      <trkpt lat="39.598719" lon="3.092671">
        <ele>162.6</ele>
        <time>2016-04-18T11:07:33Z</time>
      </trkpt>
      <trkpt lat="39.598801" lon="3.092809">
        <ele>161.2</ele>
        <time>2016-04-18T11:07:34Z</time>
      </trkpt>
      <trkpt lat="39.598887" lon="3.09295">
        <ele>159.8</ele>
        <time>2016-04-18T11:07:35Z</time>
      </trkpt>
      <trkpt lat="39.598991" lon="3.093093">
        <ele>158.4</ele>
        <time>2016-04-18T11:07:36Z</time>
      </trkpt>
      <trkpt lat="39.599085" lon="3.093203">
        <ele>157.2</ele>
        <time>2016-04-18T11:07:37Z</time>
      </trkpt>
      <trkpt lat="39.599199" lon="3.093332">
        <ele>155.8</ele>
        <time>2016-04-18T11:07:38Z</time>
      </trkpt>
      <trkpt lat="39.599304" lon="3.09346">
        <ele>154.2</ele>
        <time>2016-04-18T11:07:39Z</time>
      </trkpt>
      <trkpt lat="39.599405" lon="3.093598">
        <ele>152.6</ele>
        <time>2016-04-18T11:07:40Z</time>
      </trkpt>
      <trkpt lat="39.599499" lon="3.093746">
        <ele>151</ele>
        <time>2016-04-18T11:07:41Z</time>
      </trkpt>
      <trkpt lat="39.59959" lon="3.093902">
        <ele>149.4</ele>
        <time>2016-04-18T11:07:42Z</time>
      </trkpt>
      <trkpt lat="39.599682" lon="3.094064">
        <ele>147.6</ele>
        <time>2016-04-18T11:07:43Z</time>
      </trkpt>
      <trkpt lat="39.599776" lon="3.094232">
        <ele>145.6</ele>
        <time>2016-04-18T11:07:44Z</time>
      </trkpt>
      <trkpt lat="39.599871" lon="3.094401">
        <ele>143.6</ele>
        <time>2016-04-18T11:07:45Z</time>
      </trkpt>
      <trkpt lat="39.599976" lon="3.094584">
        <ele>141.8</ele>
        <time>2016-04-18T11:07:46Z</time>
      </trkpt>
      <trkpt lat="39.600078" lon="3.094768">
        <ele>140</ele>
        <time>2016-04-18T11:07:47Z</time>
      </trkpt>
      <trkpt lat="39.600178" lon="3.09495">
        <ele>138.4</ele>
        <time>2016-04-18T11:07:48Z</time>
      </trkpt>
      <trkpt lat="39.600283" lon="3.095131">
        <ele>136.6</ele>
        <time>2016-04-18T11:07:49Z</time>
      </trkpt>
      <trkpt lat="39.600383" lon="3.095307">
        <ele>135</ele>
        <time>2016-04-18T11:07:50Z</time>
      </trkpt>
      <trkpt lat="39.600485" lon="3.095485">
        <ele>133.4</ele>
        <time>2016-04-18T11:07:51Z</time>
      </trkpt>
      <trkpt lat="39.600585" lon="3.095658">
        <ele>131.8</ele>
        <time>2016-04-18T11:07:52Z</time>
      </trkpt>
      <trkpt lat="39.60069" lon="3.095839">
        <ele>130.8</ele>
        <time>2016-04-18T11:07:53Z</time>
      </trkpt>
      <trkpt lat="39.600785" lon="3.096008">
        <ele>129.8</ele>
        <time>2016-04-18T11:07:54Z</time>
      </trkpt>
      <trkpt lat="39.600875" lon="3.096172">
        <ele>128.6</ele>
        <time>2016-04-18T11:07:55Z</time>
      </trkpt>
      <trkpt lat="39.600956" lon="3.096329">
        <ele>126.8</ele>
        <time>2016-04-18T11:07:56Z</time>
      </trkpt>
      <trkpt lat="39.601032" lon="3.096487">
        <ele>126</ele>
        <time>2016-04-18T11:07:57Z</time>
      </trkpt>
      <trkpt lat="39.601083" lon="3.096647">
        <ele>125</ele>
        <time>2016-04-18T11:07:58Z</time>
      </trkpt>
      <trkpt lat="39.601113" lon="3.096805">
        <ele>125.4</ele>
        <time>2016-04-18T11:07:59Z</time>
      </trkpt>
      <trkpt lat="39.601138" lon="3.096958">
        <ele>125.6</ele>
        <time>2016-04-18T11:08:00Z</time>
      </trkpt>
      <trkpt lat="39.60116" lon="3.09711">
        <ele>126.4</ele>
        <time>2016-04-18T11:08:01Z</time>
      </trkpt>
      <trkpt lat="39.601171" lon="3.097248">
        <ele>127.2</ele>
        <time>2016-04-18T11:08:02Z</time>
      </trkpt>
      <trkpt lat="39.601181" lon="3.097379">
        <ele>128</ele>
        <time>2016-04-18T11:08:03Z</time>
      </trkpt>
      <trkpt lat="39.601194" lon="3.097501">
        <ele>129</ele>
        <time>2016-04-18T11:08:04Z</time>
      </trkpt>
      <trkpt lat="39.601209" lon="3.097614">
        <ele>129.8</ele>
        <time>2016-04-18T11:08:05Z</time>
      </trkpt>
      <trkpt lat="39.601232" lon="3.097717">
        <ele>130.8</ele>
        <time>2016-04-18T11:08:06Z</time>
      </trkpt>
      <trkpt lat="39.601263" lon="3.097813">
        <ele>131.4</ele>
        <time>2016-04-18T11:08:07Z</time>
      </trkpt>
      <trkpt lat="39.601299" lon="3.097906">
        <ele>132</ele>
        <time>2016-04-18T11:08:08Z</time>
      </trkpt>
      <trkpt lat="39.601329" lon="3.097995">
        <ele>132.6</ele>
        <time>2016-04-18T11:08:09Z</time>
      </trkpt>
      <trkpt lat="39.60136" lon="3.09808">
        <ele>133.4</ele>
        <time>2016-04-18T11:08:10Z</time>
      </trkpt>
      <trkpt lat="39.60139" lon="3.098163">
        <ele>134</ele>
        <time>2016-04-18T11:08:11Z</time>
      </trkpt>
      <trkpt lat="39.601423" lon="3.098243">
        <ele>134.4</ele>
        <time>2016-04-18T11:08:12Z</time>
      </trkpt>
      <trkpt lat="39.601455" lon="3.09832">
        <ele>135</ele>
        <time>2016-04-18T11:08:13Z</time>
      </trkpt>
      <trkpt lat="39.601489" lon="3.098393">
        <ele>135.4</ele>
        <time>2016-04-18T11:08:14Z</time>
      </trkpt>
      <trkpt lat="39.601525" lon="3.098466">
        <ele>135.8</ele>
        <time>2016-04-18T11:08:15Z</time>
      </trkpt>
      <trkpt lat="39.601564" lon="3.098535">
        <ele>136.4</ele>
        <time>2016-04-18T11:08:16Z</time>
      </trkpt>
      <trkpt lat="39.601604" lon="3.098604">
        <ele>136.8</ele>
        <time>2016-04-18T11:08:17Z</time>
      </trkpt>
      <trkpt lat="39.601638" lon="3.098675">
        <ele>137.2</ele>
        <time>2016-04-18T11:08:18Z</time>
      </trkpt>
      <trkpt lat="39.601669" lon="3.098748">
        <ele>137.8</ele>
        <time>2016-04-18T11:08:19Z</time>
      </trkpt>
      <trkpt lat="39.601697" lon="3.098819">
        <ele>138.8</ele>
        <time>2016-04-18T11:08:20Z</time>
      </trkpt>
      <trkpt lat="39.601745" lon="3.098965">
        <ele>139.2</ele>
        <time>2016-04-18T11:08:22Z</time>
      </trkpt>
      <trkpt lat="39.601771" lon="3.09903">
        <ele>139.6</ele>
        <time>2016-04-18T11:08:23Z</time>
      </trkpt>
      <trkpt lat="39.601803" lon="3.099102">
        <ele>140</ele>
        <time>2016-04-18T11:08:24Z</time>
      </trkpt>
      <trkpt lat="39.601829" lon="3.099172">
        <ele>140.4</ele>
        <time>2016-04-18T11:08:25Z</time>
      </trkpt>
      <trkpt lat="39.601854" lon="3.099238">
        <ele>140.8</ele>
        <time>2016-04-18T11:08:26Z</time>
      </trkpt>
      <trkpt lat="39.601886" lon="3.099301">
        <ele>140.8</ele>
        <time>2016-04-18T11:08:27Z</time>
      </trkpt>
      <trkpt lat="39.601917" lon="3.099361">
        <ele>141.2</ele>
        <time>2016-04-18T11:08:28Z</time>
      </trkpt>
      <trkpt lat="39.601943" lon="3.099425">
        <ele>141.6</ele>
        <time>2016-04-18T11:08:29Z</time>
      </trkpt>
      <trkpt lat="39.601971" lon="3.099488">
        <ele>142.2</ele>
        <time>2016-04-18T11:08:30Z</time>
      </trkpt>
      <trkpt lat="39.602003" lon="3.099553">
        <ele>142.6</ele>
        <time>2016-04-18T11:08:31Z</time>
      </trkpt>
      <trkpt lat="39.602034" lon="3.099622">
        <ele>143</ele>
        <time>2016-04-18T11:08:32Z</time>
      </trkpt>
      <trkpt lat="39.602065" lon="3.099688">
        <ele>143</ele>
        <time>2016-04-18T11:08:33Z</time>
      </trkpt>
      <trkpt lat="39.602128" lon="3.099807">
        <ele>143.6</ele>
        <time>2016-04-18T11:08:35Z</time>
      </trkpt>
      <trkpt lat="39.602159" lon="3.099863">
        <ele>144</ele>
        <time>2016-04-18T11:08:36Z</time>
      </trkpt>
      <trkpt lat="39.60219" lon="3.099913">
        <ele>144.4</ele>
        <time>2016-04-18T11:08:37Z</time>
      </trkpt>
      <trkpt lat="39.602216" lon="3.099961">
        <ele>144.8</ele>
        <time>2016-04-18T11:08:38Z</time>
      </trkpt>
      <trkpt lat="39.602239" lon="3.100008">
        <ele>145.2</ele>
        <time>2016-04-18T11:08:39Z</time>
      </trkpt>
      <trkpt lat="39.602288" lon="3.1001">
        <ele>145.2</ele>
        <time>2016-04-18T11:08:41Z</time>
      </trkpt>
      <trkpt lat="39.60234" lon="3.100212">
        <ele>145.2</ele>
        <time>2016-04-18T11:08:43Z</time>
      </trkpt>
      <trkpt lat="39.602531" lon="3.10057">
        <ele>145.2</ele>
        <time>2016-04-18T11:08:49Z</time>
      </trkpt>
      <trkpt lat="39.602738" lon="3.100961">
        <ele>145.2</ele>
        <time>2016-04-18T11:08:54Z</time>
      </trkpt>
      <trkpt lat="39.602782" lon="3.101055">
        <ele>144.8</ele>
        <time>2016-04-18T11:08:55Z</time>
      </trkpt>
      <trkpt lat="39.602828" lon="3.101153">
        <ele>144.4</ele>
        <time>2016-04-18T11:08:56Z</time>
      </trkpt>
      <trkpt lat="39.602877" lon="3.101257">
        <ele>144</ele>
        <time>2016-04-18T11:08:57Z</time>
      </trkpt>
      <trkpt lat="39.602929" lon="3.101362">
        <ele>143.2</ele>
        <time>2016-04-18T11:08:58Z</time>
      </trkpt>
      <trkpt lat="39.602983" lon="3.101471">
        <ele>142.6</ele>
        <time>2016-04-18T11:08:59Z</time>
      </trkpt>
      <trkpt lat="39.603037" lon="3.101584">
        <ele>141.4</ele>
        <time>2016-04-18T11:09:00Z</time>
      </trkpt>
      <trkpt lat="39.603092" lon="3.101701">
        <ele>140.4</ele>
        <time>2016-04-18T11:09:01Z</time>
      </trkpt>
      <trkpt lat="39.603148" lon="3.101829">
        <ele>139.4</ele>
        <time>2016-04-18T11:09:02Z</time>
      </trkpt>
      <trkpt lat="39.603203" lon="3.101954">
        <ele>138.2</ele>
        <time>2016-04-18T11:09:03Z</time>
      </trkpt>
      <trkpt lat="39.603257" lon="3.102076">
        <ele>137.2</ele>
        <time>2016-04-18T11:09:04Z</time>
      </trkpt>
      <trkpt lat="39.603312" lon="3.102203">
        <ele>136</ele>
        <time>2016-04-18T11:09:05Z</time>
      </trkpt>
      <trkpt lat="39.603365" lon="3.102329">
        <ele>135.4</ele>
        <time>2016-04-18T11:09:06Z</time>
      </trkpt>
      <trkpt lat="39.603418" lon="3.102451">
        <ele>134.8</ele>
        <time>2016-04-18T11:09:07Z</time>
      </trkpt>
      <trkpt lat="39.603474" lon="3.102567">
        <ele>134.2</ele>
        <time>2016-04-18T11:09:08Z</time>
      </trkpt>
      <trkpt lat="39.603529" lon="3.102679">
        <ele>133.6</ele>
        <time>2016-04-18T11:09:09Z</time>
      </trkpt>
      <trkpt lat="39.603581" lon="3.102794">
        <ele>132.8</ele>
        <time>2016-04-18T11:09:10Z</time>
      </trkpt>
      <trkpt lat="39.603628" lon="3.102902">
        <ele>132.8</ele>
        <time>2016-04-18T11:09:11Z</time>
      </trkpt>
      <trkpt lat="39.603805" lon="3.103321">
        <ele>132.8</ele>
        <time>2016-04-18T11:09:15Z</time>
      </trkpt>
      <trkpt lat="39.603962" lon="3.103721">
        <ele>132.8</ele>
        <time>2016-04-18T11:09:19Z</time>
      </trkpt>
      <trkpt lat="39.604079" lon="3.104024">
        <ele>132.8</ele>
        <time>2016-04-18T11:09:22Z</time>
      </trkpt>
      <trkpt lat="39.604161" lon="3.104245">
        <ele>132.8</ele>
        <time>2016-04-18T11:09:24Z</time>
      </trkpt>
      <trkpt lat="39.604205" lon="3.104366">
        <ele>132.2</ele>
        <time>2016-04-18T11:09:25Z</time>
      </trkpt>
      <trkpt lat="39.604247" lon="3.104487">
        <ele>131.8</ele>
        <time>2016-04-18T11:09:26Z</time>
      </trkpt>
      <trkpt lat="39.60429" lon="3.104608">
        <ele>131</ele>
        <time>2016-04-18T11:09:27Z</time>
      </trkpt>
      <trkpt lat="39.604335" lon="3.104731">
        <ele>130.2</ele>
        <time>2016-04-18T11:09:28Z</time>
      </trkpt>
      <trkpt lat="39.604381" lon="3.104853">
        <ele>129.4</ele>
        <time>2016-04-18T11:09:29Z</time>
      </trkpt>
      <trkpt lat="39.604428" lon="3.104976">
        <ele>128.6</ele>
        <time>2016-04-18T11:09:30Z</time>
      </trkpt>
      <trkpt lat="39.604472" lon="3.105096">
        <ele>128</ele>
        <time>2016-04-18T11:09:31Z</time>
      </trkpt>
      <trkpt lat="39.604515" lon="3.10522">
        <ele>127.2</ele>
        <time>2016-04-18T11:09:32Z</time>
      </trkpt>
      <trkpt lat="39.60456" lon="3.10534">
        <ele>126.4</ele>
        <time>2016-04-18T11:09:33Z</time>
      </trkpt>
      <trkpt lat="39.604609" lon="3.105459">
        <ele>125.6</ele>
        <time>2016-04-18T11:09:34Z</time>
      </trkpt>
      <trkpt lat="39.604658" lon="3.105581">
        <ele>125.2</ele>
        <time>2016-04-18T11:09:35Z</time>
      </trkpt>
      <trkpt lat="39.604708" lon="3.105702">
        <ele>124.8</ele>
        <time>2016-04-18T11:09:36Z</time>
      </trkpt>
      <trkpt lat="39.60476" lon="3.10582">
        <ele>124.4</ele>
        <time>2016-04-18T11:09:37Z</time>
      </trkpt>
      <trkpt lat="39.604811" lon="3.105938">
        <ele>123.8</ele>
        <time>2016-04-18T11:09:38Z</time>
      </trkpt>
      <trkpt lat="39.604857" lon="3.106056">
        <ele>123.2</ele>
        <time>2016-04-18T11:09:39Z</time>
      </trkpt>
      <trkpt lat="39.604905" lon="3.106182">
        <ele>122.6</ele>
        <time>2016-04-18T11:09:40Z</time>
      </trkpt>
      <trkpt lat="39.604955" lon="3.106298">
        <ele>122</ele>
        <time>2016-04-18T11:09:41Z</time>
      </trkpt>
      <trkpt lat="39.605003" lon="3.106413">
        <ele>121.4</ele>
        <time>2016-04-18T11:09:42Z</time>
      </trkpt>
      <trkpt lat="39.605051" lon="3.106527">
        <ele>120.8</ele>
        <time>2016-04-18T11:09:43Z</time>
      </trkpt>
      <trkpt lat="39.6051" lon="3.106639">
        <ele>120.4</ele>
        <time>2016-04-18T11:09:44Z</time>
      </trkpt>
      <trkpt lat="39.605151" lon="3.106752">
        <ele>120</ele>
        <time>2016-04-18T11:09:45Z</time>
      </trkpt>
      <trkpt lat="39.605196" lon="3.106865">
        <ele>119.6</ele>
        <time>2016-04-18T11:09:46Z</time>
      </trkpt>
      <trkpt lat="39.605242" lon="3.106975">
        <ele>119.2</ele>
        <time>2016-04-18T11:09:47Z</time>
      </trkpt>
      <trkpt lat="39.605332" lon="3.107207">
        <ele>119.2</ele>
        <time>2016-04-18T11:09:49Z</time>
      </trkpt>
      <trkpt lat="39.605378" lon="3.107328">
        <ele>118.8</ele>
        <time>2016-04-18T11:09:50Z</time>
      </trkpt>
      <trkpt lat="39.605424" lon="3.107449">
        <ele>118.4</ele>
        <time>2016-04-18T11:09:51Z</time>
      </trkpt>
      <trkpt lat="39.605471" lon="3.107569">
        <ele>117.6</ele>
        <time>2016-04-18T11:09:52Z</time>
      </trkpt>
      <trkpt lat="39.605517" lon="3.107684">
        <ele>117</ele>
        <time>2016-04-18T11:09:53Z</time>
      </trkpt>
      <trkpt lat="39.605574" lon="3.107778">
        <ele>116.2</ele>
        <time>2016-04-18T11:09:54Z</time>
      </trkpt>
      <trkpt lat="39.605656" lon="3.107843">
        <ele>115.6</ele>
        <time>2016-04-18T11:09:55Z</time>
      </trkpt>
      <trkpt lat="39.605744" lon="3.107858">
        <ele>114.8</ele>
        <time>2016-04-18T11:09:56Z</time>
      </trkpt>
      <trkpt lat="39.605828" lon="3.107834">
        <ele>114.2</ele>
        <time>2016-04-18T11:09:57Z</time>
      </trkpt>
      <trkpt lat="39.605913" lon="3.107794">
        <ele>113.4</ele>
        <time>2016-04-18T11:09:58Z</time>
      </trkpt>
      <trkpt lat="39.606" lon="3.107755">
        <ele>112.6</ele>
        <time>2016-04-18T11:09:59Z</time>
      </trkpt>
      <trkpt lat="39.606094" lon="3.107756">
        <ele>112.6</ele>
        <time>2016-04-18T11:10:00Z</time>
      </trkpt>
      <trkpt lat="39.606261" lon="3.107856">
        <ele>112.6</ele>
        <time>2016-04-18T11:10:02Z</time>
      </trkpt>
      <trkpt lat="39.606316" lon="3.107947">
        <ele>112.6</ele>
        <time>2016-04-18T11:10:03Z</time>
      </trkpt>
      <trkpt lat="39.606367" lon="3.108036">
        <ele>112.6</ele>
        <time>2016-04-18T11:10:04Z</time>
      </trkpt>
      <trkpt lat="39.606427" lon="3.108113">
        <ele>112.6</ele>
        <time>2016-04-18T11:10:05Z</time>
      </trkpt>
      <trkpt lat="39.606476" lon="3.108198">
        <ele>112.6</ele>
        <time>2016-04-18T11:10:06Z</time>
      </trkpt>
      <trkpt lat="39.606525" lon="3.108278">
        <ele>113</ele>
        <time>2016-04-18T11:10:07Z</time>
      </trkpt>
      <trkpt lat="39.606577" lon="3.10835">
        <ele>113.6</ele>
        <time>2016-04-18T11:10:08Z</time>
      </trkpt>
      <trkpt lat="39.606628" lon="3.108417">
        <ele>114</ele>
        <time>2016-04-18T11:10:09Z</time>
      </trkpt>
      <trkpt lat="39.60668" lon="3.108483">
        <ele>114.4</ele>
        <time>2016-04-18T11:10:10Z</time>
      </trkpt>
      <trkpt lat="39.606733" lon="3.108553">
        <ele>114.8</ele>
        <time>2016-04-18T11:10:11Z</time>
      </trkpt>
      <trkpt lat="39.606828" lon="3.108687">
        <ele>114.8</ele>
        <time>2016-04-18T11:10:13Z</time>
      </trkpt>
      <trkpt lat="39.607008" lon="3.108917">
        <ele>114.8</ele>
        <time>2016-04-18T11:10:17Z</time>
      </trkpt>
      <trkpt lat="39.607051" lon="3.108973">
        <ele>114.8</ele>
        <time>2016-04-18T11:10:18Z</time>
      </trkpt>
      <trkpt lat="39.607121" lon="3.109066">
        <ele>115.2</ele>
        <time>2016-04-18T11:10:20Z</time>
      </trkpt>
      <trkpt lat="39.607147" lon="3.109101">
        <ele>115.6</ele>
        <time>2016-04-18T11:10:21Z</time>
      </trkpt>
      <trkpt lat="39.607165" lon="3.109131">
        <ele>116</ele>
        <time>2016-04-18T11:10:22Z</time>
      </trkpt>
      <trkpt lat="39.607176" lon="3.109155">
        <ele>116.4</ele>
        <time>2016-04-18T11:10:23Z</time>
      </trkpt>
      <trkpt lat="39.606299" lon="3.1091">
        <ele>114.6</ele>
        <time>2016-04-18T11:12:05Z</time>
      </trkpt>
      <trkpt lat="39.606252" lon="3.109101">
        <ele>113.8</ele>
        <time>2016-04-18T11:12:06Z</time>
      </trkpt>
      <trkpt lat="39.606154" lon="3.109105">
        <ele>113</ele>
        <time>2016-04-18T11:12:07Z</time>
      </trkpt>
      <trkpt lat="39.606063" lon="3.109115">
        <ele>112.2</ele>
        <time>2016-04-18T11:12:08Z</time>
      </trkpt>
      <trkpt lat="39.605974" lon="3.109122">
        <ele>111.4</ele>
        <time>2016-04-18T11:12:09Z</time>
      </trkpt>
      <trkpt lat="39.605885" lon="3.109131">
        <ele>110.8</ele>
        <time>2016-04-18T11:12:10Z</time>
      </trkpt>
      <trkpt lat="39.605792" lon="3.109141">
        <ele>110.4</ele>
        <time>2016-04-18T11:12:11Z</time>
      </trkpt>
      <trkpt lat="39.605702" lon="3.109152">
        <ele>110</ele>
        <time>2016-04-18T11:12:12Z</time>
      </trkpt>
      <trkpt lat="39.605613" lon="3.109156">
        <ele>109.4</ele>
        <time>2016-04-18T11:12:13Z</time>
      </trkpt>
      <trkpt lat="39.605521" lon="3.109156">
        <ele>108.8</ele>
        <time>2016-04-18T11:12:14Z</time>
      </trkpt>
      <trkpt lat="39.605431" lon="3.109168">
        <ele>108.2</ele>
        <time>2016-04-18T11:12:15Z</time>
      </trkpt>
      <trkpt lat="39.605338" lon="3.109184">
        <ele>107.6</ele>
        <time>2016-04-18T11:12:16Z</time>
      </trkpt>
      <trkpt lat="39.605242" lon="3.109223">
        <ele>106.8</ele>
        <time>2016-04-18T11:12:17Z</time>
      </trkpt>
      <trkpt lat="39.605146" lon="3.109282">
        <ele>105.8</ele>
        <time>2016-04-18T11:12:18Z</time>
      </trkpt>
      <trkpt lat="39.605053" lon="3.109353">
        <ele>105</ele>
        <time>2016-04-18T11:12:19Z</time>
      </trkpt>
      <trkpt lat="39.604963" lon="3.109427">
        <ele>104</ele>
        <time>2016-04-18T11:12:20Z</time>
      </trkpt>
      <trkpt lat="39.604875" lon="3.109506">
        <ele>103.2</ele>
        <time>2016-04-18T11:12:21Z</time>
      </trkpt>
      <trkpt lat="39.604787" lon="3.10959">
        <ele>102.4</ele>
        <time>2016-04-18T11:12:22Z</time>
      </trkpt>
      <trkpt lat="39.604707" lon="3.109671">
        <ele>101.6</ele>
        <time>2016-04-18T11:12:23Z</time>
      </trkpt>
      <trkpt lat="39.604634" lon="3.109756">
        <ele>100.8</ele>
        <time>2016-04-18T11:12:24Z</time>
      </trkpt>
      <trkpt lat="39.604568" lon="3.109847">
        <ele>100</ele>
        <time>2016-04-18T11:12:25Z</time>
      </trkpt>
      <trkpt lat="39.604431" lon="3.109972">
        <ele>100</ele>
        <time>2016-04-18T11:12:27Z</time>
      </trkpt>
      <trkpt lat="39.604296" lon="3.110004">
        <ele>100.4</ele>
        <time>2016-04-18T11:12:29Z</time>
      </trkpt>
      <trkpt lat="39.604245" lon="3.110011">
        <ele>101</ele>
        <time>2016-04-18T11:12:30Z</time>
      </trkpt>
      <trkpt lat="39.604192" lon="3.110019">
        <ele>101.4</ele>
        <time>2016-04-18T11:12:31Z</time>
      </trkpt>
      <trkpt lat="39.604142" lon="3.110027">
        <ele>102</ele>
        <time>2016-04-18T11:12:32Z</time>
      </trkpt>
      <trkpt lat="39.604093" lon="3.11003">
        <ele>102.8</ele>
        <time>2016-04-18T11:12:33Z</time>
      </trkpt>
      <trkpt lat="39.604043" lon="3.11003">
        <ele>103.4</ele>
        <time>2016-04-18T11:12:34Z</time>
      </trkpt>
      <trkpt lat="39.603991" lon="3.110032">
        <ele>104</ele>
        <time>2016-04-18T11:12:35Z</time>
      </trkpt>
      <trkpt lat="39.603932" lon="3.110032">
        <ele>104.8</ele>
        <time>2016-04-18T11:12:36Z</time>
      </trkpt>
      <trkpt lat="39.603873" lon="3.110029">
        <ele>104.8</ele>
        <time>2016-04-18T11:12:37Z</time>
      </trkpt>
      <trkpt lat="39.603818" lon="3.110032">
        <ele>104.8</ele>
        <time>2016-04-18T11:12:38Z</time>
      </trkpt>
      <trkpt lat="39.603761" lon="3.110041">
        <ele>104.8</ele>
        <time>2016-04-18T11:12:39Z</time>
      </trkpt>
      <trkpt lat="39.603641" lon="3.110064">
        <ele>104.8</ele>
        <time>2016-04-18T11:12:41Z</time>
      </trkpt>
      <trkpt lat="39.603511" lon="3.110088">
        <ele>104.8</ele>
        <time>2016-04-18T11:12:43Z</time>
      </trkpt>
      <trkpt lat="39.603229" lon="3.11013">
        <ele>104.8</ele>
        <time>2016-04-18T11:12:47Z</time>
      </trkpt>
      <trkpt lat="39.60267" lon="3.110214">
        <ele>104.4</ele>
        <time>2016-04-18T11:12:54Z</time>
      </trkpt>
      <trkpt lat="39.602578" lon="3.110219">
        <ele>104</ele>
        <time>2016-04-18T11:12:55Z</time>
      </trkpt>
      <trkpt lat="39.602479" lon="3.110224">
        <ele>103.4</ele>
        <time>2016-04-18T11:12:56Z</time>
      </trkpt>
      <trkpt lat="39.602374" lon="3.110229">
        <ele>102.8</ele>
        <time>2016-04-18T11:12:57Z</time>
      </trkpt>
      <trkpt lat="39.602265" lon="3.110232">
        <ele>102</ele>
        <time>2016-04-18T11:12:58Z</time>
      </trkpt>
      <trkpt lat="39.602151" lon="3.110235">
        <ele>101.4</ele>
        <time>2016-04-18T11:12:59Z</time>
      </trkpt>
      <trkpt lat="39.602031" lon="3.110237">
        <ele>100.4</ele>
        <time>2016-04-18T11:13:00Z</time>
      </trkpt>
      <trkpt lat="39.601897" lon="3.11024">
        <ele>99.6</ele>
        <time>2016-04-18T11:13:01Z</time>
      </trkpt>
      <trkpt lat="39.601767" lon="3.110245">
        <ele>98.4</ele>
        <time>2016-04-18T11:13:02Z</time>
      </trkpt>
      <trkpt lat="39.601636" lon="3.110248">
        <ele>97.4</ele>
        <time>2016-04-18T11:13:03Z</time>
      </trkpt>
      <trkpt lat="39.6015" lon="3.11025">
        <ele>96.2</ele>
        <time>2016-04-18T11:13:04Z</time>
      </trkpt>
      <trkpt lat="39.601363" lon="3.110251">
        <ele>95</ele>
        <time>2016-04-18T11:13:05Z</time>
      </trkpt>
      <trkpt lat="39.601226" lon="3.110251">
        <ele>93.6</ele>
        <time>2016-04-18T11:13:06Z</time>
      </trkpt>
      <trkpt lat="39.601088" lon="3.11025">
        <ele>92.2</ele>
        <time>2016-04-18T11:13:07Z</time>
      </trkpt>
      <trkpt lat="39.600944" lon="3.110255">
        <ele>90.8</ele>
        <time>2016-04-18T11:13:08Z</time>
      </trkpt>
      <trkpt lat="39.600808" lon="3.110271">
        <ele>89.8</ele>
        <time>2016-04-18T11:13:09Z</time>
      </trkpt>
      <trkpt lat="39.600675" lon="3.110294">
        <ele>88.8</ele>
        <time>2016-04-18T11:13:10Z</time>
      </trkpt>
      <trkpt lat="39.600543" lon="3.11032">
        <ele>87.8</ele>
        <time>2016-04-18T11:13:11Z</time>
      </trkpt>
      <trkpt lat="39.600416" lon="3.11036">
        <ele>86.8</ele>
        <time>2016-04-18T11:13:12Z</time>
      </trkpt>
      <trkpt lat="39.600293" lon="3.11041">
        <ele>85.8</ele>
        <time>2016-04-18T11:13:13Z</time>
      </trkpt>
      <trkpt lat="39.600059" lon="3.11051">
        <ele>85.8</ele>
        <time>2016-04-18T11:13:15Z</time>
      </trkpt>
      <trkpt lat="39.599838" lon="3.110606">
        <ele>85.8</ele>
        <time>2016-04-18T11:13:17Z</time>
      </trkpt>
      <trkpt lat="39.599638" lon="3.110693">
        <ele>86.4</ele>
        <time>2016-04-18T11:13:19Z</time>
      </trkpt>
      <trkpt lat="39.599543" lon="3.110735">
        <ele>86.8</ele>
        <time>2016-04-18T11:13:20Z</time>
      </trkpt>
      <trkpt lat="39.599451" lon="3.110776">
        <ele>87.4</ele>
        <time>2016-04-18T11:13:21Z</time>
      </trkpt>
      <trkpt lat="39.599361" lon="3.110816">
        <ele>87.8</ele>
        <time>2016-04-18T11:13:22Z</time>
      </trkpt>
      <trkpt lat="39.599272" lon="3.110858">
        <ele>88.4</ele>
        <time>2016-04-18T11:13:23Z</time>
      </trkpt>
      <trkpt lat="39.599189" lon="3.110896">
        <ele>89.2</ele>
        <time>2016-04-18T11:13:24Z</time>
      </trkpt>
      <trkpt lat="39.599108" lon="3.110936">
        <ele>89.8</ele>
        <time>2016-04-18T11:13:25Z</time>
      </trkpt>
      <trkpt lat="39.599029" lon="3.110978">
        <ele>90.4</ele>
        <time>2016-04-18T11:13:26Z</time>
      </trkpt>
      <trkpt lat="39.598951" lon="3.111023">
        <ele>91</ele>
        <time>2016-04-18T11:13:27Z</time>
      </trkpt>
      <trkpt lat="39.598877" lon="3.111072">
        <ele>91.6</ele>
        <time>2016-04-18T11:13:28Z</time>
      </trkpt>
      <trkpt lat="39.598803" lon="3.111119">
        <ele>92</ele>
        <time>2016-04-18T11:13:29Z</time>
      </trkpt>
      <trkpt lat="39.598729" lon="3.111174">
        <ele>92.6</ele>
        <time>2016-04-18T11:13:30Z</time>
      </trkpt>
      <trkpt lat="39.598658" lon="3.111232">
        <ele>93.2</ele>
        <time>2016-04-18T11:13:31Z</time>
      </trkpt>
      <trkpt lat="39.598533" lon="3.11137">
        <ele>93.2</ele>
        <time>2016-04-18T11:13:33Z</time>
      </trkpt>
      <trkpt lat="39.598419" lon="3.111525">
        <ele>93.2</ele>
        <time>2016-04-18T11:13:35Z</time>
      </trkpt>
      <trkpt lat="39.598214" lon="3.111832">
        <ele>93.6</ele>
        <time>2016-04-18T11:13:39Z</time>
      </trkpt>
      <trkpt lat="39.598167" lon="3.111901">
        <ele>94</ele>
        <time>2016-04-18T11:13:40Z</time>
      </trkpt>
      <trkpt lat="39.598121" lon="3.111972">
        <ele>94.4</ele>
        <time>2016-04-18T11:13:41Z</time>
      </trkpt>
      <trkpt lat="39.598073" lon="3.112043">
        <ele>95</ele>
        <time>2016-04-18T11:13:42Z</time>
      </trkpt>
      <trkpt lat="39.598024" lon="3.112115">
        <ele>95.4</ele>
        <time>2016-04-18T11:13:43Z</time>
      </trkpt>
      <trkpt lat="39.597805" lon="3.1124">
        <ele>95.4</ele>
        <time>2016-04-18T11:13:47Z</time>
      </trkpt>
      <trkpt lat="39.597741" lon="3.11247">
        <ele>95.4</ele>
        <time>2016-04-18T11:13:48Z</time>
      </trkpt>
      <trkpt lat="39.597273" lon="3.112899">
        <ele>94.8</ele>
        <time>2016-04-18T11:13:55Z</time>
      </trkpt>
      <trkpt lat="39.597187" lon="3.112973">
        <ele>94.2</ele>
        <time>2016-04-18T11:13:56Z</time>
      </trkpt>
      <trkpt lat="39.597097" lon="3.113048">
        <ele>93.8</ele>
        <time>2016-04-18T11:13:57Z</time>
      </trkpt>
      <trkpt lat="39.597004" lon="3.113125">
        <ele>93</ele>
        <time>2016-04-18T11:13:58Z</time>
      </trkpt>
      <trkpt lat="39.596912" lon="3.113206">
        <ele>92.2</ele>
        <time>2016-04-18T11:13:59Z</time>
      </trkpt>
      <trkpt lat="39.596818" lon="3.113287">
        <ele>91.4</ele>
        <time>2016-04-18T11:14:00Z</time>
      </trkpt>
      <trkpt lat="39.59672" lon="3.113372">
        <ele>90.8</ele>
        <time>2016-04-18T11:14:01Z</time>
      </trkpt>
      <trkpt lat="39.596623" lon="3.113451">
        <ele>89.4</ele>
        <time>2016-04-18T11:14:02Z</time>
      </trkpt>
      <trkpt lat="39.596529" lon="3.113532">
        <ele>88.6</ele>
        <time>2016-04-18T11:14:03Z</time>
      </trkpt>
      <trkpt lat="39.596434" lon="3.113609">
        <ele>88</ele>
        <time>2016-04-18T11:14:04Z</time>
      </trkpt>
      <trkpt lat="39.596339" lon="3.113687">
        <ele>87.2</ele>
        <time>2016-04-18T11:14:05Z</time>
      </trkpt>
      <trkpt lat="39.596246" lon="3.113764">
        <ele>86.6</ele>
        <time>2016-04-18T11:14:06Z</time>
      </trkpt>
      <trkpt lat="39.596147" lon="3.113836">
        <ele>86</ele>
        <time>2016-04-18T11:14:07Z</time>
      </trkpt>
      <trkpt lat="39.596027" lon="3.113925">
        <ele>85.4</ele>
        <time>2016-04-18T11:14:08Z</time>
      </trkpt>
      <trkpt lat="39.595925" lon="3.113993">
        <ele>84.8</ele>
        <time>2016-04-18T11:14:09Z</time>
      </trkpt>
      <trkpt lat="39.595834" lon="3.114057">
        <ele>84.4</ele>
        <time>2016-04-18T11:14:10Z</time>
      </trkpt>
      <trkpt lat="39.59574" lon="3.114115">
        <ele>83.8</ele>
        <time>2016-04-18T11:14:11Z</time>
      </trkpt>
      <trkpt lat="39.59538" lon="3.11434">
        <ele>83.8</ele>
        <time>2016-04-18T11:14:15Z</time>
      </trkpt>
      <trkpt lat="39.595286" lon="3.114379">
        <ele>83.8</ele>
        <time>2016-04-18T11:14:16Z</time>
      </trkpt>
      <trkpt lat="39.595083" lon="3.114462">
        <ele>83.8</ele>
        <time>2016-04-18T11:14:18Z</time>
      </trkpt>
      <trkpt lat="39.594983" lon="3.114503">
        <ele>83.4</ele>
        <time>2016-04-18T11:14:19Z</time>
      </trkpt>
      <trkpt lat="39.594885" lon="3.114541">
        <ele>82.4</ele>
        <time>2016-04-18T11:14:20Z</time>
      </trkpt>
      <trkpt lat="39.594785" lon="3.114579">
        <ele>82</ele>
        <time>2016-04-18T11:14:21Z</time>
      </trkpt>
      <trkpt lat="39.594686" lon="3.114615">
        <ele>81.6</ele>
        <time>2016-04-18T11:14:22Z</time>
      </trkpt>
      <trkpt lat="39.5945" lon="3.114691">
        <ele>81.6</ele>
        <time>2016-04-18T11:14:24Z</time>
      </trkpt>
      <trkpt lat="39.594311" lon="3.114767">
        <ele>81.6</ele>
        <time>2016-04-18T11:14:26Z</time>
      </trkpt>
      <trkpt lat="39.59422" lon="3.114802">
        <ele>81.6</ele>
        <time>2016-04-18T11:14:27Z</time>
      </trkpt>
      <trkpt lat="39.593939" lon="3.114898">
        <ele>81.6</ele>
        <time>2016-04-18T11:14:30Z</time>
      </trkpt>
      <trkpt lat="39.593757" lon="3.114955">
        <ele>81.6</ele>
        <time>2016-04-18T11:14:32Z</time>
      </trkpt>
      <trkpt lat="39.593671" lon="3.114977">
        <ele>81.6</ele>
        <time>2016-04-18T11:14:33Z</time>
      </trkpt>
      <trkpt lat="39.593589" lon="3.114996">
        <ele>81.6</ele>
        <time>2016-04-18T11:14:34Z</time>
      </trkpt>
      <trkpt lat="39.593438" lon="3.115023">
        <ele>82</ele>
        <time>2016-04-18T11:14:36Z</time>
      </trkpt>
      <trkpt lat="39.593368" lon="3.115035">
        <ele>82.4</ele>
        <time>2016-04-18T11:14:37Z</time>
      </trkpt>
      <trkpt lat="39.5933" lon="3.115042">
        <ele>82.8</ele>
        <time>2016-04-18T11:14:38Z</time>
      </trkpt>
      <trkpt lat="39.593233" lon="3.115044">
        <ele>83.2</ele>
        <time>2016-04-18T11:14:39Z</time>
      </trkpt>
      <trkpt lat="39.59316" lon="3.115044">
        <ele>83.6</ele>
        <time>2016-04-18T11:14:40Z</time>
      </trkpt>
      <trkpt lat="39.593097" lon="3.115044">
        <ele>84</ele>
        <time>2016-04-18T11:14:41Z</time>
      </trkpt>
      <trkpt lat="39.593027" lon="3.115043">
        <ele>84.4</ele>
        <time>2016-04-18T11:14:42Z</time>
      </trkpt>
      <trkpt lat="39.592958" lon="3.115044">
        <ele>84.8</ele>
        <time>2016-04-18T11:14:43Z</time>
      </trkpt>
      <trkpt lat="39.59289" lon="3.115039">
        <ele>85.8</ele>
        <time>2016-04-18T11:14:44Z</time>
      </trkpt>
      <trkpt lat="39.592756" lon="3.115021">
        <ele>85.8</ele>
        <time>2016-04-18T11:14:46Z</time>
      </trkpt>
      <trkpt lat="39.592476" lon="3.114959">
        <ele>85.8</ele>
        <time>2016-04-18T11:14:50Z</time>
      </trkpt>
      <trkpt lat="39.592193" lon="3.114882">
        <ele>85.8</ele>
        <time>2016-04-18T11:14:54Z</time>
      </trkpt>
      <trkpt lat="39.591729" lon="3.114733">
        <ele>85.8</ele>
        <time>2016-04-18T11:15:00Z</time>
      </trkpt>
      <trkpt lat="39.59165" lon="3.114712">
        <ele>85.8</ele>
        <time>2016-04-18T11:15:01Z</time>
      </trkpt>
      <trkpt lat="39.591316" lon="3.114678">
        <ele>85.8</ele>
        <time>2016-04-18T11:15:05Z</time>
      </trkpt>
      <trkpt lat="39.591231" lon="3.114692">
        <ele>85.8</ele>
        <time>2016-04-18T11:15:06Z</time>
      </trkpt>
      <trkpt lat="39.590903" lon="3.11483">
        <ele>85.8</ele>
        <time>2016-04-18T11:15:10Z</time>
      </trkpt>
      <trkpt lat="39.590834" lon="3.114873">
        <ele>85.8</ele>
        <time>2016-04-18T11:15:11Z</time>
      </trkpt>
      <trkpt lat="39.590767" lon="3.114933">
        <ele>85.8</ele>
        <time>2016-04-18T11:15:12Z</time>
      </trkpt>
      <trkpt lat="39.590648" lon="3.115067">
        <ele>85.8</ele>
        <time>2016-04-18T11:15:14Z</time>
      </trkpt>
      <trkpt lat="39.590488" lon="3.115309">
        <ele>85.8</ele>
        <time>2016-04-18T11:15:17Z</time>
      </trkpt>
      <trkpt lat="39.590393" lon="3.115496">
        <ele>85.8</ele>
        <time>2016-04-18T11:15:19Z</time>
      </trkpt>
      <trkpt lat="39.590297" lon="3.115688">
        <ele>85.2</ele>
        <time>2016-04-18T11:15:21Z</time>
      </trkpt>
      <trkpt lat="39.590252" lon="3.115781">
        <ele>84.8</ele>
        <time>2016-04-18T11:15:22Z</time>
      </trkpt>
      <trkpt lat="39.590199" lon="3.115878">
        <ele>84.4</ele>
        <time>2016-04-18T11:15:23Z</time>
      </trkpt>
      <trkpt lat="39.590146" lon="3.115971">
        <ele>84</ele>
        <time>2016-04-18T11:15:24Z</time>
      </trkpt>
      <trkpt lat="39.590083" lon="3.116082">
        <ele>83.6</ele>
        <time>2016-04-18T11:15:25Z</time>
      </trkpt>
      <trkpt lat="39.589958" lon="3.116263">
        <ele>83</ele>
        <time>2016-04-18T11:15:27Z</time>
      </trkpt>
      <trkpt lat="39.589884" lon="3.116345">
        <ele>82.6</ele>
        <time>2016-04-18T11:15:28Z</time>
      </trkpt>
      <trkpt lat="39.589807" lon="3.116417">
        <ele>82</ele>
        <time>2016-04-18T11:15:29Z</time>
      </trkpt>
      <trkpt lat="39.589727" lon="3.116483">
        <ele>81.6</ele>
        <time>2016-04-18T11:15:30Z</time>
      </trkpt>
      <trkpt lat="39.589647" lon="3.11654">
        <ele>81</ele>
        <time>2016-04-18T11:15:31Z</time>
      </trkpt>
      <trkpt lat="39.589393" lon="3.116694">
        <ele>81</ele>
        <time>2016-04-18T11:15:34Z</time>
      </trkpt>
      <trkpt lat="39.58931" lon="3.11674">
        <ele>81</ele>
        <time>2016-04-18T11:15:35Z</time>
      </trkpt>
      <trkpt lat="39.588968" lon="3.116933">
        <ele>80.6</ele>
        <time>2016-04-18T11:15:39Z</time>
      </trkpt>
      <trkpt lat="39.588885" lon="3.116976">
        <ele>80.2</ele>
        <time>2016-04-18T11:15:40Z</time>
      </trkpt>
      <trkpt lat="39.588792" lon="3.117027">
        <ele>79.8</ele>
        <time>2016-04-18T11:15:41Z</time>
      </trkpt>
      <trkpt lat="39.588707" lon="3.117074">
        <ele>79.4</ele>
        <time>2016-04-18T11:15:42Z</time>
      </trkpt>
      <trkpt lat="39.58862" lon="3.117119">
        <ele>79</ele>
        <time>2016-04-18T11:15:43Z</time>
      </trkpt>
      <trkpt lat="39.588111" lon="3.117393">
        <ele>79</ele>
        <time>2016-04-18T11:15:49Z</time>
      </trkpt>
      <trkpt lat="39.587866" lon="3.117523">
        <ele>79</ele>
        <time>2016-04-18T11:15:52Z</time>
      </trkpt>
      <trkpt lat="39.587514" lon="3.117691">
        <ele>79</ele>
        <time>2016-04-18T11:15:56Z</time>
      </trkpt>
      <trkpt lat="39.587068" lon="3.117881">
        <ele>79</ele>
        <time>2016-04-18T11:16:01Z</time>
      </trkpt>
      <trkpt lat="39.586965" lon="3.117924">
        <ele>78.6</ele>
        <time>2016-04-18T11:16:02Z</time>
      </trkpt>
      <trkpt lat="39.58687" lon="3.11796">
        <ele>78.2</ele>
        <time>2016-04-18T11:16:03Z</time>
      </trkpt>
      <trkpt lat="39.586781" lon="3.117994">
        <ele>77.8</ele>
        <time>2016-04-18T11:16:04Z</time>
      </trkpt>
      <trkpt lat="39.586681" lon="3.118032">
        <ele>77.4</ele>
        <time>2016-04-18T11:16:05Z</time>
      </trkpt>
      <trkpt lat="39.586583" lon="3.118073">
        <ele>77</ele>
        <time>2016-04-18T11:16:06Z</time>
      </trkpt>
      <trkpt lat="39.586201" lon="3.118227">
        <ele>77</ele>
        <time>2016-04-18T11:16:10Z</time>
      </trkpt>
      <trkpt lat="39.585926" lon="3.11834">
        <ele>77</ele>
        <time>2016-04-18T11:16:13Z</time>
      </trkpt>
      <trkpt lat="39.585736" lon="3.118421">
        <ele>76.4</ele>
        <time>2016-04-18T11:16:15Z</time>
      </trkpt>
      <trkpt lat="39.585641" lon="3.11847">
        <ele>76</ele>
        <time>2016-04-18T11:16:16Z</time>
      </trkpt>
      <trkpt lat="39.585531" lon="3.118532">
        <ele>75.6</ele>
        <time>2016-04-18T11:16:17Z</time>
      </trkpt>
      <trkpt lat="39.585435" lon="3.118586">
        <ele>75</ele>
        <time>2016-04-18T11:16:18Z</time>
      </trkpt>
      <trkpt lat="39.585345" lon="3.118637">
        <ele>74.6</ele>
        <time>2016-04-18T11:16:19Z</time>
      </trkpt>
      <trkpt lat="39.58516" lon="3.118753">
        <ele>74.2</ele>
        <time>2016-04-18T11:16:21Z</time>
      </trkpt>
      <trkpt lat="39.585072" lon="3.118814">
        <ele>73.8</ele>
        <time>2016-04-18T11:16:22Z</time>
      </trkpt>
      <trkpt lat="39.584984" lon="3.118863">
        <ele>73.4</ele>
        <time>2016-04-18T11:16:23Z</time>
      </trkpt>
      <trkpt lat="39.584893" lon="3.118918">
        <ele>72.4</ele>
        <time>2016-04-18T11:16:24Z</time>
      </trkpt>
      <trkpt lat="39.584796" lon="3.118977">
        <ele>72.4</ele>
        <time>2016-04-18T11:16:25Z</time>
      </trkpt>
      <trkpt lat="39.584297" lon="3.1193">
        <ele>72.4</ele>
        <time>2016-04-18T11:16:31Z</time>
      </trkpt>
      <trkpt lat="39.583971" lon="3.11951">
        <ele>72.4</ele>
        <time>2016-04-18T11:16:35Z</time>
      </trkpt>
      <trkpt lat="39.583802" lon="3.119602">
        <ele>72.4</ele>
        <time>2016-04-18T11:16:37Z</time>
      </trkpt>
      <trkpt lat="39.583402" lon="3.119793">
        <ele>72.4</ele>
        <time>2016-04-18T11:16:42Z</time>
      </trkpt>
      <trkpt lat="39.582988" lon="3.119939">
        <ele>72.4</ele>
        <time>2016-04-18T11:16:47Z</time>
      </trkpt>
      <trkpt lat="39.58273" lon="3.120022">
        <ele>72.4</ele>
        <time>2016-04-18T11:16:50Z</time>
      </trkpt>
      <trkpt lat="39.582651" lon="3.120047">
        <ele>72.4</ele>
        <time>2016-04-18T11:16:51Z</time>
      </trkpt>
      <trkpt lat="39.582305" lon="3.12016">
        <ele>72.4</ele>
        <time>2016-04-18T11:16:55Z</time>
      </trkpt>
      <trkpt lat="39.581784" lon="3.12032">
        <ele>72.4</ele>
        <time>2016-04-18T11:17:01Z</time>
      </trkpt>
      <trkpt lat="39.581244" lon="3.120463">
        <ele>72.4</ele>
        <time>2016-04-18T11:17:07Z</time>
      </trkpt>
      <trkpt lat="39.580869" lon="3.12054">
        <ele>72.4</ele>
        <time>2016-04-18T11:17:11Z</time>
      </trkpt>
      <trkpt lat="39.580498" lon="3.120591">
        <ele>72</ele>
        <time>2016-04-18T11:17:15Z</time>
      </trkpt>
      <trkpt lat="39.580409" lon="3.120599">
        <ele>71.6</ele>
        <time>2016-04-18T11:17:16Z</time>
      </trkpt>
      <trkpt lat="39.580313" lon="3.120607">
        <ele>71</ele>
        <time>2016-04-18T11:17:17Z</time>
      </trkpt>
      <trkpt lat="39.58021" lon="3.120606">
        <ele>70.6</ele>
        <time>2016-04-18T11:17:18Z</time>
      </trkpt>
      <trkpt lat="39.580111" lon="3.120605">
        <ele>70.2</ele>
        <time>2016-04-18T11:17:19Z</time>
      </trkpt>
      <trkpt lat="39.580018" lon="3.120603">
        <ele>69.6</ele>
        <time>2016-04-18T11:17:20Z</time>
      </trkpt>
      <trkpt lat="39.579921" lon="3.120603">
        <ele>69</ele>
        <time>2016-04-18T11:17:21Z</time>
      </trkpt>
      <trkpt lat="39.579823" lon="3.120602">
        <ele>68.6</ele>
        <time>2016-04-18T11:17:22Z</time>
      </trkpt>
      <trkpt lat="39.579727" lon="3.1206">
        <ele>68</ele>
        <time>2016-04-18T11:17:23Z</time>
      </trkpt>
      <trkpt lat="39.579133" lon="3.120577">
        <ele>68</ele>
        <time>2016-04-18T11:17:29Z</time>
      </trkpt>
      <trkpt lat="39.578765" lon="3.120553">
        <ele>68</ele>
        <time>2016-04-18T11:17:33Z</time>
      </trkpt>
      <trkpt lat="39.578587" lon="3.120543">
        <ele>68</ele>
        <time>2016-04-18T11:17:35Z</time>
      </trkpt>
      <trkpt lat="39.577967" lon="3.120503">
        <ele>68</ele>
        <time>2016-04-18T11:17:42Z</time>
      </trkpt>
      <trkpt lat="39.5778" lon="3.120495">
        <ele>68</ele>
        <time>2016-04-18T11:17:44Z</time>
      </trkpt>
      <trkpt lat="39.577234" lon="3.120473">
        <ele>68</ele>
        <time>2016-04-18T11:17:51Z</time>
      </trkpt>
      <trkpt lat="39.577155" lon="3.120467">
        <ele>68</ele>
        <time>2016-04-18T11:17:52Z</time>
      </trkpt>
      <trkpt lat="39.576842" lon="3.120459">
        <ele>68</ele>
        <time>2016-04-18T11:17:56Z</time>
      </trkpt>
      <trkpt lat="39.576694" lon="3.120458">
        <ele>68</ele>
        <time>2016-04-18T11:17:58Z</time>
      </trkpt>
      <trkpt lat="39.576257" lon="3.120439">
        <ele>68</ele>
        <time>2016-04-18T11:18:04Z</time>
      </trkpt>
      <trkpt lat="39.576188" lon="3.120456">
        <ele>68</ele>
        <time>2016-04-18T11:18:05Z</time>
      </trkpt>
      <trkpt lat="39.575866" lon="3.12063">
        <ele>68</ele>
        <time>2016-04-18T11:18:10Z</time>
      </trkpt>
      <trkpt lat="39.575819" lon="3.120651">
        <ele>68</ele>
        <time>2016-04-18T11:18:11Z</time>
      </trkpt>
      <trkpt lat="39.57575" lon="3.120672">
        <ele>68</ele>
        <time>2016-04-18T11:18:13Z</time>
      </trkpt>
      <trkpt lat="39.575703" lon="3.120667">
        <ele>68</ele>
        <time>2016-04-18T11:18:15Z</time>
      </trkpt>
      <trkpt lat="39.575667" lon="3.12065">
        <ele>68</ele>
        <time>2016-04-18T11:18:17Z</time>
      </trkpt>
      <trkpt lat="39.575612" lon="3.120602">
        <ele>68</ele>
        <time>2016-04-18T11:18:19Z</time>
      </trkpt>
      <trkpt lat="39.575578" lon="3.120573">
        <ele>68</ele>
        <time>2016-04-18T11:18:20Z</time>
      </trkpt>
      <trkpt lat="39.575445" lon="3.120467">
        <ele>68</ele>
        <time>2016-04-18T11:18:23Z</time>
      </trkpt>
      <trkpt lat="39.575395" lon="3.120435">
        <ele>68</ele>
        <time>2016-04-18T11:18:24Z</time>
      </trkpt>
      <trkpt lat="39.57534" lon="3.12042">
        <ele>68</ele>
        <time>2016-04-18T11:18:25Z</time>
      </trkpt>
      <trkpt lat="39.57521" lon="3.120452">
        <ele>68</ele>
        <time>2016-04-18T11:18:27Z</time>
      </trkpt>
      <trkpt lat="39.575103" lon="3.12054">
        <ele>67.6</ele>
        <time>2016-04-18T11:18:29Z</time>
      </trkpt>
      <trkpt lat="39.575056" lon="3.120602">
        <ele>67.2</ele>
        <time>2016-04-18T11:18:30Z</time>
      </trkpt>
      <trkpt lat="39.57501" lon="3.120671">
        <ele>66.6</ele>
        <time>2016-04-18T11:18:31Z</time>
      </trkpt>
      <trkpt lat="39.574958" lon="3.120731">
        <ele>66.2</ele>
        <time>2016-04-18T11:18:32Z</time>
      </trkpt>
      <trkpt lat="39.574893" lon="3.120762">
        <ele>65.8</ele>
        <time>2016-04-18T11:18:33Z</time>
      </trkpt>
      <trkpt lat="39.574683" lon="3.120744">
        <ele>65.8</ele>
        <time>2016-04-18T11:18:36Z</time>
      </trkpt>
      <trkpt lat="39.574551" lon="3.120751">
        <ele>65.8</ele>
        <time>2016-04-18T11:18:38Z</time>
      </trkpt>
      <trkpt lat="39.574354" lon="3.120782">
        <ele>65.8</ele>
        <time>2016-04-18T11:18:41Z</time>
      </trkpt>
      <trkpt lat="39.574235" lon="3.120822">
        <ele>65.8</ele>
        <time>2016-04-18T11:18:43Z</time>
      </trkpt>
      <trkpt lat="39.574124" lon="3.12088">
        <ele>65.8</ele>
        <time>2016-04-18T11:18:45Z</time>
      </trkpt>
      <trkpt lat="39.573699" lon="3.121083">
        <ele>65.8</ele>
        <time>2016-04-18T11:18:52Z</time>
      </trkpt>
      <trkpt lat="39.573146" lon="3.121309">
        <ele>65.8</ele>
        <time>2016-04-18T11:19:00Z</time>
      </trkpt>
      <trkpt lat="39.572682" lon="3.121638">
        <ele>65.8</ele>
        <time>2016-04-18T11:19:07Z</time>
      </trkpt>
      <trkpt lat="39.57262" lon="3.121689">
        <ele>65.8</ele>
        <time>2016-04-18T11:19:08Z</time>
      </trkpt>
      <trkpt lat="39.572235" lon="3.12195">
        <ele>65.8</ele>
        <time>2016-04-18T11:19:14Z</time>
      </trkpt>
      <trkpt lat="39.572118" lon="3.12202">
        <ele>66.2</ele>
        <time>2016-04-18T11:19:16Z</time>
      </trkpt>
      <trkpt lat="39.572063" lon="3.122055">
        <ele>67.2</ele>
        <time>2016-04-18T11:19:17Z</time>
      </trkpt>
      <trkpt lat="39.572008" lon="3.122086">
        <ele>67.6</ele>
        <time>2016-04-18T11:19:18Z</time>
      </trkpt>
      <trkpt lat="39.571952" lon="3.122114">
        <ele>68</ele>
        <time>2016-04-18T11:19:19Z</time>
      </trkpt>
      <trkpt lat="39.571894" lon="3.122144">
        <ele>68</ele>
        <time>2016-04-18T11:19:20Z</time>
      </trkpt>
      <trkpt lat="39.571549" lon="3.122342">
        <ele>68</ele>
        <time>2016-04-18T11:19:26Z</time>
      </trkpt>
      <trkpt lat="39.57114" lon="3.122588">
        <ele>68</ele>
        <time>2016-04-18T11:19:33Z</time>
      </trkpt>
      <trkpt lat="39.570695" lon="3.12285">
        <ele>68</ele>
        <time>2016-04-18T11:19:40Z</time>
      </trkpt>
      <trkpt lat="39.570209" lon="3.123127">
        <ele>68</ele>
        <time>2016-04-18T11:19:47Z</time>
      </trkpt>
      <trkpt lat="39.569909" lon="3.123295">
        <ele>68</ele>
        <time>2016-04-18T11:19:51Z</time>
      </trkpt>
      <trkpt lat="39.569688" lon="3.123419">
        <ele>68</ele>
        <time>2016-04-18T11:19:54Z</time>
      </trkpt>
      <trkpt lat="39.569614" lon="3.123462">
        <ele>68</ele>
        <time>2016-04-18T11:19:55Z</time>
      </trkpt>
      <trkpt lat="39.569229" lon="3.123681">
        <ele>68</ele>
        <time>2016-04-18T11:20:00Z</time>
      </trkpt>
      <trkpt lat="39.569077" lon="3.123764">
        <ele>68</ele>
        <time>2016-04-18T11:20:02Z</time>
      </trkpt>
      <trkpt lat="39.568923" lon="3.123857">
        <ele>68</ele>
        <time>2016-04-18T11:20:04Z</time>
      </trkpt>
      <trkpt lat="39.568393" lon="3.124158">
        <ele>68</ele>
        <time>2016-04-18T11:20:11Z</time>
      </trkpt>
      <trkpt lat="39.567983" lon="3.124406">
        <ele>68</ele>
        <time>2016-04-18T11:20:17Z</time>
      </trkpt>
      <trkpt lat="39.567921" lon="3.124442">
        <ele>68</ele>
        <time>2016-04-18T11:20:18Z</time>
      </trkpt>
      <trkpt lat="39.567678" lon="3.12458">
        <ele>68</ele>
        <time>2016-04-18T11:20:22Z</time>
      </trkpt>
      <trkpt lat="39.567621" lon="3.124615">
        <ele>68.4</ele>
        <time>2016-04-18T11:20:23Z</time>
      </trkpt>
      <trkpt lat="39.567565" lon="3.12465">
        <ele>68.8</ele>
        <time>2016-04-18T11:20:24Z</time>
      </trkpt>
      <trkpt lat="39.567509" lon="3.124683">
        <ele>69.4</ele>
        <time>2016-04-18T11:20:25Z</time>
      </trkpt>
      <trkpt lat="39.567453" lon="3.124714">
        <ele>69.8</ele>
        <time>2016-04-18T11:20:26Z</time>
      </trkpt>
      <trkpt lat="39.567398" lon="3.124744">
        <ele>70.2</ele>
        <time>2016-04-18T11:20:27Z</time>
      </trkpt>
      <trkpt lat="39.56729" lon="3.1248">
        <ele>70.6</ele>
        <time>2016-04-18T11:20:29Z</time>
      </trkpt>
      <trkpt lat="39.567235" lon="3.124829">
        <ele>71</ele>
        <time>2016-04-18T11:20:30Z</time>
      </trkpt>
      <trkpt lat="39.567182" lon="3.12486">
        <ele>71.8</ele>
        <time>2016-04-18T11:20:31Z</time>
      </trkpt>
      <trkpt lat="39.567126" lon="3.12489">
        <ele>72.2</ele>
        <time>2016-04-18T11:20:32Z</time>
      </trkpt>
      <trkpt lat="39.567013" lon="3.124951">
        <ele>72.2</ele>
        <time>2016-04-18T11:20:34Z</time>
      </trkpt>
      <trkpt lat="39.566783" lon="3.125077">
        <ele>72.2</ele>
        <time>2016-04-18T11:20:38Z</time>
      </trkpt>
      <trkpt lat="39.566533" lon="3.125195">
        <ele>72.2</ele>
        <time>2016-04-18T11:20:42Z</time>
      </trkpt>
      <trkpt lat="39.566045" lon="3.125388">
        <ele>72.2</ele>
        <time>2016-04-18T11:20:49Z</time>
      </trkpt>
      <trkpt lat="39.56551" lon="3.125579">
        <ele>72.2</ele>
        <time>2016-04-18T11:20:56Z</time>
      </trkpt>
      <trkpt lat="39.564963" lon="3.125792">
        <ele>72.2</ele>
        <time>2016-04-18T11:21:03Z</time>
      </trkpt>
      <trkpt lat="39.564639" lon="3.125914">
        <ele>72.2</ele>
        <time>2016-04-18T11:21:07Z</time>
      </trkpt>
      <trkpt lat="39.564391" lon="3.126004">
        <ele>72.2</ele>
        <time>2016-04-18T11:21:10Z</time>
      </trkpt>
      <trkpt lat="39.564218" lon="3.126068">
        <ele>71.8</ele>
        <time>2016-04-18T11:21:12Z</time>
      </trkpt>
      <trkpt lat="39.564122" lon="3.1261">
        <ele>71.4</ele>
        <time>2016-04-18T11:21:13Z</time>
      </trkpt>
      <trkpt lat="39.564028" lon="3.126126">
        <ele>71</ele>
        <time>2016-04-18T11:21:14Z</time>
      </trkpt>
      <trkpt lat="39.563932" lon="3.126152">
        <ele>70.6</ele>
        <time>2016-04-18T11:21:15Z</time>
      </trkpt>
      <trkpt lat="39.563835" lon="3.126176">
        <ele>70</ele>
        <time>2016-04-18T11:21:16Z</time>
      </trkpt>
      <trkpt lat="39.56374" lon="3.126203">
        <ele>69.4</ele>
        <time>2016-04-18T11:21:17Z</time>
      </trkpt>
      <trkpt lat="39.563644" lon="3.126232">
        <ele>68.8</ele>
        <time>2016-04-18T11:21:18Z</time>
      </trkpt>
      <trkpt lat="39.563549" lon="3.126261">
        <ele>68.4</ele>
        <time>2016-04-18T11:21:19Z</time>
      </trkpt>
      <trkpt lat="39.563452" lon="3.12629">
        <ele>67.8</ele>
        <time>2016-04-18T11:21:20Z</time>
      </trkpt>
      <trkpt lat="39.563276" lon="3.12634">
        <ele>67.8</ele>
        <time>2016-04-18T11:21:22Z</time>
      </trkpt>
      <trkpt lat="39.563114" lon="3.126384">
        <ele>67.8</ele>
        <time>2016-04-18T11:21:24Z</time>
      </trkpt>
      <trkpt lat="39.562723" lon="3.126503">
        <ele>67.8</ele>
        <time>2016-04-18T11:21:29Z</time>
      </trkpt>
      <trkpt lat="39.562567" lon="3.126549">
        <ele>67.8</ele>
        <time>2016-04-18T11:21:31Z</time>
      </trkpt>
      <trkpt lat="39.562488" lon="3.126573">
        <ele>68.2</ele>
        <time>2016-04-18T11:21:32Z</time>
      </trkpt>
      <trkpt lat="39.56241" lon="3.126597">
        <ele>68.6</ele>
        <time>2016-04-18T11:21:33Z</time>
      </trkpt>
      <trkpt lat="39.562334" lon="3.126619">
        <ele>69</ele>
        <time>2016-04-18T11:21:34Z</time>
      </trkpt>
      <trkpt lat="39.562255" lon="3.12664">
        <ele>69.4</ele>
        <time>2016-04-18T11:21:35Z</time>
      </trkpt>
      <trkpt lat="39.562182" lon="3.126662">
        <ele>69.8</ele>
        <time>2016-04-18T11:21:36Z</time>
      </trkpt>
      <trkpt lat="39.56204" lon="3.126702">
        <ele>69.8</ele>
        <time>2016-04-18T11:21:38Z</time>
      </trkpt>
      <trkpt lat="39.561665" lon="3.12681">
        <ele>69.8</ele>
        <time>2016-04-18T11:21:44Z</time>
      </trkpt>
      <trkpt lat="39.561356" lon="3.126901">
        <ele>69.8</ele>
        <time>2016-04-18T11:21:48Z</time>
      </trkpt>
      <trkpt lat="39.560779" lon="3.127075">
        <ele>69.8</ele>
        <time>2016-04-18T11:21:55Z</time>
      </trkpt>
      <trkpt lat="39.560696" lon="3.127102">
        <ele>69.8</ele>
        <time>2016-04-18T11:21:56Z</time>
      </trkpt>
      <trkpt lat="39.560107" lon="3.12732">
        <ele>69.8</ele>
        <time>2016-04-18T11:22:03Z</time>
      </trkpt>
      <trkpt lat="39.560028" lon="3.127378">
        <ele>69.4</ele>
        <time>2016-04-18T11:22:04Z</time>
      </trkpt>
      <trkpt lat="39.55995" lon="3.127444">
        <ele>69</ele>
        <time>2016-04-18T11:22:05Z</time>
      </trkpt>
      <trkpt lat="39.559868" lon="3.127515">
        <ele>68.4</ele>
        <time>2016-04-18T11:22:06Z</time>
      </trkpt>
      <trkpt lat="39.559794" lon="3.127584">
        <ele>68</ele>
        <time>2016-04-18T11:22:07Z</time>
      </trkpt>
      <trkpt lat="39.559723" lon="3.127652">
        <ele>67.6</ele>
        <time>2016-04-18T11:22:08Z</time>
      </trkpt>
      <trkpt lat="39.559503" lon="3.127855">
        <ele>67.6</ele>
        <time>2016-04-18T11:22:11Z</time>
      </trkpt>
      <trkpt lat="39.55901" lon="3.128303">
        <ele>67.6</ele>
        <time>2016-04-18T11:22:18Z</time>
      </trkpt>
      <trkpt lat="39.558942" lon="3.128365">
        <ele>67.6</ele>
        <time>2016-04-18T11:22:19Z</time>
      </trkpt>
      <trkpt lat="39.558457" lon="3.128802">
        <ele>67.6</ele>
        <time>2016-04-18T11:22:26Z</time>
      </trkpt>
      <trkpt lat="39.558387" lon="3.128866">
        <ele>67.6</ele>
        <time>2016-04-18T11:22:27Z</time>
      </trkpt>
      <trkpt lat="39.557913" lon="3.129292">
        <ele>67.6</ele>
        <time>2016-04-18T11:22:34Z</time>
      </trkpt>
      <trkpt lat="39.557784" lon="3.129411">
        <ele>67.6</ele>
        <time>2016-04-18T11:22:36Z</time>
      </trkpt>
      <trkpt lat="39.557345" lon="3.129809">
        <ele>67.6</ele>
        <time>2016-04-18T11:22:43Z</time>
      </trkpt>
      <trkpt lat="39.557098" lon="3.13003">
        <ele>68</ele>
        <time>2016-04-18T11:22:47Z</time>
      </trkpt>
      <trkpt lat="39.557038" lon="3.130082">
        <ele>68.4</ele>
        <time>2016-04-18T11:22:48Z</time>
      </trkpt>
      <trkpt lat="39.55698" lon="3.130136">
        <ele>68.8</ele>
        <time>2016-04-18T11:22:49Z</time>
      </trkpt>
      <trkpt lat="39.556922" lon="3.13019">
        <ele>69.2</ele>
        <time>2016-04-18T11:22:50Z</time>
      </trkpt>
      <trkpt lat="39.556863" lon="3.130244">
        <ele>69.6</ele>
        <time>2016-04-18T11:22:51Z</time>
      </trkpt>
      <trkpt lat="39.556801" lon="3.1303">
        <ele>69.6</ele>
        <time>2016-04-18T11:22:52Z</time>
      </trkpt>
      <trkpt lat="39.556472" lon="3.130592">
        <ele>69.6</ele>
        <time>2016-04-18T11:22:58Z</time>
      </trkpt>
      <trkpt lat="39.55637" lon="3.130689">
        <ele>69.6</ele>
        <time>2016-04-18T11:23:00Z</time>
      </trkpt>
      <trkpt lat="39.556318" lon="3.130733">
        <ele>70.2</ele>
        <time>2016-04-18T11:23:01Z</time>
      </trkpt>
      <trkpt lat="39.556266" lon="3.130777">
        <ele>71</ele>
        <time>2016-04-18T11:23:02Z</time>
      </trkpt>
      <trkpt lat="39.556216" lon="3.130823">
        <ele>71.4</ele>
        <time>2016-04-18T11:23:03Z</time>
      </trkpt>
      <trkpt lat="39.556168" lon="3.130868">
        <ele>71.8</ele>
        <time>2016-04-18T11:23:04Z</time>
      </trkpt>
      <trkpt lat="39.556023" lon="3.130997">
        <ele>71.8</ele>
        <time>2016-04-18T11:23:07Z</time>
      </trkpt>
      <trkpt lat="39.555896" lon="3.13115">
        <ele>72.2</ele>
        <time>2016-04-18T11:23:10Z</time>
      </trkpt>
      <trkpt lat="39.555859" lon="3.13121">
        <ele>72.8</ele>
        <time>2016-04-18T11:23:11Z</time>
      </trkpt>
      <trkpt lat="39.555819" lon="3.131272">
        <ele>73.2</ele>
        <time>2016-04-18T11:23:12Z</time>
      </trkpt>
      <trkpt lat="39.555778" lon="3.131334">
        <ele>73.6</ele>
        <time>2016-04-18T11:23:13Z</time>
      </trkpt>
      <trkpt lat="39.555734" lon="3.131401">
        <ele>74</ele>
        <time>2016-04-18T11:23:14Z</time>
      </trkpt>
      <trkpt lat="39.555473" lon="3.131805">
        <ele>74</ele>
        <time>2016-04-18T11:23:20Z</time>
      </trkpt>
      <trkpt lat="39.555211" lon="3.132202">
        <ele>73.4</ele>
        <time>2016-04-18T11:23:25Z</time>
      </trkpt>
      <trkpt lat="39.55515" lon="3.132285">
        <ele>72.2</ele>
        <time>2016-04-18T11:23:26Z</time>
      </trkpt>
      <trkpt lat="39.555087" lon="3.13237">
        <ele>71.6</ele>
        <time>2016-04-18T11:23:27Z</time>
      </trkpt>
      <trkpt lat="39.555026" lon="3.132456">
        <ele>71.2</ele>
        <time>2016-04-18T11:23:28Z</time>
      </trkpt>
      <trkpt lat="39.554961" lon="3.132543">
        <ele>70.6</ele>
        <time>2016-04-18T11:23:29Z</time>
      </trkpt>
      <trkpt lat="39.554892" lon="3.132638">
        <ele>70</ele>
        <time>2016-04-18T11:23:30Z</time>
      </trkpt>
      <trkpt lat="39.554825" lon="3.13273">
        <ele>69.6</ele>
        <time>2016-04-18T11:23:31Z</time>
      </trkpt>
      <trkpt lat="39.554759" lon="3.132819">
        <ele>69</ele>
        <time>2016-04-18T11:23:32Z</time>
      </trkpt>
      <trkpt lat="39.554692" lon="3.132911">
        <ele>68.4</ele>
        <time>2016-04-18T11:23:33Z</time>
      </trkpt>
      <trkpt lat="39.554559" lon="3.133095">
        <ele>68.4</ele>
        <time>2016-04-18T11:23:35Z</time>
      </trkpt>
      <trkpt lat="39.554421" lon="3.133283">
        <ele>68.4</ele>
        <time>2016-04-18T11:23:37Z</time>
      </trkpt>
      <trkpt lat="39.554353" lon="3.133374">
        <ele>68.4</ele>
        <time>2016-04-18T11:23:38Z</time>
      </trkpt>
      <trkpt lat="39.554282" lon="3.133469">
        <ele>68</ele>
        <time>2016-04-18T11:23:39Z</time>
      </trkpt>
      <trkpt lat="39.554203" lon="3.133563">
        <ele>67.6</ele>
        <time>2016-04-18T11:23:40Z</time>
      </trkpt>
      <trkpt lat="39.554114" lon="3.133647">
        <ele>66.8</ele>
        <time>2016-04-18T11:23:41Z</time>
      </trkpt>
      <trkpt lat="39.554018" lon="3.133725">
        <ele>66.2</ele>
        <time>2016-04-18T11:23:42Z</time>
      </trkpt>
      <trkpt lat="39.553915" lon="3.133795">
        <ele>65.2</ele>
        <time>2016-04-18T11:23:43Z</time>
      </trkpt>
      <trkpt lat="39.553813" lon="3.133863">
        <ele>64.2</ele>
        <time>2016-04-18T11:23:44Z</time>
      </trkpt>
      <trkpt lat="39.553713" lon="3.133933">
        <ele>63.2</ele>
        <time>2016-04-18T11:23:45Z</time>
      </trkpt>
      <trkpt lat="39.553611" lon="3.134003">
        <ele>62.2</ele>
        <time>2016-04-18T11:23:46Z</time>
      </trkpt>
      <trkpt lat="39.553511" lon="3.134074">
        <ele>61.2</ele>
        <time>2016-04-18T11:23:47Z</time>
      </trkpt>
      <trkpt lat="39.553318" lon="3.13421">
        <ele>61.2</ele>
        <time>2016-04-18T11:23:49Z</time>
      </trkpt>
      <trkpt lat="39.553043" lon="3.134402">
        <ele>61.2</ele>
        <time>2016-04-18T11:23:52Z</time>
      </trkpt>
      <trkpt lat="39.55286" lon="3.134531">
        <ele>61.2</ele>
        <time>2016-04-18T11:23:54Z</time>
      </trkpt>
      <trkpt lat="39.552509" lon="3.134776">
        <ele>60.6</ele>
        <time>2016-04-18T11:23:58Z</time>
      </trkpt>
      <trkpt lat="39.55242" lon="3.13484">
        <ele>60.2</ele>
        <time>2016-04-18T11:23:59Z</time>
      </trkpt>
      <trkpt lat="39.552328" lon="3.134905">
        <ele>59.8</ele>
        <time>2016-04-18T11:24:00Z</time>
      </trkpt>
      <trkpt lat="39.552241" lon="3.134966">
        <ele>59.4</ele>
        <time>2016-04-18T11:24:01Z</time>
      </trkpt>
      <trkpt lat="39.552152" lon="3.135028">
        <ele>59</ele>
        <time>2016-04-18T11:24:02Z</time>
      </trkpt>
      <trkpt lat="39.551793" lon="3.135286">
        <ele>59</ele>
        <time>2016-04-18T11:24:06Z</time>
      </trkpt>
      <trkpt lat="39.551701" lon="3.135351">
        <ele>58.4</ele>
        <time>2016-04-18T11:24:07Z</time>
      </trkpt>
      <trkpt lat="39.551606" lon="3.135416">
        <ele>58</ele>
        <time>2016-04-18T11:24:08Z</time>
      </trkpt>
      <trkpt lat="39.551516" lon="3.135478">
        <ele>57.6</ele>
        <time>2016-04-18T11:24:09Z</time>
      </trkpt>
      <trkpt lat="39.551424" lon="3.13554">
        <ele>57.2</ele>
        <time>2016-04-18T11:24:10Z</time>
      </trkpt>
      <trkpt lat="39.551335" lon="3.135603">
        <ele>56.8</ele>
        <time>2016-04-18T11:24:11Z</time>
      </trkpt>
      <trkpt lat="39.551158" lon="3.135729">
        <ele>56.8</ele>
        <time>2016-04-18T11:24:13Z</time>
      </trkpt>
      <trkpt lat="39.551065" lon="3.135797">
        <ele>56.8</ele>
        <time>2016-04-18T11:24:14Z</time>
      </trkpt>
      <trkpt lat="39.550903" lon="3.135944">
        <ele>56.8</ele>
        <time>2016-04-18T11:24:16Z</time>
      </trkpt>
      <trkpt lat="39.550835" lon="3.136031">
        <ele>56.4</ele>
        <time>2016-04-18T11:24:17Z</time>
      </trkpt>
      <trkpt lat="39.550774" lon="3.136126">
        <ele>56</ele>
        <time>2016-04-18T11:24:18Z</time>
      </trkpt>
      <trkpt lat="39.550716" lon="3.136227">
        <ele>55.6</ele>
        <time>2016-04-18T11:24:19Z</time>
      </trkpt>
      <trkpt lat="39.550658" lon="3.136332">
        <ele>55.2</ele>
        <time>2016-04-18T11:24:20Z</time>
      </trkpt>
      <trkpt lat="39.550602" lon="3.136439">
        <ele>54.8</ele>
        <time>2016-04-18T11:24:21Z</time>
      </trkpt>
      <trkpt lat="39.550447" lon="3.136759">
        <ele>54.8</ele>
        <time>2016-04-18T11:24:24Z</time>
      </trkpt>
      <trkpt lat="39.550201" lon="3.137241">
        <ele>54.8</ele>
        <time>2016-04-18T11:24:29Z</time>
      </trkpt>
      <trkpt lat="39.550147" lon="3.137329">
        <ele>54.8</ele>
        <time>2016-04-18T11:24:30Z</time>
      </trkpt>
      <trkpt lat="39.549966" lon="3.13756">
        <ele>54.8</ele>
        <time>2016-04-18T11:24:33Z</time>
      </trkpt>
      <trkpt lat="39.549898" lon="3.137621">
        <ele>54.8</ele>
        <time>2016-04-18T11:24:34Z</time>
      </trkpt>
      <trkpt lat="39.549523" lon="3.137936">
        <ele>54.8</ele>
        <time>2016-04-18T11:24:40Z</time>
      </trkpt>
      <trkpt lat="39.549466" lon="3.137985">
        <ele>54.8</ele>
        <time>2016-04-18T11:24:41Z</time>
      </trkpt>
      <trkpt lat="39.549415" lon="3.13803">
        <ele>55.2</ele>
        <time>2016-04-18T11:24:42Z</time>
      </trkpt>
      <trkpt lat="39.549365" lon="3.138074">
        <ele>55.6</ele>
        <time>2016-04-18T11:24:43Z</time>
      </trkpt>
      <trkpt lat="39.549315" lon="3.138116">
        <ele>56</ele>
        <time>2016-04-18T11:24:44Z</time>
      </trkpt>
      <trkpt lat="39.549267" lon="3.138148">
        <ele>56.4</ele>
        <time>2016-04-18T11:24:45Z</time>
      </trkpt>
      <trkpt lat="39.549214" lon="3.138171">
        <ele>56.8</ele>
        <time>2016-04-18T11:24:46Z</time>
      </trkpt>
      <trkpt lat="39.54916" lon="3.138181">
        <ele>57.2</ele>
        <time>2016-04-18T11:24:47Z</time>
      </trkpt>
      <trkpt lat="39.549105" lon="3.138182">
        <ele>57.6</ele>
        <time>2016-04-18T11:24:48Z</time>
      </trkpt>
      <trkpt lat="39.549049" lon="3.138181">
        <ele>58.2</ele>
        <time>2016-04-18T11:24:49Z</time>
      </trkpt>
      <trkpt lat="39.548993" lon="3.138175">
        <ele>58.6</ele>
        <time>2016-04-18T11:24:50Z</time>
      </trkpt>
      <trkpt lat="39.548939" lon="3.138168">
        <ele>59.2</ele>
        <time>2016-04-18T11:24:51Z</time>
      </trkpt>
      <trkpt lat="39.548829" lon="3.138149">
        <ele>59.2</ele>
        <time>2016-04-18T11:24:53Z</time>
      </trkpt>
      <trkpt lat="39.548721" lon="3.138131">
        <ele>59.6</ele>
        <time>2016-04-18T11:24:55Z</time>
      </trkpt>
      <trkpt lat="39.548668" lon="3.138122">
        <ele>60</ele>
        <time>2016-04-18T11:24:56Z</time>
      </trkpt>
      <trkpt lat="39.548617" lon="3.138113">
        <ele>60.4</ele>
        <time>2016-04-18T11:24:57Z</time>
      </trkpt>
      <trkpt lat="39.548566" lon="3.1381">
        <ele>60.8</ele>
        <time>2016-04-18T11:24:58Z</time>
      </trkpt>
      <trkpt lat="39.548516" lon="3.138091">
        <ele>61.2</ele>
        <time>2016-04-18T11:24:59Z</time>
      </trkpt>
      <trkpt lat="39.548311" lon="3.138067">
        <ele>61.2</ele>
        <time>2016-04-18T11:25:03Z</time>
      </trkpt>
      <trkpt lat="39.548205" lon="3.138056">
        <ele>61.2</ele>
        <time>2016-04-18T11:25:05Z</time>
      </trkpt>
      <trkpt lat="39.548105" lon="3.138033">
        <ele>61.6</ele>
        <time>2016-04-18T11:25:07Z</time>
      </trkpt>
      <trkpt lat="39.548052" lon="3.138021">
        <ele>62</ele>
        <time>2016-04-18T11:25:08Z</time>
      </trkpt>
      <trkpt lat="39.548001" lon="3.138016">
        <ele>62.6</ele>
        <time>2016-04-18T11:25:09Z</time>
      </trkpt>
      <trkpt lat="39.547951" lon="3.138015">
        <ele>63</ele>
        <time>2016-04-18T11:25:10Z</time>
      </trkpt>
      <trkpt lat="39.547903" lon="3.138024">
        <ele>63.4</ele>
        <time>2016-04-18T11:25:11Z</time>
      </trkpt>
      <trkpt lat="39.547763" lon="3.138092">
        <ele>63.4</ele>
        <time>2016-04-18T11:25:14Z</time>
      </trkpt>
      <trkpt lat="39.547717" lon="3.138124">
        <ele>63.4</ele>
        <time>2016-04-18T11:25:15Z</time>
      </trkpt>
      <trkpt lat="39.54767" lon="3.138157">
        <ele>63.8</ele>
        <time>2016-04-18T11:25:16Z</time>
      </trkpt>
      <trkpt lat="39.547627" lon="3.138192">
        <ele>64.2</ele>
        <time>2016-04-18T11:25:17Z</time>
      </trkpt>
      <trkpt lat="39.547588" lon="3.138227">
        <ele>64.6</ele>
        <time>2016-04-18T11:25:18Z</time>
      </trkpt>
      <trkpt lat="39.547547" lon="3.138262">
        <ele>65</ele>
        <time>2016-04-18T11:25:19Z</time>
      </trkpt>
      <trkpt lat="39.547505" lon="3.138299">
        <ele>65.6</ele>
        <time>2016-04-18T11:25:20Z</time>
      </trkpt>
      <trkpt lat="39.547419" lon="3.138371">
        <ele>65.6</ele>
        <time>2016-04-18T11:25:22Z</time>
      </trkpt>
      <trkpt lat="39.547296" lon="3.138474">
        <ele>66</ele>
        <time>2016-04-18T11:25:25Z</time>
      </trkpt>
      <trkpt lat="39.547253" lon="3.138509">
        <ele>66.4</ele>
        <time>2016-04-18T11:25:26Z</time>
      </trkpt>
      <trkpt lat="39.54721" lon="3.138543">
        <ele>66.8</ele>
        <time>2016-04-18T11:25:27Z</time>
      </trkpt>
      <trkpt lat="39.547168" lon="3.138577">
        <ele>67.2</ele>
        <time>2016-04-18T11:25:28Z</time>
      </trkpt>
      <trkpt lat="39.547128" lon="3.138612">
        <ele>67.6</ele>
        <time>2016-04-18T11:25:29Z</time>
      </trkpt>
      <trkpt lat="39.547053" lon="3.138678">
        <ele>68</ele>
        <time>2016-04-18T11:25:31Z</time>
      </trkpt>
      <trkpt lat="39.547015" lon="3.13871">
        <ele>68.4</ele>
        <time>2016-04-18T11:25:32Z</time>
      </trkpt>
      <trkpt lat="39.546976" lon="3.138742">
        <ele>69</ele>
        <time>2016-04-18T11:25:33Z</time>
      </trkpt>
      <trkpt lat="39.546938" lon="3.138773">
        <ele>69.4</ele>
        <time>2016-04-18T11:25:34Z</time>
      </trkpt>
      <trkpt lat="39.546899" lon="3.138805">
        <ele>69.8</ele>
        <time>2016-04-18T11:25:35Z</time>
      </trkpt>
      <trkpt lat="39.546784" lon="3.138899">
        <ele>69.8</ele>
        <time>2016-04-18T11:25:38Z</time>
      </trkpt>
      <trkpt lat="39.546671" lon="3.138985">
        <ele>70.2</ele>
        <time>2016-04-18T11:25:41Z</time>
      </trkpt>
      <trkpt lat="39.546628" lon="3.139012">
        <ele>70.6</ele>
        <time>2016-04-18T11:25:42Z</time>
      </trkpt>
      <trkpt lat="39.546582" lon="3.139036">
        <ele>71</ele>
        <time>2016-04-18T11:25:43Z</time>
      </trkpt>
      <trkpt lat="39.546532" lon="3.139053">
        <ele>71.4</ele>
        <time>2016-04-18T11:25:44Z</time>
      </trkpt>
      <trkpt lat="39.546477" lon="3.139065">
        <ele>71.8</ele>
        <time>2016-04-18T11:25:45Z</time>
      </trkpt>
      <trkpt lat="39.5462" lon="3.139082">
        <ele>71.8</ele>
        <time>2016-04-18T11:25:50Z</time>
      </trkpt>
      <trkpt lat="39.545823" lon="3.139044">
        <ele>71.8</ele>
        <time>2016-04-18T11:25:56Z</time>
      </trkpt>
      <trkpt lat="39.545423" lon="3.139005">
        <ele>71.8</ele>
        <time>2016-04-18T11:26:02Z</time>
      </trkpt>
      <trkpt lat="39.545292" lon="3.138995">
        <ele>71.8</ele>
        <time>2016-04-18T11:26:04Z</time>
      </trkpt>
      <trkpt lat="39.545018" lon="3.139017">
        <ele>71.8</ele>
        <time>2016-04-18T11:26:08Z</time>
      </trkpt>
      <trkpt lat="39.544883" lon="3.13905">
        <ele>71.8</ele>
        <time>2016-04-18T11:26:10Z</time>
      </trkpt>
      <trkpt lat="39.544635" lon="3.139158">
        <ele>71.8</ele>
        <time>2016-04-18T11:26:14Z</time>
      </trkpt>
      <trkpt lat="39.544503" lon="3.139223">
        <ele>71.8</ele>
        <time>2016-04-18T11:26:16Z</time>
      </trkpt>
      <trkpt lat="39.544261" lon="3.139393">
        <ele>71.8</ele>
        <time>2016-04-18T11:26:20Z</time>
      </trkpt>
      <trkpt lat="39.544132" lon="3.139496">
        <ele>71.8</ele>
        <time>2016-04-18T11:26:22Z</time>
      </trkpt>
      <trkpt lat="39.544064" lon="3.13955">
        <ele>71.8</ele>
        <time>2016-04-18T11:26:23Z</time>
      </trkpt>
      <trkpt lat="39.543937" lon="3.139657">
        <ele>71.4</ele>
        <time>2016-04-18T11:26:25Z</time>
      </trkpt>
      <trkpt lat="39.543875" lon="3.139708">
        <ele>70.8</ele>
        <time>2016-04-18T11:26:26Z</time>
      </trkpt>
      <trkpt lat="39.543816" lon="3.139756">
        <ele>70.4</ele>
        <time>2016-04-18T11:26:27Z</time>
      </trkpt>
      <trkpt lat="39.543755" lon="3.139806">
        <ele>70</ele>
        <time>2016-04-18T11:26:28Z</time>
      </trkpt>
      <trkpt lat="39.543695" lon="3.139854">
        <ele>69.6</ele>
        <time>2016-04-18T11:26:29Z</time>
      </trkpt>
      <trkpt lat="39.54352" lon="3.139999">
        <ele>69.6</ele>
        <time>2016-04-18T11:26:32Z</time>
      </trkpt>
      <trkpt lat="39.543464" lon="3.140046">
        <ele>69.6</ele>
        <time>2016-04-18T11:26:33Z</time>
      </trkpt>
      <trkpt lat="39.543353" lon="3.140137">
        <ele>69.6</ele>
        <time>2016-04-18T11:26:35Z</time>
      </trkpt>
      <trkpt lat="39.54324" lon="3.140235">
        <ele>69.6</ele>
        <time>2016-04-18T11:26:37Z</time>
      </trkpt>
      <trkpt lat="39.5429" lon="3.140507">
        <ele>70</ele>
        <time>2016-04-18T11:26:43Z</time>
      </trkpt>
      <trkpt lat="39.542844" lon="3.140557">
        <ele>70.4</ele>
        <time>2016-04-18T11:26:44Z</time>
      </trkpt>
      <trkpt lat="39.542783" lon="3.140608">
        <ele>71.2</ele>
        <time>2016-04-18T11:26:45Z</time>
      </trkpt>
      <trkpt lat="39.542725" lon="3.140655">
        <ele>71.6</ele>
        <time>2016-04-18T11:26:46Z</time>
      </trkpt>
      <trkpt lat="39.542495" lon="3.140841">
        <ele>71.6</ele>
        <time>2016-04-18T11:26:50Z</time>
      </trkpt>
      <trkpt lat="39.542318" lon="3.140977">
        <ele>71.6</ele>
        <time>2016-04-18T11:26:53Z</time>
      </trkpt>
      <trkpt lat="39.542099" lon="3.141157">
        <ele>71.6</ele>
        <time>2016-04-18T11:26:57Z</time>
      </trkpt>
      <trkpt lat="39.542046" lon="3.141204">
        <ele>71.6</ele>
        <time>2016-04-18T11:26:58Z</time>
      </trkpt>
      <trkpt lat="39.541897" lon="3.14133">
        <ele>71.6</ele>
        <time>2016-04-18T11:27:01Z</time>
      </trkpt>
      <trkpt lat="39.541807" lon="3.141407">
        <ele>72</ele>
        <time>2016-04-18T11:27:03Z</time>
      </trkpt>
      <trkpt lat="39.541762" lon="3.141442">
        <ele>72.4</ele>
        <time>2016-04-18T11:27:04Z</time>
      </trkpt>
      <trkpt lat="39.541717" lon="3.141479">
        <ele>72.8</ele>
        <time>2016-04-18T11:27:05Z</time>
      </trkpt>
      <trkpt lat="39.541673" lon="3.141512">
        <ele>73.4</ele>
        <time>2016-04-18T11:27:06Z</time>
      </trkpt>
      <trkpt lat="39.541627" lon="3.141547">
        <ele>73.8</ele>
        <time>2016-04-18T11:27:07Z</time>
      </trkpt>
      <trkpt lat="39.541493" lon="3.141653">
        <ele>74.2</ele>
        <time>2016-04-18T11:27:10Z</time>
      </trkpt>
      <trkpt lat="39.541445" lon="3.141693">
        <ele>74.6</ele>
        <time>2016-04-18T11:27:11Z</time>
      </trkpt>
      <trkpt lat="39.541394" lon="3.141731">
        <ele>75</ele>
        <time>2016-04-18T11:27:12Z</time>
      </trkpt>
      <trkpt lat="39.54134" lon="3.141769">
        <ele>75.4</ele>
        <time>2016-04-18T11:27:13Z</time>
      </trkpt>
      <trkpt lat="39.541282" lon="3.141801">
        <ele>75.8</ele>
        <time>2016-04-18T11:27:14Z</time>
      </trkpt>
      <trkpt lat="39.541153" lon="3.141803">
        <ele>75.8</ele>
        <time>2016-04-18T11:27:16Z</time>
      </trkpt>
      <trkpt lat="39.540987" lon="3.141671">
        <ele>75.8</ele>
        <time>2016-04-18T11:27:19Z</time>
      </trkpt>
      <trkpt lat="39.540891" lon="3.141543">
        <ele>75.8</ele>
        <time>2016-04-18T11:27:21Z</time>
      </trkpt>
      <trkpt lat="39.540725" lon="3.141341">
        <ele>75.8</ele>
        <time>2016-04-18T11:27:24Z</time>
      </trkpt>
      <trkpt lat="39.540499" lon="3.141053">
        <ele>75.8</ele>
        <time>2016-04-18T11:27:28Z</time>
      </trkpt>
      <trkpt lat="39.540371" lon="3.140898">
        <ele>75.8</ele>
        <time>2016-04-18T11:27:30Z</time>
      </trkpt>
      <trkpt lat="39.54024" lon="3.140737">
        <ele>75.4</ele>
        <time>2016-04-18T11:27:32Z</time>
      </trkpt>
      <trkpt lat="39.540174" lon="3.14065">
        <ele>75</ele>
        <time>2016-04-18T11:27:33Z</time>
      </trkpt>
      <trkpt lat="39.540103" lon="3.14056">
        <ele>74</ele>
        <time>2016-04-18T11:27:34Z</time>
      </trkpt>
      <trkpt lat="39.540028" lon="3.140469">
        <ele>73.4</ele>
        <time>2016-04-18T11:27:35Z</time>
      </trkpt>
      <trkpt lat="39.539952" lon="3.140376">
        <ele>72.8</ele>
        <time>2016-04-18T11:27:36Z</time>
      </trkpt>
      <trkpt lat="39.539871" lon="3.140276">
        <ele>72.2</ele>
        <time>2016-04-18T11:27:37Z</time>
      </trkpt>
      <trkpt lat="39.539795" lon="3.140182">
        <ele>71.6</ele>
        <time>2016-04-18T11:27:38Z</time>
      </trkpt>
      <trkpt lat="39.53972" lon="3.140085">
        <ele>71</ele>
        <time>2016-04-18T11:27:39Z</time>
      </trkpt>
      <trkpt lat="39.539646" lon="3.139989">
        <ele>70.4</ele>
        <time>2016-04-18T11:27:40Z</time>
      </trkpt>
      <trkpt lat="39.53957" lon="3.139896">
        <ele>69.8</ele>
        <time>2016-04-18T11:27:41Z</time>
      </trkpt>
      <trkpt lat="39.539496" lon="3.139808">
        <ele>69.2</ele>
        <time>2016-04-18T11:27:42Z</time>
      </trkpt>
      <trkpt lat="39.539418" lon="3.139731">
        <ele>68.6</ele>
        <time>2016-04-18T11:27:43Z</time>
      </trkpt>
      <trkpt lat="39.539244" lon="3.139651">
        <ele>68.6</ele>
        <time>2016-04-18T11:27:45Z</time>
      </trkpt>
      <trkpt lat="39.53907" lon="3.139661">
        <ele>68.6</ele>
        <time>2016-04-18T11:27:47Z</time>
      </trkpt>
      <trkpt lat="39.538991" lon="3.139689">
        <ele>68.6</ele>
        <time>2016-04-18T11:27:48Z</time>
      </trkpt>
      <trkpt lat="39.538918" lon="3.139722">
        <ele>68.6</ele>
        <time>2016-04-18T11:27:49Z</time>
      </trkpt>
      <trkpt lat="39.5387" lon="3.139821">
        <ele>69</ele>
        <time>2016-04-18T11:27:52Z</time>
      </trkpt>
      <trkpt lat="39.538625" lon="3.139852">
        <ele>69.4</ele>
        <time>2016-04-18T11:27:53Z</time>
      </trkpt>
      <trkpt lat="39.538555" lon="3.139879">
        <ele>69.8</ele>
        <time>2016-04-18T11:27:54Z</time>
      </trkpt>
      <trkpt lat="39.538487" lon="3.139903">
        <ele>70.2</ele>
        <time>2016-04-18T11:27:55Z</time>
      </trkpt>
      <trkpt lat="39.538421" lon="3.139927">
        <ele>70.6</ele>
        <time>2016-04-18T11:27:56Z</time>
      </trkpt>
      <trkpt lat="39.538292" lon="3.139979">
        <ele>70.6</ele>
        <time>2016-04-18T11:27:58Z</time>
      </trkpt>
      <trkpt lat="39.538225" lon="3.14001">
        <ele>71.2</ele>
        <time>2016-04-18T11:27:59Z</time>
      </trkpt>
      <trkpt lat="39.538163" lon="3.140043">
        <ele>71.6</ele>
        <time>2016-04-18T11:28:00Z</time>
      </trkpt>
      <trkpt lat="39.5381" lon="3.140076">
        <ele>72</ele>
        <time>2016-04-18T11:28:01Z</time>
      </trkpt>
      <trkpt lat="39.538039" lon="3.140113">
        <ele>72.6</ele>
        <time>2016-04-18T11:28:02Z</time>
      </trkpt>
      <trkpt lat="39.537981" lon="3.140151">
        <ele>73</ele>
        <time>2016-04-18T11:28:03Z</time>
      </trkpt>
      <trkpt lat="39.537863" lon="3.140243">
        <ele>73</ele>
        <time>2016-04-18T11:28:05Z</time>
      </trkpt>
      <trkpt lat="39.537749" lon="3.140339">
        <ele>73</ele>
        <time>2016-04-18T11:28:07Z</time>
      </trkpt>
      <trkpt lat="39.53769" lon="3.140394">
        <ele>73</ele>
        <time>2016-04-18T11:28:08Z</time>
      </trkpt>
      <trkpt lat="39.537283" lon="3.140751">
        <ele>73</ele>
        <time>2016-04-18T11:28:15Z</time>
      </trkpt>
      <trkpt lat="39.53722" lon="3.140805">
        <ele>73</ele>
        <time>2016-04-18T11:28:16Z</time>
      </trkpt>
      <trkpt lat="39.536891" lon="3.141064">
        <ele>73</ele>
        <time>2016-04-18T11:28:21Z</time>
      </trkpt>
      <trkpt lat="39.536824" lon="3.141114">
        <ele>73</ele>
        <time>2016-04-18T11:28:22Z</time>
      </trkpt>
      <trkpt lat="39.536489" lon="3.141359">
        <ele>73</ele>
        <time>2016-04-18T11:28:27Z</time>
      </trkpt>
      <trkpt lat="39.536223" lon="3.141539">
        <ele>73</ele>
        <time>2016-04-18T11:28:31Z</time>
      </trkpt>
      <trkpt lat="39.535836" lon="3.141807">
        <ele>73</ele>
        <time>2016-04-18T11:28:37Z</time>
      </trkpt>
      <trkpt lat="39.535708" lon="3.141898">
        <ele>73</ele>
        <time>2016-04-18T11:28:39Z</time>
      </trkpt>
      <trkpt lat="39.535461" lon="3.142076">
        <ele>73.4</ele>
        <time>2016-04-18T11:28:43Z</time>
      </trkpt>
      <trkpt lat="39.535402" lon="3.142122">
        <ele>73.8</ele>
        <time>2016-04-18T11:28:44Z</time>
      </trkpt>
      <trkpt lat="39.535341" lon="3.142164">
        <ele>74.4</ele>
        <time>2016-04-18T11:28:45Z</time>
      </trkpt>
      <trkpt lat="39.535273" lon="3.142201">
        <ele>74.8</ele>
        <time>2016-04-18T11:28:46Z</time>
      </trkpt>
      <trkpt lat="39.535204" lon="3.142232">
        <ele>75.2</ele>
        <time>2016-04-18T11:28:47Z</time>
      </trkpt>
      <trkpt lat="39.535132" lon="3.142252">
        <ele>75.2</ele>
        <time>2016-04-18T11:28:48Z</time>
      </trkpt>
      <trkpt lat="39.534911" lon="3.142267">
        <ele>75.2</ele>
        <time>2016-04-18T11:28:51Z</time>
      </trkpt>
      <trkpt lat="39.53436" lon="3.142313">
        <ele>75.2</ele>
        <time>2016-04-18T11:28:58Z</time>
      </trkpt>
      <trkpt lat="39.533951" lon="3.142351">
        <ele>75.2</ele>
        <time>2016-04-18T11:29:03Z</time>
      </trkpt>
      <trkpt lat="39.533708" lon="3.142366">
        <ele>75.2</ele>
        <time>2016-04-18T11:29:06Z</time>
      </trkpt>
      <trkpt lat="39.533628" lon="3.142365">
        <ele>75.2</ele>
        <time>2016-04-18T11:29:07Z</time>
      </trkpt>
      <trkpt lat="39.533085" lon="3.142391">
        <ele>75.2</ele>
        <time>2016-04-18T11:29:14Z</time>
      </trkpt>
      <trkpt lat="39.53262" lon="3.142374">
        <ele>75.2</ele>
        <time>2016-04-18T11:29:20Z</time>
      </trkpt>
      <trkpt lat="39.532466" lon="3.14237">
        <ele>75.2</ele>
        <time>2016-04-18T11:29:22Z</time>
      </trkpt>
      <trkpt lat="39.532302" lon="3.142367">
        <ele>75.2</ele>
        <time>2016-04-18T11:29:24Z</time>
      </trkpt>
      <trkpt lat="39.532142" lon="3.142362">
        <ele>75.2</ele>
        <time>2016-04-18T11:29:26Z</time>
      </trkpt>
      <trkpt lat="39.531891" lon="3.142357">
        <ele>75.2</ele>
        <time>2016-04-18T11:29:29Z</time>
      </trkpt>
      <trkpt lat="39.531627" lon="3.14237">
        <ele>74.8</ele>
        <time>2016-04-18T11:29:32Z</time>
      </trkpt>
      <trkpt lat="39.53154" lon="3.142372">
        <ele>74.4</ele>
        <time>2016-04-18T11:29:33Z</time>
      </trkpt>
      <trkpt lat="39.531452" lon="3.142374">
        <ele>74</ele>
        <time>2016-04-18T11:29:34Z</time>
      </trkpt>
      <trkpt lat="39.531362" lon="3.142377">
        <ele>73.4</ele>
        <time>2016-04-18T11:29:35Z</time>
      </trkpt>
      <trkpt lat="39.531274" lon="3.142383">
        <ele>73</ele>
        <time>2016-04-18T11:29:36Z</time>
      </trkpt>
      <trkpt lat="39.531008" lon="3.142388">
        <ele>73</ele>
        <time>2016-04-18T11:29:39Z</time>
      </trkpt>
      <trkpt lat="39.530915" lon="3.142385">
        <ele>72.6</ele>
        <time>2016-04-18T11:29:40Z</time>
      </trkpt>
      <trkpt lat="39.530821" lon="3.142381">
        <ele>72.2</ele>
        <time>2016-04-18T11:29:41Z</time>
      </trkpt>
      <trkpt lat="39.530727" lon="3.142378">
        <ele>71.8</ele>
        <time>2016-04-18T11:29:42Z</time>
      </trkpt>
      <trkpt lat="39.530632" lon="3.142376">
        <ele>71.4</ele>
        <time>2016-04-18T11:29:43Z</time>
      </trkpt>
      <trkpt lat="39.530535" lon="3.142373">
        <ele>71</ele>
        <time>2016-04-18T11:29:44Z</time>
      </trkpt>
      <trkpt lat="39.530339" lon="3.142348">
        <ele>71</ele>
        <time>2016-04-18T11:29:46Z</time>
      </trkpt>
      <trkpt lat="39.529905" lon="3.142226">
        <ele>71</ele>
        <time>2016-04-18T11:29:51Z</time>
      </trkpt>
      <trkpt lat="39.529743" lon="3.142179">
        <ele>71</ele>
        <time>2016-04-18T11:29:53Z</time>
      </trkpt>
      <trkpt lat="39.529439" lon="3.142044">
        <ele>71</ele>
        <time>2016-04-18T11:29:57Z</time>
      </trkpt>
      <trkpt lat="39.529154" lon="3.141843">
        <ele>71</ele>
        <time>2016-04-18T11:30:01Z</time>
      </trkpt>
      <trkpt lat="39.528849" lon="3.14165">
        <ele>71</ele>
        <time>2016-04-18T11:30:05Z</time>
      </trkpt>
      <trkpt lat="39.528688" lon="3.141569">
        <ele>71</ele>
        <time>2016-04-18T11:30:07Z</time>
      </trkpt>
      <trkpt lat="39.528432" lon="3.141484">
        <ele>71</ele>
        <time>2016-04-18T11:30:10Z</time>
      </trkpt>
      <trkpt lat="39.528171" lon="3.141394">
        <ele>70.4</ele>
        <time>2016-04-18T11:30:13Z</time>
      </trkpt>
      <trkpt lat="39.528088" lon="3.141368">
        <ele>70</ele>
        <time>2016-04-18T11:30:14Z</time>
      </trkpt>
      <trkpt lat="39.528003" lon="3.141343">
        <ele>69.4</ele>
        <time>2016-04-18T11:30:15Z</time>
      </trkpt>
      <trkpt lat="39.527918" lon="3.141317">
        <ele>69</ele>
        <time>2016-04-18T11:30:16Z</time>
      </trkpt>
      <trkpt lat="39.527828" lon="3.141288">
        <ele>68.4</ele>
        <time>2016-04-18T11:30:17Z</time>
      </trkpt>
      <trkpt lat="39.527242" lon="3.141094">
        <ele>68.4</ele>
        <time>2016-04-18T11:30:24Z</time>
      </trkpt>
      <trkpt lat="39.526745" lon="3.140939">
        <ele>68.4</ele>
        <time>2016-04-18T11:30:30Z</time>
      </trkpt>
      <trkpt lat="39.526579" lon="3.140886">
        <ele>68.4</ele>
        <time>2016-04-18T11:30:32Z</time>
      </trkpt>
      <trkpt lat="39.526343" lon="3.140802">
        <ele>68.4</ele>
        <time>2016-04-18T11:30:35Z</time>
      </trkpt>
      <trkpt lat="39.526111" lon="3.140725">
        <ele>68.4</ele>
        <time>2016-04-18T11:30:38Z</time>
      </trkpt>
      <trkpt lat="39.526028" lon="3.140696">
        <ele>68.4</ele>
        <time>2016-04-18T11:30:39Z</time>
      </trkpt>
      <trkpt lat="39.525872" lon="3.140642">
        <ele>68.4</ele>
        <time>2016-04-18T11:30:41Z</time>
      </trkpt>
      <trkpt lat="39.525376" lon="3.140492">
        <ele>68.4</ele>
        <time>2016-04-18T11:30:47Z</time>
      </trkpt>
      <trkpt lat="39.525123" lon="3.140405">
        <ele>68.4</ele>
        <time>2016-04-18T11:30:50Z</time>
      </trkpt>
      <trkpt lat="39.52478" lon="3.140284">
        <ele>68.4</ele>
        <time>2016-04-18T11:30:54Z</time>
      </trkpt>
      <trkpt lat="39.52426" lon="3.140123">
        <ele>68.4</ele>
        <time>2016-04-18T11:31:00Z</time>
      </trkpt>
      <trkpt lat="39.523803" lon="3.140021">
        <ele>68</ele>
        <time>2016-04-18T11:31:05Z</time>
      </trkpt>
      <trkpt lat="39.523712" lon="3.139998">
        <ele>67.6</ele>
        <time>2016-04-18T11:31:06Z</time>
      </trkpt>
      <trkpt lat="39.523623" lon="3.139973">
        <ele>67.2</ele>
        <time>2016-04-18T11:31:07Z</time>
      </trkpt>
      <trkpt lat="39.523531" lon="3.139949">
        <ele>66.8</ele>
        <time>2016-04-18T11:31:08Z</time>
      </trkpt>
      <trkpt lat="39.523439" lon="3.139927">
        <ele>66.2</ele>
        <time>2016-04-18T11:31:09Z</time>
      </trkpt>
      <trkpt lat="39.522982" lon="3.139827">
        <ele>66.2</ele>
        <time>2016-04-18T11:31:14Z</time>
      </trkpt>
      <trkpt lat="39.522636" lon="3.139739">
        <ele>66.2</ele>
        <time>2016-04-18T11:31:18Z</time>
      </trkpt>
      <trkpt lat="39.522301" lon="3.139654">
        <ele>66.2</ele>
        <time>2016-04-18T11:31:22Z</time>
      </trkpt>
      <trkpt lat="39.522048" lon="3.139585">
        <ele>66.2</ele>
        <time>2016-04-18T11:31:25Z</time>
      </trkpt>
      <trkpt lat="39.521895" lon="3.139472">
        <ele>66.2</ele>
        <time>2016-04-18T11:31:27Z</time>
      </trkpt>
      <trkpt lat="39.521673" lon="3.139262">
        <ele>66.2</ele>
        <time>2016-04-18T11:31:30Z</time>
      </trkpt>
      <trkpt lat="39.521366" lon="3.138976">
        <ele>66.2</ele>
        <time>2016-04-18T11:31:34Z</time>
      </trkpt>
      <trkpt lat="39.520895" lon="3.13856">
        <ele>66.2</ele>
        <time>2016-04-18T11:31:40Z</time>
      </trkpt>
      <trkpt lat="39.520818" lon="3.13849">
        <ele>65.8</ele>
        <time>2016-04-18T11:31:41Z</time>
      </trkpt>
      <trkpt lat="39.52074" lon="3.138424">
        <ele>65.4</ele>
        <time>2016-04-18T11:31:42Z</time>
      </trkpt>
      <trkpt lat="39.520663" lon="3.13836">
        <ele>65</ele>
        <time>2016-04-18T11:31:43Z</time>
      </trkpt>
      <trkpt lat="39.520589" lon="3.138297">
        <ele>64.6</ele>
        <time>2016-04-18T11:31:44Z</time>
      </trkpt>
      <trkpt lat="39.520515" lon="3.138232">
        <ele>64.2</ele>
        <time>2016-04-18T11:31:45Z</time>
      </trkpt>
      <trkpt lat="39.520167" lon="3.137899">
        <ele>64.2</ele>
        <time>2016-04-18T11:31:50Z</time>
      </trkpt>
      <trkpt lat="39.519745" lon="3.137345">
        <ele>64.2</ele>
        <time>2016-04-18T11:31:57Z</time>
      </trkpt>
      <trkpt lat="39.519536" lon="3.136988">
        <ele>64.2</ele>
        <time>2016-04-18T11:32:01Z</time>
      </trkpt>
      <trkpt lat="39.519483" lon="3.136901">
        <ele>64.2</ele>
        <time>2016-04-18T11:32:02Z</time>
      </trkpt>
      <trkpt lat="39.519328" lon="3.136636">
        <ele>64.2</ele>
        <time>2016-04-18T11:32:05Z</time>
      </trkpt>
      <trkpt lat="39.519172" lon="3.136366">
        <ele>64.2</ele>
        <time>2016-04-18T11:32:08Z</time>
      </trkpt>
      <trkpt lat="39.518882" lon="3.135976">
        <ele>64.2</ele>
        <time>2016-04-18T11:32:13Z</time>
      </trkpt>
      <trkpt lat="39.518672" lon="3.135806">
        <ele>64.2</ele>
        <time>2016-04-18T11:32:16Z</time>
      </trkpt>
      <trkpt lat="39.518527" lon="3.135706">
        <ele>64.2</ele>
        <time>2016-04-18T11:32:18Z</time>
      </trkpt>
      <trkpt lat="39.518396" lon="3.135587">
        <ele>64.2</ele>
        <time>2016-04-18T11:32:20Z</time>
      </trkpt>
      <trkpt lat="39.518292" lon="3.135434">
        <ele>64.2</ele>
        <time>2016-04-18T11:32:22Z</time>
      </trkpt>
      <trkpt lat="39.517953" lon="3.134856">
        <ele>64.2</ele>
        <time>2016-04-18T11:32:29Z</time>
      </trkpt>
      <trkpt lat="39.517613" lon="3.13427">
        <ele>64.2</ele>
        <time>2016-04-18T11:32:36Z</time>
      </trkpt>
      <trkpt lat="39.517376" lon="3.133707">
        <ele>64.2</ele>
        <time>2016-04-18T11:32:42Z</time>
      </trkpt>
      <trkpt lat="39.517256" lon="3.133434">
        <ele>64.2</ele>
        <time>2016-04-18T11:32:45Z</time>
      </trkpt>
      <trkpt lat="39.517142" lon="3.133158">
        <ele>64.2</ele>
        <time>2016-04-18T11:32:48Z</time>
      </trkpt>
      <trkpt lat="39.516931" lon="3.132636">
        <ele>64.2</ele>
        <time>2016-04-18T11:32:54Z</time>
      </trkpt>
      <trkpt lat="39.516899" lon="3.132559">
        <ele>64.2</ele>
        <time>2016-04-18T11:32:55Z</time>
      </trkpt>
      <trkpt lat="39.516805" lon="3.132355">
        <ele>64.2</ele>
        <time>2016-04-18T11:32:58Z</time>
      </trkpt>
      <trkpt lat="39.516761" lon="3.13232">
        <ele>64.2</ele>
        <time>2016-04-18T11:32:59Z</time>
      </trkpt>
      <trkpt lat="39.516712" lon="3.132308">
        <ele>64.2</ele>
        <time>2016-04-18T11:33:00Z</time>
      </trkpt>
      <trkpt lat="39.516609" lon="3.132342">
        <ele>64.2</ele>
        <time>2016-04-18T11:33:02Z</time>
      </trkpt>
      <trkpt lat="39.516518" lon="3.132402">
        <ele>64.2</ele>
        <time>2016-04-18T11:33:04Z</time>
      </trkpt>
      <trkpt lat="39.51642" lon="3.132455">
        <ele>64.2</ele>
        <time>2016-04-18T11:33:06Z</time>
      </trkpt>
      <trkpt lat="39.516371" lon="3.132479">
        <ele>64.2</ele>
        <time>2016-04-18T11:33:07Z</time>
      </trkpt>
      <trkpt lat="39.516276" lon="3.132527">
        <ele>64.6</ele>
        <time>2016-04-18T11:33:09Z</time>
      </trkpt>
      <trkpt lat="39.516231" lon="3.132557">
        <ele>65</ele>
        <time>2016-04-18T11:33:10Z</time>
      </trkpt>
      <trkpt lat="39.516183" lon="3.132589">
        <ele>65.4</ele>
        <time>2016-04-18T11:33:11Z</time>
      </trkpt>
      <trkpt lat="39.516126" lon="3.132621">
        <ele>65.8</ele>
        <time>2016-04-18T11:33:12Z</time>
      </trkpt>
      <trkpt lat="39.51607" lon="3.132651">
        <ele>66.2</ele>
        <time>2016-04-18T11:33:13Z</time>
      </trkpt>
      <trkpt lat="39.515834" lon="3.132782">
        <ele>66.2</ele>
        <time>2016-04-18T11:33:17Z</time>
      </trkpt>
      <trkpt lat="39.515771" lon="3.132816">
        <ele>66.2</ele>
        <time>2016-04-18T11:33:18Z</time>
      </trkpt>
      <trkpt lat="39.515376" lon="3.133039">
        <ele>66.2</ele>
        <time>2016-04-18T11:33:24Z</time>
      </trkpt>
      <trkpt lat="39.515242" lon="3.133122">
        <ele>66.2</ele>
        <time>2016-04-18T11:33:26Z</time>
      </trkpt>
      <trkpt lat="39.515032" lon="3.133246">
        <ele>66.2</ele>
        <time>2016-04-18T11:33:29Z</time>
      </trkpt>
      <trkpt lat="39.514686" lon="3.133454">
        <ele>66.2</ele>
        <time>2016-04-18T11:33:34Z</time>
      </trkpt>
      <trkpt lat="39.514249" lon="3.133716">
        <ele>66.2</ele>
        <time>2016-04-18T11:33:40Z</time>
      </trkpt>
      <trkpt lat="39.514101" lon="3.133792">
        <ele>66.2</ele>
        <time>2016-04-18T11:33:42Z</time>
      </trkpt>
      <trkpt lat="39.513588" lon="3.134048">
        <ele>66.2</ele>
        <time>2016-04-18T11:33:49Z</time>
      </trkpt>
      <trkpt lat="39.51351" lon="3.134087">
        <ele>66.2</ele>
        <time>2016-04-18T11:33:50Z</time>
      </trkpt>
      <trkpt lat="39.512987" lon="3.134347">
        <ele>66.2</ele>
        <time>2016-04-18T11:33:57Z</time>
      </trkpt>
      <trkpt lat="39.512913" lon="3.134381">
        <ele>66.2</ele>
        <time>2016-04-18T11:33:58Z</time>
      </trkpt>
      <trkpt lat="39.512524" lon="3.134512">
        <ele>66.2</ele>
        <time>2016-04-18T11:34:03Z</time>
      </trkpt>
      <trkpt lat="39.512283" lon="3.134565">
        <ele>66.8</ele>
        <time>2016-04-18T11:34:06Z</time>
      </trkpt>
      <trkpt lat="39.512205" lon="3.134585">
        <ele>67.2</ele>
        <time>2016-04-18T11:34:07Z</time>
      </trkpt>
      <trkpt lat="39.512125" lon="3.134605">
        <ele>68</ele>
        <time>2016-04-18T11:34:08Z</time>
      </trkpt>
      <trkpt lat="39.512043" lon="3.13462">
        <ele>68.4</ele>
        <time>2016-04-18T11:34:09Z</time>
      </trkpt>
      <trkpt lat="39.511798" lon="3.134676">
        <ele>68.4</ele>
        <time>2016-04-18T11:34:12Z</time>
      </trkpt>
      <trkpt lat="39.511235" lon="3.134803">
        <ele>68.4</ele>
        <time>2016-04-18T11:34:19Z</time>
      </trkpt>
      <trkpt lat="39.511072" lon="3.13484">
        <ele>68.4</ele>
        <time>2016-04-18T11:34:21Z</time>
      </trkpt>
      <trkpt lat="39.510763" lon="3.13494">
        <ele>68.4</ele>
        <time>2016-04-18T11:34:25Z</time>
      </trkpt>
      <trkpt lat="39.510628" lon="3.135045">
        <ele>68.4</ele>
        <time>2016-04-18T11:34:27Z</time>
      </trkpt>
      <trkpt lat="39.51051" lon="3.135183">
        <ele>68.4</ele>
        <time>2016-04-18T11:34:29Z</time>
      </trkpt>
      <trkpt lat="39.510321" lon="3.135371">
        <ele>68.4</ele>
        <time>2016-04-18T11:34:32Z</time>
      </trkpt>
      <trkpt lat="39.509867" lon="3.135782">
        <ele>68.4</ele>
        <time>2016-04-18T11:34:39Z</time>
      </trkpt>
      <trkpt lat="39.509406" lon="3.1362">
        <ele>68.4</ele>
        <time>2016-04-18T11:34:46Z</time>
      </trkpt>
      <trkpt lat="39.509342" lon="3.136258">
        <ele>68.4</ele>
        <time>2016-04-18T11:34:47Z</time>
      </trkpt>
      <trkpt lat="39.50908" lon="3.136481">
        <ele>68.4</ele>
        <time>2016-04-18T11:34:51Z</time>
      </trkpt>
      <trkpt lat="39.508931" lon="3.136558">
        <ele>68.4</ele>
        <time>2016-04-18T11:34:53Z</time>
      </trkpt>
      <trkpt lat="39.508391" lon="3.136815">
        <ele>68.4</ele>
        <time>2016-04-18T11:35:00Z</time>
      </trkpt>
      <trkpt lat="39.508313" lon="3.136847">
        <ele>68.4</ele>
        <time>2016-04-18T11:35:01Z</time>
      </trkpt>
      <trkpt lat="39.507749" lon="3.137026">
        <ele>68.4</ele>
        <time>2016-04-18T11:35:08Z</time>
      </trkpt>
      <trkpt lat="39.507245" lon="3.137055">
        <ele>68.4</ele>
        <time>2016-04-18T11:35:14Z</time>
      </trkpt>
      <trkpt lat="39.506664" lon="3.137099">
        <ele>68.4</ele>
        <time>2016-04-18T11:35:21Z</time>
      </trkpt>
      <trkpt lat="39.506414" lon="3.137104">
        <ele>68.4</ele>
        <time>2016-04-18T11:35:24Z</time>
      </trkpt>
      <trkpt lat="39.505823" lon="3.137114">
        <ele>68.4</ele>
        <time>2016-04-18T11:35:31Z</time>
      </trkpt>
      <trkpt lat="39.505651" lon="3.13711">
        <ele>68.4</ele>
        <time>2016-04-18T11:35:33Z</time>
      </trkpt>
      <trkpt lat="39.505055" lon="3.137107">
        <ele>68.4</ele>
        <time>2016-04-18T11:35:40Z</time>
      </trkpt>
      <trkpt lat="39.50446" lon="3.137084">
        <ele>68.4</ele>
        <time>2016-04-18T11:35:47Z</time>
      </trkpt>
      <trkpt lat="39.504292" lon="3.137077">
        <ele>68.4</ele>
        <time>2016-04-18T11:35:49Z</time>
      </trkpt>
      <trkpt lat="39.50372" lon="3.137062">
        <ele>69</ele>
        <time>2016-04-18T11:35:56Z</time>
      </trkpt>
      <trkpt lat="39.50364" lon="3.13706">
        <ele>69.4</ele>
        <time>2016-04-18T11:35:57Z</time>
      </trkpt>
      <trkpt lat="39.503561" lon="3.13706">
        <ele>69.8</ele>
        <time>2016-04-18T11:35:58Z</time>
      </trkpt>
      <trkpt lat="39.503481" lon="3.137058">
        <ele>70.2</ele>
        <time>2016-04-18T11:35:59Z</time>
      </trkpt>
      <trkpt lat="39.503397" lon="3.137055">
        <ele>70.6</ele>
        <time>2016-04-18T11:36:00Z</time>
      </trkpt>
      <trkpt lat="39.502842" lon="3.137037">
        <ele>70.6</ele>
        <time>2016-04-18T11:36:07Z</time>
      </trkpt>
      <trkpt lat="39.502763" lon="3.137035">
        <ele>70.6</ele>
        <time>2016-04-18T11:36:08Z</time>
      </trkpt>
      <trkpt lat="39.502211" lon="3.137004">
        <ele>70.6</ele>
        <time>2016-04-18T11:36:15Z</time>
      </trkpt>
      <trkpt lat="39.501971" lon="3.136984">
        <ele>70.6</ele>
        <time>2016-04-18T11:36:18Z</time>
      </trkpt>
      <trkpt lat="39.501403" lon="3.13695">
        <ele>70.6</ele>
        <time>2016-04-18T11:36:25Z</time>
      </trkpt>
      <trkpt lat="39.501323" lon="3.136945">
        <ele>70.6</ele>
        <time>2016-04-18T11:36:26Z</time>
      </trkpt>
      <trkpt lat="39.500765" lon="3.136905">
        <ele>70.6</ele>
        <time>2016-04-18T11:36:33Z</time>
      </trkpt>
      <trkpt lat="39.500608" lon="3.136898">
        <ele>70.6</ele>
        <time>2016-04-18T11:36:35Z</time>
      </trkpt>
      <trkpt lat="39.500528" lon="3.136894">
        <ele>71.4</ele>
        <time>2016-04-18T11:36:36Z</time>
      </trkpt>
      <trkpt lat="39.500452" lon="3.136889">
        <ele>71.8</ele>
        <time>2016-04-18T11:36:37Z</time>
      </trkpt>
      <trkpt lat="39.500369" lon="3.136886">
        <ele>72.2</ele>
        <time>2016-04-18T11:36:38Z</time>
      </trkpt>
      <trkpt lat="39.500294" lon="3.13688">
        <ele>72.6</ele>
        <time>2016-04-18T11:36:39Z</time>
      </trkpt>
      <trkpt lat="39.500069" lon="3.136849">
        <ele>72.6</ele>
        <time>2016-04-18T11:36:42Z</time>
      </trkpt>
      <trkpt lat="39.499996" lon="3.136811">
        <ele>72.6</ele>
        <time>2016-04-18T11:36:43Z</time>
      </trkpt>
      <trkpt lat="39.499857" lon="3.136717">
        <ele>72.6</ele>
        <time>2016-04-18T11:36:45Z</time>
      </trkpt>
      <trkpt lat="39.499373" lon="3.136408">
        <ele>72.6</ele>
        <time>2016-04-18T11:36:52Z</time>
      </trkpt>
      <trkpt lat="39.499305" lon="3.136363">
        <ele>73</ele>
        <time>2016-04-18T11:36:53Z</time>
      </trkpt>
      <trkpt lat="39.499237" lon="3.136318">
        <ele>73.4</ele>
        <time>2016-04-18T11:36:54Z</time>
      </trkpt>
      <trkpt lat="39.499172" lon="3.136273">
        <ele>74</ele>
        <time>2016-04-18T11:36:55Z</time>
      </trkpt>
      <trkpt lat="39.499106" lon="3.136231">
        <ele>74.4</ele>
        <time>2016-04-18T11:36:56Z</time>
      </trkpt>
      <trkpt lat="39.499037" lon="3.136191">
        <ele>74.8</ele>
        <time>2016-04-18T11:36:57Z</time>
      </trkpt>
      <trkpt lat="39.498831" lon="3.136059">
        <ele>74.8</ele>
        <time>2016-04-18T11:37:00Z</time>
      </trkpt>
      <trkpt lat="39.498333" lon="3.135756">
        <ele>74.8</ele>
        <time>2016-04-18T11:37:07Z</time>
      </trkpt>
      <trkpt lat="39.498186" lon="3.135678">
        <ele>74.8</ele>
        <time>2016-04-18T11:37:09Z</time>
      </trkpt>
      <trkpt lat="39.49765" lon="3.135452">
        <ele>74.8</ele>
        <time>2016-04-18T11:37:16Z</time>
      </trkpt>
      <trkpt lat="39.497123" lon="3.135199">
        <ele>74.8</ele>
        <time>2016-04-18T11:37:23Z</time>
      </trkpt>
      <trkpt lat="39.496678" lon="3.13492">
        <ele>74.8</ele>
        <time>2016-04-18T11:37:29Z</time>
      </trkpt>
      <trkpt lat="39.496191" lon="3.134566">
        <ele>75.2</ele>
        <time>2016-04-18T11:37:36Z</time>
      </trkpt>
      <trkpt lat="39.496124" lon="3.134521">
        <ele>75.6</ele>
        <time>2016-04-18T11:37:37Z</time>
      </trkpt>
      <trkpt lat="39.49606" lon="3.134473">
        <ele>76</ele>
        <time>2016-04-18T11:37:38Z</time>
      </trkpt>
      <trkpt lat="39.495991" lon="3.134431">
        <ele>76.4</ele>
        <time>2016-04-18T11:37:39Z</time>
      </trkpt>
      <trkpt lat="39.495923" lon="3.1344">
        <ele>76.8</ele>
        <time>2016-04-18T11:37:40Z</time>
      </trkpt>
      <trkpt lat="39.495789" lon="3.134405">
        <ele>76.8</ele>
        <time>2016-04-18T11:37:42Z</time>
      </trkpt>
      <trkpt lat="39.495681" lon="3.134527">
        <ele>76.8</ele>
        <time>2016-04-18T11:37:44Z</time>
      </trkpt>
      <trkpt lat="39.495589" lon="3.134682">
        <ele>76.8</ele>
        <time>2016-04-18T11:37:46Z</time>
      </trkpt>
      <trkpt lat="39.495452" lon="3.134923">
        <ele>76.8</ele>
        <time>2016-04-18T11:37:49Z</time>
      </trkpt>
      <trkpt lat="39.495132" lon="3.135495">
        <ele>76.8</ele>
        <time>2016-04-18T11:37:56Z</time>
      </trkpt>
      <trkpt lat="39.495037" lon="3.135656">
        <ele>76.8</ele>
        <time>2016-04-18T11:37:58Z</time>
      </trkpt>
      <trkpt lat="39.494853" lon="3.13597">
        <ele>76.8</ele>
        <time>2016-04-18T11:38:02Z</time>
      </trkpt>
      <trkpt lat="39.494717" lon="3.136203">
        <ele>76.8</ele>
        <time>2016-04-18T11:38:05Z</time>
      </trkpt>
      <trkpt lat="39.494499" lon="3.136582">
        <ele>76.8</ele>
        <time>2016-04-18T11:38:10Z</time>
      </trkpt>
      <trkpt lat="39.494256" lon="3.136933">
        <ele>76.8</ele>
        <time>2016-04-18T11:38:15Z</time>
      </trkpt>
      <trkpt lat="39.494188" lon="3.136973">
        <ele>76.8</ele>
        <time>2016-04-18T11:38:16Z</time>
      </trkpt>
      <trkpt lat="39.493972" lon="3.137029">
        <ele>76.8</ele>
        <time>2016-04-18T11:38:19Z</time>
      </trkpt>
      <trkpt lat="39.493897" lon="3.137047">
        <ele>76.8</ele>
        <time>2016-04-18T11:38:20Z</time>
      </trkpt>
      <trkpt lat="39.493589" lon="3.137122">
        <ele>76.8</ele>
        <time>2016-04-18T11:38:24Z</time>
      </trkpt>
      <trkpt lat="39.493194" lon="3.137211">
        <ele>76.8</ele>
        <time>2016-04-18T11:38:29Z</time>
      </trkpt>
      <trkpt lat="39.492658" lon="3.137327">
        <ele>76.8</ele>
        <time>2016-04-18T11:38:36Z</time>
      </trkpt>
      <trkpt lat="39.492511" lon="3.137376">
        <ele>76.8</ele>
        <time>2016-04-18T11:38:38Z</time>
      </trkpt>
      <trkpt lat="39.492016" lon="3.13752">
        <ele>76.8</ele>
        <time>2016-04-18T11:38:45Z</time>
      </trkpt>
      <trkpt lat="39.491886" lon="3.13755">
        <ele>77.4</ele>
        <time>2016-04-18T11:38:47Z</time>
      </trkpt>
      <trkpt lat="39.491819" lon="3.137566">
        <ele>77.8</ele>
        <time>2016-04-18T11:38:48Z</time>
      </trkpt>
      <trkpt lat="39.491751" lon="3.137584">
        <ele>78.2</ele>
        <time>2016-04-18T11:38:49Z</time>
      </trkpt>
      <trkpt lat="39.491683" lon="3.137606">
        <ele>78.8</ele>
        <time>2016-04-18T11:38:50Z</time>
      </trkpt>
      <trkpt lat="39.491611" lon="3.137625">
        <ele>79.2</ele>
        <time>2016-04-18T11:38:51Z</time>
      </trkpt>
      <trkpt lat="39.491187" lon="3.137734">
        <ele>79.2</ele>
        <time>2016-04-18T11:38:57Z</time>
      </trkpt>
      <trkpt lat="39.490668" lon="3.137805">
        <ele>79.2</ele>
        <time>2016-04-18T11:39:04Z</time>
      </trkpt>
      <trkpt lat="39.490087" lon="3.137886">
        <ele>79.2</ele>
        <time>2016-04-18T11:39:12Z</time>
      </trkpt>
      <trkpt lat="39.490017" lon="3.137914">
        <ele>79.2</ele>
        <time>2016-04-18T11:39:13Z</time>
      </trkpt>
      <trkpt lat="39.489749" lon="3.138035">
        <ele>79.2</ele>
        <time>2016-04-18T11:39:17Z</time>
      </trkpt>
      <trkpt lat="39.489678" lon="3.138063">
        <ele>79.2</ele>
        <time>2016-04-18T11:39:18Z</time>
      </trkpt>
      <trkpt lat="39.48926" lon="3.138271">
        <ele>79.2</ele>
        <time>2016-04-18T11:39:24Z</time>
      </trkpt>
      <trkpt lat="39.489199" lon="3.138325">
        <ele>79.2</ele>
        <time>2016-04-18T11:39:25Z</time>
      </trkpt>
      <trkpt lat="39.488801" lon="3.138594">
        <ele>79.2</ele>
        <time>2016-04-18T11:39:31Z</time>
      </trkpt>
      <trkpt lat="39.48837" lon="3.138799">
        <ele>79.6</ele>
        <time>2016-04-18T11:39:37Z</time>
      </trkpt>
      <trkpt lat="39.488299" lon="3.138833">
        <ele>80.2</ele>
        <time>2016-04-18T11:39:38Z</time>
      </trkpt>
      <trkpt lat="39.488228" lon="3.138871">
        <ele>80.6</ele>
        <time>2016-04-18T11:39:39Z</time>
      </trkpt>
      <trkpt lat="39.488156" lon="3.138909">
        <ele>81</ele>
        <time>2016-04-18T11:39:40Z</time>
      </trkpt>
      <trkpt lat="39.488082" lon="3.138947">
        <ele>81.6</ele>
        <time>2016-04-18T11:39:41Z</time>
      </trkpt>
      <trkpt lat="39.487789" lon="3.139105">
        <ele>81.6</ele>
        <time>2016-04-18T11:39:45Z</time>
      </trkpt>
      <trkpt lat="39.487541" lon="3.139295">
        <ele>81.6</ele>
        <time>2016-04-18T11:39:49Z</time>
      </trkpt>
      <trkpt lat="39.487479" lon="3.139356">
        <ele>81.6</ele>
        <time>2016-04-18T11:39:50Z</time>
      </trkpt>
      <trkpt lat="39.487307" lon="3.139561">
        <ele>81.6</ele>
        <time>2016-04-18T11:39:52Z</time>
      </trkpt>
      <trkpt lat="39.487187" lon="3.139705">
        <ele>81.6</ele>
        <time>2016-04-18T11:39:55Z</time>
      </trkpt>
      <trkpt lat="39.487077" lon="3.139843">
        <ele>81.2</ele>
        <time>2016-04-18T11:39:57Z</time>
      </trkpt>
      <trkpt lat="39.487024" lon="3.139912">
        <ele>80.6</ele>
        <time>2016-04-18T11:39:58Z</time>
      </trkpt>
      <trkpt lat="39.486969" lon="3.139977">
        <ele>80.2</ele>
        <time>2016-04-18T11:39:59Z</time>
      </trkpt>
      <trkpt lat="39.486911" lon="3.140036">
        <ele>79.8</ele>
        <time>2016-04-18T11:40:00Z</time>
      </trkpt>
      <trkpt lat="39.486851" lon="3.140094">
        <ele>79.4</ele>
        <time>2016-04-18T11:40:01Z</time>
      </trkpt>
      <trkpt lat="39.48679" lon="3.140146">
        <ele>79.4</ele>
        <time>2016-04-18T11:40:02Z</time>
      </trkpt>
      <trkpt lat="39.486461" lon="3.140356">
        <ele>79.4</ele>
        <time>2016-04-18T11:40:07Z</time>
      </trkpt>
      <trkpt lat="39.485927" lon="3.14064">
        <ele>79.4</ele>
        <time>2016-04-18T11:40:15Z</time>
      </trkpt>
      <trkpt lat="39.485658" lon="3.140776">
        <ele>79.8</ele>
        <time>2016-04-18T11:40:19Z</time>
      </trkpt>
      <trkpt lat="39.485583" lon="3.140795">
        <ele>80.6</ele>
        <time>2016-04-18T11:40:20Z</time>
      </trkpt>
      <trkpt lat="39.485511" lon="3.140811">
        <ele>81</ele>
        <time>2016-04-18T11:40:21Z</time>
      </trkpt>
      <trkpt lat="39.485438" lon="3.140827">
        <ele>81.4</ele>
        <time>2016-04-18T11:40:22Z</time>
      </trkpt>
      <trkpt lat="39.484929" lon="3.140961">
        <ele>81.4</ele>
        <time>2016-04-18T11:40:29Z</time>
      </trkpt>
      <trkpt lat="39.48465" lon="3.141027">
        <ele>81.4</ele>
        <time>2016-04-18T11:40:33Z</time>
      </trkpt>
      <trkpt lat="39.484425" lon="3.141054">
        <ele>81.4</ele>
        <time>2016-04-18T11:40:36Z</time>
      </trkpt>
      <trkpt lat="39.484277" lon="3.141025">
        <ele>81.4</ele>
        <time>2016-04-18T11:40:38Z</time>
      </trkpt>
      <trkpt lat="39.483923" lon="3.140977">
        <ele>81.4</ele>
        <time>2016-04-18T11:40:43Z</time>
      </trkpt>
      <trkpt lat="39.483852" lon="3.140984">
        <ele>81.4</ele>
        <time>2016-04-18T11:40:44Z</time>
      </trkpt>
      <trkpt lat="39.483271" lon="3.141089">
        <ele>81.4</ele>
        <time>2016-04-18T11:40:52Z</time>
      </trkpt>
      <trkpt lat="39.4832" lon="3.141105">
        <ele>81.4</ele>
        <time>2016-04-18T11:40:53Z</time>
      </trkpt>
      <trkpt lat="39.482845" lon="3.141182">
        <ele>81.8</ele>
        <time>2016-04-18T11:40:58Z</time>
      </trkpt>
      <trkpt lat="39.482771" lon="3.141202">
        <ele>82.4</ele>
        <time>2016-04-18T11:40:59Z</time>
      </trkpt>
      <trkpt lat="39.482704" lon="3.141228">
        <ele>82.8</ele>
        <time>2016-04-18T11:41:00Z</time>
      </trkpt>
      <trkpt lat="39.482636" lon="3.141253">
        <ele>83.2</ele>
        <time>2016-04-18T11:41:01Z</time>
      </trkpt>
      <trkpt lat="39.482568" lon="3.141275">
        <ele>83.6</ele>
        <time>2016-04-18T11:41:02Z</time>
      </trkpt>
      <trkpt lat="39.482017" lon="3.141447">
        <ele>83.6</ele>
        <time>2016-04-18T11:41:10Z</time>
      </trkpt>
      <trkpt lat="39.481547" lon="3.141592">
        <ele>83.6</ele>
        <time>2016-04-18T11:41:17Z</time>
      </trkpt>
      <trkpt lat="39.48148" lon="3.141608">
        <ele>83.6</ele>
        <time>2016-04-18T11:41:18Z</time>
      </trkpt>
      <trkpt lat="39.481008" lon="3.14167">
        <ele>83.6</ele>
        <time>2016-04-18T11:41:25Z</time>
      </trkpt>
      <trkpt lat="39.480526" lon="3.141695">
        <ele>83.6</ele>
        <time>2016-04-18T11:41:32Z</time>
      </trkpt>
      <trkpt lat="39.480329" lon="3.141691">
        <ele>84</ele>
        <time>2016-04-18T11:41:35Z</time>
      </trkpt>
      <trkpt lat="39.48026" lon="3.14169">
        <ele>84.4</ele>
        <time>2016-04-18T11:41:36Z</time>
      </trkpt>
      <trkpt lat="39.480193" lon="3.141684">
        <ele>84.8</ele>
        <time>2016-04-18T11:41:37Z</time>
      </trkpt>
      <trkpt lat="39.480127" lon="3.141679">
        <ele>85.2</ele>
        <time>2016-04-18T11:41:38Z</time>
      </trkpt>
      <trkpt lat="39.48006" lon="3.141672">
        <ele>85.6</ele>
        <time>2016-04-18T11:41:39Z</time>
      </trkpt>
      <trkpt lat="39.479993" lon="3.141659">
        <ele>85.6</ele>
        <time>2016-04-18T11:41:40Z</time>
      </trkpt>
      <trkpt lat="39.479447" lon="3.141612">
        <ele>85.6</ele>
        <time>2016-04-18T11:41:48Z</time>
      </trkpt>
      <trkpt lat="39.479166" lon="3.141621">
        <ele>86</ele>
        <time>2016-04-18T11:41:52Z</time>
      </trkpt>
      <trkpt lat="39.479099" lon="3.141633">
        <ele>86.4</ele>
        <time>2016-04-18T11:41:53Z</time>
      </trkpt>
      <trkpt lat="39.479031" lon="3.14165">
        <ele>86.8</ele>
        <time>2016-04-18T11:41:54Z</time>
      </trkpt>
      <trkpt lat="39.478964" lon="3.141666">
        <ele>87.2</ele>
        <time>2016-04-18T11:41:55Z</time>
      </trkpt>
      <trkpt lat="39.478898" lon="3.141685">
        <ele>87.6</ele>
        <time>2016-04-18T11:41:56Z</time>
      </trkpt>
      <trkpt lat="39.478413" lon="3.14183">
        <ele>87.6</ele>
        <time>2016-04-18T11:42:03Z</time>
      </trkpt>
      <trkpt lat="39.478347" lon="3.141849">
        <ele>87.6</ele>
        <time>2016-04-18T11:42:04Z</time>
      </trkpt>
      <trkpt lat="39.478078" lon="3.141941">
        <ele>87.6</ele>
        <time>2016-04-18T11:42:08Z</time>
      </trkpt>
      <trkpt lat="39.477528" lon="3.142114">
        <ele>87.6</ele>
        <time>2016-04-18T11:42:16Z</time>
      </trkpt>
      <trkpt lat="39.477075" lon="3.14227">
        <ele>87.6</ele>
        <time>2016-04-18T11:42:23Z</time>
      </trkpt>
      <trkpt lat="39.476587" lon="3.142491">
        <ele>87.6</ele>
        <time>2016-04-18T11:42:31Z</time>
      </trkpt>
      <trkpt lat="39.476143" lon="3.142719">
        <ele>87.6</ele>
        <time>2016-04-18T11:42:38Z</time>
      </trkpt>
      <trkpt lat="39.475674" lon="3.142959">
        <ele>87.6</ele>
        <time>2016-04-18T11:42:45Z</time>
      </trkpt>
      <trkpt lat="39.475507" lon="3.143031">
        <ele>88.4</ele>
        <time>2016-04-18T11:42:48Z</time>
      </trkpt>
      <trkpt lat="39.475453" lon="3.143023">
        <ele>89</ele>
        <time>2016-04-18T11:42:49Z</time>
      </trkpt>
      <trkpt lat="39.4754" lon="3.143014">
        <ele>89.4</ele>
        <time>2016-04-18T11:42:50Z</time>
      </trkpt>
      <trkpt lat="39.475351" lon="3.143015">
        <ele>89.8</ele>
        <time>2016-04-18T11:42:51Z</time>
      </trkpt>
      <trkpt lat="39.475267" lon="3.14308">
        <ele>89.8</ele>
        <time>2016-04-18T11:42:53Z</time>
      </trkpt>
      <trkpt lat="39.475257" lon="3.143207">
        <ele>89.8</ele>
        <time>2016-04-18T11:42:55Z</time>
      </trkpt>
      <trkpt lat="39.475347" lon="3.143364">
        <ele>89.8</ele>
        <time>2016-04-18T11:42:58Z</time>
      </trkpt>
      <trkpt lat="39.475398" lon="3.143471">
        <ele>89.8</ele>
        <time>2016-04-18T11:43:00Z</time>
      </trkpt>
      <trkpt lat="39.475441" lon="3.143593">
        <ele>89.8</ele>
        <time>2016-04-18T11:43:02Z</time>
      </trkpt>
      <trkpt lat="39.475456" lon="3.143647">
        <ele>89.8</ele>
        <time>2016-04-18T11:43:03Z</time>
      </trkpt>
      <trkpt lat="39.475496" lon="3.143812">
        <ele>89.8</ele>
        <time>2016-04-18T11:43:06Z</time>
      </trkpt>
      <trkpt lat="39.475525" lon="3.14392">
        <ele>89.8</ele>
        <time>2016-04-18T11:43:08Z</time>
      </trkpt>
      <trkpt lat="39.475658" lon="3.144323">
        <ele>89.8</ele>
        <time>2016-04-18T11:43:15Z</time>
      </trkpt>
      <trkpt lat="39.475674" lon="3.144387">
        <ele>89.8</ele>
        <time>2016-04-18T11:43:16Z</time>
      </trkpt>
      <trkpt lat="39.475705" lon="3.144506">
        <ele>89.8</ele>
        <time>2016-04-18T11:43:18Z</time>
      </trkpt>
      <trkpt lat="39.475723" lon="3.144563">
        <ele>90.2</ele>
        <time>2016-04-18T11:43:19Z</time>
      </trkpt>
      <trkpt lat="39.475744" lon="3.14462">
        <ele>90.6</ele>
        <time>2016-04-18T11:43:20Z</time>
      </trkpt>
      <trkpt lat="39.475762" lon="3.144678">
        <ele>91</ele>
        <time>2016-04-18T11:43:21Z</time>
      </trkpt>
      <trkpt lat="39.475785" lon="3.144736">
        <ele>91.4</ele>
        <time>2016-04-18T11:43:22Z</time>
      </trkpt>
      <trkpt lat="39.475803" lon="3.144792">
        <ele>91.8</ele>
        <time>2016-04-18T11:43:23Z</time>
      </trkpt>
      <trkpt lat="39.475872" lon="3.145006">
        <ele>91.8</ele>
        <time>2016-04-18T11:43:27Z</time>
      </trkpt>
      <trkpt lat="39.475888" lon="3.14506">
        <ele>91.8</ele>
        <time>2016-04-18T11:43:28Z</time>
      </trkpt>
      <trkpt lat="39.475949" lon="3.14523">
        <ele>92.2</ele>
        <time>2016-04-18T11:43:31Z</time>
      </trkpt>
      <trkpt lat="39.475968" lon="3.145284">
        <ele>92.6</ele>
        <time>2016-04-18T11:43:32Z</time>
      </trkpt>
      <trkpt lat="39.475988" lon="3.145336">
        <ele>93</ele>
        <time>2016-04-18T11:43:33Z</time>
      </trkpt>
      <trkpt lat="39.476005" lon="3.145387">
        <ele>93.4</ele>
        <time>2016-04-18T11:43:34Z</time>
      </trkpt>
      <trkpt lat="39.476023" lon="3.145438">
        <ele>93.8</ele>
        <time>2016-04-18T11:43:35Z</time>
      </trkpt>
      <trkpt lat="39.4761" lon="3.145653">
        <ele>94.4</ele>
        <time>2016-04-18T11:43:39Z</time>
      </trkpt>
      <trkpt lat="39.476113" lon="3.14571">
        <ele>94.8</ele>
        <time>2016-04-18T11:43:40Z</time>
      </trkpt>
      <trkpt lat="39.476132" lon="3.145768">
        <ele>95.2</ele>
        <time>2016-04-18T11:43:41Z</time>
      </trkpt>
      <trkpt lat="39.476149" lon="3.145826">
        <ele>95.6</ele>
        <time>2016-04-18T11:43:42Z</time>
      </trkpt>
      <trkpt lat="39.476167" lon="3.145885">
        <ele>96</ele>
        <time>2016-04-18T11:43:43Z</time>
      </trkpt>
      <trkpt lat="39.476234" lon="3.146074">
        <ele>96</ele>
        <time>2016-04-18T11:43:46Z</time>
      </trkpt>
      <trkpt lat="39.476275" lon="3.146201">
        <ele>96</ele>
        <time>2016-04-18T11:43:48Z</time>
      </trkpt>
      <trkpt lat="39.476337" lon="3.146395">
        <ele>96</ele>
        <time>2016-04-18T11:43:51Z</time>
      </trkpt>
      <trkpt lat="39.47642" lon="3.146657">
        <ele>96</ele>
        <time>2016-04-18T11:43:55Z</time>
      </trkpt>
      <trkpt lat="39.476569" lon="3.147137">
        <ele>96</ele>
        <time>2016-04-18T11:44:03Z</time>
      </trkpt>
      <trkpt lat="39.476694" lon="3.147536">
        <ele>96</ele>
        <time>2016-04-18T11:44:10Z</time>
      </trkpt>
      <trkpt lat="39.476709" lon="3.147593">
        <ele>96.4</ele>
        <time>2016-04-18T11:44:11Z</time>
      </trkpt>
      <trkpt lat="39.476726" lon="3.147649">
        <ele>97</ele>
        <time>2016-04-18T11:44:12Z</time>
      </trkpt>
      <trkpt lat="39.476741" lon="3.147705">
        <ele>97.4</ele>
        <time>2016-04-18T11:44:13Z</time>
      </trkpt>
      <trkpt lat="39.476755" lon="3.147764">
        <ele>97.8</ele>
        <time>2016-04-18T11:44:14Z</time>
      </trkpt>
      <trkpt lat="39.47677" lon="3.147821">
        <ele>98.4</ele>
        <time>2016-04-18T11:44:15Z</time>
      </trkpt>
      <trkpt lat="39.476768" lon="3.14788">
        <ele>98.4</ele>
        <time>2016-04-18T11:44:16Z</time>
      </trkpt>
      <trkpt lat="39.476747" lon="3.147931">
        <ele>98.4</ele>
        <time>2016-04-18T11:44:17Z</time>
      </trkpt>
      <trkpt lat="39.476661" lon="3.14813">
        <ele>98.8</ele>
        <time>2016-04-18T11:44:21Z</time>
      </trkpt>
      <trkpt lat="39.47664" lon="3.148181">
        <ele>99.2</ele>
        <time>2016-04-18T11:44:22Z</time>
      </trkpt>
      <trkpt lat="39.476621" lon="3.148234">
        <ele>99.6</ele>
        <time>2016-04-18T11:44:23Z</time>
      </trkpt>
      <trkpt lat="39.4766" lon="3.148288">
        <ele>100</ele>
        <time>2016-04-18T11:44:24Z</time>
      </trkpt>
      <trkpt lat="39.476577" lon="3.148341">
        <ele>100.6</ele>
        <time>2016-04-18T11:44:25Z</time>
      </trkpt>
      <trkpt lat="39.476411" lon="3.148742">
        <ele>100.6</ele>
        <time>2016-04-18T11:44:32Z</time>
      </trkpt>
      <trkpt lat="39.476274" lon="3.149094">
        <ele>100.6</ele>
        <time>2016-04-18T11:44:38Z</time>
      </trkpt>
      <trkpt lat="39.476116" lon="3.149486">
        <ele>101</ele>
        <time>2016-04-18T11:44:45Z</time>
      </trkpt>
      <trkpt lat="39.476095" lon="3.149535">
        <ele>101.4</ele>
        <time>2016-04-18T11:44:46Z</time>
      </trkpt>
      <trkpt lat="39.476072" lon="3.14958">
        <ele>101.8</ele>
        <time>2016-04-18T11:44:47Z</time>
      </trkpt>
      <trkpt lat="39.476052" lon="3.149631">
        <ele>102.2</ele>
        <time>2016-04-18T11:44:48Z</time>
      </trkpt>
      <trkpt lat="39.476032" lon="3.149682">
        <ele>102.6</ele>
        <time>2016-04-18T11:44:49Z</time>
      </trkpt>
      <trkpt lat="39.475971" lon="3.149828">
        <ele>103</ele>
        <time>2016-04-18T11:44:52Z</time>
      </trkpt>
      <trkpt lat="39.475947" lon="3.149882">
        <ele>103.6</ele>
        <time>2016-04-18T11:44:53Z</time>
      </trkpt>
      <trkpt lat="39.475926" lon="3.149934">
        <ele>104</ele>
        <time>2016-04-18T11:44:54Z</time>
      </trkpt>
      <trkpt lat="39.475905" lon="3.149983">
        <ele>104.4</ele>
        <time>2016-04-18T11:44:55Z</time>
      </trkpt>
      <trkpt lat="39.475875" lon="3.150023">
        <ele>104.8</ele>
        <time>2016-04-18T11:44:56Z</time>
      </trkpt>
      <trkpt lat="39.475759" lon="3.150112">
        <ele>104.8</ele>
        <time>2016-04-18T11:44:59Z</time>
      </trkpt>
      <trkpt lat="39.475598" lon="3.15025">
        <ele>104.8</ele>
        <time>2016-04-18T11:45:03Z</time>
      </trkpt>
      <trkpt lat="39.475472" lon="3.150356">
        <ele>104.8</ele>
        <time>2016-04-18T11:45:06Z</time>
      </trkpt>
      <trkpt lat="39.47531" lon="3.150529">
        <ele>104.8</ele>
        <time>2016-04-18T11:45:10Z</time>
      </trkpt>
      <trkpt lat="39.475276" lon="3.150656">
        <ele>104.8</ele>
        <time>2016-04-18T11:45:12Z</time>
      </trkpt>
      <trkpt lat="39.475305" lon="3.150852">
        <ele>104.8</ele>
        <time>2016-04-18T11:45:15Z</time>
      </trkpt>
      <trkpt lat="39.475389" lon="3.151015">
        <ele>105.2</ele>
        <time>2016-04-18T11:45:18Z</time>
      </trkpt>
      <trkpt lat="39.475414" lon="3.151071">
        <ele>105.6</ele>
        <time>2016-04-18T11:45:19Z</time>
      </trkpt>
      <trkpt lat="39.475441" lon="3.151126">
        <ele>106</ele>
        <time>2016-04-18T11:45:20Z</time>
      </trkpt>
      <trkpt lat="39.475466" lon="3.151185">
        <ele>106.4</ele>
        <time>2016-04-18T11:45:21Z</time>
      </trkpt>
      <trkpt lat="39.475494" lon="3.151243">
        <ele>106.8</ele>
        <time>2016-04-18T11:45:22Z</time>
      </trkpt>
      <trkpt lat="39.475547" lon="3.151363">
        <ele>107.2</ele>
        <time>2016-04-18T11:45:24Z</time>
      </trkpt>
      <trkpt lat="39.475573" lon="3.151423">
        <ele>107.6</ele>
        <time>2016-04-18T11:45:25Z</time>
      </trkpt>
      <trkpt lat="39.475597" lon="3.151481">
        <ele>108</ele>
        <time>2016-04-18T11:45:26Z</time>
      </trkpt>
      <trkpt lat="39.475622" lon="3.15154">
        <ele>108.4</ele>
        <time>2016-04-18T11:45:27Z</time>
      </trkpt>
      <trkpt lat="39.475647" lon="3.1516">
        <ele>108.8</ele>
        <time>2016-04-18T11:45:28Z</time>
      </trkpt>
      <trkpt lat="39.475656" lon="3.151734">
        <ele>108.8</ele>
        <time>2016-04-18T11:45:30Z</time>
      </trkpt>
      <trkpt lat="39.475649" lon="3.151799">
        <ele>108.8</ele>
        <time>2016-04-18T11:45:31Z</time>
      </trkpt>
      <trkpt lat="39.475591" lon="3.151972">
        <ele>108.8</ele>
        <time>2016-04-18T11:45:34Z</time>
      </trkpt>
      <trkpt lat="39.475548" lon="3.152008">
        <ele>108.8</ele>
        <time>2016-04-18T11:45:35Z</time>
      </trkpt>
      <trkpt lat="39.475324" lon="3.152192">
        <ele>108.8</ele>
        <time>2016-04-18T11:45:40Z</time>
      </trkpt>
      <trkpt lat="39.475285" lon="3.152242">
        <ele>108.8</ele>
        <time>2016-04-18T11:45:41Z</time>
      </trkpt>
      <trkpt lat="39.475194" lon="3.152312">
        <ele>108.4</ele>
        <time>2016-04-18T11:45:43Z</time>
      </trkpt>
      <trkpt lat="39.475146" lon="3.152347">
        <ele>108</ele>
        <time>2016-04-18T11:45:44Z</time>
      </trkpt>
      <trkpt lat="39.475096" lon="3.152382">
        <ele>107.6</ele>
        <time>2016-04-18T11:45:45Z</time>
      </trkpt>
      <trkpt lat="39.475054" lon="3.152409">
        <ele>107.2</ele>
        <time>2016-04-18T11:45:46Z</time>
      </trkpt>
      <trkpt lat="39.475006" lon="3.152413">
        <ele>106.8</ele>
        <time>2016-04-18T11:45:47Z</time>
      </trkpt>
      <trkpt lat="39.474954" lon="3.152414">
        <ele>106.8</ele>
        <time>2016-04-18T11:45:48Z</time>
      </trkpt>
      <trkpt lat="39.4748" lon="3.152422">
        <ele>106.8</ele>
        <time>2016-04-18T11:45:51Z</time>
      </trkpt>
      <trkpt lat="39.47476" lon="3.152454">
        <ele>106.8</ele>
        <time>2016-04-18T11:45:52Z</time>
      </trkpt>
      <trkpt lat="39.474714" lon="3.152632">
        <ele>106.8</ele>
        <time>2016-04-18T11:45:55Z</time>
      </trkpt>
      <trkpt lat="39.474818" lon="3.152802">
        <ele>106.8</ele>
        <time>2016-04-18T11:45:58Z</time>
      </trkpt>
      <trkpt lat="39.474973" lon="3.152908">
        <ele>106.8</ele>
        <time>2016-04-18T11:46:01Z</time>
      </trkpt>
      <trkpt lat="39.475052" lon="3.153069">
        <ele>107.2</ele>
        <time>2016-04-18T11:46:04Z</time>
      </trkpt>
      <trkpt lat="39.47508" lon="3.153125">
        <ele>107.6</ele>
        <time>2016-04-18T11:46:05Z</time>
      </trkpt>
      <trkpt lat="39.475103" lon="3.153182">
        <ele>108</ele>
        <time>2016-04-18T11:46:06Z</time>
      </trkpt>
      <trkpt lat="39.475128" lon="3.153238">
        <ele>108.4</ele>
        <time>2016-04-18T11:46:07Z</time>
      </trkpt>
      <trkpt lat="39.475149" lon="3.153287">
        <ele>108.8</ele>
        <time>2016-04-18T11:46:08Z</time>
      </trkpt>
      <trkpt lat="39.475207" lon="3.153397">
        <ele>108.8</ele>
        <time>2016-04-18T11:46:10Z</time>
      </trkpt>
      <trkpt lat="39.475399" lon="3.153787">
        <ele>108.8</ele>
        <time>2016-04-18T11:46:16Z</time>
      </trkpt>
      <trkpt lat="39.475563" lon="3.154162">
        <ele>108.8</ele>
        <time>2016-04-18T11:46:22Z</time>
      </trkpt>
      <trkpt lat="39.475595" lon="3.154219">
        <ele>108.8</ele>
        <time>2016-04-18T11:46:23Z</time>
      </trkpt>
      <trkpt lat="39.475717" lon="3.154455">
        <ele>108.8</ele>
        <time>2016-04-18T11:46:27Z</time>
      </trkpt>
      <trkpt lat="39.475744" lon="3.154517">
        <ele>109.2</ele>
        <time>2016-04-18T11:46:28Z</time>
      </trkpt>
      <trkpt lat="39.475774" lon="3.154574">
        <ele>109.8</ele>
        <time>2016-04-18T11:46:29Z</time>
      </trkpt>
      <trkpt lat="39.475803" lon="3.154638">
        <ele>110.2</ele>
        <time>2016-04-18T11:46:30Z</time>
      </trkpt>
      <trkpt lat="39.475836" lon="3.154696">
        <ele>110.6</ele>
        <time>2016-04-18T11:46:31Z</time>
      </trkpt>
      <trkpt lat="39.475866" lon="3.154759">
        <ele>111</ele>
        <time>2016-04-18T11:46:32Z</time>
      </trkpt>
      <trkpt lat="39.475932" lon="3.154891">
        <ele>111</ele>
        <time>2016-04-18T11:46:34Z</time>
      </trkpt>
      <trkpt lat="39.476163" lon="3.155378">
        <ele>111</ele>
        <time>2016-04-18T11:46:42Z</time>
      </trkpt>
      <trkpt lat="39.476284" lon="3.155619">
        <ele>111</ele>
        <time>2016-04-18T11:46:46Z</time>
      </trkpt>
      <trkpt lat="39.476332" lon="3.155756">
        <ele>111</ele>
        <time>2016-04-18T11:46:48Z</time>
      </trkpt>
      <trkpt lat="39.476341" lon="3.155827">
        <ele>111</ele>
        <time>2016-04-18T11:46:49Z</time>
      </trkpt>
      <trkpt lat="39.476338" lon="3.155906">
        <ele>110.6</ele>
        <time>2016-04-18T11:46:50Z</time>
      </trkpt>
      <trkpt lat="39.476334" lon="3.155983">
        <ele>110</ele>
        <time>2016-04-18T11:46:51Z</time>
      </trkpt>
      <trkpt lat="39.476318" lon="3.156063">
        <ele>109.6</ele>
        <time>2016-04-18T11:46:52Z</time>
      </trkpt>
      <trkpt lat="39.476296" lon="3.156144">
        <ele>109.2</ele>
        <time>2016-04-18T11:46:53Z</time>
      </trkpt>
      <trkpt lat="39.476268" lon="3.156216">
        <ele>108.8</ele>
        <time>2016-04-18T11:46:54Z</time>
      </trkpt>
      <trkpt lat="39.476144" lon="3.156389">
        <ele>108.8</ele>
        <time>2016-04-18T11:46:57Z</time>
      </trkpt>
      <trkpt lat="39.475995" lon="3.156509">
        <ele>109.2</ele>
        <time>2016-04-18T11:47:00Z</time>
      </trkpt>
      <trkpt lat="39.475947" lon="3.156558">
        <ele>109.6</ele>
        <time>2016-04-18T11:47:01Z</time>
      </trkpt>
      <trkpt lat="39.4759" lon="3.156598">
        <ele>110</ele>
        <time>2016-04-18T11:47:02Z</time>
      </trkpt>
      <trkpt lat="39.475855" lon="3.156639">
        <ele>110.4</ele>
        <time>2016-04-18T11:47:03Z</time>
      </trkpt>
      <trkpt lat="39.475806" lon="3.15668">
        <ele>110.8</ele>
        <time>2016-04-18T11:47:04Z</time>
      </trkpt>
      <trkpt lat="39.47563" lon="3.15684">
        <ele>110.8</ele>
        <time>2016-04-18T11:47:08Z</time>
      </trkpt>
      <trkpt lat="39.475585" lon="3.156878">
        <ele>110.8</ele>
        <time>2016-04-18T11:47:09Z</time>
      </trkpt>
      <trkpt lat="39.475421" lon="3.157029">
        <ele>110.8</ele>
        <time>2016-04-18T11:47:13Z</time>
      </trkpt>
      <trkpt lat="39.47538" lon="3.157067">
        <ele>111.2</ele>
        <time>2016-04-18T11:47:14Z</time>
      </trkpt>
      <trkpt lat="39.475334" lon="3.157103">
        <ele>111.8</ele>
        <time>2016-04-18T11:47:15Z</time>
      </trkpt>
      <trkpt lat="39.475291" lon="3.157138">
        <ele>112.2</ele>
        <time>2016-04-18T11:47:16Z</time>
      </trkpt>
      <trkpt lat="39.475251" lon="3.157175">
        <ele>112.6</ele>
        <time>2016-04-18T11:47:17Z</time>
      </trkpt>
      <trkpt lat="39.475209" lon="3.157209">
        <ele>113</ele>
        <time>2016-04-18T11:47:18Z</time>
      </trkpt>
      <trkpt lat="39.474975" lon="3.157415">
        <ele>113.4</ele>
        <time>2016-04-18T11:47:24Z</time>
      </trkpt>
      <trkpt lat="39.474937" lon="3.15745">
        <ele>113.8</ele>
        <time>2016-04-18T11:47:25Z</time>
      </trkpt>
      <trkpt lat="39.474899" lon="3.157484">
        <ele>114.2</ele>
        <time>2016-04-18T11:47:26Z</time>
      </trkpt>
      <trkpt lat="39.474861" lon="3.157516">
        <ele>114.6</ele>
        <time>2016-04-18T11:47:27Z</time>
      </trkpt>
      <trkpt lat="39.474821" lon="3.157551">
        <ele>115</ele>
        <time>2016-04-18T11:47:28Z</time>
      </trkpt>
      <trkpt lat="39.474633" lon="3.157719">
        <ele>115</ele>
        <time>2016-04-18T11:47:33Z</time>
      </trkpt>
      <trkpt lat="39.474559" lon="3.157784">
        <ele>115.4</ele>
        <time>2016-04-18T11:47:35Z</time>
      </trkpt>
      <trkpt lat="39.474519" lon="3.157817">
        <ele>115.8</ele>
        <time>2016-04-18T11:47:36Z</time>
      </trkpt>
      <trkpt lat="39.47448" lon="3.157857">
        <ele>116.4</ele>
        <time>2016-04-18T11:47:37Z</time>
      </trkpt>
      <trkpt lat="39.47444" lon="3.15789">
        <ele>116.8</ele>
        <time>2016-04-18T11:47:38Z</time>
      </trkpt>
      <trkpt lat="39.474401" lon="3.157926">
        <ele>117.2</ele>
        <time>2016-04-18T11:47:39Z</time>
      </trkpt>
      <trkpt lat="39.474322" lon="3.157993">
        <ele>117.2</ele>
        <time>2016-04-18T11:47:41Z</time>
      </trkpt>
      <trkpt lat="39.474245" lon="3.158063">
        <ele>117.6</ele>
        <time>2016-04-18T11:47:43Z</time>
      </trkpt>
      <trkpt lat="39.474203" lon="3.158097">
        <ele>118.2</ele>
        <time>2016-04-18T11:47:44Z</time>
      </trkpt>
      <trkpt lat="39.474162" lon="3.15813">
        <ele>118.6</ele>
        <time>2016-04-18T11:47:45Z</time>
      </trkpt>
      <trkpt lat="39.474124" lon="3.158167">
        <ele>119</ele>
        <time>2016-04-18T11:47:46Z</time>
      </trkpt>
      <trkpt lat="39.474084" lon="3.158203">
        <ele>119.6</ele>
        <time>2016-04-18T11:47:47Z</time>
      </trkpt>
      <trkpt lat="39.474001" lon="3.158278">
        <ele>119.6</ele>
        <time>2016-04-18T11:47:49Z</time>
      </trkpt>
      <trkpt lat="39.473746" lon="3.158462">
        <ele>119.6</ele>
        <time>2016-04-18T11:47:55Z</time>
      </trkpt>
      <trkpt lat="39.473697" lon="3.158456">
        <ele>119.6</ele>
        <time>2016-04-18T11:47:56Z</time>
      </trkpt>
      <trkpt lat="39.473649" lon="3.15844">
        <ele>120</ele>
        <time>2016-04-18T11:47:57Z</time>
      </trkpt>
      <trkpt lat="39.473605" lon="3.15842">
        <ele>120.4</ele>
        <time>2016-04-18T11:47:58Z</time>
      </trkpt>
      <trkpt lat="39.473558" lon="3.158404">
        <ele>120.8</ele>
        <time>2016-04-18T11:47:59Z</time>
      </trkpt>
      <trkpt lat="39.473506" lon="3.158395">
        <ele>121.2</ele>
        <time>2016-04-18T11:48:00Z</time>
      </trkpt>
      <trkpt lat="39.473455" lon="3.158407">
        <ele>121.8</ele>
        <time>2016-04-18T11:48:01Z</time>
      </trkpt>
      <trkpt lat="39.473369" lon="3.158469">
        <ele>121.8</ele>
        <time>2016-04-18T11:48:03Z</time>
      </trkpt>
      <trkpt lat="39.473305" lon="3.158643">
        <ele>121.8</ele>
        <time>2016-04-18T11:48:06Z</time>
      </trkpt>
      <trkpt lat="39.473287" lon="3.158781">
        <ele>121.8</ele>
        <time>2016-04-18T11:48:08Z</time>
      </trkpt>
      <trkpt lat="39.473238" lon="3.159003">
        <ele>121.8</ele>
        <time>2016-04-18T11:48:11Z</time>
      </trkpt>
      <trkpt lat="39.473198" lon="3.159196">
        <ele>121.8</ele>
        <time>2016-04-18T11:48:14Z</time>
      </trkpt>
      <trkpt lat="39.473177" lon="3.159317">
        <ele>121.8</ele>
        <time>2016-04-18T11:48:16Z</time>
      </trkpt>
      <trkpt lat="39.473066" lon="3.159774">
        <ele>121.8</ele>
        <time>2016-04-18T11:48:23Z</time>
      </trkpt>
      <trkpt lat="39.473049" lon="3.159841">
        <ele>121.8</ele>
        <time>2016-04-18T11:48:24Z</time>
      </trkpt>
      <trkpt lat="39.472967" lon="3.160182">
        <ele>121.8</ele>
        <time>2016-04-18T11:48:29Z</time>
      </trkpt>
      <trkpt lat="39.472919" lon="3.160392">
        <ele>121.8</ele>
        <time>2016-04-18T11:48:32Z</time>
      </trkpt>
      <trkpt lat="39.472797" lon="3.160907">
        <ele>121.8</ele>
        <time>2016-04-18T11:48:39Z</time>
      </trkpt>
      <trkpt lat="39.472683" lon="3.161362">
        <ele>121.8</ele>
        <time>2016-04-18T11:48:45Z</time>
      </trkpt>
      <trkpt lat="39.472594" lon="3.161731">
        <ele>121.8</ele>
        <time>2016-04-18T11:48:50Z</time>
      </trkpt>
      <trkpt lat="39.472555" lon="3.161879">
        <ele>121.8</ele>
        <time>2016-04-18T11:48:52Z</time>
      </trkpt>
      <trkpt lat="39.472409" lon="3.162504">
        <ele>121.8</ele>
        <time>2016-04-18T11:49:00Z</time>
      </trkpt>
      <trkpt lat="39.472245" lon="3.16318">
        <ele>121.8</ele>
        <time>2016-04-18T11:49:08Z</time>
      </trkpt>
      <trkpt lat="39.472082" lon="3.163882">
        <ele>121.8</ele>
        <time>2016-04-18T11:49:17Z</time>
      </trkpt>
      <trkpt lat="39.472045" lon="3.164031">
        <ele>121.8</ele>
        <time>2016-04-18T11:49:19Z</time>
      </trkpt>
      <trkpt lat="39.47196" lon="3.164375">
        <ele>122.2</ele>
        <time>2016-04-18T11:49:24Z</time>
      </trkpt>
      <trkpt lat="39.471945" lon="3.164442">
        <ele>122.6</ele>
        <time>2016-04-18T11:49:25Z</time>
      </trkpt>
      <trkpt lat="39.471928" lon="3.16451">
        <ele>123</ele>
        <time>2016-04-18T11:49:26Z</time>
      </trkpt>
      <trkpt lat="39.471913" lon="3.164577">
        <ele>123.4</ele>
        <time>2016-04-18T11:49:27Z</time>
      </trkpt>
      <trkpt lat="39.471898" lon="3.164644">
        <ele>123.8</ele>
        <time>2016-04-18T11:49:28Z</time>
      </trkpt>
      <trkpt lat="39.47178" lon="3.165114">
        <ele>123.8</ele>
        <time>2016-04-18T11:49:35Z</time>
      </trkpt>
      <trkpt lat="39.471684" lon="3.165517">
        <ele>124.4</ele>
        <time>2016-04-18T11:49:41Z</time>
      </trkpt>
      <trkpt lat="39.471667" lon="3.165585">
        <ele>124.8</ele>
        <time>2016-04-18T11:49:42Z</time>
      </trkpt>
      <trkpt lat="39.471652" lon="3.165647">
        <ele>125.2</ele>
        <time>2016-04-18T11:49:43Z</time>
      </trkpt>
      <trkpt lat="39.471636" lon="3.165709">
        <ele>125.8</ele>
        <time>2016-04-18T11:49:44Z</time>
      </trkpt>
      <trkpt lat="39.471621" lon="3.165774">
        <ele>126.2</ele>
        <time>2016-04-18T11:49:45Z</time>
      </trkpt>
      <trkpt lat="39.471514" lon="3.166233">
        <ele>126.2</ele>
        <time>2016-04-18T11:49:52Z</time>
      </trkpt>
      <trkpt lat="39.471465" lon="3.166426">
        <ele>126.6</ele>
        <time>2016-04-18T11:49:55Z</time>
      </trkpt>
      <trkpt lat="39.47145" lon="3.166488">
        <ele>127</ele>
        <time>2016-04-18T11:49:56Z</time>
      </trkpt>
      <trkpt lat="39.47143" lon="3.166551">
        <ele>127.4</ele>
        <time>2016-04-18T11:49:57Z</time>
      </trkpt>
      <trkpt lat="39.471418" lon="3.166614">
        <ele>127.8</ele>
        <time>2016-04-18T11:49:58Z</time>
      </trkpt>
      <trkpt lat="39.471402" lon="3.166678">
        <ele>128.4</ele>
        <time>2016-04-18T11:49:59Z</time>
      </trkpt>
      <trkpt lat="39.471388" lon="3.166737">
        <ele>128.4</ele>
        <time>2016-04-18T11:50:00Z</time>
      </trkpt>
      <trkpt lat="39.47127" lon="3.167213">
        <ele>128.8</ele>
        <time>2016-04-18T11:50:08Z</time>
      </trkpt>
      <trkpt lat="39.471255" lon="3.167274">
        <ele>129.4</ele>
        <time>2016-04-18T11:50:09Z</time>
      </trkpt>
      <trkpt lat="39.471241" lon="3.167332">
        <ele>129.8</ele>
        <time>2016-04-18T11:50:10Z</time>
      </trkpt>
      <trkpt lat="39.471228" lon="3.167393">
        <ele>130.8</ele>
        <time>2016-04-18T11:50:11Z</time>
      </trkpt>
      <trkpt lat="39.47113" lon="3.167803">
        <ele>130.8</ele>
        <time>2016-04-18T11:50:18Z</time>
      </trkpt>
      <trkpt lat="39.471103" lon="3.167914">
        <ele>131.2</ele>
        <time>2016-04-18T11:50:20Z</time>
      </trkpt>
      <trkpt lat="39.471089" lon="3.167967">
        <ele>131.6</ele>
        <time>2016-04-18T11:50:21Z</time>
      </trkpt>
      <trkpt lat="39.471078" lon="3.168017">
        <ele>132</ele>
        <time>2016-04-18T11:50:22Z</time>
      </trkpt>
      <trkpt lat="39.471067" lon="3.168067">
        <ele>132.6</ele>
        <time>2016-04-18T11:50:23Z</time>
      </trkpt>
      <trkpt lat="39.471058" lon="3.168115">
        <ele>133</ele>
        <time>2016-04-18T11:50:24Z</time>
      </trkpt>
      <trkpt lat="39.471009" lon="3.168194">
        <ele>133</ele>
        <time>2016-04-18T11:50:26Z</time>
      </trkpt>
      <trkpt lat="39.47093" lon="3.168237">
        <ele>133.4</ele>
        <time>2016-04-18T11:50:29Z</time>
      </trkpt>
      <trkpt lat="39.470795" lon="3.168285">
        <ele>137.4</ele>
        <time>2016-04-18T11:54:56Z</time>
      </trkpt>
      <trkpt lat="39.470785" lon="3.168289">
        <ele>137.4</ele>
        <time>2016-04-18T11:54:57Z</time>
      </trkpt>
      <trkpt lat="39.470742" lon="3.168288">
        <ele>137.4</ele>
        <time>2016-04-18T11:54:59Z</time>
      </trkpt>
      <trkpt lat="39.47071" lon="3.168293">
        <ele>137.4</ele>
        <time>2016-04-18T11:55:00Z</time>
      </trkpt>
      <trkpt lat="39.470673" lon="3.168298">
        <ele>137.4</ele>
        <time>2016-04-18T11:55:01Z</time>
      </trkpt>
      <trkpt lat="39.470586" lon="3.168308">
        <ele>137.4</ele>
        <time>2016-04-18T11:55:03Z</time>
      </trkpt>
      <trkpt lat="39.470486" lon="3.168325">
        <ele>137.4</ele>
        <time>2016-04-18T11:55:05Z</time>
      </trkpt>
      <trkpt lat="39.47039" lon="3.168343">
        <ele>137.4</ele>
        <time>2016-04-18T11:55:07Z</time>
      </trkpt>
      <trkpt lat="39.470296" lon="3.168353">
        <ele>137.4</ele>
        <time>2016-04-18T11:55:09Z</time>
      </trkpt>
      <trkpt lat="39.470247" lon="3.168357">
        <ele>137.4</ele>
        <time>2016-04-18T11:55:10Z</time>
      </trkpt>
      <trkpt lat="39.470196" lon="3.168362">
        <ele>137.8</ele>
        <time>2016-04-18T11:55:11Z</time>
      </trkpt>
      <trkpt lat="39.470148" lon="3.168367">
        <ele>138.2</ele>
        <time>2016-04-18T11:55:12Z</time>
      </trkpt>
      <trkpt lat="39.470101" lon="3.168377">
        <ele>138.6</ele>
        <time>2016-04-18T11:55:13Z</time>
      </trkpt>
      <trkpt lat="39.470051" lon="3.168386">
        <ele>139</ele>
        <time>2016-04-18T11:55:14Z</time>
      </trkpt>
      <trkpt lat="39.470002" lon="3.168392">
        <ele>139.4</ele>
        <time>2016-04-18T11:55:15Z</time>
      </trkpt>
      <trkpt lat="39.469903" lon="3.168397">
        <ele>139.4</ele>
        <time>2016-04-18T11:55:17Z</time>
      </trkpt>
      <trkpt lat="39.469433" lon="3.168454">
        <ele>139.4</ele>
        <time>2016-04-18T11:55:26Z</time>
      </trkpt>
      <trkpt lat="39.469181" lon="3.168495">
        <ele>139.8</ele>
        <time>2016-04-18T11:55:31Z</time>
      </trkpt>
      <trkpt lat="39.469134" lon="3.168514">
        <ele>140.4</ele>
        <time>2016-04-18T11:55:32Z</time>
      </trkpt>
      <trkpt lat="39.469085" lon="3.168534">
        <ele>141.4</ele>
        <time>2016-04-18T11:55:33Z</time>
      </trkpt>
      <trkpt lat="39.469037" lon="3.168557">
        <ele>141.8</ele>
        <time>2016-04-18T11:55:34Z</time>
      </trkpt>
      <trkpt lat="39.468847" lon="3.16864">
        <ele>141.8</ele>
        <time>2016-04-18T11:55:38Z</time>
      </trkpt>
      <trkpt lat="39.468591" lon="3.168749">
        <ele>141.8</ele>
        <time>2016-04-18T11:55:43Z</time>
      </trkpt>
      <trkpt lat="39.468345" lon="3.168857">
        <ele>141.8</ele>
        <time>2016-04-18T11:55:48Z</time>
      </trkpt>
      <trkpt lat="39.468301" lon="3.168881">
        <ele>141.8</ele>
        <time>2016-04-18T11:55:49Z</time>
      </trkpt>
      <trkpt lat="39.468123" lon="3.16896">
        <ele>142.2</ele>
        <time>2016-04-18T11:55:53Z</time>
      </trkpt>
      <trkpt lat="39.468078" lon="3.168974">
        <ele>142.6</ele>
        <time>2016-04-18T11:55:54Z</time>
      </trkpt>
      <trkpt lat="39.468036" lon="3.16899">
        <ele>143.2</ele>
        <time>2016-04-18T11:55:55Z</time>
      </trkpt>
      <trkpt lat="39.467994" lon="3.169007">
        <ele>143.6</ele>
        <time>2016-04-18T11:55:56Z</time>
      </trkpt>
      <trkpt lat="39.46795" lon="3.169028">
        <ele>144</ele>
        <time>2016-04-18T11:55:57Z</time>
      </trkpt>
      <trkpt lat="39.467827" lon="3.169091">
        <ele>144</ele>
        <time>2016-04-18T11:56:00Z</time>
      </trkpt>
      <trkpt lat="39.467787" lon="3.169114">
        <ele>144.4</ele>
        <time>2016-04-18T11:56:01Z</time>
      </trkpt>
      <trkpt lat="39.467745" lon="3.169134">
        <ele>144.8</ele>
        <time>2016-04-18T11:56:02Z</time>
      </trkpt>
      <trkpt lat="39.467703" lon="3.169155">
        <ele>145.2</ele>
        <time>2016-04-18T11:56:03Z</time>
      </trkpt>
      <trkpt lat="39.467663" lon="3.16917">
        <ele>145.6</ele>
        <time>2016-04-18T11:56:04Z</time>
      </trkpt>
      <trkpt lat="39.467622" lon="3.169191">
        <ele>146</ele>
        <time>2016-04-18T11:56:05Z</time>
      </trkpt>
      <trkpt lat="39.467582" lon="3.16921">
        <ele>146</ele>
        <time>2016-04-18T11:56:06Z</time>
      </trkpt>
      <trkpt lat="39.467465" lon="3.169275">
        <ele>146.4</ele>
        <time>2016-04-18T11:56:09Z</time>
      </trkpt>
      <trkpt lat="39.467427" lon="3.169304">
        <ele>147</ele>
        <time>2016-04-18T11:56:10Z</time>
      </trkpt>
      <trkpt lat="39.467392" lon="3.16933">
        <ele>147.4</ele>
        <time>2016-04-18T11:56:11Z</time>
      </trkpt>
      <trkpt lat="39.467356" lon="3.16936">
        <ele>147.8</ele>
        <time>2016-04-18T11:56:12Z</time>
      </trkpt>
      <trkpt lat="39.467321" lon="3.169389">
        <ele>148.2</ele>
        <time>2016-04-18T11:56:13Z</time>
      </trkpt>
      <trkpt lat="39.467286" lon="3.169414">
        <ele>148.2</ele>
        <time>2016-04-18T11:56:14Z</time>
      </trkpt>
      <trkpt lat="39.467189" lon="3.1695">
        <ele>148.6</ele>
        <time>2016-04-18T11:56:17Z</time>
      </trkpt>
      <trkpt lat="39.467157" lon="3.169529">
        <ele>149.2</ele>
        <time>2016-04-18T11:56:18Z</time>
      </trkpt>
      <trkpt lat="39.467123" lon="3.169557">
        <ele>149.6</ele>
        <time>2016-04-18T11:56:19Z</time>
      </trkpt>
      <trkpt lat="39.467089" lon="3.169586">
        <ele>150</ele>
        <time>2016-04-18T11:56:20Z</time>
      </trkpt>
      <trkpt lat="39.467058" lon="3.169616">
        <ele>150.4</ele>
        <time>2016-04-18T11:56:21Z</time>
      </trkpt>
      <trkpt lat="39.466967" lon="3.169714">
        <ele>150.4</ele>
        <time>2016-04-18T11:56:24Z</time>
      </trkpt>
      <trkpt lat="39.466895" lon="3.169769">
        <ele>150.8</ele>
        <time>2016-04-18T11:56:26Z</time>
      </trkpt>
      <trkpt lat="39.466858" lon="3.1698">
        <ele>151.2</ele>
        <time>2016-04-18T11:56:27Z</time>
      </trkpt>
      <trkpt lat="39.466823" lon="3.169831">
        <ele>151.6</ele>
        <time>2016-04-18T11:56:28Z</time>
      </trkpt>
      <trkpt lat="39.466791" lon="3.169859">
        <ele>152</ele>
        <time>2016-04-18T11:56:29Z</time>
      </trkpt>
      <trkpt lat="39.466759" lon="3.169889">
        <ele>152.4</ele>
        <time>2016-04-18T11:56:30Z</time>
      </trkpt>
      <trkpt lat="39.466598" lon="3.170039">
        <ele>152.4</ele>
        <time>2016-04-18T11:56:35Z</time>
      </trkpt>
      <trkpt lat="39.466566" lon="3.17007">
        <ele>153</ele>
        <time>2016-04-18T11:56:36Z</time>
      </trkpt>
      <trkpt lat="39.466532" lon="3.170098">
        <ele>153.4</ele>
        <time>2016-04-18T11:56:37Z</time>
      </trkpt>
      <trkpt lat="39.466499" lon="3.170125">
        <ele>153.8</ele>
        <time>2016-04-18T11:56:38Z</time>
      </trkpt>
      <trkpt lat="39.466468" lon="3.170152">
        <ele>154.2</ele>
        <time>2016-04-18T11:56:39Z</time>
      </trkpt>
      <trkpt lat="39.466439" lon="3.170183">
        <ele>154.6</ele>
        <time>2016-04-18T11:56:40Z</time>
      </trkpt>
      <trkpt lat="39.466379" lon="3.170235">
        <ele>154.6</ele>
        <time>2016-04-18T11:56:42Z</time>
      </trkpt>
      <trkpt lat="39.466233" lon="3.170372">
        <ele>155.4</ele>
        <time>2016-04-18T11:56:47Z</time>
      </trkpt>
      <trkpt lat="39.466201" lon="3.170397">
        <ele>155.8</ele>
        <time>2016-04-18T11:56:48Z</time>
      </trkpt>
      <trkpt lat="39.46617" lon="3.170424">
        <ele>156.2</ele>
        <time>2016-04-18T11:56:49Z</time>
      </trkpt>
      <trkpt lat="39.466135" lon="3.170456">
        <ele>156.8</ele>
        <time>2016-04-18T11:56:50Z</time>
      </trkpt>
      <trkpt lat="39.465879" lon="3.17071">
        <ele>157.2</ele>
        <time>2016-04-18T11:56:58Z</time>
      </trkpt>
      <trkpt lat="39.465846" lon="3.170739">
        <ele>157.6</ele>
        <time>2016-04-18T11:56:59Z</time>
      </trkpt>
      <trkpt lat="39.465809" lon="3.170771">
        <ele>158</ele>
        <time>2016-04-18T11:57:00Z</time>
      </trkpt>
      <trkpt lat="39.465773" lon="3.170804">
        <ele>158.4</ele>
        <time>2016-04-18T11:57:01Z</time>
      </trkpt>
      <trkpt lat="39.46574" lon="3.170833">
        <ele>158.8</ele>
        <time>2016-04-18T11:57:02Z</time>
      </trkpt>
      <trkpt lat="39.465646" lon="3.170921">
        <ele>158.8</ele>
        <time>2016-04-18T11:57:05Z</time>
      </trkpt>
      <trkpt lat="39.465617" lon="3.170952">
        <ele>159.2</ele>
        <time>2016-04-18T11:57:06Z</time>
      </trkpt>
      <trkpt lat="39.465586" lon="3.170983">
        <ele>159.6</ele>
        <time>2016-04-18T11:57:07Z</time>
      </trkpt>
      <trkpt lat="39.465556" lon="3.171011">
        <ele>160.2</ele>
        <time>2016-04-18T11:57:08Z</time>
      </trkpt>
      <trkpt lat="39.465523" lon="3.171039">
        <ele>160.6</ele>
        <time>2016-04-18T11:57:09Z</time>
      </trkpt>
      <trkpt lat="39.465487" lon="3.171067">
        <ele>161</ele>
        <time>2016-04-18T11:57:10Z</time>
      </trkpt>
      <trkpt lat="39.465416" lon="3.171121">
        <ele>161</ele>
        <time>2016-04-18T11:57:12Z</time>
      </trkpt>
      <trkpt lat="39.465381" lon="3.171152">
        <ele>161.4</ele>
        <time>2016-04-18T11:57:13Z</time>
      </trkpt>
      <trkpt lat="39.465353" lon="3.171183">
        <ele>161.8</ele>
        <time>2016-04-18T11:57:14Z</time>
      </trkpt>
      <trkpt lat="39.465324" lon="3.171214">
        <ele>162.2</ele>
        <time>2016-04-18T11:57:15Z</time>
      </trkpt>
      <trkpt lat="39.465295" lon="3.171241">
        <ele>162.6</ele>
        <time>2016-04-18T11:57:16Z</time>
      </trkpt>
      <trkpt lat="39.465267" lon="3.171268">
        <ele>163.2</ele>
        <time>2016-04-18T11:57:17Z</time>
      </trkpt>
      <trkpt lat="39.465236" lon="3.171297">
        <ele>163.2</ele>
        <time>2016-04-18T11:57:18Z</time>
      </trkpt>
      <trkpt lat="39.465155" lon="3.171381">
        <ele>163.2</ele>
        <time>2016-04-18T11:57:21Z</time>
      </trkpt>
      <trkpt lat="39.465127" lon="3.171401">
        <ele>163.6</ele>
        <time>2016-04-18T11:57:22Z</time>
      </trkpt>
      <trkpt lat="39.465102" lon="3.171421">
        <ele>164</ele>
        <time>2016-04-18T11:57:23Z</time>
      </trkpt>
      <trkpt lat="39.465079" lon="3.171443">
        <ele>164.4</ele>
        <time>2016-04-18T11:57:24Z</time>
      </trkpt>
      <trkpt lat="39.465054" lon="3.171463">
        <ele>165</ele>
        <time>2016-04-18T11:57:25Z</time>
      </trkpt>
      <trkpt lat="39.465029" lon="3.171489">
        <ele>165.4</ele>
        <time>2016-04-18T11:57:26Z</time>
      </trkpt>
      <trkpt lat="39.46495" lon="3.171568">
        <ele>165.4</ele>
        <time>2016-04-18T11:57:29Z</time>
      </trkpt>
      <trkpt lat="39.464844" lon="3.171658">
        <ele>165.8</ele>
        <time>2016-04-18T11:57:33Z</time>
      </trkpt>
      <trkpt lat="39.46482" lon="3.171678">
        <ele>166.2</ele>
        <time>2016-04-18T11:57:34Z</time>
      </trkpt>
      <trkpt lat="39.464795" lon="3.1717">
        <ele>166.6</ele>
        <time>2016-04-18T11:57:35Z</time>
      </trkpt>
      <trkpt lat="39.464768" lon="3.171725">
        <ele>167.6</ele>
        <time>2016-04-18T11:57:36Z</time>
      </trkpt>
      <trkpt lat="39.464741" lon="3.171751">
        <ele>167.6</ele>
        <time>2016-04-18T11:57:37Z</time>
      </trkpt>
      <trkpt lat="39.464557" lon="3.171906">
        <ele>167.6</ele>
        <time>2016-04-18T11:57:43Z</time>
      </trkpt>
      <trkpt lat="39.464533" lon="3.17193">
        <ele>168</ele>
        <time>2016-04-18T11:57:44Z</time>
      </trkpt>
      <trkpt lat="39.464508" lon="3.171952">
        <ele>168.4</ele>
        <time>2016-04-18T11:57:45Z</time>
      </trkpt>
      <trkpt lat="39.464484" lon="3.171974">
        <ele>169</ele>
        <time>2016-04-18T11:57:46Z</time>
      </trkpt>
      <trkpt lat="39.464458" lon="3.171998">
        <ele>169.4</ele>
        <time>2016-04-18T11:57:47Z</time>
      </trkpt>
      <trkpt lat="39.464431" lon="3.172027">
        <ele>169.8</ele>
        <time>2016-04-18T11:57:48Z</time>
      </trkpt>
      <trkpt lat="39.464378" lon="3.172088">
        <ele>169.8</ele>
        <time>2016-04-18T11:57:50Z</time>
      </trkpt>
      <trkpt lat="39.464351" lon="3.172116">
        <ele>170.2</ele>
        <time>2016-04-18T11:57:51Z</time>
      </trkpt>
      <trkpt lat="39.464323" lon="3.172143">
        <ele>170.6</ele>
        <time>2016-04-18T11:57:52Z</time>
      </trkpt>
      <trkpt lat="39.464296" lon="3.172164">
        <ele>171</ele>
        <time>2016-04-18T11:57:53Z</time>
      </trkpt>
      <trkpt lat="39.464268" lon="3.172187">
        <ele>171.6</ele>
        <time>2016-04-18T11:57:54Z</time>
      </trkpt>
      <trkpt lat="39.464241" lon="3.172211">
        <ele>172</ele>
        <time>2016-04-18T11:57:55Z</time>
      </trkpt>
      <trkpt lat="39.464186" lon="3.172263">
        <ele>172</ele>
        <time>2016-04-18T11:57:57Z</time>
      </trkpt>
      <trkpt lat="39.464111" lon="3.172336">
        <ele>172.4</ele>
        <time>2016-04-18T11:58:00Z</time>
      </trkpt>
      <trkpt lat="39.464086" lon="3.172362">
        <ele>173.2</ele>
        <time>2016-04-18T11:58:01Z</time>
      </trkpt>
      <trkpt lat="39.46406" lon="3.172386">
        <ele>173.6</ele>
        <time>2016-04-18T11:58:02Z</time>
      </trkpt>
      <trkpt lat="39.464032" lon="3.172406">
        <ele>174</ele>
        <time>2016-04-18T11:58:03Z</time>
      </trkpt>
      <trkpt lat="39.463873" lon="3.172558">
        <ele>174</ele>
        <time>2016-04-18T11:58:09Z</time>
      </trkpt>
      <trkpt lat="39.463847" lon="3.172586">
        <ele>174.6</ele>
        <time>2016-04-18T11:58:10Z</time>
      </trkpt>
      <trkpt lat="39.463822" lon="3.172613">
        <ele>175</ele>
        <time>2016-04-18T11:58:11Z</time>
      </trkpt>
      <trkpt lat="39.463794" lon="3.172638">
        <ele>175.6</ele>
        <time>2016-04-18T11:58:12Z</time>
      </trkpt>
      <trkpt lat="39.463764" lon="3.172662">
        <ele>176</ele>
        <time>2016-04-18T11:58:13Z</time>
      </trkpt>
      <trkpt lat="39.463736" lon="3.172684">
        <ele>176.6</ele>
        <time>2016-04-18T11:58:14Z</time>
      </trkpt>
      <trkpt lat="39.463711" lon="3.17271">
        <ele>176.6</ele>
        <time>2016-04-18T11:58:15Z</time>
      </trkpt>
      <trkpt lat="39.463659" lon="3.172759">
        <ele>176.6</ele>
        <time>2016-04-18T11:58:17Z</time>
      </trkpt>
      <trkpt lat="39.463518" lon="3.172885">
        <ele>177</ele>
        <time>2016-04-18T11:58:22Z</time>
      </trkpt>
      <trkpt lat="39.46349" lon="3.17291">
        <ele>177.4</ele>
        <time>2016-04-18T11:58:23Z</time>
      </trkpt>
      <trkpt lat="39.46346" lon="3.172936">
        <ele>177.8</ele>
        <time>2016-04-18T11:58:24Z</time>
      </trkpt>
      <trkpt lat="39.463431" lon="3.172961">
        <ele>178.6</ele>
        <time>2016-04-18T11:58:25Z</time>
      </trkpt>
      <trkpt lat="39.463379" lon="3.173013">
        <ele>179</ele>
        <time>2016-04-18T11:58:27Z</time>
      </trkpt>
      <trkpt lat="39.463352" lon="3.173039">
        <ele>179.4</ele>
        <time>2016-04-18T11:58:28Z</time>
      </trkpt>
      <trkpt lat="39.463328" lon="3.173066">
        <ele>179.8</ele>
        <time>2016-04-18T11:58:29Z</time>
      </trkpt>
      <trkpt lat="39.463305" lon="3.173092">
        <ele>180.4</ele>
        <time>2016-04-18T11:58:30Z</time>
      </trkpt>
      <trkpt lat="39.46328" lon="3.173115">
        <ele>180.8</ele>
        <time>2016-04-18T11:58:31Z</time>
      </trkpt>
      <trkpt lat="39.463113" lon="3.173255">
        <ele>181.2</ele>
        <time>2016-04-18T11:58:37Z</time>
      </trkpt>
      <trkpt lat="39.463088" lon="3.173278">
        <ele>181.6</ele>
        <time>2016-04-18T11:58:38Z</time>
      </trkpt>
      <trkpt lat="39.463058" lon="3.173302">
        <ele>182</ele>
        <time>2016-04-18T11:58:39Z</time>
      </trkpt>
      <trkpt lat="39.46303" lon="3.173329">
        <ele>182.4</ele>
        <time>2016-04-18T11:58:40Z</time>
      </trkpt>
      <trkpt lat="39.463005" lon="3.173356">
        <ele>182.8</ele>
        <time>2016-04-18T11:58:41Z</time>
      </trkpt>
      <trkpt lat="39.462952" lon="3.173404">
        <ele>182.8</ele>
        <time>2016-04-18T11:58:43Z</time>
      </trkpt>
      <trkpt lat="39.462898" lon="3.173446">
        <ele>183.2</ele>
        <time>2016-04-18T11:58:45Z</time>
      </trkpt>
      <trkpt lat="39.462871" lon="3.173469">
        <ele>183.6</ele>
        <time>2016-04-18T11:58:46Z</time>
      </trkpt>
      <trkpt lat="39.462848" lon="3.173492">
        <ele>184</ele>
        <time>2016-04-18T11:58:47Z</time>
      </trkpt>
      <trkpt lat="39.462822" lon="3.173513">
        <ele>184.4</ele>
        <time>2016-04-18T11:58:48Z</time>
      </trkpt>
      <trkpt lat="39.4628" lon="3.173532">
        <ele>185</ele>
        <time>2016-04-18T11:58:49Z</time>
      </trkpt>
      <trkpt lat="39.462778" lon="3.173551">
        <ele>185</ele>
        <time>2016-04-18T11:58:50Z</time>
      </trkpt>
      <trkpt lat="39.462755" lon="3.173576">
        <ele>185.4</ele>
        <time>2016-04-18T11:58:51Z</time>
      </trkpt>
      <trkpt lat="39.462728" lon="3.173601">
        <ele>185.8</ele>
        <time>2016-04-18T11:58:52Z</time>
      </trkpt>
      <trkpt lat="39.462702" lon="3.173625">
        <ele>186.2</ele>
        <time>2016-04-18T11:58:53Z</time>
      </trkpt>
      <trkpt lat="39.462676" lon="3.17365">
        <ele>186.6</ele>
        <time>2016-04-18T11:58:54Z</time>
      </trkpt>
      <trkpt lat="39.462649" lon="3.173674">
        <ele>187</ele>
        <time>2016-04-18T11:58:55Z</time>
      </trkpt>
      <trkpt lat="39.462622" lon="3.173696">
        <ele>187</ele>
        <time>2016-04-18T11:58:56Z</time>
      </trkpt>
      <trkpt lat="39.462576" lon="3.173741">
        <ele>187.4</ele>
        <time>2016-04-18T11:58:58Z</time>
      </trkpt>
      <trkpt lat="39.462549" lon="3.173764">
        <ele>188</ele>
        <time>2016-04-18T11:58:59Z</time>
      </trkpt>
      <trkpt lat="39.462523" lon="3.173786">
        <ele>188.4</ele>
        <time>2016-04-18T11:59:00Z</time>
      </trkpt>
      <trkpt lat="39.462495" lon="3.173804">
        <ele>188.8</ele>
        <time>2016-04-18T11:59:01Z</time>
      </trkpt>
      <trkpt lat="39.462466" lon="3.173827">
        <ele>189.2</ele>
        <time>2016-04-18T11:59:02Z</time>
      </trkpt>
      <trkpt lat="39.462306" lon="3.17397">
        <ele>189.2</ele>
        <time>2016-04-18T11:59:08Z</time>
      </trkpt>
      <trkpt lat="39.462257" lon="3.174015">
        <ele>189.6</ele>
        <time>2016-04-18T11:59:10Z</time>
      </trkpt>
      <trkpt lat="39.462232" lon="3.17404">
        <ele>190</ele>
        <time>2016-04-18T11:59:11Z</time>
      </trkpt>
      <trkpt lat="39.462207" lon="3.174063">
        <ele>190.4</ele>
        <time>2016-04-18T11:59:12Z</time>
      </trkpt>
      <trkpt lat="39.462182" lon="3.17409">
        <ele>190.8</ele>
        <time>2016-04-18T11:59:13Z</time>
      </trkpt>
      <trkpt lat="39.462156" lon="3.174119">
        <ele>191.2</ele>
        <time>2016-04-18T11:59:14Z</time>
      </trkpt>
      <trkpt lat="39.462098" lon="3.174168">
        <ele>191.6</ele>
        <time>2016-04-18T11:59:16Z</time>
      </trkpt>
      <trkpt lat="39.462072" lon="3.174191">
        <ele>192.2</ele>
        <time>2016-04-18T11:59:17Z</time>
      </trkpt>
      <trkpt lat="39.462048" lon="3.174213">
        <ele>192.6</ele>
        <time>2016-04-18T11:59:18Z</time>
      </trkpt>
      <trkpt lat="39.462024" lon="3.174232">
        <ele>193</ele>
        <time>2016-04-18T11:59:19Z</time>
      </trkpt>
      <trkpt lat="39.461998" lon="3.174254">
        <ele>193.4</ele>
        <time>2016-04-18T11:59:20Z</time>
      </trkpt>
      <trkpt lat="39.461887" lon="3.174332">
        <ele>193.4</ele>
        <time>2016-04-18T11:59:24Z</time>
      </trkpt>
      <trkpt lat="39.461848" lon="3.174352">
        <ele>193.8</ele>
        <time>2016-04-18T11:59:25Z</time>
      </trkpt>
      <trkpt lat="39.461808" lon="3.17437">
        <ele>194.2</ele>
        <time>2016-04-18T11:59:26Z</time>
      </trkpt>
      <trkpt lat="39.461768" lon="3.174388">
        <ele>194.6</ele>
        <time>2016-04-18T11:59:27Z</time>
      </trkpt>
      <trkpt lat="39.461729" lon="3.174403">
        <ele>195</ele>
        <time>2016-04-18T11:59:28Z</time>
      </trkpt>
      <trkpt lat="39.461696" lon="3.174414">
        <ele>195.6</ele>
        <time>2016-04-18T11:59:29Z</time>
      </trkpt>
      <trkpt lat="39.461658" lon="3.174429">
        <ele>195.6</ele>
        <time>2016-04-18T11:59:30Z</time>
      </trkpt>
      <trkpt lat="39.461554" lon="3.174464">
        <ele>196</ele>
        <time>2016-04-18T11:59:33Z</time>
      </trkpt>
      <trkpt lat="39.461518" lon="3.17447">
        <ele>196.4</ele>
        <time>2016-04-18T11:59:34Z</time>
      </trkpt>
      <trkpt lat="39.461482" lon="3.174477">
        <ele>196.8</ele>
        <time>2016-04-18T11:59:35Z</time>
      </trkpt>
      <trkpt lat="39.461443" lon="3.174484">
        <ele>197.2</ele>
        <time>2016-04-18T11:59:36Z</time>
      </trkpt>
      <trkpt lat="39.461403" lon="3.174495">
        <ele>197.6</ele>
        <time>2016-04-18T11:59:37Z</time>
      </trkpt>
      <trkpt lat="39.461296" lon="3.174527">
        <ele>198</ele>
        <time>2016-04-18T11:59:40Z</time>
      </trkpt>
      <trkpt lat="39.461266" lon="3.174536">
        <ele>198.4</ele>
        <time>2016-04-18T11:59:41Z</time>
      </trkpt>
      <trkpt lat="39.461234" lon="3.174542">
        <ele>199</ele>
        <time>2016-04-18T11:59:42Z</time>
      </trkpt>
      <trkpt lat="39.461205" lon="3.174548">
        <ele>199.4</ele>
        <time>2016-04-18T11:59:43Z</time>
      </trkpt>
      <trkpt lat="39.461177" lon="3.174559">
        <ele>199.8</ele>
        <time>2016-04-18T11:59:44Z</time>
      </trkpt>
      <trkpt lat="39.461056" lon="3.174634">
        <ele>199.8</ele>
        <time>2016-04-18T11:59:48Z</time>
      </trkpt>
      <trkpt lat="39.460981" lon="3.174725">
        <ele>200.2</ele>
        <time>2016-04-18T11:59:51Z</time>
      </trkpt>
      <trkpt lat="39.460959" lon="3.174758">
        <ele>200.6</ele>
        <time>2016-04-18T11:59:52Z</time>
      </trkpt>
      <trkpt lat="39.460936" lon="3.174794">
        <ele>201</ele>
        <time>2016-04-18T11:59:53Z</time>
      </trkpt>
      <trkpt lat="39.460915" lon="3.174829">
        <ele>201.4</ele>
        <time>2016-04-18T11:59:54Z</time>
      </trkpt>
      <trkpt lat="39.460899" lon="3.17487">
        <ele>201.8</ele>
        <time>2016-04-18T11:59:55Z</time>
      </trkpt>
      <trkpt lat="39.46085" lon="3.175036">
        <ele>201.8</ele>
        <time>2016-04-18T11:59:59Z</time>
      </trkpt>
      <trkpt lat="39.46084" lon="3.175081">
        <ele>202.2</ele>
        <time>2016-04-18T12:00:00Z</time>
      </trkpt>
      <trkpt lat="39.460833" lon="3.17513">
        <ele>202.6</ele>
        <time>2016-04-18T12:00:01Z</time>
      </trkpt>
      <trkpt lat="39.460828" lon="3.175175">
        <ele>203</ele>
        <time>2016-04-18T12:00:02Z</time>
      </trkpt>
      <trkpt lat="39.460822" lon="3.175217">
        <ele>203.6</ele>
        <time>2016-04-18T12:00:03Z</time>
      </trkpt>
      <trkpt lat="39.460813" lon="3.175257">
        <ele>204</ele>
        <time>2016-04-18T12:00:04Z</time>
      </trkpt>
      <trkpt lat="39.460801" lon="3.17533">
        <ele>204</ele>
        <time>2016-04-18T12:00:06Z</time>
      </trkpt>
      <trkpt lat="39.460774" lon="3.17549">
        <ele>204.4</ele>
        <time>2016-04-18T12:00:10Z</time>
      </trkpt>
      <trkpt lat="39.460766" lon="3.175534">
        <ele>204.8</ele>
        <time>2016-04-18T12:00:11Z</time>
      </trkpt>
      <trkpt lat="39.46076" lon="3.175579">
        <ele>205.2</ele>
        <time>2016-04-18T12:00:12Z</time>
      </trkpt>
      <trkpt lat="39.460753" lon="3.175622">
        <ele>205.6</ele>
        <time>2016-04-18T12:00:13Z</time>
      </trkpt>
      <trkpt lat="39.460742" lon="3.175666">
        <ele>206</ele>
        <time>2016-04-18T12:00:14Z</time>
      </trkpt>
      <trkpt lat="39.460722" lon="3.175703">
        <ele>206</ele>
        <time>2016-04-18T12:00:15Z</time>
      </trkpt>
      <trkpt lat="39.46069" lon="3.17573">
        <ele>206</ele>
        <time>2016-04-18T12:00:16Z</time>
      </trkpt>
      <trkpt lat="39.460569" lon="3.175733">
        <ele>206.4</ele>
        <time>2016-04-18T12:00:19Z</time>
      </trkpt>
      <trkpt lat="39.460534" lon="3.175717">
        <ele>207</ele>
        <time>2016-04-18T12:00:20Z</time>
      </trkpt>
      <trkpt lat="39.460499" lon="3.175701">
        <ele>207.4</ele>
        <time>2016-04-18T12:00:21Z</time>
      </trkpt>
      <trkpt lat="39.460462" lon="3.175685">
        <ele>207.8</ele>
        <time>2016-04-18T12:00:22Z</time>
      </trkpt>
      <trkpt lat="39.460427" lon="3.175668">
        <ele>208.2</ele>
        <time>2016-04-18T12:00:23Z</time>
      </trkpt>
      <trkpt lat="39.460395" lon="3.175652">
        <ele>208.6</ele>
        <time>2016-04-18T12:00:24Z</time>
      </trkpt>
      <trkpt lat="39.460363" lon="3.175636">
        <ele>209</ele>
        <time>2016-04-18T12:00:25Z</time>
      </trkpt>
      <trkpt lat="39.46033" lon="3.17562">
        <ele>209.4</ele>
        <time>2016-04-18T12:00:26Z</time>
      </trkpt>
      <trkpt lat="39.460296" lon="3.175606">
        <ele>209.8</ele>
        <time>2016-04-18T12:00:27Z</time>
      </trkpt>
      <trkpt lat="39.460261" lon="3.175591">
        <ele>210.2</ele>
        <time>2016-04-18T12:00:28Z</time>
      </trkpt>
      <trkpt lat="39.460188" lon="3.175568">
        <ele>210.6</ele>
        <time>2016-04-18T12:00:30Z</time>
      </trkpt>
      <trkpt lat="39.460152" lon="3.175562">
        <ele>211</ele>
        <time>2016-04-18T12:00:31Z</time>
      </trkpt>
      <trkpt lat="39.460119" lon="3.175561">
        <ele>211.4</ele>
        <time>2016-04-18T12:00:32Z</time>
      </trkpt>
      <trkpt lat="39.460085" lon="3.175562">
        <ele>211.8</ele>
        <time>2016-04-18T12:00:33Z</time>
      </trkpt>
      <trkpt lat="39.46005" lon="3.175566">
        <ele>212.2</ele>
        <time>2016-04-18T12:00:34Z</time>
      </trkpt>
      <trkpt lat="39.459945" lon="3.175565">
        <ele>212.2</ele>
        <time>2016-04-18T12:00:37Z</time>
      </trkpt>
      <trkpt lat="39.459882" lon="3.175559">
        <ele>212.6</ele>
        <time>2016-04-18T12:00:39Z</time>
      </trkpt>
      <trkpt lat="39.459851" lon="3.175557">
        <ele>213</ele>
        <time>2016-04-18T12:00:40Z</time>
      </trkpt>
      <trkpt lat="39.459821" lon="3.175556">
        <ele>213.6</ele>
        <time>2016-04-18T12:00:41Z</time>
      </trkpt>
      <trkpt lat="39.459792" lon="3.175554">
        <ele>214</ele>
        <time>2016-04-18T12:00:42Z</time>
      </trkpt>
      <trkpt lat="39.459764" lon="3.175554">
        <ele>214.4</ele>
        <time>2016-04-18T12:00:43Z</time>
      </trkpt>
      <trkpt lat="39.459663" lon="3.175624">
        <ele>214.4</ele>
        <time>2016-04-18T12:00:47Z</time>
      </trkpt>
      <trkpt lat="39.459656" lon="3.175657">
        <ele>214.8</ele>
        <time>2016-04-18T12:00:48Z</time>
      </trkpt>
      <trkpt lat="39.459655" lon="3.1757">
        <ele>215.2</ele>
        <time>2016-04-18T12:00:49Z</time>
      </trkpt>
      <trkpt lat="39.459653" lon="3.175746">
        <ele>215.8</ele>
        <time>2016-04-18T12:00:50Z</time>
      </trkpt>
      <trkpt lat="39.459663" lon="3.175794">
        <ele>216.6</ele>
        <time>2016-04-18T12:00:51Z</time>
      </trkpt>
      <trkpt lat="39.459689" lon="3.175884">
        <ele>216.6</ele>
        <time>2016-04-18T12:00:54Z</time>
      </trkpt>
      <trkpt lat="39.459741" lon="3.175971">
        <ele>217</ele>
        <time>2016-04-18T12:00:57Z</time>
      </trkpt>
      <trkpt lat="39.459764" lon="3.175999">
        <ele>217.4</ele>
        <time>2016-04-18T12:00:58Z</time>
      </trkpt>
      <trkpt lat="39.459787" lon="3.176027">
        <ele>217.8</ele>
        <time>2016-04-18T12:00:59Z</time>
      </trkpt>
      <trkpt lat="39.45981" lon="3.176061">
        <ele>218.2</ele>
        <time>2016-04-18T12:01:00Z</time>
      </trkpt>
      <trkpt lat="39.459827" lon="3.176097">
        <ele>218.8</ele>
        <time>2016-04-18T12:01:01Z</time>
      </trkpt>
      <trkpt lat="39.459859" lon="3.176243">
        <ele>219.2</ele>
        <time>2016-04-18T12:01:05Z</time>
      </trkpt>
      <trkpt lat="39.459855" lon="3.17628">
        <ele>219.6</ele>
        <time>2016-04-18T12:01:06Z</time>
      </trkpt>
      <trkpt lat="39.459853" lon="3.176312">
        <ele>220</ele>
        <time>2016-04-18T12:01:07Z</time>
      </trkpt>
      <trkpt lat="39.459858" lon="3.176345">
        <ele>220.4</ele>
        <time>2016-04-18T12:01:08Z</time>
      </trkpt>
      <trkpt lat="39.459859" lon="3.176379">
        <ele>220.8</ele>
        <time>2016-04-18T12:01:09Z</time>
      </trkpt>
      <trkpt lat="39.459857" lon="3.176443">
        <ele>220.8</ele>
        <time>2016-04-18T12:01:11Z</time>
      </trkpt>
      <trkpt lat="39.459859" lon="3.176563">
        <ele>221.2</ele>
        <time>2016-04-18T12:01:14Z</time>
      </trkpt>
      <trkpt lat="39.459859" lon="3.176608">
        <ele>221.6</ele>
        <time>2016-04-18T12:01:15Z</time>
      </trkpt>
      <trkpt lat="39.459859" lon="3.176655">
        <ele>222</ele>
        <time>2016-04-18T12:01:16Z</time>
      </trkpt>
      <trkpt lat="39.459861" lon="3.176696">
        <ele>222.4</ele>
        <time>2016-04-18T12:01:17Z</time>
      </trkpt>
      <trkpt lat="39.459854" lon="3.176739">
        <ele>222.8</ele>
        <time>2016-04-18T12:01:18Z</time>
      </trkpt>
      <trkpt lat="39.45986" lon="3.176857">
        <ele>222.8</ele>
        <time>2016-04-18T12:01:21Z</time>
      </trkpt>
      <trkpt lat="39.459873" lon="3.176894">
        <ele>223.4</ele>
        <time>2016-04-18T12:01:22Z</time>
      </trkpt>
      <trkpt lat="39.459882" lon="3.176937">
        <ele>223.8</ele>
        <time>2016-04-18T12:01:23Z</time>
      </trkpt>
      <trkpt lat="39.459888" lon="3.176977">
        <ele>224.2</ele>
        <time>2016-04-18T12:01:24Z</time>
      </trkpt>
      <trkpt lat="39.459898" lon="3.177021">
        <ele>224.6</ele>
        <time>2016-04-18T12:01:25Z</time>
      </trkpt>
      <trkpt lat="39.459902" lon="3.177066">
        <ele>225</ele>
        <time>2016-04-18T12:01:26Z</time>
      </trkpt>
      <trkpt lat="39.459944" lon="3.177216">
        <ele>225</ele>
        <time>2016-04-18T12:01:30Z</time>
      </trkpt>
      <trkpt lat="39.460023" lon="3.177348">
        <ele>225</ele>
        <time>2016-04-18T12:01:34Z</time>
      </trkpt>
      <trkpt lat="39.460043" lon="3.177384">
        <ele>225.6</ele>
        <time>2016-04-18T12:01:35Z</time>
      </trkpt>
      <trkpt lat="39.460058" lon="3.177423">
        <ele>226</ele>
        <time>2016-04-18T12:01:36Z</time>
      </trkpt>
      <trkpt lat="39.460075" lon="3.17746">
        <ele>226.8</ele>
        <time>2016-04-18T12:01:37Z</time>
      </trkpt>
      <trkpt lat="39.460097" lon="3.177497">
        <ele>227.4</ele>
        <time>2016-04-18T12:01:38Z</time>
      </trkpt>
      <trkpt lat="39.460132" lon="3.177567">
        <ele>227.4</ele>
        <time>2016-04-18T12:01:40Z</time>
      </trkpt>
      <trkpt lat="39.460191" lon="3.177749">
        <ele>227.8</ele>
        <time>2016-04-18T12:01:45Z</time>
      </trkpt>
      <trkpt lat="39.460209" lon="3.17778">
        <ele>228.2</ele>
        <time>2016-04-18T12:01:46Z</time>
      </trkpt>
      <trkpt lat="39.460215" lon="3.177818">
        <ele>228.6</ele>
        <time>2016-04-18T12:01:47Z</time>
      </trkpt>
      <trkpt lat="39.460214" lon="3.17786">
        <ele>229.2</ele>
        <time>2016-04-18T12:01:48Z</time>
      </trkpt>
      <trkpt lat="39.460207" lon="3.1779">
        <ele>229.6</ele>
        <time>2016-04-18T12:01:49Z</time>
      </trkpt>
      <trkpt lat="39.460136" lon="3.177954">
        <ele>230</ele>
        <time>2016-04-18T12:01:52Z</time>
      </trkpt>
      <trkpt lat="39.460104" lon="3.177958">
        <ele>230.4</ele>
        <time>2016-04-18T12:01:54Z</time>
      </trkpt>
      <trkpt lat="39.460074" lon="3.177955">
        <ele>230.8</ele>
        <time>2016-04-18T12:01:55Z</time>
      </trkpt>
      <trkpt lat="39.460042" lon="3.177949">
        <ele>231.2</ele>
        <time>2016-04-18T12:01:56Z</time>
      </trkpt>
      <trkpt lat="39.460013" lon="3.177943">
        <ele>231.6</ele>
        <time>2016-04-18T12:01:57Z</time>
      </trkpt>
      <trkpt lat="39.459951" lon="3.177944">
        <ele>232</ele>
        <time>2016-04-18T12:01:59Z</time>
      </trkpt>
      <trkpt lat="39.459924" lon="3.177939">
        <ele>232.4</ele>
        <time>2016-04-18T12:02:00Z</time>
      </trkpt>
      <trkpt lat="39.459892" lon="3.177936">
        <ele>233</ele>
        <time>2016-04-18T12:02:01Z</time>
      </trkpt>
      <trkpt lat="39.459857" lon="3.17794">
        <ele>233.4</ele>
        <time>2016-04-18T12:02:02Z</time>
      </trkpt>
      <trkpt lat="39.459827" lon="3.177939">
        <ele>233.8</ele>
        <time>2016-04-18T12:02:03Z</time>
      </trkpt>
      <trkpt lat="39.459798" lon="3.177936">
        <ele>233.8</ele>
        <time>2016-04-18T12:02:04Z</time>
      </trkpt>
      <trkpt lat="39.459768" lon="3.177935">
        <ele>234.2</ele>
        <time>2016-04-18T12:02:05Z</time>
      </trkpt>
      <trkpt lat="39.459738" lon="3.177937">
        <ele>234.8</ele>
        <time>2016-04-18T12:02:06Z</time>
      </trkpt>
      <trkpt lat="39.459709" lon="3.177936">
        <ele>235.2</ele>
        <time>2016-04-18T12:02:07Z</time>
      </trkpt>
      <trkpt lat="39.45968" lon="3.177934">
        <ele>235.6</ele>
        <time>2016-04-18T12:02:08Z</time>
      </trkpt>
      <trkpt lat="39.459651" lon="3.17793">
        <ele>236</ele>
        <time>2016-04-18T12:02:09Z</time>
      </trkpt>
      <trkpt lat="39.459597" lon="3.17792">
        <ele>236</ele>
        <time>2016-04-18T12:02:11Z</time>
      </trkpt>
      <trkpt lat="39.459502" lon="3.177902">
        <ele>236.4</ele>
        <time>2016-04-18T12:02:15Z</time>
      </trkpt>
      <trkpt lat="39.459486" lon="3.177895">
        <ele>236.8</ele>
        <time>2016-04-18T12:02:16Z</time>
      </trkpt>
      <trkpt lat="39.459469" lon="3.177893">
        <ele>237.4</ele>
        <time>2016-04-18T12:02:17Z</time>
      </trkpt>
      <trkpt lat="39.459449" lon="3.177896">
        <ele>237.8</ele>
        <time>2016-04-18T12:02:18Z</time>
      </trkpt>
      <trkpt lat="39.459428" lon="3.177903">
        <ele>238.2</ele>
        <time>2016-04-18T12:02:19Z</time>
      </trkpt>
      <trkpt lat="39.459407" lon="3.177925">
        <ele>238.2</ele>
        <time>2016-04-18T12:02:20Z</time>
      </trkpt>
      <trkpt lat="39.459386" lon="3.177957">
        <ele>238.2</ele>
        <time>2016-04-18T12:02:21Z</time>
      </trkpt>
      <trkpt lat="39.45937" lon="3.178093">
        <ele>238.2</ele>
        <time>2016-04-18T12:02:24Z</time>
      </trkpt>
      <trkpt lat="39.45941" lon="3.178208">
        <ele>238.2</ele>
        <time>2016-04-18T12:02:27Z</time>
      </trkpt>
      <trkpt lat="39.459427" lon="3.178253">
        <ele>238.6</ele>
        <time>2016-04-18T12:02:28Z</time>
      </trkpt>
      <trkpt lat="39.459443" lon="3.178292">
        <ele>239</ele>
        <time>2016-04-18T12:02:29Z</time>
      </trkpt>
      <trkpt lat="39.459464" lon="3.178329">
        <ele>239.4</ele>
        <time>2016-04-18T12:02:30Z</time>
      </trkpt>
      <trkpt lat="39.459476" lon="3.178365">
        <ele>240</ele>
        <time>2016-04-18T12:02:31Z</time>
      </trkpt>
      <trkpt lat="39.459477" lon="3.178405">
        <ele>240.4</ele>
        <time>2016-04-18T12:02:32Z</time>
      </trkpt>
      <trkpt lat="39.459471" lon="3.178448">
        <ele>240.4</ele>
        <time>2016-04-18T12:02:33Z</time>
      </trkpt>
      <trkpt lat="39.459449" lon="3.178487">
        <ele>240.4</ele>
        <time>2016-04-18T12:02:34Z</time>
      </trkpt>
      <trkpt lat="39.459413" lon="3.178492">
        <ele>240.8</ele>
        <time>2016-04-18T12:02:35Z</time>
      </trkpt>
      <trkpt lat="39.459382" lon="3.178495">
        <ele>241.2</ele>
        <time>2016-04-18T12:02:36Z</time>
      </trkpt>
      <trkpt lat="39.459352" lon="3.178496">
        <ele>241.8</ele>
        <time>2016-04-18T12:02:37Z</time>
      </trkpt>
      <trkpt lat="39.459325" lon="3.178498">
        <ele>242.4</ele>
        <time>2016-04-18T12:02:38Z</time>
      </trkpt>
      <trkpt lat="39.459301" lon="3.178507">
        <ele>242.8</ele>
        <time>2016-04-18T12:02:39Z</time>
      </trkpt>
      <trkpt lat="39.459277" lon="3.178514">
        <ele>243.4</ele>
        <time>2016-04-18T12:02:40Z</time>
      </trkpt>
      <trkpt lat="39.459252" lon="3.178527">
        <ele>244</ele>
        <time>2016-04-18T12:02:41Z</time>
      </trkpt>
      <trkpt lat="39.459227" lon="3.178544">
        <ele>244.6</ele>
        <time>2016-04-18T12:02:42Z</time>
      </trkpt>
      <trkpt lat="39.459148" lon="3.178656">
        <ele>244.6</ele>
        <time>2016-04-18T12:02:46Z</time>
      </trkpt>
      <trkpt lat="39.459095" lon="3.178783">
        <ele>245</ele>
        <time>2016-04-18T12:02:50Z</time>
      </trkpt>
      <trkpt lat="39.459083" lon="3.178813">
        <ele>245.4</ele>
        <time>2016-04-18T12:02:51Z</time>
      </trkpt>
      <trkpt lat="39.459072" lon="3.178848">
        <ele>246.2</ele>
        <time>2016-04-18T12:02:52Z</time>
      </trkpt>
      <trkpt lat="39.459059" lon="3.178883">
        <ele>246.6</ele>
        <time>2016-04-18T12:02:53Z</time>
      </trkpt>
      <trkpt lat="39.459047" lon="3.178918">
        <ele>246.6</ele>
        <time>2016-04-18T12:02:54Z</time>
      </trkpt>
      <trkpt lat="39.458999" lon="3.179052">
        <ele>247.2</ele>
        <time>2016-04-18T12:02:58Z</time>
      </trkpt>
      <trkpt lat="39.45899" lon="3.179075">
        <ele>247.6</ele>
        <time>2016-04-18T12:02:59Z</time>
      </trkpt>
      <trkpt lat="39.458976" lon="3.179097">
        <ele>248.2</ele>
        <time>2016-04-18T12:03:00Z</time>
      </trkpt>
      <trkpt lat="39.458975" lon="3.179124">
        <ele>248.6</ele>
        <time>2016-04-18T12:03:01Z</time>
      </trkpt>
      <trkpt lat="39.458973" lon="3.179159">
        <ele>249.2</ele>
        <time>2016-04-18T12:03:02Z</time>
      </trkpt>
      <trkpt lat="39.458963" lon="3.179231">
        <ele>249.2</ele>
        <time>2016-04-18T12:03:04Z</time>
      </trkpt>
      <trkpt lat="39.458973" lon="3.179358">
        <ele>249.2</ele>
        <time>2016-04-18T12:03:08Z</time>
      </trkpt>
      <trkpt lat="39.458973" lon="3.179387">
        <ele>249.2</ele>
        <time>2016-04-18T12:03:09Z</time>
      </trkpt>
      <trkpt lat="39.458977" lon="3.17942">
        <ele>249.6</ele>
        <time>2016-04-18T12:03:10Z</time>
      </trkpt>
      <trkpt lat="39.45899" lon="3.179453">
        <ele>250</ele>
        <time>2016-04-18T12:03:11Z</time>
      </trkpt>
      <trkpt lat="39.459005" lon="3.179488">
        <ele>250.4</ele>
        <time>2016-04-18T12:03:12Z</time>
      </trkpt>
      <trkpt lat="39.459012" lon="3.179523">
        <ele>251</ele>
        <time>2016-04-18T12:03:13Z</time>
      </trkpt>
      <trkpt lat="39.459016" lon="3.179555">
        <ele>251.4</ele>
        <time>2016-04-18T12:03:14Z</time>
      </trkpt>
      <trkpt lat="39.459017" lon="3.179583">
        <ele>251.8</ele>
        <time>2016-04-18T12:03:15Z</time>
      </trkpt>
      <trkpt lat="39.459013" lon="3.179615">
        <ele>252.2</ele>
        <time>2016-04-18T12:03:16Z</time>
      </trkpt>
      <trkpt lat="39.459009" lon="3.17965">
        <ele>253</ele>
        <time>2016-04-18T12:03:17Z</time>
      </trkpt>
      <trkpt lat="39.459005" lon="3.179684">
        <ele>253.6</ele>
        <time>2016-04-18T12:03:18Z</time>
      </trkpt>
      <trkpt lat="39.458981" lon="3.179826">
        <ele>254</ele>
        <time>2016-04-18T12:03:22Z</time>
      </trkpt>
      <trkpt lat="39.458974" lon="3.179862">
        <ele>254.4</ele>
        <time>2016-04-18T12:03:23Z</time>
      </trkpt>
      <trkpt lat="39.458966" lon="3.179897">
        <ele>254.8</ele>
        <time>2016-04-18T12:03:24Z</time>
      </trkpt>
      <trkpt lat="39.458959" lon="3.179933">
        <ele>255.2</ele>
        <time>2016-04-18T12:03:25Z</time>
      </trkpt>
      <trkpt lat="39.458953" lon="3.179972">
        <ele>255.8</ele>
        <time>2016-04-18T12:03:26Z</time>
      </trkpt>
      <trkpt lat="39.458923" lon="3.180083">
        <ele>255.8</ele>
        <time>2016-04-18T12:03:29Z</time>
      </trkpt>
      <trkpt lat="39.45891" lon="3.180115">
        <ele>256.2</ele>
        <time>2016-04-18T12:03:30Z</time>
      </trkpt>
      <trkpt lat="39.458898" lon="3.180147">
        <ele>256.6</ele>
        <time>2016-04-18T12:03:31Z</time>
      </trkpt>
      <trkpt lat="39.458888" lon="3.18018">
        <ele>257.2</ele>
        <time>2016-04-18T12:03:32Z</time>
      </trkpt>
      <trkpt lat="39.458876" lon="3.180213">
        <ele>257.6</ele>
        <time>2016-04-18T12:03:33Z</time>
      </trkpt>
      <trkpt lat="39.458865" lon="3.180247">
        <ele>258</ele>
        <time>2016-04-18T12:03:34Z</time>
      </trkpt>
      <trkpt lat="39.45882" lon="3.180381">
        <ele>258.4</ele>
        <time>2016-04-18T12:03:38Z</time>
      </trkpt>
      <trkpt lat="39.458811" lon="3.180412">
        <ele>259</ele>
        <time>2016-04-18T12:03:39Z</time>
      </trkpt>
      <trkpt lat="39.458802" lon="3.180441">
        <ele>259.4</ele>
        <time>2016-04-18T12:03:40Z</time>
      </trkpt>
      <trkpt lat="39.458797" lon="3.180467">
        <ele>259.8</ele>
        <time>2016-04-18T12:03:41Z</time>
      </trkpt>
      <trkpt lat="39.458789" lon="3.180492">
        <ele>260.2</ele>
        <time>2016-04-18T12:03:42Z</time>
      </trkpt>
      <trkpt lat="39.458761" lon="3.180549">
        <ele>260.2</ele>
        <time>2016-04-18T12:03:44Z</time>
      </trkpt>
      <trkpt lat="39.45874" lon="3.180563">
        <ele>260.6</ele>
        <time>2016-04-18T12:03:45Z</time>
      </trkpt>
      <trkpt lat="39.458719" lon="3.180561">
        <ele>261</ele>
        <time>2016-04-18T12:03:46Z</time>
      </trkpt>
      <trkpt lat="39.458702" lon="3.180542">
        <ele>261.4</ele>
        <time>2016-04-18T12:03:47Z</time>
      </trkpt>
      <trkpt lat="39.458695" lon="3.180521">
        <ele>262</ele>
        <time>2016-04-18T12:03:48Z</time>
      </trkpt>
      <trkpt lat="39.458701" lon="3.180497">
        <ele>262.4</ele>
        <time>2016-04-18T12:03:49Z</time>
      </trkpt>
      <trkpt lat="39.458713" lon="3.18046">
        <ele>262.4</ele>
        <time>2016-04-18T12:03:50Z</time>
      </trkpt>
      <trkpt lat="39.458734" lon="3.180371">
        <ele>262.4</ele>
        <time>2016-04-18T12:03:52Z</time>
      </trkpt>
      <trkpt lat="39.458758" lon="3.180249">
        <ele>262.4</ele>
        <time>2016-04-18T12:03:55Z</time>
      </trkpt>
      <trkpt lat="39.45874" lon="3.180173">
        <ele>262.8</ele>
        <time>2016-04-18T12:03:57Z</time>
      </trkpt>
      <trkpt lat="39.458718" lon="3.180137">
        <ele>263.2</ele>
        <time>2016-04-18T12:03:58Z</time>
      </trkpt>
      <trkpt lat="39.458692" lon="3.180101">
        <ele>263.6</ele>
        <time>2016-04-18T12:03:59Z</time>
      </trkpt>
      <trkpt lat="39.458662" lon="3.180076">
        <ele>264</ele>
        <time>2016-04-18T12:04:00Z</time>
      </trkpt>
      <trkpt lat="39.458631" lon="3.180051">
        <ele>264.4</ele>
        <time>2016-04-18T12:04:01Z</time>
      </trkpt>
      <trkpt lat="39.45853" lon="3.179971">
        <ele>264.4</ele>
        <time>2016-04-18T12:04:04Z</time>
      </trkpt>
      <trkpt lat="39.45842" lon="3.179883">
        <ele>264.8</ele>
        <time>2016-04-18T12:04:07Z</time>
      </trkpt>
      <trkpt lat="39.458373" lon="3.179857">
        <ele>265.2</ele>
        <time>2016-04-18T12:04:08Z</time>
      </trkpt>
      <trkpt lat="39.458322" lon="3.179845">
        <ele>265.6</ele>
        <time>2016-04-18T12:04:09Z</time>
      </trkpt>
      <trkpt lat="39.458272" lon="3.179843">
        <ele>266</ele>
        <time>2016-04-18T12:04:10Z</time>
      </trkpt>
      <trkpt lat="39.458223" lon="3.179851">
        <ele>266.4</ele>
        <time>2016-04-18T12:04:11Z</time>
      </trkpt>
      <trkpt lat="39.458135" lon="3.179876">
        <ele>266.4</ele>
        <time>2016-04-18T12:04:13Z</time>
      </trkpt>
      <trkpt lat="39.458056" lon="3.179915">
        <ele>266.4</ele>
        <time>2016-04-18T12:04:15Z</time>
      </trkpt>
      <trkpt lat="39.457794" lon="3.180016">
        <ele>266.8</ele>
        <time>2016-04-18T12:04:21Z</time>
      </trkpt>
      <trkpt lat="39.457752" lon="3.180024">
        <ele>267.4</ele>
        <time>2016-04-18T12:04:22Z</time>
      </trkpt>
      <trkpt lat="39.457714" lon="3.180041">
        <ele>267.8</ele>
        <time>2016-04-18T12:04:23Z</time>
      </trkpt>
      <trkpt lat="39.457678" lon="3.180061">
        <ele>268.2</ele>
        <time>2016-04-18T12:04:24Z</time>
      </trkpt>
      <trkpt lat="39.457641" lon="3.18008">
        <ele>268.6</ele>
        <time>2016-04-18T12:04:25Z</time>
      </trkpt>
      <trkpt lat="39.457575" lon="3.180119">
        <ele>268.6</ele>
        <time>2016-04-18T12:04:27Z</time>
      </trkpt>
      <trkpt lat="39.457541" lon="3.180145">
        <ele>269</ele>
        <time>2016-04-18T12:04:28Z</time>
      </trkpt>
      <trkpt lat="39.457504" lon="3.180172">
        <ele>269.6</ele>
        <time>2016-04-18T12:04:29Z</time>
      </trkpt>
      <trkpt lat="39.45747" lon="3.180192">
        <ele>270</ele>
        <time>2016-04-18T12:04:30Z</time>
      </trkpt>
      <trkpt lat="39.457438" lon="3.180211">
        <ele>270.8</ele>
        <time>2016-04-18T12:04:31Z</time>
      </trkpt>
      <trkpt lat="39.457406" lon="3.180234">
        <ele>270.8</ele>
        <time>2016-04-18T12:04:32Z</time>
      </trkpt>
      <trkpt lat="39.45735" lon="3.180289">
        <ele>271.2</ele>
        <time>2016-04-18T12:04:34Z</time>
      </trkpt>
      <trkpt lat="39.457332" lon="3.180319">
        <ele>271.8</ele>
        <time>2016-04-18T12:04:35Z</time>
      </trkpt>
      <trkpt lat="39.457319" lon="3.180359">
        <ele>272.2</ele>
        <time>2016-04-18T12:04:36Z</time>
      </trkpt>
      <trkpt lat="39.457318" lon="3.180399">
        <ele>272.6</ele>
        <time>2016-04-18T12:04:37Z</time>
      </trkpt>
      <trkpt lat="39.457327" lon="3.180435">
        <ele>273</ele>
        <time>2016-04-18T12:04:38Z</time>
      </trkpt>
      <trkpt lat="39.457343" lon="3.180455">
        <ele>273</ele>
        <time>2016-04-18T12:04:39Z</time>
      </trkpt>
      <trkpt lat="39.457374" lon="3.180459">
        <ele>273</ele>
        <time>2016-04-18T12:04:40Z</time>
      </trkpt>
      <trkpt lat="39.457472" lon="3.18042">
        <ele>273</ele>
        <time>2016-04-18T12:04:43Z</time>
      </trkpt>
      <trkpt lat="39.457506" lon="3.180406">
        <ele>273.4</ele>
        <time>2016-04-18T12:04:44Z</time>
      </trkpt>
      <trkpt lat="39.457535" lon="3.180388">
        <ele>273.8</ele>
        <time>2016-04-18T12:04:45Z</time>
      </trkpt>
      <trkpt lat="39.457554" lon="3.180368">
        <ele>274.2</ele>
        <time>2016-04-18T12:04:46Z</time>
      </trkpt>
      <trkpt lat="39.457572" lon="3.180351">
        <ele>274.6</ele>
        <time>2016-04-18T12:04:47Z</time>
      </trkpt>
      <trkpt lat="39.457588" lon="3.180334">
        <ele>275</ele>
        <time>2016-04-18T12:04:48Z</time>
      </trkpt>
      <trkpt lat="39.457607" lon="3.180327">
        <ele>275</ele>
        <time>2016-04-18T12:04:49Z</time>
      </trkpt>
      <trkpt lat="39.457696" lon="3.180336">
        <ele>275</ele>
        <time>2016-04-18T12:04:52Z</time>
      </trkpt>
      <trkpt lat="39.457729" lon="3.180346">
        <ele>275.6</ele>
        <time>2016-04-18T12:04:53Z</time>
      </trkpt>
      <trkpt lat="39.457767" lon="3.18035">
        <ele>276</ele>
        <time>2016-04-18T12:04:54Z</time>
      </trkpt>
      <trkpt lat="39.457804" lon="3.18036">
        <ele>276.4</ele>
        <time>2016-04-18T12:04:55Z</time>
      </trkpt>
      <trkpt lat="39.45784" lon="3.180366">
        <ele>277.2</ele>
        <time>2016-04-18T12:04:56Z</time>
      </trkpt>
      <trkpt lat="39.45792" lon="3.180381">
        <ele>277.2</ele>
        <time>2016-04-18T12:04:58Z</time>
      </trkpt>
      <trkpt lat="39.457999" lon="3.180381">
        <ele>277.6</ele>
        <time>2016-04-18T12:05:00Z</time>
      </trkpt>
      <trkpt lat="39.458039" lon="3.180382">
        <ele>278</ele>
        <time>2016-04-18T12:05:01Z</time>
      </trkpt>
      <trkpt lat="39.458077" lon="3.180387">
        <ele>278.4</ele>
        <time>2016-04-18T12:05:02Z</time>
      </trkpt>
      <trkpt lat="39.458112" lon="3.180397">
        <ele>278.8</ele>
        <time>2016-04-18T12:05:03Z</time>
      </trkpt>
      <trkpt lat="39.458149" lon="3.180409">
        <ele>279.4</ele>
        <time>2016-04-18T12:05:04Z</time>
      </trkpt>
      <trkpt lat="39.458247" lon="3.180539">
        <ele>279.4</ele>
        <time>2016-04-18T12:05:08Z</time>
      </trkpt>
      <trkpt lat="39.458242" lon="3.180655">
        <ele>279.8</ele>
        <time>2016-04-18T12:05:11Z</time>
      </trkpt>
      <trkpt lat="39.458219" lon="3.180667">
        <ele>280.2</ele>
        <time>2016-04-18T12:05:12Z</time>
      </trkpt>
      <trkpt lat="39.458195" lon="3.180634">
        <ele>280.6</ele>
        <time>2016-04-18T12:05:13Z</time>
      </trkpt>
      <trkpt lat="39.458181" lon="3.180602">
        <ele>281</ele>
        <time>2016-04-18T12:05:14Z</time>
      </trkpt>
      <trkpt lat="39.458152" lon="3.180579">
        <ele>281.4</ele>
        <time>2016-04-18T12:05:15Z</time>
      </trkpt>
      <trkpt lat="39.458122" lon="3.180558">
        <ele>282</ele>
        <time>2016-04-18T12:05:16Z</time>
      </trkpt>
      <trkpt lat="39.458088" lon="3.180541">
        <ele>282.4</ele>
        <time>2016-04-18T12:05:17Z</time>
      </trkpt>
      <trkpt lat="39.45805" lon="3.180529">
        <ele>283</ele>
        <time>2016-04-18T12:05:18Z</time>
      </trkpt>
      <trkpt lat="39.458007" lon="3.180522">
        <ele>283.4</ele>
        <time>2016-04-18T12:05:19Z</time>
      </trkpt>
      <trkpt lat="39.457931" lon="3.180509">
        <ele>284.2</ele>
        <time>2016-04-18T12:05:21Z</time>
      </trkpt>
      <trkpt lat="39.457897" lon="3.1805">
        <ele>284.6</ele>
        <time>2016-04-18T12:05:22Z</time>
      </trkpt>
      <trkpt lat="39.457862" lon="3.180504">
        <ele>285</ele>
        <time>2016-04-18T12:05:23Z</time>
      </trkpt>
      <trkpt lat="39.457825" lon="3.180517">
        <ele>285.4</ele>
        <time>2016-04-18T12:05:24Z</time>
      </trkpt>
      <trkpt lat="39.457685" lon="3.180589">
        <ele>285.8</ele>
        <time>2016-04-18T12:05:28Z</time>
      </trkpt>
      <trkpt lat="39.457652" lon="3.180607">
        <ele>286.2</ele>
        <time>2016-04-18T12:05:29Z</time>
      </trkpt>
      <trkpt lat="39.457624" lon="3.180625">
        <ele>286.6</ele>
        <time>2016-04-18T12:05:30Z</time>
      </trkpt>
      <trkpt lat="39.457599" lon="3.180647">
        <ele>287.2</ele>
        <time>2016-04-18T12:05:31Z</time>
      </trkpt>
      <trkpt lat="39.457573" lon="3.180669">
        <ele>287.6</ele>
        <time>2016-04-18T12:05:32Z</time>
      </trkpt>
      <trkpt lat="39.45753" lon="3.180721">
        <ele>287.6</ele>
        <time>2016-04-18T12:05:34Z</time>
      </trkpt>
      <trkpt lat="39.457465" lon="3.180884">
        <ele>288</ele>
        <time>2016-04-18T12:05:38Z</time>
      </trkpt>
      <trkpt lat="39.457449" lon="3.18092">
        <ele>288.4</ele>
        <time>2016-04-18T12:05:39Z</time>
      </trkpt>
      <trkpt lat="39.457437" lon="3.180954">
        <ele>288.8</ele>
        <time>2016-04-18T12:05:40Z</time>
      </trkpt>
      <trkpt lat="39.45742" lon="3.180989">
        <ele>289.2</ele>
        <time>2016-04-18T12:05:41Z</time>
      </trkpt>
      <trkpt lat="39.457404" lon="3.181026">
        <ele>289.6</ele>
        <time>2016-04-18T12:05:42Z</time>
      </trkpt>
      <trkpt lat="39.457354" lon="3.181143">
        <ele>289.6</ele>
        <time>2016-04-18T12:05:45Z</time>
      </trkpt>
      <trkpt lat="39.457338" lon="3.181178">
        <ele>290</ele>
        <time>2016-04-18T12:05:46Z</time>
      </trkpt>
      <trkpt lat="39.457324" lon="3.181213">
        <ele>290.4</ele>
        <time>2016-04-18T12:05:47Z</time>
      </trkpt>
      <trkpt lat="39.457312" lon="3.181247">
        <ele>290.8</ele>
        <time>2016-04-18T12:05:48Z</time>
      </trkpt>
      <trkpt lat="39.457303" lon="3.181281">
        <ele>291.4</ele>
        <time>2016-04-18T12:05:49Z</time>
      </trkpt>
      <trkpt lat="39.457295" lon="3.181321">
        <ele>291.8</ele>
        <time>2016-04-18T12:05:50Z</time>
      </trkpt>
      <trkpt lat="39.457281" lon="3.181365">
        <ele>291.8</ele>
        <time>2016-04-18T12:05:51Z</time>
      </trkpt>
      <trkpt lat="39.457265" lon="3.181407">
        <ele>292.2</ele>
        <time>2016-04-18T12:05:52Z</time>
      </trkpt>
      <trkpt lat="39.457248" lon="3.181447">
        <ele>292.6</ele>
        <time>2016-04-18T12:05:53Z</time>
      </trkpt>
      <trkpt lat="39.457234" lon="3.181493">
        <ele>293</ele>
        <time>2016-04-18T12:05:54Z</time>
      </trkpt>
      <trkpt lat="39.457223" lon="3.181541">
        <ele>293.4</ele>
        <time>2016-04-18T12:05:55Z</time>
      </trkpt>
      <trkpt lat="39.457212" lon="3.18159">
        <ele>293.8</ele>
        <time>2016-04-18T12:05:56Z</time>
      </trkpt>
      <trkpt lat="39.457212" lon="3.181637">
        <ele>293.8</ele>
        <time>2016-04-18T12:05:57Z</time>
      </trkpt>
      <trkpt lat="39.457204" lon="3.1818">
        <ele>294.2</ele>
        <time>2016-04-18T12:06:01Z</time>
      </trkpt>
      <trkpt lat="39.45721" lon="3.181836">
        <ele>294.6</ele>
        <time>2016-04-18T12:06:02Z</time>
      </trkpt>
      <trkpt lat="39.457214" lon="3.181874">
        <ele>295</ele>
        <time>2016-04-18T12:06:03Z</time>
      </trkpt>
      <trkpt lat="39.457219" lon="3.181905">
        <ele>295.4</ele>
        <time>2016-04-18T12:06:04Z</time>
      </trkpt>
      <trkpt lat="39.457225" lon="3.181939">
        <ele>295.8</ele>
        <time>2016-04-18T12:06:05Z</time>
      </trkpt>
      <trkpt lat="39.457225" lon="3.182026">
        <ele>295.8</ele>
        <time>2016-04-18T12:06:07Z</time>
      </trkpt>
      <trkpt lat="39.457232" lon="3.182148">
        <ele>296.2</ele>
        <time>2016-04-18T12:06:10Z</time>
      </trkpt>
      <trkpt lat="39.457233" lon="3.18219">
        <ele>296.6</ele>
        <time>2016-04-18T12:06:11Z</time>
      </trkpt>
      <trkpt lat="39.457231" lon="3.182222">
        <ele>297.2</ele>
        <time>2016-04-18T12:06:12Z</time>
      </trkpt>
      <trkpt lat="39.457233" lon="3.182257">
        <ele>297.6</ele>
        <time>2016-04-18T12:06:13Z</time>
      </trkpt>
      <trkpt lat="39.457234" lon="3.182292">
        <ele>298</ele>
        <time>2016-04-18T12:06:14Z</time>
      </trkpt>
      <trkpt lat="39.457194" lon="3.182393">
        <ele>298</ele>
        <time>2016-04-18T12:06:17Z</time>
      </trkpt>
      <trkpt lat="39.457172" lon="3.182422">
        <ele>298.6</ele>
        <time>2016-04-18T12:06:18Z</time>
      </trkpt>
      <trkpt lat="39.457155" lon="3.182444">
        <ele>299</ele>
        <time>2016-04-18T12:06:19Z</time>
      </trkpt>
      <trkpt lat="39.457136" lon="3.182468">
        <ele>299.4</ele>
        <time>2016-04-18T12:06:20Z</time>
      </trkpt>
      <trkpt lat="39.457234" lon="3.182522">
        <ele>300</ele>
        <time>2016-04-18T12:06:21Z</time>
      </trkpt>
      <trkpt lat="39.457248" lon="3.182557">
        <ele>300.4</ele>
        <time>2016-04-18T12:06:22Z</time>
      </trkpt>
      <trkpt lat="39.457235" lon="3.182574">
        <ele>300.4</ele>
        <time>2016-04-18T12:06:23Z</time>
      </trkpt>
      <trkpt lat="39.457203" lon="3.182587">
        <ele>300.4</ele>
        <time>2016-04-18T12:06:24Z</time>
      </trkpt>
      <trkpt lat="39.457124" lon="3.182514">
        <ele>300.4</ele>
        <time>2016-04-18T12:06:27Z</time>
      </trkpt>
      <trkpt lat="39.457067" lon="3.182468">
        <ele>300.8</ele>
        <time>2016-04-18T12:06:29Z</time>
      </trkpt>
      <trkpt lat="39.457045" lon="3.18244">
        <ele>301.4</ele>
        <time>2016-04-18T12:06:30Z</time>
      </trkpt>
      <trkpt lat="39.457023" lon="3.182413">
        <ele>301.8</ele>
        <time>2016-04-18T12:06:31Z</time>
      </trkpt>
      <trkpt lat="39.456996" lon="3.182393">
        <ele>302.2</ele>
        <time>2016-04-18T12:06:32Z</time>
      </trkpt>
      <trkpt lat="39.456966" lon="3.182379">
        <ele>302.6</ele>
        <time>2016-04-18T12:06:33Z</time>
      </trkpt>
      <trkpt lat="39.456848" lon="3.182343">
        <ele>303</ele>
        <time>2016-04-18T12:06:37Z</time>
      </trkpt>
      <trkpt lat="39.456816" lon="3.182328">
        <ele>303.4</ele>
        <time>2016-04-18T12:06:38Z</time>
      </trkpt>
      <trkpt lat="39.456786" lon="3.182317">
        <ele>304</ele>
        <time>2016-04-18T12:06:39Z</time>
      </trkpt>
      <trkpt lat="39.456757" lon="3.182305">
        <ele>304.4</ele>
        <time>2016-04-18T12:06:40Z</time>
      </trkpt>
      <trkpt lat="39.45673" lon="3.182295">
        <ele>304.8</ele>
        <time>2016-04-18T12:06:41Z</time>
      </trkpt>
      <trkpt lat="39.456677" lon="3.182278">
        <ele>304.8</ele>
        <time>2016-04-18T12:06:43Z</time>
      </trkpt>
      <trkpt lat="39.456559" lon="3.182214">
        <ele>304.8</ele>
        <time>2016-04-18T12:06:47Z</time>
      </trkpt>
      <trkpt lat="39.45651" lon="3.182155">
        <ele>305.4</ele>
        <time>2016-04-18T12:06:49Z</time>
      </trkpt>
      <trkpt lat="39.456493" lon="3.182119">
        <ele>305.8</ele>
        <time>2016-04-18T12:06:50Z</time>
      </trkpt>
      <trkpt lat="39.456488" lon="3.182088">
        <ele>306.2</ele>
        <time>2016-04-18T12:06:51Z</time>
      </trkpt>
      <trkpt lat="39.456499" lon="3.182054">
        <ele>306.8</ele>
        <time>2016-04-18T12:06:52Z</time>
      </trkpt>
      <trkpt lat="39.456507" lon="3.18202">
        <ele>307.2</ele>
        <time>2016-04-18T12:06:53Z</time>
      </trkpt>
      <trkpt lat="39.456518" lon="3.181993">
        <ele>307.2</ele>
        <time>2016-04-18T12:06:54Z</time>
      </trkpt>
      <trkpt lat="39.456537" lon="3.181934">
        <ele>307.6</ele>
        <time>2016-04-18T12:06:56Z</time>
      </trkpt>
      <trkpt lat="39.456552" lon="3.181904">
        <ele>308</ele>
        <time>2016-04-18T12:06:57Z</time>
      </trkpt>
      <trkpt lat="39.456564" lon="3.181869">
        <ele>308.8</ele>
        <time>2016-04-18T12:06:58Z</time>
      </trkpt>
      <trkpt lat="39.456574" lon="3.18184">
        <ele>309.2</ele>
        <time>2016-04-18T12:06:59Z</time>
      </trkpt>
      <trkpt lat="39.456581" lon="3.181807">
        <ele>309.2</ele>
        <time>2016-04-18T12:07:00Z</time>
      </trkpt>
      <trkpt lat="39.456579" lon="3.181772">
        <ele>309.2</ele>
        <time>2016-04-18T12:07:01Z</time>
      </trkpt>
      <trkpt lat="39.456559" lon="3.181703">
        <ele>309.6</ele>
        <time>2016-04-18T12:07:03Z</time>
      </trkpt>
      <trkpt lat="39.456542" lon="3.181677">
        <ele>310</ele>
        <time>2016-04-18T12:07:04Z</time>
      </trkpt>
      <trkpt lat="39.456513" lon="3.181658">
        <ele>310.4</ele>
        <time>2016-04-18T12:07:05Z</time>
      </trkpt>
      <trkpt lat="39.456484" lon="3.181638">
        <ele>310.8</ele>
        <time>2016-04-18T12:07:06Z</time>
      </trkpt>
      <trkpt lat="39.456453" lon="3.181621">
        <ele>311.4</ele>
        <time>2016-04-18T12:07:07Z</time>
      </trkpt>
      <trkpt lat="39.456417" lon="3.181615">
        <ele>311.8</ele>
        <time>2016-04-18T12:07:08Z</time>
      </trkpt>
      <trkpt lat="39.456388" lon="3.181621">
        <ele>312.2</ele>
        <time>2016-04-18T12:07:09Z</time>
      </trkpt>
      <trkpt lat="39.456362" lon="3.181626">
        <ele>312.6</ele>
        <time>2016-04-18T12:07:10Z</time>
      </trkpt>
      <trkpt lat="39.456338" lon="3.181633">
        <ele>313</ele>
        <time>2016-04-18T12:07:11Z</time>
      </trkpt>
      <trkpt lat="39.456315" lon="3.181636">
        <ele>313.4</ele>
        <time>2016-04-18T12:07:12Z</time>
      </trkpt>
      <trkpt lat="39.456291" lon="3.181639">
        <ele>313.4</ele>
        <time>2016-04-18T12:07:13Z</time>
      </trkpt>
      <trkpt lat="39.456213" lon="3.181677">
        <ele>313.8</ele>
        <time>2016-04-18T12:07:16Z</time>
      </trkpt>
      <trkpt lat="39.456192" lon="3.181691">
        <ele>314.2</ele>
        <time>2016-04-18T12:07:17Z</time>
      </trkpt>
      <trkpt lat="39.456169" lon="3.181703">
        <ele>314.6</ele>
        <time>2016-04-18T12:07:18Z</time>
      </trkpt>
      <trkpt lat="39.456149" lon="3.181714">
        <ele>315</ele>
        <time>2016-04-18T12:07:19Z</time>
      </trkpt>
      <trkpt lat="39.456128" lon="3.18173">
        <ele>315.4</ele>
        <time>2016-04-18T12:07:20Z</time>
      </trkpt>
      <trkpt lat="39.456073" lon="3.181793">
        <ele>316.4</ele>
        <time>2016-04-18T12:07:23Z</time>
      </trkpt>
      <trkpt lat="39.45606" lon="3.18182">
        <ele>316.8</ele>
        <time>2016-04-18T12:07:24Z</time>
      </trkpt>
      <trkpt lat="39.456049" lon="3.181851">
        <ele>317.2</ele>
        <time>2016-04-18T12:07:25Z</time>
      </trkpt>
      <trkpt lat="39.456036" lon="3.181885">
        <ele>317.6</ele>
        <time>2016-04-18T12:07:26Z</time>
      </trkpt>
      <trkpt lat="39.456006" lon="3.182004">
        <ele>317.6</ele>
        <time>2016-04-18T12:07:29Z</time>
      </trkpt>
      <trkpt lat="39.455998" lon="3.182043">
        <ele>318</ele>
        <time>2016-04-18T12:07:30Z</time>
      </trkpt>
      <trkpt lat="39.455998" lon="3.18207">
        <ele>318.4</ele>
        <time>2016-04-18T12:07:31Z</time>
      </trkpt>
      <trkpt lat="39.455997" lon="3.182098">
        <ele>318.8</ele>
        <time>2016-04-18T12:07:32Z</time>
      </trkpt>
      <trkpt lat="39.455998" lon="3.182113">
        <ele>319.2</ele>
        <time>2016-04-18T12:07:33Z</time>
      </trkpt>
      <trkpt lat="39.455996" lon="3.182139">
        <ele>319.6</ele>
        <time>2016-04-18T12:07:34Z</time>
      </trkpt>
      <trkpt lat="39.45599" lon="3.182239">
        <ele>319.6</ele>
        <time>2016-04-18T12:07:38Z</time>
      </trkpt>
      <trkpt lat="39.455984" lon="3.182265">
        <ele>320</ele>
        <time>2016-04-18T12:07:39Z</time>
      </trkpt>
      <trkpt lat="39.45599" lon="3.182298">
        <ele>320.4</ele>
        <time>2016-04-18T12:07:40Z</time>
      </trkpt>
      <trkpt lat="39.456005" lon="3.18233">
        <ele>320.8</ele>
        <time>2016-04-18T12:07:41Z</time>
      </trkpt>
      <trkpt lat="39.456024" lon="3.182365">
        <ele>321.4</ele>
        <time>2016-04-18T12:07:42Z</time>
      </trkpt>
      <trkpt lat="39.456054" lon="3.182393">
        <ele>321.8</ele>
        <time>2016-04-18T12:07:43Z</time>
      </trkpt>
      <trkpt lat="39.456184" lon="3.182459">
        <ele>321.8</ele>
        <time>2016-04-18T12:07:47Z</time>
      </trkpt>
      <trkpt lat="39.45622" lon="3.182461">
        <ele>322.2</ele>
        <time>2016-04-18T12:07:48Z</time>
      </trkpt>
      <trkpt lat="39.456256" lon="3.182462">
        <ele>322.6</ele>
        <time>2016-04-18T12:07:49Z</time>
      </trkpt>
      <trkpt lat="39.456285" lon="3.182475">
        <ele>323</ele>
        <time>2016-04-18T12:07:50Z</time>
      </trkpt>
      <trkpt lat="39.45632" lon="3.182486">
        <ele>323.4</ele>
        <time>2016-04-18T12:07:51Z</time>
      </trkpt>
      <trkpt lat="39.456357" lon="3.182492">
        <ele>324</ele>
        <time>2016-04-18T12:07:52Z</time>
      </trkpt>
      <trkpt lat="39.456396" lon="3.182497">
        <ele>324</ele>
        <time>2016-04-18T12:07:53Z</time>
      </trkpt>
      <trkpt lat="39.456435" lon="3.18251">
        <ele>324.4</ele>
        <time>2016-04-18T12:07:54Z</time>
      </trkpt>
      <trkpt lat="39.45647" lon="3.182517">
        <ele>324.8</ele>
        <time>2016-04-18T12:07:55Z</time>
      </trkpt>
      <trkpt lat="39.456507" lon="3.182526">
        <ele>325.2</ele>
        <time>2016-04-18T12:07:56Z</time>
      </trkpt>
      <trkpt lat="39.456542" lon="3.182537">
        <ele>325.6</ele>
        <time>2016-04-18T12:07:57Z</time>
      </trkpt>
      <trkpt lat="39.456576" lon="3.182551">
        <ele>326</ele>
        <time>2016-04-18T12:07:58Z</time>
      </trkpt>
      <trkpt lat="39.456612" lon="3.182611">
        <ele>326</ele>
        <time>2016-04-18T12:08:00Z</time>
      </trkpt>
      <trkpt lat="39.456606" lon="3.182638">
        <ele>326</ele>
        <time>2016-04-18T12:08:01Z</time>
      </trkpt>
      <trkpt lat="39.456588" lon="3.182646">
        <ele>326.4</ele>
        <time>2016-04-18T12:08:02Z</time>
      </trkpt>
      <trkpt lat="39.456605" lon="3.182642">
        <ele>326.8</ele>
        <time>2016-04-18T12:08:03Z</time>
      </trkpt>
      <trkpt lat="39.456601" lon="3.182631">
        <ele>327.2</ele>
        <time>2016-04-18T12:08:04Z</time>
      </trkpt>
      <trkpt lat="39.456594" lon="3.182618">
        <ele>327.8</ele>
        <time>2016-04-18T12:08:05Z</time>
      </trkpt>
      <trkpt lat="39.456576" lon="3.18261">
        <ele>328.2</ele>
        <time>2016-04-18T12:08:06Z</time>
      </trkpt>
      <trkpt lat="39.456503" lon="3.18262">
        <ele>328.2</ele>
        <time>2016-04-18T12:08:08Z</time>
      </trkpt>
      <trkpt lat="39.456466" lon="3.182627">
        <ele>328.2</ele>
        <time>2016-04-18T12:08:09Z</time>
      </trkpt>
      <trkpt lat="39.456388" lon="3.182638">
        <ele>328.6</ele>
        <time>2016-04-18T12:08:11Z</time>
      </trkpt>
      <trkpt lat="39.456351" lon="3.182642">
        <ele>329.4</ele>
        <time>2016-04-18T12:08:12Z</time>
      </trkpt>
      <trkpt lat="39.456311" lon="3.182639">
        <ele>329.8</ele>
        <time>2016-04-18T12:08:13Z</time>
      </trkpt>
      <trkpt lat="39.456271" lon="3.18263">
        <ele>330.2</ele>
        <time>2016-04-18T12:08:14Z</time>
      </trkpt>
      <trkpt lat="39.456144" lon="3.182574">
        <ele>330.6</ele>
        <time>2016-04-18T12:08:18Z</time>
      </trkpt>
      <trkpt lat="39.456112" lon="3.182554">
        <ele>331.2</ele>
        <time>2016-04-18T12:08:19Z</time>
      </trkpt>
      <trkpt lat="39.456082" lon="3.182541">
        <ele>331.6</ele>
        <time>2016-04-18T12:08:20Z</time>
      </trkpt>
      <trkpt lat="39.456056" lon="3.182522">
        <ele>332</ele>
        <time>2016-04-18T12:08:21Z</time>
      </trkpt>
      <trkpt lat="39.456031" lon="3.18251">
        <ele>332.4</ele>
        <time>2016-04-18T12:08:22Z</time>
      </trkpt>
      <trkpt lat="39.455945" lon="3.182463">
        <ele>332.4</ele>
        <time>2016-04-18T12:08:25Z</time>
      </trkpt>
      <trkpt lat="39.455916" lon="3.182454">
        <ele>332.8</ele>
        <time>2016-04-18T12:08:26Z</time>
      </trkpt>
      <trkpt lat="39.45589" lon="3.182446">
        <ele>333.2</ele>
        <time>2016-04-18T12:08:27Z</time>
      </trkpt>
      <trkpt lat="39.455863" lon="3.182433">
        <ele>333.8</ele>
        <time>2016-04-18T12:08:28Z</time>
      </trkpt>
      <trkpt lat="39.455836" lon="3.182418">
        <ele>334.2</ele>
        <time>2016-04-18T12:08:29Z</time>
      </trkpt>
      <trkpt lat="39.455808" lon="3.182412">
        <ele>334.6</ele>
        <time>2016-04-18T12:08:30Z</time>
      </trkpt>
      <trkpt lat="39.455781" lon="3.182412">
        <ele>334.6</ele>
        <time>2016-04-18T12:08:31Z</time>
      </trkpt>
      <trkpt lat="39.455618" lon="3.182454">
        <ele>334.6</ele>
        <time>2016-04-18T12:08:37Z</time>
      </trkpt>
      <trkpt lat="39.455526" lon="3.182486">
        <ele>335</ele>
        <time>2016-04-18T12:08:40Z</time>
      </trkpt>
      <trkpt lat="39.455498" lon="3.18249">
        <ele>335.4</ele>
        <time>2016-04-18T12:08:41Z</time>
      </trkpt>
      <trkpt lat="39.45547" lon="3.182497">
        <ele>335.8</ele>
        <time>2016-04-18T12:08:42Z</time>
      </trkpt>
      <trkpt lat="39.455441" lon="3.182512">
        <ele>336.2</ele>
        <time>2016-04-18T12:08:43Z</time>
      </trkpt>
      <trkpt lat="39.455415" lon="3.182535">
        <ele>336.6</ele>
        <time>2016-04-18T12:08:44Z</time>
      </trkpt>
      <trkpt lat="39.455368" lon="3.182582">
        <ele>337</ele>
        <time>2016-04-18T12:08:46Z</time>
      </trkpt>
      <trkpt lat="39.455342" lon="3.182596">
        <ele>337.6</ele>
        <time>2016-04-18T12:08:47Z</time>
      </trkpt>
      <trkpt lat="39.455321" lon="3.182614">
        <ele>338</ele>
        <time>2016-04-18T12:08:48Z</time>
      </trkpt>
      <trkpt lat="39.455313" lon="3.182633">
        <ele>338.4</ele>
        <time>2016-04-18T12:08:49Z</time>
      </trkpt>
      <trkpt lat="39.455305" lon="3.182652">
        <ele>338.8</ele>
        <time>2016-04-18T12:08:50Z</time>
      </trkpt>
      <trkpt lat="39.455316" lon="3.182683">
        <ele>338.8</ele>
        <time>2016-04-18T12:08:51Z</time>
      </trkpt>
      <trkpt lat="39.455338" lon="3.182682">
        <ele>339.4</ele>
        <time>2016-04-18T12:08:53Z</time>
      </trkpt>
      <trkpt lat="39.455355" lon="3.182678">
        <ele>339.8</ele>
        <time>2016-04-18T12:08:54Z</time>
      </trkpt>
      <trkpt lat="39.455385" lon="3.182669">
        <ele>340.4</ele>
        <time>2016-04-18T12:08:55Z</time>
      </trkpt>
      <trkpt lat="39.455416" lon="3.182663">
        <ele>340.8</ele>
        <time>2016-04-18T12:08:56Z</time>
      </trkpt>
      <trkpt lat="39.455446" lon="3.182658">
        <ele>341.2</ele>
        <time>2016-04-18T12:08:57Z</time>
      </trkpt>
      <trkpt lat="39.455477" lon="3.182654">
        <ele>341.2</ele>
        <time>2016-04-18T12:08:58Z</time>
      </trkpt>
      <trkpt lat="39.455617" lon="3.182625">
        <ele>341.6</ele>
        <time>2016-04-18T12:09:03Z</time>
      </trkpt>
      <trkpt lat="39.455645" lon="3.182626">
        <ele>342.2</ele>
        <time>2016-04-18T12:09:04Z</time>
      </trkpt>
      <trkpt lat="39.455674" lon="3.182629">
        <ele>342.6</ele>
        <time>2016-04-18T12:09:05Z</time>
      </trkpt>
      <trkpt lat="39.455702" lon="3.182627">
        <ele>343</ele>
        <time>2016-04-18T12:09:06Z</time>
      </trkpt>
      <trkpt lat="39.455732" lon="3.182638">
        <ele>343.4</ele>
        <time>2016-04-18T12:09:07Z</time>
      </trkpt>
      <trkpt lat="39.455757" lon="3.182646">
        <ele>343.4</ele>
        <time>2016-04-18T12:09:08Z</time>
      </trkpt>
      <trkpt lat="39.455826" lon="3.182683">
        <ele>343.8</ele>
        <time>2016-04-18T12:09:11Z</time>
      </trkpt>
      <trkpt lat="39.455842" lon="3.182697">
        <ele>344.4</ele>
        <time>2016-04-18T12:09:12Z</time>
      </trkpt>
      <trkpt lat="39.455865" lon="3.182708">
        <ele>344.8</ele>
        <time>2016-04-18T12:09:13Z</time>
      </trkpt>
      <trkpt lat="39.45588" lon="3.182726">
        <ele>345.2</ele>
        <time>2016-04-18T12:09:14Z</time>
      </trkpt>
      <trkpt lat="39.455896" lon="3.182747">
        <ele>345.6</ele>
        <time>2016-04-18T12:09:15Z</time>
      </trkpt>
      <trkpt lat="39.45602" lon="3.182891">
        <ele>346</ele>
        <time>2016-04-18T12:09:21Z</time>
      </trkpt>
      <trkpt lat="39.456044" lon="3.18291">
        <ele>346.4</ele>
        <time>2016-04-18T12:09:22Z</time>
      </trkpt>
      <trkpt lat="39.456068" lon="3.182933">
        <ele>347</ele>
        <time>2016-04-18T12:09:23Z</time>
      </trkpt>
      <trkpt lat="39.456095" lon="3.182954">
        <ele>347.4</ele>
        <time>2016-04-18T12:09:24Z</time>
      </trkpt>
      <trkpt lat="39.45612" lon="3.182977">
        <ele>347.8</ele>
        <time>2016-04-18T12:09:25Z</time>
      </trkpt>
      <trkpt lat="39.45617" lon="3.183022">
        <ele>348.2</ele>
        <time>2016-04-18T12:09:27Z</time>
      </trkpt>
      <trkpt lat="39.456197" lon="3.183043">
        <ele>348.6</ele>
        <time>2016-04-18T12:09:28Z</time>
      </trkpt>
      <trkpt lat="39.456222" lon="3.183061">
        <ele>349</ele>
        <time>2016-04-18T12:09:29Z</time>
      </trkpt>
      <trkpt lat="39.456248" lon="3.183077">
        <ele>349.4</ele>
        <time>2016-04-18T12:09:30Z</time>
      </trkpt>
      <trkpt lat="39.456279" lon="3.18309">
        <ele>350</ele>
        <time>2016-04-18T12:09:31Z</time>
      </trkpt>
      <trkpt lat="39.456338" lon="3.1831">
        <ele>350</ele>
        <time>2016-04-18T12:09:33Z</time>
      </trkpt>
      <trkpt lat="39.456416" lon="3.183118">
        <ele>350.4</ele>
        <time>2016-04-18T12:09:36Z</time>
      </trkpt>
      <trkpt lat="39.456444" lon="3.183123">
        <ele>350.8</ele>
        <time>2016-04-18T12:09:37Z</time>
      </trkpt>
      <trkpt lat="39.456474" lon="3.18313">
        <ele>351.2</ele>
        <time>2016-04-18T12:09:38Z</time>
      </trkpt>
      <trkpt lat="39.456504" lon="3.183131">
        <ele>351.6</ele>
        <time>2016-04-18T12:09:39Z</time>
      </trkpt>
      <trkpt lat="39.456528" lon="3.183148">
        <ele>352</ele>
        <time>2016-04-18T12:09:40Z</time>
      </trkpt>
      <trkpt lat="39.456549" lon="3.183168">
        <ele>352</ele>
        <time>2016-04-18T12:09:41Z</time>
      </trkpt>
      <trkpt lat="39.456605" lon="3.183232">
        <ele>352.4</ele>
        <time>2016-04-18T12:09:44Z</time>
      </trkpt>
      <trkpt lat="39.456618" lon="3.183262">
        <ele>352.8</ele>
        <time>2016-04-18T12:09:45Z</time>
      </trkpt>
      <trkpt lat="39.456632" lon="3.183291">
        <ele>353.2</ele>
        <time>2016-04-18T12:09:46Z</time>
      </trkpt>
      <trkpt lat="39.456646" lon="3.183321">
        <ele>353.6</ele>
        <time>2016-04-18T12:09:47Z</time>
      </trkpt>
      <trkpt lat="39.456661" lon="3.183349">
        <ele>354</ele>
        <time>2016-04-18T12:09:48Z</time>
      </trkpt>
      <trkpt lat="39.456698" lon="3.183437">
        <ele>354.4</ele>
        <time>2016-04-18T12:09:51Z</time>
      </trkpt>
      <trkpt lat="39.456713" lon="3.183471">
        <ele>354.8</ele>
        <time>2016-04-18T12:09:52Z</time>
      </trkpt>
      <trkpt lat="39.456729" lon="3.183497">
        <ele>355.2</ele>
        <time>2016-04-18T12:09:53Z</time>
      </trkpt>
      <trkpt lat="39.456743" lon="3.183532">
        <ele>355.6</ele>
        <time>2016-04-18T12:09:54Z</time>
      </trkpt>
      <trkpt lat="39.456752" lon="3.183565">
        <ele>356</ele>
        <time>2016-04-18T12:09:55Z</time>
      </trkpt>
      <trkpt lat="39.456804" lon="3.183691">
        <ele>356</ele>
        <time>2016-04-18T12:09:59Z</time>
      </trkpt>
      <trkpt lat="39.456819" lon="3.183717">
        <ele>356.4</ele>
        <time>2016-04-18T12:10:00Z</time>
      </trkpt>
      <trkpt lat="39.456827" lon="3.183742">
        <ele>356.8</ele>
        <time>2016-04-18T12:10:01Z</time>
      </trkpt>
      <trkpt lat="39.456835" lon="3.183768">
        <ele>357.2</ele>
        <time>2016-04-18T12:10:02Z</time>
      </trkpt>
      <trkpt lat="39.456839" lon="3.183796">
        <ele>357.6</ele>
        <time>2016-04-18T12:10:03Z</time>
      </trkpt>
      <trkpt lat="39.456848" lon="3.183817">
        <ele>358.2</ele>
        <time>2016-04-18T12:10:04Z</time>
      </trkpt>
      <trkpt lat="39.456866" lon="3.183935">
        <ele>358.2</ele>
        <time>2016-04-18T12:10:08Z</time>
      </trkpt>
      <trkpt lat="39.456847" lon="3.183932">
        <ele>358.6</ele>
        <time>2016-04-18T12:10:09Z</time>
      </trkpt>
      <trkpt lat="39.45683" lon="3.183897">
        <ele>359</ele>
        <time>2016-04-18T12:10:10Z</time>
      </trkpt>
      <trkpt lat="39.45682" lon="3.183867">
        <ele>359.4</ele>
        <time>2016-04-18T12:10:11Z</time>
      </trkpt>
      <trkpt lat="39.45681" lon="3.183835">
        <ele>359.8</ele>
        <time>2016-04-18T12:10:12Z</time>
      </trkpt>
      <trkpt lat="39.456799" lon="3.183808">
        <ele>360.2</ele>
        <time>2016-04-18T12:10:13Z</time>
      </trkpt>
      <trkpt lat="39.456788" lon="3.183782">
        <ele>360.2</ele>
        <time>2016-04-18T12:10:14Z</time>
      </trkpt>
      <trkpt lat="39.456737" lon="3.183701">
        <ele>360.6</ele>
        <time>2016-04-18T12:10:17Z</time>
      </trkpt>
      <trkpt lat="39.456717" lon="3.18368">
        <ele>361.2</ele>
        <time>2016-04-18T12:10:18Z</time>
      </trkpt>
      <trkpt lat="39.456693" lon="3.183656">
        <ele>361.6</ele>
        <time>2016-04-18T12:10:19Z</time>
      </trkpt>
      <trkpt lat="39.456669" lon="3.183624">
        <ele>362</ele>
        <time>2016-04-18T12:10:20Z</time>
      </trkpt>
      <trkpt lat="39.45665" lon="3.183594">
        <ele>362.4</ele>
        <time>2016-04-18T12:10:21Z</time>
      </trkpt>
      <trkpt lat="39.45663" lon="3.183559">
        <ele>362.4</ele>
        <time>2016-04-18T12:10:22Z</time>
      </trkpt>
      <trkpt lat="39.456559" lon="3.183485">
        <ele>363</ele>
        <time>2016-04-18T12:10:25Z</time>
      </trkpt>
      <trkpt lat="39.456534" lon="3.183467">
        <ele>363.4</ele>
        <time>2016-04-18T12:10:26Z</time>
      </trkpt>
      <trkpt lat="39.456512" lon="3.183448">
        <ele>363.8</ele>
        <time>2016-04-18T12:10:27Z</time>
      </trkpt>
      <trkpt lat="39.456489" lon="3.183435">
        <ele>364.2</ele>
        <time>2016-04-18T12:10:28Z</time>
      </trkpt>
      <trkpt lat="39.456467" lon="3.183422">
        <ele>364.6</ele>
        <time>2016-04-18T12:10:29Z</time>
      </trkpt>
      <trkpt lat="39.456391" lon="3.18339">
        <ele>365</ele>
        <time>2016-04-18T12:10:32Z</time>
      </trkpt>
      <trkpt lat="39.456368" lon="3.18339">
        <ele>365.4</ele>
        <time>2016-04-18T12:10:33Z</time>
      </trkpt>
      <trkpt lat="39.456345" lon="3.183394">
        <ele>365.8</ele>
        <time>2016-04-18T12:10:34Z</time>
      </trkpt>
      <trkpt lat="39.456322" lon="3.183398">
        <ele>366.2</ele>
        <time>2016-04-18T12:10:35Z</time>
      </trkpt>
      <trkpt lat="39.456299" lon="3.183395">
        <ele>366.6</ele>
        <time>2016-04-18T12:10:36Z</time>
      </trkpt>
      <trkpt lat="39.456252" lon="3.183378">
        <ele>366.6</ele>
        <time>2016-04-18T12:10:38Z</time>
      </trkpt>
      <trkpt lat="39.456199" lon="3.183359">
        <ele>367</ele>
        <time>2016-04-18T12:10:40Z</time>
      </trkpt>
      <trkpt lat="39.456174" lon="3.183352">
        <ele>367.4</ele>
        <time>2016-04-18T12:10:41Z</time>
      </trkpt>
      <trkpt lat="39.456147" lon="3.183335">
        <ele>368</ele>
        <time>2016-04-18T12:10:42Z</time>
      </trkpt>
      <trkpt lat="39.456127" lon="3.183315">
        <ele>368.4</ele>
        <time>2016-04-18T12:10:43Z</time>
      </trkpt>
      <trkpt lat="39.456105" lon="3.183291">
        <ele>368.8</ele>
        <time>2016-04-18T12:10:44Z</time>
      </trkpt>
      <trkpt lat="39.456083" lon="3.183272">
        <ele>368.8</ele>
        <time>2016-04-18T12:10:45Z</time>
      </trkpt>
      <trkpt lat="39.455906" lon="3.18312">
        <ele>368.8</ele>
        <time>2016-04-18T12:10:52Z</time>
      </trkpt>
      <trkpt lat="39.455877" lon="3.183098">
        <ele>369.2</ele>
        <time>2016-04-18T12:10:53Z</time>
      </trkpt>
      <trkpt lat="39.455843" lon="3.183086">
        <ele>369.6</ele>
        <time>2016-04-18T12:10:54Z</time>
      </trkpt>
      <trkpt lat="39.455808" lon="3.183082">
        <ele>370</ele>
        <time>2016-04-18T12:10:55Z</time>
      </trkpt>
      <trkpt lat="39.455773" lon="3.18308">
        <ele>370.4</ele>
        <time>2016-04-18T12:10:56Z</time>
      </trkpt>
      <trkpt lat="39.455734" lon="3.183093">
        <ele>370.8</ele>
        <time>2016-04-18T12:10:57Z</time>
      </trkpt>
      <trkpt lat="39.455583" lon="3.18321">
        <ele>370.8</ele>
        <time>2016-04-18T12:11:02Z</time>
      </trkpt>
      <trkpt lat="39.455501" lon="3.183304">
        <ele>371.2</ele>
        <time>2016-04-18T12:11:05Z</time>
      </trkpt>
      <trkpt lat="39.455462" lon="3.183336">
        <ele>371.6</ele>
        <time>2016-04-18T12:11:06Z</time>
      </trkpt>
      <trkpt lat="39.455429" lon="3.18337">
        <ele>372.2</ele>
        <time>2016-04-18T12:11:07Z</time>
      </trkpt>
      <trkpt lat="39.455401" lon="3.183399">
        <ele>372.6</ele>
        <time>2016-04-18T12:11:08Z</time>
      </trkpt>
      <trkpt lat="39.455368" lon="3.183423">
        <ele>373</ele>
        <time>2016-04-18T12:11:09Z</time>
      </trkpt>
      <trkpt lat="39.455305" lon="3.18348">
        <ele>373</ele>
        <time>2016-04-18T12:11:11Z</time>
      </trkpt>
      <trkpt lat="39.455254" lon="3.183543">
        <ele>373.4</ele>
        <time>2016-04-18T12:11:13Z</time>
      </trkpt>
      <trkpt lat="39.45523" lon="3.183574">
        <ele>373.8</ele>
        <time>2016-04-18T12:11:14Z</time>
      </trkpt>
      <trkpt lat="39.455205" lon="3.183605">
        <ele>374.4</ele>
        <time>2016-04-18T12:11:15Z</time>
      </trkpt>
      <trkpt lat="39.45518" lon="3.18363">
        <ele>374.8</ele>
        <time>2016-04-18T12:11:16Z</time>
      </trkpt>
      <trkpt lat="39.455161" lon="3.183658">
        <ele>375.2</ele>
        <time>2016-04-18T12:11:17Z</time>
      </trkpt>
      <trkpt lat="39.455141" lon="3.183688">
        <ele>375.2</ele>
        <time>2016-04-18T12:11:18Z</time>
      </trkpt>
      <trkpt lat="39.454989" lon="3.183844">
        <ele>375.2</ele>
        <time>2016-04-18T12:11:24Z</time>
      </trkpt>
      <trkpt lat="39.454872" lon="3.183983">
        <ele>375.2</ele>
        <time>2016-04-18T12:11:29Z</time>
      </trkpt>
      <trkpt lat="39.454858" lon="3.183993">
        <ele>376</ele>
        <time>2016-04-18T12:11:30Z</time>
      </trkpt>
      <trkpt lat="39.454843" lon="3.184019">
        <ele>376.6</ele>
        <time>2016-04-18T12:11:31Z</time>
      </trkpt>
      <trkpt lat="39.454819" lon="3.184038">
        <ele>377</ele>
        <time>2016-04-18T12:11:32Z</time>
      </trkpt>
      <trkpt lat="39.454797" lon="3.184055">
        <ele>377.4</ele>
        <time>2016-04-18T12:11:33Z</time>
      </trkpt>
      <trkpt lat="39.454695" lon="3.184177">
        <ele>377.4</ele>
        <time>2016-04-18T12:11:38Z</time>
      </trkpt>
      <trkpt lat="39.454674" lon="3.184203">
        <ele>377.4</ele>
        <time>2016-04-18T12:11:39Z</time>
      </trkpt>
      <trkpt lat="39.454607" lon="3.18431">
        <ele>377.8</ele>
        <time>2016-04-18T12:11:42Z</time>
      </trkpt>
      <trkpt lat="39.454595" lon="3.184348">
        <ele>378.2</ele>
        <time>2016-04-18T12:11:43Z</time>
      </trkpt>
      <trkpt lat="39.45462" lon="3.184359">
        <ele>378.6</ele>
        <time>2016-04-18T12:11:44Z</time>
      </trkpt>
      <trkpt lat="39.454646" lon="3.184373">
        <ele>379</ele>
        <time>2016-04-18T12:11:45Z</time>
      </trkpt>
      <trkpt lat="39.45467" lon="3.184366">
        <ele>379.4</ele>
        <time>2016-04-18T12:11:46Z</time>
      </trkpt>
      <trkpt lat="39.454756" lon="3.184286">
        <ele>379.4</ele>
        <time>2016-04-18T12:11:49Z</time>
      </trkpt>
      <trkpt lat="39.454835" lon="3.184203">
        <ele>379.8</ele>
        <time>2016-04-18T12:11:52Z</time>
      </trkpt>
      <trkpt lat="39.454862" lon="3.184176">
        <ele>380.4</ele>
        <time>2016-04-18T12:11:53Z</time>
      </trkpt>
      <trkpt lat="39.454884" lon="3.18415">
        <ele>380.8</ele>
        <time>2016-04-18T12:11:54Z</time>
      </trkpt>
      <trkpt lat="39.454912" lon="3.184137">
        <ele>381.6</ele>
        <time>2016-04-18T12:11:55Z</time>
      </trkpt>
      <trkpt lat="39.454939" lon="3.184116">
        <ele>381.6</ele>
        <time>2016-04-18T12:11:56Z</time>
      </trkpt>
      <trkpt lat="39.455053" lon="3.184015">
        <ele>382.2</ele>
        <time>2016-04-18T12:12:00Z</time>
      </trkpt>
      <trkpt lat="39.455082" lon="3.183997">
        <ele>382.6</ele>
        <time>2016-04-18T12:12:01Z</time>
      </trkpt>
      <trkpt lat="39.45511" lon="3.183973">
        <ele>383</ele>
        <time>2016-04-18T12:12:02Z</time>
      </trkpt>
      <trkpt lat="39.455137" lon="3.18395">
        <ele>383.6</ele>
        <time>2016-04-18T12:12:03Z</time>
      </trkpt>
      <trkpt lat="39.455168" lon="3.183928">
        <ele>384</ele>
        <time>2016-04-18T12:12:04Z</time>
      </trkpt>
      <trkpt lat="39.455289" lon="3.183844">
        <ele>384.4</ele>
        <time>2016-04-18T12:12:08Z</time>
      </trkpt>
      <trkpt lat="39.45532" lon="3.183827">
        <ele>385</ele>
        <time>2016-04-18T12:12:09Z</time>
      </trkpt>
      <trkpt lat="39.455351" lon="3.183813">
        <ele>385.4</ele>
        <time>2016-04-18T12:12:10Z</time>
      </trkpt>
      <trkpt lat="39.455383" lon="3.183798">
        <ele>385.8</ele>
        <time>2016-04-18T12:12:11Z</time>
      </trkpt>
      <trkpt lat="39.455417" lon="3.18378">
        <ele>386.4</ele>
        <time>2016-04-18T12:12:12Z</time>
      </trkpt>
      <trkpt lat="39.455545" lon="3.183722">
        <ele>386.8</ele>
        <time>2016-04-18T12:12:16Z</time>
      </trkpt>
      <trkpt lat="39.455571" lon="3.18371">
        <ele>387.2</ele>
        <time>2016-04-18T12:12:17Z</time>
      </trkpt>
      <trkpt lat="39.455595" lon="3.183698">
        <ele>387.6</ele>
        <time>2016-04-18T12:12:18Z</time>
      </trkpt>
      <trkpt lat="39.455618" lon="3.183681">
        <ele>388</ele>
        <time>2016-04-18T12:12:19Z</time>
      </trkpt>
      <trkpt lat="39.455641" lon="3.183663">
        <ele>388.6</ele>
        <time>2016-04-18T12:12:20Z</time>
      </trkpt>
      <trkpt lat="39.455729" lon="3.183636">
        <ele>388.6</ele>
        <time>2016-04-18T12:12:23Z</time>
      </trkpt>
      <trkpt lat="39.455759" lon="3.183625">
        <ele>389</ele>
        <time>2016-04-18T12:12:24Z</time>
      </trkpt>
      <trkpt lat="39.455785" lon="3.18363">
        <ele>389.4</ele>
        <time>2016-04-18T12:12:25Z</time>
      </trkpt>
      <trkpt lat="39.455808" lon="3.183643">
        <ele>390</ele>
        <time>2016-04-18T12:12:26Z</time>
      </trkpt>
      <trkpt lat="39.455832" lon="3.18366">
        <ele>390.4</ele>
        <time>2016-04-18T12:12:27Z</time>
      </trkpt>
      <trkpt lat="39.455854" lon="3.183678">
        <ele>390.8</ele>
        <time>2016-04-18T12:12:28Z</time>
      </trkpt>
      <trkpt lat="39.455937" lon="3.183741">
        <ele>391.4</ele>
        <time>2016-04-18T12:12:32Z</time>
      </trkpt>
      <trkpt lat="39.455956" lon="3.183761">
        <ele>391.8</ele>
        <time>2016-04-18T12:12:33Z</time>
      </trkpt>
      <trkpt lat="39.455982" lon="3.183776">
        <ele>392.2</ele>
        <time>2016-04-18T12:12:34Z</time>
      </trkpt>
      <trkpt lat="39.456002" lon="3.183797">
        <ele>392.6</ele>
        <time>2016-04-18T12:12:35Z</time>
      </trkpt>
      <trkpt lat="39.456025" lon="3.183812">
        <ele>393</ele>
        <time>2016-04-18T12:12:36Z</time>
      </trkpt>
      <trkpt lat="39.456073" lon="3.183844">
        <ele>393</ele>
        <time>2016-04-18T12:12:38Z</time>
      </trkpt>
      <trkpt lat="39.456095" lon="3.183866">
        <ele>393.4</ele>
        <time>2016-04-18T12:12:39Z</time>
      </trkpt>
      <trkpt lat="39.456116" lon="3.183891">
        <ele>394</ele>
        <time>2016-04-18T12:12:40Z</time>
      </trkpt>
      <trkpt lat="39.45614" lon="3.183915">
        <ele>394.4</ele>
        <time>2016-04-18T12:12:41Z</time>
      </trkpt>
      <trkpt lat="39.456158" lon="3.183939">
        <ele>394.8</ele>
        <time>2016-04-18T12:12:42Z</time>
      </trkpt>
      <trkpt lat="39.456176" lon="3.183964">
        <ele>395.2</ele>
        <time>2016-04-18T12:12:43Z</time>
      </trkpt>
      <trkpt lat="39.456197" lon="3.18399">
        <ele>395.2</ele>
        <time>2016-04-18T12:12:44Z</time>
      </trkpt>
      <trkpt lat="39.456228" lon="3.184149">
        <ele>395.6</ele>
        <time>2016-04-18T12:12:49Z</time>
      </trkpt>
      <trkpt lat="39.456227" lon="3.18418">
        <ele>396</ele>
        <time>2016-04-18T12:12:50Z</time>
      </trkpt>
      <trkpt lat="39.456226" lon="3.18421">
        <ele>396.6</ele>
        <time>2016-04-18T12:12:51Z</time>
      </trkpt>
      <trkpt lat="39.456225" lon="3.184245">
        <ele>397</ele>
        <time>2016-04-18T12:12:52Z</time>
      </trkpt>
      <trkpt lat="39.456227" lon="3.184277">
        <ele>397.4</ele>
        <time>2016-04-18T12:12:53Z</time>
      </trkpt>
      <trkpt lat="39.456235" lon="3.18438">
        <ele>398</ele>
        <time>2016-04-18T12:12:56Z</time>
      </trkpt>
      <trkpt lat="39.45624" lon="3.184415">
        <ele>398.4</ele>
        <time>2016-04-18T12:12:57Z</time>
      </trkpt>
      <trkpt lat="39.456246" lon="3.184447">
        <ele>398.8</ele>
        <time>2016-04-18T12:12:58Z</time>
      </trkpt>
      <trkpt lat="39.456256" lon="3.184478">
        <ele>399.4</ele>
        <time>2016-04-18T12:12:59Z</time>
      </trkpt>
      <trkpt lat="39.45627" lon="3.184507">
        <ele>399.8</ele>
        <time>2016-04-18T12:13:00Z</time>
      </trkpt>
      <trkpt lat="39.456313" lon="3.1846">
        <ele>400.2</ele>
        <time>2016-04-18T12:13:03Z</time>
      </trkpt>
      <trkpt lat="39.456331" lon="3.184621">
        <ele>400.6</ele>
        <time>2016-04-18T12:13:04Z</time>
      </trkpt>
      <trkpt lat="39.456341" lon="3.184649">
        <ele>401</ele>
        <time>2016-04-18T12:13:05Z</time>
      </trkpt>
      <trkpt lat="39.456355" lon="3.184676">
        <ele>401.4</ele>
        <time>2016-04-18T12:13:06Z</time>
      </trkpt>
      <trkpt lat="39.456374" lon="3.184705">
        <ele>401.8</ele>
        <time>2016-04-18T12:13:07Z</time>
      </trkpt>
      <trkpt lat="39.456454" lon="3.18484">
        <ele>402.2</ele>
        <time>2016-04-18T12:13:12Z</time>
      </trkpt>
      <trkpt lat="39.456467" lon="3.184867">
        <ele>402.8</ele>
        <time>2016-04-18T12:13:13Z</time>
      </trkpt>
      <trkpt lat="39.456479" lon="3.18489">
        <ele>403.2</ele>
        <time>2016-04-18T12:13:14Z</time>
      </trkpt>
      <trkpt lat="39.456488" lon="3.184911">
        <ele>403.6</ele>
        <time>2016-04-18T12:13:15Z</time>
      </trkpt>
      <trkpt lat="39.456498" lon="3.184938">
        <ele>404</ele>
        <time>2016-04-18T12:13:16Z</time>
      </trkpt>
      <trkpt lat="39.456539" lon="3.185016">
        <ele>404</ele>
        <time>2016-04-18T12:13:19Z</time>
      </trkpt>
      <trkpt lat="39.456542" lon="3.185046">
        <ele>404.6</ele>
        <time>2016-04-18T12:13:20Z</time>
      </trkpt>
      <trkpt lat="39.456548" lon="3.185075">
        <ele>405</ele>
        <time>2016-04-18T12:13:21Z</time>
      </trkpt>
      <trkpt lat="39.456553" lon="3.185109">
        <ele>405.6</ele>
        <time>2016-04-18T12:13:22Z</time>
      </trkpt>
      <trkpt lat="39.45656" lon="3.185143">
        <ele>406</ele>
        <time>2016-04-18T12:13:23Z</time>
      </trkpt>
      <trkpt lat="39.456567" lon="3.185174">
        <ele>406.4</ele>
        <time>2016-04-18T12:13:24Z</time>
      </trkpt>
      <trkpt lat="39.456573" lon="3.185203">
        <ele>406.4</ele>
        <time>2016-04-18T12:13:25Z</time>
      </trkpt>
      <trkpt lat="39.456656" lon="3.185354">
        <ele>406.4</ele>
        <time>2016-04-18T12:13:31Z</time>
      </trkpt>
      <trkpt lat="39.456683" lon="3.185374">
        <ele>406.8</ele>
        <time>2016-04-18T12:13:32Z</time>
      </trkpt>
      <trkpt lat="39.456708" lon="3.185388">
        <ele>407.2</ele>
        <time>2016-04-18T12:13:33Z</time>
      </trkpt>
      <trkpt lat="39.456737" lon="3.185398">
        <ele>408</ele>
        <time>2016-04-18T12:13:34Z</time>
      </trkpt>
      <trkpt lat="39.456764" lon="3.185403">
        <ele>408.4</ele>
        <time>2016-04-18T12:13:35Z</time>
      </trkpt>
      <trkpt lat="39.4568" lon="3.185406">
        <ele>408.4</ele>
        <time>2016-04-18T12:13:36Z</time>
      </trkpt>
      <trkpt lat="39.456962" lon="3.185387">
        <ele>409</ele>
        <time>2016-04-18T12:13:41Z</time>
      </trkpt>
      <trkpt lat="39.456987" lon="3.185374">
        <ele>409.4</ele>
        <time>2016-04-18T12:13:42Z</time>
      </trkpt>
      <trkpt lat="39.457016" lon="3.185374">
        <ele>409.8</ele>
        <time>2016-04-18T12:13:43Z</time>
      </trkpt>
      <trkpt lat="39.457039" lon="3.185364">
        <ele>410.2</ele>
        <time>2016-04-18T12:13:44Z</time>
      </trkpt>
      <trkpt lat="39.457066" lon="3.18535">
        <ele>410.6</ele>
        <time>2016-04-18T12:13:45Z</time>
      </trkpt>
      <trkpt lat="39.457089" lon="3.185337">
        <ele>410.6</ele>
        <time>2016-04-18T12:13:46Z</time>
      </trkpt>
      <trkpt lat="39.457259" lon="3.185216">
        <ele>411</ele>
        <time>2016-04-18T12:13:54Z</time>
      </trkpt>
      <trkpt lat="39.457284" lon="3.185199">
        <ele>411.4</ele>
        <time>2016-04-18T12:13:55Z</time>
      </trkpt>
      <trkpt lat="39.457297" lon="3.185171">
        <ele>411.8</ele>
        <time>2016-04-18T12:13:56Z</time>
      </trkpt>
      <trkpt lat="39.457315" lon="3.185145">
        <ele>412.2</ele>
        <time>2016-04-18T12:13:57Z</time>
      </trkpt>
      <trkpt lat="39.457329" lon="3.185114">
        <ele>412.6</ele>
        <time>2016-04-18T12:13:58Z</time>
      </trkpt>
      <trkpt lat="39.45734" lon="3.185082">
        <ele>412.6</ele>
        <time>2016-04-18T12:13:59Z</time>
      </trkpt>
      <trkpt lat="39.457363" lon="3.18506">
        <ele>412.6</ele>
        <time>2016-04-18T12:14:00Z</time>
      </trkpt>
      <trkpt lat="39.457396" lon="3.185009">
        <ele>413</ele>
        <time>2016-04-18T12:14:02Z</time>
      </trkpt>
      <trkpt lat="39.457409" lon="3.184979">
        <ele>413.4</ele>
        <time>2016-04-18T12:14:03Z</time>
      </trkpt>
      <trkpt lat="39.457426" lon="3.184954">
        <ele>414</ele>
        <time>2016-04-18T12:14:04Z</time>
      </trkpt>
      <trkpt lat="39.457444" lon="3.184933">
        <ele>414.4</ele>
        <time>2016-04-18T12:14:05Z</time>
      </trkpt>
      <trkpt lat="39.457467" lon="3.184917">
        <ele>414.8</ele>
        <time>2016-04-18T12:14:06Z</time>
      </trkpt>
      <trkpt lat="39.457513" lon="3.184945">
        <ele>414.8</ele>
        <time>2016-04-18T12:14:08Z</time>
      </trkpt>
      <trkpt lat="39.457515" lon="3.185032">
        <ele>415.2</ele>
        <time>2016-04-18T12:14:11Z</time>
      </trkpt>
      <trkpt lat="39.457504" lon="3.185059">
        <ele>415.6</ele>
        <time>2016-04-18T12:14:12Z</time>
      </trkpt>
      <trkpt lat="39.45749" lon="3.185084">
        <ele>416</ele>
        <time>2016-04-18T12:14:13Z</time>
      </trkpt>
      <trkpt lat="39.457469" lon="3.185096">
        <ele>416.4</ele>
        <time>2016-04-18T12:14:14Z</time>
      </trkpt>
      <trkpt lat="39.457456" lon="3.185116">
        <ele>416.8</ele>
        <time>2016-04-18T12:14:15Z</time>
      </trkpt>
      <trkpt lat="39.457426" lon="3.185199">
        <ele>416.8</ele>
        <time>2016-04-18T12:14:18Z</time>
      </trkpt>
      <trkpt lat="39.457407" lon="3.185225">
        <ele>417.2</ele>
        <time>2016-04-18T12:14:19Z</time>
      </trkpt>
      <trkpt lat="39.457388" lon="3.185244">
        <ele>417.6</ele>
        <time>2016-04-18T12:14:20Z</time>
      </trkpt>
      <trkpt lat="39.457373" lon="3.185271">
        <ele>418</ele>
        <time>2016-04-18T12:14:21Z</time>
      </trkpt>
      <trkpt lat="39.457356" lon="3.185294">
        <ele>418.6</ele>
        <time>2016-04-18T12:14:22Z</time>
      </trkpt>
      <trkpt lat="39.457345" lon="3.185317">
        <ele>419</ele>
        <time>2016-04-18T12:14:23Z</time>
      </trkpt>
      <trkpt lat="39.457309" lon="3.185388">
        <ele>419</ele>
        <time>2016-04-18T12:14:26Z</time>
      </trkpt>
      <trkpt lat="39.45729" lon="3.185408">
        <ele>419.4</ele>
        <time>2016-04-18T12:14:27Z</time>
      </trkpt>
      <trkpt lat="39.457279" lon="3.185435">
        <ele>419.8</ele>
        <time>2016-04-18T12:14:28Z</time>
      </trkpt>
      <trkpt lat="39.457263" lon="3.185453">
        <ele>420.2</ele>
        <time>2016-04-18T12:14:29Z</time>
      </trkpt>
      <trkpt lat="39.457247" lon="3.185468">
        <ele>420.8</ele>
        <time>2016-04-18T12:14:30Z</time>
      </trkpt>
      <trkpt lat="39.457235" lon="3.185487">
        <ele>421.2</ele>
        <time>2016-04-18T12:14:31Z</time>
      </trkpt>
      <trkpt lat="39.457213" lon="3.185496">
        <ele>421.2</ele>
        <time>2016-04-18T12:14:32Z</time>
      </trkpt>
      <trkpt lat="39.457179" lon="3.185534">
        <ele>421.2</ele>
        <time>2016-04-18T12:14:35Z</time>
      </trkpt>
      <trkpt lat="39.457162" lon="3.185551">
        <ele>421.2</ele>
        <time>2016-04-18T12:14:36Z</time>
      </trkpt>
      <trkpt lat="39.457129" lon="3.185578">
        <ele>421.6</ele>
        <time>2016-04-18T12:14:38Z</time>
      </trkpt>
      <trkpt lat="39.457111" lon="3.185595">
        <ele>422</ele>
        <time>2016-04-18T12:14:39Z</time>
      </trkpt>
      <trkpt lat="39.457098" lon="3.18561">
        <ele>422.4</ele>
        <time>2016-04-18T12:14:40Z</time>
      </trkpt>
      <trkpt lat="39.45708" lon="3.185616">
        <ele>422.8</ele>
        <time>2016-04-18T12:14:41Z</time>
      </trkpt>
      <trkpt lat="39.457064" lon="3.185623">
        <ele>423.2</ele>
        <time>2016-04-18T12:14:42Z</time>
      </trkpt>
      <trkpt lat="39.457001" lon="3.185651">
        <ele>423.2</ele>
        <time>2016-04-18T12:14:45Z</time>
      </trkpt>
      <trkpt lat="39.456974" lon="3.185669">
        <ele>423.6</ele>
        <time>2016-04-18T12:14:46Z</time>
      </trkpt>
      <trkpt lat="39.456945" lon="3.18568">
        <ele>424</ele>
        <time>2016-04-18T12:14:47Z</time>
      </trkpt>
      <trkpt lat="39.456922" lon="3.185689">
        <ele>425</ele>
        <time>2016-04-18T12:14:48Z</time>
      </trkpt>
      <trkpt lat="39.456893" lon="3.185702">
        <ele>425.4</ele>
        <time>2016-04-18T12:14:49Z</time>
      </trkpt>
      <trkpt lat="39.456844" lon="3.185718">
        <ele>425.4</ele>
        <time>2016-04-18T12:14:51Z</time>
      </trkpt>
      <trkpt lat="39.45679" lon="3.185731">
        <ele>425.8</ele>
        <time>2016-04-18T12:14:53Z</time>
      </trkpt>
      <trkpt lat="39.45676" lon="3.185735">
        <ele>426.2</ele>
        <time>2016-04-18T12:14:54Z</time>
      </trkpt>
      <trkpt lat="39.456729" lon="3.185731">
        <ele>426.6</ele>
        <time>2016-04-18T12:14:55Z</time>
      </trkpt>
      <trkpt lat="39.456707" lon="3.185713">
        <ele>427</ele>
        <time>2016-04-18T12:14:56Z</time>
      </trkpt>
      <trkpt lat="39.456687" lon="3.185687">
        <ele>427.4</ele>
        <time>2016-04-18T12:14:57Z</time>
      </trkpt>
      <trkpt lat="39.45665" lon="3.185596">
        <ele>427.4</ele>
        <time>2016-04-18T12:15:00Z</time>
      </trkpt>
      <trkpt lat="39.45662" lon="3.185511">
        <ele>427.8</ele>
        <time>2016-04-18T12:15:03Z</time>
      </trkpt>
      <trkpt lat="39.456599" lon="3.185482">
        <ele>428.4</ele>
        <time>2016-04-18T12:15:04Z</time>
      </trkpt>
      <trkpt lat="39.456575" lon="3.185457">
        <ele>428.8</ele>
        <time>2016-04-18T12:15:05Z</time>
      </trkpt>
      <trkpt lat="39.456544" lon="3.185447">
        <ele>429.2</ele>
        <time>2016-04-18T12:15:06Z</time>
      </trkpt>
      <trkpt lat="39.456512" lon="3.185443">
        <ele>429.8</ele>
        <time>2016-04-18T12:15:07Z</time>
      </trkpt>
      <trkpt lat="39.456452" lon="3.185492">
        <ele>429.8</ele>
        <time>2016-04-18T12:15:10Z</time>
      </trkpt>
      <trkpt lat="39.45643" lon="3.185528">
        <ele>429.8</ele>
        <time>2016-04-18T12:15:11Z</time>
      </trkpt>
      <trkpt lat="39.456394" lon="3.185595">
        <ele>430.2</ele>
        <time>2016-04-18T12:15:13Z</time>
      </trkpt>
      <trkpt lat="39.456376" lon="3.18563">
        <ele>430.6</ele>
        <time>2016-04-18T12:15:14Z</time>
      </trkpt>
      <trkpt lat="39.456366" lon="3.185659">
        <ele>431</ele>
        <time>2016-04-18T12:15:15Z</time>
      </trkpt>
      <trkpt lat="39.456361" lon="3.185698">
        <ele>431.4</ele>
        <time>2016-04-18T12:15:16Z</time>
      </trkpt>
      <trkpt lat="39.456362" lon="3.185734">
        <ele>431.8</ele>
        <time>2016-04-18T12:15:17Z</time>
      </trkpt>
      <trkpt lat="39.456393" lon="3.185795">
        <ele>431.8</ele>
        <time>2016-04-18T12:15:20Z</time>
      </trkpt>
      <trkpt lat="39.456433" lon="3.185815">
        <ele>432.2</ele>
        <time>2016-04-18T12:15:22Z</time>
      </trkpt>
      <trkpt lat="39.456452" lon="3.185832">
        <ele>432.6</ele>
        <time>2016-04-18T12:15:23Z</time>
      </trkpt>
      <trkpt lat="39.456472" lon="3.185843">
        <ele>433</ele>
        <time>2016-04-18T12:15:24Z</time>
      </trkpt>
      <trkpt lat="39.456496" lon="3.185854">
        <ele>433.4</ele>
        <time>2016-04-18T12:15:25Z</time>
      </trkpt>
      <trkpt lat="39.456523" lon="3.185867">
        <ele>433.8</ele>
        <time>2016-04-18T12:15:26Z</time>
      </trkpt>
      <trkpt lat="39.456644" lon="3.185856">
        <ele>434.2</ele>
        <time>2016-04-18T12:15:30Z</time>
      </trkpt>
      <trkpt lat="39.456677" lon="3.185861">
        <ele>434.6</ele>
        <time>2016-04-18T12:15:31Z</time>
      </trkpt>
      <trkpt lat="39.456722" lon="3.185862">
        <ele>435</ele>
        <time>2016-04-18T12:15:32Z</time>
      </trkpt>
      <trkpt lat="39.456757" lon="3.185875">
        <ele>435.4</ele>
        <time>2016-04-18T12:15:33Z</time>
      </trkpt>
      <trkpt lat="39.456788" lon="3.185878">
        <ele>436</ele>
        <time>2016-04-18T12:15:34Z</time>
      </trkpt>
      <trkpt lat="39.456917" lon="3.185901">
        <ele>436.4</ele>
        <time>2016-04-18T12:15:38Z</time>
      </trkpt>
      <trkpt lat="39.456951" lon="3.185912">
        <ele>436.8</ele>
        <time>2016-04-18T12:15:39Z</time>
      </trkpt>
      <trkpt lat="39.456981" lon="3.185928">
        <ele>437.2</ele>
        <time>2016-04-18T12:15:40Z</time>
      </trkpt>
      <trkpt lat="39.457015" lon="3.185944">
        <ele>437.6</ele>
        <time>2016-04-18T12:15:41Z</time>
      </trkpt>
      <trkpt lat="39.457038" lon="3.18597">
        <ele>438</ele>
        <time>2016-04-18T12:15:42Z</time>
      </trkpt>
      <trkpt lat="39.457042" lon="3.186048">
        <ele>438</ele>
        <time>2016-04-18T12:15:44Z</time>
      </trkpt>
      <trkpt lat="39.457029" lon="3.186075">
        <ele>438.4</ele>
        <time>2016-04-18T12:15:45Z</time>
      </trkpt>
      <trkpt lat="39.45701" lon="3.186098">
        <ele>438.8</ele>
        <time>2016-04-18T12:15:46Z</time>
      </trkpt>
      <trkpt lat="39.456981" lon="3.186124">
        <ele>439.2</ele>
        <time>2016-04-18T12:15:47Z</time>
      </trkpt>
      <trkpt lat="39.456951" lon="3.186141">
        <ele>439.6</ele>
        <time>2016-04-18T12:15:48Z</time>
      </trkpt>
      <trkpt lat="39.456919" lon="3.186169">
        <ele>440.2</ele>
        <time>2016-04-18T12:15:49Z</time>
      </trkpt>
      <trkpt lat="39.45693" lon="3.186187">
        <ele>440.2</ele>
        <time>2016-04-18T12:15:51Z</time>
      </trkpt>
      <trkpt lat="39.456898" lon="3.186188">
        <ele>440.2</ele>
        <time>2016-04-18T12:15:52Z</time>
      </trkpt>
      <trkpt lat="39.456838" lon="3.186187">
        <ele>440.6</ele>
        <time>2016-04-18T12:15:54Z</time>
      </trkpt>
      <trkpt lat="39.456809" lon="3.186192">
        <ele>441</ele>
        <time>2016-04-18T12:15:55Z</time>
      </trkpt>
      <trkpt lat="39.45678" lon="3.186193">
        <ele>441.4</ele>
        <time>2016-04-18T12:15:56Z</time>
      </trkpt>
      <trkpt lat="39.456752" lon="3.186193">
        <ele>442</ele>
        <time>2016-04-18T12:15:57Z</time>
      </trkpt>
      <trkpt lat="39.456721" lon="3.186185">
        <ele>442.4</ele>
        <time>2016-04-18T12:15:58Z</time>
      </trkpt>
      <trkpt lat="39.456692" lon="3.186175">
        <ele>442.4</ele>
        <time>2016-04-18T12:15:59Z</time>
      </trkpt>
      <trkpt lat="39.456509" lon="3.186144">
        <ele>442.4</ele>
        <time>2016-04-18T12:16:05Z</time>
      </trkpt>
      <trkpt lat="39.456363" lon="3.186097">
        <ele>442.8</ele>
        <time>2016-04-18T12:16:10Z</time>
      </trkpt>
      <trkpt lat="39.456341" lon="3.186077">
        <ele>443.2</ele>
        <time>2016-04-18T12:16:11Z</time>
      </trkpt>
      <trkpt lat="39.456325" lon="3.186052">
        <ele>443.6</ele>
        <time>2016-04-18T12:16:12Z</time>
      </trkpt>
      <trkpt lat="39.456305" lon="3.186022">
        <ele>444</ele>
        <time>2016-04-18T12:16:13Z</time>
      </trkpt>
      <trkpt lat="39.456294" lon="3.185985">
        <ele>444.4</ele>
        <time>2016-04-18T12:16:14Z</time>
      </trkpt>
      <trkpt lat="39.456266" lon="3.185906">
        <ele>444.4</ele>
        <time>2016-04-18T12:16:16Z</time>
      </trkpt>
      <trkpt lat="39.456227" lon="3.185771">
        <ele>444.8</ele>
        <time>2016-04-18T12:16:19Z</time>
      </trkpt>
      <trkpt lat="39.45621" lon="3.185736">
        <ele>445.4</ele>
        <time>2016-04-18T12:16:20Z</time>
      </trkpt>
      <trkpt lat="39.456181" lon="3.185714">
        <ele>445.8</ele>
        <time>2016-04-18T12:16:21Z</time>
      </trkpt>
      <trkpt lat="39.456157" lon="3.185705">
        <ele>446.2</ele>
        <time>2016-04-18T12:16:22Z</time>
      </trkpt>
      <trkpt lat="39.456132" lon="3.185719">
        <ele>446.6</ele>
        <time>2016-04-18T12:16:23Z</time>
      </trkpt>
      <trkpt lat="39.456112" lon="3.185746">
        <ele>446.6</ele>
        <time>2016-04-18T12:16:24Z</time>
      </trkpt>
      <trkpt lat="39.456099" lon="3.18586">
        <ele>447.4</ele>
        <time>2016-04-18T12:16:27Z</time>
      </trkpt>
      <trkpt lat="39.45611" lon="3.185897">
        <ele>447.8</ele>
        <time>2016-04-18T12:16:28Z</time>
      </trkpt>
      <trkpt lat="39.456121" lon="3.18593">
        <ele>448.2</ele>
        <time>2016-04-18T12:16:29Z</time>
      </trkpt>
      <trkpt lat="39.456128" lon="3.185965">
        <ele>448.8</ele>
        <time>2016-04-18T12:16:30Z</time>
      </trkpt>
      <trkpt lat="39.456137" lon="3.185995">
        <ele>448.8</ele>
        <time>2016-04-18T12:16:31Z</time>
      </trkpt>
      <trkpt lat="39.456169" lon="3.186172">
        <ele>449.2</ele>
        <time>2016-04-18T12:16:36Z</time>
      </trkpt>
      <trkpt lat="39.456176" lon="3.186212">
        <ele>449.6</ele>
        <time>2016-04-18T12:16:37Z</time>
      </trkpt>
      <trkpt lat="39.456178" lon="3.186257">
        <ele>450</ele>
        <time>2016-04-18T12:16:38Z</time>
      </trkpt>
      <trkpt lat="39.456179" lon="3.186299">
        <ele>450.4</ele>
        <time>2016-04-18T12:16:39Z</time>
      </trkpt>
      <trkpt lat="39.456189" lon="3.186338">
        <ele>450.8</ele>
        <time>2016-04-18T12:16:40Z</time>
      </trkpt>
      <trkpt lat="39.4562" lon="3.18642">
        <ele>450.8</ele>
        <time>2016-04-18T12:16:42Z</time>
      </trkpt>
      <trkpt lat="39.456195" lon="3.186462">
        <ele>451.2</ele>
        <time>2016-04-18T12:16:43Z</time>
      </trkpt>
      <trkpt lat="39.456189" lon="3.186504">
        <ele>451.6</ele>
        <time>2016-04-18T12:16:44Z</time>
      </trkpt>
      <trkpt lat="39.456168" lon="3.186537">
        <ele>452</ele>
        <time>2016-04-18T12:16:45Z</time>
      </trkpt>
      <trkpt lat="39.456145" lon="3.186558">
        <ele>452.4</ele>
        <time>2016-04-18T12:16:46Z</time>
      </trkpt>
      <trkpt lat="39.456128" lon="3.18658">
        <ele>453</ele>
        <time>2016-04-18T12:16:47Z</time>
      </trkpt>
      <trkpt lat="39.456106" lon="3.186607">
        <ele>453.4</ele>
        <time>2016-04-18T12:16:50Z</time>
      </trkpt>
      <trkpt lat="39.456082" lon="3.186613">
        <ele>453.8</ele>
        <time>2016-04-18T12:16:51Z</time>
      </trkpt>
      <trkpt lat="39.456054" lon="3.186611">
        <ele>454.8</ele>
        <time>2016-04-18T12:16:52Z</time>
      </trkpt>
      <trkpt lat="39.456021" lon="3.186617">
        <ele>455.2</ele>
        <time>2016-04-18T12:16:53Z</time>
      </trkpt>
      <trkpt lat="39.455899" lon="3.186633">
        <ele>455.2</ele>
        <time>2016-04-18T12:16:57Z</time>
      </trkpt>
      <trkpt lat="39.45582" lon="3.186685">
        <ele>455.6</ele>
        <time>2016-04-18T12:17:00Z</time>
      </trkpt>
      <trkpt lat="39.455789" lon="3.186702">
        <ele>456</ele>
        <time>2016-04-18T12:17:01Z</time>
      </trkpt>
      <trkpt lat="39.455773" lon="3.186727">
        <ele>456.6</ele>
        <time>2016-04-18T12:17:02Z</time>
      </trkpt>
      <trkpt lat="39.455752" lon="3.186761">
        <ele>457</ele>
        <time>2016-04-18T12:17:03Z</time>
      </trkpt>
      <trkpt lat="39.455735" lon="3.186793">
        <ele>457.4</ele>
        <time>2016-04-18T12:17:04Z</time>
      </trkpt>
      <trkpt lat="39.455703" lon="3.186925">
        <ele>457.4</ele>
        <time>2016-04-18T12:17:07Z</time>
      </trkpt>
      <trkpt lat="39.455689" lon="3.18704">
        <ele>457.8</ele>
        <time>2016-04-18T12:17:09Z</time>
      </trkpt>
      <trkpt lat="39.455687" lon="3.187093">
        <ele>458.2</ele>
        <time>2016-04-18T12:17:10Z</time>
      </trkpt>
      <trkpt lat="39.455679" lon="3.187148">
        <ele>458.6</ele>
        <time>2016-04-18T12:17:11Z</time>
      </trkpt>
      <trkpt lat="39.455669" lon="3.187196">
        <ele>459</ele>
        <time>2016-04-18T12:17:12Z</time>
      </trkpt>
      <trkpt lat="39.455656" lon="3.187244">
        <ele>459.4</ele>
        <time>2016-04-18T12:17:13Z</time>
      </trkpt>
      <trkpt lat="39.455635" lon="3.187391">
        <ele>459.8</ele>
        <time>2016-04-18T12:17:16Z</time>
      </trkpt>
      <trkpt lat="39.455631" lon="3.18744">
        <ele>460.2</ele>
        <time>2016-04-18T12:17:17Z</time>
      </trkpt>
      <trkpt lat="39.455613" lon="3.187484">
        <ele>460.6</ele>
        <time>2016-04-18T12:17:18Z</time>
      </trkpt>
      <trkpt lat="39.455588" lon="3.187521">
        <ele>461</ele>
        <time>2016-04-18T12:17:19Z</time>
      </trkpt>
      <trkpt lat="39.455566" lon="3.187557">
        <ele>461.4</ele>
        <time>2016-04-18T12:17:20Z</time>
      </trkpt>
      <trkpt lat="39.455484" lon="3.18768">
        <ele>462</ele>
        <time>2016-04-18T12:17:24Z</time>
      </trkpt>
      <trkpt lat="39.455458" lon="3.187697">
        <ele>462.4</ele>
        <time>2016-04-18T12:17:25Z</time>
      </trkpt>
      <trkpt lat="39.455421" lon="3.187709">
        <ele>462.8</ele>
        <time>2016-04-18T12:17:26Z</time>
      </trkpt>
      <trkpt lat="39.455384" lon="3.187714">
        <ele>463.4</ele>
        <time>2016-04-18T12:17:27Z</time>
      </trkpt>
      <trkpt lat="39.455345" lon="3.187723">
        <ele>463.8</ele>
        <time>2016-04-18T12:17:28Z</time>
      </trkpt>
      <trkpt lat="39.455311" lon="3.187721">
        <ele>463.8</ele>
        <time>2016-04-18T12:17:29Z</time>
      </trkpt>
      <trkpt lat="39.455284" lon="3.187724">
        <ele>463.8</ele>
        <time>2016-04-18T12:17:30Z</time>
      </trkpt>
      <trkpt lat="39.455184" lon="3.187746">
        <ele>464.2</ele>
        <time>2016-04-18T12:17:33Z</time>
      </trkpt>
      <trkpt lat="39.455146" lon="3.187763">
        <ele>464.6</ele>
        <time>2016-04-18T12:17:34Z</time>
      </trkpt>
      <trkpt lat="39.455103" lon="3.187776">
        <ele>465</ele>
        <time>2016-04-18T12:17:35Z</time>
      </trkpt>
      <trkpt lat="39.45507" lon="3.187803">
        <ele>465.4</ele>
        <time>2016-04-18T12:17:36Z</time>
      </trkpt>
      <trkpt lat="39.455033" lon="3.187831">
        <ele>465.8</ele>
        <time>2016-04-18T12:17:37Z</time>
      </trkpt>
      <trkpt lat="39.454998" lon="3.187864">
        <ele>465.8</ele>
        <time>2016-04-18T12:17:38Z</time>
      </trkpt>
      <trkpt lat="39.454927" lon="3.187925">
        <ele>466.2</ele>
        <time>2016-04-18T12:17:40Z</time>
      </trkpt>
      <trkpt lat="39.454896" lon="3.187961">
        <ele>467.2</ele>
        <time>2016-04-18T12:17:41Z</time>
      </trkpt>
      <trkpt lat="39.45486" lon="3.187987">
        <ele>467.6</ele>
        <time>2016-04-18T12:17:42Z</time>
      </trkpt>
      <trkpt lat="39.454816" lon="3.187974">
        <ele>468.2</ele>
        <time>2016-04-18T12:17:43Z</time>
      </trkpt>
      <trkpt lat="39.454788" lon="3.187933">
        <ele>468.2</ele>
        <time>2016-04-18T12:17:44Z</time>
      </trkpt>
      <trkpt lat="39.454787" lon="3.187841">
        <ele>468.2</ele>
        <time>2016-04-18T12:17:47Z</time>
      </trkpt>
      <trkpt lat="39.454919" lon="3.18777">
        <ele>468.2</ele>
        <time>2016-04-18T12:17:50Z</time>
      </trkpt>
      <trkpt lat="39.454963" lon="3.187739">
        <ele>468.2</ele>
        <time>2016-04-18T12:17:51Z</time>
      </trkpt>
      <trkpt lat="39.455105" lon="3.187614">
        <ele>468.2</ele>
        <time>2016-04-18T12:17:55Z</time>
      </trkpt>
      <trkpt lat="39.455212" lon="3.187528">
        <ele>468.6</ele>
        <time>2016-04-18T12:17:58Z</time>
      </trkpt>
      <trkpt lat="39.455246" lon="3.187492">
        <ele>469</ele>
        <time>2016-04-18T12:17:59Z</time>
      </trkpt>
      <trkpt lat="39.455275" lon="3.187453">
        <ele>469.4</ele>
        <time>2016-04-18T12:18:00Z</time>
      </trkpt>
      <trkpt lat="39.455302" lon="3.187412">
        <ele>469.8</ele>
        <time>2016-04-18T12:18:01Z</time>
      </trkpt>
      <trkpt lat="39.455331" lon="3.187373">
        <ele>470.2</ele>
        <time>2016-04-18T12:18:02Z</time>
      </trkpt>
      <trkpt lat="39.455398" lon="3.187238">
        <ele>470.2</ele>
        <time>2016-04-18T12:18:05Z</time>
      </trkpt>
      <trkpt lat="39.455408" lon="3.187186">
        <ele>470.2</ele>
        <time>2016-04-18T12:18:06Z</time>
      </trkpt>
      <trkpt lat="39.455479" lon="3.186927">
        <ele>470.2</ele>
        <time>2016-04-18T12:18:11Z</time>
      </trkpt>
      <trkpt lat="39.455504" lon="3.186824">
        <ele>470.2</ele>
        <time>2016-04-18T12:18:13Z</time>
      </trkpt>
      <trkpt lat="39.455547" lon="3.18661">
        <ele>470.8</ele>
        <time>2016-04-18T12:18:18Z</time>
      </trkpt>
      <trkpt lat="39.455553" lon="3.186579">
        <ele>471.2</ele>
        <time>2016-04-18T12:18:19Z</time>
      </trkpt>
      <trkpt lat="39.45556" lon="3.186543">
        <ele>471.6</ele>
        <time>2016-04-18T12:18:20Z</time>
      </trkpt>
      <trkpt lat="39.455573" lon="3.18651">
        <ele>472.2</ele>
        <time>2016-04-18T12:18:21Z</time>
      </trkpt>
      <trkpt lat="39.455587" lon="3.186474">
        <ele>472.6</ele>
        <time>2016-04-18T12:18:22Z</time>
      </trkpt>
      <trkpt lat="39.455605" lon="3.1864">
        <ele>473</ele>
        <time>2016-04-18T12:18:24Z</time>
      </trkpt>
      <trkpt lat="39.455606" lon="3.186362">
        <ele>473.4</ele>
        <time>2016-04-18T12:18:25Z</time>
      </trkpt>
      <trkpt lat="39.455614" lon="3.186329">
        <ele>473.8</ele>
        <time>2016-04-18T12:18:26Z</time>
      </trkpt>
      <trkpt lat="39.45562" lon="3.186279">
        <ele>474.2</ele>
        <time>2016-04-18T12:18:27Z</time>
      </trkpt>
      <trkpt lat="39.455614" lon="3.186242">
        <ele>474.8</ele>
        <time>2016-04-18T12:18:28Z</time>
      </trkpt>
      <trkpt lat="39.4556" lon="3.186192">
        <ele>475.2</ele>
        <time>2016-04-18T12:18:29Z</time>
      </trkpt>
      <trkpt lat="39.455598" lon="3.18614">
        <ele>475.8</ele>
        <time>2016-04-18T12:18:30Z</time>
      </trkpt>
      <trkpt lat="39.455589" lon="3.186093">
        <ele>476.8</ele>
        <time>2016-04-18T12:18:31Z</time>
      </trkpt>
      <trkpt lat="39.455563" lon="3.186045">
        <ele>476.8</ele>
        <time>2016-04-18T12:18:34Z</time>
      </trkpt>
      <trkpt lat="39.455539" lon="3.186088">
        <ele>476.8</ele>
        <time>2016-04-18T12:18:37Z</time>
      </trkpt>
      <trkpt lat="39.455556" lon="3.186154">
        <ele>476.8</ele>
        <time>2016-04-18T12:18:40Z</time>
      </trkpt>
      <trkpt lat="39.455552" lon="3.186193">
        <ele>476.8</ele>
        <time>2016-04-18T12:18:42Z</time>
      </trkpt>
      <trkpt lat="39.455537" lon="3.1862">
        <ele>476.8</ele>
        <time>2016-04-18T12:18:43Z</time>
      </trkpt>
      <trkpt lat="39.455534" lon="3.186197">
        <ele>476.8</ele>
        <time>2016-04-18T12:18:45Z</time>
      </trkpt>
      <trkpt lat="39.455531" lon="3.186221">
        <ele>478.8</ele>
        <time>2016-04-18T12:21:00Z</time>
      </trkpt>
      <trkpt lat="39.455534" lon="3.186237">
        <ele>478.8</ele>
        <time>2016-04-18T12:21:01Z</time>
      </trkpt>
      <trkpt lat="39.455536" lon="3.186246">
        <ele>478.8</ele>
        <time>2016-04-18T12:21:03Z</time>
      </trkpt>
      <trkpt lat="39.455536" lon="3.186262">
        <ele>478.8</ele>
        <time>2016-04-18T12:21:05Z</time>
      </trkpt>
      <trkpt lat="39.455536" lon="3.186353">
        <ele>478.8</ele>
        <time>2016-04-18T12:22:41Z</time>
      </trkpt>
      <trkpt lat="39.455537" lon="3.186338">
        <ele>478.8</ele>
        <time>2016-04-18T12:22:42Z</time>
      </trkpt>
      <trkpt lat="39.455535" lon="3.186269">
        <ele>478.8</ele>
        <time>2016-04-18T12:22:49Z</time>
      </trkpt>
      <trkpt lat="39.45553" lon="3.186253">
        <ele>478.8</ele>
        <time>2016-04-18T12:22:51Z</time>
      </trkpt>
      <trkpt lat="39.455582" lon="3.186243">
        <ele>478.8</ele>
        <time>2016-04-18T12:24:04Z</time>
      </trkpt>
      <trkpt lat="39.455581" lon="3.186251">
        <ele>478.8</ele>
        <time>2016-04-18T12:24:05Z</time>
      </trkpt>
      <trkpt lat="39.455573" lon="3.186258">
        <ele>478.8</ele>
        <time>2016-04-18T12:24:07Z</time>
      </trkpt>
      <trkpt lat="39.455564" lon="3.186281">
        <ele>478.8</ele>
        <time>2016-04-18T12:24:11Z</time>
      </trkpt>
      <trkpt lat="39.45555" lon="3.186295">
        <ele>478.8</ele>
        <time>2016-04-18T12:24:12Z</time>
      </trkpt>
      <trkpt lat="39.455524" lon="3.186499">
        <ele>478.8</ele>
        <time>2016-04-18T12:24:14Z</time>
      </trkpt>
      <trkpt lat="39.45551" lon="3.186691">
        <ele>479.6</ele>
        <time>2016-04-18T12:40:57Z</time>
      </trkpt>
      <trkpt lat="39.455496" lon="3.186882">
        <ele>478.8</ele>
        <time>2016-04-18T12:40:58Z</time>
      </trkpt>
      <trkpt lat="39.455469" lon="3.186989">
        <ele>478.2</ele>
        <time>2016-04-18T12:40:59Z</time>
      </trkpt>
      <trkpt lat="39.455441" lon="3.18709">
        <ele>477.4</ele>
        <time>2016-04-18T12:41:00Z</time>
      </trkpt>
      <trkpt lat="39.455412" lon="3.187189">
        <ele>476.6</ele>
        <time>2016-04-18T12:41:01Z</time>
      </trkpt>
      <trkpt lat="39.455375" lon="3.187285">
        <ele>475.8</ele>
        <time>2016-04-18T12:41:02Z</time>
      </trkpt>
      <trkpt lat="39.455282" lon="3.187456">
        <ele>475.4</ele>
        <time>2016-04-18T12:41:04Z</time>
      </trkpt>
      <trkpt lat="39.455232" lon="3.187522">
        <ele>475</ele>
        <time>2016-04-18T12:41:05Z</time>
      </trkpt>
      <trkpt lat="39.455188" lon="3.187592">
        <ele>474.6</ele>
        <time>2016-04-18T12:41:06Z</time>
      </trkpt>
      <trkpt lat="39.455141" lon="3.187644">
        <ele>474</ele>
        <time>2016-04-18T12:41:07Z</time>
      </trkpt>
      <trkpt lat="39.455087" lon="3.187679">
        <ele>473.6</ele>
        <time>2016-04-18T12:41:08Z</time>
      </trkpt>
      <trkpt lat="39.455035" lon="3.187703">
        <ele>473.6</ele>
        <time>2016-04-18T12:41:09Z</time>
      </trkpt>
      <trkpt lat="39.454919" lon="3.187789">
        <ele>473.6</ele>
        <time>2016-04-18T12:41:12Z</time>
      </trkpt>
      <trkpt lat="39.454764" lon="3.187934">
        <ele>473.6</ele>
        <time>2016-04-18T12:41:16Z</time>
      </trkpt>
      <trkpt lat="39.454786" lon="3.188038">
        <ele>473.6</ele>
        <time>2016-04-18T12:41:19Z</time>
      </trkpt>
      <trkpt lat="39.45489" lon="3.187994">
        <ele>473.6</ele>
        <time>2016-04-18T12:41:22Z</time>
      </trkpt>
      <trkpt lat="39.454935" lon="3.187952">
        <ele>473.6</ele>
        <time>2016-04-18T12:41:23Z</time>
      </trkpt>
      <trkpt lat="39.455044" lon="3.187861">
        <ele>473.6</ele>
        <time>2016-04-18T12:41:25Z</time>
      </trkpt>
      <trkpt lat="39.455102" lon="3.187821">
        <ele>473</ele>
        <time>2016-04-18T12:41:26Z</time>
      </trkpt>
      <trkpt lat="39.455168" lon="3.187784">
        <ele>471.8</ele>
        <time>2016-04-18T12:41:27Z</time>
      </trkpt>
      <trkpt lat="39.455236" lon="3.18776">
        <ele>471.2</ele>
        <time>2016-04-18T12:41:28Z</time>
      </trkpt>
      <trkpt lat="39.455309" lon="3.187754">
        <ele>470.6</ele>
        <time>2016-04-18T12:41:29Z</time>
      </trkpt>
      <trkpt lat="39.455385" lon="3.187749">
        <ele>470.6</ele>
        <time>2016-04-18T12:41:30Z</time>
      </trkpt>
      <trkpt lat="39.455461" lon="3.187734">
        <ele>470</ele>
        <time>2016-04-18T12:41:31Z</time>
      </trkpt>
      <trkpt lat="39.455535" lon="3.187703">
        <ele>469.6</ele>
        <time>2016-04-18T12:41:32Z</time>
      </trkpt>
      <trkpt lat="39.455606" lon="3.187649">
        <ele>469.2</ele>
        <time>2016-04-18T12:41:33Z</time>
      </trkpt>
      <trkpt lat="39.455661" lon="3.187587">
        <ele>468.8</ele>
        <time>2016-04-18T12:41:34Z</time>
      </trkpt>
      <trkpt lat="39.455709" lon="3.187526">
        <ele>468.2</ele>
        <time>2016-04-18T12:41:35Z</time>
      </trkpt>
      <trkpt lat="39.455741" lon="3.187456">
        <ele>468.2</ele>
        <time>2016-04-18T12:41:36Z</time>
      </trkpt>
      <trkpt lat="39.455734" lon="3.187195">
        <ele>467.6</ele>
        <time>2016-04-18T12:41:39Z</time>
      </trkpt>
      <trkpt lat="39.455723" lon="3.187094">
        <ele>467</ele>
        <time>2016-04-18T12:41:40Z</time>
      </trkpt>
      <trkpt lat="39.455714" lon="3.186987">
        <ele>466.2</ele>
        <time>2016-04-18T12:41:41Z</time>
      </trkpt>
      <trkpt lat="39.455719" lon="3.186879">
        <ele>465.4</ele>
        <time>2016-04-18T12:41:42Z</time>
      </trkpt>
      <trkpt lat="39.455732" lon="3.186779">
        <ele>464.4</ele>
        <time>2016-04-18T12:41:43Z</time>
      </trkpt>
      <trkpt lat="39.455756" lon="3.186696">
        <ele>463.4</ele>
        <time>2016-04-18T12:41:44Z</time>
      </trkpt>
      <trkpt lat="39.455776" lon="3.186628">
        <ele>462.6</ele>
        <time>2016-04-18T12:41:45Z</time>
      </trkpt>
      <trkpt lat="39.455795" lon="3.186575">
        <ele>461.6</ele>
        <time>2016-04-18T12:41:46Z</time>
      </trkpt>
      <trkpt lat="39.455822" lon="3.186542">
        <ele>460.8</ele>
        <time>2016-04-18T12:41:47Z</time>
      </trkpt>
      <trkpt lat="39.455872" lon="3.18653">
        <ele>460</ele>
        <time>2016-04-18T12:41:48Z</time>
      </trkpt>
      <trkpt lat="39.455952" lon="3.186523">
        <ele>459.2</ele>
        <time>2016-04-18T12:41:49Z</time>
      </trkpt>
      <trkpt lat="39.456023" lon="3.186482">
        <ele>458.4</ele>
        <time>2016-04-18T12:41:50Z</time>
      </trkpt>
      <trkpt lat="39.456113" lon="3.186391">
        <ele>458.4</ele>
        <time>2016-04-18T12:41:52Z</time>
      </trkpt>
      <trkpt lat="39.456151" lon="3.186282">
        <ele>458.4</ele>
        <time>2016-04-18T12:41:54Z</time>
      </trkpt>
      <trkpt lat="39.456165" lon="3.186235">
        <ele>457.8</ele>
        <time>2016-04-18T12:41:55Z</time>
      </trkpt>
      <trkpt lat="39.456173" lon="3.186167">
        <ele>457.4</ele>
        <time>2016-04-18T12:41:56Z</time>
      </trkpt>
      <trkpt lat="39.456152" lon="3.186078">
        <ele>457</ele>
        <time>2016-04-18T12:41:57Z</time>
      </trkpt>
      <trkpt lat="39.45611" lon="3.185984">
        <ele>456.4</ele>
        <time>2016-04-18T12:41:58Z</time>
      </trkpt>
      <trkpt lat="39.456074" lon="3.185901">
        <ele>455.6</ele>
        <time>2016-04-18T12:41:59Z</time>
      </trkpt>
      <trkpt lat="39.456051" lon="3.185821">
        <ele>455</ele>
        <time>2016-04-18T12:42:00Z</time>
      </trkpt>
      <trkpt lat="39.456049" lon="3.18575">
        <ele>454.4</ele>
        <time>2016-04-18T12:42:01Z</time>
      </trkpt>
      <trkpt lat="39.456053" lon="3.1857">
        <ele>453.8</ele>
        <time>2016-04-18T12:42:02Z</time>
      </trkpt>
      <trkpt lat="39.456049" lon="3.185675">
        <ele>453.2</ele>
        <time>2016-04-18T12:42:03Z</time>
      </trkpt>
      <trkpt lat="39.456051" lon="3.185712">
        <ele>452.8</ele>
        <time>2016-04-18T12:42:04Z</time>
      </trkpt>
      <trkpt lat="39.456054" lon="3.185737">
        <ele>452.4</ele>
        <time>2016-04-18T12:42:05Z</time>
      </trkpt>
      <trkpt lat="39.456057" lon="3.185763">
        <ele>451.8</ele>
        <time>2016-04-18T12:42:06Z</time>
      </trkpt>
      <trkpt lat="39.456093" lon="3.185868">
        <ele>451</ele>
        <time>2016-04-18T12:42:07Z</time>
      </trkpt>
      <trkpt lat="39.456141" lon="3.185968">
        <ele>450.4</ele>
        <time>2016-04-18T12:42:08Z</time>
      </trkpt>
      <trkpt lat="39.456188" lon="3.186064">
        <ele>449.8</ele>
        <time>2016-04-18T12:42:09Z</time>
      </trkpt>
      <trkpt lat="39.45624" lon="3.186138">
        <ele>449.2</ele>
        <time>2016-04-18T12:42:10Z</time>
      </trkpt>
      <trkpt lat="39.456319" lon="3.186181">
        <ele>448.6</ele>
        <time>2016-04-18T12:42:11Z</time>
      </trkpt>
      <trkpt lat="39.456427" lon="3.18619">
        <ele>447.8</ele>
        <time>2016-04-18T12:42:12Z</time>
      </trkpt>
      <trkpt lat="39.456544" lon="3.186193">
        <ele>447.2</ele>
        <time>2016-04-18T12:42:13Z</time>
      </trkpt>
      <trkpt lat="39.456666" lon="3.186185">
        <ele>446.4</ele>
        <time>2016-04-18T12:42:14Z</time>
      </trkpt>
      <trkpt lat="39.456772" lon="3.186165">
        <ele>445.8</ele>
        <time>2016-04-18T12:42:15Z</time>
      </trkpt>
      <trkpt lat="39.456864" lon="3.186125">
        <ele>445</ele>
        <time>2016-04-18T12:42:16Z</time>
      </trkpt>
      <trkpt lat="39.456942" lon="3.186069">
        <ele>444.4</ele>
        <time>2016-04-18T12:42:17Z</time>
      </trkpt>
      <trkpt lat="39.457096" lon="3.185903">
        <ele>444.4</ele>
        <time>2016-04-18T12:42:20Z</time>
      </trkpt>
      <trkpt lat="39.457113" lon="3.185844">
        <ele>444</ele>
        <time>2016-04-18T12:42:21Z</time>
      </trkpt>
      <trkpt lat="39.457115" lon="3.185792">
        <ele>443.6</ele>
        <time>2016-04-18T12:42:22Z</time>
      </trkpt>
      <trkpt lat="39.457111" lon="3.185753">
        <ele>442.6</ele>
        <time>2016-04-18T12:42:23Z</time>
      </trkpt>
      <trkpt lat="39.457109" lon="3.185718">
        <ele>441.8</ele>
        <time>2016-04-18T12:42:24Z</time>
      </trkpt>
      <trkpt lat="39.457104" lon="3.185674">
        <ele>441</ele>
        <time>2016-04-18T12:42:25Z</time>
      </trkpt>
      <trkpt lat="39.457087" lon="3.185621">
        <ele>440.2</ele>
        <time>2016-04-18T12:42:26Z</time>
      </trkpt>
      <trkpt lat="39.457054" lon="3.185564">
        <ele>439.2</ele>
        <time>2016-04-18T12:42:27Z</time>
      </trkpt>
      <trkpt lat="39.457025" lon="3.185496">
        <ele>438.4</ele>
        <time>2016-04-18T12:42:28Z</time>
      </trkpt>
      <trkpt lat="39.456933" lon="3.185439">
        <ele>437.4</ele>
        <time>2016-04-18T12:42:29Z</time>
      </trkpt>
      <trkpt lat="39.456873" lon="3.185382">
        <ele>436.6</ele>
        <time>2016-04-18T12:42:30Z</time>
      </trkpt>
      <trkpt lat="39.456821" lon="3.185296">
        <ele>436.2</ele>
        <time>2016-04-18T12:42:32Z</time>
      </trkpt>
      <trkpt lat="39.456786" lon="3.18529">
        <ele>435.8</ele>
        <time>2016-04-18T12:42:33Z</time>
      </trkpt>
      <trkpt lat="39.456758" lon="3.185316">
        <ele>435.4</ele>
        <time>2016-04-18T12:42:34Z</time>
      </trkpt>
      <trkpt lat="39.456752" lon="3.185353">
        <ele>434.8</ele>
        <time>2016-04-18T12:42:35Z</time>
      </trkpt>
      <trkpt lat="39.456776" lon="3.18544">
        <ele>434.2</ele>
        <time>2016-04-18T12:42:36Z</time>
      </trkpt>
      <trkpt lat="39.456816" lon="3.185503">
        <ele>433.4</ele>
        <time>2016-04-18T12:42:37Z</time>
      </trkpt>
      <trkpt lat="39.456857" lon="3.185546">
        <ele>432.6</ele>
        <time>2016-04-18T12:42:38Z</time>
      </trkpt>
      <trkpt lat="39.456911" lon="3.185573">
        <ele>431.8</ele>
        <time>2016-04-18T12:42:39Z</time>
      </trkpt>
      <trkpt lat="39.456976" lon="3.185578">
        <ele>431.2</ele>
        <time>2016-04-18T12:42:40Z</time>
      </trkpt>
      <trkpt lat="39.457043" lon="3.185568">
        <ele>430.4</ele>
        <time>2016-04-18T12:42:41Z</time>
      </trkpt>
      <trkpt lat="39.457134" lon="3.185533">
        <ele>428.4</ele>
        <time>2016-04-18T12:42:42Z</time>
      </trkpt>
      <trkpt lat="39.457225" lon="3.185474">
        <ele>427.2</ele>
        <time>2016-04-18T12:42:43Z</time>
      </trkpt>
      <trkpt lat="39.457311" lon="3.185398">
        <ele>426.2</ele>
        <time>2016-04-18T12:42:44Z</time>
      </trkpt>
      <trkpt lat="39.457388" lon="3.185314">
        <ele>425</ele>
        <time>2016-04-18T12:42:45Z</time>
      </trkpt>
      <trkpt lat="39.457462" lon="3.18524">
        <ele>424</ele>
        <time>2016-04-18T12:42:46Z</time>
      </trkpt>
      <trkpt lat="39.457527" lon="3.185172">
        <ele>422.8</ele>
        <time>2016-04-18T12:42:47Z</time>
      </trkpt>
      <trkpt lat="39.457566" lon="3.185102">
        <ele>422.8</ele>
        <time>2016-04-18T12:42:48Z</time>
      </trkpt>
      <trkpt lat="39.457561" lon="3.184955">
        <ele>422.8</ele>
        <time>2016-04-18T12:42:50Z</time>
      </trkpt>
      <trkpt lat="39.457534" lon="3.184912">
        <ele>422.4</ele>
        <time>2016-04-18T12:42:51Z</time>
      </trkpt>
      <trkpt lat="39.457497" lon="3.184904">
        <ele>422</ele>
        <time>2016-04-18T12:42:52Z</time>
      </trkpt>
      <trkpt lat="39.457473" lon="3.184909">
        <ele>421.6</ele>
        <time>2016-04-18T12:42:53Z</time>
      </trkpt>
      <trkpt lat="39.457456" lon="3.184951">
        <ele>420.8</ele>
        <time>2016-04-18T12:42:54Z</time>
      </trkpt>
      <trkpt lat="39.457426" lon="3.185001">
        <ele>420</ele>
        <time>2016-04-18T12:42:55Z</time>
      </trkpt>
      <trkpt lat="39.457358" lon="3.185074">
        <ele>419.2</ele>
        <time>2016-04-18T12:42:56Z</time>
      </trkpt>
      <trkpt lat="39.45727" lon="3.185143">
        <ele>418.2</ele>
        <time>2016-04-18T12:42:57Z</time>
      </trkpt>
      <trkpt lat="39.457169" lon="3.185213">
        <ele>417.2</ele>
        <time>2016-04-18T12:42:58Z</time>
      </trkpt>
      <trkpt lat="39.457072" lon="3.185275">
        <ele>416.2</ele>
        <time>2016-04-18T12:42:59Z</time>
      </trkpt>
      <trkpt lat="39.456982" lon="3.185329">
        <ele>415.2</ele>
        <time>2016-04-18T12:43:00Z</time>
      </trkpt>
      <trkpt lat="39.456892" lon="3.18537">
        <ele>414</ele>
        <time>2016-04-18T12:43:01Z</time>
      </trkpt>
      <trkpt lat="39.4568" lon="3.185396">
        <ele>413.4</ele>
        <time>2016-04-18T12:43:02Z</time>
      </trkpt>
      <trkpt lat="39.456713" lon="3.185392">
        <ele>412.8</ele>
        <time>2016-04-18T12:43:03Z</time>
      </trkpt>
      <trkpt lat="39.456623" lon="3.185361">
        <ele>412.2</ele>
        <time>2016-04-18T12:43:04Z</time>
      </trkpt>
      <trkpt lat="39.45654" lon="3.185292">
        <ele>411.4</ele>
        <time>2016-04-18T12:43:05Z</time>
      </trkpt>
      <trkpt lat="39.456477" lon="3.185193">
        <ele>410.6</ele>
        <time>2016-04-18T12:43:06Z</time>
      </trkpt>
      <trkpt lat="39.456415" lon="3.185099">
        <ele>409</ele>
        <time>2016-04-18T12:43:07Z</time>
      </trkpt>
      <trkpt lat="39.45635" lon="3.184993">
        <ele>408.2</ele>
        <time>2016-04-18T12:43:08Z</time>
      </trkpt>
      <trkpt lat="39.456277" lon="3.184886">
        <ele>407</ele>
        <time>2016-04-18T12:43:09Z</time>
      </trkpt>
      <trkpt lat="39.456214" lon="3.184764">
        <ele>406</ele>
        <time>2016-04-18T12:43:10Z</time>
      </trkpt>
      <trkpt lat="39.456159" lon="3.184647">
        <ele>404.8</ele>
        <time>2016-04-18T12:43:11Z</time>
      </trkpt>
      <trkpt lat="39.456113" lon="3.184523">
        <ele>403.8</ele>
        <time>2016-04-18T12:43:12Z</time>
      </trkpt>
      <trkpt lat="39.456096" lon="3.184394">
        <ele>403</ele>
        <time>2016-04-18T12:43:13Z</time>
      </trkpt>
      <trkpt lat="39.456063" lon="3.184274">
        <ele>401.8</ele>
        <time>2016-04-18T12:43:14Z</time>
      </trkpt>
      <trkpt lat="39.456019" lon="3.184165">
        <ele>400.8</ele>
        <time>2016-04-18T12:43:15Z</time>
      </trkpt>
      <trkpt lat="39.455966" lon="3.184065">
        <ele>399.6</ele>
        <time>2016-04-18T12:43:16Z</time>
      </trkpt>
      <trkpt lat="39.455902" lon="3.183971">
        <ele>398.6</ele>
        <time>2016-04-18T12:43:17Z</time>
      </trkpt>
      <trkpt lat="39.45583" lon="3.183885">
        <ele>397.2</ele>
        <time>2016-04-18T12:43:18Z</time>
      </trkpt>
      <trkpt lat="39.455781" lon="3.183808">
        <ele>396</ele>
        <time>2016-04-18T12:43:19Z</time>
      </trkpt>
      <trkpt lat="39.455745" lon="3.183744">
        <ele>394.8</ele>
        <time>2016-04-18T12:43:20Z</time>
      </trkpt>
      <trkpt lat="39.455698" lon="3.183714">
        <ele>393.4</ele>
        <time>2016-04-18T12:43:21Z</time>
      </trkpt>
      <trkpt lat="39.455652" lon="3.183704">
        <ele>392.2</ele>
        <time>2016-04-18T12:43:22Z</time>
      </trkpt>
      <trkpt lat="39.455596" lon="3.183706">
        <ele>392.2</ele>
        <time>2016-04-18T12:43:23Z</time>
      </trkpt>
      <trkpt lat="39.455532" lon="3.183722">
        <ele>391.6</ele>
        <time>2016-04-18T12:43:24Z</time>
      </trkpt>
      <trkpt lat="39.455465" lon="3.183735">
        <ele>390.8</ele>
        <time>2016-04-18T12:43:25Z</time>
      </trkpt>
      <trkpt lat="39.455392" lon="3.183755">
        <ele>390</ele>
        <time>2016-04-18T12:43:26Z</time>
      </trkpt>
      <trkpt lat="39.455329" lon="3.183776">
        <ele>389</ele>
        <time>2016-04-18T12:43:27Z</time>
      </trkpt>
      <trkpt lat="39.455267" lon="3.183809">
        <ele>388.2</ele>
        <time>2016-04-18T12:43:28Z</time>
      </trkpt>
      <trkpt lat="39.455209" lon="3.183841">
        <ele>387.2</ele>
        <time>2016-04-18T12:43:29Z</time>
      </trkpt>
      <trkpt lat="39.455148" lon="3.18389">
        <ele>386.2</ele>
        <time>2016-04-18T12:43:30Z</time>
      </trkpt>
      <trkpt lat="39.455086" lon="3.183939">
        <ele>384.4</ele>
        <time>2016-04-18T12:43:31Z</time>
      </trkpt>
      <trkpt lat="39.455028" lon="3.18399">
        <ele>383.8</ele>
        <time>2016-04-18T12:43:32Z</time>
      </trkpt>
      <trkpt lat="39.454974" lon="3.184047">
        <ele>383.2</ele>
        <time>2016-04-18T12:43:33Z</time>
      </trkpt>
      <trkpt lat="39.454923" lon="3.18411">
        <ele>382.6</ele>
        <time>2016-04-18T12:43:34Z</time>
      </trkpt>
      <trkpt lat="39.454886" lon="3.184183">
        <ele>382</ele>
        <time>2016-04-18T12:43:35Z</time>
      </trkpt>
      <trkpt lat="39.454838" lon="3.184233">
        <ele>381.4</ele>
        <time>2016-04-18T12:43:36Z</time>
      </trkpt>
      <trkpt lat="39.454748" lon="3.18427">
        <ele>381.4</ele>
        <time>2016-04-18T12:43:39Z</time>
      </trkpt>
      <trkpt lat="39.454832" lon="3.184238">
        <ele>381.4</ele>
        <time>2016-04-18T12:43:41Z</time>
      </trkpt>
      <trkpt lat="39.45488" lon="3.184215">
        <ele>381</ele>
        <time>2016-04-18T12:43:42Z</time>
      </trkpt>
      <trkpt lat="39.454924" lon="3.184189">
        <ele>380.6</ele>
        <time>2016-04-18T12:43:43Z</time>
      </trkpt>
      <trkpt lat="39.454976" lon="3.184148">
        <ele>380</ele>
        <time>2016-04-18T12:43:44Z</time>
      </trkpt>
      <trkpt lat="39.455034" lon="3.184084">
        <ele>379.4</ele>
        <time>2016-04-18T12:43:45Z</time>
      </trkpt>
      <trkpt lat="39.455091" lon="3.184014">
        <ele>378.8</ele>
        <time>2016-04-18T12:43:46Z</time>
      </trkpt>
      <trkpt lat="39.455155" lon="3.183938">
        <ele>378.2</ele>
        <time>2016-04-18T12:43:47Z</time>
      </trkpt>
      <trkpt lat="39.455235" lon="3.183861">
        <ele>377.6</ele>
        <time>2016-04-18T12:43:48Z</time>
      </trkpt>
      <trkpt lat="39.455308" lon="3.183794">
        <ele>377</ele>
        <time>2016-04-18T12:43:49Z</time>
      </trkpt>
      <trkpt lat="39.455386" lon="3.183725">
        <ele>376.6</ele>
        <time>2016-04-18T12:43:50Z</time>
      </trkpt>
      <trkpt lat="39.455466" lon="3.183653">
        <ele>376.2</ele>
        <time>2016-04-18T12:43:51Z</time>
      </trkpt>
      <trkpt lat="39.455545" lon="3.183574">
        <ele>375.8</ele>
        <time>2016-04-18T12:43:52Z</time>
      </trkpt>
      <trkpt lat="39.455631" lon="3.183505">
        <ele>375.2</ele>
        <time>2016-04-18T12:43:53Z</time>
      </trkpt>
      <trkpt lat="39.455706" lon="3.183455">
        <ele>374.8</ele>
        <time>2016-04-18T12:43:54Z</time>
      </trkpt>
      <trkpt lat="39.455785" lon="3.183427">
        <ele>374.8</ele>
        <time>2016-04-18T12:43:55Z</time>
      </trkpt>
      <trkpt lat="39.455935" lon="3.183447">
        <ele>374.2</ele>
        <time>2016-04-18T12:43:57Z</time>
      </trkpt>
      <trkpt lat="39.456012" lon="3.183501">
        <ele>373.4</ele>
        <time>2016-04-18T12:43:58Z</time>
      </trkpt>
      <trkpt lat="39.456085" lon="3.183526">
        <ele>372.4</ele>
        <time>2016-04-18T12:43:59Z</time>
      </trkpt>
      <trkpt lat="39.456172" lon="3.183533">
        <ele>371.6</ele>
        <time>2016-04-18T12:44:00Z</time>
      </trkpt>
      <trkpt lat="39.456263" lon="3.183559">
        <ele>370.6</ele>
        <time>2016-04-18T12:44:01Z</time>
      </trkpt>
      <trkpt lat="39.456346" lon="3.183567">
        <ele>369.6</ele>
        <time>2016-04-18T12:44:02Z</time>
      </trkpt>
      <trkpt lat="39.456433" lon="3.18361">
        <ele>368.6</ele>
        <time>2016-04-18T12:44:03Z</time>
      </trkpt>
      <trkpt lat="39.456506" lon="3.18367">
        <ele>367.6</ele>
        <time>2016-04-18T12:44:04Z</time>
      </trkpt>
      <trkpt lat="39.456575" lon="3.183752">
        <ele>366.6</ele>
        <time>2016-04-18T12:44:05Z</time>
      </trkpt>
      <trkpt lat="39.456645" lon="3.18383">
        <ele>365.6</ele>
        <time>2016-04-18T12:44:06Z</time>
      </trkpt>
      <trkpt lat="39.456702" lon="3.183911">
        <ele>364.4</ele>
        <time>2016-04-18T12:44:07Z</time>
      </trkpt>
      <trkpt lat="39.456747" lon="3.18399">
        <ele>363.2</ele>
        <time>2016-04-18T12:44:08Z</time>
      </trkpt>
      <trkpt lat="39.456786" lon="3.184044">
        <ele>362</ele>
        <time>2016-04-18T12:44:09Z</time>
      </trkpt>
      <trkpt lat="39.456816" lon="3.184092">
        <ele>361</ele>
        <time>2016-04-18T12:44:10Z</time>
      </trkpt>
      <trkpt lat="39.456848" lon="3.184116">
        <ele>359.8</ele>
        <time>2016-04-18T12:44:11Z</time>
      </trkpt>
      <trkpt lat="39.456879" lon="3.184091">
        <ele>359.8</ele>
        <time>2016-04-18T12:44:12Z</time>
      </trkpt>
      <trkpt lat="39.456867" lon="3.184006">
        <ele>359.8</ele>
        <time>2016-04-18T12:44:14Z</time>
      </trkpt>
      <trkpt lat="39.456837" lon="3.183923">
        <ele>359.4</ele>
        <time>2016-04-18T12:44:15Z</time>
      </trkpt>
      <trkpt lat="39.456791" lon="3.183828">
        <ele>358.8</ele>
        <time>2016-04-18T12:44:16Z</time>
      </trkpt>
      <trkpt lat="39.45674" lon="3.183727">
        <ele>358.2</ele>
        <time>2016-04-18T12:44:17Z</time>
      </trkpt>
      <trkpt lat="39.456692" lon="3.183618">
        <ele>357.4</ele>
        <time>2016-04-18T12:44:18Z</time>
      </trkpt>
      <trkpt lat="39.456651" lon="3.183511">
        <ele>356.6</ele>
        <time>2016-04-18T12:44:19Z</time>
      </trkpt>
      <trkpt lat="39.4566" lon="3.18343">
        <ele>356</ele>
        <time>2016-04-18T12:44:20Z</time>
      </trkpt>
      <trkpt lat="39.456545" lon="3.183364">
        <ele>354.8</ele>
        <time>2016-04-18T12:44:21Z</time>
      </trkpt>
      <trkpt lat="39.456482" lon="3.183316">
        <ele>354.4</ele>
        <time>2016-04-18T12:44:22Z</time>
      </trkpt>
      <trkpt lat="39.456405" lon="3.183262">
        <ele>353.2</ele>
        <time>2016-04-18T12:44:23Z</time>
      </trkpt>
      <trkpt lat="39.456321" lon="3.183208">
        <ele>352</ele>
        <time>2016-04-18T12:44:24Z</time>
      </trkpt>
      <trkpt lat="39.456245" lon="3.183111">
        <ele>350.6</ele>
        <time>2016-04-18T12:44:25Z</time>
      </trkpt>
      <trkpt lat="39.456166" lon="3.183014">
        <ele>349.2</ele>
        <time>2016-04-18T12:44:26Z</time>
      </trkpt>
      <trkpt lat="39.456086" lon="3.182921">
        <ele>347.8</ele>
        <time>2016-04-18T12:44:27Z</time>
      </trkpt>
      <trkpt lat="39.456013" lon="3.182842">
        <ele>346.4</ele>
        <time>2016-04-18T12:44:28Z</time>
      </trkpt>
      <trkpt lat="39.45594" lon="3.182782">
        <ele>345</ele>
        <time>2016-04-18T12:44:29Z</time>
      </trkpt>
      <trkpt lat="39.455865" lon="3.182726">
        <ele>344.2</ele>
        <time>2016-04-18T12:44:30Z</time>
      </trkpt>
      <trkpt lat="39.455792" lon="3.182676">
        <ele>343.4</ele>
        <time>2016-04-18T12:44:31Z</time>
      </trkpt>
      <trkpt lat="39.455728" lon="3.182629">
        <ele>342.6</ele>
        <time>2016-04-18T12:44:32Z</time>
      </trkpt>
      <trkpt lat="39.45568" lon="3.182588">
        <ele>341.8</ele>
        <time>2016-04-18T12:44:33Z</time>
      </trkpt>
      <trkpt lat="39.455641" lon="3.182557">
        <ele>341.2</ele>
        <time>2016-04-18T12:44:34Z</time>
      </trkpt>
      <trkpt lat="39.455604" lon="3.182531">
        <ele>340.6</ele>
        <time>2016-04-18T12:44:35Z</time>
      </trkpt>
      <trkpt lat="39.455566" lon="3.182511">
        <ele>339.8</ele>
        <time>2016-04-18T12:44:36Z</time>
      </trkpt>
      <trkpt lat="39.455531" lon="3.182491">
        <ele>339.2</ele>
        <time>2016-04-18T12:44:37Z</time>
      </trkpt>
      <trkpt lat="39.455506" lon="3.182484">
        <ele>338.6</ele>
        <time>2016-04-18T12:44:38Z</time>
      </trkpt>
      <trkpt lat="39.455522" lon="3.182483">
        <ele>338.6</ele>
        <time>2016-04-18T12:44:41Z</time>
      </trkpt>
      <trkpt lat="39.455598" lon="3.182461">
        <ele>338</ele>
        <time>2016-04-18T12:44:43Z</time>
      </trkpt>
      <trkpt lat="39.455638" lon="3.182465">
        <ele>336.8</ele>
        <time>2016-04-18T12:44:44Z</time>
      </trkpt>
      <trkpt lat="39.45569" lon="3.182485">
        <ele>336</ele>
        <time>2016-04-18T12:44:45Z</time>
      </trkpt>
      <trkpt lat="39.455748" lon="3.182537">
        <ele>334.8</ele>
        <time>2016-04-18T12:44:46Z</time>
      </trkpt>
      <trkpt lat="39.455819" lon="3.182609">
        <ele>333.6</ele>
        <time>2016-04-18T12:44:47Z</time>
      </trkpt>
      <trkpt lat="39.455896" lon="3.182663">
        <ele>332.4</ele>
        <time>2016-04-18T12:44:48Z</time>
      </trkpt>
      <trkpt lat="39.455978" lon="3.182691">
        <ele>331</ele>
        <time>2016-04-18T12:44:49Z</time>
      </trkpt>
      <trkpt lat="39.456052" lon="3.18268">
        <ele>329.6</ele>
        <time>2016-04-18T12:44:50Z</time>
      </trkpt>
      <trkpt lat="39.456133" lon="3.182707">
        <ele>328.4</ele>
        <time>2016-04-18T12:44:51Z</time>
      </trkpt>
      <trkpt lat="39.456219" lon="3.182744">
        <ele>327</ele>
        <time>2016-04-18T12:44:52Z</time>
      </trkpt>
      <trkpt lat="39.456303" lon="3.182761">
        <ele>325.6</ele>
        <time>2016-04-18T12:44:53Z</time>
      </trkpt>
      <trkpt lat="39.456369" lon="3.182746">
        <ele>324.2</ele>
        <time>2016-04-18T12:44:54Z</time>
      </trkpt>
      <trkpt lat="39.45642" lon="3.182717">
        <ele>324.2</ele>
        <time>2016-04-18T12:44:55Z</time>
      </trkpt>
      <trkpt lat="39.456482" lon="3.182652">
        <ele>324.2</ele>
        <time>2016-04-18T12:44:57Z</time>
      </trkpt>
      <trkpt lat="39.456486" lon="3.182616">
        <ele>324.2</ele>
        <time>2016-04-18T12:44:58Z</time>
      </trkpt>
      <trkpt lat="39.456454" lon="3.182524">
        <ele>323.8</ele>
        <time>2016-04-18T12:45:01Z</time>
      </trkpt>
      <trkpt lat="39.456412" lon="3.182478">
        <ele>323.2</ele>
        <time>2016-04-18T12:45:02Z</time>
      </trkpt>
      <trkpt lat="39.456358" lon="3.182424">
        <ele>322.4</ele>
        <time>2016-04-18T12:45:03Z</time>
      </trkpt>
      <trkpt lat="39.456292" lon="3.182343">
        <ele>321.6</ele>
        <time>2016-04-18T12:45:04Z</time>
      </trkpt>
      <trkpt lat="39.456242" lon="3.182255">
        <ele>320.6</ele>
        <time>2016-04-18T12:45:05Z</time>
      </trkpt>
      <trkpt lat="39.456199" lon="3.182167">
        <ele>319.6</ele>
        <time>2016-04-18T12:45:06Z</time>
      </trkpt>
      <trkpt lat="39.456169" lon="3.182077">
        <ele>318.6</ele>
        <time>2016-04-18T12:45:07Z</time>
      </trkpt>
      <trkpt lat="39.456149" lon="3.181998">
        <ele>317.4</ele>
        <time>2016-04-18T12:45:08Z</time>
      </trkpt>
      <trkpt lat="39.456169" lon="3.181929">
        <ele>315.2</ele>
        <time>2016-04-18T12:45:09Z</time>
      </trkpt>
      <trkpt lat="39.456204" lon="3.181867">
        <ele>314.6</ele>
        <time>2016-04-18T12:45:10Z</time>
      </trkpt>
      <trkpt lat="39.45626" lon="3.181803">
        <ele>313.8</ele>
        <time>2016-04-18T12:45:11Z</time>
      </trkpt>
      <trkpt lat="39.456356" lon="3.181772">
        <ele>313</ele>
        <time>2016-04-18T12:45:12Z</time>
      </trkpt>
      <trkpt lat="39.456436" lon="3.181771">
        <ele>312.4</ele>
        <time>2016-04-18T12:45:13Z</time>
      </trkpt>
      <trkpt lat="39.456517" lon="3.181785">
        <ele>311.6</ele>
        <time>2016-04-18T12:45:14Z</time>
      </trkpt>
      <trkpt lat="39.456588" lon="3.181802">
        <ele>311</ele>
        <time>2016-04-18T12:45:15Z</time>
      </trkpt>
      <trkpt lat="39.45664" lon="3.181818">
        <ele>310.2</ele>
        <time>2016-04-18T12:45:16Z</time>
      </trkpt>
      <trkpt lat="39.456669" lon="3.181836">
        <ele>309.4</ele>
        <time>2016-04-18T12:45:17Z</time>
      </trkpt>
      <trkpt lat="39.456699" lon="3.181858">
        <ele>309</ele>
        <time>2016-04-18T12:45:18Z</time>
      </trkpt>
      <trkpt lat="39.456718" lon="3.181898">
        <ele>308.4</ele>
        <time>2016-04-18T12:45:19Z</time>
      </trkpt>
      <trkpt lat="39.456748" lon="3.18196">
        <ele>307.8</ele>
        <time>2016-04-18T12:45:20Z</time>
      </trkpt>
      <trkpt lat="39.45679" lon="3.182037">
        <ele>307</ele>
        <time>2016-04-18T12:45:21Z</time>
      </trkpt>
      <trkpt lat="39.456833" lon="3.182111">
        <ele>306.4</ele>
        <time>2016-04-18T12:45:22Z</time>
      </trkpt>
      <trkpt lat="39.456882" lon="3.182167">
        <ele>305.4</ele>
        <time>2016-04-18T12:45:23Z</time>
      </trkpt>
      <trkpt lat="39.45693" lon="3.182225">
        <ele>304.6</ele>
        <time>2016-04-18T12:45:24Z</time>
      </trkpt>
      <trkpt lat="39.456992" lon="3.182288">
        <ele>303.6</ele>
        <time>2016-04-18T12:45:25Z</time>
      </trkpt>
      <trkpt lat="39.457073" lon="3.182331">
        <ele>302.6</ele>
        <time>2016-04-18T12:45:26Z</time>
      </trkpt>
      <trkpt lat="39.457152" lon="3.182378">
        <ele>301.6</ele>
        <time>2016-04-18T12:45:27Z</time>
      </trkpt>
      <trkpt lat="39.457226" lon="3.182414">
        <ele>300.8</ele>
        <time>2016-04-18T12:45:28Z</time>
      </trkpt>
      <trkpt lat="39.457292" lon="3.182449">
        <ele>299.8</ele>
        <time>2016-04-18T12:45:29Z</time>
      </trkpt>
      <trkpt lat="39.45735" lon="3.182485">
        <ele>299.4</ele>
        <time>2016-04-18T12:45:30Z</time>
      </trkpt>
      <trkpt lat="39.457398" lon="3.182499">
        <ele>299</ele>
        <time>2016-04-18T12:45:31Z</time>
      </trkpt>
      <trkpt lat="39.457441" lon="3.18249">
        <ele>298.6</ele>
        <time>2016-04-18T12:45:32Z</time>
      </trkpt>
      <trkpt lat="39.457482" lon="3.182471">
        <ele>298</ele>
        <time>2016-04-18T12:45:33Z</time>
      </trkpt>
      <trkpt lat="39.45752" lon="3.182429">
        <ele>296.2</ele>
        <time>2016-04-18T12:45:34Z</time>
      </trkpt>
      <trkpt lat="39.457541" lon="3.182363">
        <ele>295.2</ele>
        <time>2016-04-18T12:45:35Z</time>
      </trkpt>
      <trkpt lat="39.457545" lon="3.182272">
        <ele>293.8</ele>
        <time>2016-04-18T12:45:36Z</time>
      </trkpt>
      <trkpt lat="39.457529" lon="3.182163">
        <ele>292.6</ele>
        <time>2016-04-18T12:45:37Z</time>
      </trkpt>
      <trkpt lat="39.457507" lon="3.18204">
        <ele>291.2</ele>
        <time>2016-04-18T12:45:38Z</time>
      </trkpt>
      <trkpt lat="39.457486" lon="3.181915">
        <ele>290</ele>
        <time>2016-04-18T12:45:39Z</time>
      </trkpt>
      <trkpt lat="39.457467" lon="3.181787">
        <ele>288.8</ele>
        <time>2016-04-18T12:45:40Z</time>
      </trkpt>
      <trkpt lat="39.457464" lon="3.18166">
        <ele>287.6</ele>
        <time>2016-04-18T12:45:41Z</time>
      </trkpt>
      <trkpt lat="39.457481" lon="3.181547">
        <ele>286.8</ele>
        <time>2016-04-18T12:45:42Z</time>
      </trkpt>
      <trkpt lat="39.457522" lon="3.181438">
        <ele>286.2</ele>
        <time>2016-04-18T12:45:43Z</time>
      </trkpt>
      <trkpt lat="39.457557" lon="3.181328">
        <ele>285.4</ele>
        <time>2016-04-18T12:45:44Z</time>
      </trkpt>
      <trkpt lat="39.457608" lon="3.181216">
        <ele>284.6</ele>
        <time>2016-04-18T12:45:45Z</time>
      </trkpt>
      <trkpt lat="39.457655" lon="3.181112">
        <ele>284</ele>
        <time>2016-04-18T12:45:46Z</time>
      </trkpt>
      <trkpt lat="39.457717" lon="3.181031">
        <ele>283.2</ele>
        <time>2016-04-18T12:45:47Z</time>
      </trkpt>
      <trkpt lat="39.457784" lon="3.180972">
        <ele>282.6</ele>
        <time>2016-04-18T12:45:48Z</time>
      </trkpt>
      <trkpt lat="39.457855" lon="3.180922">
        <ele>281.4</ele>
        <time>2016-04-18T12:45:49Z</time>
      </trkpt>
      <trkpt lat="39.457941" lon="3.180885">
        <ele>280.4</ele>
        <time>2016-04-18T12:45:50Z</time>
      </trkpt>
      <trkpt lat="39.458025" lon="3.180859">
        <ele>279.2</ele>
        <time>2016-04-18T12:45:51Z</time>
      </trkpt>
      <trkpt lat="39.458107" lon="3.18086">
        <ele>278</ele>
        <time>2016-04-18T12:45:52Z</time>
      </trkpt>
      <trkpt lat="39.458187" lon="3.180893">
        <ele>276.6</ele>
        <time>2016-04-18T12:45:53Z</time>
      </trkpt>
      <trkpt lat="39.458256" lon="3.180932">
        <ele>275.4</ele>
        <time>2016-04-18T12:45:54Z</time>
      </trkpt>
      <trkpt lat="39.45832" lon="3.180987">
        <ele>275.6</ele>
        <time>2016-04-18T12:45:55Z</time>
      </trkpt>
      <trkpt lat="39.458387" lon="3.181011">
        <ele>275.8</ele>
        <time>2016-04-18T12:45:56Z</time>
      </trkpt>
      <trkpt lat="39.458444" lon="3.181021">
        <ele>276</ele>
        <time>2016-04-18T12:45:57Z</time>
      </trkpt>
      <trkpt lat="39.458499" lon="3.181025">
        <ele>276.2</ele>
        <time>2016-04-18T12:45:58Z</time>
      </trkpt>
      <trkpt lat="39.458539" lon="3.181018">
        <ele>276.6</ele>
        <time>2016-04-18T12:45:59Z</time>
      </trkpt>
      <trkpt lat="39.458518" lon="3.180962">
        <ele>276</ele>
        <time>2016-04-18T12:46:00Z</time>
      </trkpt>
      <trkpt lat="39.458487" lon="3.180914">
        <ele>275.4</ele>
        <time>2016-04-18T12:46:01Z</time>
      </trkpt>
      <trkpt lat="39.458448" lon="3.180879">
        <ele>275</ele>
        <time>2016-04-18T12:46:02Z</time>
      </trkpt>
      <trkpt lat="39.458381" lon="3.180836">
        <ele>274.2</ele>
        <time>2016-04-18T12:46:03Z</time>
      </trkpt>
      <trkpt lat="39.458286" lon="3.180785">
        <ele>273.6</ele>
        <time>2016-04-18T12:46:04Z</time>
      </trkpt>
      <trkpt lat="39.458186" lon="3.180745">
        <ele>272.8</ele>
        <time>2016-04-18T12:46:05Z</time>
      </trkpt>
      <trkpt lat="39.458095" lon="3.180724">
        <ele>272</ele>
        <time>2016-04-18T12:46:06Z</time>
      </trkpt>
      <trkpt lat="39.458013" lon="3.180703">
        <ele>271.2</ele>
        <time>2016-04-18T12:46:07Z</time>
      </trkpt>
      <trkpt lat="39.457951" lon="3.180705">
        <ele>270.2</ele>
        <time>2016-04-18T12:46:08Z</time>
      </trkpt>
      <trkpt lat="39.457896" lon="3.180718">
        <ele>269.4</ele>
        <time>2016-04-18T12:46:09Z</time>
      </trkpt>
      <trkpt lat="39.457759" lon="3.180671">
        <ele>269.4</ele>
        <time>2016-04-18T12:46:12Z</time>
      </trkpt>
      <trkpt lat="39.457743" lon="3.180628">
        <ele>269</ele>
        <time>2016-04-18T12:46:13Z</time>
      </trkpt>
      <trkpt lat="39.457747" lon="3.180597">
        <ele>268.6</ele>
        <time>2016-04-18T12:46:14Z</time>
      </trkpt>
      <trkpt lat="39.457768" lon="3.180568">
        <ele>268</ele>
        <time>2016-04-18T12:46:15Z</time>
      </trkpt>
      <trkpt lat="39.457813" lon="3.180526">
        <ele>267.2</ele>
        <time>2016-04-18T12:46:16Z</time>
      </trkpt>
      <trkpt lat="39.457872" lon="3.180469">
        <ele>266.4</ele>
        <time>2016-04-18T12:46:17Z</time>
      </trkpt>
      <trkpt lat="39.457944" lon="3.180419">
        <ele>265.2</ele>
        <time>2016-04-18T12:46:18Z</time>
      </trkpt>
      <trkpt lat="39.458017" lon="3.180397">
        <ele>264.2</ele>
        <time>2016-04-18T12:46:19Z</time>
      </trkpt>
      <trkpt lat="39.458093" lon="3.180365">
        <ele>263</ele>
        <time>2016-04-18T12:46:20Z</time>
      </trkpt>
      <trkpt lat="39.458177" lon="3.180308">
        <ele>261.8</ele>
        <time>2016-04-18T12:46:21Z</time>
      </trkpt>
      <trkpt lat="39.458284" lon="3.180254">
        <ele>260.6</ele>
        <time>2016-04-18T12:46:22Z</time>
      </trkpt>
      <trkpt lat="39.458359" lon="3.180205">
        <ele>258.6</ele>
        <time>2016-04-18T12:46:23Z</time>
      </trkpt>
      <trkpt lat="39.45842" lon="3.180188">
        <ele>257.8</ele>
        <time>2016-04-18T12:46:24Z</time>
      </trkpt>
      <trkpt lat="39.458488" lon="3.180211">
        <ele>256.8</ele>
        <time>2016-04-18T12:46:25Z</time>
      </trkpt>
      <trkpt lat="39.458552" lon="3.180262">
        <ele>256</ele>
        <time>2016-04-18T12:46:26Z</time>
      </trkpt>
      <trkpt lat="39.458759" lon="3.180404">
        <ele>256</ele>
        <time>2016-04-18T12:46:29Z</time>
      </trkpt>
      <trkpt lat="39.458812" lon="3.180449">
        <ele>256</ele>
        <time>2016-04-18T12:46:30Z</time>
      </trkpt>
      <trkpt lat="39.458923" lon="3.180715">
        <ele>256</ele>
        <time>2016-04-18T12:46:34Z</time>
      </trkpt>
      <trkpt lat="39.458921" lon="3.180797">
        <ele>256</ele>
        <time>2016-04-18T12:46:35Z</time>
      </trkpt>
      <trkpt lat="39.458939" lon="3.180932">
        <ele>255.4</ele>
        <time>2016-04-18T12:46:38Z</time>
      </trkpt>
      <trkpt lat="39.458949" lon="3.180928">
        <ele>254.8</ele>
        <time>2016-04-18T12:46:39Z</time>
      </trkpt>
      <trkpt lat="39.458969" lon="3.180876">
        <ele>253.8</ele>
        <time>2016-04-18T12:46:40Z</time>
      </trkpt>
      <trkpt lat="39.459012" lon="3.180791">
        <ele>252.8</ele>
        <time>2016-04-18T12:46:41Z</time>
      </trkpt>
      <trkpt lat="39.459061" lon="3.180678">
        <ele>251.4</ele>
        <time>2016-04-18T12:46:42Z</time>
      </trkpt>
      <trkpt lat="39.459136" lon="3.180522">
        <ele>250.2</ele>
        <time>2016-04-18T12:46:43Z</time>
      </trkpt>
      <trkpt lat="39.459179" lon="3.180356">
        <ele>248.8</ele>
        <time>2016-04-18T12:46:44Z</time>
      </trkpt>
      <trkpt lat="39.459198" lon="3.180209">
        <ele>247.6</ele>
        <time>2016-04-18T12:46:45Z</time>
      </trkpt>
      <trkpt lat="39.459184" lon="3.180054">
        <ele>246.4</ele>
        <time>2016-04-18T12:46:46Z</time>
      </trkpt>
      <trkpt lat="39.459142" lon="3.179906">
        <ele>244.4</ele>
        <time>2016-04-18T12:46:47Z</time>
      </trkpt>
      <trkpt lat="39.459115" lon="3.179766">
        <ele>243.6</ele>
        <time>2016-04-18T12:46:48Z</time>
      </trkpt>
      <trkpt lat="39.459107" lon="3.179611">
        <ele>242.8</ele>
        <time>2016-04-18T12:46:49Z</time>
      </trkpt>
      <trkpt lat="39.459147" lon="3.179479">
        <ele>242</ele>
        <time>2016-04-18T12:46:50Z</time>
      </trkpt>
      <trkpt lat="39.459182" lon="3.179355">
        <ele>241</ele>
        <time>2016-04-18T12:46:51Z</time>
      </trkpt>
      <trkpt lat="39.459228" lon="3.179209">
        <ele>240</ele>
        <time>2016-04-18T12:46:52Z</time>
      </trkpt>
      <trkpt lat="39.459281" lon="3.179092">
        <ele>238.8</ele>
        <time>2016-04-18T12:46:53Z</time>
      </trkpt>
      <trkpt lat="39.459336" lon="3.178988">
        <ele>238</ele>
        <time>2016-04-18T12:46:54Z</time>
      </trkpt>
      <trkpt lat="39.459398" lon="3.178932">
        <ele>237.2</ele>
        <time>2016-04-18T12:46:55Z</time>
      </trkpt>
      <trkpt lat="39.45946" lon="3.178913">
        <ele>236.2</ele>
        <time>2016-04-18T12:46:56Z</time>
      </trkpt>
      <trkpt lat="39.459536" lon="3.178913">
        <ele>235.4</ele>
        <time>2016-04-18T12:46:57Z</time>
      </trkpt>
      <trkpt lat="39.459598" lon="3.178883">
        <ele>234.8</ele>
        <time>2016-04-18T12:46:58Z</time>
      </trkpt>
      <trkpt lat="39.459646" lon="3.178859">
        <ele>234</ele>
        <time>2016-04-18T12:46:59Z</time>
      </trkpt>
      <trkpt lat="39.459693" lon="3.178832">
        <ele>233.4</ele>
        <time>2016-04-18T12:47:00Z</time>
      </trkpt>
      <trkpt lat="39.459725" lon="3.178805">
        <ele>232.6</ele>
        <time>2016-04-18T12:47:01Z</time>
      </trkpt>
      <trkpt lat="39.459748" lon="3.178771">
        <ele>232</ele>
        <time>2016-04-18T12:47:02Z</time>
      </trkpt>
      <trkpt lat="39.459759" lon="3.178712">
        <ele>231.6</ele>
        <time>2016-04-18T12:47:03Z</time>
      </trkpt>
      <trkpt lat="39.459748" lon="3.178616">
        <ele>231</ele>
        <time>2016-04-18T12:47:04Z</time>
      </trkpt>
      <trkpt lat="39.459775" lon="3.178546">
        <ele>230.4</ele>
        <time>2016-04-18T12:47:05Z</time>
      </trkpt>
      <trkpt lat="39.459802" lon="3.178457">
        <ele>229.8</ele>
        <time>2016-04-18T12:47:06Z</time>
      </trkpt>
      <trkpt lat="39.459825" lon="3.178358">
        <ele>229</ele>
        <time>2016-04-18T12:47:07Z</time>
      </trkpt>
      <trkpt lat="39.459887" lon="3.178354">
        <ele>228.2</ele>
        <time>2016-04-18T12:47:08Z</time>
      </trkpt>
      <trkpt lat="39.459951" lon="3.178315">
        <ele>227.2</ele>
        <time>2016-04-18T12:47:09Z</time>
      </trkpt>
      <trkpt lat="39.460026" lon="3.178285">
        <ele>226</ele>
        <time>2016-04-18T12:47:10Z</time>
      </trkpt>
      <trkpt lat="39.460095" lon="3.178247">
        <ele>224.8</ele>
        <time>2016-04-18T12:47:11Z</time>
      </trkpt>
      <trkpt lat="39.460172" lon="3.178234">
        <ele>222.6</ele>
        <time>2016-04-18T12:47:12Z</time>
      </trkpt>
      <trkpt lat="39.460252" lon="3.178237">
        <ele>221.6</ele>
        <time>2016-04-18T12:47:13Z</time>
      </trkpt>
      <trkpt lat="39.460323" lon="3.178229">
        <ele>220.4</ele>
        <time>2016-04-18T12:47:14Z</time>
      </trkpt>
      <trkpt lat="39.460406" lon="3.178205">
        <ele>219.4</ele>
        <time>2016-04-18T12:47:15Z</time>
      </trkpt>
      <trkpt lat="39.460472" lon="3.178172">
        <ele>219.4</ele>
        <time>2016-04-18T12:47:16Z</time>
      </trkpt>
      <trkpt lat="39.460536" lon="3.178155">
        <ele>219.4</ele>
        <time>2016-04-18T12:47:17Z</time>
      </trkpt>
      <trkpt lat="39.460642" lon="3.178113">
        <ele>219.4</ele>
        <time>2016-04-18T12:47:19Z</time>
      </trkpt>
      <trkpt lat="39.460686" lon="3.178085">
        <ele>218.8</ele>
        <time>2016-04-18T12:47:20Z</time>
      </trkpt>
      <trkpt lat="39.460732" lon="3.178048">
        <ele>218.2</ele>
        <time>2016-04-18T12:47:21Z</time>
      </trkpt>
      <trkpt lat="39.460773" lon="3.177986">
        <ele>217.4</ele>
        <time>2016-04-18T12:47:22Z</time>
      </trkpt>
      <trkpt lat="39.460813" lon="3.177884">
        <ele>216.6</ele>
        <time>2016-04-18T12:47:23Z</time>
      </trkpt>
      <trkpt lat="39.460719" lon="3.17773">
        <ele>215.6</ele>
        <time>2016-04-18T12:47:24Z</time>
      </trkpt>
      <trkpt lat="39.460686" lon="3.177603">
        <ele>214.8</ele>
        <time>2016-04-18T12:47:25Z</time>
      </trkpt>
      <trkpt lat="39.46064" lon="3.177443">
        <ele>213.8</ele>
        <time>2016-04-18T12:47:26Z</time>
      </trkpt>
      <trkpt lat="39.460595" lon="3.17728">
        <ele>213</ele>
        <time>2016-04-18T12:47:27Z</time>
      </trkpt>
      <trkpt lat="39.46053" lon="3.177101">
        <ele>212.2</ele>
        <time>2016-04-18T12:47:28Z</time>
      </trkpt>
      <trkpt lat="39.460456" lon="3.176927">
        <ele>211.2</ele>
        <time>2016-04-18T12:47:29Z</time>
      </trkpt>
      <trkpt lat="39.46036" lon="3.176774">
        <ele>210.2</ele>
        <time>2016-04-18T12:47:30Z</time>
      </trkpt>
      <trkpt lat="39.460244" lon="3.176658">
        <ele>209.4</ele>
        <time>2016-04-18T12:47:31Z</time>
      </trkpt>
      <trkpt lat="39.460148" lon="3.176567">
        <ele>208.6</ele>
        <time>2016-04-18T12:47:32Z</time>
      </trkpt>
      <trkpt lat="39.460076" lon="3.17647">
        <ele>207.8</ele>
        <time>2016-04-18T12:47:33Z</time>
      </trkpt>
      <trkpt lat="39.460028" lon="3.176381">
        <ele>207</ele>
        <time>2016-04-18T12:47:34Z</time>
      </trkpt>
      <trkpt lat="39.460008" lon="3.176299">
        <ele>206.2</ele>
        <time>2016-04-18T12:47:35Z</time>
      </trkpt>
      <trkpt lat="39.459998" lon="3.176227">
        <ele>204.8</ele>
        <time>2016-04-18T12:47:36Z</time>
      </trkpt>
      <trkpt lat="39.459987" lon="3.176153">
        <ele>204.2</ele>
        <time>2016-04-18T12:47:37Z</time>
      </trkpt>
      <trkpt lat="39.459984" lon="3.176073">
        <ele>203.4</ele>
        <time>2016-04-18T12:47:38Z</time>
      </trkpt>
      <trkpt lat="39.459991" lon="3.175997">
        <ele>202.4</ele>
        <time>2016-04-18T12:47:39Z</time>
      </trkpt>
      <trkpt lat="39.460001" lon="3.175933">
        <ele>201.4</ele>
        <time>2016-04-18T12:47:40Z</time>
      </trkpt>
      <trkpt lat="39.460006" lon="3.175886">
        <ele>200.2</ele>
        <time>2016-04-18T12:47:41Z</time>
      </trkpt>
      <trkpt lat="39.460002" lon="3.175863">
        <ele>199.2</ele>
        <time>2016-04-18T12:47:42Z</time>
      </trkpt>
      <trkpt lat="39.459996" lon="3.17584">
        <ele>198</ele>
        <time>2016-04-18T12:47:43Z</time>
      </trkpt>
      <trkpt lat="39.459987" lon="3.175816">
        <ele>197</ele>
        <time>2016-04-18T12:47:44Z</time>
      </trkpt>
      <trkpt lat="39.460015" lon="3.175811">
        <ele>195.8</ele>
        <time>2016-04-18T12:47:45Z</time>
      </trkpt>
      <trkpt lat="39.460085" lon="3.175834">
        <ele>194.8</ele>
        <time>2016-04-18T12:47:46Z</time>
      </trkpt>
      <trkpt lat="39.460186" lon="3.175798">
        <ele>194.8</ele>
        <time>2016-04-18T12:47:48Z</time>
      </trkpt>
      <trkpt lat="39.460218" lon="3.175756">
        <ele>194.2</ele>
        <time>2016-04-18T12:47:49Z</time>
      </trkpt>
      <trkpt lat="39.460252" lon="3.175695">
        <ele>193.8</ele>
        <time>2016-04-18T12:47:50Z</time>
      </trkpt>
      <trkpt lat="39.460297" lon="3.175612">
        <ele>193.2</ele>
        <time>2016-04-18T12:47:51Z</time>
      </trkpt>
      <trkpt lat="39.460334" lon="3.175506">
        <ele>192.4</ele>
        <time>2016-04-18T12:47:52Z</time>
      </trkpt>
      <trkpt lat="39.46038" lon="3.17538">
        <ele>191.6</ele>
        <time>2016-04-18T12:47:53Z</time>
      </trkpt>
      <trkpt lat="39.460418" lon="3.175244">
        <ele>190.8</ele>
        <time>2016-04-18T12:47:54Z</time>
      </trkpt>
      <trkpt lat="39.460459" lon="3.175092">
        <ele>190</ele>
        <time>2016-04-18T12:47:55Z</time>
      </trkpt>
      <trkpt lat="39.46052" lon="3.174977">
        <ele>189.2</ele>
        <time>2016-04-18T12:47:56Z</time>
      </trkpt>
      <trkpt lat="39.460553" lon="3.174816">
        <ele>188.2</ele>
        <time>2016-04-18T12:47:57Z</time>
      </trkpt>
      <trkpt lat="39.460602" lon="3.174707">
        <ele>187.4</ele>
        <time>2016-04-18T12:47:58Z</time>
      </trkpt>
      <trkpt lat="39.460666" lon="3.174622">
        <ele>186.6</ele>
        <time>2016-04-18T12:47:59Z</time>
      </trkpt>
      <trkpt lat="39.46075" lon="3.174559">
        <ele>185.8</ele>
        <time>2016-04-18T12:48:00Z</time>
      </trkpt>
      <trkpt lat="39.460855" lon="3.174508">
        <ele>184.2</ele>
        <time>2016-04-18T12:48:01Z</time>
      </trkpt>
      <trkpt lat="39.46101" lon="3.174481">
        <ele>183.6</ele>
        <time>2016-04-18T12:48:02Z</time>
      </trkpt>
      <trkpt lat="39.461128" lon="3.174414">
        <ele>183</ele>
        <time>2016-04-18T12:48:03Z</time>
      </trkpt>
      <trkpt lat="39.461248" lon="3.174336">
        <ele>181.8</ele>
        <time>2016-04-18T12:48:04Z</time>
      </trkpt>
      <trkpt lat="39.461385" lon="3.174263">
        <ele>180.6</ele>
        <time>2016-04-18T12:48:05Z</time>
      </trkpt>
      <trkpt lat="39.461517" lon="3.17418">
        <ele>179.2</ele>
        <time>2016-04-18T12:48:06Z</time>
      </trkpt>
      <trkpt lat="39.461686" lon="3.174088">
        <ele>177.8</ele>
        <time>2016-04-18T12:48:07Z</time>
      </trkpt>
      <trkpt lat="39.461868" lon="3.173993">
        <ele>176.2</ele>
        <time>2016-04-18T12:48:08Z</time>
      </trkpt>
      <trkpt lat="39.462036" lon="3.173887">
        <ele>174.6</ele>
        <time>2016-04-18T12:48:09Z</time>
      </trkpt>
      <trkpt lat="39.462202" lon="3.173777">
        <ele>172.8</ele>
        <time>2016-04-18T12:48:10Z</time>
      </trkpt>
      <trkpt lat="39.462367" lon="3.173658">
        <ele>171</ele>
        <time>2016-04-18T12:48:11Z</time>
      </trkpt>
      <trkpt lat="39.462532" lon="3.173542">
        <ele>169.4</ele>
        <time>2016-04-18T12:48:12Z</time>
      </trkpt>
      <trkpt lat="39.462692" lon="3.173422">
        <ele>167.6</ele>
        <time>2016-04-18T12:48:13Z</time>
      </trkpt>
      <trkpt lat="39.462846" lon="3.173307">
        <ele>166.6</ele>
        <time>2016-04-18T12:48:14Z</time>
      </trkpt>
      <trkpt lat="39.463008" lon="3.173195">
        <ele>165.4</ele>
        <time>2016-04-18T12:48:15Z</time>
      </trkpt>
      <trkpt lat="39.463163" lon="3.173075">
        <ele>164.2</ele>
        <time>2016-04-18T12:48:16Z</time>
      </trkpt>
      <trkpt lat="39.463321" lon="3.172955">
        <ele>162.6</ele>
        <time>2016-04-18T12:48:17Z</time>
      </trkpt>
      <trkpt lat="39.463476" lon="3.172841">
        <ele>161.2</ele>
        <time>2016-04-18T12:48:18Z</time>
      </trkpt>
      <trkpt lat="39.463628" lon="3.172718">
        <ele>159.8</ele>
        <time>2016-04-18T12:48:19Z</time>
      </trkpt>
      <trkpt lat="39.463773" lon="3.172602">
        <ele>158.4</ele>
        <time>2016-04-18T12:48:20Z</time>
      </trkpt>
      <trkpt lat="39.463916" lon="3.172483">
        <ele>157</ele>
        <time>2016-04-18T12:48:21Z</time>
      </trkpt>
      <trkpt lat="39.464062" lon="3.172358">
        <ele>156</ele>
        <time>2016-04-18T12:48:22Z</time>
      </trkpt>
      <trkpt lat="39.464206" lon="3.172233">
        <ele>155</ele>
        <time>2016-04-18T12:48:23Z</time>
      </trkpt>
      <trkpt lat="39.46436" lon="3.172098">
        <ele>154</ele>
        <time>2016-04-18T12:48:24Z</time>
      </trkpt>
      <trkpt lat="39.464511" lon="3.171971">
        <ele>151.8</ele>
        <time>2016-04-18T12:48:25Z</time>
      </trkpt>
      <trkpt lat="39.46466" lon="3.171843">
        <ele>150.6</ele>
        <time>2016-04-18T12:48:26Z</time>
      </trkpt>
      <trkpt lat="39.464805" lon="3.171715">
        <ele>149.2</ele>
        <time>2016-04-18T12:48:27Z</time>
      </trkpt>
      <trkpt lat="39.464947" lon="3.171591">
        <ele>147.6</ele>
        <time>2016-04-18T12:48:28Z</time>
      </trkpt>
      <trkpt lat="39.465089" lon="3.171458">
        <ele>146.4</ele>
        <time>2016-04-18T12:48:29Z</time>
      </trkpt>
      <trkpt lat="39.465227" lon="3.17133">
        <ele>145</ele>
        <time>2016-04-18T12:48:30Z</time>
      </trkpt>
      <trkpt lat="39.465377" lon="3.171193">
        <ele>143.6</ele>
        <time>2016-04-18T12:48:31Z</time>
      </trkpt>
      <trkpt lat="39.465521" lon="3.171063">
        <ele>142.8</ele>
        <time>2016-04-18T12:48:32Z</time>
      </trkpt>
      <trkpt lat="39.465664" lon="3.170936">
        <ele>141.8</ele>
        <time>2016-04-18T12:48:33Z</time>
      </trkpt>
      <trkpt lat="39.465804" lon="3.170809">
        <ele>140.6</ele>
        <time>2016-04-18T12:48:34Z</time>
      </trkpt>
      <trkpt lat="39.465942" lon="3.170682">
        <ele>139.6</ele>
        <time>2016-04-18T12:48:35Z</time>
      </trkpt>
      <trkpt lat="39.466078" lon="3.17056">
        <ele>138.4</ele>
        <time>2016-04-18T12:48:36Z</time>
      </trkpt>
      <trkpt lat="39.466215" lon="3.170438">
        <ele>137.4</ele>
        <time>2016-04-18T12:48:37Z</time>
      </trkpt>
      <trkpt lat="39.466352" lon="3.170309">
        <ele>136.2</ele>
        <time>2016-04-18T12:48:38Z</time>
      </trkpt>
      <trkpt lat="39.46649" lon="3.170188">
        <ele>135.4</ele>
        <time>2016-04-18T12:48:39Z</time>
      </trkpt>
      <trkpt lat="39.466632" lon="3.170062">
        <ele>134.6</ele>
        <time>2016-04-18T12:48:40Z</time>
      </trkpt>
      <trkpt lat="39.466762" lon="3.169942">
        <ele>133.6</ele>
        <time>2016-04-18T12:48:41Z</time>
      </trkpt>
      <trkpt lat="39.466891" lon="3.169826">
        <ele>132.8</ele>
        <time>2016-04-18T12:48:42Z</time>
      </trkpt>
      <trkpt lat="39.467021" lon="3.169708">
        <ele>132</ele>
        <time>2016-04-18T12:48:43Z</time>
      </trkpt>
      <trkpt lat="39.467148" lon="3.169596">
        <ele>131</ele>
        <time>2016-04-18T12:48:44Z</time>
      </trkpt>
      <trkpt lat="39.467272" lon="3.169483">
        <ele>130.2</ele>
        <time>2016-04-18T12:48:45Z</time>
      </trkpt>
      <trkpt lat="39.467408" lon="3.16937">
        <ele>129.2</ele>
        <time>2016-04-18T12:48:46Z</time>
      </trkpt>
      <trkpt lat="39.467549" lon="3.169299">
        <ele>128.8</ele>
        <time>2016-04-18T12:48:47Z</time>
      </trkpt>
      <trkpt lat="39.467696" lon="3.169236">
        <ele>128.2</ele>
        <time>2016-04-18T12:48:48Z</time>
      </trkpt>
      <trkpt lat="39.467835" lon="3.169168">
        <ele>127</ele>
        <time>2016-04-18T12:48:49Z</time>
      </trkpt>
      <trkpt lat="39.467972" lon="3.1691">
        <ele>126.2</ele>
        <time>2016-04-18T12:48:50Z</time>
      </trkpt>
      <trkpt lat="39.46811" lon="3.169036">
        <ele>125.6</ele>
        <time>2016-04-18T12:48:51Z</time>
      </trkpt>
      <trkpt lat="39.468245" lon="3.168971">
        <ele>124.8</ele>
        <time>2016-04-18T12:48:52Z</time>
      </trkpt>
      <trkpt lat="39.468378" lon="3.168913">
        <ele>124.2</ele>
        <time>2016-04-18T12:48:53Z</time>
      </trkpt>
      <trkpt lat="39.468509" lon="3.168853">
        <ele>123.6</ele>
        <time>2016-04-18T12:48:54Z</time>
      </trkpt>
      <trkpt lat="39.468638" lon="3.168792">
        <ele>123</ele>
        <time>2016-04-18T12:48:55Z</time>
      </trkpt>
      <trkpt lat="39.468769" lon="3.168731">
        <ele>122.4</ele>
        <time>2016-04-18T12:48:56Z</time>
      </trkpt>
      <trkpt lat="39.468898" lon="3.168673">
        <ele>121.8</ele>
        <time>2016-04-18T12:48:57Z</time>
      </trkpt>
      <trkpt lat="39.46917" lon="3.16857">
        <ele>121.8</ele>
        <time>2016-04-18T12:48:59Z</time>
      </trkpt>
      <trkpt lat="39.469442" lon="3.168512">
        <ele>121.8</ele>
        <time>2016-04-18T12:49:01Z</time>
      </trkpt>
      <trkpt lat="39.46957" lon="3.168495">
        <ele>121.4</ele>
        <time>2016-04-18T12:49:02Z</time>
      </trkpt>
      <trkpt lat="39.469705" lon="3.168472">
        <ele>121</ele>
        <time>2016-04-18T12:49:03Z</time>
      </trkpt>
      <trkpt lat="39.469826" lon="3.16845">
        <ele>120.4</ele>
        <time>2016-04-18T12:49:04Z</time>
      </trkpt>
      <trkpt lat="39.469945" lon="3.168436">
        <ele>120</ele>
        <time>2016-04-18T12:49:05Z</time>
      </trkpt>
      <trkpt lat="39.470057" lon="3.168428">
        <ele>119.6</ele>
        <time>2016-04-18T12:49:06Z</time>
      </trkpt>
      <trkpt lat="39.470555" lon="3.16836">
        <ele>119.6</ele>
        <time>2016-04-18T12:49:11Z</time>
      </trkpt>
      <trkpt lat="39.470688" lon="3.168346">
        <ele>119.6</ele>
        <time>2016-04-18T12:49:13Z</time>
      </trkpt>
      <trkpt lat="39.470814" lon="3.168341">
        <ele>119.6</ele>
        <time>2016-04-18T12:49:15Z</time>
      </trkpt>
      <trkpt lat="39.470936" lon="3.168373">
        <ele>119.6</ele>
        <time>2016-04-18T12:49:18Z</time>
      </trkpt>
      <trkpt lat="39.470941" lon="3.168354">
        <ele>120</ele>
        <time>2016-04-18T12:49:21Z</time>
      </trkpt>
      <trkpt lat="39.471017" lon="3.168336">
        <ele>121.8</ele>
        <time>2016-04-18T12:51:02Z</time>
      </trkpt>
      <trkpt lat="39.471043" lon="3.168325">
        <ele>121.8</ele>
        <time>2016-04-18T12:51:03Z</time>
      </trkpt>
      <trkpt lat="39.471068" lon="3.168312">
        <ele>121.8</ele>
        <time>2016-04-18T12:51:04Z</time>
      </trkpt>
      <trkpt lat="39.471153" lon="3.168131">
        <ele>121.8</ele>
        <time>2016-04-18T12:51:08Z</time>
      </trkpt>
      <trkpt lat="39.471172" lon="3.168069">
        <ele>121.8</ele>
        <time>2016-04-18T12:51:09Z</time>
      </trkpt>
      <trkpt lat="39.471213" lon="3.167923">
        <ele>121.2</ele>
        <time>2016-04-18T12:51:11Z</time>
      </trkpt>
      <trkpt lat="39.471232" lon="3.167844">
        <ele>120.8</ele>
        <time>2016-04-18T12:51:12Z</time>
      </trkpt>
      <trkpt lat="39.47125" lon="3.167766">
        <ele>120.2</ele>
        <time>2016-04-18T12:51:13Z</time>
      </trkpt>
      <trkpt lat="39.471267" lon="3.167688">
        <ele>119.8</ele>
        <time>2016-04-18T12:51:14Z</time>
      </trkpt>
      <trkpt lat="39.471288" lon="3.167607">
        <ele>119.4</ele>
        <time>2016-04-18T12:51:15Z</time>
      </trkpt>
      <trkpt lat="39.47133" lon="3.167432">
        <ele>119.4</ele>
        <time>2016-04-18T12:51:17Z</time>
      </trkpt>
      <trkpt lat="39.471347" lon="3.167342">
        <ele>119.4</ele>
        <time>2016-04-18T12:51:18Z</time>
      </trkpt>
      <trkpt lat="39.471366" lon="3.167249">
        <ele>119</ele>
        <time>2016-04-18T12:51:19Z</time>
      </trkpt>
      <trkpt lat="39.471388" lon="3.167161">
        <ele>118.4</ele>
        <time>2016-04-18T12:51:20Z</time>
      </trkpt>
      <trkpt lat="39.47141" lon="3.16707">
        <ele>118</ele>
        <time>2016-04-18T12:51:21Z</time>
      </trkpt>
      <trkpt lat="39.471431" lon="3.166976">
        <ele>117.6</ele>
        <time>2016-04-18T12:51:22Z</time>
      </trkpt>
      <trkpt lat="39.471452" lon="3.166882">
        <ele>117.2</ele>
        <time>2016-04-18T12:51:23Z</time>
      </trkpt>
      <trkpt lat="39.471526" lon="3.166483">
        <ele>117.2</ele>
        <time>2016-04-18T12:51:27Z</time>
      </trkpt>
      <trkpt lat="39.471549" lon="3.166379">
        <ele>117.2</ele>
        <time>2016-04-18T12:51:28Z</time>
      </trkpt>
      <trkpt lat="39.471574" lon="3.166272">
        <ele>116.8</ele>
        <time>2016-04-18T12:51:29Z</time>
      </trkpt>
      <trkpt lat="39.471599" lon="3.166161">
        <ele>116.2</ele>
        <time>2016-04-18T12:51:30Z</time>
      </trkpt>
      <trkpt lat="39.471624" lon="3.16605">
        <ele>115.8</ele>
        <time>2016-04-18T12:51:31Z</time>
      </trkpt>
      <trkpt lat="39.471649" lon="3.165943">
        <ele>115.4</ele>
        <time>2016-04-18T12:51:32Z</time>
      </trkpt>
      <trkpt lat="39.471678" lon="3.165828">
        <ele>114.8</ele>
        <time>2016-04-18T12:51:33Z</time>
      </trkpt>
      <trkpt lat="39.471704" lon="3.165716">
        <ele>114.4</ele>
        <time>2016-04-18T12:51:34Z</time>
      </trkpt>
      <trkpt lat="39.471727" lon="3.165605">
        <ele>114</ele>
        <time>2016-04-18T12:51:35Z</time>
      </trkpt>
      <trkpt lat="39.471755" lon="3.165496">
        <ele>113.4</ele>
        <time>2016-04-18T12:51:36Z</time>
      </trkpt>
      <trkpt lat="39.471784" lon="3.165388">
        <ele>113</ele>
        <time>2016-04-18T12:51:37Z</time>
      </trkpt>
      <trkpt lat="39.47181" lon="3.165279">
        <ele>112.6</ele>
        <time>2016-04-18T12:51:38Z</time>
      </trkpt>
      <trkpt lat="39.47197" lon="3.164617">
        <ele>112</ele>
        <time>2016-04-18T12:51:44Z</time>
      </trkpt>
      <trkpt lat="39.471995" lon="3.164506">
        <ele>111.6</ele>
        <time>2016-04-18T12:51:45Z</time>
      </trkpt>
      <trkpt lat="39.472022" lon="3.164395">
        <ele>111.2</ele>
        <time>2016-04-18T12:51:46Z</time>
      </trkpt>
      <trkpt lat="39.47205" lon="3.164282">
        <ele>110.8</ele>
        <time>2016-04-18T12:51:47Z</time>
      </trkpt>
      <trkpt lat="39.472079" lon="3.164164">
        <ele>110.4</ele>
        <time>2016-04-18T12:51:48Z</time>
      </trkpt>
      <trkpt lat="39.472193" lon="3.163695">
        <ele>110.4</ele>
        <time>2016-04-18T12:51:52Z</time>
      </trkpt>
      <trkpt lat="39.472352" lon="3.163008">
        <ele>110.4</ele>
        <time>2016-04-18T12:51:58Z</time>
      </trkpt>
      <trkpt lat="39.472408" lon="3.1628">
        <ele>110.4</ele>
        <time>2016-04-18T12:52:00Z</time>
      </trkpt>
      <trkpt lat="39.472462" lon="3.162589">
        <ele>110.4</ele>
        <time>2016-04-18T12:52:02Z</time>
      </trkpt>
      <trkpt lat="39.472536" lon="3.162263">
        <ele>110.4</ele>
        <time>2016-04-18T12:52:05Z</time>
      </trkpt>
      <trkpt lat="39.472589" lon="3.162043">
        <ele>110.4</ele>
        <time>2016-04-18T12:52:07Z</time>
      </trkpt>
      <trkpt lat="39.47267" lon="3.161713">
        <ele>110.4</ele>
        <time>2016-04-18T12:52:10Z</time>
      </trkpt>
      <trkpt lat="39.472725" lon="3.161489">
        <ele>110.4</ele>
        <time>2016-04-18T12:52:12Z</time>
      </trkpt>
      <trkpt lat="39.472779" lon="3.16127">
        <ele>110.4</ele>
        <time>2016-04-18T12:52:14Z</time>
      </trkpt>
      <trkpt lat="39.472855" lon="3.160942">
        <ele>109.8</ele>
        <time>2016-04-18T12:52:17Z</time>
      </trkpt>
      <trkpt lat="39.472882" lon="3.160832">
        <ele>109.4</ele>
        <time>2016-04-18T12:52:18Z</time>
      </trkpt>
      <trkpt lat="39.472914" lon="3.160722">
        <ele>109</ele>
        <time>2016-04-18T12:52:19Z</time>
      </trkpt>
      <trkpt lat="39.472938" lon="3.160613">
        <ele>108.6</ele>
        <time>2016-04-18T12:52:20Z</time>
      </trkpt>
      <trkpt lat="39.472962" lon="3.160504">
        <ele>108</ele>
        <time>2016-04-18T12:52:21Z</time>
      </trkpt>
      <trkpt lat="39.473059" lon="3.160093">
        <ele>108</ele>
        <time>2016-04-18T12:52:25Z</time>
      </trkpt>
      <trkpt lat="39.473223" lon="3.159418">
        <ele>108</ele>
        <time>2016-04-18T12:52:32Z</time>
      </trkpt>
      <trkpt lat="39.473361" lon="3.159055">
        <ele>108</ele>
        <time>2016-04-18T12:52:36Z</time>
      </trkpt>
      <trkpt lat="39.47341" lon="3.158978">
        <ele>108</ele>
        <time>2016-04-18T12:52:37Z</time>
      </trkpt>
      <trkpt lat="39.473612" lon="3.158814">
        <ele>108</ele>
        <time>2016-04-18T12:52:40Z</time>
      </trkpt>
      <trkpt lat="39.473939" lon="3.158465">
        <ele>108</ele>
        <time>2016-04-18T12:52:45Z</time>
      </trkpt>
      <trkpt lat="39.474221" lon="3.158208">
        <ele>107.6</ele>
        <time>2016-04-18T12:52:49Z</time>
      </trkpt>
      <trkpt lat="39.474288" lon="3.158147">
        <ele>107</ele>
        <time>2016-04-18T12:52:50Z</time>
      </trkpt>
      <trkpt lat="39.474363" lon="3.158083">
        <ele>106.6</ele>
        <time>2016-04-18T12:52:51Z</time>
      </trkpt>
      <trkpt lat="39.474437" lon="3.158013">
        <ele>106.2</ele>
        <time>2016-04-18T12:52:52Z</time>
      </trkpt>
      <trkpt lat="39.474513" lon="3.157947">
        <ele>105.6</ele>
        <time>2016-04-18T12:52:53Z</time>
      </trkpt>
      <trkpt lat="39.474678" lon="3.157805">
        <ele>105.2</ele>
        <time>2016-04-18T12:52:55Z</time>
      </trkpt>
      <trkpt lat="39.474758" lon="3.15773">
        <ele>104.6</ele>
        <time>2016-04-18T12:52:56Z</time>
      </trkpt>
      <trkpt lat="39.474847" lon="3.157646">
        <ele>104.2</ele>
        <time>2016-04-18T12:52:57Z</time>
      </trkpt>
      <trkpt lat="39.474932" lon="3.157576">
        <ele>103.4</ele>
        <time>2016-04-18T12:52:58Z</time>
      </trkpt>
      <trkpt lat="39.475015" lon="3.157507">
        <ele>102.8</ele>
        <time>2016-04-18T12:52:59Z</time>
      </trkpt>
      <trkpt lat="39.475099" lon="3.157428">
        <ele>102</ele>
        <time>2016-04-18T12:53:00Z</time>
      </trkpt>
      <trkpt lat="39.475181" lon="3.15735">
        <ele>101.2</ele>
        <time>2016-04-18T12:53:01Z</time>
      </trkpt>
      <trkpt lat="39.475263" lon="3.157278">
        <ele>100.4</ele>
        <time>2016-04-18T12:53:02Z</time>
      </trkpt>
      <trkpt lat="39.475443" lon="3.157127">
        <ele>100</ele>
        <time>2016-04-18T12:53:04Z</time>
      </trkpt>
      <trkpt lat="39.475526" lon="3.157052">
        <ele>99.6</ele>
        <time>2016-04-18T12:53:05Z</time>
      </trkpt>
      <trkpt lat="39.475613" lon="3.156973">
        <ele>99.2</ele>
        <time>2016-04-18T12:53:06Z</time>
      </trkpt>
      <trkpt lat="39.475697" lon="3.156897">
        <ele>98.6</ele>
        <time>2016-04-18T12:53:07Z</time>
      </trkpt>
      <trkpt lat="39.475779" lon="3.156821">
        <ele>98.2</ele>
        <time>2016-04-18T12:53:08Z</time>
      </trkpt>
      <trkpt lat="39.476098" lon="3.156519">
        <ele>97.8</ele>
        <time>2016-04-18T12:53:12Z</time>
      </trkpt>
      <trkpt lat="39.476171" lon="3.15646">
        <ele>97.4</ele>
        <time>2016-04-18T12:53:13Z</time>
      </trkpt>
      <trkpt lat="39.476242" lon="3.156403">
        <ele>96.8</ele>
        <time>2016-04-18T12:53:14Z</time>
      </trkpt>
      <trkpt lat="39.476322" lon="3.156359">
        <ele>96.4</ele>
        <time>2016-04-18T12:53:15Z</time>
      </trkpt>
      <trkpt lat="39.476406" lon="3.15634">
        <ele>96</ele>
        <time>2016-04-18T12:53:16Z</time>
      </trkpt>
      <trkpt lat="39.476494" lon="3.156332">
        <ele>96</ele>
        <time>2016-04-18T12:53:17Z</time>
      </trkpt>
      <trkpt lat="39.476655" lon="3.156287">
        <ele>96</ele>
        <time>2016-04-18T12:53:19Z</time>
      </trkpt>
      <trkpt lat="39.476739" lon="3.156102">
        <ele>96</ele>
        <time>2016-04-18T12:53:21Z</time>
      </trkpt>
      <trkpt lat="39.476725" lon="3.155996">
        <ele>96</ele>
        <time>2016-04-18T12:53:22Z</time>
      </trkpt>
      <trkpt lat="39.476684" lon="3.155912">
        <ele>96</ele>
        <time>2016-04-18T12:53:23Z</time>
      </trkpt>
      <trkpt lat="39.476508" lon="3.155767">
        <ele>96</ele>
        <time>2016-04-18T12:53:26Z</time>
      </trkpt>
      <trkpt lat="39.47635" lon="3.155601">
        <ele>96</ele>
        <time>2016-04-18T12:53:29Z</time>
      </trkpt>
      <trkpt lat="39.47632" lon="3.155532">
        <ele>96</ele>
        <time>2016-04-18T12:53:30Z</time>
      </trkpt>
      <trkpt lat="39.476286" lon="3.155468">
        <ele>96</ele>
        <time>2016-04-18T12:53:31Z</time>
      </trkpt>
      <trkpt lat="39.476255" lon="3.155405">
        <ele>96</ele>
        <time>2016-04-18T12:53:32Z</time>
      </trkpt>
      <trkpt lat="39.476201" lon="3.155288">
        <ele>96</ele>
        <time>2016-04-18T12:53:34Z</time>
      </trkpt>
      <trkpt lat="39.476141" lon="3.155162">
        <ele>96</ele>
        <time>2016-04-18T12:53:36Z</time>
      </trkpt>
      <trkpt lat="39.476112" lon="3.155102">
        <ele>96</ele>
        <time>2016-04-18T12:53:37Z</time>
      </trkpt>
      <trkpt lat="39.476052" lon="3.154991">
        <ele>96</ele>
        <time>2016-04-18T12:53:39Z</time>
      </trkpt>
      <trkpt lat="39.476029" lon="3.154928">
        <ele>96</ele>
        <time>2016-04-18T12:53:40Z</time>
      </trkpt>
      <trkpt lat="39.475967" lon="3.154788">
        <ele>96</ele>
        <time>2016-04-18T12:53:42Z</time>
      </trkpt>
      <trkpt lat="39.475834" lon="3.154524">
        <ele>96</ele>
        <time>2016-04-18T12:53:46Z</time>
      </trkpt>
      <trkpt lat="39.475767" lon="3.15438">
        <ele>96</ele>
        <time>2016-04-18T12:53:48Z</time>
      </trkpt>
      <trkpt lat="39.475736" lon="3.154315">
        <ele>96</ele>
        <time>2016-04-18T12:53:49Z</time>
      </trkpt>
      <trkpt lat="39.475514" lon="3.15388">
        <ele>96</ele>
        <time>2016-04-18T12:53:55Z</time>
      </trkpt>
      <trkpt lat="39.475334" lon="3.153501">
        <ele>96</ele>
        <time>2016-04-18T12:54:00Z</time>
      </trkpt>
      <trkpt lat="39.475169" lon="3.153132">
        <ele>96</ele>
        <time>2016-04-18T12:54:05Z</time>
      </trkpt>
      <trkpt lat="39.475082" lon="3.152921">
        <ele>96</ele>
        <time>2016-04-18T12:54:08Z</time>
      </trkpt>
      <trkpt lat="39.47503" lon="3.152772">
        <ele>96</ele>
        <time>2016-04-18T12:54:10Z</time>
      </trkpt>
      <trkpt lat="39.475064" lon="3.152611">
        <ele>96</ele>
        <time>2016-04-18T12:54:12Z</time>
      </trkpt>
      <trkpt lat="39.475155" lon="3.152444">
        <ele>96</ele>
        <time>2016-04-18T12:54:14Z</time>
      </trkpt>
      <trkpt lat="39.475295" lon="3.152358">
        <ele>96</ele>
        <time>2016-04-18T12:54:16Z</time>
      </trkpt>
      <trkpt lat="39.475585" lon="3.152089">
        <ele>96</ele>
        <time>2016-04-18T12:54:21Z</time>
      </trkpt>
      <trkpt lat="39.475782" lon="3.151906">
        <ele>96</ele>
        <time>2016-04-18T12:54:25Z</time>
      </trkpt>
      <trkpt lat="39.475792" lon="3.151825">
        <ele>96</ele>
        <time>2016-04-18T12:54:26Z</time>
      </trkpt>
      <trkpt lat="39.475737" lon="3.151592">
        <ele>96</ele>
        <time>2016-04-18T12:54:29Z</time>
      </trkpt>
      <trkpt lat="39.475694" lon="3.151511">
        <ele>96</ele>
        <time>2016-04-18T12:54:30Z</time>
      </trkpt>
      <trkpt lat="39.475547" lon="3.151213">
        <ele>96</ele>
        <time>2016-04-18T12:54:34Z</time>
      </trkpt>
      <trkpt lat="39.475374" lon="3.150675">
        <ele>96</ele>
        <time>2016-04-18T12:54:40Z</time>
      </trkpt>
      <trkpt lat="39.475397" lon="3.150564">
        <ele>95.6</ele>
        <time>2016-04-18T12:54:41Z</time>
      </trkpt>
      <trkpt lat="39.475433" lon="3.150456">
        <ele>95</ele>
        <time>2016-04-18T12:54:42Z</time>
      </trkpt>
      <trkpt lat="39.475506" lon="3.150398">
        <ele>94.6</ele>
        <time>2016-04-18T12:54:43Z</time>
      </trkpt>
      <trkpt lat="39.475588" lon="3.150348">
        <ele>94.2</ele>
        <time>2016-04-18T12:54:44Z</time>
      </trkpt>
      <trkpt lat="39.475665" lon="3.150296">
        <ele>93.6</ele>
        <time>2016-04-18T12:54:45Z</time>
      </trkpt>
      <trkpt lat="39.475738" lon="3.150238">
        <ele>93.6</ele>
        <time>2016-04-18T12:54:46Z</time>
      </trkpt>
      <trkpt lat="39.475955" lon="3.150052">
        <ele>93.6</ele>
        <time>2016-04-18T12:54:49Z</time>
      </trkpt>
      <trkpt lat="39.476064" lon="3.149842">
        <ele>93.6</ele>
        <time>2016-04-18T12:54:51Z</time>
      </trkpt>
      <trkpt lat="39.476116" lon="3.149719">
        <ele>93.2</ele>
        <time>2016-04-18T12:54:52Z</time>
      </trkpt>
      <trkpt lat="39.476163" lon="3.149602">
        <ele>92.6</ele>
        <time>2016-04-18T12:54:53Z</time>
      </trkpt>
      <trkpt lat="39.476213" lon="3.149487">
        <ele>92</ele>
        <time>2016-04-18T12:54:54Z</time>
      </trkpt>
      <trkpt lat="39.476261" lon="3.149369">
        <ele>91.6</ele>
        <time>2016-04-18T12:54:55Z</time>
      </trkpt>
      <trkpt lat="39.476309" lon="3.149251">
        <ele>91</ele>
        <time>2016-04-18T12:54:56Z</time>
      </trkpt>
      <trkpt lat="39.476355" lon="3.149129">
        <ele>90.4</ele>
        <time>2016-04-18T12:54:57Z</time>
      </trkpt>
      <trkpt lat="39.476403" lon="3.149008">
        <ele>89.4</ele>
        <time>2016-04-18T12:54:58Z</time>
      </trkpt>
      <trkpt lat="39.476451" lon="3.148889">
        <ele>88.8</ele>
        <time>2016-04-18T12:54:59Z</time>
      </trkpt>
      <trkpt lat="39.476548" lon="3.148668">
        <ele>88.8</ele>
        <time>2016-04-18T12:55:01Z</time>
      </trkpt>
      <trkpt lat="39.476638" lon="3.148448">
        <ele>88.8</ele>
        <time>2016-04-18T12:55:03Z</time>
      </trkpt>
      <trkpt lat="39.47684" lon="3.147915">
        <ele>88.8</ele>
        <time>2016-04-18T12:55:08Z</time>
      </trkpt>
      <trkpt lat="39.476851" lon="3.147799">
        <ele>88.8</ele>
        <time>2016-04-18T12:55:09Z</time>
      </trkpt>
      <trkpt lat="39.476829" lon="3.14768">
        <ele>88.2</ele>
        <time>2016-04-18T12:55:10Z</time>
      </trkpt>
      <trkpt lat="39.476794" lon="3.14757">
        <ele>87.8</ele>
        <time>2016-04-18T12:55:11Z</time>
      </trkpt>
      <trkpt lat="39.476756" lon="3.147457">
        <ele>87.4</ele>
        <time>2016-04-18T12:55:12Z</time>
      </trkpt>
      <trkpt lat="39.476716" lon="3.147345">
        <ele>87</ele>
        <time>2016-04-18T12:55:13Z</time>
      </trkpt>
      <trkpt lat="39.476674" lon="3.147229">
        <ele>86.4</ele>
        <time>2016-04-18T12:55:14Z</time>
      </trkpt>
      <trkpt lat="39.476633" lon="3.14711">
        <ele>86</ele>
        <time>2016-04-18T12:55:15Z</time>
      </trkpt>
      <trkpt lat="39.476598" lon="3.146998">
        <ele>85.6</ele>
        <time>2016-04-18T12:55:16Z</time>
      </trkpt>
      <trkpt lat="39.476557" lon="3.146889">
        <ele>85.2</ele>
        <time>2016-04-18T12:55:17Z</time>
      </trkpt>
      <trkpt lat="39.47652" lon="3.146772">
        <ele>84.8</ele>
        <time>2016-04-18T12:55:18Z</time>
      </trkpt>
      <trkpt lat="39.476479" lon="3.146654">
        <ele>84.4</ele>
        <time>2016-04-18T12:55:19Z</time>
      </trkpt>
      <trkpt lat="39.476406" lon="3.14642">
        <ele>84</ele>
        <time>2016-04-18T12:55:21Z</time>
      </trkpt>
      <trkpt lat="39.476369" lon="3.146299">
        <ele>83.6</ele>
        <time>2016-04-18T12:55:22Z</time>
      </trkpt>
      <trkpt lat="39.476331" lon="3.146185">
        <ele>82.6</ele>
        <time>2016-04-18T12:55:23Z</time>
      </trkpt>
      <trkpt lat="39.476297" lon="3.146078">
        <ele>82.2</ele>
        <time>2016-04-18T12:55:24Z</time>
      </trkpt>
      <trkpt lat="39.476163" lon="3.145637">
        <ele>82.2</ele>
        <time>2016-04-18T12:55:28Z</time>
      </trkpt>
      <trkpt lat="39.476129" lon="3.145532">
        <ele>82.2</ele>
        <time>2016-04-18T12:55:29Z</time>
      </trkpt>
      <trkpt lat="39.476" lon="3.145107">
        <ele>82.2</ele>
        <time>2016-04-18T12:55:33Z</time>
      </trkpt>
      <trkpt lat="39.475963" lon="3.145">
        <ele>81.8</ele>
        <time>2016-04-18T12:55:34Z</time>
      </trkpt>
      <trkpt lat="39.475926" lon="3.144891">
        <ele>81.2</ele>
        <time>2016-04-18T12:55:35Z</time>
      </trkpt>
      <trkpt lat="39.47589" lon="3.144777">
        <ele>80.8</ele>
        <time>2016-04-18T12:55:36Z</time>
      </trkpt>
      <trkpt lat="39.475852" lon="3.144665">
        <ele>80.4</ele>
        <time>2016-04-18T12:55:37Z</time>
      </trkpt>
      <trkpt lat="39.475813" lon="3.14455">
        <ele>79.8</ele>
        <time>2016-04-18T12:55:38Z</time>
      </trkpt>
      <trkpt lat="39.475747" lon="3.144325">
        <ele>79.4</ele>
        <time>2016-04-18T12:55:40Z</time>
      </trkpt>
      <trkpt lat="39.475714" lon="3.144218">
        <ele>79</ele>
        <time>2016-04-18T12:55:41Z</time>
      </trkpt>
      <trkpt lat="39.475681" lon="3.14411">
        <ele>78.6</ele>
        <time>2016-04-18T12:55:42Z</time>
      </trkpt>
      <trkpt lat="39.475643" lon="3.144005">
        <ele>78.2</ele>
        <time>2016-04-18T12:55:43Z</time>
      </trkpt>
      <trkpt lat="39.475607" lon="3.14389">
        <ele>77.8</ele>
        <time>2016-04-18T12:55:44Z</time>
      </trkpt>
      <trkpt lat="39.475475" lon="3.143487">
        <ele>77.8</ele>
        <time>2016-04-18T12:55:48Z</time>
      </trkpt>
      <trkpt lat="39.475459" lon="3.143413">
        <ele>77.8</ele>
        <time>2016-04-18T12:55:49Z</time>
      </trkpt>
      <trkpt lat="39.475461" lon="3.143244">
        <ele>77.8</ele>
        <time>2016-04-18T12:55:51Z</time>
      </trkpt>
      <trkpt lat="39.475565" lon="3.143114">
        <ele>77.8</ele>
        <time>2016-04-18T12:55:53Z</time>
      </trkpt>
      <trkpt lat="39.475624" lon="3.143065">
        <ele>77.8</ele>
        <time>2016-04-18T12:55:54Z</time>
      </trkpt>
      <trkpt lat="39.475698" lon="3.143029">
        <ele>77.8</ele>
        <time>2016-04-18T12:55:55Z</time>
      </trkpt>
      <trkpt lat="39.475848" lon="3.142952">
        <ele>77.8</ele>
        <time>2016-04-18T12:55:57Z</time>
      </trkpt>
      <trkpt lat="39.475921" lon="3.142915">
        <ele>77.8</ele>
        <time>2016-04-18T12:55:58Z</time>
      </trkpt>
      <trkpt lat="39.475992" lon="3.142882">
        <ele>77.8</ele>
        <time>2016-04-18T12:55:59Z</time>
      </trkpt>
      <trkpt lat="39.476417" lon="3.142658">
        <ele>77.8</ele>
        <time>2016-04-18T12:56:05Z</time>
      </trkpt>
      <trkpt lat="39.476574" lon="3.142578">
        <ele>77.8</ele>
        <time>2016-04-18T12:56:07Z</time>
      </trkpt>
      <trkpt lat="39.476732" lon="3.142505">
        <ele>77.2</ele>
        <time>2016-04-18T12:56:09Z</time>
      </trkpt>
      <trkpt lat="39.47681" lon="3.142466">
        <ele>76.8</ele>
        <time>2016-04-18T12:56:10Z</time>
      </trkpt>
      <trkpt lat="39.476884" lon="3.142429">
        <ele>76.4</ele>
        <time>2016-04-18T12:56:11Z</time>
      </trkpt>
      <trkpt lat="39.47696" lon="3.142384">
        <ele>76</ele>
        <time>2016-04-18T12:56:12Z</time>
      </trkpt>
      <trkpt lat="39.47704" lon="3.142344">
        <ele>75.4</ele>
        <time>2016-04-18T12:56:13Z</time>
      </trkpt>
      <trkpt lat="39.477192" lon="3.142281">
        <ele>75.4</ele>
        <time>2016-04-18T12:56:15Z</time>
      </trkpt>
      <trkpt lat="39.477343" lon="3.142216">
        <ele>75.4</ele>
        <time>2016-04-18T12:56:17Z</time>
      </trkpt>
      <trkpt lat="39.477491" lon="3.142">
        <ele>75.4</ele>
        <time>2016-04-18T12:56:20Z</time>
      </trkpt>
      <trkpt lat="39.477587" lon="3.141846">
        <ele>75.4</ele>
        <time>2016-04-18T12:56:22Z</time>
      </trkpt>
      <trkpt lat="39.477657" lon="3.141794">
        <ele>75.4</ele>
        <time>2016-04-18T12:56:23Z</time>
      </trkpt>
      <trkpt lat="39.478034" lon="3.141497">
        <ele>75.4</ele>
        <time>2016-04-18T12:56:29Z</time>
      </trkpt>
      <trkpt lat="39.478143" lon="3.14137">
        <ele>75.4</ele>
        <time>2016-04-18T12:56:31Z</time>
      </trkpt>
      <trkpt lat="39.478195" lon="3.141309">
        <ele>75.4</ele>
        <time>2016-04-18T12:56:32Z</time>
      </trkpt>
      <trkpt lat="39.47825" lon="3.14125">
        <ele>75.4</ele>
        <time>2016-04-18T12:56:33Z</time>
      </trkpt>
      <trkpt lat="39.478357" lon="3.141128">
        <ele>75.4</ele>
        <time>2016-04-18T12:56:34Z</time>
      </trkpt>
      <trkpt lat="39.478357" lon="3.141128">
        <ele>75.4</ele>
        <time>2016-04-18T12:56:35Z</time>
      </trkpt>
      <trkpt lat="39.47856" lon="3.140902">
        <ele>75.4</ele>
        <time>2016-04-18T12:56:39Z</time>
      </trkpt>
      <trkpt lat="39.47861" lon="3.140841">
        <ele>75.4</ele>
        <time>2016-04-18T12:56:40Z</time>
      </trkpt>
      <trkpt lat="39.479035" lon="3.140348">
        <ele>75.4</ele>
        <time>2016-04-18T12:56:48Z</time>
      </trkpt>
      <trkpt lat="39.479088" lon="3.140285">
        <ele>75.4</ele>
        <time>2016-04-18T12:56:49Z</time>
      </trkpt>
      <trkpt lat="39.479143" lon="3.14022">
        <ele>75</ele>
        <time>2016-04-18T12:56:50Z</time>
      </trkpt>
      <trkpt lat="39.4792" lon="3.140154">
        <ele>74.6</ele>
        <time>2016-04-18T12:56:51Z</time>
      </trkpt>
      <trkpt lat="39.479255" lon="3.140088">
        <ele>74</ele>
        <time>2016-04-18T12:56:52Z</time>
      </trkpt>
      <trkpt lat="39.479311" lon="3.14002">
        <ele>73.6</ele>
        <time>2016-04-18T12:56:53Z</time>
      </trkpt>
      <trkpt lat="39.479366" lon="3.139952">
        <ele>73.2</ele>
        <time>2016-04-18T12:56:54Z</time>
      </trkpt>
      <trkpt lat="39.479478" lon="3.139826">
        <ele>73.2</ele>
        <time>2016-04-18T12:56:56Z</time>
      </trkpt>
      <trkpt lat="39.479534" lon="3.139762">
        <ele>73.2</ele>
        <time>2016-04-18T12:56:57Z</time>
      </trkpt>
      <trkpt lat="39.479965" lon="3.139273">
        <ele>73.2</ele>
        <time>2016-04-18T12:57:05Z</time>
      </trkpt>
      <trkpt lat="39.480331" lon="3.138818">
        <ele>73.2</ele>
        <time>2016-04-18T12:57:12Z</time>
      </trkpt>
      <trkpt lat="39.480468" lon="3.138592">
        <ele>73.2</ele>
        <time>2016-04-18T12:57:15Z</time>
      </trkpt>
      <trkpt lat="39.480702" lon="3.138212">
        <ele>73.2</ele>
        <time>2016-04-18T12:57:20Z</time>
      </trkpt>
      <trkpt lat="39.480942" lon="3.137824">
        <ele>73.2</ele>
        <time>2016-04-18T12:57:25Z</time>
      </trkpt>
      <trkpt lat="39.481114" lon="3.137612">
        <ele>73.2</ele>
        <time>2016-04-18T12:57:28Z</time>
      </trkpt>
      <trkpt lat="39.481183" lon="3.13756">
        <ele>73.2</ele>
        <time>2016-04-18T12:57:29Z</time>
      </trkpt>
      <trkpt lat="39.481328" lon="3.137456">
        <ele>73.2</ele>
        <time>2016-04-18T12:57:31Z</time>
      </trkpt>
      <trkpt lat="39.481546" lon="3.1373">
        <ele>73.2</ele>
        <time>2016-04-18T12:57:34Z</time>
      </trkpt>
      <trkpt lat="39.481615" lon="3.137249">
        <ele>73.2</ele>
        <time>2016-04-18T12:57:35Z</time>
      </trkpt>
      <trkpt lat="39.481994" lon="3.136979">
        <ele>73.2</ele>
        <time>2016-04-18T12:57:40Z</time>
      </trkpt>
      <trkpt lat="39.48215" lon="3.136874">
        <ele>73.2</ele>
        <time>2016-04-18T12:57:42Z</time>
      </trkpt>
      <trkpt lat="39.482226" lon="3.13682">
        <ele>72.8</ele>
        <time>2016-04-18T12:57:43Z</time>
      </trkpt>
      <trkpt lat="39.482302" lon="3.136764">
        <ele>72.2</ele>
        <time>2016-04-18T12:57:44Z</time>
      </trkpt>
      <trkpt lat="39.482378" lon="3.136707">
        <ele>71.8</ele>
        <time>2016-04-18T12:57:45Z</time>
      </trkpt>
      <trkpt lat="39.482458" lon="3.13665">
        <ele>71.4</ele>
        <time>2016-04-18T12:57:46Z</time>
      </trkpt>
      <trkpt lat="39.482533" lon="3.136596">
        <ele>70.8</ele>
        <time>2016-04-18T12:57:47Z</time>
      </trkpt>
      <trkpt lat="39.48284" lon="3.136379">
        <ele>70.8</ele>
        <time>2016-04-18T12:57:51Z</time>
      </trkpt>
      <trkpt lat="39.483239" lon="3.136099">
        <ele>70.8</ele>
        <time>2016-04-18T12:57:56Z</time>
      </trkpt>
      <trkpt lat="39.483318" lon="3.136042">
        <ele>70.4</ele>
        <time>2016-04-18T12:57:57Z</time>
      </trkpt>
      <trkpt lat="39.483396" lon="3.135988">
        <ele>70</ele>
        <time>2016-04-18T12:57:58Z</time>
      </trkpt>
      <trkpt lat="39.483476" lon="3.135933">
        <ele>69.6</ele>
        <time>2016-04-18T12:57:59Z</time>
      </trkpt>
      <trkpt lat="39.483556" lon="3.135879">
        <ele>69.2</ele>
        <time>2016-04-18T12:58:00Z</time>
      </trkpt>
      <trkpt lat="39.483639" lon="3.135822">
        <ele>68.8</ele>
        <time>2016-04-18T12:58:01Z</time>
      </trkpt>
      <trkpt lat="39.484118" lon="3.135473">
        <ele>68.8</ele>
        <time>2016-04-18T12:58:07Z</time>
      </trkpt>
      <trkpt lat="39.484278" lon="3.135342">
        <ele>68.8</ele>
        <time>2016-04-18T12:58:09Z</time>
      </trkpt>
      <trkpt lat="39.48476" lon="3.134953">
        <ele>68.8</ele>
        <time>2016-04-18T12:58:15Z</time>
      </trkpt>
      <trkpt lat="39.484921" lon="3.134819">
        <ele>68</ele>
        <time>2016-04-18T12:58:17Z</time>
      </trkpt>
      <trkpt lat="39.485" lon="3.134754">
        <ele>67.4</ele>
        <time>2016-04-18T12:58:18Z</time>
      </trkpt>
      <trkpt lat="39.485082" lon="3.134686">
        <ele>67</ele>
        <time>2016-04-18T12:58:19Z</time>
      </trkpt>
      <trkpt lat="39.485161" lon="3.134616">
        <ele>66.6</ele>
        <time>2016-04-18T12:58:20Z</time>
      </trkpt>
      <trkpt lat="39.485657" lon="3.134217">
        <ele>66.6</ele>
        <time>2016-04-18T12:58:26Z</time>
      </trkpt>
      <trkpt lat="39.486165" lon="3.133789">
        <ele>66.6</ele>
        <time>2016-04-18T12:58:32Z</time>
      </trkpt>
      <trkpt lat="39.486413" lon="3.133587">
        <ele>66.6</ele>
        <time>2016-04-18T12:58:35Z</time>
      </trkpt>
      <trkpt lat="39.486911" lon="3.133172">
        <ele>66.6</ele>
        <time>2016-04-18T12:58:41Z</time>
      </trkpt>
      <trkpt lat="39.487156" lon="3.132974">
        <ele>66.6</ele>
        <time>2016-04-18T12:58:44Z</time>
      </trkpt>
      <trkpt lat="39.487646" lon="3.132568">
        <ele>66.6</ele>
        <time>2016-04-18T12:58:50Z</time>
      </trkpt>
      <trkpt lat="39.488067" lon="3.132222">
        <ele>66.6</ele>
        <time>2016-04-18T12:58:55Z</time>
      </trkpt>
      <trkpt lat="39.488474" lon="3.131892">
        <ele>66.2</ele>
        <time>2016-04-18T12:59:00Z</time>
      </trkpt>
      <trkpt lat="39.488559" lon="3.131824">
        <ele>65.6</ele>
        <time>2016-04-18T12:59:01Z</time>
      </trkpt>
      <trkpt lat="39.488642" lon="3.131755">
        <ele>65.2</ele>
        <time>2016-04-18T12:59:02Z</time>
      </trkpt>
      <trkpt lat="39.488725" lon="3.131687">
        <ele>64.8</ele>
        <time>2016-04-18T12:59:03Z</time>
      </trkpt>
      <trkpt lat="39.488807" lon="3.131621">
        <ele>64.4</ele>
        <time>2016-04-18T12:59:04Z</time>
      </trkpt>
      <trkpt lat="39.488973" lon="3.131486">
        <ele>64.4</ele>
        <time>2016-04-18T12:59:06Z</time>
      </trkpt>
      <trkpt lat="39.489469" lon="3.131086">
        <ele>64</ele>
        <time>2016-04-18T12:59:12Z</time>
      </trkpt>
      <trkpt lat="39.48955" lon="3.131016">
        <ele>63.4</ele>
        <time>2016-04-18T12:59:13Z</time>
      </trkpt>
      <trkpt lat="39.489631" lon="3.130949">
        <ele>63</ele>
        <time>2016-04-18T12:59:14Z</time>
      </trkpt>
      <trkpt lat="39.489714" lon="3.130883">
        <ele>62.6</ele>
        <time>2016-04-18T12:59:15Z</time>
      </trkpt>
      <trkpt lat="39.4898" lon="3.130816">
        <ele>62.2</ele>
        <time>2016-04-18T12:59:16Z</time>
      </trkpt>
      <trkpt lat="39.490173" lon="3.130483">
        <ele>62.2</ele>
        <time>2016-04-18T12:59:21Z</time>
      </trkpt>
      <trkpt lat="39.49031" lon="3.130182">
        <ele>62.2</ele>
        <time>2016-04-18T12:59:24Z</time>
      </trkpt>
      <trkpt lat="39.490338" lon="3.130069">
        <ele>62.2</ele>
        <time>2016-04-18T12:59:25Z</time>
      </trkpt>
      <trkpt lat="39.490513" lon="3.129385">
        <ele>62.2</ele>
        <time>2016-04-18T12:59:31Z</time>
      </trkpt>
      <trkpt lat="39.490533" lon="3.129269">
        <ele>62.2</ele>
        <time>2016-04-18T12:59:32Z</time>
      </trkpt>
      <trkpt lat="39.490538" lon="3.129029">
        <ele>62.2</ele>
        <time>2016-04-18T12:59:34Z</time>
      </trkpt>
      <trkpt lat="39.490494" lon="3.128792">
        <ele>62.2</ele>
        <time>2016-04-18T12:59:36Z</time>
      </trkpt>
      <trkpt lat="39.490439" lon="3.128559">
        <ele>62.2</ele>
        <time>2016-04-18T12:59:38Z</time>
      </trkpt>
      <trkpt lat="39.490263" lon="3.127853">
        <ele>62.2</ele>
        <time>2016-04-18T12:59:44Z</time>
      </trkpt>
      <trkpt lat="39.490206" lon="3.127617">
        <ele>62.2</ele>
        <time>2016-04-18T12:59:46Z</time>
      </trkpt>
      <trkpt lat="39.490029" lon="3.126917">
        <ele>62.2</ele>
        <time>2016-04-18T12:59:52Z</time>
      </trkpt>
      <trkpt lat="39.489975" lon="3.126682">
        <ele>62.2</ele>
        <time>2016-04-18T12:59:54Z</time>
      </trkpt>
      <trkpt lat="39.489799" lon="3.125966">
        <ele>62.2</ele>
        <time>2016-04-18T13:00:00Z</time>
      </trkpt>
      <trkpt lat="39.489679" lon="3.125476">
        <ele>62.2</ele>
        <time>2016-04-18T13:00:04Z</time>
      </trkpt>
      <trkpt lat="39.489505" lon="3.124745">
        <ele>62.2</ele>
        <time>2016-04-18T13:00:10Z</time>
      </trkpt>
      <trkpt lat="39.489446" lon="3.124503">
        <ele>62.2</ele>
        <time>2016-04-18T13:00:12Z</time>
      </trkpt>
      <trkpt lat="39.48927" lon="3.123769">
        <ele>62.2</ele>
        <time>2016-04-18T13:00:18Z</time>
      </trkpt>
      <trkpt lat="39.489212" lon="3.123528">
        <ele>61.8</ele>
        <time>2016-04-18T13:00:20Z</time>
      </trkpt>
      <trkpt lat="39.489183" lon="3.123407">
        <ele>61.4</ele>
        <time>2016-04-18T13:00:21Z</time>
      </trkpt>
      <trkpt lat="39.489154" lon="3.123287">
        <ele>60.8</ele>
        <time>2016-04-18T13:00:22Z</time>
      </trkpt>
      <trkpt lat="39.489123" lon="3.123168">
        <ele>60.4</ele>
        <time>2016-04-18T13:00:23Z</time>
      </trkpt>
      <trkpt lat="39.489093" lon="3.123047">
        <ele>60</ele>
        <time>2016-04-18T13:00:24Z</time>
      </trkpt>
      <trkpt lat="39.489005" lon="3.122677">
        <ele>60</ele>
        <time>2016-04-18T13:00:27Z</time>
      </trkpt>
      <trkpt lat="39.488855" lon="3.121936">
        <ele>60</ele>
        <time>2016-04-18T13:00:33Z</time>
      </trkpt>
      <trkpt lat="39.488852" lon="3.121807">
        <ele>60</ele>
        <time>2016-04-18T13:00:34Z</time>
      </trkpt>
      <trkpt lat="39.488878" lon="3.121425">
        <ele>60</ele>
        <time>2016-04-18T13:00:37Z</time>
      </trkpt>
      <trkpt lat="39.488893" lon="3.121297">
        <ele>60</ele>
        <time>2016-04-18T13:00:38Z</time>
      </trkpt>
      <trkpt lat="39.48896" lon="3.12092">
        <ele>60</ele>
        <time>2016-04-18T13:00:41Z</time>
      </trkpt>
      <trkpt lat="39.488997" lon="3.120803">
        <ele>60</ele>
        <time>2016-04-18T13:00:42Z</time>
      </trkpt>
      <trkpt lat="39.489236" lon="3.120105">
        <ele>60</ele>
        <time>2016-04-18T13:00:48Z</time>
      </trkpt>
      <trkpt lat="39.489269" lon="3.119988">
        <ele>60</ele>
        <time>2016-04-18T13:00:49Z</time>
      </trkpt>
      <trkpt lat="39.489307" lon="3.119876">
        <ele>60</ele>
        <time>2016-04-18T13:00:50Z</time>
      </trkpt>
      <trkpt lat="39.489423" lon="3.11956">
        <ele>60</ele>
        <time>2016-04-18T13:00:53Z</time>
      </trkpt>
      <trkpt lat="39.489616" lon="3.119032">
        <ele>60</ele>
        <time>2016-04-18T13:00:58Z</time>
      </trkpt>
      <trkpt lat="39.489769" lon="3.118613">
        <ele>60</ele>
        <time>2016-04-18T13:01:02Z</time>
      </trkpt>
      <trkpt lat="39.489993" lon="3.118">
        <ele>60</ele>
        <time>2016-04-18T13:01:08Z</time>
      </trkpt>
      <trkpt lat="39.490143" lon="3.117583">
        <ele>60</ele>
        <time>2016-04-18T13:01:12Z</time>
      </trkpt>
      <trkpt lat="39.490259" lon="3.117275">
        <ele>60</ele>
        <time>2016-04-18T13:01:15Z</time>
      </trkpt>
      <trkpt lat="39.490481" lon="3.116649">
        <ele>60</ele>
        <time>2016-04-18T13:01:21Z</time>
      </trkpt>
      <trkpt lat="39.490518" lon="3.116548">
        <ele>60</ele>
        <time>2016-04-18T13:01:22Z</time>
      </trkpt>
      <trkpt lat="39.490773" lon="3.115831">
        <ele>60</ele>
        <time>2016-04-18T13:01:29Z</time>
      </trkpt>
      <trkpt lat="39.490883" lon="3.115515">
        <ele>60</ele>
        <time>2016-04-18T13:01:32Z</time>
      </trkpt>
      <trkpt lat="39.491102" lon="3.114872">
        <ele>60</ele>
        <time>2016-04-18T13:01:38Z</time>
      </trkpt>
      <trkpt lat="39.491171" lon="3.11466">
        <ele>60</ele>
        <time>2016-04-18T13:01:40Z</time>
      </trkpt>
      <trkpt lat="39.491345" lon="3.114134">
        <ele>60</ele>
        <time>2016-04-18T13:01:45Z</time>
      </trkpt>
      <trkpt lat="39.491481" lon="3.113715">
        <ele>60</ele>
        <time>2016-04-18T13:01:49Z</time>
      </trkpt>
      <trkpt lat="39.491719" lon="3.112989">
        <ele>60</ele>
        <time>2016-04-18T13:01:56Z</time>
      </trkpt>
      <trkpt lat="39.491779" lon="3.112781">
        <ele>60</ele>
        <time>2016-04-18T13:01:58Z</time>
      </trkpt>
      <trkpt lat="39.491802" lon="3.112676">
        <ele>60</ele>
        <time>2016-04-18T13:01:59Z</time>
      </trkpt>
      <trkpt lat="39.49184" lon="3.112465">
        <ele>60</ele>
        <time>2016-04-18T13:02:01Z</time>
      </trkpt>
      <trkpt lat="39.491858" lon="3.112357">
        <ele>60</ele>
        <time>2016-04-18T13:02:02Z</time>
      </trkpt>
      <trkpt lat="39.491875" lon="3.112248">
        <ele>60</ele>
        <time>2016-04-18T13:02:03Z</time>
      </trkpt>
      <trkpt lat="39.492012" lon="3.111497">
        <ele>60</ele>
        <time>2016-04-18T13:02:10Z</time>
      </trkpt>
      <trkpt lat="39.492088" lon="3.11104">
        <ele>60</ele>
        <time>2016-04-18T13:02:14Z</time>
      </trkpt>
      <trkpt lat="39.492169" lon="3.110596">
        <ele>60</ele>
        <time>2016-04-18T13:02:18Z</time>
      </trkpt>
      <trkpt lat="39.492285" lon="3.109909">
        <ele>60</ele>
        <time>2016-04-18T13:02:24Z</time>
      </trkpt>
      <trkpt lat="39.492323" lon="3.109682">
        <ele>60</ele>
        <time>2016-04-18T13:02:26Z</time>
      </trkpt>
      <trkpt lat="39.492365" lon="3.109461">
        <ele>60</ele>
        <time>2016-04-18T13:02:28Z</time>
      </trkpt>
      <trkpt lat="39.492448" lon="3.109125">
        <ele>60</ele>
        <time>2016-04-18T13:02:31Z</time>
      </trkpt>
      <trkpt lat="39.492523" lon="3.108901">
        <ele>60</ele>
        <time>2016-04-18T13:02:33Z</time>
      </trkpt>
      <trkpt lat="39.492826" lon="3.108316">
        <ele>60</ele>
        <time>2016-04-18T13:02:38Z</time>
      </trkpt>
      <trkpt lat="39.492991" lon="3.108031">
        <ele>60</ele>
        <time>2016-04-18T13:02:42Z</time>
      </trkpt>
      <trkpt lat="39.493155" lon="3.107762">
        <ele>60</ele>
        <time>2016-04-18T13:02:45Z</time>
      </trkpt>
      <trkpt lat="39.493216" lon="3.107677">
        <ele>60</ele>
        <time>2016-04-18T13:02:46Z</time>
      </trkpt>
      <trkpt lat="39.493563" lon="3.107155">
        <ele>60</ele>
        <time>2016-04-18T13:02:52Z</time>
      </trkpt>
      <trkpt lat="39.493809" lon="3.106706">
        <ele>60</ele>
        <time>2016-04-18T13:02:57Z</time>
      </trkpt>
      <trkpt lat="39.493841" lon="3.106612">
        <ele>60</ele>
        <time>2016-04-18T13:02:58Z</time>
      </trkpt>
      <trkpt lat="39.493995" lon="3.106007">
        <ele>60</ele>
        <time>2016-04-18T13:03:04Z</time>
      </trkpt>
      <trkpt lat="39.494098" lon="3.105592">
        <ele>60</ele>
        <time>2016-04-18T13:03:08Z</time>
      </trkpt>
      <trkpt lat="39.49417" lon="3.105296">
        <ele>60</ele>
        <time>2016-04-18T13:03:11Z</time>
      </trkpt>
      <trkpt lat="39.494194" lon="3.105198">
        <ele>60</ele>
        <time>2016-04-18T13:03:12Z</time>
      </trkpt>
      <trkpt lat="39.494216" lon="3.105097">
        <ele>60.4</ele>
        <time>2016-04-18T13:03:13Z</time>
      </trkpt>
      <trkpt lat="39.49424" lon="3.104998">
        <ele>61.2</ele>
        <time>2016-04-18T13:03:14Z</time>
      </trkpt>
      <trkpt lat="39.494265" lon="3.1049">
        <ele>61.6</ele>
        <time>2016-04-18T13:03:15Z</time>
      </trkpt>
      <trkpt lat="39.494288" lon="3.104802">
        <ele>62.2</ele>
        <time>2016-04-18T13:03:16Z</time>
      </trkpt>
      <trkpt lat="39.494361" lon="3.104514">
        <ele>62.2</ele>
        <time>2016-04-18T13:03:19Z</time>
      </trkpt>
      <trkpt lat="39.494502" lon="3.103947">
        <ele>62.2</ele>
        <time>2016-04-18T13:03:25Z</time>
      </trkpt>
      <trkpt lat="39.49455" lon="3.103749">
        <ele>62.2</ele>
        <time>2016-04-18T13:03:27Z</time>
      </trkpt>
      <trkpt lat="39.494573" lon="3.103654">
        <ele>62.6</ele>
        <time>2016-04-18T13:03:28Z</time>
      </trkpt>
      <trkpt lat="39.494599" lon="3.103553">
        <ele>63</ele>
        <time>2016-04-18T13:03:29Z</time>
      </trkpt>
      <trkpt lat="39.494625" lon="3.103457">
        <ele>63.4</ele>
        <time>2016-04-18T13:03:30Z</time>
      </trkpt>
      <trkpt lat="39.49465" lon="3.10336">
        <ele>63.8</ele>
        <time>2016-04-18T13:03:31Z</time>
      </trkpt>
      <trkpt lat="39.494675" lon="3.103262">
        <ele>64.2</ele>
        <time>2016-04-18T13:03:32Z</time>
      </trkpt>
      <trkpt lat="39.494749" lon="3.102959">
        <ele>64.2</ele>
        <time>2016-04-18T13:03:35Z</time>
      </trkpt>
      <trkpt lat="39.494913" lon="3.102285">
        <ele>64.2</ele>
        <time>2016-04-18T13:03:42Z</time>
      </trkpt>
      <trkpt lat="39.494941" lon="3.102184">
        <ele>64.2</ele>
        <time>2016-04-18T13:03:43Z</time>
      </trkpt>
      <trkpt lat="39.494995" lon="3.102">
        <ele>64.6</ele>
        <time>2016-04-18T13:03:45Z</time>
      </trkpt>
      <trkpt lat="39.495022" lon="3.101911">
        <ele>65</ele>
        <time>2016-04-18T13:03:46Z</time>
      </trkpt>
      <trkpt lat="39.49505" lon="3.101821">
        <ele>65.4</ele>
        <time>2016-04-18T13:03:47Z</time>
      </trkpt>
      <trkpt lat="39.495078" lon="3.10173">
        <ele>65.8</ele>
        <time>2016-04-18T13:03:48Z</time>
      </trkpt>
      <trkpt lat="39.495105" lon="3.101636">
        <ele>66.4</ele>
        <time>2016-04-18T13:03:49Z</time>
      </trkpt>
      <trkpt lat="39.495134" lon="3.101538">
        <ele>66.4</ele>
        <time>2016-04-18T13:03:50Z</time>
      </trkpt>
      <trkpt lat="39.495291" lon="3.101008">
        <ele>66.4</ele>
        <time>2016-04-18T13:03:56Z</time>
      </trkpt>
      <trkpt lat="39.495507" lon="3.100299">
        <ele>66.4</ele>
        <time>2016-04-18T13:04:04Z</time>
      </trkpt>
      <trkpt lat="39.495561" lon="3.100115">
        <ele>66.4</ele>
        <time>2016-04-18T13:04:06Z</time>
      </trkpt>
      <trkpt lat="39.495779" lon="3.099409">
        <ele>66.4</ele>
        <time>2016-04-18T13:04:14Z</time>
      </trkpt>
      <trkpt lat="39.495808" lon="3.099317">
        <ele>66.8</ele>
        <time>2016-04-18T13:04:15Z</time>
      </trkpt>
      <trkpt lat="39.495838" lon="3.099222">
        <ele>67.2</ele>
        <time>2016-04-18T13:04:16Z</time>
      </trkpt>
      <trkpt lat="39.495868" lon="3.09913">
        <ele>67.6</ele>
        <time>2016-04-18T13:04:17Z</time>
      </trkpt>
      <trkpt lat="39.495897" lon="3.099036">
        <ele>68</ele>
        <time>2016-04-18T13:04:18Z</time>
      </trkpt>
      <trkpt lat="39.495925" lon="3.098945">
        <ele>68.4</ele>
        <time>2016-04-18T13:04:19Z</time>
      </trkpt>
      <trkpt lat="39.496041" lon="3.098571">
        <ele>68.4</ele>
        <time>2016-04-18T13:04:23Z</time>
      </trkpt>
      <trkpt lat="39.496252" lon="3.097908">
        <ele>68.4</ele>
        <time>2016-04-18T13:04:30Z</time>
      </trkpt>
      <trkpt lat="39.496307" lon="3.097725">
        <ele>68.4</ele>
        <time>2016-04-18T13:04:32Z</time>
      </trkpt>
      <trkpt lat="39.496563" lon="3.096893">
        <ele>68.4</ele>
        <time>2016-04-18T13:04:40Z</time>
      </trkpt>
      <trkpt lat="39.496704" lon="3.096437">
        <ele>68.8</ele>
        <time>2016-04-18T13:04:46Z</time>
      </trkpt>
      <trkpt lat="39.496731" lon="3.096347">
        <ele>69.2</ele>
        <time>2016-04-18T13:04:47Z</time>
      </trkpt>
      <trkpt lat="39.496761" lon="3.096256">
        <ele>69.6</ele>
        <time>2016-04-18T13:04:48Z</time>
      </trkpt>
      <trkpt lat="39.496789" lon="3.096164">
        <ele>70.2</ele>
        <time>2016-04-18T13:04:49Z</time>
      </trkpt>
      <trkpt lat="39.496817" lon="3.096075">
        <ele>70.6</ele>
        <time>2016-04-18T13:04:50Z</time>
      </trkpt>
      <trkpt lat="39.496846" lon="3.095979">
        <ele>70.6</ele>
        <time>2016-04-18T13:04:51Z</time>
      </trkpt>
      <trkpt lat="39.497037" lon="3.095347">
        <ele>70.6</ele>
        <time>2016-04-18T13:04:58Z</time>
      </trkpt>
      <trkpt lat="39.497259" lon="3.094604">
        <ele>70.6</ele>
        <time>2016-04-18T13:05:06Z</time>
      </trkpt>
      <trkpt lat="39.497446" lon="3.093953">
        <ele>70.6</ele>
        <time>2016-04-18T13:05:13Z</time>
      </trkpt>
      <trkpt lat="39.497475" lon="3.093853">
        <ele>70.6</ele>
        <time>2016-04-18T13:05:14Z</time>
      </trkpt>
      <trkpt lat="39.497695" lon="3.09312">
        <ele>70.6</ele>
        <time>2016-04-18T13:05:22Z</time>
      </trkpt>
      <trkpt lat="39.497909" lon="3.092409">
        <ele>70.6</ele>
        <time>2016-04-18T13:05:30Z</time>
      </trkpt>
      <trkpt lat="39.498119" lon="3.091713">
        <ele>70.6</ele>
        <time>2016-04-18T13:05:38Z</time>
      </trkpt>
      <trkpt lat="39.498143" lon="3.091629">
        <ele>70.6</ele>
        <time>2016-04-18T13:05:39Z</time>
      </trkpt>
      <trkpt lat="39.498221" lon="3.091385">
        <ele>71.4</ele>
        <time>2016-04-18T13:05:42Z</time>
      </trkpt>
      <trkpt lat="39.498251" lon="3.091304">
        <ele>71.8</ele>
        <time>2016-04-18T13:05:43Z</time>
      </trkpt>
      <trkpt lat="39.498284" lon="3.091224">
        <ele>72.2</ele>
        <time>2016-04-18T13:05:44Z</time>
      </trkpt>
      <trkpt lat="39.498318" lon="3.091139">
        <ele>72.8</ele>
        <time>2016-04-18T13:05:45Z</time>
      </trkpt>
      <trkpt lat="39.49835" lon="3.091057">
        <ele>72.8</ele>
        <time>2016-04-18T13:05:46Z</time>
      </trkpt>
      <trkpt lat="39.498602" lon="3.090408">
        <ele>73.2</ele>
        <time>2016-04-18T13:05:54Z</time>
      </trkpt>
      <trkpt lat="39.498634" lon="3.090326">
        <ele>73.6</ele>
        <time>2016-04-18T13:05:55Z</time>
      </trkpt>
      <trkpt lat="39.498666" lon="3.090244">
        <ele>74</ele>
        <time>2016-04-18T13:05:56Z</time>
      </trkpt>
      <trkpt lat="39.498695" lon="3.090161">
        <ele>74.4</ele>
        <time>2016-04-18T13:05:57Z</time>
      </trkpt>
      <trkpt lat="39.498727" lon="3.090079">
        <ele>75</ele>
        <time>2016-04-18T13:05:58Z</time>
      </trkpt>
      <trkpt lat="39.498891" lon="3.089656">
        <ele>75</ele>
        <time>2016-04-18T13:06:03Z</time>
      </trkpt>
      <trkpt lat="39.499098" lon="3.08909">
        <ele>75</ele>
        <time>2016-04-18T13:06:09Z</time>
      </trkpt>
      <trkpt lat="39.499261" lon="3.088687">
        <ele>74.4</ele>
        <time>2016-04-18T13:06:13Z</time>
      </trkpt>
      <trkpt lat="39.499301" lon="3.088583">
        <ele>74</ele>
        <time>2016-04-18T13:06:14Z</time>
      </trkpt>
      <trkpt lat="39.499339" lon="3.088481">
        <ele>73.6</ele>
        <time>2016-04-18T13:06:15Z</time>
      </trkpt>
      <trkpt lat="39.499377" lon="3.08838">
        <ele>73.2</ele>
        <time>2016-04-18T13:06:16Z</time>
      </trkpt>
      <trkpt lat="39.499416" lon="3.088273">
        <ele>72.8</ele>
        <time>2016-04-18T13:06:17Z</time>
      </trkpt>
      <trkpt lat="39.499451" lon="3.088175">
        <ele>72.8</ele>
        <time>2016-04-18T13:06:18Z</time>
      </trkpt>
      <trkpt lat="39.499595" lon="3.087803">
        <ele>72.8</ele>
        <time>2016-04-18T13:06:22Z</time>
      </trkpt>
      <trkpt lat="39.499631" lon="3.08771">
        <ele>72.8</ele>
        <time>2016-04-18T13:06:23Z</time>
      </trkpt>
      <trkpt lat="39.499668" lon="3.087611">
        <ele>72.8</ele>
        <time>2016-04-18T13:06:24Z</time>
      </trkpt>
      <trkpt lat="39.499736" lon="3.087428">
        <ele>72.8</ele>
        <time>2016-04-18T13:06:26Z</time>
      </trkpt>
      <trkpt lat="39.499887" lon="3.087012">
        <ele>72.8</ele>
        <time>2016-04-18T13:06:31Z</time>
      </trkpt>
      <trkpt lat="39.499919" lon="3.086929">
        <ele>73.8</ele>
        <time>2016-04-18T13:06:32Z</time>
      </trkpt>
      <trkpt lat="39.499949" lon="3.086849">
        <ele>74.2</ele>
        <time>2016-04-18T13:06:33Z</time>
      </trkpt>
      <trkpt lat="39.499978" lon="3.086765">
        <ele>74.6</ele>
        <time>2016-04-18T13:06:34Z</time>
      </trkpt>
      <trkpt lat="39.500008" lon="3.086682">
        <ele>75</ele>
        <time>2016-04-18T13:06:35Z</time>
      </trkpt>
      <trkpt lat="39.500069" lon="3.086519">
        <ele>75</ele>
        <time>2016-04-18T13:06:37Z</time>
      </trkpt>
      <trkpt lat="39.500276" lon="3.085952">
        <ele>75</ele>
        <time>2016-04-18T13:06:44Z</time>
      </trkpt>
      <trkpt lat="39.500424" lon="3.085561">
        <ele>75</ele>
        <time>2016-04-18T13:06:49Z</time>
      </trkpt>
      <trkpt lat="39.500519" lon="3.08533">
        <ele>75</ele>
        <time>2016-04-18T13:06:52Z</time>
      </trkpt>
      <trkpt lat="39.500638" lon="3.085095">
        <ele>75</ele>
        <time>2016-04-18T13:06:55Z</time>
      </trkpt>
      <trkpt lat="39.500796" lon="3.084788">
        <ele>75</ele>
        <time>2016-04-18T13:06:59Z</time>
      </trkpt>
      <trkpt lat="39.500871" lon="3.084642">
        <ele>75</ele>
        <time>2016-04-18T13:07:01Z</time>
      </trkpt>
      <trkpt lat="39.501076" lon="3.084255">
        <ele>75</ele>
        <time>2016-04-18T13:07:06Z</time>
      </trkpt>
      <trkpt lat="39.501196" lon="3.084035">
        <ele>75.6</ele>
        <time>2016-04-18T13:07:09Z</time>
      </trkpt>
      <trkpt lat="39.501238" lon="3.083966">
        <ele>76</ele>
        <time>2016-04-18T13:07:10Z</time>
      </trkpt>
      <trkpt lat="39.501284" lon="3.083891">
        <ele>76.4</ele>
        <time>2016-04-18T13:07:11Z</time>
      </trkpt>
      <trkpt lat="39.501327" lon="3.083818">
        <ele>76.8</ele>
        <time>2016-04-18T13:07:12Z</time>
      </trkpt>
      <trkpt lat="39.501366" lon="3.083748">
        <ele>77.2</ele>
        <time>2016-04-18T13:07:13Z</time>
      </trkpt>
      <trkpt lat="39.501481" lon="3.083539">
        <ele>77.6</ele>
        <time>2016-04-18T13:07:16Z</time>
      </trkpt>
      <trkpt lat="39.501521" lon="3.083474">
        <ele>78</ele>
        <time>2016-04-18T13:07:17Z</time>
      </trkpt>
      <trkpt lat="39.501565" lon="3.083407">
        <ele>78.6</ele>
        <time>2016-04-18T13:07:18Z</time>
      </trkpt>
      <trkpt lat="39.501606" lon="3.083344">
        <ele>79</ele>
        <time>2016-04-18T13:07:19Z</time>
      </trkpt>
      <trkpt lat="39.501646" lon="3.083282">
        <ele>79.6</ele>
        <time>2016-04-18T13:07:20Z</time>
      </trkpt>
      <trkpt lat="39.501838" lon="3.082937">
        <ele>80</ele>
        <time>2016-04-18T13:07:25Z</time>
      </trkpt>
      <trkpt lat="39.501878" lon="3.082864">
        <ele>80.4</ele>
        <time>2016-04-18T13:07:26Z</time>
      </trkpt>
      <trkpt lat="39.501916" lon="3.082797">
        <ele>80.8</ele>
        <time>2016-04-18T13:07:27Z</time>
      </trkpt>
      <trkpt lat="39.501953" lon="3.08273">
        <ele>81.2</ele>
        <time>2016-04-18T13:07:28Z</time>
      </trkpt>
      <trkpt lat="39.501991" lon="3.082657">
        <ele>81.6</ele>
        <time>2016-04-18T13:07:29Z</time>
      </trkpt>
      <trkpt lat="39.502142" lon="3.082363">
        <ele>81.6</ele>
        <time>2016-04-18T13:07:33Z</time>
      </trkpt>
      <trkpt lat="39.502417" lon="3.081832">
        <ele>81.6</ele>
        <time>2016-04-18T13:07:40Z</time>
      </trkpt>
      <trkpt lat="39.502666" lon="3.081363">
        <ele>81.6</ele>
        <time>2016-04-18T13:07:46Z</time>
      </trkpt>
      <trkpt lat="39.502973" lon="3.080801">
        <ele>81.6</ele>
        <time>2016-04-18T13:07:53Z</time>
      </trkpt>
      <trkpt lat="39.50329" lon="3.080211">
        <ele>81.6</ele>
        <time>2016-04-18T13:08:00Z</time>
      </trkpt>
      <trkpt lat="39.503442" lon="3.079852">
        <ele>81.6</ele>
        <time>2016-04-18T13:08:04Z</time>
      </trkpt>
      <trkpt lat="39.503467" lon="3.079747">
        <ele>81.6</ele>
        <time>2016-04-18T13:08:05Z</time>
      </trkpt>
      <trkpt lat="39.503496" lon="3.079543">
        <ele>81.6</ele>
        <time>2016-04-18T13:08:07Z</time>
      </trkpt>
      <trkpt lat="39.5035" lon="3.079326">
        <ele>81.6</ele>
        <time>2016-04-18T13:08:09Z</time>
      </trkpt>
      <trkpt lat="39.503438" lon="3.07876">
        <ele>81.6</ele>
        <time>2016-04-18T13:08:14Z</time>
      </trkpt>
      <trkpt lat="39.503392" lon="3.078201">
        <ele>81.6</ele>
        <time>2016-04-18T13:08:19Z</time>
      </trkpt>
      <trkpt lat="39.503398" lon="3.077974">
        <ele>81.6</ele>
        <time>2016-04-18T13:08:21Z</time>
      </trkpt>
      <trkpt lat="39.503434" lon="3.077444">
        <ele>81.6</ele>
        <time>2016-04-18T13:08:26Z</time>
      </trkpt>
      <trkpt lat="39.503452" lon="3.07723">
        <ele>81.6</ele>
        <time>2016-04-18T13:08:28Z</time>
      </trkpt>
      <trkpt lat="39.503472" lon="3.077013">
        <ele>81.6</ele>
        <time>2016-04-18T13:08:30Z</time>
      </trkpt>
      <trkpt lat="39.503516" lon="3.076517">
        <ele>81.6</ele>
        <time>2016-04-18T13:08:35Z</time>
      </trkpt>
      <trkpt lat="39.503503" lon="3.07622">
        <ele>81.6</ele>
        <time>2016-04-18T13:08:38Z</time>
      </trkpt>
      <trkpt lat="39.503489" lon="3.076016">
        <ele>81.6</ele>
        <time>2016-04-18T13:08:40Z</time>
      </trkpt>
      <trkpt lat="39.503464" lon="3.075712">
        <ele>81.6</ele>
        <time>2016-04-18T13:08:43Z</time>
      </trkpt>
      <trkpt lat="39.50342" lon="3.075407">
        <ele>82</ele>
        <time>2016-04-18T13:08:46Z</time>
      </trkpt>
      <trkpt lat="39.503405" lon="3.075307">
        <ele>82.4</ele>
        <time>2016-04-18T13:08:47Z</time>
      </trkpt>
      <trkpt lat="39.503391" lon="3.075207">
        <ele>82.8</ele>
        <time>2016-04-18T13:08:48Z</time>
      </trkpt>
      <trkpt lat="39.50338" lon="3.075106">
        <ele>83.2</ele>
        <time>2016-04-18T13:08:49Z</time>
      </trkpt>
      <trkpt lat="39.503374" lon="3.074997">
        <ele>83.6</ele>
        <time>2016-04-18T13:08:50Z</time>
      </trkpt>
      <trkpt lat="39.503375" lon="3.074894">
        <ele>83.6</ele>
        <time>2016-04-18T13:08:51Z</time>
      </trkpt>
      <trkpt lat="39.503391" lon="3.074686">
        <ele>83.6</ele>
        <time>2016-04-18T13:08:53Z</time>
      </trkpt>
      <trkpt lat="39.503429" lon="3.074273">
        <ele>83.6</ele>
        <time>2016-04-18T13:08:57Z</time>
      </trkpt>
      <trkpt lat="39.503462" lon="3.073962">
        <ele>83.6</ele>
        <time>2016-04-18T13:09:00Z</time>
      </trkpt>
      <trkpt lat="39.503469" lon="3.073852">
        <ele>84</ele>
        <time>2016-04-18T13:09:01Z</time>
      </trkpt>
      <trkpt lat="39.503476" lon="3.073747">
        <ele>84.4</ele>
        <time>2016-04-18T13:09:02Z</time>
      </trkpt>
      <trkpt lat="39.503484" lon="3.073643">
        <ele>85</ele>
        <time>2016-04-18T13:09:03Z</time>
      </trkpt>
      <trkpt lat="39.503492" lon="3.073536">
        <ele>85.4</ele>
        <time>2016-04-18T13:09:04Z</time>
      </trkpt>
      <trkpt lat="39.5035" lon="3.073428">
        <ele>85.8</ele>
        <time>2016-04-18T13:09:05Z</time>
      </trkpt>
      <trkpt lat="39.50352" lon="3.072986">
        <ele>85.8</ele>
        <time>2016-04-18T13:09:09Z</time>
      </trkpt>
      <trkpt lat="39.503527" lon="3.072338">
        <ele>85.8</ele>
        <time>2016-04-18T13:09:15Z</time>
      </trkpt>
      <trkpt lat="39.503528" lon="3.072226">
        <ele>85.8</ele>
        <time>2016-04-18T13:09:16Z</time>
      </trkpt>
      <trkpt lat="39.503557" lon="3.071589">
        <ele>85.8</ele>
        <time>2016-04-18T13:09:22Z</time>
      </trkpt>
      <trkpt lat="39.503611" lon="3.070848">
        <ele>85.8</ele>
        <time>2016-04-18T13:09:29Z</time>
      </trkpt>
      <trkpt lat="39.503626" lon="3.070637">
        <ele>85.8</ele>
        <time>2016-04-18T13:09:31Z</time>
      </trkpt>
      <trkpt lat="39.503644" lon="3.070527">
        <ele>85.8</ele>
        <time>2016-04-18T13:09:32Z</time>
      </trkpt>
      <trkpt lat="39.503732" lon="3.070224">
        <ele>85.8</ele>
        <time>2016-04-18T13:09:35Z</time>
      </trkpt>
      <trkpt lat="39.503988" lon="3.069643">
        <ele>85.8</ele>
        <time>2016-04-18T13:09:41Z</time>
      </trkpt>
      <trkpt lat="39.504304" lon="3.069119">
        <ele>85.8</ele>
        <time>2016-04-18T13:09:47Z</time>
      </trkpt>
      <trkpt lat="39.50446" lon="3.068854">
        <ele>85.8</ele>
        <time>2016-04-18T13:09:50Z</time>
      </trkpt>
      <trkpt lat="39.504813" lon="3.068249">
        <ele>85.8</ele>
        <time>2016-04-18T13:09:57Z</time>
      </trkpt>
      <trkpt lat="39.504862" lon="3.068165">
        <ele>85.8</ele>
        <time>2016-04-18T13:09:58Z</time>
      </trkpt>
      <trkpt lat="39.505209" lon="3.067567">
        <ele>85.8</ele>
        <time>2016-04-18T13:10:05Z</time>
      </trkpt>
      <trkpt lat="39.505257" lon="3.067481">
        <ele>85.8</ele>
        <time>2016-04-18T13:10:06Z</time>
      </trkpt>
      <trkpt lat="39.505554" lon="3.066972">
        <ele>85.8</ele>
        <time>2016-04-18T13:10:12Z</time>
      </trkpt>
      <trkpt lat="39.505599" lon="3.066885">
        <ele>85.8</ele>
        <time>2016-04-18T13:10:13Z</time>
      </trkpt>
      <trkpt lat="39.505636" lon="3.066792">
        <ele>85.8</ele>
        <time>2016-04-18T13:10:14Z</time>
      </trkpt>
      <trkpt lat="39.505663" lon="3.066591">
        <ele>85.8</ele>
        <time>2016-04-18T13:10:16Z</time>
      </trkpt>
      <trkpt lat="39.505677" lon="3.06595">
        <ele>86.2</ele>
        <time>2016-04-18T13:10:22Z</time>
      </trkpt>
      <trkpt lat="39.50567" lon="3.065847">
        <ele>86.6</ele>
        <time>2016-04-18T13:10:23Z</time>
      </trkpt>
      <trkpt lat="39.505654" lon="3.065744">
        <ele>87</ele>
        <time>2016-04-18T13:10:24Z</time>
      </trkpt>
      <trkpt lat="39.505634" lon="3.065639">
        <ele>87.4</ele>
        <time>2016-04-18T13:10:25Z</time>
      </trkpt>
      <trkpt lat="39.50561" lon="3.065531">
        <ele>87.8</ele>
        <time>2016-04-18T13:10:26Z</time>
      </trkpt>
      <trkpt lat="39.505539" lon="3.065115">
        <ele>87.8</ele>
        <time>2016-04-18T13:10:30Z</time>
      </trkpt>
      <trkpt lat="39.505536" lon="3.0649">
        <ele>87.8</ele>
        <time>2016-04-18T13:10:32Z</time>
      </trkpt>
      <trkpt lat="39.505566" lon="3.064134">
        <ele>87.8</ele>
        <time>2016-04-18T13:10:39Z</time>
      </trkpt>
      <trkpt lat="39.505573" lon="3.064024">
        <ele>87.8</ele>
        <time>2016-04-18T13:10:40Z</time>
      </trkpt>
      <trkpt lat="39.505631" lon="3.063444">
        <ele>87.8</ele>
        <time>2016-04-18T13:10:45Z</time>
      </trkpt>
      <trkpt lat="39.505658" lon="3.0632">
        <ele>87.4</ele>
        <time>2016-04-18T13:10:47Z</time>
      </trkpt>
      <trkpt lat="39.50567" lon="3.063078">
        <ele>87</ele>
        <time>2016-04-18T13:10:48Z</time>
      </trkpt>
      <trkpt lat="39.50568" lon="3.06295">
        <ele>86.6</ele>
        <time>2016-04-18T13:10:49Z</time>
      </trkpt>
      <trkpt lat="39.50569" lon="3.062829">
        <ele>86</ele>
        <time>2016-04-18T13:10:50Z</time>
      </trkpt>
      <trkpt lat="39.5057" lon="3.062708">
        <ele>85.6</ele>
        <time>2016-04-18T13:10:51Z</time>
      </trkpt>
      <trkpt lat="39.505753" lon="3.061963">
        <ele>85.6</ele>
        <time>2016-04-18T13:10:57Z</time>
      </trkpt>
      <trkpt lat="39.505788" lon="3.061212">
        <ele>85.6</ele>
        <time>2016-04-18T13:11:03Z</time>
      </trkpt>
      <trkpt lat="39.505787" lon="3.060718">
        <ele>85.6</ele>
        <time>2016-04-18T13:11:07Z</time>
      </trkpt>
      <trkpt lat="39.505766" lon="3.059986">
        <ele>85.6</ele>
        <time>2016-04-18T13:11:13Z</time>
      </trkpt>
      <trkpt lat="39.505754" lon="3.059512">
        <ele>85.6</ele>
        <time>2016-04-18T13:11:17Z</time>
      </trkpt>
      <trkpt lat="39.505736" lon="3.058937">
        <ele>85.6</ele>
        <time>2016-04-18T13:11:22Z</time>
      </trkpt>
      <trkpt lat="39.505732" lon="3.05883">
        <ele>85.6</ele>
        <time>2016-04-18T13:11:23Z</time>
      </trkpt>
      <trkpt lat="39.505728" lon="3.058725">
        <ele>86</ele>
        <time>2016-04-18T13:11:24Z</time>
      </trkpt>
      <trkpt lat="39.505725" lon="3.058618">
        <ele>86.6</ele>
        <time>2016-04-18T13:11:25Z</time>
      </trkpt>
      <trkpt lat="39.505724" lon="3.058512">
        <ele>87</ele>
        <time>2016-04-18T13:11:26Z</time>
      </trkpt>
      <trkpt lat="39.505728" lon="3.058408">
        <ele>87.4</ele>
        <time>2016-04-18T13:11:27Z</time>
      </trkpt>
      <trkpt lat="39.505736" lon="3.0583">
        <ele>87.8</ele>
        <time>2016-04-18T13:11:28Z</time>
      </trkpt>
      <trkpt lat="39.505744" lon="3.058197">
        <ele>87.8</ele>
        <time>2016-04-18T13:11:29Z</time>
      </trkpt>
      <trkpt lat="39.505828" lon="3.057528">
        <ele>88.4</ele>
        <time>2016-04-18T13:11:36Z</time>
      </trkpt>
      <trkpt lat="39.505842" lon="3.057436">
        <ele>88.8</ele>
        <time>2016-04-18T13:11:37Z</time>
      </trkpt>
      <trkpt lat="39.505856" lon="3.057342">
        <ele>89.2</ele>
        <time>2016-04-18T13:11:38Z</time>
      </trkpt>
      <trkpt lat="39.505871" lon="3.057246">
        <ele>89.6</ele>
        <time>2016-04-18T13:11:39Z</time>
      </trkpt>
      <trkpt lat="39.505884" lon="3.057151">
        <ele>90.2</ele>
        <time>2016-04-18T13:11:40Z</time>
      </trkpt>
      <trkpt lat="39.505948" lon="3.056675">
        <ele>90.2</ele>
        <time>2016-04-18T13:11:45Z</time>
      </trkpt>
      <trkpt lat="39.505998" lon="3.056092">
        <ele>90.2</ele>
        <time>2016-04-18T13:11:51Z</time>
      </trkpt>
      <trkpt lat="39.506014" lon="3.055377">
        <ele>90.2</ele>
        <time>2016-04-18T13:11:58Z</time>
      </trkpt>
      <trkpt lat="39.506015" lon="3.055266">
        <ele>90.2</ele>
        <time>2016-04-18T13:11:59Z</time>
      </trkpt>
      <trkpt lat="39.506035" lon="3.054526">
        <ele>90.2</ele>
        <time>2016-04-18T13:12:06Z</time>
      </trkpt>
      <trkpt lat="39.506038" lon="3.054418">
        <ele>90.2</ele>
        <time>2016-04-18T13:12:07Z</time>
      </trkpt>
      <trkpt lat="39.506002" lon="3.053694">
        <ele>90.2</ele>
        <time>2016-04-18T13:12:14Z</time>
      </trkpt>
      <trkpt lat="39.505987" lon="3.053592">
        <ele>90.6</ele>
        <time>2016-04-18T13:12:15Z</time>
      </trkpt>
      <trkpt lat="39.505972" lon="3.05349">
        <ele>91</ele>
        <time>2016-04-18T13:12:16Z</time>
      </trkpt>
      <trkpt lat="39.505956" lon="3.053389">
        <ele>91.4</ele>
        <time>2016-04-18T13:12:17Z</time>
      </trkpt>
      <trkpt lat="39.505938" lon="3.053292">
        <ele>92.2</ele>
        <time>2016-04-18T13:12:18Z</time>
      </trkpt>
      <trkpt lat="39.505901" lon="3.052999">
        <ele>92.2</ele>
        <time>2016-04-18T13:12:21Z</time>
      </trkpt>
      <trkpt lat="39.505897" lon="3.052791">
        <ele>92.2</ele>
        <time>2016-04-18T13:12:23Z</time>
      </trkpt>
      <trkpt lat="39.505937" lon="3.052587">
        <ele>92.2</ele>
        <time>2016-04-18T13:12:25Z</time>
      </trkpt>
      <trkpt lat="39.506013" lon="3.052389">
        <ele>92.2</ele>
        <time>2016-04-18T13:12:27Z</time>
      </trkpt>
      <trkpt lat="39.506132" lon="3.052088">
        <ele>92.2</ele>
        <time>2016-04-18T13:12:30Z</time>
      </trkpt>
      <trkpt lat="39.506173" lon="3.051991">
        <ele>91.6</ele>
        <time>2016-04-18T13:12:31Z</time>
      </trkpt>
      <trkpt lat="39.506214" lon="3.051894">
        <ele>91.2</ele>
        <time>2016-04-18T13:12:32Z</time>
      </trkpt>
      <trkpt lat="39.506253" lon="3.051797">
        <ele>90.8</ele>
        <time>2016-04-18T13:12:33Z</time>
      </trkpt>
      <trkpt lat="39.506293" lon="3.051698">
        <ele>90.4</ele>
        <time>2016-04-18T13:12:34Z</time>
      </trkpt>
      <trkpt lat="39.506331" lon="3.0516">
        <ele>89.8</ele>
        <time>2016-04-18T13:12:35Z</time>
      </trkpt>
      <trkpt lat="39.506448" lon="3.051308">
        <ele>89.8</ele>
        <time>2016-04-18T13:12:38Z</time>
      </trkpt>
      <trkpt lat="39.506725" lon="3.050652">
        <ele>89.8</ele>
        <time>2016-04-18T13:12:45Z</time>
      </trkpt>
      <trkpt lat="39.506764" lon="3.050554">
        <ele>89.8</ele>
        <time>2016-04-18T13:12:46Z</time>
      </trkpt>
      <trkpt lat="39.506944" lon="3.050138">
        <ele>90.4</ele>
        <time>2016-04-18T13:12:51Z</time>
      </trkpt>
      <trkpt lat="39.506978" lon="3.050056">
        <ele>90.8</ele>
        <time>2016-04-18T13:12:52Z</time>
      </trkpt>
      <trkpt lat="39.507014" lon="3.049972">
        <ele>91.2</ele>
        <time>2016-04-18T13:12:53Z</time>
      </trkpt>
      <trkpt lat="39.507048" lon="3.049889">
        <ele>91.8</ele>
        <time>2016-04-18T13:12:54Z</time>
      </trkpt>
      <trkpt lat="39.507082" lon="3.049804">
        <ele>92.2</ele>
        <time>2016-04-18T13:12:55Z</time>
      </trkpt>
      <trkpt lat="39.507206" lon="3.049472">
        <ele>92.2</ele>
        <time>2016-04-18T13:12:59Z</time>
      </trkpt>
      <trkpt lat="39.507227" lon="3.049378">
        <ele>92.2</ele>
        <time>2016-04-18T13:13:00Z</time>
      </trkpt>
      <trkpt lat="39.507286" lon="3.049006">
        <ele>92.2</ele>
        <time>2016-04-18T13:13:04Z</time>
      </trkpt>
      <trkpt lat="39.50733" lon="3.04871">
        <ele>93</ele>
        <time>2016-04-18T13:13:07Z</time>
      </trkpt>
      <trkpt lat="39.507342" lon="3.048616">
        <ele>93.4</ele>
        <time>2016-04-18T13:13:08Z</time>
      </trkpt>
      <trkpt lat="39.507356" lon="3.048518">
        <ele>93.8</ele>
        <time>2016-04-18T13:13:09Z</time>
      </trkpt>
      <trkpt lat="39.507374" lon="3.048419">
        <ele>94.2</ele>
        <time>2016-04-18T13:13:10Z</time>
      </trkpt>
      <trkpt lat="39.507417" lon="3.048218">
        <ele>94.2</ele>
        <time>2016-04-18T13:13:12Z</time>
      </trkpt>
      <trkpt lat="39.507618" lon="3.04762">
        <ele>94.2</ele>
        <time>2016-04-18T13:13:18Z</time>
      </trkpt>
      <trkpt lat="39.507848" lon="3.046903">
        <ele>94.2</ele>
        <time>2016-04-18T13:13:25Z</time>
      </trkpt>
      <trkpt lat="39.508021" lon="3.046128">
        <ele>94.2</ele>
        <time>2016-04-18T13:13:32Z</time>
      </trkpt>
      <trkpt lat="39.508189" lon="3.045463">
        <ele>94.2</ele>
        <time>2016-04-18T13:13:38Z</time>
      </trkpt>
      <trkpt lat="39.508246" lon="3.045233">
        <ele>94.2</ele>
        <time>2016-04-18T13:13:40Z</time>
      </trkpt>
      <trkpt lat="39.508419" lon="3.044449">
        <ele>94.2</ele>
        <time>2016-04-18T13:13:47Z</time>
      </trkpt>
      <trkpt lat="39.508469" lon="3.044223">
        <ele>94.2</ele>
        <time>2016-04-18T13:13:49Z</time>
      </trkpt>
      <trkpt lat="39.508617" lon="3.043537">
        <ele>94.2</ele>
        <time>2016-04-18T13:13:55Z</time>
      </trkpt>
      <trkpt lat="39.508713" lon="3.043205">
        <ele>94.2</ele>
        <time>2016-04-18T13:13:58Z</time>
      </trkpt>
      <trkpt lat="39.508914" lon="3.042531">
        <ele>94.2</ele>
        <time>2016-04-18T13:14:04Z</time>
      </trkpt>
      <trkpt lat="39.50901" lon="3.042193">
        <ele>94.2</ele>
        <time>2016-04-18T13:14:07Z</time>
      </trkpt>
      <trkpt lat="39.50911" lon="3.041839">
        <ele>94.6</ele>
        <time>2016-04-18T13:14:10Z</time>
      </trkpt>
      <trkpt lat="39.509142" lon="3.041719">
        <ele>95</ele>
        <time>2016-04-18T13:14:11Z</time>
      </trkpt>
      <trkpt lat="39.509174" lon="3.041599">
        <ele>95.4</ele>
        <time>2016-04-18T13:14:12Z</time>
      </trkpt>
      <trkpt lat="39.509205" lon="3.04148">
        <ele>95.8</ele>
        <time>2016-04-18T13:14:13Z</time>
      </trkpt>
      <trkpt lat="39.509237" lon="3.041361">
        <ele>96.2</ele>
        <time>2016-04-18T13:14:14Z</time>
      </trkpt>
      <trkpt lat="39.509268" lon="3.041242">
        <ele>96.2</ele>
        <time>2016-04-18T13:14:15Z</time>
      </trkpt>
      <trkpt lat="39.509437" lon="3.04054">
        <ele>96.2</ele>
        <time>2016-04-18T13:14:21Z</time>
      </trkpt>
      <trkpt lat="39.509464" lon="3.040431">
        <ele>96.2</ele>
        <time>2016-04-18T13:14:22Z</time>
      </trkpt>
      <trkpt lat="39.509658" lon="3.039658">
        <ele>96.2</ele>
        <time>2016-04-18T13:14:29Z</time>
      </trkpt>
      <trkpt lat="39.509714" lon="3.039443">
        <ele>96.2</ele>
        <time>2016-04-18T13:14:31Z</time>
      </trkpt>
      <trkpt lat="39.509909" lon="3.038677">
        <ele>96.2</ele>
        <time>2016-04-18T13:14:38Z</time>
      </trkpt>
      <trkpt lat="39.509935" lon="3.038571">
        <ele>96.2</ele>
        <time>2016-04-18T13:14:39Z</time>
      </trkpt>
      <trkpt lat="39.510128" lon="3.03793">
        <ele>96.2</ele>
        <time>2016-04-18T13:14:45Z</time>
      </trkpt>
      <trkpt lat="39.510179" lon="3.037835">
        <ele>96.2</ele>
        <time>2016-04-18T13:14:46Z</time>
      </trkpt>
      <trkpt lat="39.510457" lon="3.037383">
        <ele>96.8</ele>
        <time>2016-04-18T13:14:51Z</time>
      </trkpt>
      <trkpt lat="39.510512" lon="3.037295">
        <ele>97.2</ele>
        <time>2016-04-18T13:14:52Z</time>
      </trkpt>
      <trkpt lat="39.510567" lon="3.037207">
        <ele>97.6</ele>
        <time>2016-04-18T13:14:53Z</time>
      </trkpt>
      <trkpt lat="39.510619" lon="3.03712">
        <ele>98</ele>
        <time>2016-04-18T13:14:54Z</time>
      </trkpt>
      <trkpt lat="39.510674" lon="3.037031">
        <ele>98.4</ele>
        <time>2016-04-18T13:14:55Z</time>
      </trkpt>
      <trkpt lat="39.510946" lon="3.036583">
        <ele>98.4</ele>
        <time>2016-04-18T13:15:00Z</time>
      </trkpt>
      <trkpt lat="39.511308" lon="3.035953">
        <ele>98.4</ele>
        <time>2016-04-18T13:15:07Z</time>
      </trkpt>
      <trkpt lat="39.511513" lon="3.035601">
        <ele>98.4</ele>
        <time>2016-04-18T13:15:11Z</time>
      </trkpt>
      <trkpt lat="39.51187" lon="3.034997">
        <ele>98.4</ele>
        <time>2016-04-18T13:15:18Z</time>
      </trkpt>
      <trkpt lat="39.51192" lon="3.034913">
        <ele>98.4</ele>
        <time>2016-04-18T13:15:19Z</time>
      </trkpt>
      <trkpt lat="39.512263" lon="3.034338">
        <ele>98.4</ele>
        <time>2016-04-18T13:15:26Z</time>
      </trkpt>
      <trkpt lat="39.512312" lon="3.034255">
        <ele>98.4</ele>
        <time>2016-04-18T13:15:27Z</time>
      </trkpt>
      <trkpt lat="39.512589" lon="3.033772">
        <ele>98.8</ele>
        <time>2016-04-18T13:15:33Z</time>
      </trkpt>
      <trkpt lat="39.512637" lon="3.033696">
        <ele>99.2</ele>
        <time>2016-04-18T13:15:34Z</time>
      </trkpt>
      <trkpt lat="39.512683" lon="3.033618">
        <ele>100.2</ele>
        <time>2016-04-18T13:15:35Z</time>
      </trkpt>
      <trkpt lat="39.512731" lon="3.033541">
        <ele>100.6</ele>
        <time>2016-04-18T13:15:36Z</time>
      </trkpt>
      <trkpt lat="39.512951" lon="3.033173">
        <ele>100.6</ele>
        <time>2016-04-18T13:15:41Z</time>
      </trkpt>
      <trkpt lat="39.51323" lon="3.032705">
        <ele>100.6</ele>
        <time>2016-04-18T13:15:47Z</time>
      </trkpt>
      <trkpt lat="39.51357" lon="3.032125">
        <ele>100.6</ele>
        <time>2016-04-18T13:15:54Z</time>
      </trkpt>
      <trkpt lat="39.5139" lon="3.03157">
        <ele>100.6</ele>
        <time>2016-04-18T13:16:00Z</time>
      </trkpt>
      <trkpt lat="39.513951" lon="3.031486">
        <ele>101.2</ele>
        <time>2016-04-18T13:16:01Z</time>
      </trkpt>
      <trkpt lat="39.513999" lon="3.031402">
        <ele>101.6</ele>
        <time>2016-04-18T13:16:02Z</time>
      </trkpt>
      <trkpt lat="39.514046" lon="3.031322">
        <ele>102</ele>
        <time>2016-04-18T13:16:03Z</time>
      </trkpt>
      <trkpt lat="39.514091" lon="3.031242">
        <ele>102.6</ele>
        <time>2016-04-18T13:16:04Z</time>
      </trkpt>
      <trkpt lat="39.514138" lon="3.031161">
        <ele>103</ele>
        <time>2016-04-18T13:16:05Z</time>
      </trkpt>
      <trkpt lat="39.514186" lon="3.031079">
        <ele>103</ele>
        <time>2016-04-18T13:16:06Z</time>
      </trkpt>
      <trkpt lat="39.514439" lon="3.030629">
        <ele>103</ele>
        <time>2016-04-18T13:16:12Z</time>
      </trkpt>
      <trkpt lat="39.514618" lon="3.030247">
        <ele>103</ele>
        <time>2016-04-18T13:16:18Z</time>
      </trkpt>
      <trkpt lat="39.514553" lon="3.030129">
        <ele>103</ele>
        <time>2016-04-18T13:16:20Z</time>
      </trkpt>
      <trkpt lat="39.514342" lon="3.029973">
        <ele>103</ele>
        <time>2016-04-18T13:16:24Z</time>
      </trkpt>
      <trkpt lat="39.514228" lon="3.029895">
        <ele>103</ele>
        <time>2016-04-18T13:16:26Z</time>
      </trkpt>
      <trkpt lat="39.514118" lon="3.029814">
        <ele>103</ele>
        <time>2016-04-18T13:16:28Z</time>
      </trkpt>
      <trkpt lat="39.514002" lon="3.029722">
        <ele>103</ele>
        <time>2016-04-18T13:16:30Z</time>
      </trkpt>
      <trkpt lat="39.513886" lon="3.029635">
        <ele>103</ele>
        <time>2016-04-18T13:16:32Z</time>
      </trkpt>
      <trkpt lat="39.513765" lon="3.029549">
        <ele>103</ele>
        <time>2016-04-18T13:16:34Z</time>
      </trkpt>
      <trkpt lat="39.513515" lon="3.029359">
        <ele>103</ele>
        <time>2016-04-18T13:16:38Z</time>
      </trkpt>
      <trkpt lat="39.513333" lon="3.029211">
        <ele>103</ele>
        <time>2016-04-18T13:16:41Z</time>
      </trkpt>
      <trkpt lat="39.512835" lon="3.02883">
        <ele>103</ele>
        <time>2016-04-18T13:16:49Z</time>
      </trkpt>
      <trkpt lat="39.512767" lon="3.02878">
        <ele>103.4</ele>
        <time>2016-04-18T13:16:50Z</time>
      </trkpt>
      <trkpt lat="39.512706" lon="3.028728">
        <ele>103.8</ele>
        <time>2016-04-18T13:16:51Z</time>
      </trkpt>
      <trkpt lat="39.512647" lon="3.028672">
        <ele>104.2</ele>
        <time>2016-04-18T13:16:52Z</time>
      </trkpt>
      <trkpt lat="39.512587" lon="3.028615">
        <ele>104.6</ele>
        <time>2016-04-18T13:16:53Z</time>
      </trkpt>
      <trkpt lat="39.512531" lon="3.028557">
        <ele>105</ele>
        <time>2016-04-18T13:16:54Z</time>
      </trkpt>
      <trkpt lat="39.512475" lon="3.028496">
        <ele>105</ele>
        <time>2016-04-18T13:16:55Z</time>
      </trkpt>
      <trkpt lat="39.512074" lon="3.028072">
        <ele>105</ele>
        <time>2016-04-18T13:17:02Z</time>
      </trkpt>
      <trkpt lat="39.511634" lon="3.027572">
        <ele>105</ele>
        <time>2016-04-18T13:17:10Z</time>
      </trkpt>
      <trkpt lat="39.511273" lon="3.027086">
        <ele>105</ele>
        <time>2016-04-18T13:17:17Z</time>
      </trkpt>
      <trkpt lat="39.51104" lon="3.026734">
        <ele>105.6</ele>
        <time>2016-04-18T13:17:22Z</time>
      </trkpt>
      <trkpt lat="39.510995" lon="3.026662">
        <ele>106</ele>
        <time>2016-04-18T13:17:23Z</time>
      </trkpt>
      <trkpt lat="39.510947" lon="3.026586">
        <ele>106.4</ele>
        <time>2016-04-18T13:17:24Z</time>
      </trkpt>
      <trkpt lat="39.510898" lon="3.026513">
        <ele>106.8</ele>
        <time>2016-04-18T13:17:25Z</time>
      </trkpt>
      <trkpt lat="39.51085" lon="3.026441">
        <ele>107.2</ele>
        <time>2016-04-18T13:17:26Z</time>
      </trkpt>
      <trkpt lat="39.510584" lon="3.026003">
        <ele>107.2</ele>
        <time>2016-04-18T13:17:32Z</time>
      </trkpt>
      <trkpt lat="39.510582" lon="3.0258">
        <ele>107.2</ele>
        <time>2016-04-18T13:17:34Z</time>
      </trkpt>
      <trkpt lat="39.510472" lon="3.025569">
        <ele>107.2</ele>
        <time>2016-04-18T13:17:37Z</time>
      </trkpt>
      <trkpt lat="39.510249" lon="3.025509">
        <ele>107.2</ele>
        <time>2016-04-18T13:17:40Z</time>
      </trkpt>
      <trkpt lat="39.510169" lon="3.025487">
        <ele>107.2</ele>
        <time>2016-04-18T13:17:41Z</time>
      </trkpt>
      <trkpt lat="39.510026" lon="3.025431">
        <ele>107.2</ele>
        <time>2016-04-18T13:17:43Z</time>
      </trkpt>
      <trkpt lat="39.509907" lon="3.025314">
        <ele>107.2</ele>
        <time>2016-04-18T13:17:45Z</time>
      </trkpt>
      <trkpt lat="39.509796" lon="3.025079">
        <ele>107.2</ele>
        <time>2016-04-18T13:17:48Z</time>
      </trkpt>
      <trkpt lat="39.509793" lon="3.024998">
        <ele>107.6</ele>
        <time>2016-04-18T13:17:49Z</time>
      </trkpt>
      <trkpt lat="39.509796" lon="3.024922">
        <ele>108</ele>
        <time>2016-04-18T13:17:50Z</time>
      </trkpt>
      <trkpt lat="39.509806" lon="3.024854">
        <ele>108.6</ele>
        <time>2016-04-18T13:17:51Z</time>
      </trkpt>
      <trkpt lat="39.509819" lon="3.02479">
        <ele>109</ele>
        <time>2016-04-18T13:17:52Z</time>
      </trkpt>
      <trkpt lat="39.509835" lon="3.024728">
        <ele>109.6</ele>
        <time>2016-04-18T13:17:53Z</time>
      </trkpt>
      <trkpt lat="39.509855" lon="3.024665">
        <ele>110.2</ele>
        <time>2016-04-18T13:17:54Z</time>
      </trkpt>
      <trkpt lat="39.509878" lon="3.024605">
        <ele>110.8</ele>
        <time>2016-04-18T13:17:55Z</time>
      </trkpt>
      <trkpt lat="39.5099" lon="3.02454">
        <ele>111.4</ele>
        <time>2016-04-18T13:17:56Z</time>
      </trkpt>
      <trkpt lat="39.510049" lon="3.024123">
        <ele>111.4</ele>
        <time>2016-04-18T13:18:02Z</time>
      </trkpt>
      <trkpt lat="39.510196" lon="3.023668">
        <ele>111.4</ele>
        <time>2016-04-18T13:18:08Z</time>
      </trkpt>
      <trkpt lat="39.510224" lon="3.023594">
        <ele>111.4</ele>
        <time>2016-04-18T13:18:09Z</time>
      </trkpt>
      <trkpt lat="39.510403" lon="3.023126">
        <ele>111.8</ele>
        <time>2016-04-18T13:18:15Z</time>
      </trkpt>
      <trkpt lat="39.510435" lon="3.023048">
        <ele>112.2</ele>
        <time>2016-04-18T13:18:16Z</time>
      </trkpt>
      <trkpt lat="39.510465" lon="3.02297">
        <ele>112.6</ele>
        <time>2016-04-18T13:18:17Z</time>
      </trkpt>
      <trkpt lat="39.510492" lon="3.022892">
        <ele>113</ele>
        <time>2016-04-18T13:18:18Z</time>
      </trkpt>
      <trkpt lat="39.510524" lon="3.022814">
        <ele>113.4</ele>
        <time>2016-04-18T13:18:19Z</time>
      </trkpt>
      <trkpt lat="39.510657" lon="3.022496">
        <ele>113.4</ele>
        <time>2016-04-18T13:18:23Z</time>
      </trkpt>
      <trkpt lat="39.510852" lon="3.022004">
        <ele>113.4</ele>
        <time>2016-04-18T13:18:29Z</time>
      </trkpt>
      <trkpt lat="39.510911" lon="3.021847">
        <ele>113.4</ele>
        <time>2016-04-18T13:18:31Z</time>
      </trkpt>
      <trkpt lat="39.511127" lon="3.021281">
        <ele>113.4</ele>
        <time>2016-04-18T13:18:38Z</time>
      </trkpt>
      <trkpt lat="39.51116" lon="3.021202">
        <ele>113.4</ele>
        <time>2016-04-18T13:18:39Z</time>
      </trkpt>
      <trkpt lat="39.51136" lon="3.020663">
        <ele>113.4</ele>
        <time>2016-04-18T13:18:46Z</time>
      </trkpt>
      <trkpt lat="39.511542" lon="3.020197">
        <ele>113.4</ele>
        <time>2016-04-18T13:18:53Z</time>
      </trkpt>
      <trkpt lat="39.511694" lon="3.019815">
        <ele>113.8</ele>
        <time>2016-04-18T13:18:58Z</time>
      </trkpt>
      <trkpt lat="39.511726" lon="3.019737">
        <ele>114.2</ele>
        <time>2016-04-18T13:18:59Z</time>
      </trkpt>
      <trkpt lat="39.511756" lon="3.01966">
        <ele>114.8</ele>
        <time>2016-04-18T13:19:00Z</time>
      </trkpt>
      <trkpt lat="39.511785" lon="3.019586">
        <ele>115.2</ele>
        <time>2016-04-18T13:19:01Z</time>
      </trkpt>
      <trkpt lat="39.511817" lon="3.019512">
        <ele>115.6</ele>
        <time>2016-04-18T13:19:02Z</time>
      </trkpt>
      <trkpt lat="39.511953" lon="3.019219">
        <ele>115.6</ele>
        <time>2016-04-18T13:19:06Z</time>
      </trkpt>
      <trkpt lat="39.512254" lon="3.018554">
        <ele>115.6</ele>
        <time>2016-04-18T13:19:15Z</time>
      </trkpt>
      <trkpt lat="39.512293" lon="3.018487">
        <ele>115.6</ele>
        <time>2016-04-18T13:19:16Z</time>
      </trkpt>
      <trkpt lat="39.512553" lon="3.018093">
        <ele>115.6</ele>
        <time>2016-04-18T13:19:22Z</time>
      </trkpt>
      <trkpt lat="39.512676" lon="3.017895">
        <ele>116</ele>
        <time>2016-04-18T13:19:25Z</time>
      </trkpt>
      <trkpt lat="39.51272" lon="3.017833">
        <ele>116.4</ele>
        <time>2016-04-18T13:19:26Z</time>
      </trkpt>
      <trkpt lat="39.512762" lon="3.017774">
        <ele>116.8</ele>
        <time>2016-04-18T13:19:27Z</time>
      </trkpt>
      <trkpt lat="39.512803" lon="3.017722">
        <ele>117.2</ele>
        <time>2016-04-18T13:19:28Z</time>
      </trkpt>
      <trkpt lat="39.512839" lon="3.017663">
        <ele>117.6</ele>
        <time>2016-04-18T13:19:29Z</time>
      </trkpt>
      <trkpt lat="39.512875" lon="3.017615">
        <ele>117.6</ele>
        <time>2016-04-18T13:19:30Z</time>
      </trkpt>
      <trkpt lat="39.512986" lon="3.017466">
        <ele>117.6</ele>
        <time>2016-04-18T13:19:33Z</time>
      </trkpt>
      <trkpt lat="39.513048" lon="3.01735">
        <ele>117.6</ele>
        <time>2016-04-18T13:19:35Z</time>
      </trkpt>
      <trkpt lat="39.513023" lon="3.017208">
        <ele>117.6</ele>
        <time>2016-04-18T13:19:37Z</time>
      </trkpt>
      <trkpt lat="39.512937" lon="3.017086">
        <ele>117.6</ele>
        <time>2016-04-18T13:19:39Z</time>
      </trkpt>
      <trkpt lat="39.512856" lon="3.016968">
        <ele>117.6</ele>
        <time>2016-04-18T13:19:41Z</time>
      </trkpt>
      <trkpt lat="39.51267" lon="3.016689">
        <ele>117.6</ele>
        <time>2016-04-18T13:19:46Z</time>
      </trkpt>
      <trkpt lat="39.512386" lon="3.016265">
        <ele>117.6</ele>
        <time>2016-04-18T13:19:53Z</time>
      </trkpt>
      <trkpt lat="39.512271" lon="3.016074">
        <ele>117.6</ele>
        <time>2016-04-18T13:19:56Z</time>
      </trkpt>
      <trkpt lat="39.51225" lon="3.015914">
        <ele>117.6</ele>
        <time>2016-04-18T13:19:58Z</time>
      </trkpt>
      <trkpt lat="39.512216" lon="3.015762">
        <ele>117.6</ele>
        <time>2016-04-18T13:20:00Z</time>
      </trkpt>
      <trkpt lat="39.51211" lon="3.015681">
        <ele>117.6</ele>
        <time>2016-04-18T13:20:02Z</time>
      </trkpt>
      <trkpt lat="39.511989" lon="3.015725">
        <ele>117.6</ele>
        <time>2016-04-18T13:20:04Z</time>
      </trkpt>
      <trkpt lat="39.511933" lon="3.01576">
        <ele>117.6</ele>
        <time>2016-04-18T13:20:05Z</time>
      </trkpt>
      <trkpt lat="39.511878" lon="3.015789">
        <ele>118</ele>
        <time>2016-04-18T13:20:06Z</time>
      </trkpt>
      <trkpt lat="39.511824" lon="3.015805">
        <ele>118.8</ele>
        <time>2016-04-18T13:20:07Z</time>
      </trkpt>
      <trkpt lat="39.511772" lon="3.015811">
        <ele>119.2</ele>
        <time>2016-04-18T13:20:08Z</time>
      </trkpt>
      <trkpt lat="39.511719" lon="3.015815">
        <ele>119.6</ele>
        <time>2016-04-18T13:20:09Z</time>
      </trkpt>
      <trkpt lat="39.511425" lon="3.015822">
        <ele>119.6</ele>
        <time>2016-04-18T13:20:14Z</time>
      </trkpt>
      <trkpt lat="39.511364" lon="3.015827">
        <ele>119.6</ele>
        <time>2016-04-18T13:20:15Z</time>
      </trkpt>
      <trkpt lat="39.511025" lon="3.015856">
        <ele>119.6</ele>
        <time>2016-04-18T13:20:21Z</time>
      </trkpt>
      <trkpt lat="39.510593" lon="3.015893">
        <ele>119.6</ele>
        <time>2016-04-18T13:20:28Z</time>
      </trkpt>
      <trkpt lat="39.510134" lon="3.015931">
        <ele>119.6</ele>
        <time>2016-04-18T13:20:35Z</time>
      </trkpt>
      <trkpt lat="39.509582" lon="3.015987">
        <ele>119.6</ele>
        <time>2016-04-18T13:20:43Z</time>
      </trkpt>
      <trkpt lat="39.50945" lon="3.016002">
        <ele>119.6</ele>
        <time>2016-04-18T13:20:45Z</time>
      </trkpt>
      <trkpt lat="39.509056" lon="3.016059">
        <ele>119.6</ele>
        <time>2016-04-18T13:20:51Z</time>
      </trkpt>
      <trkpt lat="39.508502" lon="3.016165">
        <ele>119.6</ele>
        <time>2016-04-18T13:20:59Z</time>
      </trkpt>
      <trkpt lat="39.507948" lon="3.016285">
        <ele>119.6</ele>
        <time>2016-04-18T13:21:07Z</time>
      </trkpt>
      <trkpt lat="39.507879" lon="3.016297">
        <ele>119.6</ele>
        <time>2016-04-18T13:21:08Z</time>
      </trkpt>
      <trkpt lat="39.507316" lon="3.016404">
        <ele>119.6</ele>
        <time>2016-04-18T13:21:16Z</time>
      </trkpt>
      <trkpt lat="39.507247" lon="3.016418">
        <ele>119.6</ele>
        <time>2016-04-18T13:21:17Z</time>
      </trkpt>
      <trkpt lat="39.507175" lon="3.016434">
        <ele>119.2</ele>
        <time>2016-04-18T13:21:18Z</time>
      </trkpt>
      <trkpt lat="39.507108" lon="3.016449">
        <ele>118.8</ele>
        <time>2016-04-18T13:21:19Z</time>
      </trkpt>
      <trkpt lat="39.507041" lon="3.016463">
        <ele>118.4</ele>
        <time>2016-04-18T13:21:20Z</time>
      </trkpt>
      <trkpt lat="39.506973" lon="3.016478">
        <ele>117.8</ele>
        <time>2016-04-18T13:21:21Z</time>
      </trkpt>
      <trkpt lat="39.506902" lon="3.016491">
        <ele>117.4</ele>
        <time>2016-04-18T13:21:22Z</time>
      </trkpt>
      <trkpt lat="39.506554" lon="3.016541">
        <ele>117.4</ele>
        <time>2016-04-18T13:21:27Z</time>
      </trkpt>
      <trkpt lat="39.506006" lon="3.0166">
        <ele>117.4</ele>
        <time>2016-04-18T13:21:35Z</time>
      </trkpt>
      <trkpt lat="39.505936" lon="3.016602">
        <ele>117.4</ele>
        <time>2016-04-18T13:21:36Z</time>
      </trkpt>
      <trkpt lat="39.505659" lon="3.016609">
        <ele>117.4</ele>
        <time>2016-04-18T13:21:40Z</time>
      </trkpt>
      <trkpt lat="39.505318" lon="3.016612">
        <ele>117.4</ele>
        <time>2016-04-18T13:21:45Z</time>
      </trkpt>
      <trkpt lat="39.505114" lon="3.016603">
        <ele>117.8</ele>
        <time>2016-04-18T13:21:48Z</time>
      </trkpt>
      <trkpt lat="39.505047" lon="3.016603">
        <ele>118.2</ele>
        <time>2016-04-18T13:21:49Z</time>
      </trkpt>
      <trkpt lat="39.504981" lon="3.016601">
        <ele>118.6</ele>
        <time>2016-04-18T13:21:50Z</time>
      </trkpt>
      <trkpt lat="39.504915" lon="3.0166">
        <ele>119</ele>
        <time>2016-04-18T13:21:51Z</time>
      </trkpt>
      <trkpt lat="39.504849" lon="3.0166">
        <ele>119.4</ele>
        <time>2016-04-18T13:21:52Z</time>
      </trkpt>
      <trkpt lat="39.504381" lon="3.016591">
        <ele>119.4</ele>
        <time>2016-04-18T13:21:59Z</time>
      </trkpt>
      <trkpt lat="39.504308" lon="3.016593">
        <ele>119.4</ele>
        <time>2016-04-18T13:22:00Z</time>
      </trkpt>
      <trkpt lat="39.503691" lon="3.0166">
        <ele>119.4</ele>
        <time>2016-04-18T13:22:08Z</time>
      </trkpt>
      <trkpt lat="39.503377" lon="3.016594">
        <ele>118.6</ele>
        <time>2016-04-18T13:22:12Z</time>
      </trkpt>
      <trkpt lat="39.503303" lon="3.016595">
        <ele>118.2</ele>
        <time>2016-04-18T13:22:13Z</time>
      </trkpt>
      <trkpt lat="39.503231" lon="3.016596">
        <ele>117.8</ele>
        <time>2016-04-18T13:22:14Z</time>
      </trkpt>
      <trkpt lat="39.503163" lon="3.016598">
        <ele>117.4</ele>
        <time>2016-04-18T13:22:15Z</time>
      </trkpt>
      <trkpt lat="39.503024" lon="3.016586">
        <ele>117.4</ele>
        <time>2016-04-18T13:22:17Z</time>
      </trkpt>
      <trkpt lat="39.502889" lon="3.016549">
        <ele>117.4</ele>
        <time>2016-04-18T13:22:19Z</time>
      </trkpt>
      <trkpt lat="39.502634" lon="3.01646">
        <ele>117.4</ele>
        <time>2016-04-18T13:22:23Z</time>
      </trkpt>
      <trkpt lat="39.502401" lon="3.016322">
        <ele>117.4</ele>
        <time>2016-04-18T13:22:27Z</time>
      </trkpt>
      <trkpt lat="39.502229" lon="3.016225">
        <ele>117.8</ele>
        <time>2016-04-18T13:22:30Z</time>
      </trkpt>
      <trkpt lat="39.502173" lon="3.016191">
        <ele>118.2</ele>
        <time>2016-04-18T13:22:31Z</time>
      </trkpt>
      <trkpt lat="39.502117" lon="3.016159">
        <ele>118.8</ele>
        <time>2016-04-18T13:22:32Z</time>
      </trkpt>
      <trkpt lat="39.502061" lon="3.016127">
        <ele>119.2</ele>
        <time>2016-04-18T13:22:33Z</time>
      </trkpt>
      <trkpt lat="39.502004" lon="3.016092">
        <ele>119.6</ele>
        <time>2016-04-18T13:22:34Z</time>
      </trkpt>
      <trkpt lat="39.501896" lon="3.016026">
        <ele>119.6</ele>
        <time>2016-04-18T13:22:36Z</time>
      </trkpt>
      <trkpt lat="39.501735" lon="3.015938">
        <ele>120</ele>
        <time>2016-04-18T13:22:39Z</time>
      </trkpt>
      <trkpt lat="39.501682" lon="3.015909">
        <ele>120.6</ele>
        <time>2016-04-18T13:22:40Z</time>
      </trkpt>
      <trkpt lat="39.501628" lon="3.015882">
        <ele>121</ele>
        <time>2016-04-18T13:22:41Z</time>
      </trkpt>
      <trkpt lat="39.50158" lon="3.015853">
        <ele>121.4</ele>
        <time>2016-04-18T13:22:42Z</time>
      </trkpt>
      <trkpt lat="39.501533" lon="3.015826">
        <ele>121.8</ele>
        <time>2016-04-18T13:22:43Z</time>
      </trkpt>
      <trkpt lat="39.501485" lon="3.015797">
        <ele>121.8</ele>
        <time>2016-04-18T13:22:44Z</time>
      </trkpt>
      <trkpt lat="39.50125" lon="3.01566">
        <ele>122.2</ele>
        <time>2016-04-18T13:22:49Z</time>
      </trkpt>
      <trkpt lat="39.501208" lon="3.01564">
        <ele>122.6</ele>
        <time>2016-04-18T13:22:50Z</time>
      </trkpt>
      <trkpt lat="39.501168" lon="3.015615">
        <ele>123</ele>
        <time>2016-04-18T13:22:51Z</time>
      </trkpt>
      <trkpt lat="39.501124" lon="3.015597">
        <ele>123.6</ele>
        <time>2016-04-18T13:22:52Z</time>
      </trkpt>
      <trkpt lat="39.501085" lon="3.015572">
        <ele>124</ele>
        <time>2016-04-18T13:22:53Z</time>
      </trkpt>
      <trkpt lat="39.500968" lon="3.015504">
        <ele>124</ele>
        <time>2016-04-18T13:22:56Z</time>
      </trkpt>
      <trkpt lat="39.500891" lon="3.015453">
        <ele>124.4</ele>
        <time>2016-04-18T13:22:58Z</time>
      </trkpt>
      <trkpt lat="39.500853" lon="3.015433">
        <ele>124.8</ele>
        <time>2016-04-18T13:22:59Z</time>
      </trkpt>
      <trkpt lat="39.500811" lon="3.015416">
        <ele>125.2</ele>
        <time>2016-04-18T13:23:00Z</time>
      </trkpt>
      <trkpt lat="39.500771" lon="3.015395">
        <ele>126.2</ele>
        <time>2016-04-18T13:23:01Z</time>
      </trkpt>
      <trkpt lat="39.500688" lon="3.01535">
        <ele>126.2</ele>
        <time>2016-04-18T13:23:03Z</time>
      </trkpt>
      <trkpt lat="39.50065" lon="3.015323">
        <ele>126.2</ele>
        <time>2016-04-18T13:23:04Z</time>
      </trkpt>
      <trkpt lat="39.500575" lon="3.015275">
        <ele>126.6</ele>
        <time>2016-04-18T13:23:06Z</time>
      </trkpt>
      <trkpt lat="39.50054" lon="3.015251">
        <ele>127.2</ele>
        <time>2016-04-18T13:23:07Z</time>
      </trkpt>
      <trkpt lat="39.500506" lon="3.015232">
        <ele>127.6</ele>
        <time>2016-04-18T13:23:08Z</time>
      </trkpt>
      <trkpt lat="39.500473" lon="3.01521">
        <ele>128</ele>
        <time>2016-04-18T13:23:09Z</time>
      </trkpt>
      <trkpt lat="39.500439" lon="3.01519">
        <ele>128.6</ele>
        <time>2016-04-18T13:23:10Z</time>
      </trkpt>
      <trkpt lat="39.500341" lon="3.015135">
        <ele>129</ele>
        <time>2016-04-18T13:23:13Z</time>
      </trkpt>
      <trkpt lat="39.50031" lon="3.015117">
        <ele>129.4</ele>
        <time>2016-04-18T13:23:14Z</time>
      </trkpt>
      <trkpt lat="39.500281" lon="3.015102">
        <ele>130</ele>
        <time>2016-04-18T13:23:15Z</time>
      </trkpt>
      <trkpt lat="39.500254" lon="3.015087">
        <ele>130.4</ele>
        <time>2016-04-18T13:23:16Z</time>
      </trkpt>
      <trkpt lat="39.500225" lon="3.01507">
        <ele>131</ele>
        <time>2016-04-18T13:23:17Z</time>
      </trkpt>
      <trkpt lat="39.500124" lon="3.015012">
        <ele>131.6</ele>
        <time>2016-04-18T13:23:21Z</time>
      </trkpt>
      <trkpt lat="39.500096" lon="3.015">
        <ele>132.4</ele>
        <time>2016-04-18T13:23:22Z</time>
      </trkpt>
      <trkpt lat="39.499873" lon="3.014843">
        <ele>88.2</ele>
        <time>2016-04-18T13:24:01Z</time>
      </trkpt>
      <trkpt lat="39.499868" lon="3.014842">
        <ele>89.8</ele>
        <time>2016-04-18T13:24:02Z</time>
      </trkpt>
      <trkpt lat="39.49986" lon="3.01484">
        <ele>91.2</ele>
        <time>2016-04-18T13:24:03Z</time>
      </trkpt>
      <trkpt lat="39.499849" lon="3.014845">
        <ele>92.8</ele>
        <time>2016-04-18T13:24:04Z</time>
      </trkpt>
      <trkpt lat="39.499831" lon="3.01485">
        <ele>94</ele>
        <time>2016-04-18T13:24:05Z</time>
      </trkpt>
      <trkpt lat="39.499816" lon="3.014851">
        <ele>95.2</ele>
        <time>2016-04-18T13:24:06Z</time>
      </trkpt>
      <trkpt lat="39.499799" lon="3.01484">
        <ele>96.6</ele>
        <time>2016-04-18T13:24:07Z</time>
      </trkpt>
      <trkpt lat="39.499778" lon="3.014824">
        <ele>97.8</ele>
        <time>2016-04-18T13:24:08Z</time>
      </trkpt>
      <trkpt lat="39.499753" lon="3.014803">
        <ele>99.2</ele>
        <time>2016-04-18T13:24:09Z</time>
      </trkpt>
      <trkpt lat="39.49973" lon="3.014783">
        <ele>100.6</ele>
        <time>2016-04-18T13:24:10Z</time>
      </trkpt>
      <trkpt lat="39.499709" lon="3.014767">
        <ele>101.8</ele>
        <time>2016-04-18T13:24:11Z</time>
      </trkpt>
      <trkpt lat="39.499687" lon="3.014748">
        <ele>103</ele>
        <time>2016-04-18T13:24:12Z</time>
      </trkpt>
      <trkpt lat="39.499663" lon="3.014733">
        <ele>104.4</ele>
        <time>2016-04-18T13:24:13Z</time>
      </trkpt>
      <trkpt lat="39.499637" lon="3.01472">
        <ele>106</ele>
        <time>2016-04-18T13:24:14Z</time>
      </trkpt>
      <trkpt lat="39.49961" lon="3.014708">
        <ele>107.4</ele>
        <time>2016-04-18T13:24:15Z</time>
      </trkpt>
      <trkpt lat="39.499583" lon="3.014697">
        <ele>109.6</ele>
        <time>2016-04-18T13:24:16Z</time>
      </trkpt>
      <trkpt lat="39.499557" lon="3.014681">
        <ele>110.8</ele>
        <time>2016-04-18T13:24:17Z</time>
      </trkpt>
      <trkpt lat="39.499533" lon="3.014662">
        <ele>112</ele>
        <time>2016-04-18T13:24:18Z</time>
      </trkpt>
      <trkpt lat="39.499507" lon="3.014652">
        <ele>113</ele>
        <time>2016-04-18T13:24:19Z</time>
      </trkpt>
      <trkpt lat="39.499479" lon="3.014641">
        <ele>114.2</ele>
        <time>2016-04-18T13:24:20Z</time>
      </trkpt>
      <trkpt lat="39.499451" lon="3.014627">
        <ele>115.2</ele>
        <time>2016-04-18T13:24:21Z</time>
      </trkpt>
      <trkpt lat="39.499424" lon="3.01461">
        <ele>116.4</ele>
        <time>2016-04-18T13:24:22Z</time>
      </trkpt>
      <trkpt lat="39.499401" lon="3.01459">
        <ele>117.4</ele>
        <time>2016-04-18T13:24:23Z</time>
      </trkpt>
      <trkpt lat="39.499377" lon="3.014578">
        <ele>118.6</ele>
        <time>2016-04-18T13:24:24Z</time>
      </trkpt>
      <trkpt lat="39.499353" lon="3.014564">
        <ele>119.6</ele>
        <time>2016-04-18T13:24:25Z</time>
      </trkpt>
      <trkpt lat="39.499327" lon="3.014549">
        <ele>120.6</ele>
        <time>2016-04-18T13:24:26Z</time>
      </trkpt>
      <trkpt lat="39.4993" lon="3.014533">
        <ele>121.4</ele>
        <time>2016-04-18T13:24:27Z</time>
      </trkpt>
      <trkpt lat="39.499274" lon="3.014516">
        <ele>122.2</ele>
        <time>2016-04-18T13:24:28Z</time>
      </trkpt>
      <trkpt lat="39.499247" lon="3.014498">
        <ele>123</ele>
        <time>2016-04-18T13:24:29Z</time>
      </trkpt>
      <trkpt lat="39.499219" lon="3.01448">
        <ele>123.8</ele>
        <time>2016-04-18T13:24:30Z</time>
      </trkpt>
      <trkpt lat="39.499192" lon="3.014463">
        <ele>124.6</ele>
        <time>2016-04-18T13:24:31Z</time>
      </trkpt>
      <trkpt lat="39.499167" lon="3.014448">
        <ele>125.2</ele>
        <time>2016-04-18T13:24:32Z</time>
      </trkpt>
      <trkpt lat="39.499141" lon="3.014431">
        <ele>126</ele>
        <time>2016-04-18T13:24:33Z</time>
      </trkpt>
      <trkpt lat="39.499115" lon="3.014416">
        <ele>126.8</ele>
        <time>2016-04-18T13:24:34Z</time>
      </trkpt>
      <trkpt lat="39.499087" lon="3.0144">
        <ele>127.4</ele>
        <time>2016-04-18T13:24:35Z</time>
      </trkpt>
      <trkpt lat="39.49906" lon="3.014381">
        <ele>128.2</ele>
        <time>2016-04-18T13:24:36Z</time>
      </trkpt>
      <trkpt lat="39.499032" lon="3.014368">
        <ele>129</ele>
        <time>2016-04-18T13:24:37Z</time>
      </trkpt>
      <trkpt lat="39.499001" lon="3.014353">
        <ele>129.6</ele>
        <time>2016-04-18T13:24:38Z</time>
      </trkpt>
      <trkpt lat="39.498974" lon="3.01434">
        <ele>130.2</ele>
        <time>2016-04-18T13:24:39Z</time>
      </trkpt>
      <trkpt lat="39.498949" lon="3.014327">
        <ele>130.8</ele>
        <time>2016-04-18T13:24:40Z</time>
      </trkpt>
      <trkpt lat="39.498924" lon="3.014312">
        <ele>132.2</ele>
        <time>2016-04-18T13:24:41Z</time>
      </trkpt>
      <trkpt lat="39.498894" lon="3.014298">
        <ele>132.6</ele>
        <time>2016-04-18T13:24:42Z</time>
      </trkpt>
      <trkpt lat="39.498867" lon="3.014286">
        <ele>133.2</ele>
        <time>2016-04-18T13:24:43Z</time>
      </trkpt>
      <trkpt lat="39.498841" lon="3.014269">
        <ele>133.8</ele>
        <time>2016-04-18T13:24:44Z</time>
      </trkpt>
      <trkpt lat="39.498814" lon="3.014257">
        <ele>134.4</ele>
        <time>2016-04-18T13:24:45Z</time>
      </trkpt>
      <trkpt lat="39.49879" lon="3.014243">
        <ele>135</ele>
        <time>2016-04-18T13:24:46Z</time>
      </trkpt>
      <trkpt lat="39.498767" lon="3.014225">
        <ele>135.6</ele>
        <time>2016-04-18T13:24:47Z</time>
      </trkpt>
      <trkpt lat="39.498741" lon="3.014211">
        <ele>136.2</ele>
        <time>2016-04-18T13:24:48Z</time>
      </trkpt>
      <trkpt lat="39.498713" lon="3.014198">
        <ele>137</ele>
        <time>2016-04-18T13:24:49Z</time>
      </trkpt>
      <trkpt lat="39.498686" lon="3.01418">
        <ele>137.4</ele>
        <time>2016-04-18T13:24:50Z</time>
      </trkpt>
      <trkpt lat="39.49866" lon="3.014165">
        <ele>138</ele>
        <time>2016-04-18T13:24:51Z</time>
      </trkpt>
      <trkpt lat="39.498633" lon="3.014149">
        <ele>138.4</ele>
        <time>2016-04-18T13:24:52Z</time>
      </trkpt>
      <trkpt lat="39.498605" lon="3.014136">
        <ele>139</ele>
        <time>2016-04-18T13:24:53Z</time>
      </trkpt>
      <trkpt lat="39.498579" lon="3.014121">
        <ele>139.4</ele>
        <time>2016-04-18T13:24:54Z</time>
      </trkpt>
      <trkpt lat="39.498553" lon="3.014106">
        <ele>139.8</ele>
        <time>2016-04-18T13:24:55Z</time>
      </trkpt>
      <trkpt lat="39.498525" lon="3.014089">
        <ele>140.4</ele>
        <time>2016-04-18T13:24:56Z</time>
      </trkpt>
      <trkpt lat="39.498499" lon="3.014076">
        <ele>140.8</ele>
        <time>2016-04-18T13:24:57Z</time>
      </trkpt>
      <trkpt lat="39.498473" lon="3.014061">
        <ele>141.2</ele>
        <time>2016-04-18T13:24:58Z</time>
      </trkpt>
      <trkpt lat="39.498448" lon="3.014053">
        <ele>141.8</ele>
        <time>2016-04-18T13:24:59Z</time>
      </trkpt>
      <trkpt lat="39.498425" lon="3.014039">
        <ele>142.2</ele>
        <time>2016-04-18T13:25:00Z</time>
      </trkpt>
      <trkpt lat="39.4984" lon="3.014028">
        <ele>142.8</ele>
        <time>2016-04-18T13:25:01Z</time>
      </trkpt>
      <trkpt lat="39.498378" lon="3.014009">
        <ele>143.4</ele>
        <time>2016-04-18T13:25:02Z</time>
      </trkpt>
      <trkpt lat="39.498353" lon="3.013991">
        <ele>143.8</ele>
        <time>2016-04-18T13:25:03Z</time>
      </trkpt>
      <trkpt lat="39.498328" lon="3.013977">
        <ele>144.4</ele>
        <time>2016-04-18T13:25:04Z</time>
      </trkpt>
      <trkpt lat="39.498302" lon="3.013964">
        <ele>144.8</ele>
        <time>2016-04-18T13:25:05Z</time>
      </trkpt>
      <trkpt lat="39.498278" lon="3.01395">
        <ele>145.8</ele>
        <time>2016-04-18T13:25:06Z</time>
      </trkpt>
      <trkpt lat="39.498253" lon="3.013938">
        <ele>146.2</ele>
        <time>2016-04-18T13:25:07Z</time>
      </trkpt>
      <trkpt lat="39.498181" lon="3.013893">
        <ele>146.6</ele>
        <time>2016-04-18T13:25:10Z</time>
      </trkpt>
      <trkpt lat="39.498158" lon="3.013881">
        <ele>147</ele>
        <time>2016-04-18T13:25:11Z</time>
      </trkpt>
      <trkpt lat="39.498134" lon="3.013864">
        <ele>147.6</ele>
        <time>2016-04-18T13:25:12Z</time>
      </trkpt>
      <trkpt lat="39.498109" lon="3.013849">
        <ele>148</ele>
        <time>2016-04-18T13:25:13Z</time>
      </trkpt>
      <trkpt lat="39.498085" lon="3.013832">
        <ele>148.4</ele>
        <time>2016-04-18T13:25:14Z</time>
      </trkpt>
      <trkpt lat="39.498039" lon="3.013806">
        <ele>148.8</ele>
        <time>2016-04-18T13:25:16Z</time>
      </trkpt>
      <trkpt lat="39.498014" lon="3.013792">
        <ele>149.2</ele>
        <time>2016-04-18T13:25:17Z</time>
      </trkpt>
      <trkpt lat="39.497989" lon="3.013781">
        <ele>149.6</ele>
        <time>2016-04-18T13:25:18Z</time>
      </trkpt>
      <trkpt lat="39.497963" lon="3.013769">
        <ele>150.2</ele>
        <time>2016-04-18T13:25:19Z</time>
      </trkpt>
      <trkpt lat="39.497936" lon="3.013759">
        <ele>150.6</ele>
        <time>2016-04-18T13:25:20Z</time>
      </trkpt>
      <trkpt lat="39.497834" lon="3.013704">
        <ele>151</ele>
        <time>2016-04-18T13:25:24Z</time>
      </trkpt>
      <trkpt lat="39.497808" lon="3.013691">
        <ele>151.4</ele>
        <time>2016-04-18T13:25:25Z</time>
      </trkpt>
      <trkpt lat="39.497784" lon="3.01368">
        <ele>152</ele>
        <time>2016-04-18T13:25:26Z</time>
      </trkpt>
      <trkpt lat="39.497759" lon="3.013673">
        <ele>152.4</ele>
        <time>2016-04-18T13:25:27Z</time>
      </trkpt>
      <trkpt lat="39.497734" lon="3.013667">
        <ele>152.8</ele>
        <time>2016-04-18T13:25:28Z</time>
      </trkpt>
      <trkpt lat="39.497641" lon="3.013678">
        <ele>152.8</ele>
        <time>2016-04-18T13:25:32Z</time>
      </trkpt>
      <trkpt lat="39.497624" lon="3.01369">
        <ele>153.4</ele>
        <time>2016-04-18T13:25:33Z</time>
      </trkpt>
      <trkpt lat="39.497603" lon="3.013703">
        <ele>153.8</ele>
        <time>2016-04-18T13:25:34Z</time>
      </trkpt>
      <trkpt lat="39.497585" lon="3.013721">
        <ele>154.2</ele>
        <time>2016-04-18T13:25:35Z</time>
      </trkpt>
      <trkpt lat="39.497568" lon="3.013746">
        <ele>154.6</ele>
        <time>2016-04-18T13:25:36Z</time>
      </trkpt>
      <trkpt lat="39.497556" lon="3.013779">
        <ele>155</ele>
        <time>2016-04-18T13:25:37Z</time>
      </trkpt>
      <trkpt lat="39.497524" lon="3.01388">
        <ele>155.6</ele>
        <time>2016-04-18T13:25:40Z</time>
      </trkpt>
      <trkpt lat="39.497516" lon="3.013914">
        <ele>156</ele>
        <time>2016-04-18T13:25:41Z</time>
      </trkpt>
      <trkpt lat="39.49751" lon="3.01395">
        <ele>156.4</ele>
        <time>2016-04-18T13:25:42Z</time>
      </trkpt>
      <trkpt lat="39.497511" lon="3.013986">
        <ele>156.8</ele>
        <time>2016-04-18T13:25:43Z</time>
      </trkpt>
      <trkpt lat="39.497519" lon="3.01402">
        <ele>157.2</ele>
        <time>2016-04-18T13:25:44Z</time>
      </trkpt>
      <trkpt lat="39.497542" lon="3.01409">
        <ele>158.8</ele>
        <time>2016-04-18T13:25:46Z</time>
      </trkpt>
      <trkpt lat="39.497555" lon="3.014123">
        <ele>159.2</ele>
        <time>2016-04-18T13:25:47Z</time>
      </trkpt>
      <trkpt lat="39.497669" lon="3.01436">
        <ele>159.2</ele>
        <time>2016-04-18T13:25:55Z</time>
      </trkpt>
      <trkpt lat="39.497738" lon="3.014483">
        <ele>159.6</ele>
        <time>2016-04-18T13:25:59Z</time>
      </trkpt>
      <trkpt lat="39.497754" lon="3.014515">
        <ele>160</ele>
        <time>2016-04-18T13:26:00Z</time>
      </trkpt>
      <trkpt lat="39.497769" lon="3.014554">
        <ele>160.4</ele>
        <time>2016-04-18T13:26:01Z</time>
      </trkpt>
      <trkpt lat="39.497783" lon="3.014592">
        <ele>161</ele>
        <time>2016-04-18T13:26:02Z</time>
      </trkpt>
      <trkpt lat="39.497799" lon="3.01463">
        <ele>161.4</ele>
        <time>2016-04-18T13:26:03Z</time>
      </trkpt>
      <trkpt lat="39.497818" lon="3.014694">
        <ele>161.4</ele>
        <time>2016-04-18T13:26:05Z</time>
      </trkpt>
      <trkpt lat="39.497836" lon="3.014756">
        <ele>161.8</ele>
        <time>2016-04-18T13:26:07Z</time>
      </trkpt>
      <trkpt lat="39.497849" lon="3.014788">
        <ele>162.2</ele>
        <time>2016-04-18T13:26:08Z</time>
      </trkpt>
      <trkpt lat="39.497866" lon="3.014828">
        <ele>162.6</ele>
        <time>2016-04-18T13:26:09Z</time>
      </trkpt>
      <trkpt lat="39.497883" lon="3.014866">
        <ele>163</ele>
        <time>2016-04-18T13:26:10Z</time>
      </trkpt>
      <trkpt lat="39.497903" lon="3.014903">
        <ele>163.4</ele>
        <time>2016-04-18T13:26:11Z</time>
      </trkpt>
      <trkpt lat="39.497917" lon="3.01494">
        <ele>163.4</ele>
        <time>2016-04-18T13:26:12Z</time>
      </trkpt>
      <trkpt lat="39.498017" lon="3.015181">
        <ele>164</ele>
        <time>2016-04-18T13:26:19Z</time>
      </trkpt>
      <trkpt lat="39.498031" lon="3.015221">
        <ele>164.4</ele>
        <time>2016-04-18T13:26:20Z</time>
      </trkpt>
      <trkpt lat="39.498048" lon="3.015258">
        <ele>164.8</ele>
        <time>2016-04-18T13:26:21Z</time>
      </trkpt>
      <trkpt lat="39.498063" lon="3.015293">
        <ele>165.2</ele>
        <time>2016-04-18T13:26:22Z</time>
      </trkpt>
      <trkpt lat="39.498078" lon="3.015329">
        <ele>165.6</ele>
        <time>2016-04-18T13:26:23Z</time>
      </trkpt>
      <trkpt lat="39.498082" lon="3.015371">
        <ele>165.6</ele>
        <time>2016-04-18T13:26:24Z</time>
      </trkpt>
      <trkpt lat="39.498071" lon="3.015415">
        <ele>165.6</ele>
        <time>2016-04-18T13:26:25Z</time>
      </trkpt>
      <trkpt lat="39.498002" lon="3.015404">
        <ele>166.2</ele>
        <time>2016-04-18T13:26:28Z</time>
      </trkpt>
      <trkpt lat="39.497982" lon="3.015376">
        <ele>166.6</ele>
        <time>2016-04-18T13:26:29Z</time>
      </trkpt>
      <trkpt lat="39.497965" lon="3.015345">
        <ele>167</ele>
        <time>2016-04-18T13:26:30Z</time>
      </trkpt>
      <trkpt lat="39.497948" lon="3.015311">
        <ele>167.6</ele>
        <time>2016-04-18T13:26:31Z</time>
      </trkpt>
      <trkpt lat="39.497924" lon="3.015279">
        <ele>168</ele>
        <time>2016-04-18T13:26:32Z</time>
      </trkpt>
      <trkpt lat="39.49788" lon="3.015214">
        <ele>168</ele>
        <time>2016-04-18T13:26:34Z</time>
      </trkpt>
      <trkpt lat="39.497858" lon="3.015183">
        <ele>168.4</ele>
        <time>2016-04-18T13:26:35Z</time>
      </trkpt>
      <trkpt lat="39.497837" lon="3.015152">
        <ele>168.8</ele>
        <time>2016-04-18T13:26:36Z</time>
      </trkpt>
      <trkpt lat="39.49781" lon="3.015122">
        <ele>169.4</ele>
        <time>2016-04-18T13:26:37Z</time>
      </trkpt>
      <trkpt lat="39.497784" lon="3.01509">
        <ele>169.8</ele>
        <time>2016-04-18T13:26:38Z</time>
      </trkpt>
      <trkpt lat="39.497757" lon="3.015053">
        <ele>170.2</ele>
        <time>2016-04-18T13:26:39Z</time>
      </trkpt>
      <trkpt lat="39.497698" lon="3.015002">
        <ele>170.2</ele>
        <time>2016-04-18T13:26:41Z</time>
      </trkpt>
      <trkpt lat="39.497667" lon="3.01498">
        <ele>170.6</ele>
        <time>2016-04-18T13:26:42Z</time>
      </trkpt>
      <trkpt lat="39.49764" lon="3.014955">
        <ele>171.6</ele>
        <time>2016-04-18T13:26:43Z</time>
      </trkpt>
      <trkpt lat="39.497608" lon="3.014938">
        <ele>172</ele>
        <time>2016-04-18T13:26:44Z</time>
      </trkpt>
      <trkpt lat="39.497576" lon="3.014918">
        <ele>172.4</ele>
        <time>2016-04-18T13:26:45Z</time>
      </trkpt>
      <trkpt lat="39.49751" lon="3.014886">
        <ele>172.4</ele>
        <time>2016-04-18T13:26:47Z</time>
      </trkpt>
      <trkpt lat="39.49734" lon="3.014802">
        <ele>172.8</ele>
        <time>2016-04-18T13:26:52Z</time>
      </trkpt>
      <trkpt lat="39.497306" lon="3.01479">
        <ele>173.2</ele>
        <time>2016-04-18T13:26:53Z</time>
      </trkpt>
      <trkpt lat="39.497271" lon="3.014778">
        <ele>173.6</ele>
        <time>2016-04-18T13:26:54Z</time>
      </trkpt>
      <trkpt lat="39.497237" lon="3.014768">
        <ele>174</ele>
        <time>2016-04-18T13:26:55Z</time>
      </trkpt>
      <trkpt lat="39.497201" lon="3.014757">
        <ele>174.4</ele>
        <time>2016-04-18T13:26:56Z</time>
      </trkpt>
      <trkpt lat="39.497103" lon="3.014724">
        <ele>174.8</ele>
        <time>2016-04-18T13:26:59Z</time>
      </trkpt>
      <trkpt lat="39.497068" lon="3.014711">
        <ele>175.2</ele>
        <time>2016-04-18T13:27:00Z</time>
      </trkpt>
      <trkpt lat="39.497034" lon="3.014694">
        <ele>175.6</ele>
        <time>2016-04-18T13:27:01Z</time>
      </trkpt>
      <trkpt lat="39.497001" lon="3.014675">
        <ele>176</ele>
        <time>2016-04-18T13:27:02Z</time>
      </trkpt>
      <trkpt lat="39.49697" lon="3.014656">
        <ele>176.4</ele>
        <time>2016-04-18T13:27:03Z</time>
      </trkpt>
      <trkpt lat="39.496864" lon="3.014544">
        <ele>176.4</ele>
        <time>2016-04-18T13:27:07Z</time>
      </trkpt>
      <trkpt lat="39.496839" lon="3.014514">
        <ele>177.4</ele>
        <time>2016-04-18T13:27:08Z</time>
      </trkpt>
      <trkpt lat="39.496814" lon="3.014489">
        <ele>177.8</ele>
        <time>2016-04-18T13:27:09Z</time>
      </trkpt>
      <trkpt lat="39.496789" lon="3.014463">
        <ele>178.2</ele>
        <time>2016-04-18T13:27:10Z</time>
      </trkpt>
      <trkpt lat="39.496766" lon="3.014442">
        <ele>178.6</ele>
        <time>2016-04-18T13:27:11Z</time>
      </trkpt>
      <trkpt lat="39.49669" lon="3.014384">
        <ele>179</ele>
        <time>2016-04-18T13:27:14Z</time>
      </trkpt>
      <trkpt lat="39.496663" lon="3.014369">
        <ele>179.4</ele>
        <time>2016-04-18T13:27:15Z</time>
      </trkpt>
      <trkpt lat="39.496636" lon="3.014353">
        <ele>179.8</ele>
        <time>2016-04-18T13:27:16Z</time>
      </trkpt>
      <trkpt lat="39.496608" lon="3.014348">
        <ele>180.2</ele>
        <time>2016-04-18T13:27:17Z</time>
      </trkpt>
      <trkpt lat="39.496575" lon="3.014342">
        <ele>180.8</ele>
        <time>2016-04-18T13:27:18Z</time>
      </trkpt>
      <trkpt lat="39.496515" lon="3.014331">
        <ele>180.8</ele>
        <time>2016-04-18T13:27:20Z</time>
      </trkpt>
      <trkpt lat="39.496376" lon="3.014342">
        <ele>181.2</ele>
        <time>2016-04-18T13:27:25Z</time>
      </trkpt>
      <trkpt lat="39.496351" lon="3.01435">
        <ele>181.6</ele>
        <time>2016-04-18T13:27:26Z</time>
      </trkpt>
      <trkpt lat="39.496329" lon="3.01436">
        <ele>182</ele>
        <time>2016-04-18T13:27:27Z</time>
      </trkpt>
      <trkpt lat="39.496303" lon="3.014367">
        <ele>182.4</ele>
        <time>2016-04-18T13:27:28Z</time>
      </trkpt>
      <trkpt lat="39.496277" lon="3.014377">
        <ele>182.8</ele>
        <time>2016-04-18T13:27:29Z</time>
      </trkpt>
      <trkpt lat="39.496201" lon="3.01443">
        <ele>182.8</ele>
        <time>2016-04-18T13:27:32Z</time>
      </trkpt>
      <trkpt lat="39.496149" lon="3.014473">
        <ele>183.4</ele>
        <time>2016-04-18T13:27:34Z</time>
      </trkpt>
      <trkpt lat="39.496125" lon="3.014496">
        <ele>183.8</ele>
        <time>2016-04-18T13:27:35Z</time>
      </trkpt>
      <trkpt lat="39.496101" lon="3.014517">
        <ele>184.2</ele>
        <time>2016-04-18T13:27:36Z</time>
      </trkpt>
      <trkpt lat="39.49608" lon="3.01454">
        <ele>184.6</ele>
        <time>2016-04-18T13:27:37Z</time>
      </trkpt>
      <trkpt lat="39.49606" lon="3.014562">
        <ele>185</ele>
        <time>2016-04-18T13:27:38Z</time>
      </trkpt>
      <trkpt lat="39.496021" lon="3.014604">
        <ele>185</ele>
        <time>2016-04-18T13:27:40Z</time>
      </trkpt>
      <trkpt lat="39.495877" lon="3.014706">
        <ele>185.4</ele>
        <time>2016-04-18T13:27:46Z</time>
      </trkpt>
      <trkpt lat="39.495845" lon="3.014709">
        <ele>186</ele>
        <time>2016-04-18T13:27:47Z</time>
      </trkpt>
      <trkpt lat="39.495814" lon="3.014708">
        <ele>186.4</ele>
        <time>2016-04-18T13:27:48Z</time>
      </trkpt>
      <trkpt lat="39.495779" lon="3.014691">
        <ele>186.8</ele>
        <time>2016-04-18T13:27:49Z</time>
      </trkpt>
      <trkpt lat="39.495755" lon="3.014673">
        <ele>187.2</ele>
        <time>2016-04-18T13:27:50Z</time>
      </trkpt>
      <trkpt lat="39.495658" lon="3.014537">
        <ele>187.2</ele>
        <time>2016-04-18T13:27:55Z</time>
      </trkpt>
      <trkpt lat="39.49564" lon="3.0145">
        <ele>187.6</ele>
        <time>2016-04-18T13:27:56Z</time>
      </trkpt>
      <trkpt lat="39.495625" lon="3.014463">
        <ele>188.4</ele>
        <time>2016-04-18T13:27:57Z</time>
      </trkpt>
      <trkpt lat="39.495608" lon="3.014431">
        <ele>188.8</ele>
        <time>2016-04-18T13:27:58Z</time>
      </trkpt>
      <trkpt lat="39.495586" lon="3.014396">
        <ele>189.2</ele>
        <time>2016-04-18T13:27:59Z</time>
      </trkpt>
      <trkpt lat="39.495501" lon="3.014268">
        <ele>189.2</ele>
        <time>2016-04-18T13:28:03Z</time>
      </trkpt>
      <trkpt lat="39.495479" lon="3.014239">
        <ele>189.6</ele>
        <time>2016-04-18T13:28:04Z</time>
      </trkpt>
      <trkpt lat="39.495454" lon="3.014211">
        <ele>190</ele>
        <time>2016-04-18T13:28:05Z</time>
      </trkpt>
      <trkpt lat="39.495431" lon="3.014183">
        <ele>190.4</ele>
        <time>2016-04-18T13:28:06Z</time>
      </trkpt>
      <trkpt lat="39.495407" lon="3.014154">
        <ele>191</ele>
        <time>2016-04-18T13:28:07Z</time>
      </trkpt>
      <trkpt lat="39.495385" lon="3.014127">
        <ele>191.4</ele>
        <time>2016-04-18T13:28:08Z</time>
      </trkpt>
      <trkpt lat="39.495367" lon="3.014099">
        <ele>191.4</ele>
        <time>2016-04-18T13:28:09Z</time>
      </trkpt>
      <trkpt lat="39.495252" lon="3.013936">
        <ele>191.4</ele>
        <time>2016-04-18T13:28:15Z</time>
      </trkpt>
      <trkpt lat="39.49524" lon="3.013904">
        <ele>191.8</ele>
        <time>2016-04-18T13:28:16Z</time>
      </trkpt>
      <trkpt lat="39.495231" lon="3.01387">
        <ele>192.2</ele>
        <time>2016-04-18T13:28:17Z</time>
      </trkpt>
      <trkpt lat="39.495216" lon="3.013834">
        <ele>192.6</ele>
        <time>2016-04-18T13:28:18Z</time>
      </trkpt>
      <trkpt lat="39.495206" lon="3.013797">
        <ele>193</ele>
        <time>2016-04-18T13:28:19Z</time>
      </trkpt>
      <trkpt lat="39.495194" lon="3.013762">
        <ele>193.4</ele>
        <time>2016-04-18T13:28:20Z</time>
      </trkpt>
      <trkpt lat="39.495161" lon="3.013569">
        <ele>193.8</ele>
        <time>2016-04-18T13:28:25Z</time>
      </trkpt>
      <trkpt lat="39.49515" lon="3.013532">
        <ele>194.2</ele>
        <time>2016-04-18T13:28:26Z</time>
      </trkpt>
      <trkpt lat="39.495132" lon="3.013499">
        <ele>194.6</ele>
        <time>2016-04-18T13:28:27Z</time>
      </trkpt>
      <trkpt lat="39.495113" lon="3.013467">
        <ele>195</ele>
        <time>2016-04-18T13:28:28Z</time>
      </trkpt>
      <trkpt lat="39.495091" lon="3.013438">
        <ele>195.4</ele>
        <time>2016-04-18T13:28:29Z</time>
      </trkpt>
      <trkpt lat="39.495057" lon="3.013428">
        <ele>195.4</ele>
        <time>2016-04-18T13:28:30Z</time>
      </trkpt>
      <trkpt lat="39.495001" lon="3.013519">
        <ele>195.4</ele>
        <time>2016-04-18T13:28:33Z</time>
      </trkpt>
      <trkpt lat="39.49501" lon="3.01356">
        <ele>196</ele>
        <time>2016-04-18T13:28:34Z</time>
      </trkpt>
      <trkpt lat="39.495024" lon="3.013601">
        <ele>196.4</ele>
        <time>2016-04-18T13:28:35Z</time>
      </trkpt>
      <trkpt lat="39.495034" lon="3.013642">
        <ele>197</ele>
        <time>2016-04-18T13:28:36Z</time>
      </trkpt>
      <trkpt lat="39.495046" lon="3.013685">
        <ele>197.4</ele>
        <time>2016-04-18T13:28:37Z</time>
      </trkpt>
      <trkpt lat="39.495057" lon="3.013728">
        <ele>198</ele>
        <time>2016-04-18T13:28:38Z</time>
      </trkpt>
      <trkpt lat="39.495123" lon="3.013917">
        <ele>198.4</ele>
        <time>2016-04-18T13:28:43Z</time>
      </trkpt>
      <trkpt lat="39.49513" lon="3.013957">
        <ele>198.8</ele>
        <time>2016-04-18T13:28:44Z</time>
      </trkpt>
      <trkpt lat="39.495139" lon="3.013997">
        <ele>199.4</ele>
        <time>2016-04-18T13:28:45Z</time>
      </trkpt>
      <trkpt lat="39.495149" lon="3.014037">
        <ele>199.8</ele>
        <time>2016-04-18T13:28:46Z</time>
      </trkpt>
      <trkpt lat="39.495162" lon="3.014074">
        <ele>200.2</ele>
        <time>2016-04-18T13:28:47Z</time>
      </trkpt>
      <trkpt lat="39.495173" lon="3.014152">
        <ele>200.2</ele>
        <time>2016-04-18T13:28:49Z</time>
      </trkpt>
      <trkpt lat="39.495183" lon="3.014272">
        <ele>200.6</ele>
        <time>2016-04-18T13:28:52Z</time>
      </trkpt>
      <trkpt lat="39.495193" lon="3.014311">
        <ele>201</ele>
        <time>2016-04-18T13:28:53Z</time>
      </trkpt>
      <trkpt lat="39.495203" lon="3.014349">
        <ele>201.6</ele>
        <time>2016-04-18T13:28:54Z</time>
      </trkpt>
      <trkpt lat="39.49521" lon="3.014388">
        <ele>202</ele>
        <time>2016-04-18T13:28:55Z</time>
      </trkpt>
      <trkpt lat="39.495217" lon="3.014426">
        <ele>202.4</ele>
        <time>2016-04-18T13:28:56Z</time>
      </trkpt>
      <trkpt lat="39.49525" lon="3.014643">
        <ele>202.8</ele>
        <time>2016-04-18T13:29:01Z</time>
      </trkpt>
      <trkpt lat="39.49525" lon="3.014684">
        <ele>203.4</ele>
        <time>2016-04-18T13:29:02Z</time>
      </trkpt>
      <trkpt lat="39.495254" lon="3.014725">
        <ele>203.8</ele>
        <time>2016-04-18T13:29:03Z</time>
      </trkpt>
      <trkpt lat="39.495257" lon="3.014766">
        <ele>204.2</ele>
        <time>2016-04-18T13:29:04Z</time>
      </trkpt>
      <trkpt lat="39.495259" lon="3.014805">
        <ele>204.6</ele>
        <time>2016-04-18T13:29:05Z</time>
      </trkpt>
      <trkpt lat="39.495274" lon="3.01496">
        <ele>204.6</ele>
        <time>2016-04-18T13:29:09Z</time>
      </trkpt>
      <trkpt lat="39.495276" lon="3.015003">
        <ele>205.2</ele>
        <time>2016-04-18T13:29:10Z</time>
      </trkpt>
      <trkpt lat="39.495282" lon="3.015042">
        <ele>206</ele>
        <time>2016-04-18T13:29:11Z</time>
      </trkpt>
      <trkpt lat="39.495284" lon="3.015078">
        <ele>206.4</ele>
        <time>2016-04-18T13:29:12Z</time>
      </trkpt>
      <trkpt lat="39.495285" lon="3.015117">
        <ele>206.8</ele>
        <time>2016-04-18T13:29:13Z</time>
      </trkpt>
      <trkpt lat="39.49529" lon="3.015189">
        <ele>206.8</ele>
        <time>2016-04-18T13:29:15Z</time>
      </trkpt>
      <trkpt lat="39.495383" lon="3.015396">
        <ele>206.8</ele>
        <time>2016-04-18T13:29:21Z</time>
      </trkpt>
      <trkpt lat="39.495429" lon="3.015444">
        <ele>207.2</ele>
        <time>2016-04-18T13:29:23Z</time>
      </trkpt>
      <trkpt lat="39.495451" lon="3.015465">
        <ele>207.6</ele>
        <time>2016-04-18T13:29:24Z</time>
      </trkpt>
      <trkpt lat="39.495474" lon="3.015482">
        <ele>208</ele>
        <time>2016-04-18T13:29:25Z</time>
      </trkpt>
      <trkpt lat="39.495504" lon="3.015496">
        <ele>208.4</ele>
        <time>2016-04-18T13:29:26Z</time>
      </trkpt>
      <trkpt lat="39.495535" lon="3.01551">
        <ele>208.8</ele>
        <time>2016-04-18T13:29:27Z</time>
      </trkpt>
      <trkpt lat="39.495597" lon="3.015532">
        <ele>209.4</ele>
        <time>2016-04-18T13:29:29Z</time>
      </trkpt>
      <trkpt lat="39.495627" lon="3.015542">
        <ele>209.8</ele>
        <time>2016-04-18T13:29:30Z</time>
      </trkpt>
      <trkpt lat="39.49566" lon="3.015544">
        <ele>210.2</ele>
        <time>2016-04-18T13:29:31Z</time>
      </trkpt>
      <trkpt lat="39.49569" lon="3.015547">
        <ele>210.8</ele>
        <time>2016-04-18T13:29:32Z</time>
      </trkpt>
      <trkpt lat="39.495723" lon="3.015553">
        <ele>211.2</ele>
        <time>2016-04-18T13:29:33Z</time>
      </trkpt>
      <trkpt lat="39.495872" lon="3.015615">
        <ele>211.2</ele>
        <time>2016-04-18T13:29:38Z</time>
      </trkpt>
      <trkpt lat="39.495905" lon="3.015623">
        <ele>211.6</ele>
        <time>2016-04-18T13:29:39Z</time>
      </trkpt>
      <trkpt lat="39.495938" lon="3.015634">
        <ele>212</ele>
        <time>2016-04-18T13:29:40Z</time>
      </trkpt>
      <trkpt lat="39.49597" lon="3.015645">
        <ele>212.6</ele>
        <time>2016-04-18T13:29:41Z</time>
      </trkpt>
      <trkpt lat="39.496001" lon="3.015652">
        <ele>213</ele>
        <time>2016-04-18T13:29:42Z</time>
      </trkpt>
      <trkpt lat="39.496033" lon="3.015664">
        <ele>213.4</ele>
        <time>2016-04-18T13:29:43Z</time>
      </trkpt>
      <trkpt lat="39.496092" lon="3.015697">
        <ele>213.4</ele>
        <time>2016-04-18T13:29:45Z</time>
      </trkpt>
      <trkpt lat="39.496207" lon="3.015761">
        <ele>213.8</ele>
        <time>2016-04-18T13:29:49Z</time>
      </trkpt>
      <trkpt lat="39.496232" lon="3.015787">
        <ele>214.2</ele>
        <time>2016-04-18T13:29:50Z</time>
      </trkpt>
      <trkpt lat="39.496258" lon="3.015805">
        <ele>214.8</ele>
        <time>2016-04-18T13:29:51Z</time>
      </trkpt>
      <trkpt lat="39.496289" lon="3.015824">
        <ele>215.2</ele>
        <time>2016-04-18T13:29:52Z</time>
      </trkpt>
      <trkpt lat="39.496317" lon="3.015849">
        <ele>215.6</ele>
        <time>2016-04-18T13:29:53Z</time>
      </trkpt>
      <trkpt lat="39.496425" lon="3.015926">
        <ele>215.6</ele>
        <time>2016-04-18T13:29:57Z</time>
      </trkpt>
      <trkpt lat="39.496572" lon="3.016042">
        <ele>216</ele>
        <time>2016-04-18T13:30:02Z</time>
      </trkpt>
      <trkpt lat="39.496599" lon="3.016071">
        <ele>216.4</ele>
        <time>2016-04-18T13:30:03Z</time>
      </trkpt>
      <trkpt lat="39.496625" lon="3.016101">
        <ele>216.8</ele>
        <time>2016-04-18T13:30:04Z</time>
      </trkpt>
      <trkpt lat="39.496647" lon="3.016137">
        <ele>217.2</ele>
        <time>2016-04-18T13:30:05Z</time>
      </trkpt>
      <trkpt lat="39.496671" lon="3.01617">
        <ele>217.6</ele>
        <time>2016-04-18T13:30:06Z</time>
      </trkpt>
      <trkpt lat="39.496718" lon="3.016285">
        <ele>217.6</ele>
        <time>2016-04-18T13:30:09Z</time>
      </trkpt>
      <trkpt lat="39.496723" lon="3.016501">
        <ele>217.6</ele>
        <time>2016-04-18T13:30:14Z</time>
      </trkpt>
      <trkpt lat="39.496697" lon="3.01663">
        <ele>218</ele>
        <time>2016-04-18T13:30:17Z</time>
      </trkpt>
      <trkpt lat="39.496679" lon="3.016669">
        <ele>218.4</ele>
        <time>2016-04-18T13:30:18Z</time>
      </trkpt>
      <trkpt lat="39.496665" lon="3.01671">
        <ele>219</ele>
        <time>2016-04-18T13:30:19Z</time>
      </trkpt>
      <trkpt lat="39.496646" lon="3.016751">
        <ele>219.4</ele>
        <time>2016-04-18T13:30:20Z</time>
      </trkpt>
      <trkpt lat="39.496627" lon="3.01679">
        <ele>219.8</ele>
        <time>2016-04-18T13:30:21Z</time>
      </trkpt>
      <trkpt lat="39.496518" lon="3.016932">
        <ele>219.8</ele>
        <time>2016-04-18T13:30:25Z</time>
      </trkpt>
      <trkpt lat="39.496379" lon="3.017041">
        <ele>219.8</ele>
        <time>2016-04-18T13:30:29Z</time>
      </trkpt>
      <trkpt lat="39.496339" lon="3.01706">
        <ele>220.2</ele>
        <time>2016-04-18T13:30:30Z</time>
      </trkpt>
      <trkpt lat="39.4963" lon="3.017067">
        <ele>220.6</ele>
        <time>2016-04-18T13:30:31Z</time>
      </trkpt>
      <trkpt lat="39.496265" lon="3.017061">
        <ele>221</ele>
        <time>2016-04-18T13:30:32Z</time>
      </trkpt>
      <trkpt lat="39.496236" lon="3.017046">
        <ele>221.4</ele>
        <time>2016-04-18T13:30:33Z</time>
      </trkpt>
      <trkpt lat="39.496209" lon="3.017027">
        <ele>221.8</ele>
        <time>2016-04-18T13:30:34Z</time>
      </trkpt>
      <trkpt lat="39.496152" lon="3.016968">
        <ele>221.8</ele>
        <time>2016-04-18T13:30:36Z</time>
      </trkpt>
      <trkpt lat="39.496105" lon="3.01689">
        <ele>221.8</ele>
        <time>2016-04-18T13:30:38Z</time>
      </trkpt>
      <trkpt lat="39.496024" lon="3.016738">
        <ele>221.8</ele>
        <time>2016-04-18T13:30:42Z</time>
      </trkpt>
      <trkpt lat="39.495978" lon="3.016677">
        <ele>221.8</ele>
        <time>2016-04-18T13:30:44Z</time>
      </trkpt>
      <trkpt lat="39.495909" lon="3.016602">
        <ele>221.8</ele>
        <time>2016-04-18T13:30:47Z</time>
      </trkpt>
      <trkpt lat="39.495823" lon="3.016449">
        <ele>224</ele>
        <time>2016-04-18T13:36:30Z</time>
      </trkpt>
      <trkpt lat="39.495816" lon="3.016434">
        <ele>224</ele>
        <time>2016-04-18T13:36:31Z</time>
      </trkpt>
      <trkpt lat="39.4958" lon="3.016401">
        <ele>224</ele>
        <time>2016-04-18T13:36:33Z</time>
      </trkpt>
      <trkpt lat="39.495754" lon="3.016337">
        <ele>224</ele>
        <time>2016-04-18T13:36:36Z</time>
      </trkpt>
      <trkpt lat="39.495737" lon="3.016301">
        <ele>224</ele>
        <time>2016-04-18T13:36:37Z</time>
      </trkpt>
      <trkpt lat="39.495717" lon="3.016249">
        <ele>224</ele>
        <time>2016-04-18T13:36:38Z</time>
      </trkpt>
      <trkpt lat="39.495688" lon="3.016188">
        <ele>224</ele>
        <time>2016-04-18T13:36:39Z</time>
      </trkpt>
      <trkpt lat="39.495576" lon="3.015954">
        <ele>223.2</ele>
        <time>2016-04-18T13:36:42Z</time>
      </trkpt>
      <trkpt lat="39.495533" lon="3.015863">
        <ele>221.6</ele>
        <time>2016-04-18T13:36:43Z</time>
      </trkpt>
      <trkpt lat="39.49549" lon="3.015771">
        <ele>220.6</ele>
        <time>2016-04-18T13:36:44Z</time>
      </trkpt>
      <trkpt lat="39.495449" lon="3.015673">
        <ele>219.4</ele>
        <time>2016-04-18T13:36:45Z</time>
      </trkpt>
      <trkpt lat="39.495412" lon="3.015578">
        <ele>218.4</ele>
        <time>2016-04-18T13:36:46Z</time>
      </trkpt>
      <trkpt lat="39.495368" lon="3.015492">
        <ele>217.2</ele>
        <time>2016-04-18T13:36:47Z</time>
      </trkpt>
      <trkpt lat="39.495329" lon="3.015398">
        <ele>216</ele>
        <time>2016-04-18T13:36:48Z</time>
      </trkpt>
      <trkpt lat="39.495303" lon="3.015293">
        <ele>214.8</ele>
        <time>2016-04-18T13:36:49Z</time>
      </trkpt>
      <trkpt lat="39.495289" lon="3.015179">
        <ele>213.6</ele>
        <time>2016-04-18T13:36:50Z</time>
      </trkpt>
      <trkpt lat="39.495281" lon="3.015056">
        <ele>212.6</ele>
        <time>2016-04-18T13:36:51Z</time>
      </trkpt>
      <trkpt lat="39.495271" lon="3.014929">
        <ele>211.4</ele>
        <time>2016-04-18T13:36:52Z</time>
      </trkpt>
      <trkpt lat="39.495259" lon="3.014806">
        <ele>210.4</ele>
        <time>2016-04-18T13:36:53Z</time>
      </trkpt>
      <trkpt lat="39.495244" lon="3.014676">
        <ele>209.4</ele>
        <time>2016-04-18T13:36:54Z</time>
      </trkpt>
      <trkpt lat="39.495229" lon="3.014543">
        <ele>208.6</ele>
        <time>2016-04-18T13:36:55Z</time>
      </trkpt>
      <trkpt lat="39.495206" lon="3.014407">
        <ele>207.6</ele>
        <time>2016-04-18T13:36:56Z</time>
      </trkpt>
      <trkpt lat="39.495178" lon="3.014276">
        <ele>206.8</ele>
        <time>2016-04-18T13:36:57Z</time>
      </trkpt>
      <trkpt lat="39.495153" lon="3.014154">
        <ele>206</ele>
        <time>2016-04-18T13:36:58Z</time>
      </trkpt>
      <trkpt lat="39.495128" lon="3.014039">
        <ele>205.2</ele>
        <time>2016-04-18T13:36:59Z</time>
      </trkpt>
      <trkpt lat="39.495103" lon="3.013937">
        <ele>204.4</ele>
        <time>2016-04-18T13:37:00Z</time>
      </trkpt>
      <trkpt lat="39.495076" lon="3.013843">
        <ele>203.6</ele>
        <time>2016-04-18T13:37:01Z</time>
      </trkpt>
      <trkpt lat="39.495052" lon="3.013757">
        <ele>202.6</ele>
        <time>2016-04-18T13:37:02Z</time>
      </trkpt>
      <trkpt lat="39.495035" lon="3.013681">
        <ele>202.2</ele>
        <time>2016-04-18T13:37:03Z</time>
      </trkpt>
      <trkpt lat="39.495016" lon="3.013601">
        <ele>201.8</ele>
        <time>2016-04-18T13:37:04Z</time>
      </trkpt>
      <trkpt lat="39.494999" lon="3.01353">
        <ele>201.4</ele>
        <time>2016-04-18T13:37:05Z</time>
      </trkpt>
      <trkpt lat="39.495005" lon="3.013452">
        <ele>201</ele>
        <time>2016-04-18T13:37:06Z</time>
      </trkpt>
      <trkpt lat="39.495025" lon="3.01341">
        <ele>200.6</ele>
        <time>2016-04-18T13:37:07Z</time>
      </trkpt>
      <trkpt lat="39.495074" lon="3.013501">
        <ele>200.6</ele>
        <time>2016-04-18T13:37:09Z</time>
      </trkpt>
      <trkpt lat="39.4951" lon="3.013656">
        <ele>200.6</ele>
        <time>2016-04-18T13:37:11Z</time>
      </trkpt>
      <trkpt lat="39.495122" lon="3.013739">
        <ele>200.6</ele>
        <time>2016-04-18T13:37:12Z</time>
      </trkpt>
      <trkpt lat="39.49515" lon="3.013822">
        <ele>200</ele>
        <time>2016-04-18T13:37:13Z</time>
      </trkpt>
      <trkpt lat="39.495184" lon="3.013913">
        <ele>199.6</ele>
        <time>2016-04-18T13:37:14Z</time>
      </trkpt>
      <trkpt lat="39.495233" lon="3.013992">
        <ele>199</ele>
        <time>2016-04-18T13:37:15Z</time>
      </trkpt>
      <trkpt lat="39.495289" lon="3.014069">
        <ele>198.4</ele>
        <time>2016-04-18T13:37:16Z</time>
      </trkpt>
      <trkpt lat="39.495348" lon="3.014145">
        <ele>197.8</ele>
        <time>2016-04-18T13:37:17Z</time>
      </trkpt>
      <trkpt lat="39.495407" lon="3.01422">
        <ele>197.2</ele>
        <time>2016-04-18T13:37:18Z</time>
      </trkpt>
      <trkpt lat="39.495474" lon="3.014304">
        <ele>196.4</ele>
        <time>2016-04-18T13:37:19Z</time>
      </trkpt>
      <trkpt lat="39.49554" lon="3.0144">
        <ele>195.8</ele>
        <time>2016-04-18T13:37:20Z</time>
      </trkpt>
      <trkpt lat="39.495596" lon="3.014512">
        <ele>195</ele>
        <time>2016-04-18T13:37:21Z</time>
      </trkpt>
      <trkpt lat="39.495642" lon="3.01461">
        <ele>194.2</ele>
        <time>2016-04-18T13:37:22Z</time>
      </trkpt>
      <trkpt lat="39.495681" lon="3.014689">
        <ele>193.6</ele>
        <time>2016-04-18T13:37:23Z</time>
      </trkpt>
      <trkpt lat="39.495741" lon="3.01474">
        <ele>193</ele>
        <time>2016-04-18T13:37:24Z</time>
      </trkpt>
      <trkpt lat="39.495814" lon="3.014753">
        <ele>192.2</ele>
        <time>2016-04-18T13:37:25Z</time>
      </trkpt>
      <trkpt lat="39.495897" lon="3.014735">
        <ele>191.6</ele>
        <time>2016-04-18T13:37:26Z</time>
      </trkpt>
      <trkpt lat="39.495969" lon="3.014682">
        <ele>191.2</ele>
        <time>2016-04-18T13:37:27Z</time>
      </trkpt>
      <trkpt lat="39.496036" lon="3.014614">
        <ele>190.6</ele>
        <time>2016-04-18T13:37:28Z</time>
      </trkpt>
      <trkpt lat="39.496113" lon="3.014537">
        <ele>190</ele>
        <time>2016-04-18T13:37:29Z</time>
      </trkpt>
      <trkpt lat="39.496187" lon="3.014466">
        <ele>189.2</ele>
        <time>2016-04-18T13:37:30Z</time>
      </trkpt>
      <trkpt lat="39.496266" lon="3.014401">
        <ele>188.4</ele>
        <time>2016-04-18T13:37:31Z</time>
      </trkpt>
      <trkpt lat="39.496358" lon="3.014375">
        <ele>186.8</ele>
        <time>2016-04-18T13:37:32Z</time>
      </trkpt>
      <trkpt lat="39.496448" lon="3.014365">
        <ele>186</ele>
        <time>2016-04-18T13:37:33Z</time>
      </trkpt>
      <trkpt lat="39.49654" lon="3.014381">
        <ele>185.2</ele>
        <time>2016-04-18T13:37:34Z</time>
      </trkpt>
      <trkpt lat="39.496632" lon="3.01442">
        <ele>184.4</ele>
        <time>2016-04-18T13:37:35Z</time>
      </trkpt>
      <trkpt lat="39.496709" lon="3.014488">
        <ele>183.6</ele>
        <time>2016-04-18T13:37:36Z</time>
      </trkpt>
      <trkpt lat="39.496775" lon="3.014566">
        <ele>183</ele>
        <time>2016-04-18T13:37:37Z</time>
      </trkpt>
      <trkpt lat="39.496844" lon="3.014643">
        <ele>182.2</ele>
        <time>2016-04-18T13:37:38Z</time>
      </trkpt>
      <trkpt lat="39.496934" lon="3.014706">
        <ele>181.4</ele>
        <time>2016-04-18T13:37:39Z</time>
      </trkpt>
      <trkpt lat="39.497037" lon="3.014746">
        <ele>180.8</ele>
        <time>2016-04-18T13:37:40Z</time>
      </trkpt>
      <trkpt lat="39.497143" lon="3.014778">
        <ele>180</ele>
        <time>2016-04-18T13:37:41Z</time>
      </trkpt>
      <trkpt lat="39.497249" lon="3.014809">
        <ele>179.2</ele>
        <time>2016-04-18T13:37:42Z</time>
      </trkpt>
      <trkpt lat="39.497351" lon="3.014851">
        <ele>178.4</ele>
        <time>2016-04-18T13:37:43Z</time>
      </trkpt>
      <trkpt lat="39.497452" lon="3.0149">
        <ele>177.6</ele>
        <time>2016-04-18T13:37:44Z</time>
      </trkpt>
      <trkpt lat="39.497543" lon="3.014958">
        <ele>176.8</ele>
        <time>2016-04-18T13:37:45Z</time>
      </trkpt>
      <trkpt lat="39.497618" lon="3.015026">
        <ele>176</ele>
        <time>2016-04-18T13:37:46Z</time>
      </trkpt>
      <trkpt lat="39.497689" lon="3.015108">
        <ele>175.2</ele>
        <time>2016-04-18T13:37:47Z</time>
      </trkpt>
      <trkpt lat="39.497751" lon="3.015189">
        <ele>174.4</ele>
        <time>2016-04-18T13:37:48Z</time>
      </trkpt>
      <trkpt lat="39.497805" lon="3.015258">
        <ele>173.6</ele>
        <time>2016-04-18T13:37:49Z</time>
      </trkpt>
      <trkpt lat="39.497848" lon="3.015325">
        <ele>172.8</ele>
        <time>2016-04-18T13:37:50Z</time>
      </trkpt>
      <trkpt lat="39.497881" lon="3.015384">
        <ele>172</ele>
        <time>2016-04-18T13:37:51Z</time>
      </trkpt>
      <trkpt lat="39.49792" lon="3.015432">
        <ele>171.4</ele>
        <time>2016-04-18T13:37:52Z</time>
      </trkpt>
      <trkpt lat="39.497973" lon="3.01545">
        <ele>171.4</ele>
        <time>2016-04-18T13:37:53Z</time>
      </trkpt>
      <trkpt lat="39.498021" lon="3.015343">
        <ele>171.4</ele>
        <time>2016-04-18T13:37:55Z</time>
      </trkpt>
      <trkpt lat="39.497985" lon="3.015205">
        <ele>170.4</ele>
        <time>2016-04-18T13:37:57Z</time>
      </trkpt>
      <trkpt lat="39.497962" lon="3.015126">
        <ele>170</ele>
        <time>2016-04-18T13:37:58Z</time>
      </trkpt>
      <trkpt lat="39.497945" lon="3.01504">
        <ele>169.4</ele>
        <time>2016-04-18T13:37:59Z</time>
      </trkpt>
      <trkpt lat="39.497918" lon="3.014953">
        <ele>168.8</ele>
        <time>2016-04-18T13:38:00Z</time>
      </trkpt>
      <trkpt lat="39.497885" lon="3.014871">
        <ele>168.2</ele>
        <time>2016-04-18T13:38:01Z</time>
      </trkpt>
      <trkpt lat="39.497843" lon="3.014774">
        <ele>167.4</ele>
        <time>2016-04-18T13:38:02Z</time>
      </trkpt>
      <trkpt lat="39.497809" lon="3.014665">
        <ele>166.8</ele>
        <time>2016-04-18T13:38:03Z</time>
      </trkpt>
      <trkpt lat="39.49777" lon="3.014553">
        <ele>166</ele>
        <time>2016-04-18T13:38:04Z</time>
      </trkpt>
      <trkpt lat="39.49772" lon="3.014448">
        <ele>165.2</ele>
        <time>2016-04-18T13:38:05Z</time>
      </trkpt>
      <trkpt lat="39.497665" lon="3.014342">
        <ele>164.4</ele>
        <time>2016-04-18T13:38:06Z</time>
      </trkpt>
      <trkpt lat="39.497615" lon="3.014254">
        <ele>163.6</ele>
        <time>2016-04-18T13:38:07Z</time>
      </trkpt>
      <trkpt lat="39.49757" lon="3.014168">
        <ele>163</ele>
        <time>2016-04-18T13:38:08Z</time>
      </trkpt>
      <trkpt lat="39.497529" lon="3.014083">
        <ele>162.2</ele>
        <time>2016-04-18T13:38:09Z</time>
      </trkpt>
      <trkpt lat="39.497511" lon="3.013985">
        <ele>161.4</ele>
        <time>2016-04-18T13:38:10Z</time>
      </trkpt>
      <trkpt lat="39.497516" lon="3.013881">
        <ele>160.6</ele>
        <time>2016-04-18T13:38:11Z</time>
      </trkpt>
      <trkpt lat="39.497543" lon="3.013795">
        <ele>160</ele>
        <time>2016-04-18T13:38:12Z</time>
      </trkpt>
      <trkpt lat="39.497603" lon="3.013721">
        <ele>159.6</ele>
        <time>2016-04-18T13:38:13Z</time>
      </trkpt>
      <trkpt lat="39.497675" lon="3.013693">
        <ele>159</ele>
        <time>2016-04-18T13:38:14Z</time>
      </trkpt>
      <trkpt lat="39.497744" lon="3.013695">
        <ele>158.4</ele>
        <time>2016-04-18T13:38:15Z</time>
      </trkpt>
      <trkpt lat="39.497825" lon="3.013739">
        <ele>157.8</ele>
        <time>2016-04-18T13:38:16Z</time>
      </trkpt>
      <trkpt lat="39.497897" lon="3.013786">
        <ele>157.2</ele>
        <time>2016-04-18T13:38:17Z</time>
      </trkpt>
      <trkpt lat="39.497982" lon="3.013834">
        <ele>156.6</ele>
        <time>2016-04-18T13:38:18Z</time>
      </trkpt>
      <trkpt lat="39.498074" lon="3.013884">
        <ele>155.8</ele>
        <time>2016-04-18T13:38:19Z</time>
      </trkpt>
      <trkpt lat="39.498169" lon="3.013937">
        <ele>155</ele>
        <time>2016-04-18T13:38:20Z</time>
      </trkpt>
      <trkpt lat="39.498272" lon="3.013996">
        <ele>154.2</ele>
        <time>2016-04-18T13:38:21Z</time>
      </trkpt>
      <trkpt lat="39.498372" lon="3.014055">
        <ele>152.2</ele>
        <time>2016-04-18T13:38:22Z</time>
      </trkpt>
      <trkpt lat="39.498478" lon="3.014116">
        <ele>150.8</ele>
        <time>2016-04-18T13:38:23Z</time>
      </trkpt>
      <trkpt lat="39.498591" lon="3.014187">
        <ele>149.6</ele>
        <time>2016-04-18T13:38:24Z</time>
      </trkpt>
      <trkpt lat="39.498702" lon="3.014257">
        <ele>148.2</ele>
        <time>2016-04-18T13:38:25Z</time>
      </trkpt>
      <trkpt lat="39.498818" lon="3.014327">
        <ele>147</ele>
        <time>2016-04-18T13:38:26Z</time>
      </trkpt>
      <trkpt lat="39.498935" lon="3.014395">
        <ele>145.6</ele>
        <time>2016-04-18T13:38:27Z</time>
      </trkpt>
      <trkpt lat="39.499054" lon="3.014461">
        <ele>144.4</ele>
        <time>2016-04-18T13:38:28Z</time>
      </trkpt>
      <trkpt lat="39.49918" lon="3.014532">
        <ele>142.8</ele>
        <time>2016-04-18T13:38:29Z</time>
      </trkpt>
      <trkpt lat="39.499297" lon="3.014599">
        <ele>141.4</ele>
        <time>2016-04-18T13:38:30Z</time>
      </trkpt>
      <trkpt lat="39.499424" lon="3.014667">
        <ele>139.8</ele>
        <time>2016-04-18T13:38:31Z</time>
      </trkpt>
      <trkpt lat="39.499553" lon="3.014738">
        <ele>138.4</ele>
        <time>2016-04-18T13:38:32Z</time>
      </trkpt>
      <trkpt lat="39.499681" lon="3.014809">
        <ele>137</ele>
        <time>2016-04-18T13:38:33Z</time>
      </trkpt>
      <trkpt lat="39.499811" lon="3.014881">
        <ele>135.8</ele>
        <time>2016-04-18T13:38:34Z</time>
      </trkpt>
      <trkpt lat="39.499937" lon="3.014956">
        <ele>134.2</ele>
        <time>2016-04-18T13:38:35Z</time>
      </trkpt>
      <trkpt lat="39.50007" lon="3.015032">
        <ele>132.8</ele>
        <time>2016-04-18T13:38:36Z</time>
      </trkpt>
      <trkpt lat="39.500198" lon="3.015104">
        <ele>131.4</ele>
        <time>2016-04-18T13:38:37Z</time>
      </trkpt>
      <trkpt lat="39.500323" lon="3.01518">
        <ele>130</ele>
        <time>2016-04-18T13:38:38Z</time>
      </trkpt>
      <trkpt lat="39.500447" lon="3.015247">
        <ele>128.6</ele>
        <time>2016-04-18T13:38:39Z</time>
      </trkpt>
      <trkpt lat="39.500565" lon="3.015316">
        <ele>127.2</ele>
        <time>2016-04-18T13:38:40Z</time>
      </trkpt>
      <trkpt lat="39.500681" lon="3.015383">
        <ele>125.6</ele>
        <time>2016-04-18T13:38:41Z</time>
      </trkpt>
      <trkpt lat="39.500798" lon="3.015451">
        <ele>124.2</ele>
        <time>2016-04-18T13:38:42Z</time>
      </trkpt>
      <trkpt lat="39.500916" lon="3.015513">
        <ele>122.8</ele>
        <time>2016-04-18T13:38:43Z</time>
      </trkpt>
      <trkpt lat="39.501151" lon="3.015648">
        <ele>122.2</ele>
        <time>2016-04-18T13:38:45Z</time>
      </trkpt>
      <trkpt lat="39.501264" lon="3.015714">
        <ele>121.2</ele>
        <time>2016-04-18T13:38:46Z</time>
      </trkpt>
      <trkpt lat="39.501377" lon="3.015777">
        <ele>120.6</ele>
        <time>2016-04-18T13:38:47Z</time>
      </trkpt>
      <trkpt lat="39.501482" lon="3.01584">
        <ele>120.2</ele>
        <time>2016-04-18T13:38:48Z</time>
      </trkpt>
      <trkpt lat="39.501588" lon="3.015901">
        <ele>119.6</ele>
        <time>2016-04-18T13:38:49Z</time>
      </trkpt>
      <trkpt lat="39.50169" lon="3.015959">
        <ele>119</ele>
        <time>2016-04-18T13:38:50Z</time>
      </trkpt>
      <trkpt lat="39.501788" lon="3.016018">
        <ele>118.4</ele>
        <time>2016-04-18T13:38:51Z</time>
      </trkpt>
      <trkpt lat="39.501892" lon="3.016074">
        <ele>117.8</ele>
        <time>2016-04-18T13:38:52Z</time>
      </trkpt>
      <trkpt lat="39.502176" lon="3.016232">
        <ele>117.8</ele>
        <time>2016-04-18T13:38:55Z</time>
      </trkpt>
      <trkpt lat="39.502448" lon="3.016395">
        <ele>117.8</ele>
        <time>2016-04-18T13:38:58Z</time>
      </trkpt>
      <trkpt lat="39.502694" lon="3.016538">
        <ele>117.8</ele>
        <time>2016-04-18T13:39:01Z</time>
      </trkpt>
      <trkpt lat="39.502766" lon="3.016576">
        <ele>117.8</ele>
        <time>2016-04-18T13:39:02Z</time>
      </trkpt>
      <trkpt lat="39.502838" lon="3.016619">
        <ele>117.8</ele>
        <time>2016-04-18T13:39:03Z</time>
      </trkpt>
      <trkpt lat="39.502984" lon="3.016679">
        <ele>117.8</ele>
        <time>2016-04-18T13:39:05Z</time>
      </trkpt>
      <trkpt lat="39.503061" lon="3.016682">
        <ele>117.8</ele>
        <time>2016-04-18T13:39:06Z</time>
      </trkpt>
      <trkpt lat="39.503219" lon="3.016664">
        <ele>117.8</ele>
        <time>2016-04-18T13:39:08Z</time>
      </trkpt>
      <trkpt lat="39.503293" lon="3.016663">
        <ele>117.8</ele>
        <time>2016-04-18T13:39:09Z</time>
      </trkpt>
      <trkpt lat="39.503365" lon="3.016664">
        <ele>117.8</ele>
        <time>2016-04-18T13:39:10Z</time>
      </trkpt>
      <trkpt lat="39.503437" lon="3.016669">
        <ele>117.8</ele>
        <time>2016-04-18T13:39:11Z</time>
      </trkpt>
      <trkpt lat="39.503584" lon="3.01667">
        <ele>117.8</ele>
        <time>2016-04-18T13:39:13Z</time>
      </trkpt>
      <trkpt lat="39.503736" lon="3.016666">
        <ele>117.8</ele>
        <time>2016-04-18T13:39:15Z</time>
      </trkpt>
      <trkpt lat="39.503883" lon="3.016664">
        <ele>117.8</ele>
        <time>2016-04-18T13:39:17Z</time>
      </trkpt>
      <trkpt lat="39.504025" lon="3.016671">
        <ele>117.8</ele>
        <time>2016-04-18T13:39:19Z</time>
      </trkpt>
      <trkpt lat="39.504158" lon="3.016665">
        <ele>117.8</ele>
        <time>2016-04-18T13:39:21Z</time>
      </trkpt>
      <trkpt lat="39.504292" lon="3.016675">
        <ele>117.8</ele>
        <time>2016-04-18T13:39:23Z</time>
      </trkpt>
      <trkpt lat="39.504428" lon="3.016684">
        <ele>118.2</ele>
        <time>2016-04-18T13:39:25Z</time>
      </trkpt>
      <trkpt lat="39.504498" lon="3.016686">
        <ele>118.8</ele>
        <time>2016-04-18T13:39:26Z</time>
      </trkpt>
      <trkpt lat="39.504565" lon="3.016682">
        <ele>119.2</ele>
        <time>2016-04-18T13:39:27Z</time>
      </trkpt>
      <trkpt lat="39.504631" lon="3.016681">
        <ele>119.6</ele>
        <time>2016-04-18T13:39:28Z</time>
      </trkpt>
      <trkpt lat="39.504701" lon="3.016683">
        <ele>120</ele>
        <time>2016-04-18T13:39:29Z</time>
      </trkpt>
      <trkpt lat="39.504767" lon="3.016684">
        <ele>120</ele>
        <time>2016-04-18T13:39:30Z</time>
      </trkpt>
      <trkpt lat="39.504975" lon="3.016687">
        <ele>120</ele>
        <time>2016-04-18T13:39:33Z</time>
      </trkpt>
      <trkpt lat="39.505182" lon="3.016692">
        <ele>120</ele>
        <time>2016-04-18T13:39:36Z</time>
      </trkpt>
      <trkpt lat="39.505254" lon="3.016691">
        <ele>120</ele>
        <time>2016-04-18T13:39:37Z</time>
      </trkpt>
      <trkpt lat="39.505857" lon="3.01668">
        <ele>120</ele>
        <time>2016-04-18T13:39:46Z</time>
      </trkpt>
      <trkpt lat="39.506206" lon="3.016655">
        <ele>120</ele>
        <time>2016-04-18T13:39:51Z</time>
      </trkpt>
      <trkpt lat="39.506483" lon="3.016627">
        <ele>120</ele>
        <time>2016-04-18T13:39:55Z</time>
      </trkpt>
      <trkpt lat="39.506808" lon="3.016581">
        <ele>120</ele>
        <time>2016-04-18T13:40:00Z</time>
      </trkpt>
      <trkpt lat="39.506941" lon="3.016554">
        <ele>120</ele>
        <time>2016-04-18T13:40:02Z</time>
      </trkpt>
      <trkpt lat="39.507068" lon="3.016525">
        <ele>120</ele>
        <time>2016-04-18T13:40:04Z</time>
      </trkpt>
      <trkpt lat="39.50737" lon="3.016466">
        <ele>120</ele>
        <time>2016-04-18T13:40:09Z</time>
      </trkpt>
      <trkpt lat="39.5076" lon="3.01641">
        <ele>120</ele>
        <time>2016-04-18T13:40:13Z</time>
      </trkpt>
      <trkpt lat="39.507656" lon="3.016402">
        <ele>120</ele>
        <time>2016-04-18T13:40:14Z</time>
      </trkpt>
      <trkpt lat="39.507773" lon="3.016383">
        <ele>120</ele>
        <time>2016-04-18T13:40:16Z</time>
      </trkpt>
      <trkpt lat="39.507833" lon="3.016375">
        <ele>120</ele>
        <time>2016-04-18T13:40:17Z</time>
      </trkpt>
      <trkpt lat="39.508018" lon="3.01634">
        <ele>120</ele>
        <time>2016-04-18T13:40:20Z</time>
      </trkpt>
      <trkpt lat="39.508217" lon="3.016302">
        <ele>120</ele>
        <time>2016-04-18T13:40:23Z</time>
      </trkpt>
      <trkpt lat="39.50857" lon="3.01623">
        <ele>120</ele>
        <time>2016-04-18T13:40:28Z</time>
      </trkpt>
      <trkpt lat="39.508783" lon="3.016192">
        <ele>120</ele>
        <time>2016-04-18T13:40:31Z</time>
      </trkpt>
      <trkpt lat="39.509143" lon="3.01613">
        <ele>120</ele>
        <time>2016-04-18T13:40:36Z</time>
      </trkpt>
      <trkpt lat="39.5095" lon="3.01608">
        <ele>120</ele>
        <time>2016-04-18T13:40:41Z</time>
      </trkpt>
      <trkpt lat="39.509781" lon="3.016049">
        <ele>120</ele>
        <time>2016-04-18T13:40:45Z</time>
      </trkpt>
      <trkpt lat="39.510132" lon="3.016009">
        <ele>120</ele>
        <time>2016-04-18T13:40:50Z</time>
      </trkpt>
      <trkpt lat="39.510686" lon="3.015962">
        <ele>120</ele>
        <time>2016-04-18T13:40:58Z</time>
      </trkpt>
      <trkpt lat="39.510755" lon="3.015955">
        <ele>120</ele>
        <time>2016-04-18T13:40:59Z</time>
      </trkpt>
      <trkpt lat="39.511255" lon="3.01592">
        <ele>120</ele>
        <time>2016-04-18T13:41:06Z</time>
      </trkpt>
      <trkpt lat="39.511804" lon="3.015876">
        <ele>120</ele>
        <time>2016-04-18T13:41:14Z</time>
      </trkpt>
      <trkpt lat="39.511871" lon="3.015892">
        <ele>120</ele>
        <time>2016-04-18T13:41:15Z</time>
      </trkpt>
      <trkpt lat="39.512076" lon="3.015976">
        <ele>120</ele>
        <time>2016-04-18T13:41:18Z</time>
      </trkpt>
      <trkpt lat="39.512145" lon="3.015973">
        <ele>120</ele>
        <time>2016-04-18T13:41:19Z</time>
      </trkpt>
      <trkpt lat="39.512201" lon="3.015922">
        <ele>120</ele>
        <time>2016-04-18T13:41:20Z</time>
      </trkpt>
      <trkpt lat="39.512216" lon="3.015761">
        <ele>120</ele>
        <time>2016-04-18T13:41:22Z</time>
      </trkpt>
      <trkpt lat="39.512111" lon="3.015653">
        <ele>120</ele>
        <time>2016-04-18T13:41:24Z</time>
      </trkpt>
      <trkpt lat="39.511885" lon="3.015429">
        <ele>120</ele>
        <time>2016-04-18T13:41:28Z</time>
      </trkpt>
      <trkpt lat="39.51184" lon="3.015357">
        <ele>120</ele>
        <time>2016-04-18T13:41:29Z</time>
      </trkpt>
      <trkpt lat="39.511609" lon="3.014873">
        <ele>120</ele>
        <time>2016-04-18T13:41:35Z</time>
      </trkpt>
      <trkpt lat="39.511612" lon="3.014584">
        <ele>120.4</ele>
        <time>2016-04-18T13:41:38Z</time>
      </trkpt>
      <trkpt lat="39.511639" lon="3.014493">
        <ele>120.8</ele>
        <time>2016-04-18T13:41:39Z</time>
      </trkpt>
      <trkpt lat="39.511674" lon="3.014409">
        <ele>121.8</ele>
        <time>2016-04-18T13:41:40Z</time>
      </trkpt>
      <trkpt lat="39.511711" lon="3.014322">
        <ele>122.2</ele>
        <time>2016-04-18T13:41:41Z</time>
      </trkpt>
      <trkpt lat="39.511909" lon="3.013839">
        <ele>122.2</ele>
        <time>2016-04-18T13:41:47Z</time>
      </trkpt>
      <trkpt lat="39.511968" lon="3.013678">
        <ele>122.2</ele>
        <time>2016-04-18T13:41:49Z</time>
      </trkpt>
      <trkpt lat="39.51207" lon="3.013346">
        <ele>122.6</ele>
        <time>2016-04-18T13:41:53Z</time>
      </trkpt>
      <trkpt lat="39.512095" lon="3.01326">
        <ele>123</ele>
        <time>2016-04-18T13:41:54Z</time>
      </trkpt>
      <trkpt lat="39.51212" lon="3.013174">
        <ele>123.4</ele>
        <time>2016-04-18T13:41:55Z</time>
      </trkpt>
      <trkpt lat="39.512146" lon="3.013088">
        <ele>124</ele>
        <time>2016-04-18T13:41:56Z</time>
      </trkpt>
      <trkpt lat="39.512175" lon="3.012999">
        <ele>124.4</ele>
        <time>2016-04-18T13:41:57Z</time>
      </trkpt>
      <trkpt lat="39.512198" lon="3.012916">
        <ele>124.4</ele>
        <time>2016-04-18T13:41:58Z</time>
      </trkpt>
      <trkpt lat="39.512378" lon="3.012291">
        <ele>124.4</ele>
        <time>2016-04-18T13:42:05Z</time>
      </trkpt>
      <trkpt lat="39.512578" lon="3.011547">
        <ele>124.4</ele>
        <time>2016-04-18T13:42:13Z</time>
      </trkpt>
      <trkpt lat="39.512606" lon="3.011453">
        <ele>124.4</ele>
        <time>2016-04-18T13:42:14Z</time>
      </trkpt>
      <trkpt lat="39.512789" lon="3.010797">
        <ele>124.4</ele>
        <time>2016-04-18T13:42:21Z</time>
      </trkpt>
      <trkpt lat="39.512818" lon="3.010709">
        <ele>124.8</ele>
        <time>2016-04-18T13:42:22Z</time>
      </trkpt>
      <trkpt lat="39.51285" lon="3.010622">
        <ele>125.2</ele>
        <time>2016-04-18T13:42:23Z</time>
      </trkpt>
      <trkpt lat="39.512882" lon="3.010537">
        <ele>125.6</ele>
        <time>2016-04-18T13:42:24Z</time>
      </trkpt>
      <trkpt lat="39.512914" lon="3.01045">
        <ele>126</ele>
        <time>2016-04-18T13:42:25Z</time>
      </trkpt>
      <trkpt lat="39.512944" lon="3.010362">
        <ele>126.6</ele>
        <time>2016-04-18T13:42:26Z</time>
      </trkpt>
      <trkpt lat="39.513067" lon="3.010015">
        <ele>126.6</ele>
        <time>2016-04-18T13:42:30Z</time>
      </trkpt>
      <trkpt lat="39.513097" lon="3.009931">
        <ele>127</ele>
        <time>2016-04-18T13:42:31Z</time>
      </trkpt>
      <trkpt lat="39.513127" lon="3.009851">
        <ele>127.4</ele>
        <time>2016-04-18T13:42:32Z</time>
      </trkpt>
      <trkpt lat="39.513153" lon="3.009768">
        <ele>127.8</ele>
        <time>2016-04-18T13:42:33Z</time>
      </trkpt>
      <trkpt lat="39.513177" lon="3.009676">
        <ele>128.2</ele>
        <time>2016-04-18T13:42:34Z</time>
      </trkpt>
      <trkpt lat="39.513195" lon="3.009583">
        <ele>128.6</ele>
        <time>2016-04-18T13:42:35Z</time>
      </trkpt>
      <trkpt lat="39.513202" lon="3.009486">
        <ele>128.6</ele>
        <time>2016-04-18T13:42:36Z</time>
      </trkpt>
      <trkpt lat="39.513204" lon="3.00939">
        <ele>128.6</ele>
        <time>2016-04-18T13:42:37Z</time>
      </trkpt>
      <trkpt lat="39.513162" lon="3.0091">
        <ele>128.6</ele>
        <time>2016-04-18T13:42:40Z</time>
      </trkpt>
      <trkpt lat="39.513148" lon="3.009002">
        <ele>128.6</ele>
        <time>2016-04-18T13:42:41Z</time>
      </trkpt>
      <trkpt lat="39.51313" lon="3.008713">
        <ele>128.6</ele>
        <time>2016-04-18T13:42:44Z</time>
      </trkpt>
      <trkpt lat="39.513141" lon="3.008428">
        <ele>128.6</ele>
        <time>2016-04-18T13:42:47Z</time>
      </trkpt>
      <trkpt lat="39.513147" lon="3.008037">
        <ele>129.2</ele>
        <time>2016-04-18T13:42:51Z</time>
      </trkpt>
      <trkpt lat="39.513151" lon="3.007934">
        <ele>129.6</ele>
        <time>2016-04-18T13:42:52Z</time>
      </trkpt>
      <trkpt lat="39.513156" lon="3.007837">
        <ele>130</ele>
        <time>2016-04-18T13:42:53Z</time>
      </trkpt>
      <trkpt lat="39.513159" lon="3.007742">
        <ele>131</ele>
        <time>2016-04-18T13:42:54Z</time>
      </trkpt>
      <trkpt lat="39.513162" lon="3.007645">
        <ele>131</ele>
        <time>2016-04-18T13:42:55Z</time>
      </trkpt>
      <trkpt lat="39.513176" lon="3.006867">
        <ele>131</ele>
        <time>2016-04-18T13:43:03Z</time>
      </trkpt>
      <trkpt lat="39.513174" lon="3.006771">
        <ele>131</ele>
        <time>2016-04-18T13:43:04Z</time>
      </trkpt>
      <trkpt lat="39.51314" lon="3.006482">
        <ele>131</ele>
        <time>2016-04-18T13:43:07Z</time>
      </trkpt>
      <trkpt lat="39.51312" lon="3.006391">
        <ele>131.4</ele>
        <time>2016-04-18T13:43:08Z</time>
      </trkpt>
      <trkpt lat="39.513101" lon="3.006299">
        <ele>131.8</ele>
        <time>2016-04-18T13:43:09Z</time>
      </trkpt>
      <trkpt lat="39.513076" lon="3.006208">
        <ele>132.4</ele>
        <time>2016-04-18T13:43:10Z</time>
      </trkpt>
      <trkpt lat="39.513048" lon="3.006117">
        <ele>132.8</ele>
        <time>2016-04-18T13:43:11Z</time>
      </trkpt>
      <trkpt lat="39.513019" lon="3.006023">
        <ele>133.2</ele>
        <time>2016-04-18T13:43:12Z</time>
      </trkpt>
      <trkpt lat="39.512935" lon="3.005743">
        <ele>133.2</ele>
        <time>2016-04-18T13:43:15Z</time>
      </trkpt>
      <trkpt lat="39.512705" lon="3.005014">
        <ele>133.2</ele>
        <time>2016-04-18T13:43:23Z</time>
      </trkpt>
      <trkpt lat="39.512652" lon="3.004842">
        <ele>133.6</ele>
        <time>2016-04-18T13:43:25Z</time>
      </trkpt>
      <trkpt lat="39.512624" lon="3.004759">
        <ele>134</ele>
        <time>2016-04-18T13:43:26Z</time>
      </trkpt>
      <trkpt lat="39.512599" lon="3.004676">
        <ele>134.4</ele>
        <time>2016-04-18T13:43:27Z</time>
      </trkpt>
      <trkpt lat="39.512574" lon="3.004594">
        <ele>134.8</ele>
        <time>2016-04-18T13:43:28Z</time>
      </trkpt>
      <trkpt lat="39.512549" lon="3.004507">
        <ele>135.2</ele>
        <time>2016-04-18T13:43:29Z</time>
      </trkpt>
      <trkpt lat="39.51247" lon="3.004251">
        <ele>135.2</ele>
        <time>2016-04-18T13:43:32Z</time>
      </trkpt>
      <trkpt lat="39.512345" lon="3.003839">
        <ele>135.6</ele>
        <time>2016-04-18T13:43:37Z</time>
      </trkpt>
      <trkpt lat="39.51232" lon="3.003751">
        <ele>136</ele>
        <time>2016-04-18T13:43:38Z</time>
      </trkpt>
      <trkpt lat="39.512297" lon="3.003667">
        <ele>136.4</ele>
        <time>2016-04-18T13:43:39Z</time>
      </trkpt>
      <trkpt lat="39.51227" lon="3.003583">
        <ele>136.8</ele>
        <time>2016-04-18T13:43:40Z</time>
      </trkpt>
      <trkpt lat="39.512245" lon="3.003501">
        <ele>137.2</ele>
        <time>2016-04-18T13:43:41Z</time>
      </trkpt>
      <trkpt lat="39.512217" lon="3.003419">
        <ele>137.2</ele>
        <time>2016-04-18T13:43:42Z</time>
      </trkpt>
      <trkpt lat="39.512006" lon="3.002732">
        <ele>137.2</ele>
        <time>2016-04-18T13:43:50Z</time>
      </trkpt>
      <trkpt lat="39.511979" lon="3.002648">
        <ele>137.2</ele>
        <time>2016-04-18T13:43:51Z</time>
      </trkpt>
      <trkpt lat="39.511953" lon="3.002561">
        <ele>137.8</ele>
        <time>2016-04-18T13:43:52Z</time>
      </trkpt>
      <trkpt lat="39.511925" lon="3.002475">
        <ele>138.2</ele>
        <time>2016-04-18T13:43:53Z</time>
      </trkpt>
      <trkpt lat="39.511897" lon="3.002385">
        <ele>138.6</ele>
        <time>2016-04-18T13:43:54Z</time>
      </trkpt>
      <trkpt lat="39.511871" lon="3.002298">
        <ele>139</ele>
        <time>2016-04-18T13:43:55Z</time>
      </trkpt>
      <trkpt lat="39.511845" lon="3.002212">
        <ele>139.4</ele>
        <time>2016-04-18T13:43:56Z</time>
      </trkpt>
      <trkpt lat="39.511771" lon="3.001963">
        <ele>139.4</ele>
        <time>2016-04-18T13:43:59Z</time>
      </trkpt>
      <trkpt lat="39.511627" lon="3.001486">
        <ele>139.8</ele>
        <time>2016-04-18T13:44:05Z</time>
      </trkpt>
      <trkpt lat="39.51161" lon="3.001409">
        <ele>140.2</ele>
        <time>2016-04-18T13:44:06Z</time>
      </trkpt>
      <trkpt lat="39.511594" lon="3.001334">
        <ele>140.6</ele>
        <time>2016-04-18T13:44:07Z</time>
      </trkpt>
      <trkpt lat="39.511582" lon="3.00126">
        <ele>141.6</ele>
        <time>2016-04-18T13:44:08Z</time>
      </trkpt>
      <trkpt lat="39.51154" lon="3.001034">
        <ele>142</ele>
        <time>2016-04-18T13:44:11Z</time>
      </trkpt>
      <trkpt lat="39.511526" lon="3.000961">
        <ele>142.4</ele>
        <time>2016-04-18T13:44:12Z</time>
      </trkpt>
      <trkpt lat="39.511514" lon="3.000887">
        <ele>142.8</ele>
        <time>2016-04-18T13:44:13Z</time>
      </trkpt>
      <trkpt lat="39.511503" lon="3.000812">
        <ele>143.2</ele>
        <time>2016-04-18T13:44:14Z</time>
      </trkpt>
      <trkpt lat="39.511492" lon="3.000735">
        <ele>143.6</ele>
        <time>2016-04-18T13:44:15Z</time>
      </trkpt>
      <trkpt lat="39.511483" lon="3.000427">
        <ele>144</ele>
        <time>2016-04-18T13:44:19Z</time>
      </trkpt>
      <trkpt lat="39.511488" lon="3.000354">
        <ele>144.4</ele>
        <time>2016-04-18T13:44:20Z</time>
      </trkpt>
      <trkpt lat="39.511492" lon="3.000282">
        <ele>144.8</ele>
        <time>2016-04-18T13:44:21Z</time>
      </trkpt>
      <trkpt lat="39.511495" lon="3.00021">
        <ele>145.2</ele>
        <time>2016-04-18T13:44:22Z</time>
      </trkpt>
      <trkpt lat="39.511504" lon="3.000135">
        <ele>145.6</ele>
        <time>2016-04-18T13:44:23Z</time>
      </trkpt>
      <trkpt lat="39.511521" lon="2.999971">
        <ele>146.6</ele>
        <time>2016-04-18T13:44:26Z</time>
      </trkpt>
      <trkpt lat="39.511527" lon="2.999908">
        <ele>147</ele>
        <time>2016-04-18T13:44:27Z</time>
      </trkpt>
      <trkpt lat="39.511533" lon="2.999839">
        <ele>147.4</ele>
        <time>2016-04-18T13:44:28Z</time>
      </trkpt>
      <trkpt lat="39.51154" lon="2.999771">
        <ele>147.8</ele>
        <time>2016-04-18T13:44:29Z</time>
      </trkpt>
      <trkpt lat="39.511603" lon="2.999228">
        <ele>147.8</ele>
        <time>2016-04-18T13:44:37Z</time>
      </trkpt>
      <trkpt lat="39.511642" lon="2.998882">
        <ele>148.2</ele>
        <time>2016-04-18T13:44:42Z</time>
      </trkpt>
      <trkpt lat="39.511653" lon="2.99881">
        <ele>148.6</ele>
        <time>2016-04-18T13:44:43Z</time>
      </trkpt>
      <trkpt lat="39.511661" lon="2.998739">
        <ele>149</ele>
        <time>2016-04-18T13:44:44Z</time>
      </trkpt>
      <trkpt lat="39.511672" lon="2.998667">
        <ele>149.4</ele>
        <time>2016-04-18T13:44:45Z</time>
      </trkpt>
      <trkpt lat="39.511684" lon="2.998595">
        <ele>149.8</ele>
        <time>2016-04-18T13:44:46Z</time>
      </trkpt>
      <trkpt lat="39.51178" lon="2.998084">
        <ele>149.8</ele>
        <time>2016-04-18T13:44:53Z</time>
      </trkpt>
      <trkpt lat="39.5118" lon="2.998013">
        <ele>150.4</ele>
        <time>2016-04-18T13:44:54Z</time>
      </trkpt>
      <trkpt lat="39.511817" lon="2.997941">
        <ele>150.8</ele>
        <time>2016-04-18T13:44:55Z</time>
      </trkpt>
      <trkpt lat="39.511835" lon="2.997871">
        <ele>151.2</ele>
        <time>2016-04-18T13:44:56Z</time>
      </trkpt>
      <trkpt lat="39.511852" lon="2.997796">
        <ele>151.6</ele>
        <time>2016-04-18T13:44:57Z</time>
      </trkpt>
      <trkpt lat="39.511867" lon="2.997728">
        <ele>152.2</ele>
        <time>2016-04-18T13:44:58Z</time>
      </trkpt>
      <trkpt lat="39.511902" lon="2.997509">
        <ele>152.2</ele>
        <time>2016-04-18T13:45:01Z</time>
      </trkpt>
      <trkpt lat="39.511903" lon="2.997432">
        <ele>152.2</ele>
        <time>2016-04-18T13:45:02Z</time>
      </trkpt>
      <trkpt lat="39.511879" lon="2.997179">
        <ele>152.2</ele>
        <time>2016-04-18T13:45:05Z</time>
      </trkpt>
      <trkpt lat="39.511853" lon="2.997021">
        <ele>152.6</ele>
        <time>2016-04-18T13:45:07Z</time>
      </trkpt>
      <trkpt lat="39.51183" lon="2.99694">
        <ele>153</ele>
        <time>2016-04-18T13:45:08Z</time>
      </trkpt>
      <trkpt lat="39.511803" lon="2.996863">
        <ele>153.4</ele>
        <time>2016-04-18T13:45:09Z</time>
      </trkpt>
      <trkpt lat="39.51177" lon="2.996787">
        <ele>153.8</ele>
        <time>2016-04-18T13:45:10Z</time>
      </trkpt>
      <trkpt lat="39.511731" lon="2.996709">
        <ele>154.2</ele>
        <time>2016-04-18T13:45:11Z</time>
      </trkpt>
      <trkpt lat="39.511495" lon="2.996128">
        <ele>154.2</ele>
        <time>2016-04-18T13:45:18Z</time>
      </trkpt>
      <trkpt lat="39.511484" lon="2.996026">
        <ele>154.2</ele>
        <time>2016-04-18T13:45:19Z</time>
      </trkpt>
      <trkpt lat="39.511471" lon="2.99584">
        <ele>154.2</ele>
        <time>2016-04-18T13:45:21Z</time>
      </trkpt>
      <trkpt lat="39.511558" lon="2.99549">
        <ele>154.2</ele>
        <time>2016-04-18T13:45:25Z</time>
      </trkpt>
      <trkpt lat="39.51169" lon="2.995278">
        <ele>154.2</ele>
        <time>2016-04-18T13:45:28Z</time>
      </trkpt>
      <trkpt lat="39.511859" lon="2.995046">
        <ele>154.8</ele>
        <time>2016-04-18T13:45:32Z</time>
      </trkpt>
      <trkpt lat="39.511894" lon="2.994985">
        <ele>155.2</ele>
        <time>2016-04-18T13:45:33Z</time>
      </trkpt>
      <trkpt lat="39.511924" lon="2.994916">
        <ele>155.8</ele>
        <time>2016-04-18T13:45:34Z</time>
      </trkpt>
      <trkpt lat="39.511953" lon="2.994846">
        <ele>156.2</ele>
        <time>2016-04-18T13:45:35Z</time>
      </trkpt>
      <trkpt lat="39.511978" lon="2.994778">
        <ele>156.8</ele>
        <time>2016-04-18T13:45:36Z</time>
      </trkpt>
      <trkpt lat="39.512087" lon="2.994423">
        <ele>157.6</ele>
        <time>2016-04-18T13:45:41Z</time>
      </trkpt>
      <trkpt lat="39.512113" lon="2.994353">
        <ele>158</ele>
        <time>2016-04-18T13:45:42Z</time>
      </trkpt>
      <trkpt lat="39.512138" lon="2.994285">
        <ele>158.4</ele>
        <time>2016-04-18T13:45:43Z</time>
      </trkpt>
      <trkpt lat="39.512161" lon="2.994217">
        <ele>158.8</ele>
        <time>2016-04-18T13:45:44Z</time>
      </trkpt>
      <trkpt lat="39.512247" lon="2.993796">
        <ele>158.8</ele>
        <time>2016-04-18T13:45:50Z</time>
      </trkpt>
      <trkpt lat="39.512198" lon="2.993432">
        <ele>159.2</ele>
        <time>2016-04-18T13:45:55Z</time>
      </trkpt>
      <trkpt lat="39.512177" lon="2.993358">
        <ele>159.6</ele>
        <time>2016-04-18T13:45:56Z</time>
      </trkpt>
      <trkpt lat="39.512151" lon="2.993286">
        <ele>160</ele>
        <time>2016-04-18T13:45:57Z</time>
      </trkpt>
      <trkpt lat="39.512127" lon="2.993216">
        <ele>160.4</ele>
        <time>2016-04-18T13:45:58Z</time>
      </trkpt>
      <trkpt lat="39.512105" lon="2.993143">
        <ele>160.8</ele>
        <time>2016-04-18T13:45:59Z</time>
      </trkpt>
      <trkpt lat="39.512087" lon="2.993071">
        <ele>160.8</ele>
        <time>2016-04-18T13:46:00Z</time>
      </trkpt>
      <trkpt lat="39.51203" lon="2.992705">
        <ele>160.8</ele>
        <time>2016-04-18T13:46:05Z</time>
      </trkpt>
      <trkpt lat="39.512022" lon="2.992566">
        <ele>161.4</ele>
        <time>2016-04-18T13:46:07Z</time>
      </trkpt>
      <trkpt lat="39.512021" lon="2.992495">
        <ele>161.8</ele>
        <time>2016-04-18T13:46:08Z</time>
      </trkpt>
      <trkpt lat="39.51202" lon="2.992426">
        <ele>162.2</ele>
        <time>2016-04-18T13:46:09Z</time>
      </trkpt>
      <trkpt lat="39.512019" lon="2.992356">
        <ele>162.6</ele>
        <time>2016-04-18T13:46:10Z</time>
      </trkpt>
      <trkpt lat="39.512016" lon="2.992286">
        <ele>163</ele>
        <time>2016-04-18T13:46:11Z</time>
      </trkpt>
      <trkpt lat="39.51202" lon="2.992084">
        <ele>163.6</ele>
        <time>2016-04-18T13:46:14Z</time>
      </trkpt>
      <trkpt lat="39.512023" lon="2.992018">
        <ele>164</ele>
        <time>2016-04-18T13:46:15Z</time>
      </trkpt>
      <trkpt lat="39.512029" lon="2.991955">
        <ele>164.4</ele>
        <time>2016-04-18T13:46:16Z</time>
      </trkpt>
      <trkpt lat="39.512037" lon="2.991892">
        <ele>164.8</ele>
        <time>2016-04-18T13:46:17Z</time>
      </trkpt>
      <trkpt lat="39.512045" lon="2.99183">
        <ele>165.2</ele>
        <time>2016-04-18T13:46:18Z</time>
      </trkpt>
      <trkpt lat="39.512078" lon="2.99164">
        <ele>165.2</ele>
        <time>2016-04-18T13:46:21Z</time>
      </trkpt>
      <trkpt lat="39.512097" lon="2.991512">
        <ele>165.6</ele>
        <time>2016-04-18T13:46:23Z</time>
      </trkpt>
      <trkpt lat="39.512107" lon="2.991447">
        <ele>166</ele>
        <time>2016-04-18T13:46:24Z</time>
      </trkpt>
      <trkpt lat="39.512119" lon="2.991384">
        <ele>166.6</ele>
        <time>2016-04-18T13:46:25Z</time>
      </trkpt>
      <trkpt lat="39.512131" lon="2.991323">
        <ele>167</ele>
        <time>2016-04-18T13:46:26Z</time>
      </trkpt>
      <trkpt lat="39.51214" lon="2.99126">
        <ele>167.4</ele>
        <time>2016-04-18T13:46:27Z</time>
      </trkpt>
      <trkpt lat="39.512149" lon="2.991137">
        <ele>167.4</ele>
        <time>2016-04-18T13:46:29Z</time>
      </trkpt>
      <trkpt lat="39.512151" lon="2.991008">
        <ele>167.4</ele>
        <time>2016-04-18T13:46:31Z</time>
      </trkpt>
      <trkpt lat="39.51214" lon="2.990873">
        <ele>167.4</ele>
        <time>2016-04-18T13:46:33Z</time>
      </trkpt>
      <trkpt lat="39.512062" lon="2.9906">
        <ele>167.4</ele>
        <time>2016-04-18T13:46:37Z</time>
      </trkpt>
      <trkpt lat="39.511883" lon="2.990303">
        <ele>167.4</ele>
        <time>2016-04-18T13:46:42Z</time>
      </trkpt>
      <trkpt lat="39.511836" lon="2.990254">
        <ele>167.4</ele>
        <time>2016-04-18T13:46:43Z</time>
      </trkpt>
      <trkpt lat="39.511648" lon="2.990051">
        <ele>167.8</ele>
        <time>2016-04-18T13:46:47Z</time>
      </trkpt>
      <trkpt lat="39.511605" lon="2.98999">
        <ele>168.2</ele>
        <time>2016-04-18T13:46:48Z</time>
      </trkpt>
      <trkpt lat="39.511567" lon="2.989927">
        <ele>168.6</ele>
        <time>2016-04-18T13:46:49Z</time>
      </trkpt>
      <trkpt lat="39.511533" lon="2.989864">
        <ele>169</ele>
        <time>2016-04-18T13:46:50Z</time>
      </trkpt>
      <trkpt lat="39.511503" lon="2.989798">
        <ele>169.4</ele>
        <time>2016-04-18T13:46:51Z</time>
      </trkpt>
      <trkpt lat="39.511478" lon="2.989719">
        <ele>169.4</ele>
        <time>2016-04-18T13:46:52Z</time>
      </trkpt>
      <trkpt lat="39.511399" lon="2.989355">
        <ele>169.4</ele>
        <time>2016-04-18T13:46:57Z</time>
      </trkpt>
      <trkpt lat="39.511385" lon="2.989287">
        <ele>169.8</ele>
        <time>2016-04-18T13:46:58Z</time>
      </trkpt>
      <trkpt lat="39.511372" lon="2.989221">
        <ele>170.2</ele>
        <time>2016-04-18T13:46:59Z</time>
      </trkpt>
      <trkpt lat="39.511361" lon="2.989144">
        <ele>170.8</ele>
        <time>2016-04-18T13:47:00Z</time>
      </trkpt>
      <trkpt lat="39.511348" lon="2.989073">
        <ele>171.2</ele>
        <time>2016-04-18T13:47:01Z</time>
      </trkpt>
      <trkpt lat="39.511335" lon="2.989007">
        <ele>171.6</ele>
        <time>2016-04-18T13:47:02Z</time>
      </trkpt>
      <trkpt lat="39.51131" lon="2.988874">
        <ele>171.6</ele>
        <time>2016-04-18T13:47:04Z</time>
      </trkpt>
      <trkpt lat="39.511298" lon="2.988808">
        <ele>172</ele>
        <time>2016-04-18T13:47:05Z</time>
      </trkpt>
      <trkpt lat="39.511285" lon="2.988743">
        <ele>172.6</ele>
        <time>2016-04-18T13:47:06Z</time>
      </trkpt>
      <trkpt lat="39.511268" lon="2.988678">
        <ele>173</ele>
        <time>2016-04-18T13:47:07Z</time>
      </trkpt>
      <trkpt lat="39.511248" lon="2.988616">
        <ele>173.4</ele>
        <time>2016-04-18T13:47:08Z</time>
      </trkpt>
      <trkpt lat="39.511225" lon="2.988556">
        <ele>174</ele>
        <time>2016-04-18T13:47:09Z</time>
      </trkpt>
      <trkpt lat="39.511174" lon="2.988438">
        <ele>174</ele>
        <time>2016-04-18T13:47:11Z</time>
      </trkpt>
      <trkpt lat="39.511082" lon="2.988266">
        <ele>174</ele>
        <time>2016-04-18T13:47:14Z</time>
      </trkpt>
      <trkpt lat="39.511008" lon="2.988162">
        <ele>174</ele>
        <time>2016-04-18T13:47:16Z</time>
      </trkpt>
      <trkpt lat="39.510935" lon="2.988061">
        <ele>174</ele>
        <time>2016-04-18T13:47:18Z</time>
      </trkpt>
      <trkpt lat="39.510859" lon="2.987952">
        <ele>174.8</ele>
        <time>2016-04-18T13:47:20Z</time>
      </trkpt>
      <trkpt lat="39.51082" lon="2.987894">
        <ele>175.2</ele>
        <time>2016-04-18T13:47:21Z</time>
      </trkpt>
      <trkpt lat="39.510783" lon="2.987833">
        <ele>175.6</ele>
        <time>2016-04-18T13:47:22Z</time>
      </trkpt>
      <trkpt lat="39.510748" lon="2.987772">
        <ele>176.2</ele>
        <time>2016-04-18T13:47:23Z</time>
      </trkpt>
      <trkpt lat="39.510641" lon="2.987576">
        <ele>176.2</ele>
        <time>2016-04-18T13:47:26Z</time>
      </trkpt>
      <trkpt lat="39.51042" lon="2.987099">
        <ele>176.2</ele>
        <time>2016-04-18T13:47:33Z</time>
      </trkpt>
      <trkpt lat="39.510261" lon="2.986774">
        <ele>176.6</ele>
        <time>2016-04-18T13:47:38Z</time>
      </trkpt>
      <trkpt lat="39.51023" lon="2.98671">
        <ele>177</ele>
        <time>2016-04-18T13:47:39Z</time>
      </trkpt>
      <trkpt lat="39.510201" lon="2.986651">
        <ele>177.4</ele>
        <time>2016-04-18T13:47:40Z</time>
      </trkpt>
      <trkpt lat="39.510172" lon="2.986593">
        <ele>177.8</ele>
        <time>2016-04-18T13:47:41Z</time>
      </trkpt>
      <trkpt lat="39.510142" lon="2.986534">
        <ele>178.2</ele>
        <time>2016-04-18T13:47:42Z</time>
      </trkpt>
      <trkpt lat="39.510059" lon="2.986356">
        <ele>179</ele>
        <time>2016-04-18T13:47:45Z</time>
      </trkpt>
      <trkpt lat="39.510033" lon="2.986298">
        <ele>179.4</ele>
        <time>2016-04-18T13:47:46Z</time>
      </trkpt>
      <trkpt lat="39.510006" lon="2.98624">
        <ele>180</ele>
        <time>2016-04-18T13:47:47Z</time>
      </trkpt>
      <trkpt lat="39.509979" lon="2.986181">
        <ele>180.4</ele>
        <time>2016-04-18T13:47:48Z</time>
      </trkpt>
      <trkpt lat="39.509822" lon="2.985813">
        <ele>180.8</ele>
        <time>2016-04-18T13:47:54Z</time>
      </trkpt>
      <trkpt lat="39.509801" lon="2.985746">
        <ele>181.2</ele>
        <time>2016-04-18T13:47:55Z</time>
      </trkpt>
      <trkpt lat="39.509781" lon="2.985679">
        <ele>181.8</ele>
        <time>2016-04-18T13:47:56Z</time>
      </trkpt>
      <trkpt lat="39.509762" lon="2.985611">
        <ele>182.2</ele>
        <time>2016-04-18T13:47:57Z</time>
      </trkpt>
      <trkpt lat="39.509746" lon="2.985543">
        <ele>182.6</ele>
        <time>2016-04-18T13:47:58Z</time>
      </trkpt>
      <trkpt lat="39.509692" lon="2.985264">
        <ele>182.6</ele>
        <time>2016-04-18T13:48:02Z</time>
      </trkpt>
      <trkpt lat="39.509656" lon="2.98505">
        <ele>182.6</ele>
        <time>2016-04-18T13:48:05Z</time>
      </trkpt>
      <trkpt lat="39.509649" lon="2.98498">
        <ele>183</ele>
        <time>2016-04-18T13:48:06Z</time>
      </trkpt>
      <trkpt lat="39.509639" lon="2.984912">
        <ele>183.4</ele>
        <time>2016-04-18T13:48:07Z</time>
      </trkpt>
      <trkpt lat="39.509631" lon="2.984846">
        <ele>183.8</ele>
        <time>2016-04-18T13:48:08Z</time>
      </trkpt>
      <trkpt lat="39.50962" lon="2.984779">
        <ele>184.8</ele>
        <time>2016-04-18T13:48:09Z</time>
      </trkpt>
      <trkpt lat="39.509539" lon="2.984324">
        <ele>185.2</ele>
        <time>2016-04-18T13:48:16Z</time>
      </trkpt>
      <trkpt lat="39.509529" lon="2.98426">
        <ele>185.8</ele>
        <time>2016-04-18T13:48:17Z</time>
      </trkpt>
      <trkpt lat="39.50952" lon="2.984197">
        <ele>186.2</ele>
        <time>2016-04-18T13:48:18Z</time>
      </trkpt>
      <trkpt lat="39.509509" lon="2.984134">
        <ele>186.8</ele>
        <time>2016-04-18T13:48:19Z</time>
      </trkpt>
      <trkpt lat="39.509497" lon="2.984068">
        <ele>187.2</ele>
        <time>2016-04-18T13:48:20Z</time>
      </trkpt>
      <trkpt lat="39.509454" lon="2.983805">
        <ele>187.2</ele>
        <time>2016-04-18T13:48:24Z</time>
      </trkpt>
      <trkpt lat="39.509411" lon="2.983553">
        <ele>187.6</ele>
        <time>2016-04-18T13:48:28Z</time>
      </trkpt>
      <trkpt lat="39.5094" lon="2.983499">
        <ele>188</ele>
        <time>2016-04-18T13:48:29Z</time>
      </trkpt>
      <trkpt lat="39.509386" lon="2.98345">
        <ele>188.6</ele>
        <time>2016-04-18T13:48:30Z</time>
      </trkpt>
      <trkpt lat="39.509368" lon="2.983402">
        <ele>189</ele>
        <time>2016-04-18T13:48:31Z</time>
      </trkpt>
      <trkpt lat="39.509356" lon="2.983354">
        <ele>189.4</ele>
        <time>2016-04-18T13:48:32Z</time>
      </trkpt>
      <trkpt lat="39.509349" lon="2.98325">
        <ele>189.4</ele>
        <time>2016-04-18T13:48:34Z</time>
      </trkpt>
      <trkpt lat="39.509346" lon="2.983196">
        <ele>189.4</ele>
        <time>2016-04-18T13:48:35Z</time>
      </trkpt>
      <trkpt lat="39.509324" lon="2.983036">
        <ele>189.8</ele>
        <time>2016-04-18T13:48:38Z</time>
      </trkpt>
      <trkpt lat="39.509317" lon="2.982986">
        <ele>190.2</ele>
        <time>2016-04-18T13:48:39Z</time>
      </trkpt>
      <trkpt lat="39.509308" lon="2.982931">
        <ele>190.6</ele>
        <time>2016-04-18T13:48:40Z</time>
      </trkpt>
      <trkpt lat="39.509299" lon="2.982879">
        <ele>191</ele>
        <time>2016-04-18T13:48:41Z</time>
      </trkpt>
      <trkpt lat="39.509288" lon="2.982827">
        <ele>191.4</ele>
        <time>2016-04-18T13:48:42Z</time>
      </trkpt>
      <trkpt lat="39.509232" lon="2.982502">
        <ele>191.4</ele>
        <time>2016-04-18T13:48:48Z</time>
      </trkpt>
      <trkpt lat="39.509206" lon="2.982353">
        <ele>192</ele>
        <time>2016-04-18T13:48:51Z</time>
      </trkpt>
      <trkpt lat="39.5092" lon="2.982301">
        <ele>192.4</ele>
        <time>2016-04-18T13:48:52Z</time>
      </trkpt>
      <trkpt lat="39.509193" lon="2.982249">
        <ele>192.8</ele>
        <time>2016-04-18T13:48:53Z</time>
      </trkpt>
      <trkpt lat="39.509185" lon="2.982203">
        <ele>193.4</ele>
        <time>2016-04-18T13:48:54Z</time>
      </trkpt>
      <trkpt lat="39.509178" lon="2.982154">
        <ele>193.8</ele>
        <time>2016-04-18T13:48:55Z</time>
      </trkpt>
      <trkpt lat="39.509171" lon="2.982102">
        <ele>193.8</ele>
        <time>2016-04-18T13:48:56Z</time>
      </trkpt>
      <trkpt lat="39.509132" lon="2.981883">
        <ele>194.6</ele>
        <time>2016-04-18T13:49:00Z</time>
      </trkpt>
      <trkpt lat="39.509123" lon="2.981826">
        <ele>195</ele>
        <time>2016-04-18T13:49:01Z</time>
      </trkpt>
      <trkpt lat="39.509113" lon="2.98177">
        <ele>195.4</ele>
        <time>2016-04-18T13:49:02Z</time>
      </trkpt>
      <trkpt lat="39.509103" lon="2.981712">
        <ele>195.8</ele>
        <time>2016-04-18T13:49:03Z</time>
      </trkpt>
      <trkpt lat="39.509059" lon="2.98143">
        <ele>196.2</ele>
        <time>2016-04-18T13:49:08Z</time>
      </trkpt>
      <trkpt lat="39.509052" lon="2.981375">
        <ele>196.8</ele>
        <time>2016-04-18T13:49:09Z</time>
      </trkpt>
      <trkpt lat="39.509041" lon="2.98132">
        <ele>197.2</ele>
        <time>2016-04-18T13:49:10Z</time>
      </trkpt>
      <trkpt lat="39.50903" lon="2.981262">
        <ele>197.6</ele>
        <time>2016-04-18T13:49:11Z</time>
      </trkpt>
      <trkpt lat="39.509021" lon="2.981202">
        <ele>198</ele>
        <time>2016-04-18T13:49:12Z</time>
      </trkpt>
      <trkpt lat="39.509004" lon="2.981082">
        <ele>198</ele>
        <time>2016-04-18T13:49:14Z</time>
      </trkpt>
      <trkpt lat="39.509013" lon="2.980849">
        <ele>198</ele>
        <time>2016-04-18T13:49:18Z</time>
      </trkpt>
      <trkpt lat="39.509029" lon="2.980779">
        <ele>198</ele>
        <time>2016-04-18T13:49:19Z</time>
      </trkpt>
      <trkpt lat="39.509144" lon="2.980411">
        <ele>198</ele>
        <time>2016-04-18T13:49:24Z</time>
      </trkpt>
      <trkpt lat="39.509197" lon="2.980245">
        <ele>198</ele>
        <time>2016-04-18T13:49:26Z</time>
      </trkpt>
      <trkpt lat="39.509223" lon="2.980035">
        <ele>198</ele>
        <time>2016-04-18T13:49:28Z</time>
      </trkpt>
      <trkpt lat="39.509189" lon="2.979688">
        <ele>197.6</ele>
        <time>2016-04-18T13:49:31Z</time>
      </trkpt>
      <trkpt lat="39.509158" lon="2.979568">
        <ele>197.2</ele>
        <time>2016-04-18T13:49:32Z</time>
      </trkpt>
      <trkpt lat="39.509117" lon="2.979448">
        <ele>196.4</ele>
        <time>2016-04-18T13:49:33Z</time>
      </trkpt>
      <trkpt lat="39.509072" lon="2.979322">
        <ele>195.6</ele>
        <time>2016-04-18T13:49:34Z</time>
      </trkpt>
      <trkpt lat="39.509025" lon="2.979188">
        <ele>194.6</ele>
        <time>2016-04-18T13:49:35Z</time>
      </trkpt>
      <trkpt lat="39.50898" lon="2.979057">
        <ele>193.6</ele>
        <time>2016-04-18T13:49:36Z</time>
      </trkpt>
      <trkpt lat="39.508932" lon="2.978922">
        <ele>192.6</ele>
        <time>2016-04-18T13:49:37Z</time>
      </trkpt>
      <trkpt lat="39.508885" lon="2.978788">
        <ele>191.4</ele>
        <time>2016-04-18T13:49:38Z</time>
      </trkpt>
      <trkpt lat="39.508834" lon="2.978654">
        <ele>190.2</ele>
        <time>2016-04-18T13:49:39Z</time>
      </trkpt>
      <trkpt lat="39.508781" lon="2.978522">
        <ele>189</ele>
        <time>2016-04-18T13:49:40Z</time>
      </trkpt>
      <trkpt lat="39.50872" lon="2.978395">
        <ele>187.8</ele>
        <time>2016-04-18T13:49:41Z</time>
      </trkpt>
      <trkpt lat="39.508652" lon="2.978275">
        <ele>186.8</ele>
        <time>2016-04-18T13:49:42Z</time>
      </trkpt>
      <trkpt lat="39.508576" lon="2.978162">
        <ele>185.6</ele>
        <time>2016-04-18T13:49:43Z</time>
      </trkpt>
      <trkpt lat="39.508416" lon="2.97794">
        <ele>185.6</ele>
        <time>2016-04-18T13:49:45Z</time>
      </trkpt>
      <trkpt lat="39.508345" lon="2.977826">
        <ele>185</ele>
        <time>2016-04-18T13:49:46Z</time>
      </trkpt>
      <trkpt lat="39.508285" lon="2.977705">
        <ele>184.6</ele>
        <time>2016-04-18T13:49:47Z</time>
      </trkpt>
      <trkpt lat="39.508231" lon="2.977581">
        <ele>184</ele>
        <time>2016-04-18T13:49:48Z</time>
      </trkpt>
      <trkpt lat="39.508178" lon="2.977455">
        <ele>183</ele>
        <time>2016-04-18T13:49:49Z</time>
      </trkpt>
      <trkpt lat="39.508032" lon="2.977086">
        <ele>183</ele>
        <time>2016-04-18T13:49:52Z</time>
      </trkpt>
      <trkpt lat="39.507984" lon="2.976962">
        <ele>182.6</ele>
        <time>2016-04-18T13:49:53Z</time>
      </trkpt>
      <trkpt lat="39.507938" lon="2.97684">
        <ele>182.2</ele>
        <time>2016-04-18T13:49:54Z</time>
      </trkpt>
      <trkpt lat="39.507896" lon="2.97672">
        <ele>181.8</ele>
        <time>2016-04-18T13:49:55Z</time>
      </trkpt>
      <trkpt lat="39.507854" lon="2.976596">
        <ele>181.4</ele>
        <time>2016-04-18T13:49:56Z</time>
      </trkpt>
      <trkpt lat="39.507815" lon="2.976475">
        <ele>180.8</ele>
        <time>2016-04-18T13:49:57Z</time>
      </trkpt>
      <trkpt lat="39.507705" lon="2.976098">
        <ele>180.8</ele>
        <time>2016-04-18T13:50:00Z</time>
      </trkpt>
      <trkpt lat="39.507636" lon="2.975843">
        <ele>180.8</ele>
        <time>2016-04-18T13:50:02Z</time>
      </trkpt>
      <trkpt lat="39.507602" lon="2.975719">
        <ele>180.4</ele>
        <time>2016-04-18T13:50:03Z</time>
      </trkpt>
      <trkpt lat="39.507568" lon="2.975597">
        <ele>180</ele>
        <time>2016-04-18T13:50:04Z</time>
      </trkpt>
      <trkpt lat="39.507533" lon="2.975477">
        <ele>179.4</ele>
        <time>2016-04-18T13:50:05Z</time>
      </trkpt>
      <trkpt lat="39.507496" lon="2.975351">
        <ele>179</ele>
        <time>2016-04-18T13:50:06Z</time>
      </trkpt>
      <trkpt lat="39.50746" lon="2.975229">
        <ele>178.6</ele>
        <time>2016-04-18T13:50:07Z</time>
      </trkpt>
      <trkpt lat="39.507384" lon="2.974983">
        <ele>178.6</ele>
        <time>2016-04-18T13:50:09Z</time>
      </trkpt>
      <trkpt lat="39.507341" lon="2.974864">
        <ele>178.6</ele>
        <time>2016-04-18T13:50:10Z</time>
      </trkpt>
      <trkpt lat="39.50717" lon="2.974513">
        <ele>178.6</ele>
        <time>2016-04-18T13:50:13Z</time>
      </trkpt>
      <trkpt lat="39.507105" lon="2.974395">
        <ele>177.8</ele>
        <time>2016-04-18T13:50:14Z</time>
      </trkpt>
      <trkpt lat="39.507045" lon="2.974284">
        <ele>177.4</ele>
        <time>2016-04-18T13:50:15Z</time>
      </trkpt>
      <trkpt lat="39.506984" lon="2.97417">
        <ele>177</ele>
        <time>2016-04-18T13:50:16Z</time>
      </trkpt>
      <trkpt lat="39.506923" lon="2.974059">
        <ele>176.6</ele>
        <time>2016-04-18T13:50:17Z</time>
      </trkpt>
      <trkpt lat="39.506684" lon="2.97359">
        <ele>176.6</ele>
        <time>2016-04-18T13:50:21Z</time>
      </trkpt>
      <trkpt lat="39.506631" lon="2.973452">
        <ele>176.6</ele>
        <time>2016-04-18T13:50:22Z</time>
      </trkpt>
      <trkpt lat="39.506589" lon="2.973316">
        <ele>176.2</ele>
        <time>2016-04-18T13:50:23Z</time>
      </trkpt>
      <trkpt lat="39.506554" lon="2.973176">
        <ele>175.6</ele>
        <time>2016-04-18T13:50:24Z</time>
      </trkpt>
      <trkpt lat="39.506526" lon="2.973038">
        <ele>175.2</ele>
        <time>2016-04-18T13:50:25Z</time>
      </trkpt>
      <trkpt lat="39.506507" lon="2.972896">
        <ele>174.8</ele>
        <time>2016-04-18T13:50:26Z</time>
      </trkpt>
      <trkpt lat="39.506494" lon="2.972757">
        <ele>174.4</ele>
        <time>2016-04-18T13:50:27Z</time>
      </trkpt>
      <trkpt lat="39.506476" lon="2.972622">
        <ele>174.4</ele>
        <time>2016-04-18T13:50:28Z</time>
      </trkpt>
      <trkpt lat="39.506323" lon="2.971983">
        <ele>174.4</ele>
        <time>2016-04-18T13:50:33Z</time>
      </trkpt>
      <trkpt lat="39.506117" lon="2.971354">
        <ele>174.4</ele>
        <time>2016-04-18T13:50:38Z</time>
      </trkpt>
      <trkpt lat="39.506034" lon="2.971102">
        <ele>174.4</ele>
        <time>2016-04-18T13:50:40Z</time>
      </trkpt>
      <trkpt lat="39.505903" lon="2.970726">
        <ele>174.4</ele>
        <time>2016-04-18T13:50:43Z</time>
      </trkpt>
      <trkpt lat="39.505812" lon="2.970481">
        <ele>174</ele>
        <time>2016-04-18T13:50:45Z</time>
      </trkpt>
      <trkpt lat="39.505768" lon="2.970352">
        <ele>173.6</ele>
        <time>2016-04-18T13:50:46Z</time>
      </trkpt>
      <trkpt lat="39.505726" lon="2.970228">
        <ele>173.2</ele>
        <time>2016-04-18T13:50:47Z</time>
      </trkpt>
      <trkpt lat="39.505685" lon="2.970102">
        <ele>172.6</ele>
        <time>2016-04-18T13:50:48Z</time>
      </trkpt>
      <trkpt lat="39.505646" lon="2.969979">
        <ele>172.2</ele>
        <time>2016-04-18T13:50:49Z</time>
      </trkpt>
      <trkpt lat="39.505573" lon="2.969729">
        <ele>172.2</ele>
        <time>2016-04-18T13:50:51Z</time>
      </trkpt>
      <trkpt lat="39.505522" lon="2.969474">
        <ele>172.2</ele>
        <time>2016-04-18T13:50:53Z</time>
      </trkpt>
      <trkpt lat="39.505437" lon="2.968863">
        <ele>172.2</ele>
        <time>2016-04-18T13:50:58Z</time>
      </trkpt>
      <trkpt lat="39.50535" lon="2.968292">
        <ele>172.2</ele>
        <time>2016-04-18T13:51:03Z</time>
      </trkpt>
      <trkpt lat="39.505266" lon="2.968081">
        <ele>172.2</ele>
        <time>2016-04-18T13:51:05Z</time>
      </trkpt>
      <trkpt lat="39.505155" lon="2.967882">
        <ele>172.2</ele>
        <time>2016-04-18T13:51:07Z</time>
      </trkpt>
      <trkpt lat="39.505091" lon="2.967789">
        <ele>172.2</ele>
        <time>2016-04-18T13:51:08Z</time>
      </trkpt>
      <trkpt lat="39.504932" lon="2.967643">
        <ele>172.2</ele>
        <time>2016-04-18T13:51:10Z</time>
      </trkpt>
      <trkpt lat="39.504767" lon="2.967515">
        <ele>171.8</ele>
        <time>2016-04-18T13:51:12Z</time>
      </trkpt>
      <trkpt lat="39.504686" lon="2.96745">
        <ele>171.4</ele>
        <time>2016-04-18T13:51:13Z</time>
      </trkpt>
      <trkpt lat="39.504604" lon="2.967386">
        <ele>171</ele>
        <time>2016-04-18T13:51:14Z</time>
      </trkpt>
      <trkpt lat="39.504522" lon="2.967323">
        <ele>170.6</ele>
        <time>2016-04-18T13:51:15Z</time>
      </trkpt>
      <trkpt lat="39.504442" lon="2.967259">
        <ele>170.2</ele>
        <time>2016-04-18T13:51:16Z</time>
      </trkpt>
      <trkpt lat="39.504356" lon="2.967192">
        <ele>170.2</ele>
        <time>2016-04-18T13:51:17Z</time>
      </trkpt>
      <trkpt lat="39.503849" lon="2.966787">
        <ele>170.2</ele>
        <time>2016-04-18T13:51:23Z</time>
      </trkpt>
      <trkpt lat="39.503771" lon="2.966703">
        <ele>169.8</ele>
        <time>2016-04-18T13:51:24Z</time>
      </trkpt>
      <trkpt lat="39.503699" lon="2.966603">
        <ele>169.4</ele>
        <time>2016-04-18T13:51:25Z</time>
      </trkpt>
      <trkpt lat="39.503639" lon="2.966495">
        <ele>169</ele>
        <time>2016-04-18T13:51:26Z</time>
      </trkpt>
      <trkpt lat="39.503585" lon="2.966378">
        <ele>168.4</ele>
        <time>2016-04-18T13:51:27Z</time>
      </trkpt>
      <trkpt lat="39.50354" lon="2.966253">
        <ele>168</ele>
        <time>2016-04-18T13:51:28Z</time>
      </trkpt>
      <trkpt lat="39.5035" lon="2.966127">
        <ele>168</ele>
        <time>2016-04-18T13:51:29Z</time>
      </trkpt>
      <trkpt lat="39.503464" lon="2.965999">
        <ele>168</ele>
        <time>2016-04-18T13:51:30Z</time>
      </trkpt>
      <trkpt lat="39.50342" lon="2.965872">
        <ele>168</ele>
        <time>2016-04-18T13:51:31Z</time>
      </trkpt>
      <trkpt lat="39.503363" lon="2.965754">
        <ele>167.6</ele>
        <time>2016-04-18T13:51:32Z</time>
      </trkpt>
      <trkpt lat="39.50329" lon="2.965642">
        <ele>167.2</ele>
        <time>2016-04-18T13:51:33Z</time>
      </trkpt>
      <trkpt lat="39.503213" lon="2.965546">
        <ele>166.8</ele>
        <time>2016-04-18T13:51:34Z</time>
      </trkpt>
      <trkpt lat="39.503126" lon="2.965464">
        <ele>166.4</ele>
        <time>2016-04-18T13:51:35Z</time>
      </trkpt>
      <trkpt lat="39.503032" lon="2.965395">
        <ele>166</ele>
        <time>2016-04-18T13:51:36Z</time>
      </trkpt>
      <trkpt lat="39.502826" lon="2.965296">
        <ele>166</ele>
        <time>2016-04-18T13:51:38Z</time>
      </trkpt>
      <trkpt lat="39.502615" lon="2.965207">
        <ele>166</ele>
        <time>2016-04-18T13:51:40Z</time>
      </trkpt>
      <trkpt lat="39.502293" lon="2.965039">
        <ele>165.6</ele>
        <time>2016-04-18T13:51:43Z</time>
      </trkpt>
      <trkpt lat="39.50219" lon="2.96497">
        <ele>165.2</ele>
        <time>2016-04-18T13:51:44Z</time>
      </trkpt>
      <trkpt lat="39.502092" lon="2.964896">
        <ele>164.8</ele>
        <time>2016-04-18T13:51:45Z</time>
      </trkpt>
      <trkpt lat="39.501997" lon="2.964815">
        <ele>164.4</ele>
        <time>2016-04-18T13:51:46Z</time>
      </trkpt>
      <trkpt lat="39.501906" lon="2.964727">
        <ele>164</ele>
        <time>2016-04-18T13:51:47Z</time>
      </trkpt>
      <trkpt lat="39.501733" lon="2.964529">
        <ele>164</ele>
        <time>2016-04-18T13:51:49Z</time>
      </trkpt>
      <trkpt lat="39.501501" lon="2.964223">
        <ele>164</ele>
        <time>2016-04-18T13:51:52Z</time>
      </trkpt>
      <trkpt lat="39.5012" lon="2.963821">
        <ele>164</ele>
        <time>2016-04-18T13:51:56Z</time>
      </trkpt>
      <trkpt lat="39.500982" lon="2.963505">
        <ele>164</ele>
        <time>2016-04-18T13:51:59Z</time>
      </trkpt>
      <trkpt lat="39.500875" lon="2.963284">
        <ele>164</ele>
        <time>2016-04-18T13:52:01Z</time>
      </trkpt>
      <trkpt lat="39.500734" lon="2.962857">
        <ele>164</ele>
        <time>2016-04-18T13:52:05Z</time>
      </trkpt>
      <trkpt lat="39.500671" lon="2.962676">
        <ele>164.4</ele>
        <time>2016-04-18T13:52:07Z</time>
      </trkpt>
      <trkpt lat="39.500642" lon="2.962592">
        <ele>164.8</ele>
        <time>2016-04-18T13:52:08Z</time>
      </trkpt>
      <trkpt lat="39.500611" lon="2.962515">
        <ele>165.4</ele>
        <time>2016-04-18T13:52:09Z</time>
      </trkpt>
      <trkpt lat="39.500575" lon="2.962443">
        <ele>165.8</ele>
        <time>2016-04-18T13:52:10Z</time>
      </trkpt>
      <trkpt lat="39.500535" lon="2.962373">
        <ele>166.4</ele>
        <time>2016-04-18T13:52:11Z</time>
      </trkpt>
      <trkpt lat="39.500498" lon="2.962314">
        <ele>167</ele>
        <time>2016-04-18T13:52:12Z</time>
      </trkpt>
      <trkpt lat="39.500459" lon="2.962257">
        <ele>167.4</ele>
        <time>2016-04-18T13:52:13Z</time>
      </trkpt>
      <trkpt lat="39.500422" lon="2.962206">
        <ele>168</ele>
        <time>2016-04-18T13:52:14Z</time>
      </trkpt>
      <trkpt lat="39.500382" lon="2.96216">
        <ele>168.6</ele>
        <time>2016-04-18T13:52:15Z</time>
      </trkpt>
      <trkpt lat="39.500339" lon="2.962115">
        <ele>169.2</ele>
        <time>2016-04-18T13:52:16Z</time>
      </trkpt>
      <trkpt lat="39.500297" lon="2.962076">
        <ele>169.8</ele>
        <time>2016-04-18T13:52:17Z</time>
      </trkpt>
      <trkpt lat="39.500254" lon="2.962037">
        <ele>170.4</ele>
        <time>2016-04-18T13:52:18Z</time>
      </trkpt>
      <trkpt lat="39.500212" lon="2.962001">
        <ele>171.4</ele>
        <time>2016-04-18T13:52:19Z</time>
      </trkpt>
      <trkpt lat="39.500174" lon="2.961965">
        <ele>171.8</ele>
        <time>2016-04-18T13:52:20Z</time>
      </trkpt>
      <trkpt lat="39.500139" lon="2.96193">
        <ele>172.2</ele>
        <time>2016-04-18T13:52:21Z</time>
      </trkpt>
      <trkpt lat="39.500103" lon="2.961895">
        <ele>172.6</ele>
        <time>2016-04-18T13:52:22Z</time>
      </trkpt>
      <trkpt lat="39.500065" lon="2.96186">
        <ele>173</ele>
        <time>2016-04-18T13:52:23Z</time>
      </trkpt>
      <trkpt lat="39.499996" lon="2.961799">
        <ele>173</ele>
        <time>2016-04-18T13:52:25Z</time>
      </trkpt>
      <trkpt lat="39.499962" lon="2.961763">
        <ele>173.6</ele>
        <time>2016-04-18T13:52:26Z</time>
      </trkpt>
      <trkpt lat="39.49993" lon="2.961726">
        <ele>174</ele>
        <time>2016-04-18T13:52:27Z</time>
      </trkpt>
      <trkpt lat="39.499897" lon="2.961691">
        <ele>174.4</ele>
        <time>2016-04-18T13:52:28Z</time>
      </trkpt>
      <trkpt lat="39.499864" lon="2.961657">
        <ele>175</ele>
        <time>2016-04-18T13:52:29Z</time>
      </trkpt>
      <trkpt lat="39.499827" lon="2.961622">
        <ele>175.4</ele>
        <time>2016-04-18T13:52:30Z</time>
      </trkpt>
      <trkpt lat="39.499681" lon="2.961474">
        <ele>175.8</ele>
        <time>2016-04-18T13:52:34Z</time>
      </trkpt>
      <trkpt lat="39.499643" lon="2.961434">
        <ele>176.2</ele>
        <time>2016-04-18T13:52:35Z</time>
      </trkpt>
      <trkpt lat="39.499604" lon="2.961396">
        <ele>176.8</ele>
        <time>2016-04-18T13:52:36Z</time>
      </trkpt>
      <trkpt lat="39.499565" lon="2.961357">
        <ele>177.2</ele>
        <time>2016-04-18T13:52:37Z</time>
      </trkpt>
      <trkpt lat="39.499526" lon="2.961317">
        <ele>177.6</ele>
        <time>2016-04-18T13:52:38Z</time>
      </trkpt>
      <trkpt lat="39.499368" lon="2.96115">
        <ele>177.6</ele>
        <time>2016-04-18T13:52:42Z</time>
      </trkpt>
      <trkpt lat="39.499329" lon="2.961108">
        <ele>178</ele>
        <time>2016-04-18T13:52:43Z</time>
      </trkpt>
      <trkpt lat="39.499291" lon="2.961064">
        <ele>178.8</ele>
        <time>2016-04-18T13:52:44Z</time>
      </trkpt>
      <trkpt lat="39.49925" lon="2.961018">
        <ele>179.4</ele>
        <time>2016-04-18T13:52:45Z</time>
      </trkpt>
      <trkpt lat="39.499205" lon="2.960967">
        <ele>179.8</ele>
        <time>2016-04-18T13:52:46Z</time>
      </trkpt>
      <trkpt lat="39.499106" lon="2.960858">
        <ele>179.8</ele>
        <time>2016-04-18T13:52:48Z</time>
      </trkpt>
      <trkpt lat="39.498793" lon="2.960486">
        <ele>179.2</ele>
        <time>2016-04-18T13:52:54Z</time>
      </trkpt>
      <trkpt lat="39.498731" lon="2.960414">
        <ele>178.8</ele>
        <time>2016-04-18T13:52:55Z</time>
      </trkpt>
      <trkpt lat="39.498667" lon="2.960333">
        <ele>178.4</ele>
        <time>2016-04-18T13:52:56Z</time>
      </trkpt>
      <trkpt lat="39.498604" lon="2.960251">
        <ele>178</ele>
        <time>2016-04-18T13:52:57Z</time>
      </trkpt>
      <trkpt lat="39.498541" lon="2.960165">
        <ele>177.4</ele>
        <time>2016-04-18T13:52:58Z</time>
      </trkpt>
      <trkpt lat="39.498486" lon="2.960069">
        <ele>176.8</ele>
        <time>2016-04-18T13:52:59Z</time>
      </trkpt>
      <trkpt lat="39.498445" lon="2.959965">
        <ele>176.2</ele>
        <time>2016-04-18T13:53:00Z</time>
      </trkpt>
      <trkpt lat="39.498416" lon="2.959854">
        <ele>175.6</ele>
        <time>2016-04-18T13:53:01Z</time>
      </trkpt>
      <trkpt lat="39.498394" lon="2.959743">
        <ele>175</ele>
        <time>2016-04-18T13:53:02Z</time>
      </trkpt>
      <trkpt lat="39.498376" lon="2.959634">
        <ele>174.4</ele>
        <time>2016-04-18T13:53:03Z</time>
      </trkpt>
      <trkpt lat="39.498359" lon="2.959526">
        <ele>174</ele>
        <time>2016-04-18T13:53:04Z</time>
      </trkpt>
      <trkpt lat="39.498337" lon="2.959416">
        <ele>173.4</ele>
        <time>2016-04-18T13:53:05Z</time>
      </trkpt>
      <trkpt lat="39.498308" lon="2.959315">
        <ele>173</ele>
        <time>2016-04-18T13:53:06Z</time>
      </trkpt>
      <trkpt lat="39.498272" lon="2.95922">
        <ele>173</ele>
        <time>2016-04-18T13:53:07Z</time>
      </trkpt>
      <trkpt lat="39.498136" lon="2.958975">
        <ele>173</ele>
        <time>2016-04-18T13:53:10Z</time>
      </trkpt>
      <trkpt lat="39.498087" lon="2.958894">
        <ele>173</ele>
        <time>2016-04-18T13:53:11Z</time>
      </trkpt>
      <trkpt lat="39.497997" lon="2.958737">
        <ele>173</ele>
        <time>2016-04-18T13:53:13Z</time>
      </trkpt>
      <trkpt lat="39.497812" lon="2.95842">
        <ele>173</ele>
        <time>2016-04-18T13:53:17Z</time>
      </trkpt>
      <trkpt lat="39.497766" lon="2.958339">
        <ele>173</ele>
        <time>2016-04-18T13:53:18Z</time>
      </trkpt>
      <trkpt lat="39.497522" lon="2.957899">
        <ele>173</ele>
        <time>2016-04-18T13:53:23Z</time>
      </trkpt>
      <trkpt lat="39.49747" lon="2.957806">
        <ele>173</ele>
        <time>2016-04-18T13:53:24Z</time>
      </trkpt>
      <trkpt lat="39.497376" lon="2.957615">
        <ele>173</ele>
        <time>2016-04-18T13:53:26Z</time>
      </trkpt>
      <trkpt lat="39.497308" lon="2.957402">
        <ele>173</ele>
        <time>2016-04-18T13:53:28Z</time>
      </trkpt>
      <trkpt lat="39.497281" lon="2.957285">
        <ele>173</ele>
        <time>2016-04-18T13:53:29Z</time>
      </trkpt>
      <trkpt lat="39.497256" lon="2.957167">
        <ele>172.4</ele>
        <time>2016-04-18T13:53:30Z</time>
      </trkpt>
      <trkpt lat="39.497233" lon="2.957046">
        <ele>172</ele>
        <time>2016-04-18T13:53:31Z</time>
      </trkpt>
      <trkpt lat="39.497215" lon="2.956922">
        <ele>171.6</ele>
        <time>2016-04-18T13:53:32Z</time>
      </trkpt>
      <trkpt lat="39.497199" lon="2.956794">
        <ele>170.6</ele>
        <time>2016-04-18T13:53:33Z</time>
      </trkpt>
      <trkpt lat="39.497192" lon="2.956664">
        <ele>170.2</ele>
        <time>2016-04-18T13:53:34Z</time>
      </trkpt>
      <trkpt lat="39.497199" lon="2.956533">
        <ele>169.6</ele>
        <time>2016-04-18T13:53:35Z</time>
      </trkpt>
      <trkpt lat="39.497209" lon="2.956404">
        <ele>169.2</ele>
        <time>2016-04-18T13:53:36Z</time>
      </trkpt>
      <trkpt lat="39.497223" lon="2.95627">
        <ele>168.6</ele>
        <time>2016-04-18T13:53:37Z</time>
      </trkpt>
      <trkpt lat="39.497236" lon="2.956143">
        <ele>167.8</ele>
        <time>2016-04-18T13:53:38Z</time>
      </trkpt>
      <trkpt lat="39.497246" lon="2.956017">
        <ele>167.2</ele>
        <time>2016-04-18T13:53:39Z</time>
      </trkpt>
      <trkpt lat="39.497248" lon="2.955895">
        <ele>166.6</ele>
        <time>2016-04-18T13:53:40Z</time>
      </trkpt>
      <trkpt lat="39.497237" lon="2.955777">
        <ele>165.8</ele>
        <time>2016-04-18T13:53:41Z</time>
      </trkpt>
      <trkpt lat="39.497215" lon="2.955661">
        <ele>165.8</ele>
        <time>2016-04-18T13:53:42Z</time>
      </trkpt>
      <trkpt lat="39.497139" lon="2.95545">
        <ele>165.8</ele>
        <time>2016-04-18T13:53:44Z</time>
      </trkpt>
      <trkpt lat="39.49709" lon="2.955346">
        <ele>165.8</ele>
        <time>2016-04-18T13:53:45Z</time>
      </trkpt>
      <trkpt lat="39.497047" lon="2.955246">
        <ele>165.8</ele>
        <time>2016-04-18T13:53:46Z</time>
      </trkpt>
      <trkpt lat="39.497005" lon="2.955148">
        <ele>165.8</ele>
        <time>2016-04-18T13:53:47Z</time>
      </trkpt>
      <trkpt lat="39.496919" lon="2.954961">
        <ele>165.8</ele>
        <time>2016-04-18T13:53:49Z</time>
      </trkpt>
      <trkpt lat="39.496794" lon="2.954715">
        <ele>165.8</ele>
        <time>2016-04-18T13:53:52Z</time>
      </trkpt>
      <trkpt lat="39.496713" lon="2.954576">
        <ele>166.2</ele>
        <time>2016-04-18T13:53:54Z</time>
      </trkpt>
      <trkpt lat="39.496676" lon="2.954513">
        <ele>166.8</ele>
        <time>2016-04-18T13:53:55Z</time>
      </trkpt>
      <trkpt lat="39.496642" lon="2.95445">
        <ele>167.2</ele>
        <time>2016-04-18T13:53:56Z</time>
      </trkpt>
      <trkpt lat="39.49661" lon="2.954388">
        <ele>167.8</ele>
        <time>2016-04-18T13:53:57Z</time>
      </trkpt>
      <trkpt lat="39.496575" lon="2.954329">
        <ele>169</ele>
        <time>2016-04-18T13:53:58Z</time>
      </trkpt>
      <trkpt lat="39.496544" lon="2.954275">
        <ele>169.6</ele>
        <time>2016-04-18T13:53:59Z</time>
      </trkpt>
      <trkpt lat="39.496516" lon="2.954224">
        <ele>170.2</ele>
        <time>2016-04-18T13:54:00Z</time>
      </trkpt>
      <trkpt lat="39.496493" lon="2.954173">
        <ele>170.2</ele>
        <time>2016-04-18T13:54:01Z</time>
      </trkpt>
      <trkpt lat="39.49647" lon="2.954123">
        <ele>170.6</ele>
        <time>2016-04-18T13:54:02Z</time>
      </trkpt>
      <trkpt lat="39.496444" lon="2.954076">
        <ele>171</ele>
        <time>2016-04-18T13:54:03Z</time>
      </trkpt>
      <trkpt lat="39.496416" lon="2.954029">
        <ele>171.6</ele>
        <time>2016-04-18T13:54:04Z</time>
      </trkpt>
      <trkpt lat="39.496389" lon="2.953981">
        <ele>172</ele>
        <time>2016-04-18T13:54:05Z</time>
      </trkpt>
      <trkpt lat="39.496361" lon="2.953935">
        <ele>172.4</ele>
        <time>2016-04-18T13:54:06Z</time>
      </trkpt>
      <trkpt lat="39.496278" lon="2.953797">
        <ele>172.4</ele>
        <time>2016-04-18T13:54:09Z</time>
      </trkpt>
      <trkpt lat="39.496231" lon="2.953711">
        <ele>172.4</ele>
        <time>2016-04-18T13:54:11Z</time>
      </trkpt>
      <trkpt lat="39.496206" lon="2.953669">
        <ele>172.8</ele>
        <time>2016-04-18T13:54:12Z</time>
      </trkpt>
      <trkpt lat="39.496182" lon="2.953628">
        <ele>173.4</ele>
        <time>2016-04-18T13:54:13Z</time>
      </trkpt>
      <trkpt lat="39.496157" lon="2.953588">
        <ele>173.8</ele>
        <time>2016-04-18T13:54:14Z</time>
      </trkpt>
      <trkpt lat="39.496133" lon="2.953546">
        <ele>174.2</ele>
        <time>2016-04-18T13:54:15Z</time>
      </trkpt>
      <trkpt lat="39.496107" lon="2.953504">
        <ele>174.8</ele>
        <time>2016-04-18T13:54:16Z</time>
      </trkpt>
      <trkpt lat="39.49603" lon="2.953382">
        <ele>174.8</ele>
        <time>2016-04-18T13:54:19Z</time>
      </trkpt>
      <trkpt lat="39.496003" lon="2.953343">
        <ele>175.2</ele>
        <time>2016-04-18T13:54:20Z</time>
      </trkpt>
      <trkpt lat="39.495978" lon="2.953304">
        <ele>175.6</ele>
        <time>2016-04-18T13:54:21Z</time>
      </trkpt>
      <trkpt lat="39.495954" lon="2.953265">
        <ele>176.6</ele>
        <time>2016-04-18T13:54:22Z</time>
      </trkpt>
      <trkpt lat="39.495928" lon="2.953226">
        <ele>177</ele>
        <time>2016-04-18T13:54:23Z</time>
      </trkpt>
      <trkpt lat="39.495853" lon="2.953099">
        <ele>177</ele>
        <time>2016-04-18T13:54:26Z</time>
      </trkpt>
      <trkpt lat="39.495825" lon="2.953057">
        <ele>177.4</ele>
        <time>2016-04-18T13:54:27Z</time>
      </trkpt>
      <trkpt lat="39.495797" lon="2.953015">
        <ele>177.8</ele>
        <time>2016-04-18T13:54:28Z</time>
      </trkpt>
      <trkpt lat="39.495769" lon="2.952975">
        <ele>178.2</ele>
        <time>2016-04-18T13:54:29Z</time>
      </trkpt>
      <trkpt lat="39.495741" lon="2.952933">
        <ele>178.6</ele>
        <time>2016-04-18T13:54:30Z</time>
      </trkpt>
      <trkpt lat="39.49571" lon="2.952891">
        <ele>179.2</ele>
        <time>2016-04-18T13:54:31Z</time>
      </trkpt>
      <trkpt lat="39.495652" lon="2.952811">
        <ele>179.2</ele>
        <time>2016-04-18T13:54:33Z</time>
      </trkpt>
      <trkpt lat="39.495537" lon="2.952642">
        <ele>179.6</ele>
        <time>2016-04-18T13:54:37Z</time>
      </trkpt>
      <trkpt lat="39.49551" lon="2.9526">
        <ele>180</ele>
        <time>2016-04-18T13:54:38Z</time>
      </trkpt>
      <trkpt lat="39.49548" lon="2.952555">
        <ele>180.4</ele>
        <time>2016-04-18T13:54:39Z</time>
      </trkpt>
      <trkpt lat="39.495453" lon="2.952512">
        <ele>180.8</ele>
        <time>2016-04-18T13:54:40Z</time>
      </trkpt>
      <trkpt lat="39.495427" lon="2.952467">
        <ele>181.2</ele>
        <time>2016-04-18T13:54:41Z</time>
      </trkpt>
      <trkpt lat="39.495299" lon="2.95223">
        <ele>182.2</ele>
        <time>2016-04-18T13:54:46Z</time>
      </trkpt>
      <trkpt lat="39.495279" lon="2.952179">
        <ele>182.6</ele>
        <time>2016-04-18T13:54:47Z</time>
      </trkpt>
      <trkpt lat="39.495257" lon="2.952126">
        <ele>183</ele>
        <time>2016-04-18T13:54:48Z</time>
      </trkpt>
      <trkpt lat="39.495235" lon="2.952078">
        <ele>183.4</ele>
        <time>2016-04-18T13:54:49Z</time>
      </trkpt>
      <trkpt lat="39.495101" lon="2.951787">
        <ele>183.4</ele>
        <time>2016-04-18T13:54:55Z</time>
      </trkpt>
      <trkpt lat="39.495073" lon="2.95174">
        <ele>183.4</ele>
        <time>2016-04-18T13:54:56Z</time>
      </trkpt>
      <trkpt lat="39.495042" lon="2.951692">
        <ele>183.8</ele>
        <time>2016-04-18T13:54:57Z</time>
      </trkpt>
      <trkpt lat="39.495009" lon="2.951642">
        <ele>184.2</ele>
        <time>2016-04-18T13:54:58Z</time>
      </trkpt>
      <trkpt lat="39.494975" lon="2.951589">
        <ele>184.6</ele>
        <time>2016-04-18T13:54:59Z</time>
      </trkpt>
      <trkpt lat="39.494939" lon="2.951536">
        <ele>185</ele>
        <time>2016-04-18T13:55:00Z</time>
      </trkpt>
      <trkpt lat="39.494902" lon="2.951481">
        <ele>185.4</ele>
        <time>2016-04-18T13:55:01Z</time>
      </trkpt>
      <trkpt lat="39.49464" lon="2.951148">
        <ele>185.4</ele>
        <time>2016-04-18T13:55:07Z</time>
      </trkpt>
      <trkpt lat="39.494452" lon="2.950912">
        <ele>185.4</ele>
        <time>2016-04-18T13:55:11Z</time>
      </trkpt>
      <trkpt lat="39.494317" lon="2.950745">
        <ele>185.4</ele>
        <time>2016-04-18T13:55:14Z</time>
      </trkpt>
      <trkpt lat="39.494015" lon="2.950362">
        <ele>185.4</ele>
        <time>2016-04-18T13:55:20Z</time>
      </trkpt>
      <trkpt lat="39.493824" lon="2.950068">
        <ele>185.4</ele>
        <time>2016-04-18T13:55:24Z</time>
      </trkpt>
      <trkpt lat="39.493777" lon="2.949991">
        <ele>185</ele>
        <time>2016-04-18T13:55:25Z</time>
      </trkpt>
      <trkpt lat="39.493728" lon="2.949911">
        <ele>184.6</ele>
        <time>2016-04-18T13:55:26Z</time>
      </trkpt>
      <trkpt lat="39.493682" lon="2.949834">
        <ele>184.2</ele>
        <time>2016-04-18T13:55:27Z</time>
      </trkpt>
      <trkpt lat="39.493638" lon="2.949756">
        <ele>183.6</ele>
        <time>2016-04-18T13:55:28Z</time>
      </trkpt>
      <trkpt lat="39.493593" lon="2.94968">
        <ele>183.2</ele>
        <time>2016-04-18T13:55:29Z</time>
      </trkpt>
      <trkpt lat="39.493415" lon="2.949375">
        <ele>183.2</ele>
        <time>2016-04-18T13:55:33Z</time>
      </trkpt>
      <trkpt lat="39.493109" lon="2.948884">
        <ele>183.2</ele>
        <time>2016-04-18T13:55:40Z</time>
      </trkpt>
      <trkpt lat="39.493009" lon="2.948761">
        <ele>183.8</ele>
        <time>2016-04-18T13:55:42Z</time>
      </trkpt>
      <trkpt lat="39.49296" lon="2.948704">
        <ele>184.2</ele>
        <time>2016-04-18T13:55:43Z</time>
      </trkpt>
      <trkpt lat="39.49292" lon="2.948644">
        <ele>184.6</ele>
        <time>2016-04-18T13:55:44Z</time>
      </trkpt>
      <trkpt lat="39.492892" lon="2.948574">
        <ele>185.2</ele>
        <time>2016-04-18T13:55:45Z</time>
      </trkpt>
      <trkpt lat="39.492866" lon="2.948501">
        <ele>185.6</ele>
        <time>2016-04-18T13:55:46Z</time>
      </trkpt>
      <trkpt lat="39.492788" lon="2.948362">
        <ele>185.6</ele>
        <time>2016-04-18T13:55:48Z</time>
      </trkpt>
      <trkpt lat="39.492743" lon="2.94829">
        <ele>186</ele>
        <time>2016-04-18T13:55:49Z</time>
      </trkpt>
      <trkpt lat="39.492704" lon="2.948224">
        <ele>186.6</ele>
        <time>2016-04-18T13:55:50Z</time>
      </trkpt>
      <trkpt lat="39.492665" lon="2.948155">
        <ele>187</ele>
        <time>2016-04-18T13:55:51Z</time>
      </trkpt>
      <trkpt lat="39.492625" lon="2.948087">
        <ele>187.4</ele>
        <time>2016-04-18T13:55:52Z</time>
      </trkpt>
      <trkpt lat="39.492584" lon="2.94802">
        <ele>187.8</ele>
        <time>2016-04-18T13:55:53Z</time>
      </trkpt>
      <trkpt lat="39.492501" lon="2.947882">
        <ele>188.2</ele>
        <time>2016-04-18T13:55:55Z</time>
      </trkpt>
      <trkpt lat="39.49246" lon="2.947814">
        <ele>188.6</ele>
        <time>2016-04-18T13:55:56Z</time>
      </trkpt>
      <trkpt lat="39.492417" lon="2.947744">
        <ele>189.2</ele>
        <time>2016-04-18T13:55:57Z</time>
      </trkpt>
      <trkpt lat="39.492376" lon="2.947679">
        <ele>189.6</ele>
        <time>2016-04-18T13:55:58Z</time>
      </trkpt>
      <trkpt lat="39.492333" lon="2.947615">
        <ele>190</ele>
        <time>2016-04-18T13:55:59Z</time>
      </trkpt>
      <trkpt lat="39.492155" lon="2.94736">
        <ele>190.4</ele>
        <time>2016-04-18T13:56:03Z</time>
      </trkpt>
      <trkpt lat="39.492106" lon="2.947299">
        <ele>190.8</ele>
        <time>2016-04-18T13:56:04Z</time>
      </trkpt>
      <trkpt lat="39.492053" lon="2.947236">
        <ele>191.2</ele>
        <time>2016-04-18T13:56:05Z</time>
      </trkpt>
      <trkpt lat="39.492004" lon="2.947178">
        <ele>191.6</ele>
        <time>2016-04-18T13:56:06Z</time>
      </trkpt>
      <trkpt lat="39.491953" lon="2.947117">
        <ele>192</ele>
        <time>2016-04-18T13:56:07Z</time>
      </trkpt>
      <trkpt lat="39.491844" lon="2.947004">
        <ele>192</ele>
        <time>2016-04-18T13:56:09Z</time>
      </trkpt>
      <trkpt lat="39.491654" lon="2.946836">
        <ele>192</ele>
        <time>2016-04-18T13:56:12Z</time>
      </trkpt>
      <trkpt lat="39.491586" lon="2.946769">
        <ele>191.6</ele>
        <time>2016-04-18T13:56:13Z</time>
      </trkpt>
      <trkpt lat="39.491517" lon="2.946698">
        <ele>191</ele>
        <time>2016-04-18T13:56:14Z</time>
      </trkpt>
      <trkpt lat="39.491447" lon="2.946626">
        <ele>190.4</ele>
        <time>2016-04-18T13:56:15Z</time>
      </trkpt>
      <trkpt lat="39.491378" lon="2.946557">
        <ele>189.8</ele>
        <time>2016-04-18T13:56:16Z</time>
      </trkpt>
      <trkpt lat="39.491307" lon="2.946489">
        <ele>189</ele>
        <time>2016-04-18T13:56:17Z</time>
      </trkpt>
      <trkpt lat="39.491237" lon="2.946422">
        <ele>188.4</ele>
        <time>2016-04-18T13:56:18Z</time>
      </trkpt>
      <trkpt lat="39.491164" lon="2.946357">
        <ele>187.8</ele>
        <time>2016-04-18T13:56:19Z</time>
      </trkpt>
      <trkpt lat="39.491089" lon="2.946288">
        <ele>187</ele>
        <time>2016-04-18T13:56:20Z</time>
      </trkpt>
      <trkpt lat="39.490879" lon="2.946094">
        <ele>187</ele>
        <time>2016-04-18T13:56:23Z</time>
      </trkpt>
      <trkpt lat="39.490543" lon="2.945701">
        <ele>186.6</ele>
        <time>2016-04-18T13:56:28Z</time>
      </trkpt>
      <trkpt lat="39.490493" lon="2.945598">
        <ele>186.2</ele>
        <time>2016-04-18T13:56:29Z</time>
      </trkpt>
      <trkpt lat="39.490442" lon="2.945492">
        <ele>185.8</ele>
        <time>2016-04-18T13:56:30Z</time>
      </trkpt>
      <trkpt lat="39.490387" lon="2.945392">
        <ele>185.4</ele>
        <time>2016-04-18T13:56:31Z</time>
      </trkpt>
      <trkpt lat="39.490327" lon="2.945288">
        <ele>185</ele>
        <time>2016-04-18T13:56:32Z</time>
      </trkpt>
      <trkpt lat="39.490117" lon="2.94483">
        <ele>185</ele>
        <time>2016-04-18T13:56:36Z</time>
      </trkpt>
      <trkpt lat="39.489982" lon="2.944458">
        <ele>184.4</ele>
        <time>2016-04-18T13:56:39Z</time>
      </trkpt>
      <trkpt lat="39.489938" lon="2.944326">
        <ele>184</ele>
        <time>2016-04-18T13:56:40Z</time>
      </trkpt>
      <trkpt lat="39.489893" lon="2.94419">
        <ele>183.4</ele>
        <time>2016-04-18T13:56:41Z</time>
      </trkpt>
      <trkpt lat="39.489846" lon="2.944056">
        <ele>182.8</ele>
        <time>2016-04-18T13:56:42Z</time>
      </trkpt>
      <trkpt lat="39.4898" lon="2.943921">
        <ele>182.2</ele>
        <time>2016-04-18T13:56:43Z</time>
      </trkpt>
      <trkpt lat="39.489755" lon="2.943781">
        <ele>181.6</ele>
        <time>2016-04-18T13:56:44Z</time>
      </trkpt>
      <trkpt lat="39.489717" lon="2.94365">
        <ele>181</ele>
        <time>2016-04-18T13:56:45Z</time>
      </trkpt>
      <trkpt lat="39.489684" lon="2.943522">
        <ele>180.4</ele>
        <time>2016-04-18T13:56:46Z</time>
      </trkpt>
      <trkpt lat="39.489617" lon="2.943274">
        <ele>180.4</ele>
        <time>2016-04-18T13:56:48Z</time>
      </trkpt>
      <trkpt lat="39.489372" lon="2.942548">
        <ele>180.4</ele>
        <time>2016-04-18T13:56:54Z</time>
      </trkpt>
      <trkpt lat="39.489332" lon="2.942429">
        <ele>180.4</ele>
        <time>2016-04-18T13:56:55Z</time>
      </trkpt>
      <trkpt lat="39.489147" lon="2.941717">
        <ele>180.4</ele>
        <time>2016-04-18T13:57:01Z</time>
      </trkpt>
      <trkpt lat="39.488979" lon="2.940987">
        <ele>180.4</ele>
        <time>2016-04-18T13:57:07Z</time>
      </trkpt>
      <trkpt lat="39.488927" lon="2.940744">
        <ele>180.4</ele>
        <time>2016-04-18T13:57:09Z</time>
      </trkpt>
      <trkpt lat="39.488736" lon="2.940154">
        <ele>180.4</ele>
        <time>2016-04-18T13:57:14Z</time>
      </trkpt>
      <trkpt lat="39.488497" lon="2.939701">
        <ele>179.8</ele>
        <time>2016-04-18T13:57:18Z</time>
      </trkpt>
      <trkpt lat="39.488436" lon="2.939584">
        <ele>179.2</ele>
        <time>2016-04-18T13:57:19Z</time>
      </trkpt>
      <trkpt lat="39.488374" lon="2.939465">
        <ele>178.8</ele>
        <time>2016-04-18T13:57:20Z</time>
      </trkpt>
      <trkpt lat="39.488312" lon="2.939343">
        <ele>178.2</ele>
        <time>2016-04-18T13:57:21Z</time>
      </trkpt>
      <trkpt lat="39.488251" lon="2.939217">
        <ele>177.6</ele>
        <time>2016-04-18T13:57:22Z</time>
      </trkpt>
      <trkpt lat="39.488185" lon="2.939079">
        <ele>177.2</ele>
        <time>2016-04-18T13:57:23Z</time>
      </trkpt>
      <trkpt lat="39.488121" lon="2.938947">
        <ele>176.6</ele>
        <time>2016-04-18T13:57:24Z</time>
      </trkpt>
      <trkpt lat="39.488053" lon="2.938816">
        <ele>176.2</ele>
        <time>2016-04-18T13:57:25Z</time>
      </trkpt>
      <trkpt lat="39.487981" lon="2.938688">
        <ele>175.6</ele>
        <time>2016-04-18T13:57:26Z</time>
      </trkpt>
      <trkpt lat="39.487908" lon="2.938561">
        <ele>175</ele>
        <time>2016-04-18T13:57:27Z</time>
      </trkpt>
      <trkpt lat="39.487836" lon="2.938433">
        <ele>174.4</ele>
        <time>2016-04-18T13:57:28Z</time>
      </trkpt>
      <trkpt lat="39.487769" lon="2.938297">
        <ele>173.8</ele>
        <time>2016-04-18T13:57:29Z</time>
      </trkpt>
      <trkpt lat="39.48772" lon="2.938149">
        <ele>173.2</ele>
        <time>2016-04-18T13:57:30Z</time>
      </trkpt>
      <trkpt lat="39.487693" lon="2.937983">
        <ele>172.6</ele>
        <time>2016-04-18T13:57:31Z</time>
      </trkpt>
      <trkpt lat="39.487687" lon="2.937822">
        <ele>172</ele>
        <time>2016-04-18T13:57:32Z</time>
      </trkpt>
      <trkpt lat="39.487686" lon="2.93766">
        <ele>171.4</ele>
        <time>2016-04-18T13:57:33Z</time>
      </trkpt>
      <trkpt lat="39.48769" lon="2.937499">
        <ele>170.8</ele>
        <time>2016-04-18T13:57:34Z</time>
      </trkpt>
      <trkpt lat="39.487691" lon="2.937337">
        <ele>170.2</ele>
        <time>2016-04-18T13:57:35Z</time>
      </trkpt>
      <trkpt lat="39.487689" lon="2.937177">
        <ele>169.8</ele>
        <time>2016-04-18T13:57:36Z</time>
      </trkpt>
      <trkpt lat="39.487684" lon="2.937019">
        <ele>169.2</ele>
        <time>2016-04-18T13:57:37Z</time>
      </trkpt>
      <trkpt lat="39.487678" lon="2.936859">
        <ele>168.6</ele>
        <time>2016-04-18T13:57:38Z</time>
      </trkpt>
      <trkpt lat="39.487668" lon="2.936692">
        <ele>167.6</ele>
        <time>2016-04-18T13:57:39Z</time>
      </trkpt>
      <trkpt lat="39.487649" lon="2.936531">
        <ele>167.2</ele>
        <time>2016-04-18T13:57:40Z</time>
      </trkpt>
      <trkpt lat="39.487627" lon="2.936372">
        <ele>166.6</ele>
        <time>2016-04-18T13:57:41Z</time>
      </trkpt>
      <trkpt lat="39.487605" lon="2.936213">
        <ele>166</ele>
        <time>2016-04-18T13:57:42Z</time>
      </trkpt>
      <trkpt lat="39.487583" lon="2.936052">
        <ele>165.4</ele>
        <time>2016-04-18T13:57:43Z</time>
      </trkpt>
      <trkpt lat="39.487555" lon="2.935894">
        <ele>164.6</ele>
        <time>2016-04-18T13:57:44Z</time>
      </trkpt>
      <trkpt lat="39.48753" lon="2.935734">
        <ele>163.8</ele>
        <time>2016-04-18T13:57:45Z</time>
      </trkpt>
      <trkpt lat="39.487506" lon="2.935571">
        <ele>163.2</ele>
        <time>2016-04-18T13:57:46Z</time>
      </trkpt>
      <trkpt lat="39.487481" lon="2.9354">
        <ele>162.2</ele>
        <time>2016-04-18T13:57:47Z</time>
      </trkpt>
      <trkpt lat="39.487456" lon="2.935233">
        <ele>161.4</ele>
        <time>2016-04-18T13:57:48Z</time>
      </trkpt>
      <trkpt lat="39.487431" lon="2.935066">
        <ele>160.6</ele>
        <time>2016-04-18T13:57:49Z</time>
      </trkpt>
      <trkpt lat="39.487406" lon="2.934899">
        <ele>159.8</ele>
        <time>2016-04-18T13:57:50Z</time>
      </trkpt>
      <trkpt lat="39.487382" lon="2.93473">
        <ele>159.2</ele>
        <time>2016-04-18T13:57:51Z</time>
      </trkpt>
      <trkpt lat="39.48736" lon="2.93456">
        <ele>158.6</ele>
        <time>2016-04-18T13:57:52Z</time>
      </trkpt>
      <trkpt lat="39.487336" lon="2.934387">
        <ele>158</ele>
        <time>2016-04-18T13:57:53Z</time>
      </trkpt>
      <trkpt lat="39.48732" lon="2.934204">
        <ele>157.2</ele>
        <time>2016-04-18T13:57:54Z</time>
      </trkpt>
      <trkpt lat="39.487313" lon="2.934026">
        <ele>156.6</ele>
        <time>2016-04-18T13:57:55Z</time>
      </trkpt>
      <trkpt lat="39.487309" lon="2.933848">
        <ele>156</ele>
        <time>2016-04-18T13:57:56Z</time>
      </trkpt>
      <trkpt lat="39.487307" lon="2.933673">
        <ele>155.2</ele>
        <time>2016-04-18T13:57:57Z</time>
      </trkpt>
      <trkpt lat="39.487304" lon="2.933496">
        <ele>154.4</ele>
        <time>2016-04-18T13:57:58Z</time>
      </trkpt>
      <trkpt lat="39.487303" lon="2.933319">
        <ele>153.6</ele>
        <time>2016-04-18T13:57:59Z</time>
      </trkpt>
      <trkpt lat="39.4873" lon="2.93314">
        <ele>152.8</ele>
        <time>2016-04-18T13:58:00Z</time>
      </trkpt>
      <trkpt lat="39.487299" lon="2.932963">
        <ele>152</ele>
        <time>2016-04-18T13:58:01Z</time>
      </trkpt>
      <trkpt lat="39.487296" lon="2.932603">
        <ele>151</ele>
        <time>2016-04-18T13:58:03Z</time>
      </trkpt>
      <trkpt lat="39.487295" lon="2.932421">
        <ele>150.6</ele>
        <time>2016-04-18T13:58:04Z</time>
      </trkpt>
      <trkpt lat="39.487294" lon="2.932237">
        <ele>150</ele>
        <time>2016-04-18T13:58:05Z</time>
      </trkpt>
      <trkpt lat="39.487291" lon="2.932059">
        <ele>149.4</ele>
        <time>2016-04-18T13:58:06Z</time>
      </trkpt>
      <trkpt lat="39.487288" lon="2.931878">
        <ele>148.6</ele>
        <time>2016-04-18T13:58:07Z</time>
      </trkpt>
      <trkpt lat="39.487285" lon="2.931699">
        <ele>147.8</ele>
        <time>2016-04-18T13:58:08Z</time>
      </trkpt>
      <trkpt lat="39.487283" lon="2.931515">
        <ele>147</ele>
        <time>2016-04-18T13:58:09Z</time>
      </trkpt>
      <trkpt lat="39.487283" lon="2.931339">
        <ele>146.2</ele>
        <time>2016-04-18T13:58:10Z</time>
      </trkpt>
      <trkpt lat="39.487282" lon="2.931163">
        <ele>145.4</ele>
        <time>2016-04-18T13:58:11Z</time>
      </trkpt>
      <trkpt lat="39.487277" lon="2.930813">
        <ele>145.4</ele>
        <time>2016-04-18T13:58:13Z</time>
      </trkpt>
      <trkpt lat="39.487272" lon="2.930461">
        <ele>145</ele>
        <time>2016-04-18T13:58:15Z</time>
      </trkpt>
      <trkpt lat="39.487269" lon="2.930284">
        <ele>144.4</ele>
        <time>2016-04-18T13:58:16Z</time>
      </trkpt>
      <trkpt lat="39.487266" lon="2.93011">
        <ele>144</ele>
        <time>2016-04-18T13:58:17Z</time>
      </trkpt>
      <trkpt lat="39.48726" lon="2.929929">
        <ele>143.4</ele>
        <time>2016-04-18T13:58:18Z</time>
      </trkpt>
      <trkpt lat="39.487258" lon="2.929761">
        <ele>142.8</ele>
        <time>2016-04-18T13:58:19Z</time>
      </trkpt>
      <trkpt lat="39.487255" lon="2.929593">
        <ele>142</ele>
        <time>2016-04-18T13:58:20Z</time>
      </trkpt>
      <trkpt lat="39.48725" lon="2.929425">
        <ele>141.4</ele>
        <time>2016-04-18T13:58:21Z</time>
      </trkpt>
      <trkpt lat="39.487243" lon="2.929255">
        <ele>140.8</ele>
        <time>2016-04-18T13:58:22Z</time>
      </trkpt>
      <trkpt lat="39.487235" lon="2.929087">
        <ele>140.8</ele>
        <time>2016-04-18T13:58:23Z</time>
      </trkpt>
      <trkpt lat="39.487228" lon="2.92892">
        <ele>140.4</ele>
        <time>2016-04-18T13:58:24Z</time>
      </trkpt>
      <trkpt lat="39.487215" lon="2.928753">
        <ele>140</ele>
        <time>2016-04-18T13:58:25Z</time>
      </trkpt>
      <trkpt lat="39.4872" lon="2.928579">
        <ele>139.6</ele>
        <time>2016-04-18T13:58:26Z</time>
      </trkpt>
      <trkpt lat="39.487187" lon="2.92842">
        <ele>139</ele>
        <time>2016-04-18T13:58:27Z</time>
      </trkpt>
      <trkpt lat="39.487175" lon="2.928263">
        <ele>138.6</ele>
        <time>2016-04-18T13:58:28Z</time>
      </trkpt>
      <trkpt lat="39.487148" lon="2.927959">
        <ele>138.6</ele>
        <time>2016-04-18T13:58:30Z</time>
      </trkpt>
      <trkpt lat="39.487117" lon="2.927534">
        <ele>139.2</ele>
        <time>2016-04-18T13:58:33Z</time>
      </trkpt>
      <trkpt lat="39.487108" lon="2.927392">
        <ele>139.6</ele>
        <time>2016-04-18T13:58:34Z</time>
      </trkpt>
      <trkpt lat="39.487099" lon="2.927257">
        <ele>140.2</ele>
        <time>2016-04-18T13:58:35Z</time>
      </trkpt>
      <trkpt lat="39.48709" lon="2.92712">
        <ele>140.8</ele>
        <time>2016-04-18T13:58:36Z</time>
      </trkpt>
      <trkpt lat="39.487079" lon="2.926986">
        <ele>141.4</ele>
        <time>2016-04-18T13:58:37Z</time>
      </trkpt>
      <trkpt lat="39.487068" lon="2.926852">
        <ele>142</ele>
        <time>2016-04-18T13:58:38Z</time>
      </trkpt>
      <trkpt lat="39.487057" lon="2.926722">
        <ele>142.6</ele>
        <time>2016-04-18T13:58:39Z</time>
      </trkpt>
      <trkpt lat="39.487046" lon="2.926594">
        <ele>143.4</ele>
        <time>2016-04-18T13:58:40Z</time>
      </trkpt>
      <trkpt lat="39.487034" lon="2.926468">
        <ele>144.2</ele>
        <time>2016-04-18T13:58:41Z</time>
      </trkpt>
      <trkpt lat="39.487022" lon="2.92634">
        <ele>144.8</ele>
        <time>2016-04-18T13:58:42Z</time>
      </trkpt>
      <trkpt lat="39.487011" lon="2.926222">
        <ele>145.6</ele>
        <time>2016-04-18T13:58:43Z</time>
      </trkpt>
      <trkpt lat="39.487001" lon="2.926107">
        <ele>146.4</ele>
        <time>2016-04-18T13:58:44Z</time>
      </trkpt>
      <trkpt lat="39.486994" lon="2.925993">
        <ele>147.2</ele>
        <time>2016-04-18T13:58:45Z</time>
      </trkpt>
      <trkpt lat="39.486987" lon="2.92588">
        <ele>148</ele>
        <time>2016-04-18T13:58:46Z</time>
      </trkpt>
      <trkpt lat="39.486914" lon="2.92512">
        <ele>148</ele>
        <time>2016-04-18T13:58:52Z</time>
      </trkpt>
      <trkpt lat="39.486901" lon="2.924981">
        <ele>147.4</ele>
        <time>2016-04-18T13:58:53Z</time>
      </trkpt>
      <trkpt lat="39.486892" lon="2.924841">
        <ele>146.8</ele>
        <time>2016-04-18T13:58:54Z</time>
      </trkpt>
      <trkpt lat="39.486881" lon="2.924702">
        <ele>146.4</ele>
        <time>2016-04-18T13:58:55Z</time>
      </trkpt>
      <trkpt lat="39.486873" lon="2.924561">
        <ele>145.8</ele>
        <time>2016-04-18T13:58:56Z</time>
      </trkpt>
      <trkpt lat="39.486867" lon="2.92441">
        <ele>145.2</ele>
        <time>2016-04-18T13:58:57Z</time>
      </trkpt>
      <trkpt lat="39.486856" lon="2.924266">
        <ele>144.6</ele>
        <time>2016-04-18T13:58:58Z</time>
      </trkpt>
      <trkpt lat="39.486844" lon="2.924122">
        <ele>144</ele>
        <time>2016-04-18T13:58:59Z</time>
      </trkpt>
      <trkpt lat="39.486833" lon="2.923981">
        <ele>143.4</ele>
        <time>2016-04-18T13:59:00Z</time>
      </trkpt>
      <trkpt lat="39.486824" lon="2.92384">
        <ele>142.8</ele>
        <time>2016-04-18T13:59:01Z</time>
      </trkpt>
      <trkpt lat="39.486773" lon="2.923161">
        <ele>142.8</ele>
        <time>2016-04-18T13:59:06Z</time>
      </trkpt>
      <trkpt lat="39.486752" lon="2.922897">
        <ele>142.4</ele>
        <time>2016-04-18T13:59:08Z</time>
      </trkpt>
      <trkpt lat="39.486742" lon="2.922763">
        <ele>142</ele>
        <time>2016-04-18T13:59:09Z</time>
      </trkpt>
      <trkpt lat="39.486731" lon="2.922629">
        <ele>141.6</ele>
        <time>2016-04-18T13:59:10Z</time>
      </trkpt>
      <trkpt lat="39.486721" lon="2.922499">
        <ele>141.2</ele>
        <time>2016-04-18T13:59:11Z</time>
      </trkpt>
      <trkpt lat="39.486712" lon="2.922361">
        <ele>140.6</ele>
        <time>2016-04-18T13:59:12Z</time>
      </trkpt>
      <trkpt lat="39.486693" lon="2.922095">
        <ele>140.6</ele>
        <time>2016-04-18T13:59:14Z</time>
      </trkpt>
      <trkpt lat="39.486629" lon="2.921317">
        <ele>140.6</ele>
        <time>2016-04-18T13:59:20Z</time>
      </trkpt>
      <trkpt lat="39.486601" lon="2.920926">
        <ele>140.6</ele>
        <time>2016-04-18T13:59:23Z</time>
      </trkpt>
      <trkpt lat="39.486535" lon="2.920145">
        <ele>140.6</ele>
        <time>2016-04-18T13:59:29Z</time>
      </trkpt>
      <trkpt lat="39.486477" lon="2.919384">
        <ele>140.6</ele>
        <time>2016-04-18T13:59:35Z</time>
      </trkpt>
      <trkpt lat="39.48646" lon="2.919139">
        <ele>140.6</ele>
        <time>2016-04-18T13:59:37Z</time>
      </trkpt>
      <trkpt lat="39.486468" lon="2.918399">
        <ele>140.6</ele>
        <time>2016-04-18T13:59:43Z</time>
      </trkpt>
      <trkpt lat="39.486563" lon="2.917675">
        <ele>140.6</ele>
        <time>2016-04-18T13:59:49Z</time>
      </trkpt>
      <trkpt lat="39.486579" lon="2.917557">
        <ele>140.6</ele>
        <time>2016-04-18T13:59:50Z</time>
      </trkpt>
      <trkpt lat="39.486683" lon="2.916848">
        <ele>140.6</ele>
        <time>2016-04-18T13:59:56Z</time>
      </trkpt>
      <trkpt lat="39.486734" lon="2.916485">
        <ele>140.6</ele>
        <time>2016-04-18T13:59:59Z</time>
      </trkpt>
      <trkpt lat="39.486833" lon="2.915772">
        <ele>140.6</ele>
        <time>2016-04-18T14:00:05Z</time>
      </trkpt>
      <trkpt lat="39.486885" lon="2.915415">
        <ele>140.6</ele>
        <time>2016-04-18T14:00:08Z</time>
      </trkpt>
      <trkpt lat="39.486988" lon="2.914696">
        <ele>140.6</ele>
        <time>2016-04-18T14:00:14Z</time>
      </trkpt>
      <trkpt lat="39.487043" lon="2.914335">
        <ele>140.6</ele>
        <time>2016-04-18T14:00:17Z</time>
      </trkpt>
      <trkpt lat="39.487148" lon="2.913607">
        <ele>140.6</ele>
        <time>2016-04-18T14:00:23Z</time>
      </trkpt>
      <trkpt lat="39.487182" lon="2.913361">
        <ele>140.6</ele>
        <time>2016-04-18T14:00:25Z</time>
      </trkpt>
      <trkpt lat="39.487289" lon="2.912616">
        <ele>140.6</ele>
        <time>2016-04-18T14:00:31Z</time>
      </trkpt>
      <trkpt lat="39.487341" lon="2.912251">
        <ele>140.6</ele>
        <time>2016-04-18T14:00:34Z</time>
      </trkpt>
      <trkpt lat="39.487447" lon="2.911523">
        <ele>140.6</ele>
        <time>2016-04-18T14:00:40Z</time>
      </trkpt>
      <trkpt lat="39.487499" lon="2.911157">
        <ele>140.6</ele>
        <time>2016-04-18T14:00:43Z</time>
      </trkpt>
      <trkpt lat="39.487598" lon="2.91044">
        <ele>140.6</ele>
        <time>2016-04-18T14:00:49Z</time>
      </trkpt>
      <trkpt lat="39.487616" lon="2.910327">
        <ele>140.6</ele>
        <time>2016-04-18T14:00:50Z</time>
      </trkpt>
      <trkpt lat="39.487718" lon="2.909626">
        <ele>140.6</ele>
        <time>2016-04-18T14:00:56Z</time>
      </trkpt>
      <trkpt lat="39.487763" lon="2.909279">
        <ele>140.6</ele>
        <time>2016-04-18T14:00:59Z</time>
      </trkpt>
      <trkpt lat="39.48781" lon="2.908528">
        <ele>140.6</ele>
        <time>2016-04-18T14:01:05Z</time>
      </trkpt>
      <trkpt lat="39.487818" lon="2.907717">
        <ele>140.6</ele>
        <time>2016-04-18T14:01:11Z</time>
      </trkpt>
      <trkpt lat="39.487819" lon="2.907578">
        <ele>140.6</ele>
        <time>2016-04-18T14:01:12Z</time>
      </trkpt>
      <trkpt lat="39.487828" lon="2.906876">
        <ele>140.6</ele>
        <time>2016-04-18T14:01:17Z</time>
      </trkpt>
      <trkpt lat="39.487854" lon="2.906309">
        <ele>139.8</ele>
        <time>2016-04-18T14:01:21Z</time>
      </trkpt>
      <trkpt lat="39.487871" lon="2.906167">
        <ele>139.4</ele>
        <time>2016-04-18T14:01:22Z</time>
      </trkpt>
      <trkpt lat="39.487893" lon="2.906025">
        <ele>138.8</ele>
        <time>2016-04-18T14:01:23Z</time>
      </trkpt>
      <trkpt lat="39.487922" lon="2.905877">
        <ele>138.4</ele>
        <time>2016-04-18T14:01:24Z</time>
      </trkpt>
      <trkpt lat="39.487992" lon="2.905604">
        <ele>138.4</ele>
        <time>2016-04-18T14:01:26Z</time>
      </trkpt>
      <trkpt lat="39.488245" lon="2.904966">
        <ele>138.4</ele>
        <time>2016-04-18T14:01:31Z</time>
      </trkpt>
      <trkpt lat="39.488504" lon="2.904338">
        <ele>138.4</ele>
        <time>2016-04-18T14:01:36Z</time>
      </trkpt>
      <trkpt lat="39.488595" lon="2.904091">
        <ele>138.4</ele>
        <time>2016-04-18T14:01:38Z</time>
      </trkpt>
      <trkpt lat="39.48863" lon="2.90396">
        <ele>138</ele>
        <time>2016-04-18T14:01:39Z</time>
      </trkpt>
      <trkpt lat="39.488666" lon="2.903826">
        <ele>137.6</ele>
        <time>2016-04-18T14:01:40Z</time>
      </trkpt>
      <trkpt lat="39.488697" lon="2.903695">
        <ele>137.2</ele>
        <time>2016-04-18T14:01:41Z</time>
      </trkpt>
      <trkpt lat="39.488722" lon="2.903564">
        <ele>136.8</ele>
        <time>2016-04-18T14:01:42Z</time>
      </trkpt>
      <trkpt lat="39.488743" lon="2.90343">
        <ele>136.4</ele>
        <time>2016-04-18T14:01:43Z</time>
      </trkpt>
      <trkpt lat="39.488795" lon="2.902871">
        <ele>136.4</ele>
        <time>2016-04-18T14:01:47Z</time>
      </trkpt>
      <trkpt lat="39.488847" lon="2.902245">
        <ele>136.4</ele>
        <time>2016-04-18T14:01:51Z</time>
      </trkpt>
      <trkpt lat="39.488895" lon="2.901626">
        <ele>136.4</ele>
        <time>2016-04-18T14:01:55Z</time>
      </trkpt>
      <trkpt lat="39.488962" lon="2.900803">
        <ele>136.4</ele>
        <time>2016-04-18T14:02:01Z</time>
      </trkpt>
      <trkpt lat="39.488979" lon="2.900537">
        <ele>136.8</ele>
        <time>2016-04-18T14:02:03Z</time>
      </trkpt>
      <trkpt lat="39.488993" lon="2.900412">
        <ele>137.2</ele>
        <time>2016-04-18T14:02:04Z</time>
      </trkpt>
      <trkpt lat="39.489008" lon="2.900288">
        <ele>137.8</ele>
        <time>2016-04-18T14:02:05Z</time>
      </trkpt>
      <trkpt lat="39.489018" lon="2.900164">
        <ele>138.2</ele>
        <time>2016-04-18T14:02:06Z</time>
      </trkpt>
      <trkpt lat="39.48903" lon="2.900043">
        <ele>138.6</ele>
        <time>2016-04-18T14:02:07Z</time>
      </trkpt>
      <trkpt lat="39.489073" lon="2.899731">
        <ele>138.6</ele>
        <time>2016-04-18T14:02:10Z</time>
      </trkpt>
      <trkpt lat="39.489114" lon="2.899645">
        <ele>138.6</ele>
        <time>2016-04-18T14:02:11Z</time>
      </trkpt>
      <trkpt lat="39.489261" lon="2.899339">
        <ele>138.6</ele>
        <time>2016-04-18T14:02:15Z</time>
      </trkpt>
      <trkpt lat="39.489276" lon="2.899251">
        <ele>138.6</ele>
        <time>2016-04-18T14:02:16Z</time>
      </trkpt>
      <trkpt lat="39.489337" lon="2.898978">
        <ele>138.6</ele>
        <time>2016-04-18T14:02:19Z</time>
      </trkpt>
      <trkpt lat="39.489369" lon="2.898895">
        <ele>138.6</ele>
        <time>2016-04-18T14:02:20Z</time>
      </trkpt>
      <trkpt lat="39.489513" lon="2.898576">
        <ele>138.6</ele>
        <time>2016-04-18T14:02:24Z</time>
      </trkpt>
      <trkpt lat="39.489625" lon="2.898339">
        <ele>138.6</ele>
        <time>2016-04-18T14:02:27Z</time>
      </trkpt>
      <trkpt lat="39.489822" lon="2.897876">
        <ele>138.6</ele>
        <time>2016-04-18T14:02:33Z</time>
      </trkpt>
      <trkpt lat="39.489914" lon="2.89765">
        <ele>139</ele>
        <time>2016-04-18T14:02:36Z</time>
      </trkpt>
      <trkpt lat="39.489944" lon="2.897582">
        <ele>139.4</ele>
        <time>2016-04-18T14:02:37Z</time>
      </trkpt>
      <trkpt lat="39.489983" lon="2.897531">
        <ele>139.8</ele>
        <time>2016-04-18T14:02:38Z</time>
      </trkpt>
      <trkpt lat="39.49002" lon="2.897489">
        <ele>140.4</ele>
        <time>2016-04-18T14:02:39Z</time>
      </trkpt>
      <trkpt lat="39.490051" lon="2.897463">
        <ele>140.8</ele>
        <time>2016-04-18T14:02:40Z</time>
      </trkpt>
      <trkpt lat="39.490078" lon="2.897455">
        <ele>140.8</ele>
        <time>2016-04-18T14:02:41Z</time>
      </trkpt>
      <trkpt lat="39.490114" lon="2.897477">
        <ele>140.8</ele>
        <time>2016-04-18T14:02:42Z</time>
      </trkpt>
      <trkpt lat="39.490259" lon="2.897601">
        <ele>140.8</ele>
        <time>2016-04-18T14:02:45Z</time>
      </trkpt>
      <trkpt lat="39.490344" lon="2.897688">
        <ele>140.8</ele>
        <time>2016-04-18T14:02:47Z</time>
      </trkpt>
      <trkpt lat="39.490402" lon="2.897726">
        <ele>140.8</ele>
        <time>2016-04-18T14:02:49Z</time>
      </trkpt>
      <trkpt lat="39.490433" lon="2.897716">
        <ele>140.8</ele>
        <time>2016-04-18T14:02:50Z</time>
      </trkpt>
      <trkpt lat="39.490512" lon="2.897615">
        <ele>140.8</ele>
        <time>2016-04-18T14:02:53Z</time>
      </trkpt>
      <trkpt lat="39.490574" lon="2.897503">
        <ele>140.8</ele>
        <time>2016-04-18T14:02:55Z</time>
      </trkpt>
      <trkpt lat="39.490633" lon="2.897381">
        <ele>140.8</ele>
        <time>2016-04-18T14:02:57Z</time>
      </trkpt>
      <trkpt lat="39.490842" lon="2.896931">
        <ele>140.8</ele>
        <time>2016-04-18T14:03:04Z</time>
      </trkpt>
      <trkpt lat="39.490987" lon="2.896624">
        <ele>140.8</ele>
        <time>2016-04-18T14:03:09Z</time>
      </trkpt>
      <trkpt lat="39.491039" lon="2.8965">
        <ele>140.8</ele>
        <time>2016-04-18T14:03:11Z</time>
      </trkpt>
      <trkpt lat="39.49112" lon="2.896327">
        <ele>140.8</ele>
        <time>2016-04-18T14:03:14Z</time>
      </trkpt>
      <trkpt lat="39.491167" lon="2.896218">
        <ele>140.8</ele>
        <time>2016-04-18T14:03:16Z</time>
      </trkpt>
      <trkpt lat="39.491195" lon="2.896168">
        <ele>140.8</ele>
        <time>2016-04-18T14:03:17Z</time>
      </trkpt>
      <trkpt lat="39.491281" lon="2.895999">
        <ele>140.8</ele>
        <time>2016-04-18T14:03:20Z</time>
      </trkpt>
      <trkpt lat="39.491309" lon="2.89594">
        <ele>140.8</ele>
        <time>2016-04-18T14:03:21Z</time>
      </trkpt>
      <trkpt lat="39.49136" lon="2.89582">
        <ele>141.2</ele>
        <time>2016-04-18T14:03:23Z</time>
      </trkpt>
      <trkpt lat="39.491384" lon="2.895766">
        <ele>142</ele>
        <time>2016-04-18T14:03:24Z</time>
      </trkpt>
      <trkpt lat="39.491407" lon="2.895712">
        <ele>142.4</ele>
        <time>2016-04-18T14:03:25Z</time>
      </trkpt>
      <trkpt lat="39.491428" lon="2.895662">
        <ele>142.8</ele>
        <time>2016-04-18T14:03:26Z</time>
      </trkpt>
      <trkpt lat="39.491451" lon="2.895615">
        <ele>142.8</ele>
        <time>2016-04-18T14:03:27Z</time>
      </trkpt>
      <trkpt lat="39.491495" lon="2.89552">
        <ele>142.8</ele>
        <time>2016-04-18T14:03:29Z</time>
      </trkpt>
      <trkpt lat="39.491541" lon="2.895417">
        <ele>142.8</ele>
        <time>2016-04-18T14:03:31Z</time>
      </trkpt>
      <trkpt lat="39.491588" lon="2.895298">
        <ele>142.8</ele>
        <time>2016-04-18T14:03:33Z</time>
      </trkpt>
      <trkpt lat="39.491671" lon="2.895122">
        <ele>142.8</ele>
        <time>2016-04-18T14:03:36Z</time>
      </trkpt>
      <trkpt lat="39.491686" lon="2.895063">
        <ele>142.8</ele>
        <time>2016-04-18T14:03:37Z</time>
      </trkpt>
      <trkpt lat="39.491735" lon="2.894952">
        <ele>142.8</ele>
        <time>2016-04-18T14:03:40Z</time>
      </trkpt>
      <trkpt lat="39.491785" lon="2.894966">
        <ele>142.8</ele>
        <time>2016-04-18T14:03:42Z</time>
      </trkpt>
      <trkpt lat="39.491811" lon="2.894977">
        <ele>142.8</ele>
        <time>2016-04-18T14:03:43Z</time>
      </trkpt>
      <trkpt lat="39.491874" lon="2.895015">
        <ele>142.8</ele>
        <time>2016-04-18T14:03:45Z</time>
      </trkpt>
      <trkpt lat="39.491991" lon="2.895093">
        <ele>142.8</ele>
        <time>2016-04-18T14:03:48Z</time>
      </trkpt>
      <trkpt lat="39.492116" lon="2.895158">
        <ele>142.8</ele>
        <time>2016-04-18T14:03:52Z</time>
      </trkpt>
      <trkpt lat="39.492142" lon="2.895146">
        <ele>142.8</ele>
        <time>2016-04-18T14:03:53Z</time>
      </trkpt>
      <trkpt lat="39.492174" lon="2.895113">
        <ele>142.8</ele>
        <time>2016-04-18T14:03:54Z</time>
      </trkpt>
      <trkpt lat="39.492243" lon="2.895028">
        <ele>142.8</ele>
        <time>2016-04-18T14:03:56Z</time>
      </trkpt>
      <trkpt lat="39.492313" lon="2.894925">
        <ele>142.8</ele>
        <time>2016-04-18T14:03:58Z</time>
      </trkpt>
      <trkpt lat="39.492547" lon="2.894608">
        <ele>142.8</ele>
        <time>2016-04-18T14:04:05Z</time>
      </trkpt>
      <trkpt lat="39.49269" lon="2.894369">
        <ele>142.8</ele>
        <time>2016-04-18T14:04:10Z</time>
      </trkpt>
      <trkpt lat="39.492859" lon="2.894047">
        <ele>142.8</ele>
        <time>2016-04-18T14:04:16Z</time>
      </trkpt>
      <trkpt lat="39.49291" lon="2.893934">
        <ele>142.8</ele>
        <time>2016-04-18T14:04:18Z</time>
      </trkpt>
      <trkpt lat="39.492969" lon="2.893842">
        <ele>142.8</ele>
        <time>2016-04-18T14:04:20Z</time>
      </trkpt>
      <trkpt lat="39.492996" lon="2.893799">
        <ele>142.8</ele>
        <time>2016-04-18T14:04:21Z</time>
      </trkpt>
      <trkpt lat="39.493026" lon="2.893724">
        <ele>143.2</ele>
        <time>2016-04-18T14:04:24Z</time>
      </trkpt>
      <trkpt lat="39.493026" lon="2.893707">
        <ele>143.6</ele>
        <time>2016-04-18T14:04:25Z</time>
      </trkpt>
      <trkpt lat="39.493014" lon="2.893666">
        <ele>144</ele>
        <time>2016-04-18T14:04:26Z</time>
      </trkpt>
      <trkpt lat="39.492985" lon="2.893596">
        <ele>144.6</ele>
        <time>2016-04-18T14:04:27Z</time>
      </trkpt>
      <trkpt lat="39.492954" lon="2.893577">
        <ele>145</ele>
        <time>2016-04-18T14:04:28Z</time>
      </trkpt>
      <trkpt lat="39.492915" lon="2.893574">
        <ele>145</ele>
        <time>2016-04-18T14:04:29Z</time>
      </trkpt>
      <trkpt lat="39.49283" lon="2.893572">
        <ele>145</ele>
        <time>2016-04-18T14:04:31Z</time>
      </trkpt>
      <trkpt lat="39.492744" lon="2.893561">
        <ele>145</ele>
        <time>2016-04-18T14:04:33Z</time>
      </trkpt>
      <trkpt lat="39.492665" lon="2.893547">
        <ele>145</ele>
        <time>2016-04-18T14:04:35Z</time>
      </trkpt>
      <trkpt lat="39.492622" lon="2.89354">
        <ele>145</ele>
        <time>2016-04-18T14:04:36Z</time>
      </trkpt>
      <trkpt lat="39.492555" lon="2.893529">
        <ele>145</ele>
        <time>2016-04-18T14:04:38Z</time>
      </trkpt>
      <trkpt lat="39.49252" lon="2.893513">
        <ele>145</ele>
        <time>2016-04-18T14:04:39Z</time>
      </trkpt>
      <trkpt lat="39.492485" lon="2.893491">
        <ele>145</ele>
        <time>2016-04-18T14:04:40Z</time>
      </trkpt>
      <trkpt lat="39.492346" lon="2.893393">
        <ele>145</ele>
        <time>2016-04-18T14:04:44Z</time>
      </trkpt>
      <trkpt lat="39.492277" lon="2.893334">
        <ele>145</ele>
        <time>2016-04-18T14:04:46Z</time>
      </trkpt>
      <trkpt lat="39.492129" lon="2.893219">
        <ele>145</ele>
        <time>2016-04-18T14:04:50Z</time>
      </trkpt>
      <trkpt lat="39.492093" lon="2.893185">
        <ele>145</ele>
        <time>2016-04-18T14:04:51Z</time>
      </trkpt>
      <trkpt lat="39.492056" lon="2.893153">
        <ele>145</ele>
        <time>2016-04-18T14:04:52Z</time>
      </trkpt>
      <trkpt lat="39.492018" lon="2.893123">
        <ele>144.6</ele>
        <time>2016-04-18T14:04:53Z</time>
      </trkpt>
      <trkpt lat="39.491979" lon="2.893094">
        <ele>144.2</ele>
        <time>2016-04-18T14:04:54Z</time>
      </trkpt>
      <trkpt lat="39.491941" lon="2.893064">
        <ele>143.8</ele>
        <time>2016-04-18T14:04:55Z</time>
      </trkpt>
      <trkpt lat="39.4919" lon="2.893036">
        <ele>143.4</ele>
        <time>2016-04-18T14:04:56Z</time>
      </trkpt>
      <trkpt lat="39.491857" lon="2.893009">
        <ele>143</ele>
        <time>2016-04-18T14:04:57Z</time>
      </trkpt>
      <trkpt lat="39.491822" lon="2.892963">
        <ele>143</ele>
        <time>2016-04-18T14:04:58Z</time>
      </trkpt>
      <trkpt lat="39.491738" lon="2.892908">
        <ele>143</ele>
        <time>2016-04-18T14:05:00Z</time>
      </trkpt>
      <trkpt lat="39.491701" lon="2.892876">
        <ele>143</ele>
        <time>2016-04-18T14:05:01Z</time>
      </trkpt>
      <trkpt lat="39.491664" lon="2.89284">
        <ele>143</ele>
        <time>2016-04-18T14:05:02Z</time>
      </trkpt>
      <trkpt lat="39.491557" lon="2.892703">
        <ele>143</ele>
        <time>2016-04-18T14:05:05Z</time>
      </trkpt>
      <trkpt lat="39.491534" lon="2.892635">
        <ele>143</ele>
        <time>2016-04-18T14:05:06Z</time>
      </trkpt>
      <trkpt lat="39.491421" lon="2.89247">
        <ele>143</ele>
        <time>2016-04-18T14:05:09Z</time>
      </trkpt>
      <trkpt lat="39.49131" lon="2.892255">
        <ele>142.6</ele>
        <time>2016-04-18T14:05:13Z</time>
      </trkpt>
      <trkpt lat="39.491281" lon="2.892204">
        <ele>142.2</ele>
        <time>2016-04-18T14:05:14Z</time>
      </trkpt>
      <trkpt lat="39.491247" lon="2.89215">
        <ele>141.8</ele>
        <time>2016-04-18T14:05:15Z</time>
      </trkpt>
      <trkpt lat="39.491217" lon="2.892106">
        <ele>141.2</ele>
        <time>2016-04-18T14:05:16Z</time>
      </trkpt>
      <trkpt lat="39.491183" lon="2.892083">
        <ele>140.8</ele>
        <time>2016-04-18T14:05:17Z</time>
      </trkpt>
      <trkpt lat="39.491152" lon="2.892075">
        <ele>140.8</ele>
        <time>2016-04-18T14:05:18Z</time>
      </trkpt>
      <trkpt lat="39.491106" lon="2.892031">
        <ele>140.8</ele>
        <time>2016-04-18T14:05:20Z</time>
      </trkpt>
      <trkpt lat="39.491082" lon="2.892002">
        <ele>140.8</ele>
        <time>2016-04-18T14:05:21Z</time>
      </trkpt>
      <trkpt lat="39.491041" lon="2.891934">
        <ele>140.8</ele>
        <time>2016-04-18T14:05:23Z</time>
      </trkpt>
      <trkpt lat="39.491017" lon="2.891863">
        <ele>140.8</ele>
        <time>2016-04-18T14:05:25Z</time>
      </trkpt>
      <trkpt lat="39.491004" lon="2.89175">
        <ele>140.8</ele>
        <time>2016-04-18T14:05:27Z</time>
      </trkpt>
      <trkpt lat="39.490973" lon="2.891726">
        <ele>140.8</ele>
        <time>2016-04-18T14:05:28Z</time>
      </trkpt>
      <trkpt lat="39.490897" lon="2.891692">
        <ele>140.8</ele>
        <time>2016-04-18T14:05:30Z</time>
      </trkpt>
      <trkpt lat="39.490876" lon="2.891662">
        <ele>140.8</ele>
        <time>2016-04-18T14:05:31Z</time>
      </trkpt>
      <trkpt lat="39.490611" lon="2.891142">
        <ele>138.8</ele>
        <time>2016-04-18T14:52:03Z</time>
      </trkpt>
      <trkpt lat="39.490655" lon="2.891151">
        <ele>138.8</ele>
        <time>2016-04-18T14:52:06Z</time>
      </trkpt>
      <trkpt lat="39.490698" lon="2.891166">
        <ele>138.8</ele>
        <time>2016-04-18T14:52:08Z</time>
      </trkpt>
      <trkpt lat="39.490741" lon="2.891172">
        <ele>138.8</ele>
        <time>2016-04-18T14:52:10Z</time>
      </trkpt>
      <trkpt lat="39.490779" lon="2.89118">
        <ele>139.4</ele>
        <time>2016-04-18T14:52:12Z</time>
      </trkpt>
      <trkpt lat="39.490808" lon="2.89118">
        <ele>139.4</ele>
        <time>2016-04-18T14:52:13Z</time>
      </trkpt>
      <trkpt lat="39.490873" lon="2.891193">
        <ele>139.4</ele>
        <time>2016-04-18T14:52:15Z</time>
      </trkpt>
      <trkpt lat="39.490928" lon="2.891214">
        <ele>139.4</ele>
        <time>2016-04-18T14:52:17Z</time>
      </trkpt>
      <trkpt lat="39.490962" lon="2.891191">
        <ele>139.4</ele>
        <time>2016-04-18T14:52:18Z</time>
      </trkpt>
      <trkpt lat="39.491104" lon="2.891123">
        <ele>139.4</ele>
        <time>2016-04-18T14:52:22Z</time>
      </trkpt>
      <trkpt lat="39.491135" lon="2.891111">
        <ele>139.4</ele>
        <time>2016-04-18T14:52:23Z</time>
      </trkpt>
      <trkpt lat="39.491163" lon="2.891049">
        <ele>139.4</ele>
        <time>2016-04-18T14:52:25Z</time>
      </trkpt>
      <trkpt lat="39.491201" lon="2.891035">
        <ele>139.4</ele>
        <time>2016-04-18T14:52:26Z</time>
      </trkpt>
      <trkpt lat="39.49126" lon="2.890958">
        <ele>139.4</ele>
        <time>2016-04-18T14:52:29Z</time>
      </trkpt>
      <trkpt lat="39.491281" lon="2.890919">
        <ele>139.4</ele>
        <time>2016-04-18T14:52:30Z</time>
      </trkpt>
      <trkpt lat="39.49134" lon="2.890826">
        <ele>139.4</ele>
        <time>2016-04-18T14:52:33Z</time>
      </trkpt>
      <trkpt lat="39.491372" lon="2.890803">
        <ele>139.4</ele>
        <time>2016-04-18T14:52:34Z</time>
      </trkpt>
      <trkpt lat="39.491421" lon="2.890803">
        <ele>139.4</ele>
        <time>2016-04-18T14:52:35Z</time>
      </trkpt>
      <trkpt lat="39.491457" lon="2.890794">
        <ele>139.4</ele>
        <time>2016-04-18T14:52:36Z</time>
      </trkpt>
      <trkpt lat="39.49158" lon="2.89082">
        <ele>139.4</ele>
        <time>2016-04-18T14:52:39Z</time>
      </trkpt>
      <trkpt lat="39.491654" lon="2.890843">
        <ele>139.4</ele>
        <time>2016-04-18T14:52:41Z</time>
      </trkpt>
      <trkpt lat="39.491729" lon="2.89086">
        <ele>139.4</ele>
        <time>2016-04-18T14:52:43Z</time>
      </trkpt>
      <trkpt lat="39.491849" lon="2.890868">
        <ele>140.2</ele>
        <time>2016-04-18T14:52:46Z</time>
      </trkpt>
      <trkpt lat="39.491874" lon="2.890868">
        <ele>140.8</ele>
        <time>2016-04-18T14:52:47Z</time>
      </trkpt>
      <trkpt lat="39.491896" lon="2.890865">
        <ele>141.2</ele>
        <time>2016-04-18T14:52:48Z</time>
      </trkpt>
      <trkpt lat="39.491903" lon="2.890881">
        <ele>141.6</ele>
        <time>2016-04-18T14:52:49Z</time>
      </trkpt>
      <trkpt lat="39.491957" lon="2.890919">
        <ele>141.6</ele>
        <time>2016-04-18T14:52:51Z</time>
      </trkpt>
      <trkpt lat="39.49204" lon="2.891054">
        <ele>141.6</ele>
        <time>2016-04-18T14:52:54Z</time>
      </trkpt>
      <trkpt lat="39.492075" lon="2.891102">
        <ele>141.6</ele>
        <time>2016-04-18T14:52:55Z</time>
      </trkpt>
      <trkpt lat="39.492198" lon="2.891254">
        <ele>141.6</ele>
        <time>2016-04-18T14:52:58Z</time>
      </trkpt>
      <trkpt lat="39.4923" lon="2.891393">
        <ele>141.6</ele>
        <time>2016-04-18T14:53:01Z</time>
      </trkpt>
      <trkpt lat="39.492328" lon="2.89144">
        <ele>141.6</ele>
        <time>2016-04-18T14:53:02Z</time>
      </trkpt>
      <trkpt lat="39.492381" lon="2.891481">
        <ele>141.6</ele>
        <time>2016-04-18T14:53:03Z</time>
      </trkpt>
      <trkpt lat="39.492478" lon="2.89163">
        <ele>141.6</ele>
        <time>2016-04-18T14:53:06Z</time>
      </trkpt>
      <trkpt lat="39.492509" lon="2.891676">
        <ele>141.6</ele>
        <time>2016-04-18T14:53:07Z</time>
      </trkpt>
      <trkpt lat="39.49261" lon="2.891827">
        <ele>141.6</ele>
        <time>2016-04-18T14:53:10Z</time>
      </trkpt>
      <trkpt lat="39.492692" lon="2.891982">
        <ele>141.6</ele>
        <time>2016-04-18T14:53:13Z</time>
      </trkpt>
      <trkpt lat="39.492824" lon="2.892201">
        <ele>141.6</ele>
        <time>2016-04-18T14:53:18Z</time>
      </trkpt>
      <trkpt lat="39.493079" lon="2.892521">
        <ele>141.6</ele>
        <time>2016-04-18T14:53:25Z</time>
      </trkpt>
      <trkpt lat="39.493275" lon="2.89276">
        <ele>141.6</ele>
        <time>2016-04-18T14:53:31Z</time>
      </trkpt>
      <trkpt lat="39.493336" lon="2.892885">
        <ele>141.6</ele>
        <time>2016-04-18T14:53:35Z</time>
      </trkpt>
      <trkpt lat="39.493406" lon="2.893015">
        <ele>141.6</ele>
        <time>2016-04-18T14:53:38Z</time>
      </trkpt>
      <trkpt lat="39.493482" lon="2.893136">
        <ele>141.6</ele>
        <time>2016-04-18T14:53:41Z</time>
      </trkpt>
      <trkpt lat="39.493536" lon="2.893201">
        <ele>142</ele>
        <time>2016-04-18T14:53:43Z</time>
      </trkpt>
      <trkpt lat="39.493567" lon="2.893227">
        <ele>142.6</ele>
        <time>2016-04-18T14:53:44Z</time>
      </trkpt>
      <trkpt lat="39.493608" lon="2.893246">
        <ele>143</ele>
        <time>2016-04-18T14:53:45Z</time>
      </trkpt>
      <trkpt lat="39.493646" lon="2.893258">
        <ele>143.4</ele>
        <time>2016-04-18T14:53:46Z</time>
      </trkpt>
      <trkpt lat="39.49369" lon="2.893266">
        <ele>143.8</ele>
        <time>2016-04-18T14:53:47Z</time>
      </trkpt>
      <trkpt lat="39.493734" lon="2.893274">
        <ele>143.8</ele>
        <time>2016-04-18T14:53:48Z</time>
      </trkpt>
      <trkpt lat="39.493877" lon="2.893315">
        <ele>143.8</ele>
        <time>2016-04-18T14:53:51Z</time>
      </trkpt>
      <trkpt lat="39.494064" lon="2.89337">
        <ele>143.8</ele>
        <time>2016-04-18T14:53:56Z</time>
      </trkpt>
      <trkpt lat="39.49411" lon="2.893379">
        <ele>143.8</ele>
        <time>2016-04-18T14:53:58Z</time>
      </trkpt>
      <trkpt lat="39.494166" lon="2.89338">
        <ele>143.8</ele>
        <time>2016-04-18T14:54:00Z</time>
      </trkpt>
      <trkpt lat="39.494244" lon="2.893396">
        <ele>143.8</ele>
        <time>2016-04-18T14:54:02Z</time>
      </trkpt>
      <trkpt lat="39.494364" lon="2.893427">
        <ele>143.8</ele>
        <time>2016-04-18T14:54:05Z</time>
      </trkpt>
      <trkpt lat="39.494506" lon="2.893471">
        <ele>143.8</ele>
        <time>2016-04-18T14:54:08Z</time>
      </trkpt>
      <trkpt lat="39.494653" lon="2.893518">
        <ele>143.8</ele>
        <time>2016-04-18T14:54:11Z</time>
      </trkpt>
      <trkpt lat="39.494791" lon="2.893568">
        <ele>143.8</ele>
        <time>2016-04-18T14:54:14Z</time>
      </trkpt>
      <trkpt lat="39.494914" lon="2.893607">
        <ele>143.8</ele>
        <time>2016-04-18T14:54:17Z</time>
      </trkpt>
      <trkpt lat="39.494985" lon="2.893662">
        <ele>143.8</ele>
        <time>2016-04-18T14:54:21Z</time>
      </trkpt>
      <trkpt lat="39.494985" lon="2.893662">
        <ele>144.2</ele>
        <time>2016-04-18T14:54:22Z</time>
      </trkpt>
      <trkpt lat="39.494998" lon="2.893677">
        <ele>145.8</ele>
        <time>2016-04-18T14:54:29Z</time>
      </trkpt>
      <trkpt lat="39.495015" lon="2.893672">
        <ele>145.8</ele>
        <time>2016-04-18T14:54:30Z</time>
      </trkpt>
      <trkpt lat="39.495038" lon="2.893655">
        <ele>145.8</ele>
        <time>2016-04-18T14:54:31Z</time>
      </trkpt>
      <trkpt lat="39.495125" lon="2.893473">
        <ele>145.8</ele>
        <time>2016-04-18T14:54:36Z</time>
      </trkpt>
      <trkpt lat="39.495255" lon="2.893202">
        <ele>145.8</ele>
        <time>2016-04-18T14:54:41Z</time>
      </trkpt>
      <trkpt lat="39.495339" lon="2.893007">
        <ele>145.8</ele>
        <time>2016-04-18T14:54:44Z</time>
      </trkpt>
      <trkpt lat="39.495432" lon="2.892797">
        <ele>145.8</ele>
        <time>2016-04-18T14:54:48Z</time>
      </trkpt>
      <trkpt lat="39.495455" lon="2.892736">
        <ele>145.8</ele>
        <time>2016-04-18T14:54:51Z</time>
      </trkpt>
      <trkpt lat="39.495479" lon="2.892686">
        <ele>145.8</ele>
        <time>2016-04-18T14:54:59Z</time>
      </trkpt>
      <trkpt lat="39.495502" lon="2.892648">
        <ele>145.8</ele>
        <time>2016-04-18T14:55:00Z</time>
      </trkpt>
      <trkpt lat="39.495625" lon="2.892389">
        <ele>145.8</ele>
        <time>2016-04-18T14:55:04Z</time>
      </trkpt>
      <trkpt lat="39.495806" lon="2.891972">
        <ele>145.8</ele>
        <time>2016-04-18T14:55:10Z</time>
      </trkpt>
      <trkpt lat="39.495883" lon="2.891812">
        <ele>145.8</ele>
        <time>2016-04-18T14:55:14Z</time>
      </trkpt>
      <trkpt lat="39.495957" lon="2.891611">
        <ele>145.8</ele>
        <time>2016-04-18T14:55:18Z</time>
      </trkpt>
      <trkpt lat="39.496046" lon="2.891414">
        <ele>145.8</ele>
        <time>2016-04-18T14:55:21Z</time>
      </trkpt>
      <trkpt lat="39.496137" lon="2.891196">
        <ele>145.8</ele>
        <time>2016-04-18T14:55:24Z</time>
      </trkpt>
      <trkpt lat="39.496284" lon="2.890896">
        <ele>145.8</ele>
        <time>2016-04-18T14:55:28Z</time>
      </trkpt>
      <trkpt lat="39.496385" lon="2.890655">
        <ele>145.8</ele>
        <time>2016-04-18T14:55:31Z</time>
      </trkpt>
      <trkpt lat="39.496674" lon="2.889987">
        <ele>145.8</ele>
        <time>2016-04-18T14:55:39Z</time>
      </trkpt>
      <trkpt lat="39.496963" lon="2.889307">
        <ele>145.8</ele>
        <time>2016-04-18T14:55:47Z</time>
      </trkpt>
      <trkpt lat="39.497027" lon="2.889141">
        <ele>145.8</ele>
        <time>2016-04-18T14:55:49Z</time>
      </trkpt>
      <trkpt lat="39.497094" lon="2.88899">
        <ele>145.8</ele>
        <time>2016-04-18T14:55:51Z</time>
      </trkpt>
      <trkpt lat="39.497123" lon="2.888915">
        <ele>145.8</ele>
        <time>2016-04-18T14:55:52Z</time>
      </trkpt>
      <trkpt lat="39.497157" lon="2.888845">
        <ele>145.8</ele>
        <time>2016-04-18T14:55:53Z</time>
      </trkpt>
      <trkpt lat="39.497261" lon="2.888793">
        <ele>145.8</ele>
        <time>2016-04-18T14:55:55Z</time>
      </trkpt>
      <trkpt lat="39.497405" lon="2.888927">
        <ele>145.8</ele>
        <time>2016-04-18T14:55:58Z</time>
      </trkpt>
      <trkpt lat="39.497455" lon="2.888975">
        <ele>145.8</ele>
        <time>2016-04-18T14:55:59Z</time>
      </trkpt>
      <trkpt lat="39.49754" lon="2.889065">
        <ele>145.8</ele>
        <time>2016-04-18T14:56:04Z</time>
      </trkpt>
      <trkpt lat="39.497625" lon="2.889155">
        <ele>145.8</ele>
        <time>2016-04-18T14:56:06Z</time>
      </trkpt>
      <trkpt lat="39.497964" lon="2.889516">
        <ele>145.8</ele>
        <time>2016-04-18T14:56:10Z</time>
      </trkpt>
      <trkpt lat="39.498049" lon="2.889616">
        <ele>145.8</ele>
        <time>2016-04-18T14:56:12Z</time>
      </trkpt>
      <trkpt lat="39.498315" lon="2.889991">
        <ele>145.8</ele>
        <time>2016-04-18T14:56:19Z</time>
      </trkpt>
      <trkpt lat="39.498385" lon="2.890106">
        <ele>145.8</ele>
        <time>2016-04-18T14:56:21Z</time>
      </trkpt>
      <trkpt lat="39.498689" lon="2.890653">
        <ele>145.8</ele>
        <time>2016-04-18T14:56:30Z</time>
      </trkpt>
      <trkpt lat="39.498856" lon="2.891043">
        <ele>146.2</ele>
        <time>2016-04-18T14:56:36Z</time>
      </trkpt>
      <trkpt lat="39.498882" lon="2.891109">
        <ele>146.8</ele>
        <time>2016-04-18T14:56:37Z</time>
      </trkpt>
      <trkpt lat="39.498906" lon="2.891175">
        <ele>147.2</ele>
        <time>2016-04-18T14:56:38Z</time>
      </trkpt>
      <trkpt lat="39.49893" lon="2.891241">
        <ele>147.6</ele>
        <time>2016-04-18T14:56:39Z</time>
      </trkpt>
      <trkpt lat="39.498953" lon="2.891306">
        <ele>148</ele>
        <time>2016-04-18T14:56:40Z</time>
      </trkpt>
      <trkpt lat="39.499094" lon="2.891777">
        <ele>148</ele>
        <time>2016-04-18T14:56:47Z</time>
      </trkpt>
      <trkpt lat="39.499224" lon="2.892403">
        <ele>148</ele>
        <time>2016-04-18T14:56:56Z</time>
      </trkpt>
      <trkpt lat="39.499249" lon="2.892545">
        <ele>148.4</ele>
        <time>2016-04-18T14:56:58Z</time>
      </trkpt>
      <trkpt lat="39.499259" lon="2.89262">
        <ele>148.8</ele>
        <time>2016-04-18T14:56:59Z</time>
      </trkpt>
      <trkpt lat="39.499267" lon="2.892691">
        <ele>149.2</ele>
        <time>2016-04-18T14:57:00Z</time>
      </trkpt>
      <trkpt lat="39.499276" lon="2.892763">
        <ele>149.6</ele>
        <time>2016-04-18T14:57:01Z</time>
      </trkpt>
      <trkpt lat="39.499285" lon="2.892836">
        <ele>150.2</ele>
        <time>2016-04-18T14:57:02Z</time>
      </trkpt>
      <trkpt lat="39.499296" lon="2.892987">
        <ele>150.2</ele>
        <time>2016-04-18T14:57:04Z</time>
      </trkpt>
      <trkpt lat="39.499321" lon="2.893678">
        <ele>150.2</ele>
        <time>2016-04-18T14:57:13Z</time>
      </trkpt>
      <trkpt lat="39.49935" lon="2.894293">
        <ele>150.2</ele>
        <time>2016-04-18T14:57:21Z</time>
      </trkpt>
      <trkpt lat="39.49936" lon="2.894442">
        <ele>150.6</ele>
        <time>2016-04-18T14:57:23Z</time>
      </trkpt>
      <trkpt lat="39.499364" lon="2.894511">
        <ele>151</ele>
        <time>2016-04-18T14:57:24Z</time>
      </trkpt>
      <trkpt lat="39.499365" lon="2.89458">
        <ele>151.4</ele>
        <time>2016-04-18T14:57:25Z</time>
      </trkpt>
      <trkpt lat="39.499364" lon="2.894648">
        <ele>151.8</ele>
        <time>2016-04-18T14:57:26Z</time>
      </trkpt>
      <trkpt lat="39.499363" lon="2.894706">
        <ele>152.2</ele>
        <time>2016-04-18T14:57:27Z</time>
      </trkpt>
      <trkpt lat="39.499353" lon="2.89481">
        <ele>152.2</ele>
        <time>2016-04-18T14:57:29Z</time>
      </trkpt>
      <trkpt lat="39.49932" lon="2.894929">
        <ele>152.2</ele>
        <time>2016-04-18T14:57:31Z</time>
      </trkpt>
      <trkpt lat="39.499334" lon="2.895059">
        <ele>152.2</ele>
        <time>2016-04-18T14:57:33Z</time>
      </trkpt>
      <trkpt lat="39.499471" lon="2.895175">
        <ele>152.2</ele>
        <time>2016-04-18T14:57:36Z</time>
      </trkpt>
      <trkpt lat="39.499528" lon="2.895197">
        <ele>152.2</ele>
        <time>2016-04-18T14:57:37Z</time>
      </trkpt>
      <trkpt lat="39.499927" lon="2.895334">
        <ele>152.2</ele>
        <time>2016-04-18T14:57:44Z</time>
      </trkpt>
      <trkpt lat="39.500384" lon="2.895492">
        <ele>152.2</ele>
        <time>2016-04-18T14:57:52Z</time>
      </trkpt>
      <trkpt lat="39.50044" lon="2.895511">
        <ele>152.6</ele>
        <time>2016-04-18T14:57:53Z</time>
      </trkpt>
      <trkpt lat="39.500498" lon="2.89553">
        <ele>153</ele>
        <time>2016-04-18T14:57:54Z</time>
      </trkpt>
      <trkpt lat="39.500555" lon="2.895551">
        <ele>153.4</ele>
        <time>2016-04-18T14:57:55Z</time>
      </trkpt>
      <trkpt lat="39.500611" lon="2.895571">
        <ele>153.8</ele>
        <time>2016-04-18T14:57:56Z</time>
      </trkpt>
      <trkpt lat="39.500669" lon="2.895593">
        <ele>154.2</ele>
        <time>2016-04-18T14:57:57Z</time>
      </trkpt>
      <trkpt lat="39.500894" lon="2.895694">
        <ele>154.2</ele>
        <time>2016-04-18T14:58:01Z</time>
      </trkpt>
      <trkpt lat="39.501334" lon="2.895928">
        <ele>154.2</ele>
        <time>2016-04-18T14:58:09Z</time>
      </trkpt>
      <trkpt lat="39.501784" lon="2.896252">
        <ele>154.2</ele>
        <time>2016-04-18T14:58:18Z</time>
      </trkpt>
      <trkpt lat="39.501836" lon="2.89629">
        <ele>154.6</ele>
        <time>2016-04-18T14:58:19Z</time>
      </trkpt>
      <trkpt lat="39.501886" lon="2.896329">
        <ele>155.2</ele>
        <time>2016-04-18T14:58:20Z</time>
      </trkpt>
      <trkpt lat="39.501937" lon="2.89637">
        <ele>155.6</ele>
        <time>2016-04-18T14:58:21Z</time>
      </trkpt>
      <trkpt lat="39.501987" lon="2.896409">
        <ele>156.2</ele>
        <time>2016-04-18T14:58:22Z</time>
      </trkpt>
      <trkpt lat="39.502035" lon="2.896448">
        <ele>156.6</ele>
        <time>2016-04-18T14:58:23Z</time>
      </trkpt>
      <trkpt lat="39.502085" lon="2.896489">
        <ele>156.6</ele>
        <time>2016-04-18T14:58:24Z</time>
      </trkpt>
      <trkpt lat="39.502535" lon="2.896839">
        <ele>156.6</ele>
        <time>2016-04-18T14:58:33Z</time>
      </trkpt>
      <trkpt lat="39.502829" lon="2.897063">
        <ele>157</ele>
        <time>2016-04-18T14:58:39Z</time>
      </trkpt>
      <trkpt lat="39.50288" lon="2.897101">
        <ele>157.4</ele>
        <time>2016-04-18T14:58:40Z</time>
      </trkpt>
      <trkpt lat="39.502934" lon="2.89714">
        <ele>157.8</ele>
        <time>2016-04-18T14:58:41Z</time>
      </trkpt>
      <trkpt lat="39.502986" lon="2.897176">
        <ele>158.2</ele>
        <time>2016-04-18T14:58:42Z</time>
      </trkpt>
      <trkpt lat="39.503038" lon="2.897213">
        <ele>158.6</ele>
        <time>2016-04-18T14:58:43Z</time>
      </trkpt>
      <trkpt lat="39.50335" lon="2.897412">
        <ele>158.6</ele>
        <time>2016-04-18T14:58:49Z</time>
      </trkpt>
      <trkpt lat="39.503841" lon="2.897691">
        <ele>158.6</ele>
        <time>2016-04-18T14:58:58Z</time>
      </trkpt>
      <trkpt lat="39.504271" lon="2.897926">
        <ele>159.2</ele>
        <time>2016-04-18T14:59:06Z</time>
      </trkpt>
      <trkpt lat="39.504324" lon="2.897953">
        <ele>159.6</ele>
        <time>2016-04-18T14:59:07Z</time>
      </trkpt>
      <trkpt lat="39.504378" lon="2.897981">
        <ele>160.2</ele>
        <time>2016-04-18T14:59:08Z</time>
      </trkpt>
      <trkpt lat="39.504431" lon="2.898009">
        <ele>160.6</ele>
        <time>2016-04-18T14:59:09Z</time>
      </trkpt>
      <trkpt lat="39.504484" lon="2.898037">
        <ele>161.2</ele>
        <time>2016-04-18T14:59:10Z</time>
      </trkpt>
      <trkpt lat="39.504868" lon="2.898252">
        <ele>161.2</ele>
        <time>2016-04-18T14:59:17Z</time>
      </trkpt>
      <trkpt lat="39.505033" lon="2.898345">
        <ele>161.2</ele>
        <time>2016-04-18T14:59:20Z</time>
      </trkpt>
      <trkpt lat="39.505088" lon="2.898374">
        <ele>161.6</ele>
        <time>2016-04-18T14:59:21Z</time>
      </trkpt>
      <trkpt lat="39.505141" lon="2.898405">
        <ele>162.4</ele>
        <time>2016-04-18T14:59:22Z</time>
      </trkpt>
      <trkpt lat="39.505195" lon="2.898435">
        <ele>162.8</ele>
        <time>2016-04-18T14:59:23Z</time>
      </trkpt>
      <trkpt lat="39.505251" lon="2.898467">
        <ele>163.2</ele>
        <time>2016-04-18T14:59:24Z</time>
      </trkpt>
      <trkpt lat="39.505533" lon="2.898629">
        <ele>163.2</ele>
        <time>2016-04-18T14:59:29Z</time>
      </trkpt>
      <trkpt lat="39.505986" lon="2.898882">
        <ele>163.2</ele>
        <time>2016-04-18T14:59:37Z</time>
      </trkpt>
      <trkpt lat="39.506419" lon="2.89913">
        <ele>163.6</ele>
        <time>2016-04-18T14:59:45Z</time>
      </trkpt>
      <trkpt lat="39.506475" lon="2.899161">
        <ele>164</ele>
        <time>2016-04-18T14:59:46Z</time>
      </trkpt>
      <trkpt lat="39.506533" lon="2.899191">
        <ele>165</ele>
        <time>2016-04-18T14:59:47Z</time>
      </trkpt>
      <trkpt lat="39.50659" lon="2.899221">
        <ele>165.4</ele>
        <time>2016-04-18T14:59:48Z</time>
      </trkpt>
      <trkpt lat="39.506647" lon="2.899252">
        <ele>165.4</ele>
        <time>2016-04-18T14:59:49Z</time>
      </trkpt>
      <trkpt lat="39.506867" lon="2.899375">
        <ele>165.4</ele>
        <time>2016-04-18T14:59:53Z</time>
      </trkpt>
      <trkpt lat="39.507304" lon="2.899618">
        <ele>165.4</ele>
        <time>2016-04-18T15:00:01Z</time>
      </trkpt>
      <trkpt lat="39.507518" lon="2.899734">
        <ele>165.8</ele>
        <time>2016-04-18T15:00:05Z</time>
      </trkpt>
      <trkpt lat="39.507573" lon="2.899763">
        <ele>166.2</ele>
        <time>2016-04-18T15:00:06Z</time>
      </trkpt>
      <trkpt lat="39.507627" lon="2.899793">
        <ele>166.6</ele>
        <time>2016-04-18T15:00:07Z</time>
      </trkpt>
      <trkpt lat="39.507679" lon="2.899823">
        <ele>167.2</ele>
        <time>2016-04-18T15:00:08Z</time>
      </trkpt>
      <trkpt lat="39.50773" lon="2.89985">
        <ele>167.6</ele>
        <time>2016-04-18T15:00:09Z</time>
      </trkpt>
      <trkpt lat="39.507783" lon="2.899878">
        <ele>167.6</ele>
        <time>2016-04-18T15:00:10Z</time>
      </trkpt>
      <trkpt lat="39.508182" lon="2.900104">
        <ele>167.6</ele>
        <time>2016-04-18T15:00:18Z</time>
      </trkpt>
      <trkpt lat="39.508232" lon="2.900129">
        <ele>167.6</ele>
        <time>2016-04-18T15:00:19Z</time>
      </trkpt>
      <trkpt lat="39.508282" lon="2.900155">
        <ele>168</ele>
        <time>2016-04-18T15:00:20Z</time>
      </trkpt>
      <trkpt lat="39.508336" lon="2.900184">
        <ele>168.4</ele>
        <time>2016-04-18T15:00:21Z</time>
      </trkpt>
      <trkpt lat="39.508383" lon="2.900215">
        <ele>168.8</ele>
        <time>2016-04-18T15:00:22Z</time>
      </trkpt>
      <trkpt lat="39.50843" lon="2.900245">
        <ele>169.2</ele>
        <time>2016-04-18T15:00:23Z</time>
      </trkpt>
      <trkpt lat="39.508478" lon="2.900272">
        <ele>169.6</ele>
        <time>2016-04-18T15:00:24Z</time>
      </trkpt>
      <trkpt lat="39.508819" lon="2.900462">
        <ele>169.6</ele>
        <time>2016-04-18T15:00:31Z</time>
      </trkpt>
      <trkpt lat="39.508956" lon="2.90056">
        <ele>169.6</ele>
        <time>2016-04-18T15:00:34Z</time>
      </trkpt>
      <trkpt lat="39.509048" lon="2.900621">
        <ele>169.6</ele>
        <time>2016-04-18T15:00:36Z</time>
      </trkpt>
      <trkpt lat="39.509142" lon="2.900682">
        <ele>170</ele>
        <time>2016-04-18T15:00:38Z</time>
      </trkpt>
      <trkpt lat="39.509192" lon="2.900716">
        <ele>170.6</ele>
        <time>2016-04-18T15:00:39Z</time>
      </trkpt>
      <trkpt lat="39.509238" lon="2.900747">
        <ele>171</ele>
        <time>2016-04-18T15:00:40Z</time>
      </trkpt>
      <trkpt lat="39.509286" lon="2.900777">
        <ele>171.4</ele>
        <time>2016-04-18T15:00:41Z</time>
      </trkpt>
      <trkpt lat="39.509333" lon="2.900807">
        <ele>172</ele>
        <time>2016-04-18T15:00:42Z</time>
      </trkpt>
      <trkpt lat="39.509381" lon="2.900837">
        <ele>172</ele>
        <time>2016-04-18T15:00:43Z</time>
      </trkpt>
      <trkpt lat="39.509704" lon="2.901052">
        <ele>172</ele>
        <time>2016-04-18T15:00:50Z</time>
      </trkpt>
      <trkpt lat="39.509788" lon="2.901104">
        <ele>172</ele>
        <time>2016-04-18T15:00:52Z</time>
      </trkpt>
      <trkpt lat="39.509824" lon="2.901129">
        <ele>172.4</ele>
        <time>2016-04-18T15:00:53Z</time>
      </trkpt>
      <trkpt lat="39.509864" lon="2.901156">
        <ele>172.8</ele>
        <time>2016-04-18T15:00:54Z</time>
      </trkpt>
      <trkpt lat="39.509903" lon="2.901182">
        <ele>173.2</ele>
        <time>2016-04-18T15:00:55Z</time>
      </trkpt>
      <trkpt lat="39.509943" lon="2.901208">
        <ele>173.6</ele>
        <time>2016-04-18T15:00:56Z</time>
      </trkpt>
      <trkpt lat="39.509982" lon="2.901235">
        <ele>174</ele>
        <time>2016-04-18T15:00:57Z</time>
      </trkpt>
      <trkpt lat="39.510134" lon="2.90134">
        <ele>175</ele>
        <time>2016-04-18T15:01:01Z</time>
      </trkpt>
      <trkpt lat="39.510175" lon="2.901363">
        <ele>175.4</ele>
        <time>2016-04-18T15:01:02Z</time>
      </trkpt>
      <trkpt lat="39.510212" lon="2.90139">
        <ele>176</ele>
        <time>2016-04-18T15:01:03Z</time>
      </trkpt>
      <trkpt lat="39.510251" lon="2.901416">
        <ele>176.4</ele>
        <time>2016-04-18T15:01:04Z</time>
      </trkpt>
      <trkpt lat="39.510531" lon="2.901604">
        <ele>176.8</ele>
        <time>2016-04-18T15:01:11Z</time>
      </trkpt>
      <trkpt lat="39.510569" lon="2.901628">
        <ele>177.4</ele>
        <time>2016-04-18T15:01:12Z</time>
      </trkpt>
      <trkpt lat="39.510609" lon="2.901652">
        <ele>177.8</ele>
        <time>2016-04-18T15:01:13Z</time>
      </trkpt>
      <trkpt lat="39.510647" lon="2.901676">
        <ele>178.2</ele>
        <time>2016-04-18T15:01:14Z</time>
      </trkpt>
      <trkpt lat="39.510686" lon="2.901702">
        <ele>178.6</ele>
        <time>2016-04-18T15:01:15Z</time>
      </trkpt>
      <trkpt lat="39.510805" lon="2.901782">
        <ele>179</ele>
        <time>2016-04-18T15:01:18Z</time>
      </trkpt>
      <trkpt lat="39.510843" lon="2.901809">
        <ele>179.4</ele>
        <time>2016-04-18T15:01:19Z</time>
      </trkpt>
      <trkpt lat="39.510882" lon="2.901833">
        <ele>179.8</ele>
        <time>2016-04-18T15:01:20Z</time>
      </trkpt>
      <trkpt lat="39.510922" lon="2.901856">
        <ele>180.2</ele>
        <time>2016-04-18T15:01:21Z</time>
      </trkpt>
      <trkpt lat="39.510961" lon="2.901879">
        <ele>180.6</ele>
        <time>2016-04-18T15:01:22Z</time>
      </trkpt>
      <trkpt lat="39.511259" lon="2.902074">
        <ele>181.2</ele>
        <time>2016-04-18T15:01:30Z</time>
      </trkpt>
      <trkpt lat="39.511295" lon="2.902095">
        <ele>181.6</ele>
        <time>2016-04-18T15:01:31Z</time>
      </trkpt>
      <trkpt lat="39.511332" lon="2.902116">
        <ele>182</ele>
        <time>2016-04-18T15:01:32Z</time>
      </trkpt>
      <trkpt lat="39.511366" lon="2.902139">
        <ele>182.4</ele>
        <time>2016-04-18T15:01:33Z</time>
      </trkpt>
      <trkpt lat="39.5114" lon="2.902163">
        <ele>182.8</ele>
        <time>2016-04-18T15:01:34Z</time>
      </trkpt>
      <trkpt lat="39.51147" lon="2.90221">
        <ele>182.8</ele>
        <time>2016-04-18T15:01:36Z</time>
      </trkpt>
      <trkpt lat="39.511658" lon="2.902333">
        <ele>183.2</ele>
        <time>2016-04-18T15:01:41Z</time>
      </trkpt>
      <trkpt lat="39.511698" lon="2.902358">
        <ele>183.6</ele>
        <time>2016-04-18T15:01:42Z</time>
      </trkpt>
      <trkpt lat="39.511737" lon="2.902384">
        <ele>184.2</ele>
        <time>2016-04-18T15:01:43Z</time>
      </trkpt>
      <trkpt lat="39.511774" lon="2.90241">
        <ele>184.6</ele>
        <time>2016-04-18T15:01:44Z</time>
      </trkpt>
      <trkpt lat="39.511813" lon="2.902438">
        <ele>185</ele>
        <time>2016-04-18T15:01:45Z</time>
      </trkpt>
      <trkpt lat="39.512164" lon="2.902681">
        <ele>185.4</ele>
        <time>2016-04-18T15:01:54Z</time>
      </trkpt>
      <trkpt lat="39.512206" lon="2.902713">
        <ele>185.8</ele>
        <time>2016-04-18T15:01:55Z</time>
      </trkpt>
      <trkpt lat="39.512245" lon="2.902741">
        <ele>186.2</ele>
        <time>2016-04-18T15:01:56Z</time>
      </trkpt>
      <trkpt lat="39.512284" lon="2.902769">
        <ele>186.6</ele>
        <time>2016-04-18T15:01:57Z</time>
      </trkpt>
      <trkpt lat="39.512325" lon="2.902798">
        <ele>187</ele>
        <time>2016-04-18T15:01:58Z</time>
      </trkpt>
      <trkpt lat="39.512451" lon="2.90288">
        <ele>187</ele>
        <time>2016-04-18T15:02:01Z</time>
      </trkpt>
      <trkpt lat="39.51289" lon="2.903178">
        <ele>187</ele>
        <time>2016-04-18T15:02:11Z</time>
      </trkpt>
      <trkpt lat="39.513152" lon="2.903341">
        <ele>187</ele>
        <time>2016-04-18T15:02:17Z</time>
      </trkpt>
      <trkpt lat="39.513234" lon="2.903398">
        <ele>187.4</ele>
        <time>2016-04-18T15:02:19Z</time>
      </trkpt>
      <trkpt lat="39.513273" lon="2.903424">
        <ele>188</ele>
        <time>2016-04-18T15:02:20Z</time>
      </trkpt>
      <trkpt lat="39.513312" lon="2.903449">
        <ele>188.4</ele>
        <time>2016-04-18T15:02:21Z</time>
      </trkpt>
      <trkpt lat="39.513352" lon="2.903472">
        <ele>188.8</ele>
        <time>2016-04-18T15:02:22Z</time>
      </trkpt>
      <trkpt lat="39.513389" lon="2.903495">
        <ele>189.2</ele>
        <time>2016-04-18T15:02:23Z</time>
      </trkpt>
      <trkpt lat="39.513498" lon="2.903563">
        <ele>189.6</ele>
        <time>2016-04-18T15:02:26Z</time>
      </trkpt>
      <trkpt lat="39.513534" lon="2.903585">
        <ele>190.2</ele>
        <time>2016-04-18T15:02:27Z</time>
      </trkpt>
      <trkpt lat="39.513569" lon="2.903605">
        <ele>190.6</ele>
        <time>2016-04-18T15:02:28Z</time>
      </trkpt>
      <trkpt lat="39.513601" lon="2.903625">
        <ele>191</ele>
        <time>2016-04-18T15:02:29Z</time>
      </trkpt>
      <trkpt lat="39.513634" lon="2.903647">
        <ele>191.4</ele>
        <time>2016-04-18T15:02:30Z</time>
      </trkpt>
      <trkpt lat="39.513735" lon="2.903714">
        <ele>191.8</ele>
        <time>2016-04-18T15:02:33Z</time>
      </trkpt>
      <trkpt lat="39.513772" lon="2.90374">
        <ele>192.2</ele>
        <time>2016-04-18T15:02:34Z</time>
      </trkpt>
      <trkpt lat="39.513808" lon="2.903765">
        <ele>192.8</ele>
        <time>2016-04-18T15:02:35Z</time>
      </trkpt>
      <trkpt lat="39.513844" lon="2.903786">
        <ele>193.2</ele>
        <time>2016-04-18T15:02:36Z</time>
      </trkpt>
      <trkpt lat="39.513879" lon="2.903807">
        <ele>193.6</ele>
        <time>2016-04-18T15:02:37Z</time>
      </trkpt>
      <trkpt lat="39.514012" lon="2.903898">
        <ele>194</ele>
        <time>2016-04-18T15:02:41Z</time>
      </trkpt>
      <trkpt lat="39.514049" lon="2.903922">
        <ele>194.4</ele>
        <time>2016-04-18T15:02:42Z</time>
      </trkpt>
      <trkpt lat="39.514082" lon="2.903944">
        <ele>194.8</ele>
        <time>2016-04-18T15:02:43Z</time>
      </trkpt>
      <trkpt lat="39.514118" lon="2.903965">
        <ele>195.2</ele>
        <time>2016-04-18T15:02:44Z</time>
      </trkpt>
      <trkpt lat="39.514152" lon="2.90399">
        <ele>195.6</ele>
        <time>2016-04-18T15:02:45Z</time>
      </trkpt>
      <trkpt lat="39.514255" lon="2.904058">
        <ele>196</ele>
        <time>2016-04-18T15:02:48Z</time>
      </trkpt>
      <trkpt lat="39.51429" lon="2.904077">
        <ele>196.6</ele>
        <time>2016-04-18T15:02:49Z</time>
      </trkpt>
      <trkpt lat="39.514323" lon="2.9041">
        <ele>197</ele>
        <time>2016-04-18T15:02:50Z</time>
      </trkpt>
      <trkpt lat="39.514353" lon="2.904121">
        <ele>197.4</ele>
        <time>2016-04-18T15:02:51Z</time>
      </trkpt>
      <trkpt lat="39.514382" lon="2.904139">
        <ele>197.8</ele>
        <time>2016-04-18T15:02:52Z</time>
      </trkpt>
      <trkpt lat="39.514507" lon="2.904227">
        <ele>198.2</ele>
        <time>2016-04-18T15:02:56Z</time>
      </trkpt>
      <trkpt lat="39.514541" lon="2.904248">
        <ele>198.6</ele>
        <time>2016-04-18T15:02:57Z</time>
      </trkpt>
      <trkpt lat="39.514574" lon="2.904268">
        <ele>199.2</ele>
        <time>2016-04-18T15:02:58Z</time>
      </trkpt>
      <trkpt lat="39.514603" lon="2.904287">
        <ele>199.6</ele>
        <time>2016-04-18T15:02:59Z</time>
      </trkpt>
      <trkpt lat="39.514635" lon="2.904305">
        <ele>200</ele>
        <time>2016-04-18T15:03:00Z</time>
      </trkpt>
      <trkpt lat="39.514694" lon="2.904345">
        <ele>200.4</ele>
        <time>2016-04-18T15:03:02Z</time>
      </trkpt>
      <trkpt lat="39.514721" lon="2.90437">
        <ele>200.8</ele>
        <time>2016-04-18T15:03:03Z</time>
      </trkpt>
      <trkpt lat="39.514751" lon="2.904391">
        <ele>201.4</ele>
        <time>2016-04-18T15:03:04Z</time>
      </trkpt>
      <trkpt lat="39.51478" lon="2.904414">
        <ele>202.2</ele>
        <time>2016-04-18T15:03:05Z</time>
      </trkpt>
      <trkpt lat="39.514888" lon="2.904495">
        <ele>202.2</ele>
        <time>2016-04-18T15:03:09Z</time>
      </trkpt>
      <trkpt lat="39.5149" lon="2.904529">
        <ele>202.6</ele>
        <time>2016-04-18T15:03:10Z</time>
      </trkpt>
      <trkpt lat="39.514896" lon="2.904569">
        <ele>203</ele>
        <time>2016-04-18T15:03:11Z</time>
      </trkpt>
      <trkpt lat="39.514884" lon="2.904615">
        <ele>203.4</ele>
        <time>2016-04-18T15:03:12Z</time>
      </trkpt>
      <trkpt lat="39.514868" lon="2.904675">
        <ele>203.8</ele>
        <time>2016-04-18T15:03:13Z</time>
      </trkpt>
      <trkpt lat="39.514851" lon="2.904745">
        <ele>204.2</ele>
        <time>2016-04-18T15:03:14Z</time>
      </trkpt>
      <trkpt lat="39.51479" lon="2.905007">
        <ele>204.2</ele>
        <time>2016-04-18T15:03:17Z</time>
      </trkpt>
      <trkpt lat="39.514769" lon="2.90511">
        <ele>203.6</ele>
        <time>2016-04-18T15:03:18Z</time>
      </trkpt>
      <trkpt lat="39.514744" lon="2.905219">
        <ele>203</ele>
        <time>2016-04-18T15:03:19Z</time>
      </trkpt>
      <trkpt lat="39.514719" lon="2.905331">
        <ele>202.4</ele>
        <time>2016-04-18T15:03:20Z</time>
      </trkpt>
      <trkpt lat="39.514693" lon="2.905448">
        <ele>201.6</ele>
        <time>2016-04-18T15:03:21Z</time>
      </trkpt>
      <trkpt lat="39.514669" lon="2.905557">
        <ele>201</ele>
        <time>2016-04-18T15:03:22Z</time>
      </trkpt>
      <trkpt lat="39.514644" lon="2.90566">
        <ele>200.2</ele>
        <time>2016-04-18T15:03:23Z</time>
      </trkpt>
      <trkpt lat="39.514617" lon="2.90576">
        <ele>199.4</ele>
        <time>2016-04-18T15:03:24Z</time>
      </trkpt>
      <trkpt lat="39.514593" lon="2.905852">
        <ele>198.8</ele>
        <time>2016-04-18T15:03:25Z</time>
      </trkpt>
      <trkpt lat="39.514573" lon="2.905932">
        <ele>198</ele>
        <time>2016-04-18T15:03:26Z</time>
      </trkpt>
      <trkpt lat="39.514556" lon="2.906011">
        <ele>197.2</ele>
        <time>2016-04-18T15:03:27Z</time>
      </trkpt>
      <trkpt lat="39.514541" lon="2.906069">
        <ele>197.6</ele>
        <time>2016-04-18T15:03:28Z</time>
      </trkpt>
      <trkpt lat="39.514526" lon="2.906123">
        <ele>198</ele>
        <time>2016-04-18T15:03:29Z</time>
      </trkpt>
      <trkpt lat="39.514513" lon="2.906181">
        <ele>198.8</ele>
        <time>2016-04-18T15:03:30Z</time>
      </trkpt>
      <trkpt lat="39.5145" lon="2.906242">
        <ele>199.2</ele>
        <time>2016-04-18T15:03:31Z</time>
      </trkpt>
      <trkpt lat="39.514482" lon="2.906309">
        <ele>199.8</ele>
        <time>2016-04-18T15:03:32Z</time>
      </trkpt>
      <trkpt lat="39.51446" lon="2.906385">
        <ele>200.2</ele>
        <time>2016-04-18T15:03:33Z</time>
      </trkpt>
      <trkpt lat="39.514438" lon="2.906467">
        <ele>200.8</ele>
        <time>2016-04-18T15:03:34Z</time>
      </trkpt>
      <trkpt lat="39.514416" lon="2.906552">
        <ele>201.2</ele>
        <time>2016-04-18T15:03:35Z</time>
      </trkpt>
      <trkpt lat="39.514392" lon="2.906637">
        <ele>200.8</ele>
        <time>2016-04-18T15:03:36Z</time>
      </trkpt>
      <trkpt lat="39.51437" lon="2.906714">
        <ele>200.4</ele>
        <time>2016-04-18T15:03:37Z</time>
      </trkpt>
      <trkpt lat="39.514349" lon="2.906793">
        <ele>199.8</ele>
        <time>2016-04-18T15:03:38Z</time>
      </trkpt>
      <trkpt lat="39.514329" lon="2.906872">
        <ele>199.4</ele>
        <time>2016-04-18T15:03:39Z</time>
      </trkpt>
      <trkpt lat="39.514311" lon="2.906954">
        <ele>199</ele>
        <time>2016-04-18T15:03:40Z</time>
      </trkpt>
      <trkpt lat="39.514252" lon="2.907199">
        <ele>199</ele>
        <time>2016-04-18T15:03:43Z</time>
      </trkpt>
      <trkpt lat="39.514184" lon="2.90744">
        <ele>199</ele>
        <time>2016-04-18T15:03:46Z</time>
      </trkpt>
      <trkpt lat="39.514121" lon="2.907692">
        <ele>199</ele>
        <time>2016-04-18T15:03:49Z</time>
      </trkpt>
      <trkpt lat="39.514" lon="2.908114">
        <ele>199</ele>
        <time>2016-04-18T15:03:54Z</time>
      </trkpt>
      <trkpt lat="39.513974" lon="2.908185">
        <ele>199</ele>
        <time>2016-04-18T15:03:55Z</time>
      </trkpt>
      <trkpt lat="39.513949" lon="2.908258">
        <ele>199</ele>
        <time>2016-04-18T15:03:56Z</time>
      </trkpt>
      <trkpt lat="39.513786" lon="2.908781">
        <ele>199</ele>
        <time>2016-04-18T15:04:03Z</time>
      </trkpt>
      <trkpt lat="39.513601" lon="2.909263">
        <ele>199</ele>
        <time>2016-04-18T15:04:10Z</time>
      </trkpt>
      <trkpt lat="39.513328" lon="2.909771">
        <ele>199</ele>
        <time>2016-04-18T15:04:18Z</time>
      </trkpt>
      <trkpt lat="39.513253" lon="2.909889">
        <ele>199</ele>
        <time>2016-04-18T15:04:20Z</time>
      </trkpt>
      <trkpt lat="39.513221" lon="2.909952">
        <ele>199.4</ele>
        <time>2016-04-18T15:04:21Z</time>
      </trkpt>
      <trkpt lat="39.513191" lon="2.910013">
        <ele>199.8</ele>
        <time>2016-04-18T15:04:22Z</time>
      </trkpt>
      <trkpt lat="39.513161" lon="2.910073">
        <ele>200.2</ele>
        <time>2016-04-18T15:04:23Z</time>
      </trkpt>
      <trkpt lat="39.513132" lon="2.910131">
        <ele>200.6</ele>
        <time>2016-04-18T15:04:24Z</time>
      </trkpt>
      <trkpt lat="39.513104" lon="2.910187">
        <ele>201</ele>
        <time>2016-04-18T15:04:25Z</time>
      </trkpt>
      <trkpt lat="39.512952" lon="2.910461">
        <ele>201</ele>
        <time>2016-04-18T15:04:30Z</time>
      </trkpt>
      <trkpt lat="39.512888" lon="2.910581">
        <ele>201.4</ele>
        <time>2016-04-18T15:04:32Z</time>
      </trkpt>
      <trkpt lat="39.512854" lon="2.910641">
        <ele>201.8</ele>
        <time>2016-04-18T15:04:33Z</time>
      </trkpt>
      <trkpt lat="39.512821" lon="2.910706">
        <ele>202.2</ele>
        <time>2016-04-18T15:04:34Z</time>
      </trkpt>
      <trkpt lat="39.512786" lon="2.910772">
        <ele>202.8</ele>
        <time>2016-04-18T15:04:35Z</time>
      </trkpt>
      <trkpt lat="39.512744" lon="2.910839">
        <ele>203.2</ele>
        <time>2016-04-18T15:04:36Z</time>
      </trkpt>
      <trkpt lat="39.512591" lon="2.911108">
        <ele>202.8</ele>
        <time>2016-04-18T15:04:40Z</time>
      </trkpt>
      <trkpt lat="39.51255" lon="2.911181">
        <ele>202.4</ele>
        <time>2016-04-18T15:04:41Z</time>
      </trkpt>
      <trkpt lat="39.512506" lon="2.91125">
        <ele>202</ele>
        <time>2016-04-18T15:04:42Z</time>
      </trkpt>
      <trkpt lat="39.512463" lon="2.911328">
        <ele>201.4</ele>
        <time>2016-04-18T15:04:43Z</time>
      </trkpt>
      <trkpt lat="39.512417" lon="2.91141">
        <ele>201</ele>
        <time>2016-04-18T15:04:44Z</time>
      </trkpt>
      <trkpt lat="39.512327" lon="2.911572">
        <ele>200.6</ele>
        <time>2016-04-18T15:04:46Z</time>
      </trkpt>
      <trkpt lat="39.512283" lon="2.911651">
        <ele>200.2</ele>
        <time>2016-04-18T15:04:47Z</time>
      </trkpt>
      <trkpt lat="39.51224" lon="2.911728">
        <ele>199.8</ele>
        <time>2016-04-18T15:04:48Z</time>
      </trkpt>
      <trkpt lat="39.512199" lon="2.911803">
        <ele>199.4</ele>
        <time>2016-04-18T15:04:49Z</time>
      </trkpt>
      <trkpt lat="39.512159" lon="2.911876">
        <ele>199</ele>
        <time>2016-04-18T15:04:50Z</time>
      </trkpt>
      <trkpt lat="39.512079" lon="2.912023">
        <ele>199</ele>
        <time>2016-04-18T15:04:52Z</time>
      </trkpt>
      <trkpt lat="39.511968" lon="2.912231">
        <ele>199</ele>
        <time>2016-04-18T15:04:55Z</time>
      </trkpt>
      <trkpt lat="39.511806" lon="2.912536">
        <ele>199.4</ele>
        <time>2016-04-18T15:05:00Z</time>
      </trkpt>
      <trkpt lat="39.511775" lon="2.912588">
        <ele>199.8</ele>
        <time>2016-04-18T15:05:01Z</time>
      </trkpt>
      <trkpt lat="39.51174" lon="2.912639">
        <ele>200.2</ele>
        <time>2016-04-18T15:05:02Z</time>
      </trkpt>
      <trkpt lat="39.511701" lon="2.912691">
        <ele>200.6</ele>
        <time>2016-04-18T15:05:03Z</time>
      </trkpt>
      <trkpt lat="39.511662" lon="2.912744">
        <ele>201</ele>
        <time>2016-04-18T15:05:04Z</time>
      </trkpt>
      <trkpt lat="39.511581" lon="2.912837">
        <ele>201</ele>
        <time>2016-04-18T15:05:06Z</time>
      </trkpt>
      <trkpt lat="39.511551" lon="2.912881">
        <ele>201</ele>
        <time>2016-04-18T15:05:07Z</time>
      </trkpt>
      <trkpt lat="39.51148" lon="2.912977">
        <ele>201</ele>
        <time>2016-04-18T15:05:09Z</time>
      </trkpt>
      <trkpt lat="39.511398" lon="2.913073">
        <ele>201</ele>
        <time>2016-04-18T15:05:11Z</time>
      </trkpt>
      <trkpt lat="39.511272" lon="2.913228">
        <ele>201</ele>
        <time>2016-04-18T15:05:14Z</time>
      </trkpt>
      <trkpt lat="39.510946" lon="2.913622">
        <ele>201</ele>
        <time>2016-04-18T15:05:21Z</time>
      </trkpt>
      <trkpt lat="39.510717" lon="2.913949">
        <ele>201</ele>
        <time>2016-04-18T15:05:27Z</time>
      </trkpt>
      <trkpt lat="39.510515" lon="2.914266">
        <ele>201</ele>
        <time>2016-04-18T15:05:32Z</time>
      </trkpt>
      <trkpt lat="39.510396" lon="2.914448">
        <ele>201</ele>
        <time>2016-04-18T15:05:35Z</time>
      </trkpt>
      <trkpt lat="39.510372" lon="2.914488">
        <ele>201</ele>
        <time>2016-04-18T15:05:36Z</time>
      </trkpt>
      <trkpt lat="39.51037" lon="2.914529">
        <ele>201</ele>
        <time>2016-04-18T15:05:37Z</time>
      </trkpt>
      <trkpt lat="39.510392" lon="2.914559">
        <ele>201</ele>
        <time>2016-04-18T15:05:38Z</time>
      </trkpt>
      <trkpt lat="39.510527" lon="2.914637">
        <ele>201</ele>
        <time>2016-04-18T15:05:42Z</time>
      </trkpt>
      <trkpt lat="39.510672" lon="2.914728">
        <ele>201</ele>
        <time>2016-04-18T15:05:46Z</time>
      </trkpt>
      <trkpt lat="39.510746" lon="2.914768">
        <ele>201</ele>
        <time>2016-04-18T15:05:48Z</time>
      </trkpt>
      <trkpt lat="39.510956" lon="2.914878">
        <ele>201</ele>
        <time>2016-04-18T15:05:54Z</time>
      </trkpt>
      <trkpt lat="39.510991" lon="2.914895">
        <ele>201.4</ele>
        <time>2016-04-18T15:05:55Z</time>
      </trkpt>
      <trkpt lat="39.511028" lon="2.914909">
        <ele>201.8</ele>
        <time>2016-04-18T15:05:56Z</time>
      </trkpt>
      <trkpt lat="39.511062" lon="2.914928">
        <ele>202.2</ele>
        <time>2016-04-18T15:05:57Z</time>
      </trkpt>
      <trkpt lat="39.511092" lon="2.91495">
        <ele>203</ele>
        <time>2016-04-18T15:05:58Z</time>
      </trkpt>
      <trkpt lat="39.511154" lon="2.914991">
        <ele>203</ele>
        <time>2016-04-18T15:06:00Z</time>
      </trkpt>
      <trkpt lat="39.511251" lon="2.915047">
        <ele>203.4</ele>
        <time>2016-04-18T15:06:03Z</time>
      </trkpt>
      <trkpt lat="39.511279" lon="2.915068">
        <ele>204</ele>
        <time>2016-04-18T15:06:04Z</time>
      </trkpt>
      <trkpt lat="39.511305" lon="2.915089">
        <ele>204.4</ele>
        <time>2016-04-18T15:06:05Z</time>
      </trkpt>
      <trkpt lat="39.511329" lon="2.91511">
        <ele>204.8</ele>
        <time>2016-04-18T15:06:06Z</time>
      </trkpt>
      <trkpt lat="39.511351" lon="2.91514">
        <ele>205.4</ele>
        <time>2016-04-18T15:06:07Z</time>
      </trkpt>
      <trkpt lat="39.511367" lon="2.915171">
        <ele>205.8</ele>
        <time>2016-04-18T15:06:08Z</time>
      </trkpt>
      <trkpt lat="39.51138" lon="2.915209">
        <ele>206.2</ele>
        <time>2016-04-18T15:06:09Z</time>
      </trkpt>
      <trkpt lat="39.511391" lon="2.915247">
        <ele>206.6</ele>
        <time>2016-04-18T15:06:10Z</time>
      </trkpt>
      <trkpt lat="39.511403" lon="2.915286">
        <ele>207</ele>
        <time>2016-04-18T15:06:11Z</time>
      </trkpt>
      <trkpt lat="39.511418" lon="2.915322">
        <ele>207.4</ele>
        <time>2016-04-18T15:06:12Z</time>
      </trkpt>
      <trkpt lat="39.511456" lon="2.915436">
        <ele>208</ele>
        <time>2016-04-18T15:06:15Z</time>
      </trkpt>
      <trkpt lat="39.511469" lon="2.91547">
        <ele>208.4</ele>
        <time>2016-04-18T15:06:16Z</time>
      </trkpt>
      <trkpt lat="39.511484" lon="2.915502">
        <ele>208.8</ele>
        <time>2016-04-18T15:06:17Z</time>
      </trkpt>
      <trkpt lat="39.511497" lon="2.915534">
        <ele>209.2</ele>
        <time>2016-04-18T15:06:18Z</time>
      </trkpt>
      <trkpt lat="39.51151" lon="2.91557">
        <ele>209.8</ele>
        <time>2016-04-18T15:06:19Z</time>
      </trkpt>
      <trkpt lat="39.511573" lon="2.915748">
        <ele>210.2</ele>
        <time>2016-04-18T15:06:25Z</time>
      </trkpt>
      <trkpt lat="39.511588" lon="2.915778">
        <ele>210.6</ele>
        <time>2016-04-18T15:06:26Z</time>
      </trkpt>
      <trkpt lat="39.511603" lon="2.91581">
        <ele>211</ele>
        <time>2016-04-18T15:06:27Z</time>
      </trkpt>
      <trkpt lat="39.511619" lon="2.915843">
        <ele>211.6</ele>
        <time>2016-04-18T15:06:28Z</time>
      </trkpt>
      <trkpt lat="39.511637" lon="2.915878">
        <ele>212</ele>
        <time>2016-04-18T15:06:29Z</time>
      </trkpt>
      <trkpt lat="39.511668" lon="2.915948">
        <ele>212</ele>
        <time>2016-04-18T15:06:31Z</time>
      </trkpt>
      <trkpt lat="39.511738" lon="2.916099">
        <ele>212.4</ele>
        <time>2016-04-18T15:06:36Z</time>
      </trkpt>
      <trkpt lat="39.511752" lon="2.916124">
        <ele>212.8</ele>
        <time>2016-04-18T15:06:37Z</time>
      </trkpt>
      <trkpt lat="39.511769" lon="2.916154">
        <ele>213.2</ele>
        <time>2016-04-18T15:06:38Z</time>
      </trkpt>
      <trkpt lat="39.51179" lon="2.916184">
        <ele>213.6</ele>
        <time>2016-04-18T15:06:39Z</time>
      </trkpt>
      <trkpt lat="39.511814" lon="2.91621">
        <ele>214</ele>
        <time>2016-04-18T15:06:40Z</time>
      </trkpt>
      <trkpt lat="39.511864" lon="2.916216">
        <ele>214.4</ele>
        <time>2016-04-18T15:06:42Z</time>
      </trkpt>
      <trkpt lat="39.511879" lon="2.916188">
        <ele>214.8</ele>
        <time>2016-04-18T15:06:43Z</time>
      </trkpt>
      <trkpt lat="39.51189" lon="2.916152">
        <ele>215.4</ele>
        <time>2016-04-18T15:06:44Z</time>
      </trkpt>
      <trkpt lat="39.511897" lon="2.916112">
        <ele>215.8</ele>
        <time>2016-04-18T15:06:45Z</time>
      </trkpt>
      <trkpt lat="39.51191" lon="2.916072">
        <ele>216.2</ele>
        <time>2016-04-18T15:06:46Z</time>
      </trkpt>
      <trkpt lat="39.511919" lon="2.915997">
        <ele>216.2</ele>
        <time>2016-04-18T15:06:48Z</time>
      </trkpt>
      <trkpt lat="39.511923" lon="2.91592">
        <ele>216.6</ele>
        <time>2016-04-18T15:06:50Z</time>
      </trkpt>
      <trkpt lat="39.511922" lon="2.915883">
        <ele>217</ele>
        <time>2016-04-18T15:06:51Z</time>
      </trkpt>
      <trkpt lat="39.511924" lon="2.915842">
        <ele>217.4</ele>
        <time>2016-04-18T15:06:52Z</time>
      </trkpt>
      <trkpt lat="39.511925" lon="2.915801">
        <ele>217.8</ele>
        <time>2016-04-18T15:06:53Z</time>
      </trkpt>
      <trkpt lat="39.511928" lon="2.915758">
        <ele>218.2</ele>
        <time>2016-04-18T15:06:54Z</time>
      </trkpt>
      <trkpt lat="39.511963" lon="2.915655">
        <ele>218.2</ele>
        <time>2016-04-18T15:06:57Z</time>
      </trkpt>
      <trkpt lat="39.51201" lon="2.915612">
        <ele>218.6</ele>
        <time>2016-04-18T15:06:59Z</time>
      </trkpt>
      <trkpt lat="39.512033" lon="2.915594">
        <ele>219</ele>
        <time>2016-04-18T15:07:00Z</time>
      </trkpt>
      <trkpt lat="39.512059" lon="2.915581">
        <ele>219.4</ele>
        <time>2016-04-18T15:07:01Z</time>
      </trkpt>
      <trkpt lat="39.512085" lon="2.915573">
        <ele>219.8</ele>
        <time>2016-04-18T15:07:02Z</time>
      </trkpt>
      <trkpt lat="39.512107" lon="2.915574">
        <ele>220.2</ele>
        <time>2016-04-18T15:07:03Z</time>
      </trkpt>
      <trkpt lat="39.51213" lon="2.915588">
        <ele>220.2</ele>
        <time>2016-04-18T15:07:04Z</time>
      </trkpt>
      <trkpt lat="39.51215" lon="2.915645">
        <ele>220.2</ele>
        <time>2016-04-18T15:07:06Z</time>
      </trkpt>
      <trkpt lat="39.512164" lon="2.915697">
        <ele>220.8</ele>
        <time>2016-04-18T15:07:08Z</time>
      </trkpt>
      <trkpt lat="39.512172" lon="2.915722">
        <ele>221.2</ele>
        <time>2016-04-18T15:07:09Z</time>
      </trkpt>
      <trkpt lat="39.512179" lon="2.91575">
        <ele>221.6</ele>
        <time>2016-04-18T15:07:10Z</time>
      </trkpt>
      <trkpt lat="39.512184" lon="2.915778">
        <ele>222</ele>
        <time>2016-04-18T15:07:11Z</time>
      </trkpt>
      <trkpt lat="39.512191" lon="2.915807">
        <ele>222.4</ele>
        <time>2016-04-18T15:07:12Z</time>
      </trkpt>
      <trkpt lat="39.512198" lon="2.915838">
        <ele>222.4</ele>
        <time>2016-04-18T15:07:13Z</time>
      </trkpt>
      <trkpt lat="39.512217" lon="2.915929">
        <ele>222.8</ele>
        <time>2016-04-18T15:07:16Z</time>
      </trkpt>
      <trkpt lat="39.512227" lon="2.91596">
        <ele>223.2</ele>
        <time>2016-04-18T15:07:17Z</time>
      </trkpt>
      <trkpt lat="39.512239" lon="2.915989">
        <ele>223.8</ele>
        <time>2016-04-18T15:07:18Z</time>
      </trkpt>
      <trkpt lat="39.512248" lon="2.916018">
        <ele>224.2</ele>
        <time>2016-04-18T15:07:19Z</time>
      </trkpt>
      <trkpt lat="39.512255" lon="2.916045">
        <ele>224.6</ele>
        <time>2016-04-18T15:07:20Z</time>
      </trkpt>
      <trkpt lat="39.512285" lon="2.916134">
        <ele>225</ele>
        <time>2016-04-18T15:07:23Z</time>
      </trkpt>
      <trkpt lat="39.512298" lon="2.91616">
        <ele>225.4</ele>
        <time>2016-04-18T15:07:24Z</time>
      </trkpt>
      <trkpt lat="39.51231" lon="2.916188">
        <ele>225.8</ele>
        <time>2016-04-18T15:07:25Z</time>
      </trkpt>
      <trkpt lat="39.512323" lon="2.916217">
        <ele>226.4</ele>
        <time>2016-04-18T15:07:26Z</time>
      </trkpt>
      <trkpt lat="39.51234" lon="2.916242">
        <ele>226.8</ele>
        <time>2016-04-18T15:07:27Z</time>
      </trkpt>
      <trkpt lat="39.512363" lon="2.916256">
        <ele>226.8</ele>
        <time>2016-04-18T15:07:28Z</time>
      </trkpt>
      <trkpt lat="39.51241" lon="2.916248">
        <ele>226.8</ele>
        <time>2016-04-18T15:07:30Z</time>
      </trkpt>
      <trkpt lat="39.512431" lon="2.916158">
        <ele>227.2</ele>
        <time>2016-04-18T15:07:33Z</time>
      </trkpt>
      <trkpt lat="39.512433" lon="2.916128">
        <ele>227.6</ele>
        <time>2016-04-18T15:07:34Z</time>
      </trkpt>
      <trkpt lat="39.512438" lon="2.916098">
        <ele>228.2</ele>
        <time>2016-04-18T15:07:35Z</time>
      </trkpt>
      <trkpt lat="39.512441" lon="2.916068">
        <ele>228.6</ele>
        <time>2016-04-18T15:07:36Z</time>
      </trkpt>
      <trkpt lat="39.512442" lon="2.916036">
        <ele>229</ele>
        <time>2016-04-18T15:07:37Z</time>
      </trkpt>
      <trkpt lat="39.512435" lon="2.915968">
        <ele>229</ele>
        <time>2016-04-18T15:07:39Z</time>
      </trkpt>
      <trkpt lat="39.51246" lon="2.915827">
        <ele>229.4</ele>
        <time>2016-04-18T15:07:43Z</time>
      </trkpt>
      <trkpt lat="39.512471" lon="2.915796">
        <ele>229.8</ele>
        <time>2016-04-18T15:07:44Z</time>
      </trkpt>
      <trkpt lat="39.51249" lon="2.915781">
        <ele>230.4</ele>
        <time>2016-04-18T15:07:45Z</time>
      </trkpt>
      <trkpt lat="39.512515" lon="2.915791">
        <ele>230.8</ele>
        <time>2016-04-18T15:07:46Z</time>
      </trkpt>
      <trkpt lat="39.51253" lon="2.915815">
        <ele>231.2</ele>
        <time>2016-04-18T15:07:47Z</time>
      </trkpt>
      <trkpt lat="39.512538" lon="2.915841">
        <ele>231.2</ele>
        <time>2016-04-18T15:07:48Z</time>
      </trkpt>
      <trkpt lat="39.512558" lon="2.915924">
        <ele>231.2</ele>
        <time>2016-04-18T15:07:51Z</time>
      </trkpt>
      <trkpt lat="39.512592" lon="2.916033">
        <ele>231.6</ele>
        <time>2016-04-18T15:07:55Z</time>
      </trkpt>
      <trkpt lat="39.5126" lon="2.916064">
        <ele>232</ele>
        <time>2016-04-18T15:07:56Z</time>
      </trkpt>
      <trkpt lat="39.512607" lon="2.916094">
        <ele>232.4</ele>
        <time>2016-04-18T15:07:57Z</time>
      </trkpt>
      <trkpt lat="39.512614" lon="2.916125">
        <ele>232.8</ele>
        <time>2016-04-18T15:07:58Z</time>
      </trkpt>
      <trkpt lat="39.512622" lon="2.916156">
        <ele>233.2</ele>
        <time>2016-04-18T15:07:59Z</time>
      </trkpt>
      <trkpt lat="39.51263" lon="2.916223">
        <ele>233.2</ele>
        <time>2016-04-18T15:08:01Z</time>
      </trkpt>
      <trkpt lat="39.512667" lon="2.91641">
        <ele>233.2</ele>
        <time>2016-04-18T15:08:07Z</time>
      </trkpt>
      <trkpt lat="39.512674" lon="2.91644">
        <ele>233.8</ele>
        <time>2016-04-18T15:08:08Z</time>
      </trkpt>
      <trkpt lat="39.512682" lon="2.916471">
        <ele>234.4</ele>
        <time>2016-04-18T15:08:09Z</time>
      </trkpt>
      <trkpt lat="39.512696" lon="2.9165">
        <ele>234.8</ele>
        <time>2016-04-18T15:08:10Z</time>
      </trkpt>
      <trkpt lat="39.512709" lon="2.916528">
        <ele>235.4</ele>
        <time>2016-04-18T15:08:11Z</time>
      </trkpt>
      <trkpt lat="39.512724" lon="2.916555">
        <ele>235.8</ele>
        <time>2016-04-18T15:08:12Z</time>
      </trkpt>
      <trkpt lat="39.512819" lon="2.916687">
        <ele>235.8</ele>
        <time>2016-04-18T15:08:18Z</time>
      </trkpt>
      <trkpt lat="39.512839" lon="2.916701">
        <ele>236.2</ele>
        <time>2016-04-18T15:08:19Z</time>
      </trkpt>
      <trkpt lat="39.512864" lon="2.916713">
        <ele>236.6</ele>
        <time>2016-04-18T15:08:20Z</time>
      </trkpt>
      <trkpt lat="39.512886" lon="2.916715">
        <ele>237.2</ele>
        <time>2016-04-18T15:08:21Z</time>
      </trkpt>
      <trkpt lat="39.512906" lon="2.916702">
        <ele>237.6</ele>
        <time>2016-04-18T15:08:22Z</time>
      </trkpt>
      <trkpt lat="39.51292" lon="2.916681">
        <ele>238</ele>
        <time>2016-04-18T15:08:23Z</time>
      </trkpt>
      <trkpt lat="39.512957" lon="2.916599">
        <ele>238.8</ele>
        <time>2016-04-18T15:08:26Z</time>
      </trkpt>
      <trkpt lat="39.512967" lon="2.916573">
        <ele>239.2</ele>
        <time>2016-04-18T15:08:27Z</time>
      </trkpt>
      <trkpt lat="39.512975" lon="2.916548">
        <ele>239.6</ele>
        <time>2016-04-18T15:08:28Z</time>
      </trkpt>
      <trkpt lat="39.512983" lon="2.91652">
        <ele>240</ele>
        <time>2016-04-18T15:08:29Z</time>
      </trkpt>
      <trkpt lat="39.512997" lon="2.916388">
        <ele>240.6</ele>
        <time>2016-04-18T15:08:34Z</time>
      </trkpt>
      <trkpt lat="39.513" lon="2.91636">
        <ele>241</ele>
        <time>2016-04-18T15:08:35Z</time>
      </trkpt>
      <trkpt lat="39.513003" lon="2.916327">
        <ele>241.4</ele>
        <time>2016-04-18T15:08:36Z</time>
      </trkpt>
      <trkpt lat="39.513006" lon="2.916292">
        <ele>241.8</ele>
        <time>2016-04-18T15:08:37Z</time>
      </trkpt>
      <trkpt lat="39.513008" lon="2.916262">
        <ele>242.2</ele>
        <time>2016-04-18T15:08:38Z</time>
      </trkpt>
      <trkpt lat="39.513043" lon="2.916182">
        <ele>242.2</ele>
        <time>2016-04-18T15:08:41Z</time>
      </trkpt>
      <trkpt lat="39.513085" lon="2.916202">
        <ele>242.6</ele>
        <time>2016-04-18T15:08:43Z</time>
      </trkpt>
      <trkpt lat="39.513096" lon="2.916227">
        <ele>243</ele>
        <time>2016-04-18T15:08:44Z</time>
      </trkpt>
      <trkpt lat="39.513103" lon="2.916248">
        <ele>243.6</ele>
        <time>2016-04-18T15:08:45Z</time>
      </trkpt>
      <trkpt lat="39.513111" lon="2.916268">
        <ele>244</ele>
        <time>2016-04-18T15:08:46Z</time>
      </trkpt>
      <trkpt lat="39.51312" lon="2.916291">
        <ele>244.4</ele>
        <time>2016-04-18T15:08:47Z</time>
      </trkpt>
      <trkpt lat="39.513169" lon="2.916385">
        <ele>244.4</ele>
        <time>2016-04-18T15:08:51Z</time>
      </trkpt>
      <trkpt lat="39.513223" lon="2.916518">
        <ele>244.8</ele>
        <time>2016-04-18T15:08:56Z</time>
      </trkpt>
      <trkpt lat="39.513231" lon="2.916545">
        <ele>245.2</ele>
        <time>2016-04-18T15:08:57Z</time>
      </trkpt>
      <trkpt lat="39.513238" lon="2.916572">
        <ele>245.6</ele>
        <time>2016-04-18T15:08:58Z</time>
      </trkpt>
      <trkpt lat="39.513249" lon="2.916593">
        <ele>246.2</ele>
        <time>2016-04-18T15:08:59Z</time>
      </trkpt>
      <trkpt lat="39.513257" lon="2.916615">
        <ele>246.6</ele>
        <time>2016-04-18T15:09:00Z</time>
      </trkpt>
      <trkpt lat="39.513287" lon="2.916679">
        <ele>246.6</ele>
        <time>2016-04-18T15:09:03Z</time>
      </trkpt>
      <trkpt lat="39.513301" lon="2.916697">
        <ele>247</ele>
        <time>2016-04-18T15:09:04Z</time>
      </trkpt>
      <trkpt lat="39.513315" lon="2.916716">
        <ele>247.4</ele>
        <time>2016-04-18T15:09:05Z</time>
      </trkpt>
      <trkpt lat="39.513329" lon="2.916725">
        <ele>247.8</ele>
        <time>2016-04-18T15:09:06Z</time>
      </trkpt>
      <trkpt lat="39.51334" lon="2.916712">
        <ele>248.2</ele>
        <time>2016-04-18T15:09:07Z</time>
      </trkpt>
      <trkpt lat="39.513351" lon="2.916693">
        <ele>248.6</ele>
        <time>2016-04-18T15:09:08Z</time>
      </trkpt>
      <trkpt lat="39.513423" lon="2.916548">
        <ele>248.6</ele>
        <time>2016-04-18T15:09:14Z</time>
      </trkpt>
      <trkpt lat="39.513445" lon="2.916504">
        <ele>249</ele>
        <time>2016-04-18T15:09:16Z</time>
      </trkpt>
      <trkpt lat="39.513456" lon="2.91648">
        <ele>249.4</ele>
        <time>2016-04-18T15:09:17Z</time>
      </trkpt>
      <trkpt lat="39.51347" lon="2.916456">
        <ele>249.8</ele>
        <time>2016-04-18T15:09:18Z</time>
      </trkpt>
      <trkpt lat="39.513484" lon="2.916435">
        <ele>250.2</ele>
        <time>2016-04-18T15:09:19Z</time>
      </trkpt>
      <trkpt lat="39.513501" lon="2.916416">
        <ele>250.6</ele>
        <time>2016-04-18T15:09:20Z</time>
      </trkpt>
      <trkpt lat="39.51354" lon="2.916397">
        <ele>250.6</ele>
        <time>2016-04-18T15:09:22Z</time>
      </trkpt>
      <trkpt lat="39.51357" lon="2.916425">
        <ele>250.6</ele>
        <time>2016-04-18T15:09:24Z</time>
      </trkpt>
      <trkpt lat="39.513578" lon="2.916474">
        <ele>250.6</ele>
        <time>2016-04-18T15:09:26Z</time>
      </trkpt>
      <trkpt lat="39.513585" lon="2.916559">
        <ele>251</ele>
        <time>2016-04-18T15:09:29Z</time>
      </trkpt>
      <trkpt lat="39.513593" lon="2.916585">
        <ele>251.4</ele>
        <time>2016-04-18T15:09:30Z</time>
      </trkpt>
      <trkpt lat="39.5136" lon="2.916611">
        <ele>251.8</ele>
        <time>2016-04-18T15:09:31Z</time>
      </trkpt>
      <trkpt lat="39.513608" lon="2.916638">
        <ele>252.2</ele>
        <time>2016-04-18T15:09:32Z</time>
      </trkpt>
      <trkpt lat="39.513611" lon="2.916667">
        <ele>252.6</ele>
        <time>2016-04-18T15:09:33Z</time>
      </trkpt>
      <trkpt lat="39.513613" lon="2.916696">
        <ele>252.6</ele>
        <time>2016-04-18T15:09:34Z</time>
      </trkpt>
      <trkpt lat="39.513636" lon="2.916806">
        <ele>253</ele>
        <time>2016-04-18T15:09:38Z</time>
      </trkpt>
      <trkpt lat="39.513639" lon="2.916837">
        <ele>253.4</ele>
        <time>2016-04-18T15:09:39Z</time>
      </trkpt>
      <trkpt lat="39.513647" lon="2.916864">
        <ele>253.8</ele>
        <time>2016-04-18T15:09:40Z</time>
      </trkpt>
      <trkpt lat="39.513658" lon="2.916889">
        <ele>254.8</ele>
        <time>2016-04-18T15:09:41Z</time>
      </trkpt>
      <trkpt lat="39.513685" lon="2.91691">
        <ele>255.2</ele>
        <time>2016-04-18T15:09:43Z</time>
      </trkpt>
      <trkpt lat="39.5137" lon="2.916904">
        <ele>255.6</ele>
        <time>2016-04-18T15:09:44Z</time>
      </trkpt>
      <trkpt lat="39.513716" lon="2.916892">
        <ele>256</ele>
        <time>2016-04-18T15:09:45Z</time>
      </trkpt>
      <trkpt lat="39.513729" lon="2.916872">
        <ele>256.4</ele>
        <time>2016-04-18T15:09:46Z</time>
      </trkpt>
      <trkpt lat="39.513739" lon="2.916847">
        <ele>256.8</ele>
        <time>2016-04-18T15:09:47Z</time>
      </trkpt>
      <trkpt lat="39.513746" lon="2.916822">
        <ele>256.8</ele>
        <time>2016-04-18T15:09:48Z</time>
      </trkpt>
      <trkpt lat="39.513762" lon="2.916685">
        <ele>256.8</ele>
        <time>2016-04-18T15:09:53Z</time>
      </trkpt>
      <trkpt lat="39.513767" lon="2.916657">
        <ele>257.2</ele>
        <time>2016-04-18T15:09:54Z</time>
      </trkpt>
      <trkpt lat="39.513768" lon="2.916629">
        <ele>257.6</ele>
        <time>2016-04-18T15:09:55Z</time>
      </trkpt>
      <trkpt lat="39.513773" lon="2.916603">
        <ele>258</ele>
        <time>2016-04-18T15:09:56Z</time>
      </trkpt>
      <trkpt lat="39.513782" lon="2.916573">
        <ele>258.4</ele>
        <time>2016-04-18T15:09:57Z</time>
      </trkpt>
      <trkpt lat="39.513792" lon="2.916547">
        <ele>258.8</ele>
        <time>2016-04-18T15:09:58Z</time>
      </trkpt>
      <trkpt lat="39.513811" lon="2.916531">
        <ele>258.8</ele>
        <time>2016-04-18T15:09:59Z</time>
      </trkpt>
      <trkpt lat="39.513865" lon="2.916575">
        <ele>258.8</ele>
        <time>2016-04-18T15:10:02Z</time>
      </trkpt>
      <trkpt lat="39.513873" lon="2.916599">
        <ele>258.8</ele>
        <time>2016-04-18T15:10:03Z</time>
      </trkpt>
      <trkpt lat="39.513883" lon="2.916644">
        <ele>259.6</ele>
        <time>2016-04-18T15:10:05Z</time>
      </trkpt>
      <trkpt lat="39.51389" lon="2.916668">
        <ele>260</ele>
        <time>2016-04-18T15:10:06Z</time>
      </trkpt>
      <trkpt lat="39.513898" lon="2.916689">
        <ele>260.4</ele>
        <time>2016-04-18T15:10:07Z</time>
      </trkpt>
      <trkpt lat="39.513902" lon="2.916712">
        <ele>260.8</ele>
        <time>2016-04-18T15:10:08Z</time>
      </trkpt>
      <trkpt lat="39.513908" lon="2.916763">
        <ele>260.8</ele>
        <time>2016-04-18T15:10:10Z</time>
      </trkpt>
      <trkpt lat="39.513929" lon="2.916884">
        <ele>261.2</ele>
        <time>2016-04-18T15:10:14Z</time>
      </trkpt>
      <trkpt lat="39.513936" lon="2.916911">
        <ele>261.6</ele>
        <time>2016-04-18T15:10:15Z</time>
      </trkpt>
      <trkpt lat="39.513945" lon="2.916932">
        <ele>262</ele>
        <time>2016-04-18T15:10:16Z</time>
      </trkpt>
      <trkpt lat="39.513957" lon="2.916949">
        <ele>262.4</ele>
        <time>2016-04-18T15:10:17Z</time>
      </trkpt>
      <trkpt lat="39.513975" lon="2.916954">
        <ele>263</ele>
        <time>2016-04-18T15:10:18Z</time>
      </trkpt>
      <trkpt lat="39.513997" lon="2.916919">
        <ele>263</ele>
        <time>2016-04-18T15:10:20Z</time>
      </trkpt>
      <trkpt lat="39.514004" lon="2.916886">
        <ele>263</ele>
        <time>2016-04-18T15:10:21Z</time>
      </trkpt>
      <trkpt lat="39.514005" lon="2.91685">
        <ele>263.4</ele>
        <time>2016-04-18T15:10:22Z</time>
      </trkpt>
      <trkpt lat="39.514007" lon="2.916816">
        <ele>263.8</ele>
        <time>2016-04-18T15:10:23Z</time>
      </trkpt>
      <trkpt lat="39.514014" lon="2.916782">
        <ele>264.2</ele>
        <time>2016-04-18T15:10:24Z</time>
      </trkpt>
      <trkpt lat="39.514026" lon="2.916752">
        <ele>264.6</ele>
        <time>2016-04-18T15:10:25Z</time>
      </trkpt>
      <trkpt lat="39.51405" lon="2.916742">
        <ele>265</ele>
        <time>2016-04-18T15:10:26Z</time>
      </trkpt>
      <trkpt lat="39.51407" lon="2.91675">
        <ele>265</ele>
        <time>2016-04-18T15:10:27Z</time>
      </trkpt>
      <trkpt lat="39.514102" lon="2.916782">
        <ele>265.4</ele>
        <time>2016-04-18T15:10:29Z</time>
      </trkpt>
      <trkpt lat="39.514114" lon="2.916803">
        <ele>265.8</ele>
        <time>2016-04-18T15:10:30Z</time>
      </trkpt>
      <trkpt lat="39.514129" lon="2.916827">
        <ele>266.6</ele>
        <time>2016-04-18T15:10:31Z</time>
      </trkpt>
      <trkpt lat="39.514143" lon="2.916854">
        <ele>267</ele>
        <time>2016-04-18T15:10:32Z</time>
      </trkpt>
      <trkpt lat="39.514218" lon="2.916987">
        <ele>267.6</ele>
        <time>2016-04-18T15:10:38Z</time>
      </trkpt>
      <trkpt lat="39.514231" lon="2.917012">
        <ele>268</ele>
        <time>2016-04-18T15:10:39Z</time>
      </trkpt>
      <trkpt lat="39.514243" lon="2.917039">
        <ele>268.4</ele>
        <time>2016-04-18T15:10:40Z</time>
      </trkpt>
      <trkpt lat="39.514259" lon="2.917064">
        <ele>268.8</ele>
        <time>2016-04-18T15:10:41Z</time>
      </trkpt>
      <trkpt lat="39.514272" lon="2.917087">
        <ele>269.2</ele>
        <time>2016-04-18T15:10:42Z</time>
      </trkpt>
      <trkpt lat="39.514365" lon="2.917244">
        <ele>269.6</ele>
        <time>2016-04-18T15:10:49Z</time>
      </trkpt>
      <trkpt lat="39.514378" lon="2.917269">
        <ele>270</ele>
        <time>2016-04-18T15:10:50Z</time>
      </trkpt>
      <trkpt lat="39.51439" lon="2.917294">
        <ele>270.4</ele>
        <time>2016-04-18T15:10:51Z</time>
      </trkpt>
      <trkpt lat="39.514402" lon="2.91732">
        <ele>270.8</ele>
        <time>2016-04-18T15:10:52Z</time>
      </trkpt>
      <trkpt lat="39.514412" lon="2.917344">
        <ele>271.2</ele>
        <time>2016-04-18T15:10:53Z</time>
      </trkpt>
      <trkpt lat="39.514443" lon="2.917372">
        <ele>271.2</ele>
        <time>2016-04-18T15:10:55Z</time>
      </trkpt>
      <trkpt lat="39.514468" lon="2.917368">
        <ele>271.2</ele>
        <time>2016-04-18T15:10:56Z</time>
      </trkpt>
      <trkpt lat="39.514488" lon="2.917356">
        <ele>271.6</ele>
        <time>2016-04-18T15:10:57Z</time>
      </trkpt>
      <trkpt lat="39.514501" lon="2.91734">
        <ele>272</ele>
        <time>2016-04-18T15:10:58Z</time>
      </trkpt>
      <trkpt lat="39.514506" lon="2.917321">
        <ele>272.4</ele>
        <time>2016-04-18T15:10:59Z</time>
      </trkpt>
      <trkpt lat="39.514504" lon="2.917301">
        <ele>273</ele>
        <time>2016-04-18T15:11:00Z</time>
      </trkpt>
      <trkpt lat="39.514497" lon="2.917279">
        <ele>273.4</ele>
        <time>2016-04-18T15:11:01Z</time>
      </trkpt>
      <trkpt lat="39.514475" lon="2.917176">
        <ele>273.4</ele>
        <time>2016-04-18T15:11:05Z</time>
      </trkpt>
      <trkpt lat="39.514467" lon="2.917145">
        <ele>273.4</ele>
        <time>2016-04-18T15:11:06Z</time>
      </trkpt>
      <trkpt lat="39.514432" lon="2.917023">
        <ele>273.8</ele>
        <time>2016-04-18T15:11:10Z</time>
      </trkpt>
      <trkpt lat="39.514424" lon="2.916994">
        <ele>274.2</ele>
        <time>2016-04-18T15:11:11Z</time>
      </trkpt>
      <trkpt lat="39.514427" lon="2.916962">
        <ele>274.6</ele>
        <time>2016-04-18T15:11:12Z</time>
      </trkpt>
      <trkpt lat="39.514433" lon="2.916932">
        <ele>275</ele>
        <time>2016-04-18T15:11:13Z</time>
      </trkpt>
      <trkpt lat="39.51445" lon="2.916911">
        <ele>275.4</ele>
        <time>2016-04-18T15:11:14Z</time>
      </trkpt>
      <trkpt lat="39.514502" lon="2.916945">
        <ele>275.4</ele>
        <time>2016-04-18T15:11:17Z</time>
      </trkpt>
      <trkpt lat="39.51456" lon="2.917087">
        <ele>275.4</ele>
        <time>2016-04-18T15:11:23Z</time>
      </trkpt>
      <trkpt lat="39.514586" lon="2.917126">
        <ele>275.8</ele>
        <time>2016-04-18T15:11:25Z</time>
      </trkpt>
      <trkpt lat="39.514597" lon="2.91715">
        <ele>276.2</ele>
        <time>2016-04-18T15:11:26Z</time>
      </trkpt>
      <trkpt lat="39.514607" lon="2.917177">
        <ele>276.8</ele>
        <time>2016-04-18T15:11:27Z</time>
      </trkpt>
      <trkpt lat="39.514616" lon="2.917207">
        <ele>277.2</ele>
        <time>2016-04-18T15:11:28Z</time>
      </trkpt>
      <trkpt lat="39.514626" lon="2.917231">
        <ele>277.6</ele>
        <time>2016-04-18T15:11:29Z</time>
      </trkpt>
      <trkpt lat="39.51465" lon="2.917279">
        <ele>278</ele>
        <time>2016-04-18T15:11:31Z</time>
      </trkpt>
      <trkpt lat="39.514662" lon="2.917301">
        <ele>278.6</ele>
        <time>2016-04-18T15:11:32Z</time>
      </trkpt>
      <trkpt lat="39.514674" lon="2.917321">
        <ele>279</ele>
        <time>2016-04-18T15:11:33Z</time>
      </trkpt>
      <trkpt lat="39.51469" lon="2.917336">
        <ele>279.4</ele>
        <time>2016-04-18T15:11:34Z</time>
      </trkpt>
      <trkpt lat="39.514707" lon="2.917339">
        <ele>280</ele>
        <time>2016-04-18T15:11:35Z</time>
      </trkpt>
      <trkpt lat="39.514727" lon="2.917269">
        <ele>280</ele>
        <time>2016-04-18T15:11:38Z</time>
      </trkpt>
      <trkpt lat="39.514715" lon="2.917209">
        <ele>280</ele>
        <time>2016-04-18T15:11:40Z</time>
      </trkpt>
      <trkpt lat="39.514697" lon="2.91711">
        <ele>280</ele>
        <time>2016-04-18T15:11:43Z</time>
      </trkpt>
      <trkpt lat="39.5147" lon="2.917044">
        <ele>280.8</ele>
        <time>2016-04-18T15:11:45Z</time>
      </trkpt>
      <trkpt lat="39.514705" lon="2.917012">
        <ele>281.2</ele>
        <time>2016-04-18T15:11:46Z</time>
      </trkpt>
      <trkpt lat="39.51472" lon="2.916993">
        <ele>281.6</ele>
        <time>2016-04-18T15:11:47Z</time>
      </trkpt>
      <trkpt lat="39.51473" lon="2.916993">
        <ele>282</ele>
        <time>2016-04-18T15:11:48Z</time>
      </trkpt>
      <trkpt lat="39.514791" lon="2.91704">
        <ele>282.4</ele>
        <time>2016-04-18T15:11:52Z</time>
      </trkpt>
      <trkpt lat="39.51481" lon="2.91705">
        <ele>282.8</ele>
        <time>2016-04-18T15:11:53Z</time>
      </trkpt>
      <trkpt lat="39.51483" lon="2.917066">
        <ele>283.2</ele>
        <time>2016-04-18T15:11:54Z</time>
      </trkpt>
      <trkpt lat="39.514846" lon="2.917084">
        <ele>283.6</ele>
        <time>2016-04-18T15:11:55Z</time>
      </trkpt>
      <trkpt lat="39.514859" lon="2.917103">
        <ele>284</ele>
        <time>2016-04-18T15:11:56Z</time>
      </trkpt>
      <trkpt lat="39.514868" lon="2.917127">
        <ele>284</ele>
        <time>2016-04-18T15:11:57Z</time>
      </trkpt>
      <trkpt lat="39.514899" lon="2.917189">
        <ele>284</ele>
        <time>2016-04-18T15:12:00Z</time>
      </trkpt>
      <trkpt lat="39.514909" lon="2.917208">
        <ele>284.4</ele>
        <time>2016-04-18T15:12:01Z</time>
      </trkpt>
      <trkpt lat="39.514917" lon="2.917222">
        <ele>284.8</ele>
        <time>2016-04-18T15:12:02Z</time>
      </trkpt>
      <trkpt lat="39.514923" lon="2.917238">
        <ele>285.2</ele>
        <time>2016-04-18T15:12:03Z</time>
      </trkpt>
      <trkpt lat="39.51493" lon="2.917263">
        <ele>285.6</ele>
        <time>2016-04-18T15:12:04Z</time>
      </trkpt>
      <trkpt lat="39.51494" lon="2.917285">
        <ele>286.2</ele>
        <time>2016-04-18T15:12:05Z</time>
      </trkpt>
      <trkpt lat="39.514962" lon="2.917344">
        <ele>286.2</ele>
        <time>2016-04-18T15:12:08Z</time>
      </trkpt>
      <trkpt lat="39.514974" lon="2.917357">
        <ele>286.6</ele>
        <time>2016-04-18T15:12:09Z</time>
      </trkpt>
      <trkpt lat="39.514982" lon="2.917383">
        <ele>287</ele>
        <time>2016-04-18T15:12:10Z</time>
      </trkpt>
      <trkpt lat="39.514992" lon="2.917403">
        <ele>287.4</ele>
        <time>2016-04-18T15:12:11Z</time>
      </trkpt>
      <trkpt lat="39.515" lon="2.917428">
        <ele>287.8</ele>
        <time>2016-04-18T15:12:12Z</time>
      </trkpt>
      <trkpt lat="39.515012" lon="2.917456">
        <ele>288.2</ele>
        <time>2016-04-18T15:12:13Z</time>
      </trkpt>
      <trkpt lat="39.51502" lon="2.91748">
        <ele>288.2</ele>
        <time>2016-04-18T15:12:14Z</time>
      </trkpt>
      <trkpt lat="39.515039" lon="2.917564">
        <ele>288.6</ele>
        <time>2016-04-18T15:12:17Z</time>
      </trkpt>
      <trkpt lat="39.515044" lon="2.917589">
        <ele>289</ele>
        <time>2016-04-18T15:12:18Z</time>
      </trkpt>
      <trkpt lat="39.515046" lon="2.917606">
        <ele>289.4</ele>
        <time>2016-04-18T15:12:19Z</time>
      </trkpt>
      <trkpt lat="39.515052" lon="2.91763">
        <ele>289.8</ele>
        <time>2016-04-18T15:12:20Z</time>
      </trkpt>
      <trkpt lat="39.515058" lon="2.917651">
        <ele>290.2</ele>
        <time>2016-04-18T15:12:21Z</time>
      </trkpt>
      <trkpt lat="39.51509" lon="2.91778">
        <ele>290.2</ele>
        <time>2016-04-18T15:12:26Z</time>
      </trkpt>
      <trkpt lat="39.515094" lon="2.917808">
        <ele>290.6</ele>
        <time>2016-04-18T15:12:27Z</time>
      </trkpt>
      <trkpt lat="39.515097" lon="2.917831">
        <ele>291.2</ele>
        <time>2016-04-18T15:12:28Z</time>
      </trkpt>
      <trkpt lat="39.515099" lon="2.917859">
        <ele>291.6</ele>
        <time>2016-04-18T15:12:29Z</time>
      </trkpt>
      <trkpt lat="39.515102" lon="2.917888">
        <ele>292</ele>
        <time>2016-04-18T15:12:30Z</time>
      </trkpt>
      <trkpt lat="39.515109" lon="2.917911">
        <ele>292.4</ele>
        <time>2016-04-18T15:12:31Z</time>
      </trkpt>
      <trkpt lat="39.515128" lon="2.918038">
        <ele>292.8</ele>
        <time>2016-04-18T15:12:35Z</time>
      </trkpt>
      <trkpt lat="39.515129" lon="2.918072">
        <ele>293.2</ele>
        <time>2016-04-18T15:12:36Z</time>
      </trkpt>
      <trkpt lat="39.515125" lon="2.918098">
        <ele>293.6</ele>
        <time>2016-04-18T15:12:37Z</time>
      </trkpt>
      <trkpt lat="39.515123" lon="2.91813">
        <ele>294</ele>
        <time>2016-04-18T15:12:38Z</time>
      </trkpt>
      <trkpt lat="39.515121" lon="2.918162">
        <ele>294.4</ele>
        <time>2016-04-18T15:12:39Z</time>
      </trkpt>
      <trkpt lat="39.515142" lon="2.918298">
        <ele>294.4</ele>
        <time>2016-04-18T15:12:44Z</time>
      </trkpt>
      <trkpt lat="39.515143" lon="2.918324">
        <ele>294.4</ele>
        <time>2016-04-18T15:12:45Z</time>
      </trkpt>
      <trkpt lat="39.515137" lon="2.918351">
        <ele>294.8</ele>
        <time>2016-04-18T15:12:46Z</time>
      </trkpt>
      <trkpt lat="39.515128" lon="2.918378">
        <ele>295.4</ele>
        <time>2016-04-18T15:12:47Z</time>
      </trkpt>
      <trkpt lat="39.515125" lon="2.918407">
        <ele>295.8</ele>
        <time>2016-04-18T15:12:48Z</time>
      </trkpt>
      <trkpt lat="39.515118" lon="2.918441">
        <ele>296.2</ele>
        <time>2016-04-18T15:12:49Z</time>
      </trkpt>
      <trkpt lat="39.515117" lon="2.918476">
        <ele>296.6</ele>
        <time>2016-04-18T15:12:50Z</time>
      </trkpt>
      <trkpt lat="39.515124" lon="2.918645">
        <ele>296.6</ele>
        <time>2016-04-18T15:12:55Z</time>
      </trkpt>
      <trkpt lat="39.515137" lon="2.918698">
        <ele>297.4</ele>
        <time>2016-04-18T15:12:57Z</time>
      </trkpt>
      <trkpt lat="39.515131" lon="2.91873">
        <ele>297.8</ele>
        <time>2016-04-18T15:12:58Z</time>
      </trkpt>
      <trkpt lat="39.515127" lon="2.918761">
        <ele>298.2</ele>
        <time>2016-04-18T15:12:59Z</time>
      </trkpt>
      <trkpt lat="39.515127" lon="2.918784">
        <ele>298.6</ele>
        <time>2016-04-18T15:13:00Z</time>
      </trkpt>
      <trkpt lat="39.515155" lon="2.918895">
        <ele>299.2</ele>
        <time>2016-04-18T15:13:05Z</time>
      </trkpt>
      <trkpt lat="39.515161" lon="2.918916">
        <ele>299.6</ele>
        <time>2016-04-18T15:13:06Z</time>
      </trkpt>
      <trkpt lat="39.515164" lon="2.91894">
        <ele>300.2</ele>
        <time>2016-04-18T15:13:07Z</time>
      </trkpt>
      <trkpt lat="39.515172" lon="2.918965">
        <ele>300.6</ele>
        <time>2016-04-18T15:13:08Z</time>
      </trkpt>
      <trkpt lat="39.515174" lon="2.91899">
        <ele>301.2</ele>
        <time>2016-04-18T15:13:09Z</time>
      </trkpt>
      <trkpt lat="39.515178" lon="2.919021">
        <ele>301.2</ele>
        <time>2016-04-18T15:13:10Z</time>
      </trkpt>
      <trkpt lat="39.51519" lon="2.919068">
        <ele>301.2</ele>
        <time>2016-04-18T15:13:12Z</time>
      </trkpt>
      <trkpt lat="39.515216" lon="2.919151">
        <ele>301.2</ele>
        <time>2016-04-18T15:13:15Z</time>
      </trkpt>
      <trkpt lat="39.515225" lon="2.919176">
        <ele>301.6</ele>
        <time>2016-04-18T15:13:16Z</time>
      </trkpt>
      <trkpt lat="39.515237" lon="2.919203">
        <ele>302</ele>
        <time>2016-04-18T15:13:17Z</time>
      </trkpt>
      <trkpt lat="39.515246" lon="2.919227">
        <ele>302.4</ele>
        <time>2016-04-18T15:13:18Z</time>
      </trkpt>
      <trkpt lat="39.515255" lon="2.919248">
        <ele>302.8</ele>
        <time>2016-04-18T15:13:19Z</time>
      </trkpt>
      <trkpt lat="39.515268" lon="2.91927">
        <ele>303.2</ele>
        <time>2016-04-18T15:13:20Z</time>
      </trkpt>
      <trkpt lat="39.515287" lon="2.91932">
        <ele>303.2</ele>
        <time>2016-04-18T15:13:22Z</time>
      </trkpt>
      <trkpt lat="39.515322" lon="2.919429">
        <ele>303.6</ele>
        <time>2016-04-18T15:13:26Z</time>
      </trkpt>
      <trkpt lat="39.51533" lon="2.919451">
        <ele>304</ele>
        <time>2016-04-18T15:13:27Z</time>
      </trkpt>
      <trkpt lat="39.515339" lon="2.919477">
        <ele>304.4</ele>
        <time>2016-04-18T15:13:28Z</time>
      </trkpt>
      <trkpt lat="39.515346" lon="2.919504">
        <ele>304.8</ele>
        <time>2016-04-18T15:13:29Z</time>
      </trkpt>
      <trkpt lat="39.515353" lon="2.919524">
        <ele>305.4</ele>
        <time>2016-04-18T15:13:30Z</time>
      </trkpt>
      <trkpt lat="39.515377" lon="2.919627">
        <ele>305.4</ele>
        <time>2016-04-18T15:13:35Z</time>
      </trkpt>
      <trkpt lat="39.515397" lon="2.919701">
        <ele>305.8</ele>
        <time>2016-04-18T15:13:38Z</time>
      </trkpt>
      <trkpt lat="39.515407" lon="2.919718">
        <ele>306.2</ele>
        <time>2016-04-18T15:13:39Z</time>
      </trkpt>
      <trkpt lat="39.515417" lon="2.919741">
        <ele>306.6</ele>
        <time>2016-04-18T15:13:40Z</time>
      </trkpt>
      <trkpt lat="39.515411" lon="2.919777">
        <ele>307</ele>
        <time>2016-04-18T15:13:41Z</time>
      </trkpt>
      <trkpt lat="39.515412" lon="2.919804">
        <ele>307.4</ele>
        <time>2016-04-18T15:13:42Z</time>
      </trkpt>
      <trkpt lat="39.515414" lon="2.919835">
        <ele>307.4</ele>
        <time>2016-04-18T15:13:43Z</time>
      </trkpt>
      <trkpt lat="39.51544" lon="2.919935">
        <ele>308.4</ele>
        <time>2016-04-18T15:13:47Z</time>
      </trkpt>
      <trkpt lat="39.515444" lon="2.919959">
        <ele>308.8</ele>
        <time>2016-04-18T15:13:48Z</time>
      </trkpt>
      <trkpt lat="39.515452" lon="2.919973">
        <ele>309.2</ele>
        <time>2016-04-18T15:13:49Z</time>
      </trkpt>
      <trkpt lat="39.515459" lon="2.919995">
        <ele>309.6</ele>
        <time>2016-04-18T15:13:50Z</time>
      </trkpt>
      <trkpt lat="39.515476" lon="2.920041">
        <ele>309.6</ele>
        <time>2016-04-18T15:13:52Z</time>
      </trkpt>
      <trkpt lat="39.515504" lon="2.920072">
        <ele>309.6</ele>
        <time>2016-04-18T15:13:54Z</time>
      </trkpt>
      <trkpt lat="39.515526" lon="2.920115">
        <ele>310</ele>
        <time>2016-04-18T15:13:56Z</time>
      </trkpt>
      <trkpt lat="39.515538" lon="2.920137">
        <ele>310.4</ele>
        <time>2016-04-18T15:13:57Z</time>
      </trkpt>
      <trkpt lat="39.515549" lon="2.920152">
        <ele>310.8</ele>
        <time>2016-04-18T15:13:58Z</time>
      </trkpt>
      <trkpt lat="39.515564" lon="2.920178">
        <ele>311.2</ele>
        <time>2016-04-18T15:13:59Z</time>
      </trkpt>
      <trkpt lat="39.515577" lon="2.920201">
        <ele>311.6</ele>
        <time>2016-04-18T15:14:00Z</time>
      </trkpt>
      <trkpt lat="39.515612" lon="2.920264">
        <ele>312.2</ele>
        <time>2016-04-18T15:14:03Z</time>
      </trkpt>
      <trkpt lat="39.515623" lon="2.920292">
        <ele>312.6</ele>
        <time>2016-04-18T15:14:04Z</time>
      </trkpt>
      <trkpt lat="39.515632" lon="2.920315">
        <ele>313</ele>
        <time>2016-04-18T15:14:05Z</time>
      </trkpt>
      <trkpt lat="39.515645" lon="2.92034">
        <ele>313.4</ele>
        <time>2016-04-18T15:14:06Z</time>
      </trkpt>
      <trkpt lat="39.515657" lon="2.920364">
        <ele>313.8</ele>
        <time>2016-04-18T15:14:07Z</time>
      </trkpt>
      <trkpt lat="39.515697" lon="2.920443">
        <ele>313.8</ele>
        <time>2016-04-18T15:14:10Z</time>
      </trkpt>
      <trkpt lat="39.515713" lon="2.920478">
        <ele>314.2</ele>
        <time>2016-04-18T15:14:11Z</time>
      </trkpt>
      <trkpt lat="39.515725" lon="2.920513">
        <ele>315.2</ele>
        <time>2016-04-18T15:14:12Z</time>
      </trkpt>
      <trkpt lat="39.515736" lon="2.92054">
        <ele>315.6</ele>
        <time>2016-04-18T15:14:13Z</time>
      </trkpt>
      <trkpt lat="39.515744" lon="2.920566">
        <ele>316</ele>
        <time>2016-04-18T15:14:14Z</time>
      </trkpt>
      <trkpt lat="39.515752" lon="2.920588">
        <ele>316</ele>
        <time>2016-04-18T15:14:15Z</time>
      </trkpt>
      <trkpt lat="39.515802" lon="2.920725">
        <ele>316.4</ele>
        <time>2016-04-18T15:14:20Z</time>
      </trkpt>
      <trkpt lat="39.515811" lon="2.920749">
        <ele>316.8</ele>
        <time>2016-04-18T15:14:21Z</time>
      </trkpt>
      <trkpt lat="39.515819" lon="2.920775">
        <ele>317.2</ele>
        <time>2016-04-18T15:14:22Z</time>
      </trkpt>
      <trkpt lat="39.515827" lon="2.920798">
        <ele>317.6</ele>
        <time>2016-04-18T15:14:23Z</time>
      </trkpt>
      <trkpt lat="39.515837" lon="2.920821">
        <ele>318</ele>
        <time>2016-04-18T15:14:24Z</time>
      </trkpt>
      <trkpt lat="39.515899" lon="2.92099">
        <ele>318</ele>
        <time>2016-04-18T15:14:30Z</time>
      </trkpt>
      <trkpt lat="39.515944" lon="2.921154">
        <ele>318.4</ele>
        <time>2016-04-18T15:14:35Z</time>
      </trkpt>
      <trkpt lat="39.515951" lon="2.921186">
        <ele>319.2</ele>
        <time>2016-04-18T15:14:36Z</time>
      </trkpt>
      <trkpt lat="39.515959" lon="2.921201">
        <ele>319.8</ele>
        <time>2016-04-18T15:14:37Z</time>
      </trkpt>
      <trkpt lat="39.515971" lon="2.92123">
        <ele>320.2</ele>
        <time>2016-04-18T15:14:38Z</time>
      </trkpt>
      <trkpt lat="39.515981" lon="2.921262">
        <ele>320.2</ele>
        <time>2016-04-18T15:14:39Z</time>
      </trkpt>
      <trkpt lat="39.516079" lon="2.921523">
        <ele>320.2</ele>
        <time>2016-04-18T15:14:46Z</time>
      </trkpt>
      <trkpt lat="39.516094" lon="2.921551">
        <ele>320.6</ele>
        <time>2016-04-18T15:14:47Z</time>
      </trkpt>
      <trkpt lat="39.516109" lon="2.921577">
        <ele>321</ele>
        <time>2016-04-18T15:14:48Z</time>
      </trkpt>
      <trkpt lat="39.516123" lon="2.921612">
        <ele>321.4</ele>
        <time>2016-04-18T15:14:49Z</time>
      </trkpt>
      <trkpt lat="39.516138" lon="2.921645">
        <ele>321.8</ele>
        <time>2016-04-18T15:14:50Z</time>
      </trkpt>
      <trkpt lat="39.516152" lon="2.921673">
        <ele>322.2</ele>
        <time>2016-04-18T15:14:51Z</time>
      </trkpt>
      <trkpt lat="39.516177" lon="2.921729">
        <ele>322.2</ele>
        <time>2016-04-18T15:14:53Z</time>
      </trkpt>
      <trkpt lat="39.516213" lon="2.921826">
        <ele>322.6</ele>
        <time>2016-04-18T15:14:56Z</time>
      </trkpt>
      <trkpt lat="39.516225" lon="2.921862">
        <ele>323</ele>
        <time>2016-04-18T15:14:57Z</time>
      </trkpt>
      <trkpt lat="39.516237" lon="2.921898">
        <ele>323.4</ele>
        <time>2016-04-18T15:14:58Z</time>
      </trkpt>
      <trkpt lat="39.516248" lon="2.921937">
        <ele>323.8</ele>
        <time>2016-04-18T15:14:59Z</time>
      </trkpt>
      <trkpt lat="39.516258" lon="2.921975">
        <ele>324.2</ele>
        <time>2016-04-18T15:15:00Z</time>
      </trkpt>
      <trkpt lat="39.516352" lon="2.922223">
        <ele>324.2</ele>
        <time>2016-04-18T15:15:07Z</time>
      </trkpt>
      <trkpt lat="39.516418" lon="2.922392">
        <ele>324.2</ele>
        <time>2016-04-18T15:15:13Z</time>
      </trkpt>
      <trkpt lat="39.51644" lon="2.922406">
        <ele>324.6</ele>
        <time>2016-04-18T15:15:14Z</time>
      </trkpt>
      <trkpt lat="39.516459" lon="2.922421">
        <ele>325.2</ele>
        <time>2016-04-18T15:15:15Z</time>
      </trkpt>
      <trkpt lat="39.516484" lon="2.922436">
        <ele>325.6</ele>
        <time>2016-04-18T15:15:16Z</time>
      </trkpt>
      <trkpt lat="39.516509" lon="2.92245">
        <ele>326</ele>
        <time>2016-04-18T15:15:17Z</time>
      </trkpt>
      <trkpt lat="39.516531" lon="2.922463">
        <ele>326.4</ele>
        <time>2016-04-18T15:15:18Z</time>
      </trkpt>
      <trkpt lat="39.516625" lon="2.922534">
        <ele>326.8</ele>
        <time>2016-04-18T15:15:23Z</time>
      </trkpt>
      <trkpt lat="39.516646" lon="2.922545">
        <ele>327.2</ele>
        <time>2016-04-18T15:15:24Z</time>
      </trkpt>
      <trkpt lat="39.516667" lon="2.922556">
        <ele>327.6</ele>
        <time>2016-04-18T15:15:25Z</time>
      </trkpt>
      <trkpt lat="39.516686" lon="2.922569">
        <ele>328.4</ele>
        <time>2016-04-18T15:15:26Z</time>
      </trkpt>
      <trkpt lat="39.516778" lon="2.922624">
        <ele>328.4</ele>
        <time>2016-04-18T15:15:31Z</time>
      </trkpt>
      <trkpt lat="39.51679" lon="2.922627">
        <ele>329</ele>
        <time>2016-04-18T15:15:32Z</time>
      </trkpt>
      <trkpt lat="39.516805" lon="2.922635">
        <ele>329.4</ele>
        <time>2016-04-18T15:15:33Z</time>
      </trkpt>
      <trkpt lat="39.516822" lon="2.922639">
        <ele>329.8</ele>
        <time>2016-04-18T15:15:34Z</time>
      </trkpt>
      <trkpt lat="39.516834" lon="2.922646">
        <ele>330.2</ele>
        <time>2016-04-18T15:15:35Z</time>
      </trkpt>
      <trkpt lat="39.51685" lon="2.922652">
        <ele>330.8</ele>
        <time>2016-04-18T15:15:36Z</time>
      </trkpt>
      <trkpt lat="39.516931" lon="2.922677">
        <ele>331.2</ele>
        <time>2016-04-18T15:15:40Z</time>
      </trkpt>
      <trkpt lat="39.516962" lon="2.922685">
        <ele>331.6</ele>
        <time>2016-04-18T15:15:41Z</time>
      </trkpt>
      <trkpt lat="39.51699" lon="2.922689">
        <ele>332</ele>
        <time>2016-04-18T15:15:42Z</time>
      </trkpt>
      <trkpt lat="39.517015" lon="2.922691">
        <ele>332.4</ele>
        <time>2016-04-18T15:15:43Z</time>
      </trkpt>
      <trkpt lat="39.517032" lon="2.922688">
        <ele>332.8</ele>
        <time>2016-04-18T15:15:44Z</time>
      </trkpt>
      <trkpt lat="39.517074" lon="2.922694">
        <ele>332.8</ele>
        <time>2016-04-18T15:15:46Z</time>
      </trkpt>
      <trkpt lat="39.517088" lon="2.922707">
        <ele>332.8</ele>
        <time>2016-04-18T15:15:47Z</time>
      </trkpt>
      <trkpt lat="39.517106" lon="2.922715">
        <ele>333.2</ele>
        <time>2016-04-18T15:15:48Z</time>
      </trkpt>
      <trkpt lat="39.517122" lon="2.922729">
        <ele>333.8</ele>
        <time>2016-04-18T15:15:49Z</time>
      </trkpt>
      <trkpt lat="39.517137" lon="2.922739">
        <ele>334.6</ele>
        <time>2016-04-18T15:15:50Z</time>
      </trkpt>
      <trkpt lat="39.517155" lon="2.922748">
        <ele>335</ele>
        <time>2016-04-18T15:15:51Z</time>
      </trkpt>
      <trkpt lat="39.51719" lon="2.922766">
        <ele>335</ele>
        <time>2016-04-18T15:15:53Z</time>
      </trkpt>
      <trkpt lat="39.517212" lon="2.922774">
        <ele>335.4</ele>
        <time>2016-04-18T15:15:54Z</time>
      </trkpt>
      <trkpt lat="39.517228" lon="2.922784">
        <ele>335.8</ele>
        <time>2016-04-18T15:15:55Z</time>
      </trkpt>
      <trkpt lat="39.517243" lon="2.922795">
        <ele>336.4</ele>
        <time>2016-04-18T15:15:56Z</time>
      </trkpt>
      <trkpt lat="39.517256" lon="2.922801">
        <ele>336.8</ele>
        <time>2016-04-18T15:15:57Z</time>
      </trkpt>
      <trkpt lat="39.517277" lon="2.922812">
        <ele>337.2</ele>
        <time>2016-04-18T15:15:58Z</time>
      </trkpt>
      <trkpt lat="39.517369" lon="2.92287">
        <ele>337.6</ele>
        <time>2016-04-18T15:16:03Z</time>
      </trkpt>
      <trkpt lat="39.517385" lon="2.92288">
        <ele>338</ele>
        <time>2016-04-18T15:16:04Z</time>
      </trkpt>
      <trkpt lat="39.517405" lon="2.922896">
        <ele>338.4</ele>
        <time>2016-04-18T15:16:05Z</time>
      </trkpt>
      <trkpt lat="39.517421" lon="2.922913">
        <ele>338.8</ele>
        <time>2016-04-18T15:16:06Z</time>
      </trkpt>
      <trkpt lat="39.517438" lon="2.922932">
        <ele>339.2</ele>
        <time>2016-04-18T15:16:07Z</time>
      </trkpt>
      <trkpt lat="39.517491" lon="2.923002">
        <ele>339.8</ele>
        <time>2016-04-18T15:16:11Z</time>
      </trkpt>
      <trkpt lat="39.517502" lon="2.923011">
        <ele>340.2</ele>
        <time>2016-04-18T15:16:12Z</time>
      </trkpt>
      <trkpt lat="39.517518" lon="2.92302">
        <ele>340.6</ele>
        <time>2016-04-18T15:16:13Z</time>
      </trkpt>
      <trkpt lat="39.517534" lon="2.923035">
        <ele>341.2</ele>
        <time>2016-04-18T15:16:14Z</time>
      </trkpt>
      <trkpt lat="39.51755" lon="2.92305">
        <ele>341.6</ele>
        <time>2016-04-18T15:16:15Z</time>
      </trkpt>
      <trkpt lat="39.517582" lon="2.923098">
        <ele>341.6</ele>
        <time>2016-04-18T15:16:18Z</time>
      </trkpt>
      <trkpt lat="39.517656" lon="2.923182">
        <ele>342.2</ele>
        <time>2016-04-18T15:16:23Z</time>
      </trkpt>
      <trkpt lat="39.517674" lon="2.923196">
        <ele>342.8</ele>
        <time>2016-04-18T15:16:24Z</time>
      </trkpt>
      <trkpt lat="39.517687" lon="2.923213">
        <ele>343.4</ele>
        <time>2016-04-18T15:16:25Z</time>
      </trkpt>
      <trkpt lat="39.517708" lon="2.923229">
        <ele>344</ele>
        <time>2016-04-18T15:16:26Z</time>
      </trkpt>
      <trkpt lat="39.517728" lon="2.92324">
        <ele>344.6</ele>
        <time>2016-04-18T15:16:27Z</time>
      </trkpt>
      <trkpt lat="39.517779" lon="2.923309">
        <ele>344.6</ele>
        <time>2016-04-18T15:16:32Z</time>
      </trkpt>
      <trkpt lat="39.517795" lon="2.923342">
        <ele>344.6</ele>
        <time>2016-04-18T15:16:34Z</time>
      </trkpt>
      <trkpt lat="39.517844" lon="2.923394">
        <ele>344.6</ele>
        <time>2016-04-18T15:16:37Z</time>
      </trkpt>
      <trkpt lat="39.517866" lon="2.92341">
        <ele>345</ele>
        <time>2016-04-18T15:16:38Z</time>
      </trkpt>
      <trkpt lat="39.51788" lon="2.923427">
        <ele>345.8</ele>
        <time>2016-04-18T15:16:39Z</time>
      </trkpt>
      <trkpt lat="39.5179" lon="2.923436">
        <ele>346.2</ele>
        <time>2016-04-18T15:16:40Z</time>
      </trkpt>
      <trkpt lat="39.517917" lon="2.923445">
        <ele>346.8</ele>
        <time>2016-04-18T15:16:41Z</time>
      </trkpt>
      <trkpt lat="39.517937" lon="2.923462">
        <ele>346.8</ele>
        <time>2016-04-18T15:16:42Z</time>
      </trkpt>
      <trkpt lat="39.517987" lon="2.923519">
        <ele>347.2</ele>
        <time>2016-04-18T15:16:45Z</time>
      </trkpt>
      <trkpt lat="39.517999" lon="2.923538">
        <ele>347.6</ele>
        <time>2016-04-18T15:16:46Z</time>
      </trkpt>
      <trkpt lat="39.518011" lon="2.923559">
        <ele>348</ele>
        <time>2016-04-18T15:16:47Z</time>
      </trkpt>
      <trkpt lat="39.518025" lon="2.923584">
        <ele>348.4</ele>
        <time>2016-04-18T15:16:48Z</time>
      </trkpt>
      <trkpt lat="39.518034" lon="2.923608">
        <ele>348.8</ele>
        <time>2016-04-18T15:16:49Z</time>
      </trkpt>
      <trkpt lat="39.518093" lon="2.923723">
        <ele>348.8</ele>
        <time>2016-04-18T15:16:53Z</time>
      </trkpt>
      <trkpt lat="39.51814" lon="2.9238">
        <ele>349.2</ele>
        <time>2016-04-18T15:16:56Z</time>
      </trkpt>
      <trkpt lat="39.518155" lon="2.923822">
        <ele>349.8</ele>
        <time>2016-04-18T15:16:57Z</time>
      </trkpt>
      <trkpt lat="39.518168" lon="2.923846">
        <ele>350.2</ele>
        <time>2016-04-18T15:16:58Z</time>
      </trkpt>
      <trkpt lat="39.518184" lon="2.923867">
        <ele>350.6</ele>
        <time>2016-04-18T15:16:59Z</time>
      </trkpt>
      <trkpt lat="39.518196" lon="2.923889">
        <ele>351</ele>
        <time>2016-04-18T15:17:00Z</time>
      </trkpt>
      <trkpt lat="39.518242" lon="2.923974">
        <ele>351.8</ele>
        <time>2016-04-18T15:17:04Z</time>
      </trkpt>
      <trkpt lat="39.518256" lon="2.923997">
        <ele>352.2</ele>
        <time>2016-04-18T15:17:05Z</time>
      </trkpt>
      <trkpt lat="39.518267" lon="2.924018">
        <ele>352.6</ele>
        <time>2016-04-18T15:17:06Z</time>
      </trkpt>
      <trkpt lat="39.51828" lon="2.92404">
        <ele>353</ele>
        <time>2016-04-18T15:17:07Z</time>
      </trkpt>
      <trkpt lat="39.518327" lon="2.924151">
        <ele>353.6</ele>
        <time>2016-04-18T15:17:12Z</time>
      </trkpt>
      <trkpt lat="39.518332" lon="2.924167">
        <ele>354</ele>
        <time>2016-04-18T15:17:13Z</time>
      </trkpt>
      <trkpt lat="39.51834" lon="2.924184">
        <ele>354.4</ele>
        <time>2016-04-18T15:17:14Z</time>
      </trkpt>
      <trkpt lat="39.518348" lon="2.924203">
        <ele>355</ele>
        <time>2016-04-18T15:17:15Z</time>
      </trkpt>
      <trkpt lat="39.51836" lon="2.924224">
        <ele>355.4</ele>
        <time>2016-04-18T15:17:16Z</time>
      </trkpt>
      <trkpt lat="39.518379" lon="2.924261">
        <ele>355.8</ele>
        <time>2016-04-18T15:17:18Z</time>
      </trkpt>
      <trkpt lat="39.518391" lon="2.924286">
        <ele>356.2</ele>
        <time>2016-04-18T15:17:19Z</time>
      </trkpt>
      <trkpt lat="39.518401" lon="2.924316">
        <ele>356.6</ele>
        <time>2016-04-18T15:17:20Z</time>
      </trkpt>
      <trkpt lat="39.518408" lon="2.924347">
        <ele>357</ele>
        <time>2016-04-18T15:17:21Z</time>
      </trkpt>
      <trkpt lat="39.518413" lon="2.92438">
        <ele>357.4</ele>
        <time>2016-04-18T15:17:22Z</time>
      </trkpt>
      <trkpt lat="39.518418" lon="2.924415">
        <ele>357.4</ele>
        <time>2016-04-18T15:17:23Z</time>
      </trkpt>
      <trkpt lat="39.518432" lon="2.92447">
        <ele>358</ele>
        <time>2016-04-18T15:17:25Z</time>
      </trkpt>
      <trkpt lat="39.518438" lon="2.924507">
        <ele>358.4</ele>
        <time>2016-04-18T15:17:26Z</time>
      </trkpt>
      <trkpt lat="39.518441" lon="2.924545">
        <ele>358.8</ele>
        <time>2016-04-18T15:17:27Z</time>
      </trkpt>
      <trkpt lat="39.518446" lon="2.924574">
        <ele>359.4</ele>
        <time>2016-04-18T15:17:28Z</time>
      </trkpt>
      <trkpt lat="39.518456" lon="2.924599">
        <ele>359.8</ele>
        <time>2016-04-18T15:17:29Z</time>
      </trkpt>
      <trkpt lat="39.518463" lon="2.924655">
        <ele>359.8</ele>
        <time>2016-04-18T15:17:31Z</time>
      </trkpt>
      <trkpt lat="39.518466" lon="2.924692">
        <ele>360.2</ele>
        <time>2016-04-18T15:17:32Z</time>
      </trkpt>
      <trkpt lat="39.51847" lon="2.924727">
        <ele>360.8</ele>
        <time>2016-04-18T15:17:33Z</time>
      </trkpt>
      <trkpt lat="39.518472" lon="2.924765">
        <ele>361.2</ele>
        <time>2016-04-18T15:17:34Z</time>
      </trkpt>
      <trkpt lat="39.518473" lon="2.924802">
        <ele>361.6</ele>
        <time>2016-04-18T15:17:35Z</time>
      </trkpt>
      <trkpt lat="39.518475" lon="2.924834">
        <ele>362</ele>
        <time>2016-04-18T15:17:36Z</time>
      </trkpt>
      <trkpt lat="39.518484" lon="2.925035">
        <ele>362</ele>
        <time>2016-04-18T15:17:41Z</time>
      </trkpt>
      <trkpt lat="39.5185" lon="2.92529">
        <ele>362</ele>
        <time>2016-04-18T15:17:46Z</time>
      </trkpt>
      <trkpt lat="39.518549" lon="2.925471">
        <ele>362</ele>
        <time>2016-04-18T15:17:51Z</time>
      </trkpt>
      <trkpt lat="39.518563" lon="2.925543">
        <ele>362</ele>
        <time>2016-04-18T15:17:53Z</time>
      </trkpt>
      <trkpt lat="39.518576" lon="2.925608">
        <ele>362</ele>
        <time>2016-04-18T15:17:55Z</time>
      </trkpt>
      <trkpt lat="39.518594" lon="2.925707">
        <ele>362.4</ele>
        <time>2016-04-18T15:17:58Z</time>
      </trkpt>
      <trkpt lat="39.518604" lon="2.92574">
        <ele>362.8</ele>
        <time>2016-04-18T15:17:59Z</time>
      </trkpt>
      <trkpt lat="39.518615" lon="2.925766">
        <ele>363.2</ele>
        <time>2016-04-18T15:18:00Z</time>
      </trkpt>
      <trkpt lat="39.518613" lon="2.925782">
        <ele>363.8</ele>
        <time>2016-04-18T15:18:01Z</time>
      </trkpt>
      <trkpt lat="39.518596" lon="2.925775">
        <ele>364.2</ele>
        <time>2016-04-18T15:18:02Z</time>
      </trkpt>
      <trkpt lat="39.518587" lon="2.925713">
        <ele>364.2</ele>
        <time>2016-04-18T15:18:04Z</time>
      </trkpt>
      <trkpt lat="39.518585" lon="2.925598">
        <ele>364.2</ele>
        <time>2016-04-18T15:18:07Z</time>
      </trkpt>
      <trkpt lat="39.518586" lon="2.925557">
        <ele>364.2</ele>
        <time>2016-04-18T15:18:08Z</time>
      </trkpt>
      <trkpt lat="39.518592" lon="2.925488">
        <ele>364.6</ele>
        <time>2016-04-18T15:18:10Z</time>
      </trkpt>
      <trkpt lat="39.518587" lon="2.925453">
        <ele>365</ele>
        <time>2016-04-18T15:18:11Z</time>
      </trkpt>
      <trkpt lat="39.518578" lon="2.92542">
        <ele>365.4</ele>
        <time>2016-04-18T15:18:12Z</time>
      </trkpt>
      <trkpt lat="39.518576" lon="2.925383">
        <ele>365.8</ele>
        <time>2016-04-18T15:18:13Z</time>
      </trkpt>
      <trkpt lat="39.518569" lon="2.925345">
        <ele>366.2</ele>
        <time>2016-04-18T15:18:14Z</time>
      </trkpt>
      <trkpt lat="39.518562" lon="2.925199">
        <ele>366.2</ele>
        <time>2016-04-18T15:18:17Z</time>
      </trkpt>
      <trkpt lat="39.518563" lon="2.92509">
        <ele>366.2</ele>
        <time>2016-04-18T15:18:19Z</time>
      </trkpt>
      <trkpt lat="39.518575" lon="2.924973">
        <ele>366.2</ele>
        <time>2016-04-18T15:18:21Z</time>
      </trkpt>
      <trkpt lat="39.51859" lon="2.924867">
        <ele>366.2</ele>
        <time>2016-04-18T15:18:23Z</time>
      </trkpt>
      <trkpt lat="39.518616" lon="2.924733">
        <ele>366.6</ele>
        <time>2016-04-18T15:18:26Z</time>
      </trkpt>
      <trkpt lat="39.518624" lon="2.924702">
        <ele>367</ele>
        <time>2016-04-18T15:18:27Z</time>
      </trkpt>
      <trkpt lat="39.518631" lon="2.924671">
        <ele>367.6</ele>
        <time>2016-04-18T15:18:28Z</time>
      </trkpt>
      <trkpt lat="39.518637" lon="2.924637">
        <ele>368</ele>
        <time>2016-04-18T15:18:29Z</time>
      </trkpt>
      <trkpt lat="39.518643" lon="2.924604">
        <ele>368.4</ele>
        <time>2016-04-18T15:18:30Z</time>
      </trkpt>
      <trkpt lat="39.518669" lon="2.92448">
        <ele>368.8</ele>
        <time>2016-04-18T15:18:34Z</time>
      </trkpt>
      <trkpt lat="39.518673" lon="2.924447">
        <ele>369.2</ele>
        <time>2016-04-18T15:18:35Z</time>
      </trkpt>
      <trkpt lat="39.51868" lon="2.924415">
        <ele>369.8</ele>
        <time>2016-04-18T15:18:36Z</time>
      </trkpt>
      <trkpt lat="39.518685" lon="2.924384">
        <ele>370.2</ele>
        <time>2016-04-18T15:18:37Z</time>
      </trkpt>
      <trkpt lat="39.518693" lon="2.924352">
        <ele>370.6</ele>
        <time>2016-04-18T15:18:38Z</time>
      </trkpt>
      <trkpt lat="39.518737" lon="2.924228">
        <ele>371.2</ele>
        <time>2016-04-18T15:18:42Z</time>
      </trkpt>
      <trkpt lat="39.518748" lon="2.924197">
        <ele>372</ele>
        <time>2016-04-18T15:18:43Z</time>
      </trkpt>
      <trkpt lat="39.518765" lon="2.924168">
        <ele>372.4</ele>
        <time>2016-04-18T15:18:44Z</time>
      </trkpt>
      <trkpt lat="39.518785" lon="2.924142">
        <ele>372.8</ele>
        <time>2016-04-18T15:18:45Z</time>
      </trkpt>
      <trkpt lat="39.51886" lon="2.924082">
        <ele>373.2</ele>
        <time>2016-04-18T15:18:49Z</time>
      </trkpt>
      <trkpt lat="39.518884" lon="2.924079">
        <ele>373.8</ele>
        <time>2016-04-18T15:18:50Z</time>
      </trkpt>
      <trkpt lat="39.518905" lon="2.924071">
        <ele>374.2</ele>
        <time>2016-04-18T15:18:51Z</time>
      </trkpt>
      <trkpt lat="39.518927" lon="2.924079">
        <ele>374.6</ele>
        <time>2016-04-18T15:18:52Z</time>
      </trkpt>
      <trkpt lat="39.518948" lon="2.924096">
        <ele>375</ele>
        <time>2016-04-18T15:18:53Z</time>
      </trkpt>
      <trkpt lat="39.518962" lon="2.924123">
        <ele>375</ele>
        <time>2016-04-18T15:18:54Z</time>
      </trkpt>
      <trkpt lat="39.518931" lon="2.924208">
        <ele>375</ele>
        <time>2016-04-18T15:18:57Z</time>
      </trkpt>
      <trkpt lat="39.518917" lon="2.924235">
        <ele>375</ele>
        <time>2016-04-18T15:18:58Z</time>
      </trkpt>
      <trkpt lat="39.518891" lon="2.924291">
        <ele>375.4</ele>
        <time>2016-04-18T15:19:00Z</time>
      </trkpt>
      <trkpt lat="39.518875" lon="2.924317">
        <ele>375.8</ele>
        <time>2016-04-18T15:19:01Z</time>
      </trkpt>
      <trkpt lat="39.518857" lon="2.924346">
        <ele>376.2</ele>
        <time>2016-04-18T15:19:02Z</time>
      </trkpt>
      <trkpt lat="39.518839" lon="2.92437">
        <ele>376.8</ele>
        <time>2016-04-18T15:19:03Z</time>
      </trkpt>
      <trkpt lat="39.518824" lon="2.924401">
        <ele>377.2</ele>
        <time>2016-04-18T15:19:04Z</time>
      </trkpt>
      <trkpt lat="39.518806" lon="2.924557">
        <ele>377.6</ele>
        <time>2016-04-18T15:19:09Z</time>
      </trkpt>
      <trkpt lat="39.518812" lon="2.92459">
        <ele>378</ele>
        <time>2016-04-18T15:19:10Z</time>
      </trkpt>
      <trkpt lat="39.518819" lon="2.924623">
        <ele>378.4</ele>
        <time>2016-04-18T15:19:11Z</time>
      </trkpt>
      <trkpt lat="39.518834" lon="2.92465">
        <ele>378.8</ele>
        <time>2016-04-18T15:19:12Z</time>
      </trkpt>
      <trkpt lat="39.518848" lon="2.924672">
        <ele>379.2</ele>
        <time>2016-04-18T15:19:13Z</time>
      </trkpt>
      <trkpt lat="39.518887" lon="2.924703">
        <ele>379.2</ele>
        <time>2016-04-18T15:19:15Z</time>
      </trkpt>
      <trkpt lat="39.519026" lon="2.924717">
        <ele>379.6</ele>
        <time>2016-04-18T15:19:20Z</time>
      </trkpt>
      <trkpt lat="39.519054" lon="2.924716">
        <ele>380</ele>
        <time>2016-04-18T15:19:21Z</time>
      </trkpt>
      <trkpt lat="39.519081" lon="2.924719">
        <ele>380.4</ele>
        <time>2016-04-18T15:19:22Z</time>
      </trkpt>
      <trkpt lat="39.519109" lon="2.924725">
        <ele>380.8</ele>
        <time>2016-04-18T15:19:23Z</time>
      </trkpt>
      <trkpt lat="39.519139" lon="2.92473">
        <ele>381.2</ele>
        <time>2016-04-18T15:19:24Z</time>
      </trkpt>
      <trkpt lat="39.519191" lon="2.92475">
        <ele>381.2</ele>
        <time>2016-04-18T15:19:26Z</time>
      </trkpt>
      <trkpt lat="39.519337" lon="2.924888">
        <ele>381.2</ele>
        <time>2016-04-18T15:19:31Z</time>
      </trkpt>
      <trkpt lat="39.519464" lon="2.924986">
        <ele>381.6</ele>
        <time>2016-04-18T15:19:35Z</time>
      </trkpt>
      <trkpt lat="39.519498" lon="2.925011">
        <ele>382</ele>
        <time>2016-04-18T15:19:36Z</time>
      </trkpt>
      <trkpt lat="39.519531" lon="2.925036">
        <ele>382.4</ele>
        <time>2016-04-18T15:19:37Z</time>
      </trkpt>
      <trkpt lat="39.519563" lon="2.925063">
        <ele>382.8</ele>
        <time>2016-04-18T15:19:38Z</time>
      </trkpt>
      <trkpt lat="39.519591" lon="2.92509">
        <ele>383.4</ele>
        <time>2016-04-18T15:19:39Z</time>
      </trkpt>
      <trkpt lat="39.519723" lon="2.925235">
        <ele>383.8</ele>
        <time>2016-04-18T15:19:44Z</time>
      </trkpt>
      <trkpt lat="39.519745" lon="2.925267">
        <ele>384.2</ele>
        <time>2016-04-18T15:19:45Z</time>
      </trkpt>
      <trkpt lat="39.519771" lon="2.925296">
        <ele>384.6</ele>
        <time>2016-04-18T15:19:46Z</time>
      </trkpt>
      <trkpt lat="39.519801" lon="2.925327">
        <ele>385.2</ele>
        <time>2016-04-18T15:19:47Z</time>
      </trkpt>
      <trkpt lat="39.519834" lon="2.925349">
        <ele>385.6</ele>
        <time>2016-04-18T15:19:48Z</time>
      </trkpt>
      <trkpt lat="39.519907" lon="2.92544">
        <ele>385.6</ele>
        <time>2016-04-18T15:19:51Z</time>
      </trkpt>
      <trkpt lat="39.519987" lon="2.925527">
        <ele>386</ele>
        <time>2016-04-18T15:19:54Z</time>
      </trkpt>
      <trkpt lat="39.520019" lon="2.925556">
        <ele>386.6</ele>
        <time>2016-04-18T15:19:55Z</time>
      </trkpt>
      <trkpt lat="39.520043" lon="2.925588">
        <ele>387</ele>
        <time>2016-04-18T15:19:56Z</time>
      </trkpt>
      <trkpt lat="39.520068" lon="2.92562">
        <ele>387.4</ele>
        <time>2016-04-18T15:19:57Z</time>
      </trkpt>
      <trkpt lat="39.520096" lon="2.925649">
        <ele>387.8</ele>
        <time>2016-04-18T15:19:58Z</time>
      </trkpt>
      <trkpt lat="39.520182" lon="2.925731">
        <ele>388.2</ele>
        <time>2016-04-18T15:20:01Z</time>
      </trkpt>
      <trkpt lat="39.520212" lon="2.925759">
        <ele>388.8</ele>
        <time>2016-04-18T15:20:02Z</time>
      </trkpt>
      <trkpt lat="39.520239" lon="2.925788">
        <ele>389.2</ele>
        <time>2016-04-18T15:20:03Z</time>
      </trkpt>
      <trkpt lat="39.520269" lon="2.925813">
        <ele>389.6</ele>
        <time>2016-04-18T15:20:04Z</time>
      </trkpt>
      <trkpt lat="39.520295" lon="2.925842">
        <ele>390</ele>
        <time>2016-04-18T15:20:05Z</time>
      </trkpt>
      <trkpt lat="39.520323" lon="2.925869">
        <ele>390</ele>
        <time>2016-04-18T15:20:06Z</time>
      </trkpt>
      <trkpt lat="39.52043" lon="2.925995">
        <ele>390.6</ele>
        <time>2016-04-18T15:20:10Z</time>
      </trkpt>
      <trkpt lat="39.520457" lon="2.926024">
        <ele>391</ele>
        <time>2016-04-18T15:20:11Z</time>
      </trkpt>
      <trkpt lat="39.520483" lon="2.926052">
        <ele>391.4</ele>
        <time>2016-04-18T15:20:12Z</time>
      </trkpt>
      <trkpt lat="39.520511" lon="2.926081">
        <ele>392</ele>
        <time>2016-04-18T15:20:13Z</time>
      </trkpt>
      <trkpt lat="39.52054" lon="2.926106">
        <ele>392.4</ele>
        <time>2016-04-18T15:20:14Z</time>
      </trkpt>
      <trkpt lat="39.520569" lon="2.926136">
        <ele>392.4</ele>
        <time>2016-04-18T15:20:15Z</time>
      </trkpt>
      <trkpt lat="39.520695" lon="2.926312">
        <ele>393.6</ele>
        <time>2016-04-18T15:20:20Z</time>
      </trkpt>
      <trkpt lat="39.520737" lon="2.92637">
        <ele>394.2</ele>
        <time>2016-04-18T15:20:22Z</time>
      </trkpt>
      <trkpt lat="39.520759" lon="2.926398">
        <ele>395.2</ele>
        <time>2016-04-18T15:20:23Z</time>
      </trkpt>
      <trkpt lat="39.520918" lon="2.926641">
        <ele>395.6</ele>
        <time>2016-04-18T15:20:30Z</time>
      </trkpt>
      <trkpt lat="39.52094" lon="2.926672">
        <ele>396</ele>
        <time>2016-04-18T15:20:31Z</time>
      </trkpt>
      <trkpt lat="39.520964" lon="2.926705">
        <ele>396.4</ele>
        <time>2016-04-18T15:20:32Z</time>
      </trkpt>
      <trkpt lat="39.520985" lon="2.926737">
        <ele>396.8</ele>
        <time>2016-04-18T15:20:33Z</time>
      </trkpt>
      <trkpt lat="39.521009" lon="2.926768">
        <ele>397.2</ele>
        <time>2016-04-18T15:20:34Z</time>
      </trkpt>
      <trkpt lat="39.521083" lon="2.926855">
        <ele>397.2</ele>
        <time>2016-04-18T15:20:37Z</time>
      </trkpt>
      <trkpt lat="39.521109" lon="2.926884">
        <ele>397.6</ele>
        <time>2016-04-18T15:20:38Z</time>
      </trkpt>
      <trkpt lat="39.521138" lon="2.926908">
        <ele>398</ele>
        <time>2016-04-18T15:20:39Z</time>
      </trkpt>
      <trkpt lat="39.521164" lon="2.926936">
        <ele>398.4</ele>
        <time>2016-04-18T15:20:40Z</time>
      </trkpt>
      <trkpt lat="39.521194" lon="2.926963">
        <ele>398.8</ele>
        <time>2016-04-18T15:20:41Z</time>
      </trkpt>
      <trkpt lat="39.521225" lon="2.92699">
        <ele>399.4</ele>
        <time>2016-04-18T15:20:42Z</time>
      </trkpt>
      <trkpt lat="39.521307" lon="2.927056">
        <ele>399.4</ele>
        <time>2016-04-18T15:20:45Z</time>
      </trkpt>
      <trkpt lat="39.521393" lon="2.927116">
        <ele>399.8</ele>
        <time>2016-04-18T15:20:48Z</time>
      </trkpt>
      <trkpt lat="39.521422" lon="2.927136">
        <ele>400.2</ele>
        <time>2016-04-18T15:20:49Z</time>
      </trkpt>
      <trkpt lat="39.521454" lon="2.927158">
        <ele>400.6</ele>
        <time>2016-04-18T15:20:50Z</time>
      </trkpt>
      <trkpt lat="39.521484" lon="2.927178">
        <ele>401</ele>
        <time>2016-04-18T15:20:51Z</time>
      </trkpt>
      <trkpt lat="39.521514" lon="2.927201">
        <ele>401.4</ele>
        <time>2016-04-18T15:20:52Z</time>
      </trkpt>
      <trkpt lat="39.521543" lon="2.927218">
        <ele>401.4</ele>
        <time>2016-04-18T15:20:53Z</time>
      </trkpt>
      <trkpt lat="39.521604" lon="2.927306">
        <ele>401.8</ele>
        <time>2016-04-18T15:20:56Z</time>
      </trkpt>
      <trkpt lat="39.521583" lon="2.927345">
        <ele>402.2</ele>
        <time>2016-04-18T15:20:57Z</time>
      </trkpt>
      <trkpt lat="39.52155" lon="2.927364">
        <ele>402.6</ele>
        <time>2016-04-18T15:20:58Z</time>
      </trkpt>
      <trkpt lat="39.52152" lon="2.927372">
        <ele>403.2</ele>
        <time>2016-04-18T15:20:59Z</time>
      </trkpt>
      <trkpt lat="39.521498" lon="2.927361">
        <ele>403.6</ele>
        <time>2016-04-18T15:21:00Z</time>
      </trkpt>
      <trkpt lat="39.521481" lon="2.927352">
        <ele>404.2</ele>
        <time>2016-04-18T15:21:01Z</time>
      </trkpt>
      <trkpt lat="39.521463" lon="2.927332">
        <ele>404.8</ele>
        <time>2016-04-18T15:21:02Z</time>
      </trkpt>
      <trkpt lat="39.52144" lon="2.92731">
        <ele>405.4</ele>
        <time>2016-04-18T15:21:03Z</time>
      </trkpt>
      <trkpt lat="39.521409" lon="2.927293">
        <ele>405.8</ele>
        <time>2016-04-18T15:21:04Z</time>
      </trkpt>
      <trkpt lat="39.521351" lon="2.92725">
        <ele>405.8</ele>
        <time>2016-04-18T15:21:06Z</time>
      </trkpt>
      <trkpt lat="39.521234" lon="2.927162">
        <ele>405.8</ele>
        <time>2016-04-18T15:21:10Z</time>
      </trkpt>
      <trkpt lat="39.521204" lon="2.92714">
        <ele>406.2</ele>
        <time>2016-04-18T15:21:11Z</time>
      </trkpt>
      <trkpt lat="39.521174" lon="2.92712">
        <ele>407.2</ele>
        <time>2016-04-18T15:21:12Z</time>
      </trkpt>
      <trkpt lat="39.521141" lon="2.927095">
        <ele>407.6</ele>
        <time>2016-04-18T15:21:13Z</time>
      </trkpt>
      <trkpt lat="39.521109" lon="2.927065">
        <ele>408</ele>
        <time>2016-04-18T15:21:14Z</time>
      </trkpt>
      <trkpt lat="39.521036" lon="2.927005">
        <ele>408</ele>
        <time>2016-04-18T15:21:16Z</time>
      </trkpt>
      <trkpt lat="39.52087" lon="2.926886">
        <ele>408</ele>
        <time>2016-04-18T15:21:21Z</time>
      </trkpt>
      <trkpt lat="39.520765" lon="2.926809">
        <ele>408.4</ele>
        <time>2016-04-18T15:21:24Z</time>
      </trkpt>
      <trkpt lat="39.520727" lon="2.926784">
        <ele>408.8</ele>
        <time>2016-04-18T15:21:25Z</time>
      </trkpt>
      <trkpt lat="39.520687" lon="2.926763">
        <ele>409.2</ele>
        <time>2016-04-18T15:21:26Z</time>
      </trkpt>
      <trkpt lat="39.520649" lon="2.926745">
        <ele>409.8</ele>
        <time>2016-04-18T15:21:27Z</time>
      </trkpt>
      <trkpt lat="39.520613" lon="2.926722">
        <ele>410.2</ele>
        <time>2016-04-18T15:21:28Z</time>
      </trkpt>
      <trkpt lat="39.52043" lon="2.926615">
        <ele>410.2</ele>
        <time>2016-04-18T15:21:33Z</time>
      </trkpt>
      <trkpt lat="39.520362" lon="2.926563">
        <ele>410.2</ele>
        <time>2016-04-18T15:21:35Z</time>
      </trkpt>
      <trkpt lat="39.520323" lon="2.92654">
        <ele>411</ele>
        <time>2016-04-18T15:21:36Z</time>
      </trkpt>
      <trkpt lat="39.520284" lon="2.926519">
        <ele>411.4</ele>
        <time>2016-04-18T15:21:37Z</time>
      </trkpt>
      <trkpt lat="39.520245" lon="2.926494">
        <ele>411.8</ele>
        <time>2016-04-18T15:21:38Z</time>
      </trkpt>
      <trkpt lat="39.520205" lon="2.926467">
        <ele>412.2</ele>
        <time>2016-04-18T15:21:39Z</time>
      </trkpt>
      <trkpt lat="39.520122" lon="2.926427">
        <ele>412.2</ele>
        <time>2016-04-18T15:21:41Z</time>
      </trkpt>
      <trkpt lat="39.519997" lon="2.926361">
        <ele>412.2</ele>
        <time>2016-04-18T15:21:44Z</time>
      </trkpt>
      <trkpt lat="39.519959" lon="2.926333">
        <ele>412.2</ele>
        <time>2016-04-18T15:21:45Z</time>
      </trkpt>
      <trkpt lat="39.519833" lon="2.926253">
        <ele>412.2</ele>
        <time>2016-04-18T15:21:48Z</time>
      </trkpt>
      <trkpt lat="39.519688" lon="2.92617">
        <ele>412.2</ele>
        <time>2016-04-18T15:21:51Z</time>
      </trkpt>
      <trkpt lat="39.519459" lon="2.926032">
        <ele>412.6</ele>
        <time>2016-04-18T15:21:56Z</time>
      </trkpt>
      <trkpt lat="39.51941" lon="2.926018">
        <ele>413.2</ele>
        <time>2016-04-18T15:21:57Z</time>
      </trkpt>
      <trkpt lat="39.51936" lon="2.926017">
        <ele>413.6</ele>
        <time>2016-04-18T15:21:58Z</time>
      </trkpt>
      <trkpt lat="39.519308" lon="2.926037">
        <ele>414</ele>
        <time>2016-04-18T15:21:59Z</time>
      </trkpt>
      <trkpt lat="39.51927" lon="2.926085">
        <ele>414.4</ele>
        <time>2016-04-18T15:22:00Z</time>
      </trkpt>
      <trkpt lat="39.519271" lon="2.926222">
        <ele>414.4</ele>
        <time>2016-04-18T15:22:02Z</time>
      </trkpt>
      <trkpt lat="39.519353" lon="2.926292">
        <ele>414.4</ele>
        <time>2016-04-18T15:22:04Z</time>
      </trkpt>
      <trkpt lat="39.519436" lon="2.926316">
        <ele>414.4</ele>
        <time>2016-04-18T15:22:06Z</time>
      </trkpt>
      <trkpt lat="39.519477" lon="2.926325">
        <ele>414.8</ele>
        <time>2016-04-18T15:22:07Z</time>
      </trkpt>
      <trkpt lat="39.519516" lon="2.926331">
        <ele>415.2</ele>
        <time>2016-04-18T15:22:08Z</time>
      </trkpt>
      <trkpt lat="39.519551" lon="2.92634">
        <ele>415.8</ele>
        <time>2016-04-18T15:22:09Z</time>
      </trkpt>
      <trkpt lat="39.519588" lon="2.926354">
        <ele>416.2</ele>
        <time>2016-04-18T15:22:10Z</time>
      </trkpt>
      <trkpt lat="39.519623" lon="2.926372">
        <ele>416.6</ele>
        <time>2016-04-18T15:22:11Z</time>
      </trkpt>
      <trkpt lat="39.519734" lon="2.926454">
        <ele>417</ele>
        <time>2016-04-18T15:22:14Z</time>
      </trkpt>
      <trkpt lat="39.519769" lon="2.92648">
        <ele>417.4</ele>
        <time>2016-04-18T15:22:15Z</time>
      </trkpt>
      <trkpt lat="39.519802" lon="2.926509">
        <ele>418</ele>
        <time>2016-04-18T15:22:16Z</time>
      </trkpt>
      <trkpt lat="39.519838" lon="2.926541">
        <ele>418.4</ele>
        <time>2016-04-18T15:22:17Z</time>
      </trkpt>
      <trkpt lat="39.519876" lon="2.926564">
        <ele>418.8</ele>
        <time>2016-04-18T15:22:18Z</time>
      </trkpt>
      <trkpt lat="39.519989" lon="2.926652">
        <ele>418.8</ele>
        <time>2016-04-18T15:22:21Z</time>
      </trkpt>
      <trkpt lat="39.520063" lon="2.926719">
        <ele>419.4</ele>
        <time>2016-04-18T15:22:23Z</time>
      </trkpt>
      <trkpt lat="39.520097" lon="2.926752">
        <ele>419.8</ele>
        <time>2016-04-18T15:22:24Z</time>
      </trkpt>
      <trkpt lat="39.520131" lon="2.926789">
        <ele>420.2</ele>
        <time>2016-04-18T15:22:25Z</time>
      </trkpt>
      <trkpt lat="39.520168" lon="2.926821">
        <ele>421</ele>
        <time>2016-04-18T15:22:26Z</time>
      </trkpt>
      <trkpt lat="39.520284" lon="2.926915">
        <ele>421.4</ele>
        <time>2016-04-18T15:22:29Z</time>
      </trkpt>
      <trkpt lat="39.520324" lon="2.926946">
        <ele>421.8</ele>
        <time>2016-04-18T15:22:30Z</time>
      </trkpt>
      <trkpt lat="39.520363" lon="2.926976">
        <ele>422.4</ele>
        <time>2016-04-18T15:22:31Z</time>
      </trkpt>
      <trkpt lat="39.520403" lon="2.927005">
        <ele>422.8</ele>
        <time>2016-04-18T15:22:32Z</time>
      </trkpt>
      <trkpt lat="39.520443" lon="2.927034">
        <ele>423.2</ele>
        <time>2016-04-18T15:22:33Z</time>
      </trkpt>
      <trkpt lat="39.520489" lon="2.927062">
        <ele>423.2</ele>
        <time>2016-04-18T15:22:34Z</time>
      </trkpt>
      <trkpt lat="39.520563" lon="2.927118">
        <ele>423.6</ele>
        <time>2016-04-18T15:22:36Z</time>
      </trkpt>
      <trkpt lat="39.520602" lon="2.927151">
        <ele>424</ele>
        <time>2016-04-18T15:22:37Z</time>
      </trkpt>
      <trkpt lat="39.520637" lon="2.927183">
        <ele>424.4</ele>
        <time>2016-04-18T15:22:38Z</time>
      </trkpt>
      <trkpt lat="39.520673" lon="2.927215">
        <ele>424.8</ele>
        <time>2016-04-18T15:22:39Z</time>
      </trkpt>
      <trkpt lat="39.520711" lon="2.92725">
        <ele>425.2</ele>
        <time>2016-04-18T15:22:40Z</time>
      </trkpt>
      <trkpt lat="39.520745" lon="2.927274">
        <ele>425.2</ele>
        <time>2016-04-18T15:22:41Z</time>
      </trkpt>
      <trkpt lat="39.520778" lon="2.927302">
        <ele>425.6</ele>
        <time>2016-04-18T15:22:42Z</time>
      </trkpt>
      <trkpt lat="39.52081" lon="2.927327">
        <ele>426</ele>
        <time>2016-04-18T15:22:43Z</time>
      </trkpt>
      <trkpt lat="39.520842" lon="2.927355">
        <ele>426.4</ele>
        <time>2016-04-18T15:22:44Z</time>
      </trkpt>
      <trkpt lat="39.520873" lon="2.927386">
        <ele>426.8</ele>
        <time>2016-04-18T15:22:45Z</time>
      </trkpt>
      <trkpt lat="39.520902" lon="2.927416">
        <ele>427.2</ele>
        <time>2016-04-18T15:22:46Z</time>
      </trkpt>
      <trkpt lat="39.520991" lon="2.927487">
        <ele>427.2</ele>
        <time>2016-04-18T15:22:49Z</time>
      </trkpt>
      <trkpt lat="39.521021" lon="2.92751">
        <ele>427.6</ele>
        <time>2016-04-18T15:22:50Z</time>
      </trkpt>
      <trkpt lat="39.521049" lon="2.927536">
        <ele>428</ele>
        <time>2016-04-18T15:22:51Z</time>
      </trkpt>
      <trkpt lat="39.521078" lon="2.927566">
        <ele>428.4</ele>
        <time>2016-04-18T15:22:52Z</time>
      </trkpt>
      <trkpt lat="39.521109" lon="2.927589">
        <ele>428.8</ele>
        <time>2016-04-18T15:22:53Z</time>
      </trkpt>
      <trkpt lat="39.521139" lon="2.927615">
        <ele>429.2</ele>
        <time>2016-04-18T15:22:54Z</time>
      </trkpt>
      <trkpt lat="39.521172" lon="2.927631">
        <ele>429.2</ele>
        <time>2016-04-18T15:22:55Z</time>
      </trkpt>
      <trkpt lat="39.52137" lon="2.927764">
        <ele>429.6</ele>
        <time>2016-04-18T15:23:01Z</time>
      </trkpt>
      <trkpt lat="39.521405" lon="2.927794">
        <ele>430</ele>
        <time>2016-04-18T15:23:02Z</time>
      </trkpt>
      <trkpt lat="39.521437" lon="2.927825">
        <ele>430.4</ele>
        <time>2016-04-18T15:23:03Z</time>
      </trkpt>
      <trkpt lat="39.521467" lon="2.927853">
        <ele>430.8</ele>
        <time>2016-04-18T15:23:04Z</time>
      </trkpt>
      <trkpt lat="39.521496" lon="2.927882">
        <ele>431.2</ele>
        <time>2016-04-18T15:23:05Z</time>
      </trkpt>
      <trkpt lat="39.521611" lon="2.92801">
        <ele>431.2</ele>
        <time>2016-04-18T15:23:09Z</time>
      </trkpt>
      <trkpt lat="39.521641" lon="2.92804">
        <ele>431.6</ele>
        <time>2016-04-18T15:23:10Z</time>
      </trkpt>
      <trkpt lat="39.521672" lon="2.928073">
        <ele>432.2</ele>
        <time>2016-04-18T15:23:11Z</time>
      </trkpt>
      <trkpt lat="39.521702" lon="2.928099">
        <ele>432.6</ele>
        <time>2016-04-18T15:23:12Z</time>
      </trkpt>
      <trkpt lat="39.52173" lon="2.92813">
        <ele>433</ele>
        <time>2016-04-18T15:23:13Z</time>
      </trkpt>
      <trkpt lat="39.52176" lon="2.928156">
        <ele>433.4</ele>
        <time>2016-04-18T15:23:14Z</time>
      </trkpt>
      <trkpt lat="39.521813" lon="2.928207">
        <ele>433.4</ele>
        <time>2016-04-18T15:23:16Z</time>
      </trkpt>
      <trkpt lat="39.52192" lon="2.928316">
        <ele>433.8</ele>
        <time>2016-04-18T15:23:20Z</time>
      </trkpt>
      <trkpt lat="39.521946" lon="2.928344">
        <ele>434.2</ele>
        <time>2016-04-18T15:23:21Z</time>
      </trkpt>
      <trkpt lat="39.521973" lon="2.928373">
        <ele>434.6</ele>
        <time>2016-04-18T15:23:22Z</time>
      </trkpt>
      <trkpt lat="39.521999" lon="2.928401">
        <ele>435.2</ele>
        <time>2016-04-18T15:23:23Z</time>
      </trkpt>
      <trkpt lat="39.522026" lon="2.928429">
        <ele>435.6</ele>
        <time>2016-04-18T15:23:24Z</time>
      </trkpt>
      <trkpt lat="39.522139" lon="2.92855">
        <ele>435.6</ele>
        <time>2016-04-18T15:23:28Z</time>
      </trkpt>
      <trkpt lat="39.522167" lon="2.928579">
        <ele>436</ele>
        <time>2016-04-18T15:23:29Z</time>
      </trkpt>
      <trkpt lat="39.52219" lon="2.928614">
        <ele>436.4</ele>
        <time>2016-04-18T15:23:30Z</time>
      </trkpt>
      <trkpt lat="39.522218" lon="2.928651">
        <ele>436.8</ele>
        <time>2016-04-18T15:23:31Z</time>
      </trkpt>
      <trkpt lat="39.522246" lon="2.92869">
        <ele>437.2</ele>
        <time>2016-04-18T15:23:32Z</time>
      </trkpt>
      <trkpt lat="39.522272" lon="2.928724">
        <ele>437.6</ele>
        <time>2016-04-18T15:23:33Z</time>
      </trkpt>
      <trkpt lat="39.522299" lon="2.92876">
        <ele>437.6</ele>
        <time>2016-04-18T15:23:34Z</time>
      </trkpt>
      <trkpt lat="39.522372" lon="2.928865">
        <ele>438</ele>
        <time>2016-04-18T15:23:37Z</time>
      </trkpt>
      <trkpt lat="39.522396" lon="2.928902">
        <ele>438.4</ele>
        <time>2016-04-18T15:23:38Z</time>
      </trkpt>
      <trkpt lat="39.52242" lon="2.928941">
        <ele>439.2</ele>
        <time>2016-04-18T15:23:39Z</time>
      </trkpt>
      <trkpt lat="39.522441" lon="2.928979">
        <ele>439.6</ele>
        <time>2016-04-18T15:23:40Z</time>
      </trkpt>
      <trkpt lat="39.522553" lon="2.929188">
        <ele>440.2</ele>
        <time>2016-04-18T15:23:46Z</time>
      </trkpt>
      <trkpt lat="39.522575" lon="2.929224">
        <ele>440.6</ele>
        <time>2016-04-18T15:23:47Z</time>
      </trkpt>
      <trkpt lat="39.522597" lon="2.929257">
        <ele>441</ele>
        <time>2016-04-18T15:23:48Z</time>
      </trkpt>
      <trkpt lat="39.522617" lon="2.929287">
        <ele>441.4</ele>
        <time>2016-04-18T15:23:49Z</time>
      </trkpt>
      <trkpt lat="39.522635" lon="2.929316">
        <ele>441.8</ele>
        <time>2016-04-18T15:23:50Z</time>
      </trkpt>
      <trkpt lat="39.522678" lon="2.929375">
        <ele>441.8</ele>
        <time>2016-04-18T15:23:52Z</time>
      </trkpt>
      <trkpt lat="39.522775" lon="2.929554">
        <ele>442.2</ele>
        <time>2016-04-18T15:23:57Z</time>
      </trkpt>
      <trkpt lat="39.522797" lon="2.929591">
        <ele>442.8</ele>
        <time>2016-04-18T15:23:58Z</time>
      </trkpt>
      <trkpt lat="39.522819" lon="2.929623">
        <ele>443.2</ele>
        <time>2016-04-18T15:23:59Z</time>
      </trkpt>
      <trkpt lat="39.522838" lon="2.929655">
        <ele>443.6</ele>
        <time>2016-04-18T15:24:00Z</time>
      </trkpt>
      <trkpt lat="39.522853" lon="2.92969">
        <ele>444</ele>
        <time>2016-04-18T15:24:01Z</time>
      </trkpt>
      <trkpt lat="39.522872" lon="2.929719">
        <ele>444.6</ele>
        <time>2016-04-18T15:24:02Z</time>
      </trkpt>
      <trkpt lat="39.522891" lon="2.929751">
        <ele>445</ele>
        <time>2016-04-18T15:24:03Z</time>
      </trkpt>
      <trkpt lat="39.522912" lon="2.929781">
        <ele>446</ele>
        <time>2016-04-18T15:24:04Z</time>
      </trkpt>
      <trkpt lat="39.522929" lon="2.929816">
        <ele>446.4</ele>
        <time>2016-04-18T15:24:05Z</time>
      </trkpt>
      <trkpt lat="39.523044" lon="2.929975">
        <ele>446.4</ele>
        <time>2016-04-18T15:24:10Z</time>
      </trkpt>
      <trkpt lat="39.523152" lon="2.930089">
        <ele>446.8</ele>
        <time>2016-04-18T15:24:14Z</time>
      </trkpt>
      <trkpt lat="39.523174" lon="2.930122">
        <ele>447.2</ele>
        <time>2016-04-18T15:24:15Z</time>
      </trkpt>
      <trkpt lat="39.523195" lon="2.930153">
        <ele>447.6</ele>
        <time>2016-04-18T15:24:16Z</time>
      </trkpt>
      <trkpt lat="39.523219" lon="2.930177">
        <ele>448.2</ele>
        <time>2016-04-18T15:24:17Z</time>
      </trkpt>
      <trkpt lat="39.523245" lon="2.930207">
        <ele>448.6</ele>
        <time>2016-04-18T15:24:18Z</time>
      </trkpt>
      <trkpt lat="39.523277" lon="2.930276">
        <ele>448.6</ele>
        <time>2016-04-18T15:24:20Z</time>
      </trkpt>
      <trkpt lat="39.523279" lon="2.93031">
        <ele>448.6</ele>
        <time>2016-04-18T15:24:21Z</time>
      </trkpt>
      <trkpt lat="39.523164" lon="2.930361">
        <ele>448.6</ele>
        <time>2016-04-18T15:24:24Z</time>
      </trkpt>
      <trkpt lat="39.523124" lon="2.93033">
        <ele>449</ele>
        <time>2016-04-18T15:24:25Z</time>
      </trkpt>
      <trkpt lat="39.523096" lon="2.930296">
        <ele>449.4</ele>
        <time>2016-04-18T15:24:26Z</time>
      </trkpt>
      <trkpt lat="39.523073" lon="2.930269">
        <ele>450</ele>
        <time>2016-04-18T15:24:27Z</time>
      </trkpt>
      <trkpt lat="39.523047" lon="2.930238">
        <ele>450.8</ele>
        <time>2016-04-18T15:24:28Z</time>
      </trkpt>
      <trkpt lat="39.522945" lon="2.93012">
        <ele>451.2</ele>
        <time>2016-04-18T15:24:32Z</time>
      </trkpt>
      <trkpt lat="39.522923" lon="2.930092">
        <ele>451.8</ele>
        <time>2016-04-18T15:24:33Z</time>
      </trkpt>
      <trkpt lat="39.522899" lon="2.930061">
        <ele>452.2</ele>
        <time>2016-04-18T15:24:34Z</time>
      </trkpt>
      <trkpt lat="39.522875" lon="2.930032">
        <ele>452.6</ele>
        <time>2016-04-18T15:24:35Z</time>
      </trkpt>
      <trkpt lat="39.522849" lon="2.929999">
        <ele>453</ele>
        <time>2016-04-18T15:24:36Z</time>
      </trkpt>
      <trkpt lat="39.522744" lon="2.929889">
        <ele>453.4</ele>
        <time>2016-04-18T15:24:40Z</time>
      </trkpt>
      <trkpt lat="39.522721" lon="2.929859">
        <ele>454</ele>
        <time>2016-04-18T15:24:41Z</time>
      </trkpt>
      <trkpt lat="39.522697" lon="2.929826">
        <ele>454.4</ele>
        <time>2016-04-18T15:24:42Z</time>
      </trkpt>
      <trkpt lat="39.522669" lon="2.929789">
        <ele>454.8</ele>
        <time>2016-04-18T15:24:43Z</time>
      </trkpt>
      <trkpt lat="39.522636" lon="2.929748">
        <ele>455.2</ele>
        <time>2016-04-18T15:24:44Z</time>
      </trkpt>
      <trkpt lat="39.522508" lon="2.929593">
        <ele>455.2</ele>
        <time>2016-04-18T15:24:48Z</time>
      </trkpt>
      <trkpt lat="39.522382" lon="2.929444">
        <ele>456</ele>
        <time>2016-04-18T15:24:52Z</time>
      </trkpt>
      <trkpt lat="39.522351" lon="2.929409">
        <ele>456.4</ele>
        <time>2016-04-18T15:24:53Z</time>
      </trkpt>
      <trkpt lat="39.522318" lon="2.929374">
        <ele>456.8</ele>
        <time>2016-04-18T15:24:54Z</time>
      </trkpt>
      <trkpt lat="39.522283" lon="2.929338">
        <ele>457.2</ele>
        <time>2016-04-18T15:24:55Z</time>
      </trkpt>
      <trkpt lat="39.522246" lon="2.929303">
        <ele>457.2</ele>
        <time>2016-04-18T15:24:56Z</time>
      </trkpt>
      <trkpt lat="39.522174" lon="2.92924">
        <ele>457.2</ele>
        <time>2016-04-18T15:24:58Z</time>
      </trkpt>
      <trkpt lat="39.522137" lon="2.929213">
        <ele>457.8</ele>
        <time>2016-04-18T15:24:59Z</time>
      </trkpt>
      <trkpt lat="39.5221" lon="2.929185">
        <ele>458.2</ele>
        <time>2016-04-18T15:25:00Z</time>
      </trkpt>
      <trkpt lat="39.522066" lon="2.929154">
        <ele>458.6</ele>
        <time>2016-04-18T15:25:01Z</time>
      </trkpt>
      <trkpt lat="39.52203" lon="2.929127">
        <ele>459</ele>
        <time>2016-04-18T15:25:02Z</time>
      </trkpt>
      <trkpt lat="39.521993" lon="2.929095">
        <ele>459.4</ele>
        <time>2016-04-18T15:25:03Z</time>
      </trkpt>
      <trkpt lat="39.521819" lon="2.928977">
        <ele>459.8</ele>
        <time>2016-04-18T15:25:08Z</time>
      </trkpt>
      <trkpt lat="39.521785" lon="2.928953">
        <ele>460.2</ele>
        <time>2016-04-18T15:25:09Z</time>
      </trkpt>
      <trkpt lat="39.521749" lon="2.928935">
        <ele>460.6</ele>
        <time>2016-04-18T15:25:10Z</time>
      </trkpt>
      <trkpt lat="39.521723" lon="2.928914">
        <ele>461</ele>
        <time>2016-04-18T15:25:11Z</time>
      </trkpt>
      <trkpt lat="39.521691" lon="2.928902">
        <ele>461.6</ele>
        <time>2016-04-18T15:25:12Z</time>
      </trkpt>
      <trkpt lat="39.521603" lon="2.928855">
        <ele>461.6</ele>
        <time>2016-04-18T15:25:15Z</time>
      </trkpt>
      <trkpt lat="39.521574" lon="2.928846">
        <ele>462</ele>
        <time>2016-04-18T15:25:16Z</time>
      </trkpt>
      <trkpt lat="39.52154" lon="2.928837">
        <ele>462.8</ele>
        <time>2016-04-18T15:25:17Z</time>
      </trkpt>
      <trkpt lat="39.521504" lon="2.92883">
        <ele>463.2</ele>
        <time>2016-04-18T15:25:18Z</time>
      </trkpt>
      <trkpt lat="39.521467" lon="2.928822">
        <ele>463.6</ele>
        <time>2016-04-18T15:25:19Z</time>
      </trkpt>
      <trkpt lat="39.521354" lon="2.92881">
        <ele>463.6</ele>
        <time>2016-04-18T15:25:22Z</time>
      </trkpt>
      <trkpt lat="39.521317" lon="2.928807">
        <ele>464</ele>
        <time>2016-04-18T15:25:23Z</time>
      </trkpt>
      <trkpt lat="39.521282" lon="2.928801">
        <ele>464.4</ele>
        <time>2016-04-18T15:25:24Z</time>
      </trkpt>
      <trkpt lat="39.521248" lon="2.928797">
        <ele>464.8</ele>
        <time>2016-04-18T15:25:25Z</time>
      </trkpt>
      <trkpt lat="39.521211" lon="2.928798">
        <ele>465.2</ele>
        <time>2016-04-18T15:25:26Z</time>
      </trkpt>
      <trkpt lat="39.521177" lon="2.928809">
        <ele>465.6</ele>
        <time>2016-04-18T15:25:27Z</time>
      </trkpt>
      <trkpt lat="39.521109" lon="2.928822">
        <ele>465.6</ele>
        <time>2016-04-18T15:25:29Z</time>
      </trkpt>
      <trkpt lat="39.521085" lon="2.928834">
        <ele>466</ele>
        <time>2016-04-18T15:25:30Z</time>
      </trkpt>
      <trkpt lat="39.521058" lon="2.928849">
        <ele>466.4</ele>
        <time>2016-04-18T15:25:31Z</time>
      </trkpt>
      <trkpt lat="39.521028" lon="2.928859">
        <ele>467</ele>
        <time>2016-04-18T15:25:32Z</time>
      </trkpt>
      <trkpt lat="39.520998" lon="2.928877">
        <ele>467.4</ele>
        <time>2016-04-18T15:25:33Z</time>
      </trkpt>
      <trkpt lat="39.52097" lon="2.928898">
        <ele>467.8</ele>
        <time>2016-04-18T15:25:34Z</time>
      </trkpt>
      <trkpt lat="39.520895" lon="2.929035">
        <ele>468.2</ele>
        <time>2016-04-18T15:25:38Z</time>
      </trkpt>
      <trkpt lat="39.520883" lon="2.929077">
        <ele>468.6</ele>
        <time>2016-04-18T15:25:39Z</time>
      </trkpt>
      <trkpt lat="39.520878" lon="2.92912">
        <ele>469</ele>
        <time>2016-04-18T15:25:40Z</time>
      </trkpt>
      <trkpt lat="39.520871" lon="2.929164">
        <ele>469.4</ele>
        <time>2016-04-18T15:25:41Z</time>
      </trkpt>
      <trkpt lat="39.52087" lon="2.929215">
        <ele>469.8</ele>
        <time>2016-04-18T15:25:42Z</time>
      </trkpt>
      <trkpt lat="39.520882" lon="2.929305">
        <ele>469.8</ele>
        <time>2016-04-18T15:25:44Z</time>
      </trkpt>
      <trkpt lat="39.520921" lon="2.929441">
        <ele>470.2</ele>
        <time>2016-04-18T15:25:47Z</time>
      </trkpt>
      <trkpt lat="39.520934" lon="2.929484">
        <ele>470.6</ele>
        <time>2016-04-18T15:25:48Z</time>
      </trkpt>
      <trkpt lat="39.520953" lon="2.929533">
        <ele>471.2</ele>
        <time>2016-04-18T15:25:49Z</time>
      </trkpt>
      <trkpt lat="39.520981" lon="2.929576">
        <ele>471.6</ele>
        <time>2016-04-18T15:25:50Z</time>
      </trkpt>
      <trkpt lat="39.521011" lon="2.929612">
        <ele>472</ele>
        <time>2016-04-18T15:25:51Z</time>
      </trkpt>
      <trkpt lat="39.521157" lon="2.929756">
        <ele>472</ele>
        <time>2016-04-18T15:25:56Z</time>
      </trkpt>
      <trkpt lat="39.521291" lon="2.929843">
        <ele>472.4</ele>
        <time>2016-04-18T15:26:00Z</time>
      </trkpt>
      <trkpt lat="39.521317" lon="2.929865">
        <ele>472.8</ele>
        <time>2016-04-18T15:26:01Z</time>
      </trkpt>
      <trkpt lat="39.521343" lon="2.929897">
        <ele>473.4</ele>
        <time>2016-04-18T15:26:02Z</time>
      </trkpt>
      <trkpt lat="39.52137" lon="2.929923">
        <ele>473.8</ele>
        <time>2016-04-18T15:26:03Z</time>
      </trkpt>
      <trkpt lat="39.521397" lon="2.929958">
        <ele>474.2</ele>
        <time>2016-04-18T15:26:04Z</time>
      </trkpt>
      <trkpt lat="39.521531" lon="2.930106">
        <ele>474.2</ele>
        <time>2016-04-18T15:26:08Z</time>
      </trkpt>
      <trkpt lat="39.521637" lon="2.930216">
        <ele>474.2</ele>
        <time>2016-04-18T15:26:11Z</time>
      </trkpt>
      <trkpt lat="39.521783" lon="2.930352">
        <ele>474.2</ele>
        <time>2016-04-18T15:26:14Z</time>
      </trkpt>
      <trkpt lat="39.522125" lon="2.93066">
        <ele>474.2</ele>
        <time>2016-04-18T15:26:21Z</time>
      </trkpt>
      <trkpt lat="39.522178" lon="2.930687">
        <ele>474.2</ele>
        <time>2016-04-18T15:26:22Z</time>
      </trkpt>
      <trkpt lat="39.522355" lon="2.930762">
        <ele>474.2</ele>
        <time>2016-04-18T15:26:25Z</time>
      </trkpt>
      <trkpt lat="39.52285" lon="2.93099">
        <ele>474.2</ele>
        <time>2016-04-18T15:26:33Z</time>
      </trkpt>
      <trkpt lat="39.523078" lon="2.931156">
        <ele>474.2</ele>
        <time>2016-04-18T15:26:38Z</time>
      </trkpt>
      <trkpt lat="39.523116" lon="2.931177">
        <ele>474.8</ele>
        <time>2016-04-18T15:26:39Z</time>
      </trkpt>
      <trkpt lat="39.523151" lon="2.931195">
        <ele>475.2</ele>
        <time>2016-04-18T15:26:40Z</time>
      </trkpt>
      <trkpt lat="39.523183" lon="2.931219">
        <ele>475.8</ele>
        <time>2016-04-18T15:26:41Z</time>
      </trkpt>
      <trkpt lat="39.523216" lon="2.931239">
        <ele>476.2</ele>
        <time>2016-04-18T15:26:42Z</time>
      </trkpt>
      <trkpt lat="39.523251" lon="2.931255">
        <ele>476.8</ele>
        <time>2016-04-18T15:26:43Z</time>
      </trkpt>
      <trkpt lat="39.523286" lon="2.93127">
        <ele>477.4</ele>
        <time>2016-04-18T15:26:44Z</time>
      </trkpt>
      <trkpt lat="39.523323" lon="2.931281">
        <ele>478</ele>
        <time>2016-04-18T15:26:45Z</time>
      </trkpt>
      <trkpt lat="39.523355" lon="2.931298">
        <ele>478.4</ele>
        <time>2016-04-18T15:26:46Z</time>
      </trkpt>
      <trkpt lat="39.523391" lon="2.931309">
        <ele>479</ele>
        <time>2016-04-18T15:26:47Z</time>
      </trkpt>
      <trkpt lat="39.523467" lon="2.931331">
        <ele>479</ele>
        <time>2016-04-18T15:26:49Z</time>
      </trkpt>
      <trkpt lat="39.523553" lon="2.931351">
        <ele>479.4</ele>
        <time>2016-04-18T15:26:51Z</time>
      </trkpt>
      <trkpt lat="39.523589" lon="2.93136">
        <ele>479.8</ele>
        <time>2016-04-18T15:26:52Z</time>
      </trkpt>
      <trkpt lat="39.523627" lon="2.931372">
        <ele>480.2</ele>
        <time>2016-04-18T15:26:53Z</time>
      </trkpt>
      <trkpt lat="39.523664" lon="2.931382">
        <ele>480.6</ele>
        <time>2016-04-18T15:26:54Z</time>
      </trkpt>
      <trkpt lat="39.523703" lon="2.93139">
        <ele>481.2</ele>
        <time>2016-04-18T15:26:55Z</time>
      </trkpt>
      <trkpt lat="39.523781" lon="2.931391">
        <ele>481.6</ele>
        <time>2016-04-18T15:26:57Z</time>
      </trkpt>
      <trkpt lat="39.523821" lon="2.93139">
        <ele>482</ele>
        <time>2016-04-18T15:26:58Z</time>
      </trkpt>
      <trkpt lat="39.52386" lon="2.931386">
        <ele>482.4</ele>
        <time>2016-04-18T15:26:59Z</time>
      </trkpt>
      <trkpt lat="39.523899" lon="2.931379">
        <ele>482.8</ele>
        <time>2016-04-18T15:27:00Z</time>
      </trkpt>
      <trkpt lat="39.523937" lon="2.931373">
        <ele>483.2</ele>
        <time>2016-04-18T15:27:01Z</time>
      </trkpt>
      <trkpt lat="39.524012" lon="2.931366">
        <ele>483.2</ele>
        <time>2016-04-18T15:27:03Z</time>
      </trkpt>
      <trkpt lat="39.524048" lon="2.931366">
        <ele>483.6</ele>
        <time>2016-04-18T15:27:04Z</time>
      </trkpt>
      <trkpt lat="39.524084" lon="2.931364">
        <ele>484</ele>
        <time>2016-04-18T15:27:05Z</time>
      </trkpt>
      <trkpt lat="39.524119" lon="2.93136">
        <ele>484.4</ele>
        <time>2016-04-18T15:27:06Z</time>
      </trkpt>
      <trkpt lat="39.524155" lon="2.931355">
        <ele>484.8</ele>
        <time>2016-04-18T15:27:07Z</time>
      </trkpt>
      <trkpt lat="39.524191" lon="2.93135">
        <ele>485.2</ele>
        <time>2016-04-18T15:27:08Z</time>
      </trkpt>
      <trkpt lat="39.524332" lon="2.931323">
        <ele>485.2</ele>
        <time>2016-04-18T15:27:12Z</time>
      </trkpt>
      <trkpt lat="39.524371" lon="2.931317">
        <ele>485.6</ele>
        <time>2016-04-18T15:27:13Z</time>
      </trkpt>
      <trkpt lat="39.524404" lon="2.931307">
        <ele>486.2</ele>
        <time>2016-04-18T15:27:14Z</time>
      </trkpt>
      <trkpt lat="39.524435" lon="2.931303">
        <ele>486.6</ele>
        <time>2016-04-18T15:27:15Z</time>
      </trkpt>
      <trkpt lat="39.524468" lon="2.931304">
        <ele>487</ele>
        <time>2016-04-18T15:27:16Z</time>
      </trkpt>
      <trkpt lat="39.524499" lon="2.931304">
        <ele>487.4</ele>
        <time>2016-04-18T15:27:17Z</time>
      </trkpt>
      <trkpt lat="39.524533" lon="2.931302">
        <ele>487.4</ele>
        <time>2016-04-18T15:27:18Z</time>
      </trkpt>
      <trkpt lat="39.524604" lon="2.931302">
        <ele>488.2</ele>
        <time>2016-04-18T15:27:20Z</time>
      </trkpt>
      <trkpt lat="39.52464" lon="2.931297">
        <ele>488.6</ele>
        <time>2016-04-18T15:27:21Z</time>
      </trkpt>
      <trkpt lat="39.524674" lon="2.931297">
        <ele>489</ele>
        <time>2016-04-18T15:27:22Z</time>
      </trkpt>
      <trkpt lat="39.524709" lon="2.931293">
        <ele>489.4</ele>
        <time>2016-04-18T15:27:23Z</time>
      </trkpt>
      <trkpt lat="39.524771" lon="2.931282">
        <ele>489.4</ele>
        <time>2016-04-18T15:27:25Z</time>
      </trkpt>
      <trkpt lat="39.524894" lon="2.931294">
        <ele>490</ele>
        <time>2016-04-18T15:27:29Z</time>
      </trkpt>
      <trkpt lat="39.524925" lon="2.931285">
        <ele>490.4</ele>
        <time>2016-04-18T15:27:30Z</time>
      </trkpt>
      <trkpt lat="39.524959" lon="2.931281">
        <ele>490.8</ele>
        <time>2016-04-18T15:27:31Z</time>
      </trkpt>
      <trkpt lat="39.524993" lon="2.93128">
        <ele>491.2</ele>
        <time>2016-04-18T15:27:32Z</time>
      </trkpt>
      <trkpt lat="39.525031" lon="2.931276">
        <ele>491.6</ele>
        <time>2016-04-18T15:27:33Z</time>
      </trkpt>
      <trkpt lat="39.525178" lon="2.931246">
        <ele>491.6</ele>
        <time>2016-04-18T15:27:37Z</time>
      </trkpt>
      <trkpt lat="39.525292" lon="2.931162">
        <ele>492</ele>
        <time>2016-04-18T15:27:41Z</time>
      </trkpt>
      <trkpt lat="39.525315" lon="2.931132">
        <ele>492.4</ele>
        <time>2016-04-18T15:27:42Z</time>
      </trkpt>
      <trkpt lat="39.525338" lon="2.931111">
        <ele>492.8</ele>
        <time>2016-04-18T15:27:43Z</time>
      </trkpt>
      <trkpt lat="39.525359" lon="2.931082">
        <ele>493.2</ele>
        <time>2016-04-18T15:27:44Z</time>
      </trkpt>
      <trkpt lat="39.525375" lon="2.931048">
        <ele>493.8</ele>
        <time>2016-04-18T15:27:45Z</time>
      </trkpt>
      <trkpt lat="39.525389" lon="2.930965">
        <ele>493.8</ele>
        <time>2016-04-18T15:27:47Z</time>
      </trkpt>
      <trkpt lat="39.525355" lon="2.930754">
        <ele>493.8</ele>
        <time>2016-04-18T15:27:51Z</time>
      </trkpt>
      <trkpt lat="39.525333" lon="2.930652">
        <ele>494.2</ele>
        <time>2016-04-18T15:27:53Z</time>
      </trkpt>
      <trkpt lat="39.525318" lon="2.930605">
        <ele>494.6</ele>
        <time>2016-04-18T15:27:54Z</time>
      </trkpt>
      <trkpt lat="39.525298" lon="2.930562">
        <ele>495</ele>
        <time>2016-04-18T15:27:55Z</time>
      </trkpt>
      <trkpt lat="39.525276" lon="2.930517">
        <ele>495.6</ele>
        <time>2016-04-18T15:27:56Z</time>
      </trkpt>
      <trkpt lat="39.525253" lon="2.930472">
        <ele>496</ele>
        <time>2016-04-18T15:27:57Z</time>
      </trkpt>
      <trkpt lat="39.525147" lon="2.930304">
        <ele>496</ele>
        <time>2016-04-18T15:28:01Z</time>
      </trkpt>
      <trkpt lat="39.525116" lon="2.930265">
        <ele>496</ele>
        <time>2016-04-18T15:28:02Z</time>
      </trkpt>
      <trkpt lat="39.525014" lon="2.930146">
        <ele>496.4</ele>
        <time>2016-04-18T15:28:05Z</time>
      </trkpt>
      <trkpt lat="39.524977" lon="2.930104">
        <ele>496.8</ele>
        <time>2016-04-18T15:28:06Z</time>
      </trkpt>
      <trkpt lat="39.524946" lon="2.930059">
        <ele>497.4</ele>
        <time>2016-04-18T15:28:07Z</time>
      </trkpt>
      <trkpt lat="39.524915" lon="2.93002">
        <ele>497.8</ele>
        <time>2016-04-18T15:28:08Z</time>
      </trkpt>
      <trkpt lat="39.524884" lon="2.929978">
        <ele>498.2</ele>
        <time>2016-04-18T15:28:09Z</time>
      </trkpt>
      <trkpt lat="39.524855" lon="2.929935">
        <ele>498.2</ele>
        <time>2016-04-18T15:28:10Z</time>
      </trkpt>
      <trkpt lat="39.524695" lon="2.929731">
        <ele>498.6</ele>
        <time>2016-04-18T15:28:15Z</time>
      </trkpt>
      <trkpt lat="39.524662" lon="2.929687">
        <ele>499</ele>
        <time>2016-04-18T15:28:16Z</time>
      </trkpt>
      <trkpt lat="39.524626" lon="2.929649">
        <ele>499.4</ele>
        <time>2016-04-18T15:28:17Z</time>
      </trkpt>
      <trkpt lat="39.524593" lon="2.929612">
        <ele>499.8</ele>
        <time>2016-04-18T15:28:18Z</time>
      </trkpt>
      <trkpt lat="39.524559" lon="2.929575">
        <ele>500.2</ele>
        <time>2016-04-18T15:28:19Z</time>
      </trkpt>
      <trkpt lat="39.524492" lon="2.929494">
        <ele>500.2</ele>
        <time>2016-04-18T15:28:21Z</time>
      </trkpt>
      <trkpt lat="39.524476" lon="2.929378">
        <ele>500.2</ele>
        <time>2016-04-18T15:28:23Z</time>
      </trkpt>
      <trkpt lat="39.524509" lon="2.929401">
        <ele>500.2</ele>
        <time>2016-04-18T15:28:25Z</time>
      </trkpt>
      <trkpt lat="39.524596" lon="2.929515">
        <ele>500.6</ele>
        <time>2016-04-18T15:28:28Z</time>
      </trkpt>
      <trkpt lat="39.524621" lon="2.92955">
        <ele>501</ele>
        <time>2016-04-18T15:28:29Z</time>
      </trkpt>
      <trkpt lat="39.524645" lon="2.929585">
        <ele>501.4</ele>
        <time>2016-04-18T15:28:30Z</time>
      </trkpt>
      <trkpt lat="39.524665" lon="2.929621">
        <ele>501.8</ele>
        <time>2016-04-18T15:28:31Z</time>
      </trkpt>
      <trkpt lat="39.524691" lon="2.929649">
        <ele>502.2</ele>
        <time>2016-04-18T15:28:32Z</time>
      </trkpt>
      <trkpt lat="39.52478" lon="2.929723">
        <ele>502.2</ele>
        <time>2016-04-18T15:28:35Z</time>
      </trkpt>
      <trkpt lat="39.524873" lon="2.929792">
        <ele>502.8</ele>
        <time>2016-04-18T15:28:38Z</time>
      </trkpt>
      <trkpt lat="39.524903" lon="2.929819">
        <ele>503.2</ele>
        <time>2016-04-18T15:28:39Z</time>
      </trkpt>
      <trkpt lat="39.524933" lon="2.929845">
        <ele>503.6</ele>
        <time>2016-04-18T15:28:40Z</time>
      </trkpt>
      <trkpt lat="39.524962" lon="2.929869">
        <ele>504.2</ele>
        <time>2016-04-18T15:28:41Z</time>
      </trkpt>
      <trkpt lat="39.524992" lon="2.929894">
        <ele>504.8</ele>
        <time>2016-04-18T15:28:42Z</time>
      </trkpt>
      <trkpt lat="39.525021" lon="2.929916">
        <ele>505.4</ele>
        <time>2016-04-18T15:28:43Z</time>
      </trkpt>
      <trkpt lat="39.525051" lon="2.929939">
        <ele>506</ele>
        <time>2016-04-18T15:28:44Z</time>
      </trkpt>
      <trkpt lat="39.525081" lon="2.929961">
        <ele>506.6</ele>
        <time>2016-04-18T15:28:45Z</time>
      </trkpt>
      <trkpt lat="39.525265" lon="2.930096">
        <ele>507.2</ele>
        <time>2016-04-18T15:28:51Z</time>
      </trkpt>
      <trkpt lat="39.525296" lon="2.930113">
        <ele>507.6</ele>
        <time>2016-04-18T15:28:52Z</time>
      </trkpt>
      <trkpt lat="39.525325" lon="2.930146">
        <ele>508</ele>
        <time>2016-04-18T15:28:53Z</time>
      </trkpt>
      <trkpt lat="39.525356" lon="2.930169">
        <ele>508.4</ele>
        <time>2016-04-18T15:28:54Z</time>
      </trkpt>
      <trkpt lat="39.525387" lon="2.930197">
        <ele>509</ele>
        <time>2016-04-18T15:28:55Z</time>
      </trkpt>
      <trkpt lat="39.525435" lon="2.930248">
        <ele>509</ele>
        <time>2016-04-18T15:28:57Z</time>
      </trkpt>
      <trkpt lat="39.525551" lon="2.930385">
        <ele>509.4</ele>
        <time>2016-04-18T15:29:02Z</time>
      </trkpt>
      <trkpt lat="39.525571" lon="2.930418">
        <ele>509.8</ele>
        <time>2016-04-18T15:29:03Z</time>
      </trkpt>
      <trkpt lat="39.525594" lon="2.930455">
        <ele>510.2</ele>
        <time>2016-04-18T15:29:04Z</time>
      </trkpt>
      <trkpt lat="39.525618" lon="2.930487">
        <ele>510.6</ele>
        <time>2016-04-18T15:29:05Z</time>
      </trkpt>
      <trkpt lat="39.525636" lon="2.930526">
        <ele>511</ele>
        <time>2016-04-18T15:29:06Z</time>
      </trkpt>
      <trkpt lat="39.5257" lon="2.930624">
        <ele>511.6</ele>
        <time>2016-04-18T15:29:09Z</time>
      </trkpt>
      <trkpt lat="39.525719" lon="2.930665">
        <ele>512</ele>
        <time>2016-04-18T15:29:10Z</time>
      </trkpt>
      <trkpt lat="39.52574" lon="2.930703">
        <ele>512.4</ele>
        <time>2016-04-18T15:29:11Z</time>
      </trkpt>
      <trkpt lat="39.525765" lon="2.930742">
        <ele>512.8</ele>
        <time>2016-04-18T15:29:12Z</time>
      </trkpt>
      <trkpt lat="39.525788" lon="2.930789">
        <ele>513.2</ele>
        <time>2016-04-18T15:29:13Z</time>
      </trkpt>
      <trkpt lat="39.525878" lon="2.930963">
        <ele>513.2</ele>
        <time>2016-04-18T15:29:17Z</time>
      </trkpt>
      <trkpt lat="39.525899" lon="2.931005">
        <ele>513.8</ele>
        <time>2016-04-18T15:29:18Z</time>
      </trkpt>
      <trkpt lat="39.525917" lon="2.931048">
        <ele>514.2</ele>
        <time>2016-04-18T15:29:19Z</time>
      </trkpt>
      <trkpt lat="39.525936" lon="2.931093">
        <ele>514.6</ele>
        <time>2016-04-18T15:29:20Z</time>
      </trkpt>
      <trkpt lat="39.525955" lon="2.931135">
        <ele>515.2</ele>
        <time>2016-04-18T15:29:21Z</time>
      </trkpt>
      <trkpt lat="39.52597" lon="2.931183">
        <ele>515.6</ele>
        <time>2016-04-18T15:29:22Z</time>
      </trkpt>
      <trkpt lat="39.525989" lon="2.931232">
        <ele>516.4</ele>
        <time>2016-04-18T15:29:23Z</time>
      </trkpt>
      <trkpt lat="39.526002" lon="2.931284">
        <ele>516.8</ele>
        <time>2016-04-18T15:29:24Z</time>
      </trkpt>
      <trkpt lat="39.526009" lon="2.931341">
        <ele>517.4</ele>
        <time>2016-04-18T15:29:25Z</time>
      </trkpt>
      <trkpt lat="39.526024" lon="2.931396">
        <ele>517.8</ele>
        <time>2016-04-18T15:29:26Z</time>
      </trkpt>
      <trkpt lat="39.526055" lon="2.931616">
        <ele>518.2</ele>
        <time>2016-04-18T15:29:30Z</time>
      </trkpt>
      <trkpt lat="39.526066" lon="2.931671">
        <ele>518.6</ele>
        <time>2016-04-18T15:29:31Z</time>
      </trkpt>
      <trkpt lat="39.526077" lon="2.931725">
        <ele>519</ele>
        <time>2016-04-18T15:29:32Z</time>
      </trkpt>
      <trkpt lat="39.526086" lon="2.931776">
        <ele>519.4</ele>
        <time>2016-04-18T15:29:33Z</time>
      </trkpt>
      <trkpt lat="39.526093" lon="2.931822">
        <ele>519.8</ele>
        <time>2016-04-18T15:29:34Z</time>
      </trkpt>
      <trkpt lat="39.526114" lon="2.931951">
        <ele>519.8</ele>
        <time>2016-04-18T15:29:37Z</time>
      </trkpt>
      <trkpt lat="39.526166" lon="2.932211">
        <ele>520.4</ele>
        <time>2016-04-18T15:29:43Z</time>
      </trkpt>
      <trkpt lat="39.526178" lon="2.932254">
        <ele>520.8</ele>
        <time>2016-04-18T15:29:44Z</time>
      </trkpt>
      <trkpt lat="39.526192" lon="2.932291">
        <ele>521.2</ele>
        <time>2016-04-18T15:29:45Z</time>
      </trkpt>
      <trkpt lat="39.52621" lon="2.932315">
        <ele>521.8</ele>
        <time>2016-04-18T15:29:46Z</time>
      </trkpt>
      <trkpt lat="39.526226" lon="2.932363">
        <ele>522.2</ele>
        <time>2016-04-18T15:29:47Z</time>
      </trkpt>
      <trkpt lat="39.526251" lon="2.932402">
        <ele>522.2</ele>
        <time>2016-04-18T15:29:48Z</time>
      </trkpt>
      <trkpt lat="39.526298" lon="2.932479">
        <ele>522.6</ele>
        <time>2016-04-18T15:29:50Z</time>
      </trkpt>
      <trkpt lat="39.526318" lon="2.932522">
        <ele>523.2</ele>
        <time>2016-04-18T15:29:51Z</time>
      </trkpt>
      <trkpt lat="39.526355" lon="2.932557">
        <ele>523.6</ele>
        <time>2016-04-18T15:29:52Z</time>
      </trkpt>
      <trkpt lat="39.526401" lon="2.932577">
        <ele>524</ele>
        <time>2016-04-18T15:29:53Z</time>
      </trkpt>
      <trkpt lat="39.526439" lon="2.932566">
        <ele>524.6</ele>
        <time>2016-04-18T15:29:54Z</time>
      </trkpt>
      <trkpt lat="39.526529" lon="2.932566">
        <ele>524.6</ele>
        <time>2016-04-18T15:29:56Z</time>
      </trkpt>
      <trkpt lat="39.526574" lon="2.932578">
        <ele>524.6</ele>
        <time>2016-04-18T15:29:57Z</time>
      </trkpt>
      <trkpt lat="39.526706" lon="2.932587">
        <ele>525</ele>
        <time>2016-04-18T15:30:00Z</time>
      </trkpt>
      <trkpt lat="39.526751" lon="2.932585">
        <ele>525.4</ele>
        <time>2016-04-18T15:30:01Z</time>
      </trkpt>
      <trkpt lat="39.526794" lon="2.932586">
        <ele>525.8</ele>
        <time>2016-04-18T15:30:02Z</time>
      </trkpt>
      <trkpt lat="39.526839" lon="2.932593">
        <ele>526.2</ele>
        <time>2016-04-18T15:30:03Z</time>
      </trkpt>
      <trkpt lat="39.526887" lon="2.932589">
        <ele>526.6</ele>
        <time>2016-04-18T15:30:04Z</time>
      </trkpt>
      <trkpt lat="39.526986" lon="2.932534">
        <ele>526.6</ele>
        <time>2016-04-18T15:30:06Z</time>
      </trkpt>
      <trkpt lat="39.527066" lon="2.932396">
        <ele>526.2</ele>
        <time>2016-04-18T15:30:08Z</time>
      </trkpt>
      <trkpt lat="39.527081" lon="2.932297">
        <ele>525.6</ele>
        <time>2016-04-18T15:30:09Z</time>
      </trkpt>
      <trkpt lat="39.527071" lon="2.932202">
        <ele>525.2</ele>
        <time>2016-04-18T15:30:10Z</time>
      </trkpt>
      <trkpt lat="39.527042" lon="2.932116">
        <ele>524.8</ele>
        <time>2016-04-18T15:30:11Z</time>
      </trkpt>
      <trkpt lat="39.527018" lon="2.932031">
        <ele>523.4</ele>
        <time>2016-04-18T15:30:12Z</time>
      </trkpt>
      <trkpt lat="39.526999" lon="2.931942">
        <ele>522.8</ele>
        <time>2016-04-18T15:30:13Z</time>
      </trkpt>
      <trkpt lat="39.526974" lon="2.931855">
        <ele>522.2</ele>
        <time>2016-04-18T15:30:14Z</time>
      </trkpt>
      <trkpt lat="39.526949" lon="2.931769">
        <ele>521.6</ele>
        <time>2016-04-18T15:30:15Z</time>
      </trkpt>
      <trkpt lat="39.526872" lon="2.931502">
        <ele>521.6</ele>
        <time>2016-04-18T15:30:18Z</time>
      </trkpt>
      <trkpt lat="39.526845" lon="2.931419">
        <ele>521</ele>
        <time>2016-04-18T15:30:19Z</time>
      </trkpt>
      <trkpt lat="39.526815" lon="2.931331">
        <ele>520.6</ele>
        <time>2016-04-18T15:30:20Z</time>
      </trkpt>
      <trkpt lat="39.526789" lon="2.931241">
        <ele>520.2</ele>
        <time>2016-04-18T15:30:21Z</time>
      </trkpt>
      <trkpt lat="39.526762" lon="2.931152">
        <ele>519.8</ele>
        <time>2016-04-18T15:30:22Z</time>
      </trkpt>
      <trkpt lat="39.526737" lon="2.931062">
        <ele>519.4</ele>
        <time>2016-04-18T15:30:23Z</time>
      </trkpt>
      <trkpt lat="39.526654" lon="2.930793">
        <ele>519.4</ele>
        <time>2016-04-18T15:30:26Z</time>
      </trkpt>
      <trkpt lat="39.526572" lon="2.930551">
        <ele>519.8</ele>
        <time>2016-04-18T15:30:29Z</time>
      </trkpt>
      <trkpt lat="39.526547" lon="2.930468">
        <ele>520.2</ele>
        <time>2016-04-18T15:30:30Z</time>
      </trkpt>
      <trkpt lat="39.526523" lon="2.930384">
        <ele>520.6</ele>
        <time>2016-04-18T15:30:31Z</time>
      </trkpt>
      <trkpt lat="39.526494" lon="2.930295">
        <ele>521</ele>
        <time>2016-04-18T15:30:32Z</time>
      </trkpt>
      <trkpt lat="39.526468" lon="2.93021">
        <ele>521.4</ele>
        <time>2016-04-18T15:30:33Z</time>
      </trkpt>
      <trkpt lat="39.526441" lon="2.930124">
        <ele>522</ele>
        <time>2016-04-18T15:30:34Z</time>
      </trkpt>
      <trkpt lat="39.526416" lon="2.930041">
        <ele>522.6</ele>
        <time>2016-04-18T15:30:35Z</time>
      </trkpt>
      <trkpt lat="39.526392" lon="2.929953">
        <ele>523.6</ele>
        <time>2016-04-18T15:30:36Z</time>
      </trkpt>
      <trkpt lat="39.526352" lon="2.929778">
        <ele>524</ele>
        <time>2016-04-18T15:30:38Z</time>
      </trkpt>
      <trkpt lat="39.526344" lon="2.929689">
        <ele>524.4</ele>
        <time>2016-04-18T15:30:39Z</time>
      </trkpt>
      <trkpt lat="39.526353" lon="2.929596">
        <ele>524.8</ele>
        <time>2016-04-18T15:30:40Z</time>
      </trkpt>
      <trkpt lat="39.526383" lon="2.929511">
        <ele>525.2</ele>
        <time>2016-04-18T15:30:41Z</time>
      </trkpt>
      <trkpt lat="39.526425" lon="2.929433">
        <ele>525.6</ele>
        <time>2016-04-18T15:30:42Z</time>
      </trkpt>
      <trkpt lat="39.52648" lon="2.929371">
        <ele>526.2</ele>
        <time>2016-04-18T15:30:43Z</time>
      </trkpt>
      <trkpt lat="39.526547" lon="2.929332">
        <ele>526.6</ele>
        <time>2016-04-18T15:30:44Z</time>
      </trkpt>
      <trkpt lat="39.526612" lon="2.929288">
        <ele>527</ele>
        <time>2016-04-18T15:30:45Z</time>
      </trkpt>
      <trkpt lat="39.526672" lon="2.929239">
        <ele>527.4</ele>
        <time>2016-04-18T15:30:46Z</time>
      </trkpt>
      <trkpt lat="39.526733" lon="2.929192">
        <ele>528</ele>
        <time>2016-04-18T15:30:47Z</time>
      </trkpt>
      <trkpt lat="39.526796" lon="2.929148">
        <ele>528.4</ele>
        <time>2016-04-18T15:30:48Z</time>
      </trkpt>
      <trkpt lat="39.526853" lon="2.929105">
        <ele>529</ele>
        <time>2016-04-18T15:30:49Z</time>
      </trkpt>
      <trkpt lat="39.526906" lon="2.929053">
        <ele>529.4</ele>
        <time>2016-04-18T15:30:50Z</time>
      </trkpt>
      <trkpt lat="39.526957" lon="2.928999">
        <ele>530</ele>
        <time>2016-04-18T15:30:51Z</time>
      </trkpt>
      <trkpt lat="39.527003" lon="2.928936">
        <ele>530.6</ele>
        <time>2016-04-18T15:30:52Z</time>
      </trkpt>
      <trkpt lat="39.52703" lon="2.928864">
        <ele>531.2</ele>
        <time>2016-04-18T15:30:53Z</time>
      </trkpt>
      <trkpt lat="39.527057" lon="2.928777">
        <ele>531.8</ele>
        <time>2016-04-18T15:30:54Z</time>
      </trkpt>
      <trkpt lat="39.527071" lon="2.928698">
        <ele>532.4</ele>
        <time>2016-04-18T15:30:55Z</time>
      </trkpt>
      <trkpt lat="39.527079" lon="2.928621">
        <ele>532.8</ele>
        <time>2016-04-18T15:30:56Z</time>
      </trkpt>
      <trkpt lat="39.527082" lon="2.928545">
        <ele>533.4</ele>
        <time>2016-04-18T15:30:57Z</time>
      </trkpt>
      <trkpt lat="39.527094" lon="2.928463">
        <ele>533.8</ele>
        <time>2016-04-18T15:30:58Z</time>
      </trkpt>
      <trkpt lat="39.527107" lon="2.928378">
        <ele>534.4</ele>
        <time>2016-04-18T15:30:59Z</time>
      </trkpt>
      <trkpt lat="39.52711" lon="2.928293">
        <ele>535</ele>
        <time>2016-04-18T15:31:00Z</time>
      </trkpt>
      <trkpt lat="39.527144" lon="2.927932">
        <ele>535</ele>
        <time>2016-04-18T15:31:04Z</time>
      </trkpt>
      <trkpt lat="39.527155" lon="2.927838">
        <ele>534.6</ele>
        <time>2016-04-18T15:31:05Z</time>
      </trkpt>
      <trkpt lat="39.527173" lon="2.927742">
        <ele>534</ele>
        <time>2016-04-18T15:31:06Z</time>
      </trkpt>
      <trkpt lat="39.527185" lon="2.927644">
        <ele>533.6</ele>
        <time>2016-04-18T15:31:07Z</time>
      </trkpt>
      <trkpt lat="39.527189" lon="2.927543">
        <ele>533.2</ele>
        <time>2016-04-18T15:31:08Z</time>
      </trkpt>
      <trkpt lat="39.527202" lon="2.92744">
        <ele>532.8</ele>
        <time>2016-04-18T15:31:09Z</time>
      </trkpt>
      <trkpt lat="39.52723" lon="2.927228">
        <ele>532.4</ele>
        <time>2016-04-18T15:31:11Z</time>
      </trkpt>
      <trkpt lat="39.527246" lon="2.927118">
        <ele>532</ele>
        <time>2016-04-18T15:31:12Z</time>
      </trkpt>
      <trkpt lat="39.527256" lon="2.927016">
        <ele>531.4</ele>
        <time>2016-04-18T15:31:13Z</time>
      </trkpt>
      <trkpt lat="39.527262" lon="2.926921">
        <ele>531</ele>
        <time>2016-04-18T15:31:14Z</time>
      </trkpt>
      <trkpt lat="39.527267" lon="2.926844">
        <ele>530.6</ele>
        <time>2016-04-18T15:31:15Z</time>
      </trkpt>
      <trkpt lat="39.527307" lon="2.926693">
        <ele>530.6</ele>
        <time>2016-04-18T15:31:17Z</time>
      </trkpt>
      <trkpt lat="39.527371" lon="2.926649">
        <ele>530.6</ele>
        <time>2016-04-18T15:31:18Z</time>
      </trkpt>
      <trkpt lat="39.527487" lon="2.926687">
        <ele>530.6</ele>
        <time>2016-04-18T15:31:20Z</time>
      </trkpt>
      <trkpt lat="39.527635" lon="2.926821">
        <ele>530.6</ele>
        <time>2016-04-18T15:31:24Z</time>
      </trkpt>
      <trkpt lat="39.527659" lon="2.926855">
        <ele>530.6</ele>
        <time>2016-04-18T15:31:25Z</time>
      </trkpt>
      <trkpt lat="39.527229" lon="2.927224">
        <ele>530.6</ele>
        <time>2016-04-18T15:32:32Z</time>
      </trkpt>
      <trkpt lat="39.527226" lon="2.927261">
        <ele>530.6</ele>
        <time>2016-04-18T15:32:33Z</time>
      </trkpt>
      <trkpt lat="39.527196" lon="2.927489">
        <ele>530.6</ele>
        <time>2016-04-18T15:32:38Z</time>
      </trkpt>
      <trkpt lat="39.527192" lon="2.927549">
        <ele>530.6</ele>
        <time>2016-04-18T15:32:39Z</time>
      </trkpt>
      <trkpt lat="39.527168" lon="2.927732">
        <ele>530.6</ele>
        <time>2016-04-18T15:32:42Z</time>
      </trkpt>
      <trkpt lat="39.527158" lon="2.927793">
        <ele>530.6</ele>
        <time>2016-04-18T15:32:43Z</time>
      </trkpt>
      <trkpt lat="39.527117" lon="2.928048">
        <ele>530.6</ele>
        <time>2016-04-18T15:32:47Z</time>
      </trkpt>
      <trkpt lat="39.527106" lon="2.92818">
        <ele>530.6</ele>
        <time>2016-04-18T15:32:49Z</time>
      </trkpt>
      <trkpt lat="39.527091" lon="2.928241">
        <ele>530.6</ele>
        <time>2016-04-18T15:32:50Z</time>
      </trkpt>
      <trkpt lat="39.527057" lon="2.928492">
        <ele>531</ele>
        <time>2016-04-18T15:32:54Z</time>
      </trkpt>
      <trkpt lat="39.527048" lon="2.928556">
        <ele>531.4</ele>
        <time>2016-04-18T15:32:55Z</time>
      </trkpt>
      <trkpt lat="39.52705" lon="2.928616">
        <ele>531.8</ele>
        <time>2016-04-18T15:32:56Z</time>
      </trkpt>
      <trkpt lat="39.527043" lon="2.928681">
        <ele>532.2</ele>
        <time>2016-04-18T15:32:57Z</time>
      </trkpt>
      <trkpt lat="39.527037" lon="2.928742">
        <ele>532.6</ele>
        <time>2016-04-18T15:32:58Z</time>
      </trkpt>
      <trkpt lat="39.527022" lon="2.928801">
        <ele>532.6</ele>
        <time>2016-04-18T15:32:59Z</time>
      </trkpt>
      <trkpt lat="39.526983" lon="2.928911">
        <ele>532.6</ele>
        <time>2016-04-18T15:33:01Z</time>
      </trkpt>
      <trkpt lat="39.526923" lon="2.929007">
        <ele>532.6</ele>
        <time>2016-04-18T15:33:03Z</time>
      </trkpt>
      <trkpt lat="39.526832" lon="2.929079">
        <ele>532.6</ele>
        <time>2016-04-18T15:33:05Z</time>
      </trkpt>
      <trkpt lat="39.526542" lon="2.929281">
        <ele>532.2</ele>
        <time>2016-04-18T15:33:10Z</time>
      </trkpt>
      <trkpt lat="39.526479" lon="2.929333">
        <ele>531.6</ele>
        <time>2016-04-18T15:33:11Z</time>
      </trkpt>
      <trkpt lat="39.52641" lon="2.929385">
        <ele>531</ele>
        <time>2016-04-18T15:33:12Z</time>
      </trkpt>
      <trkpt lat="39.526359" lon="2.929458">
        <ele>530.4</ele>
        <time>2016-04-18T15:33:13Z</time>
      </trkpt>
      <trkpt lat="39.526328" lon="2.929552">
        <ele>529.6</ele>
        <time>2016-04-18T15:33:14Z</time>
      </trkpt>
      <trkpt lat="39.526319" lon="2.929657">
        <ele>529</ele>
        <time>2016-04-18T15:33:15Z</time>
      </trkpt>
      <trkpt lat="39.526324" lon="2.929762">
        <ele>528.2</ele>
        <time>2016-04-18T15:33:16Z</time>
      </trkpt>
      <trkpt lat="39.526343" lon="2.929868">
        <ele>527.4</ele>
        <time>2016-04-18T15:33:17Z</time>
      </trkpt>
      <trkpt lat="39.526371" lon="2.929969">
        <ele>526.4</ele>
        <time>2016-04-18T15:33:18Z</time>
      </trkpt>
      <trkpt lat="39.526403" lon="2.930066">
        <ele>525.4</ele>
        <time>2016-04-18T15:33:19Z</time>
      </trkpt>
      <trkpt lat="39.526435" lon="2.930174">
        <ele>524.4</ele>
        <time>2016-04-18T15:33:20Z</time>
      </trkpt>
      <trkpt lat="39.526467" lon="2.93028">
        <ele>523.6</ele>
        <time>2016-04-18T15:33:21Z</time>
      </trkpt>
      <trkpt lat="39.526497" lon="2.930386">
        <ele>522.6</ele>
        <time>2016-04-18T15:33:22Z</time>
      </trkpt>
      <trkpt lat="39.526562" lon="2.930597">
        <ele>522.2</ele>
        <time>2016-04-18T15:33:24Z</time>
      </trkpt>
      <trkpt lat="39.526595" lon="2.930704">
        <ele>521.8</ele>
        <time>2016-04-18T15:33:25Z</time>
      </trkpt>
      <trkpt lat="39.52663" lon="2.930816">
        <ele>521.4</ele>
        <time>2016-04-18T15:33:26Z</time>
      </trkpt>
      <trkpt lat="39.526667" lon="2.930935">
        <ele>521</ele>
        <time>2016-04-18T15:33:27Z</time>
      </trkpt>
      <trkpt lat="39.526698" lon="2.931052">
        <ele>520.4</ele>
        <time>2016-04-18T15:33:28Z</time>
      </trkpt>
      <trkpt lat="39.526734" lon="2.931162">
        <ele>520.4</ele>
        <time>2016-04-18T15:33:29Z</time>
      </trkpt>
      <trkpt lat="39.526836" lon="2.93149">
        <ele>520.4</ele>
        <time>2016-04-18T15:33:32Z</time>
      </trkpt>
      <trkpt lat="39.526903" lon="2.931701">
        <ele>520.4</ele>
        <time>2016-04-18T15:33:34Z</time>
      </trkpt>
      <trkpt lat="39.526941" lon="2.931807">
        <ele>521</ele>
        <time>2016-04-18T15:33:35Z</time>
      </trkpt>
      <trkpt lat="39.526974" lon="2.93191">
        <ele>521.4</ele>
        <time>2016-04-18T15:33:36Z</time>
      </trkpt>
      <trkpt lat="39.527003" lon="2.932012">
        <ele>521.8</ele>
        <time>2016-04-18T15:33:37Z</time>
      </trkpt>
      <trkpt lat="39.527031" lon="2.93211">
        <ele>522.2</ele>
        <time>2016-04-18T15:33:38Z</time>
      </trkpt>
      <trkpt lat="39.527058" lon="2.932204">
        <ele>522.6</ele>
        <time>2016-04-18T15:33:39Z</time>
      </trkpt>
      <trkpt lat="39.527089" lon="2.932395">
        <ele>522.6</ele>
        <time>2016-04-18T15:33:41Z</time>
      </trkpt>
      <trkpt lat="39.527006" lon="2.93252">
        <ele>522.6</ele>
        <time>2016-04-18T15:33:43Z</time>
      </trkpt>
      <trkpt lat="39.526864" lon="2.93255">
        <ele>523</ele>
        <time>2016-04-18T15:33:46Z</time>
      </trkpt>
      <trkpt lat="39.526816" lon="2.932546">
        <ele>523.4</ele>
        <time>2016-04-18T15:33:47Z</time>
      </trkpt>
      <trkpt lat="39.52677" lon="2.932536">
        <ele>523.8</ele>
        <time>2016-04-18T15:33:48Z</time>
      </trkpt>
      <trkpt lat="39.526725" lon="2.932536">
        <ele>524.2</ele>
        <time>2016-04-18T15:33:49Z</time>
      </trkpt>
      <trkpt lat="39.526684" lon="2.93254">
        <ele>524.8</ele>
        <time>2016-04-18T15:33:50Z</time>
      </trkpt>
      <trkpt lat="39.526645" lon="2.932539">
        <ele>524.8</ele>
        <time>2016-04-18T15:33:51Z</time>
      </trkpt>
      <trkpt lat="39.526585" lon="2.932557">
        <ele>524.8</ele>
        <time>2016-04-18T15:33:54Z</time>
      </trkpt>
      <trkpt lat="39.526602" lon="2.932574">
        <ele>524.8</ele>
        <time>2016-04-18T15:33:55Z</time>
      </trkpt>
      <trkpt lat="39.526656" lon="2.932566">
        <ele>524.8</ele>
        <time>2016-04-18T15:33:57Z</time>
      </trkpt>
      <trkpt lat="39.526697" lon="2.93256">
        <ele>525.2</ele>
        <time>2016-04-18T15:33:58Z</time>
      </trkpt>
      <trkpt lat="39.526737" lon="2.932566">
        <ele>525.6</ele>
        <time>2016-04-18T15:33:59Z</time>
      </trkpt>
      <trkpt lat="39.526775" lon="2.932562">
        <ele>526</ele>
        <time>2016-04-18T15:34:00Z</time>
      </trkpt>
      <trkpt lat="39.526814" lon="2.932575">
        <ele>526.4</ele>
        <time>2016-04-18T15:34:01Z</time>
      </trkpt>
      <trkpt lat="39.526851" lon="2.932576">
        <ele>526.8</ele>
        <time>2016-04-18T15:34:02Z</time>
      </trkpt>
      <trkpt lat="39.526931" lon="2.93258">
        <ele>526.8</ele>
        <time>2016-04-18T15:34:04Z</time>
      </trkpt>
      <trkpt lat="39.527064" lon="2.932486">
        <ele>526.4</ele>
        <time>2016-04-18T15:34:07Z</time>
      </trkpt>
      <trkpt lat="39.527093" lon="2.932416">
        <ele>526</ele>
        <time>2016-04-18T15:34:08Z</time>
      </trkpt>
      <trkpt lat="39.527104" lon="2.93233">
        <ele>525.6</ele>
        <time>2016-04-18T15:34:09Z</time>
      </trkpt>
      <trkpt lat="39.527093" lon="2.932243">
        <ele>525</ele>
        <time>2016-04-18T15:34:10Z</time>
      </trkpt>
      <trkpt lat="39.527073" lon="2.932156">
        <ele>524.4</ele>
        <time>2016-04-18T15:34:11Z</time>
      </trkpt>
      <trkpt lat="39.527054" lon="2.932074">
        <ele>523.8</ele>
        <time>2016-04-18T15:34:12Z</time>
      </trkpt>
      <trkpt lat="39.527029" lon="2.931992">
        <ele>523.2</ele>
        <time>2016-04-18T15:34:13Z</time>
      </trkpt>
      <trkpt lat="39.526999" lon="2.931918">
        <ele>522.6</ele>
        <time>2016-04-18T15:34:14Z</time>
      </trkpt>
      <trkpt lat="39.526969" lon="2.931845">
        <ele>522.2</ele>
        <time>2016-04-18T15:34:15Z</time>
      </trkpt>
      <trkpt lat="39.526945" lon="2.931773">
        <ele>521.6</ele>
        <time>2016-04-18T15:34:16Z</time>
      </trkpt>
      <trkpt lat="39.526921" lon="2.931698">
        <ele>521.2</ele>
        <time>2016-04-18T15:34:17Z</time>
      </trkpt>
      <trkpt lat="39.526895" lon="2.931618">
        <ele>520.6</ele>
        <time>2016-04-18T15:34:18Z</time>
      </trkpt>
      <trkpt lat="39.526857" lon="2.931544">
        <ele>520.6</ele>
        <time>2016-04-18T15:34:19Z</time>
      </trkpt>
      <trkpt lat="39.526831" lon="2.931464">
        <ele>520.6</ele>
        <time>2016-04-18T15:34:20Z</time>
      </trkpt>
      <trkpt lat="39.526703" lon="2.931029">
        <ele>520.6</ele>
        <time>2016-04-18T15:34:26Z</time>
      </trkpt>
      <trkpt lat="39.526584" lon="2.930646">
        <ele>521</ele>
        <time>2016-04-18T15:34:32Z</time>
      </trkpt>
      <trkpt lat="39.526565" lon="2.930597">
        <ele>521.4</ele>
        <time>2016-04-18T15:34:33Z</time>
      </trkpt>
      <trkpt lat="39.526551" lon="2.930542">
        <ele>521.8</ele>
        <time>2016-04-18T15:34:34Z</time>
      </trkpt>
      <trkpt lat="39.526538" lon="2.930484">
        <ele>522.2</ele>
        <time>2016-04-18T15:34:35Z</time>
      </trkpt>
      <trkpt lat="39.526516" lon="2.930419">
        <ele>522.6</ele>
        <time>2016-04-18T15:34:36Z</time>
      </trkpt>
      <trkpt lat="39.526496" lon="2.930375">
        <ele>522.6</ele>
        <time>2016-04-18T15:34:37Z</time>
      </trkpt>
      <trkpt lat="39.526479" lon="2.930335">
        <ele>522.6</ele>
        <time>2016-04-18T15:34:38Z</time>
      </trkpt>
      <trkpt lat="39.526471" lon="2.930281">
        <ele>522.6</ele>
        <time>2016-04-18T15:34:39Z</time>
      </trkpt>
      <trkpt lat="39.526462" lon="2.93024">
        <ele>523</ele>
        <time>2016-04-18T15:34:40Z</time>
      </trkpt>
      <trkpt lat="39.526445" lon="2.93021">
        <ele>523.4</ele>
        <time>2016-04-18T15:34:41Z</time>
      </trkpt>
      <trkpt lat="39.526426" lon="2.93017">
        <ele>523.8</ele>
        <time>2016-04-18T15:34:42Z</time>
      </trkpt>
      <trkpt lat="39.526426" lon="2.930125">
        <ele>524.2</ele>
        <time>2016-04-18T15:34:43Z</time>
      </trkpt>
      <trkpt lat="39.526415" lon="2.930082">
        <ele>524.6</ele>
        <time>2016-04-18T15:34:44Z</time>
      </trkpt>
      <trkpt lat="39.526385" lon="2.930005">
        <ele>524.6</ele>
        <time>2016-04-18T15:34:46Z</time>
      </trkpt>
      <trkpt lat="39.526367" lon="2.929951">
        <ele>525</ele>
        <time>2016-04-18T15:34:48Z</time>
      </trkpt>
      <trkpt lat="39.526356" lon="2.929926">
        <ele>525.4</ele>
        <time>2016-04-18T15:34:49Z</time>
      </trkpt>
      <trkpt lat="39.526348" lon="2.929882">
        <ele>525.8</ele>
        <time>2016-04-18T15:34:50Z</time>
      </trkpt>
      <trkpt lat="39.526348" lon="2.929843">
        <ele>526.2</ele>
        <time>2016-04-18T15:34:51Z</time>
      </trkpt>
      <trkpt lat="39.526332" lon="2.929803">
        <ele>526.6</ele>
        <time>2016-04-18T15:34:52Z</time>
      </trkpt>
      <trkpt lat="39.526335" lon="2.92968">
        <ele>526.6</ele>
        <time>2016-04-18T15:34:55Z</time>
      </trkpt>
      <trkpt lat="39.526369" lon="2.929511">
        <ele>526.6</ele>
        <time>2016-04-18T15:34:59Z</time>
      </trkpt>
      <trkpt lat="39.526385" lon="2.929474">
        <ele>527.2</ele>
        <time>2016-04-18T15:35:00Z</time>
      </trkpt>
      <trkpt lat="39.526407" lon="2.929437">
        <ele>527.6</ele>
        <time>2016-04-18T15:35:01Z</time>
      </trkpt>
      <trkpt lat="39.526423" lon="2.929408">
        <ele>528</ele>
        <time>2016-04-18T15:35:02Z</time>
      </trkpt>
      <trkpt lat="39.526456" lon="2.929377">
        <ele>528.4</ele>
        <time>2016-04-18T15:35:03Z</time>
      </trkpt>
      <trkpt lat="39.526485" lon="2.929365">
        <ele>529</ele>
        <time>2016-04-18T15:35:04Z</time>
      </trkpt>
      <trkpt lat="39.526561" lon="2.92932">
        <ele>529</ele>
        <time>2016-04-18T15:35:06Z</time>
      </trkpt>
      <trkpt lat="39.526703" lon="2.929238">
        <ele>529.4</ele>
        <time>2016-04-18T15:35:09Z</time>
      </trkpt>
      <trkpt lat="39.526738" lon="2.929202">
        <ele>529.8</ele>
        <time>2016-04-18T15:35:10Z</time>
      </trkpt>
      <trkpt lat="39.526778" lon="2.929162">
        <ele>530.2</ele>
        <time>2016-04-18T15:35:11Z</time>
      </trkpt>
      <trkpt lat="39.526822" lon="2.929136">
        <ele>530.6</ele>
        <time>2016-04-18T15:35:12Z</time>
      </trkpt>
      <trkpt lat="39.526875" lon="2.929099">
        <ele>531.2</ele>
        <time>2016-04-18T15:35:13Z</time>
      </trkpt>
      <trkpt lat="39.526917" lon="2.92906">
        <ele>531.6</ele>
        <time>2016-04-18T15:35:14Z</time>
      </trkpt>
      <trkpt lat="39.526954" lon="2.929009">
        <ele>532</ele>
        <time>2016-04-18T15:35:15Z</time>
      </trkpt>
      <trkpt lat="39.526997" lon="2.928961">
        <ele>532.6</ele>
        <time>2016-04-18T15:35:16Z</time>
      </trkpt>
      <trkpt lat="39.527017" lon="2.928893">
        <ele>533</ele>
        <time>2016-04-18T15:35:17Z</time>
      </trkpt>
      <trkpt lat="39.527032" lon="2.928833">
        <ele>533.6</ele>
        <time>2016-04-18T15:35:18Z</time>
      </trkpt>
      <trkpt lat="39.527049" lon="2.928772">
        <ele>534</ele>
        <time>2016-04-18T15:35:19Z</time>
      </trkpt>
      <trkpt lat="39.52706" lon="2.928712">
        <ele>534.6</ele>
        <time>2016-04-18T15:35:20Z</time>
      </trkpt>
      <trkpt lat="39.527066" lon="2.928656">
        <ele>535.2</ele>
        <time>2016-04-18T15:35:21Z</time>
      </trkpt>
      <trkpt lat="39.527069" lon="2.92859">
        <ele>535.8</ele>
        <time>2016-04-18T15:35:22Z</time>
      </trkpt>
      <trkpt lat="39.527081" lon="2.928475">
        <ele>535.8</ele>
        <time>2016-04-18T15:35:24Z</time>
      </trkpt>
      <trkpt lat="39.527131" lon="2.928071">
        <ele>535.8</ele>
        <time>2016-04-18T15:35:30Z</time>
      </trkpt>
      <trkpt lat="39.52714" lon="2.928003">
        <ele>535.8</ele>
        <time>2016-04-18T15:35:31Z</time>
      </trkpt>
      <trkpt lat="39.527166" lon="2.927864">
        <ele>535.8</ele>
        <time>2016-04-18T15:35:33Z</time>
      </trkpt>
      <trkpt lat="39.527183" lon="2.927717">
        <ele>535.8</ele>
        <time>2016-04-18T15:35:35Z</time>
      </trkpt>
      <trkpt lat="39.527176" lon="2.927637">
        <ele>535.2</ele>
        <time>2016-04-18T15:35:36Z</time>
      </trkpt>
      <trkpt lat="39.527195" lon="2.927548">
        <ele>534.8</ele>
        <time>2016-04-18T15:35:37Z</time>
      </trkpt>
      <trkpt lat="39.527201" lon="2.927461">
        <ele>534.2</ele>
        <time>2016-04-18T15:35:38Z</time>
      </trkpt>
      <trkpt lat="39.527209" lon="2.927376">
        <ele>533.8</ele>
        <time>2016-04-18T15:35:39Z</time>
      </trkpt>
      <trkpt lat="39.527217" lon="2.927284">
        <ele>533.2</ele>
        <time>2016-04-18T15:35:40Z</time>
      </trkpt>
      <trkpt lat="39.527243" lon="2.927109">
        <ele>533.2</ele>
        <time>2016-04-18T15:35:42Z</time>
      </trkpt>
      <trkpt lat="39.527312" lon="2.927012">
        <ele>533.2</ele>
        <time>2016-04-18T15:35:44Z</time>
      </trkpt>
      <trkpt lat="39.527362" lon="2.926998">
        <ele>532.8</ele>
        <time>2016-04-18T15:35:45Z</time>
      </trkpt>
      <trkpt lat="39.527414" lon="2.927003">
        <ele>532.4</ele>
        <time>2016-04-18T15:35:46Z</time>
      </trkpt>
      <trkpt lat="39.527463" lon="2.927011">
        <ele>532</ele>
        <time>2016-04-18T15:35:47Z</time>
      </trkpt>
      <trkpt lat="39.527503" lon="2.927028">
        <ele>531.6</ele>
        <time>2016-04-18T15:35:48Z</time>
      </trkpt>
      <trkpt lat="39.52754" lon="2.927052">
        <ele>531.2</ele>
        <time>2016-04-18T15:35:49Z</time>
      </trkpt>
      <trkpt lat="39.527618" lon="2.927089">
        <ele>531.2</ele>
        <time>2016-04-18T15:35:51Z</time>
      </trkpt>
      <trkpt lat="39.527663" lon="2.927081">
        <ele>531.2</ele>
        <time>2016-04-18T15:35:52Z</time>
      </trkpt>
      <trkpt lat="39.527692" lon="2.927059">
        <ele>531.2</ele>
        <time>2016-04-18T15:35:53Z</time>
      </trkpt>
      <trkpt lat="39.527706" lon="2.927029">
        <ele>531.2</ele>
        <time>2016-04-18T15:35:54Z</time>
      </trkpt>
      <trkpt lat="39.527716" lon="2.926835">
        <ele>531.2</ele>
        <time>2016-04-18T15:36:24Z</time>
      </trkpt>
      <trkpt lat="39.527721" lon="2.92681">
        <ele>531.2</ele>
        <time>2016-04-18T15:36:25Z</time>
      </trkpt>
      <trkpt lat="39.527752" lon="2.926715">
        <ele>531.2</ele>
        <time>2016-04-18T15:36:28Z</time>
      </trkpt>
      <trkpt lat="39.527797" lon="2.926539">
        <ele>531.2</ele>
        <time>2016-04-18T15:36:34Z</time>
      </trkpt>
      <trkpt lat="39.527802" lon="2.92651">
        <ele>531.6</ele>
        <time>2016-04-18T15:36:35Z</time>
      </trkpt>
      <trkpt lat="39.527805" lon="2.926481">
        <ele>532</ele>
        <time>2016-04-18T15:36:36Z</time>
      </trkpt>
      <trkpt lat="39.527809" lon="2.926452">
        <ele>532.4</ele>
        <time>2016-04-18T15:36:37Z</time>
      </trkpt>
      <trkpt lat="39.527814" lon="2.926425">
        <ele>532.8</ele>
        <time>2016-04-18T15:36:38Z</time>
      </trkpt>
      <trkpt lat="39.527822" lon="2.926398">
        <ele>533.2</ele>
        <time>2016-04-18T15:36:39Z</time>
      </trkpt>
      <trkpt lat="39.527829" lon="2.926372">
        <ele>533.2</ele>
        <time>2016-04-18T15:36:40Z</time>
      </trkpt>
      <trkpt lat="39.527803" lon="2.926318">
        <ele>533.2</ele>
        <time>2016-04-18T15:36:43Z</time>
      </trkpt>
      <trkpt lat="39.527801" lon="2.92634">
        <ele>533.2</ele>
        <time>2016-04-18T15:36:44Z</time>
      </trkpt>
      <trkpt lat="39.527806" lon="2.926385">
        <ele>533.2</ele>
        <time>2016-04-18T15:36:46Z</time>
      </trkpt>
      <trkpt lat="39.527826" lon="2.926357">
        <ele>533.2</ele>
        <time>2016-04-18T15:36:49Z</time>
      </trkpt>
      <trkpt lat="39.527818" lon="2.926227">
        <ele>533.2</ele>
        <time>2016-04-18T15:36:52Z</time>
      </trkpt>
      <trkpt lat="39.527816" lon="2.926185">
        <ele>533.2</ele>
        <time>2016-04-18T15:36:53Z</time>
      </trkpt>
      <trkpt lat="39.527799" lon="2.926082">
        <ele>533.2</ele>
        <time>2016-04-18T15:36:56Z</time>
      </trkpt>
      <trkpt lat="39.527808" lon="2.926018">
        <ele>533.2</ele>
        <time>2016-04-18T15:36:58Z</time>
      </trkpt>
      <trkpt lat="39.527823" lon="2.92599">
        <ele>533.6</ele>
        <time>2016-04-18T15:36:59Z</time>
      </trkpt>
      <trkpt lat="39.527846" lon="2.925969">
        <ele>534</ele>
        <time>2016-04-18T15:37:00Z</time>
      </trkpt>
      <trkpt lat="39.52779" lon="2.926027">
        <ele>533.8</ele>
        <time>2016-04-18T15:41:45Z</time>
      </trkpt>
      <trkpt lat="39.527789" lon="2.926066">
        <ele>533.4</ele>
        <time>2016-04-18T15:41:46Z</time>
      </trkpt>
      <trkpt lat="39.527795" lon="2.926218">
        <ele>532.8</ele>
        <time>2016-04-18T15:41:49Z</time>
      </trkpt>
      <trkpt lat="39.527794" lon="2.926276">
        <ele>532</ele>
        <time>2016-04-18T15:41:50Z</time>
      </trkpt>
      <trkpt lat="39.527789" lon="2.926332">
        <ele>531.4</ele>
        <time>2016-04-18T15:41:51Z</time>
      </trkpt>
      <trkpt lat="39.527782" lon="2.926383">
        <ele>530.8</ele>
        <time>2016-04-18T15:41:52Z</time>
      </trkpt>
      <trkpt lat="39.527775" lon="2.926433">
        <ele>530.2</ele>
        <time>2016-04-18T15:41:53Z</time>
      </trkpt>
      <trkpt lat="39.527761" lon="2.926524">
        <ele>530.8</ele>
        <time>2016-04-18T15:41:55Z</time>
      </trkpt>
      <trkpt lat="39.527755" lon="2.926568">
        <ele>531.2</ele>
        <time>2016-04-18T15:41:56Z</time>
      </trkpt>
      <trkpt lat="39.527746" lon="2.926614">
        <ele>531.8</ele>
        <time>2016-04-18T15:41:57Z</time>
      </trkpt>
      <trkpt lat="39.52773" lon="2.926655">
        <ele>532.4</ele>
        <time>2016-04-18T15:41:58Z</time>
      </trkpt>
      <trkpt lat="39.527706" lon="2.926694">
        <ele>532.8</ele>
        <time>2016-04-18T15:41:59Z</time>
      </trkpt>
      <trkpt lat="39.527679" lon="2.926722">
        <ele>532.8</ele>
        <time>2016-04-18T15:42:00Z</time>
      </trkpt>
      <trkpt lat="39.527644" lon="2.926744">
        <ele>532.8</ele>
        <time>2016-04-18T15:42:01Z</time>
      </trkpt>
      <trkpt lat="39.527535" lon="2.926821">
        <ele>532.8</ele>
        <time>2016-04-18T15:42:04Z</time>
      </trkpt>
      <trkpt lat="39.527416" lon="2.926821">
        <ele>532.8</ele>
        <time>2016-04-18T15:42:07Z</time>
      </trkpt>
      <trkpt lat="39.527317" lon="2.926874">
        <ele>532.8</ele>
        <time>2016-04-18T15:42:10Z</time>
      </trkpt>
      <trkpt lat="39.52729" lon="2.926905">
        <ele>532.8</ele>
        <time>2016-04-18T15:42:11Z</time>
      </trkpt>
      <trkpt lat="39.527241" lon="2.92708">
        <ele>532.8</ele>
        <time>2016-04-18T15:42:15Z</time>
      </trkpt>
      <trkpt lat="39.527235" lon="2.927125">
        <ele>532.8</ele>
        <time>2016-04-18T15:42:16Z</time>
      </trkpt>
      <trkpt lat="39.527219" lon="2.927219">
        <ele>532.8</ele>
        <time>2016-04-18T15:42:18Z</time>
      </trkpt>
      <trkpt lat="39.527214" lon="2.927314">
        <ele>532.8</ele>
        <time>2016-04-18T15:42:20Z</time>
      </trkpt>
      <trkpt lat="39.527183" lon="2.927508">
        <ele>532.8</ele>
        <time>2016-04-18T15:42:25Z</time>
      </trkpt>
      <trkpt lat="39.527127" lon="2.927917">
        <ele>532.8</ele>
        <time>2016-04-18T15:42:38Z</time>
      </trkpt>
      <trkpt lat="39.527125" lon="2.92795">
        <ele>532.8</ele>
        <time>2016-04-18T15:42:39Z</time>
      </trkpt>
      <trkpt lat="39.527117" lon="2.928031">
        <ele>533.4</ele>
        <time>2016-04-18T15:42:41Z</time>
      </trkpt>
      <trkpt lat="39.52711" lon="2.928078">
        <ele>533.8</ele>
        <time>2016-04-18T15:42:42Z</time>
      </trkpt>
      <trkpt lat="39.527105" lon="2.928124">
        <ele>534.2</ele>
        <time>2016-04-18T15:42:43Z</time>
      </trkpt>
      <trkpt lat="39.527099" lon="2.928176">
        <ele>534.6</ele>
        <time>2016-04-18T15:42:44Z</time>
      </trkpt>
      <trkpt lat="39.527091" lon="2.928232">
        <ele>535</ele>
        <time>2016-04-18T15:42:45Z</time>
      </trkpt>
      <trkpt lat="39.527079" lon="2.928343">
        <ele>535</ele>
        <time>2016-04-18T15:42:47Z</time>
      </trkpt>
      <trkpt lat="39.527065" lon="2.928465">
        <ele>535</ele>
        <time>2016-04-18T15:42:49Z</time>
      </trkpt>
      <trkpt lat="39.527054" lon="2.928589">
        <ele>535</ele>
        <time>2016-04-18T15:42:51Z</time>
      </trkpt>
      <trkpt lat="39.527045" lon="2.928718">
        <ele>535</ele>
        <time>2016-04-18T15:42:53Z</time>
      </trkpt>
      <trkpt lat="39.527031" lon="2.928787">
        <ele>535</ele>
        <time>2016-04-18T15:42:54Z</time>
      </trkpt>
      <trkpt lat="39.526936" lon="2.928983">
        <ele>535</ele>
        <time>2016-04-18T15:42:57Z</time>
      </trkpt>
      <trkpt lat="39.52683" lon="2.929075">
        <ele>535</ele>
        <time>2016-04-18T15:42:59Z</time>
      </trkpt>
      <trkpt lat="39.526769" lon="2.929121">
        <ele>535</ele>
        <time>2016-04-18T15:43:00Z</time>
      </trkpt>
      <trkpt lat="39.526706" lon="2.929171">
        <ele>534.6</ele>
        <time>2016-04-18T15:43:01Z</time>
      </trkpt>
      <trkpt lat="39.52664" lon="2.929223">
        <ele>534</ele>
        <time>2016-04-18T15:43:02Z</time>
      </trkpt>
      <trkpt lat="39.526569" lon="2.929272">
        <ele>533.6</ele>
        <time>2016-04-18T15:43:03Z</time>
      </trkpt>
      <trkpt lat="39.526493" lon="2.929327">
        <ele>533.2</ele>
        <time>2016-04-18T15:43:04Z</time>
      </trkpt>
      <trkpt lat="39.526424" lon="2.929392">
        <ele>532.4</ele>
        <time>2016-04-18T15:43:05Z</time>
      </trkpt>
      <trkpt lat="39.526369" lon="2.929475">
        <ele>531.8</ele>
        <time>2016-04-18T15:43:06Z</time>
      </trkpt>
      <trkpt lat="39.526334" lon="2.929581">
        <ele>531.2</ele>
        <time>2016-04-18T15:43:07Z</time>
      </trkpt>
      <trkpt lat="39.526319" lon="2.929698">
        <ele>530.4</ele>
        <time>2016-04-18T15:43:08Z</time>
      </trkpt>
      <trkpt lat="39.526327" lon="2.929818">
        <ele>529.6</ele>
        <time>2016-04-18T15:43:09Z</time>
      </trkpt>
      <trkpt lat="39.526353" lon="2.929936">
        <ele>528.6</ele>
        <time>2016-04-18T15:43:10Z</time>
      </trkpt>
      <trkpt lat="39.526389" lon="2.930056">
        <ele>527.8</ele>
        <time>2016-04-18T15:43:11Z</time>
      </trkpt>
      <trkpt lat="39.52643" lon="2.930184">
        <ele>526.6</ele>
        <time>2016-04-18T15:43:12Z</time>
      </trkpt>
      <trkpt lat="39.526467" lon="2.930306">
        <ele>525.6</ele>
        <time>2016-04-18T15:43:13Z</time>
      </trkpt>
      <trkpt lat="39.526504" lon="2.93043">
        <ele>524.4</ele>
        <time>2016-04-18T15:43:14Z</time>
      </trkpt>
      <trkpt lat="39.52654" lon="2.930552">
        <ele>523.2</ele>
        <time>2016-04-18T15:43:15Z</time>
      </trkpt>
      <trkpt lat="39.526577" lon="2.930672">
        <ele>522.2</ele>
        <time>2016-04-18T15:43:16Z</time>
      </trkpt>
      <trkpt lat="39.526612" lon="2.930794">
        <ele>521</ele>
        <time>2016-04-18T15:43:17Z</time>
      </trkpt>
      <trkpt lat="39.526648" lon="2.930916">
        <ele>519.8</ele>
        <time>2016-04-18T15:43:18Z</time>
      </trkpt>
      <trkpt lat="39.526761" lon="2.931268">
        <ele>519.2</ele>
        <time>2016-04-18T15:43:21Z</time>
      </trkpt>
      <trkpt lat="39.526793" lon="2.931379">
        <ele>518.4</ele>
        <time>2016-04-18T15:43:22Z</time>
      </trkpt>
      <trkpt lat="39.526828" lon="2.931489">
        <ele>517.8</ele>
        <time>2016-04-18T15:43:23Z</time>
      </trkpt>
      <trkpt lat="39.526861" lon="2.9316">
        <ele>517.4</ele>
        <time>2016-04-18T15:43:24Z</time>
      </trkpt>
      <trkpt lat="39.526963" lon="2.931918">
        <ele>517.4</ele>
        <time>2016-04-18T15:43:27Z</time>
      </trkpt>
      <trkpt lat="39.527026" lon="2.932122">
        <ele>518</ele>
        <time>2016-04-18T15:43:29Z</time>
      </trkpt>
      <trkpt lat="39.527059" lon="2.93222">
        <ele>518.6</ele>
        <time>2016-04-18T15:43:30Z</time>
      </trkpt>
      <trkpt lat="39.527079" lon="2.932324">
        <ele>519.4</ele>
        <time>2016-04-18T15:43:31Z</time>
      </trkpt>
      <trkpt lat="39.527073" lon="2.932423">
        <ele>520</ele>
        <time>2016-04-18T15:43:32Z</time>
      </trkpt>
      <trkpt lat="39.527045" lon="2.932495">
        <ele>520.8</ele>
        <time>2016-04-18T15:43:33Z</time>
      </trkpt>
      <trkpt lat="39.526994" lon="2.932535">
        <ele>521.6</ele>
        <time>2016-04-18T15:43:34Z</time>
      </trkpt>
      <trkpt lat="39.526934" lon="2.932555">
        <ele>522.2</ele>
        <time>2016-04-18T15:43:35Z</time>
      </trkpt>
      <trkpt lat="39.526878" lon="2.932569">
        <ele>523</ele>
        <time>2016-04-18T15:43:36Z</time>
      </trkpt>
      <trkpt lat="39.52682" lon="2.93257">
        <ele>523.4</ele>
        <time>2016-04-18T15:43:37Z</time>
      </trkpt>
      <trkpt lat="39.526759" lon="2.932563">
        <ele>523.8</ele>
        <time>2016-04-18T15:43:38Z</time>
      </trkpt>
      <trkpt lat="39.526697" lon="2.932561">
        <ele>524.2</ele>
        <time>2016-04-18T15:43:39Z</time>
      </trkpt>
      <trkpt lat="39.526638" lon="2.932559">
        <ele>524.6</ele>
        <time>2016-04-18T15:43:40Z</time>
      </trkpt>
      <trkpt lat="39.526579" lon="2.932556">
        <ele>525.2</ele>
        <time>2016-04-18T15:43:41Z</time>
      </trkpt>
      <trkpt lat="39.526401" lon="2.932523">
        <ele>525.2</ele>
        <time>2016-04-18T15:43:44Z</time>
      </trkpt>
      <trkpt lat="39.526269" lon="2.932331">
        <ele>525.2</ele>
        <time>2016-04-18T15:43:47Z</time>
      </trkpt>
      <trkpt lat="39.526234" lon="2.932247">
        <ele>525.2</ele>
        <time>2016-04-18T15:43:48Z</time>
      </trkpt>
      <trkpt lat="39.526204" lon="2.932153">
        <ele>524.6</ele>
        <time>2016-04-18T15:43:49Z</time>
      </trkpt>
      <trkpt lat="39.526185" lon="2.932047">
        <ele>524</ele>
        <time>2016-04-18T15:43:50Z</time>
      </trkpt>
      <trkpt lat="39.52617" lon="2.931942">
        <ele>523.4</ele>
        <time>2016-04-18T15:43:51Z</time>
      </trkpt>
      <trkpt lat="39.526153" lon="2.931834">
        <ele>522.6</ele>
        <time>2016-04-18T15:43:52Z</time>
      </trkpt>
      <trkpt lat="39.526134" lon="2.931723">
        <ele>522</ele>
        <time>2016-04-18T15:43:53Z</time>
      </trkpt>
      <trkpt lat="39.526117" lon="2.931612">
        <ele>521.2</ele>
        <time>2016-04-18T15:43:54Z</time>
      </trkpt>
      <trkpt lat="39.526099" lon="2.9315">
        <ele>520.6</ele>
        <time>2016-04-18T15:43:55Z</time>
      </trkpt>
      <trkpt lat="39.526079" lon="2.931394">
        <ele>519.8</ele>
        <time>2016-04-18T15:43:56Z</time>
      </trkpt>
      <trkpt lat="39.526055" lon="2.931297">
        <ele>519</ele>
        <time>2016-04-18T15:43:57Z</time>
      </trkpt>
      <trkpt lat="39.526034" lon="2.931219">
        <ele>518.2</ele>
        <time>2016-04-18T15:43:58Z</time>
      </trkpt>
      <trkpt lat="39.526014" lon="2.931156">
        <ele>517.4</ele>
        <time>2016-04-18T15:43:59Z</time>
      </trkpt>
      <trkpt lat="39.525992" lon="2.931096">
        <ele>516.8</ele>
        <time>2016-04-18T15:44:00Z</time>
      </trkpt>
      <trkpt lat="39.525967" lon="2.931036">
        <ele>516.8</ele>
        <time>2016-04-18T15:44:01Z</time>
      </trkpt>
      <trkpt lat="39.52594" lon="2.930987">
        <ele>516.8</ele>
        <time>2016-04-18T15:44:02Z</time>
      </trkpt>
      <trkpt lat="39.525845" lon="2.93084">
        <ele>516.8</ele>
        <time>2016-04-18T15:44:26Z</time>
      </trkpt>
      <trkpt lat="39.525833" lon="2.930806">
        <ele>516.8</ele>
        <time>2016-04-18T15:44:27Z</time>
      </trkpt>
      <trkpt lat="39.525764" lon="2.930678">
        <ele>516.4</ele>
        <time>2016-04-18T15:44:30Z</time>
      </trkpt>
      <trkpt lat="39.525729" lon="2.930624">
        <ele>516</ele>
        <time>2016-04-18T15:44:31Z</time>
      </trkpt>
      <trkpt lat="39.525692" lon="2.930559">
        <ele>515.6</ele>
        <time>2016-04-18T15:44:32Z</time>
      </trkpt>
      <trkpt lat="39.525653" lon="2.930488">
        <ele>515</ele>
        <time>2016-04-18T15:44:33Z</time>
      </trkpt>
      <trkpt lat="39.52561" lon="2.930415">
        <ele>514.6</ele>
        <time>2016-04-18T15:44:34Z</time>
      </trkpt>
      <trkpt lat="39.525563" lon="2.930341">
        <ele>514.2</ele>
        <time>2016-04-18T15:44:35Z</time>
      </trkpt>
      <trkpt lat="39.525508" lon="2.930273">
        <ele>513.2</ele>
        <time>2016-04-18T15:44:36Z</time>
      </trkpt>
      <trkpt lat="39.525441" lon="2.930207">
        <ele>512.8</ele>
        <time>2016-04-18T15:44:37Z</time>
      </trkpt>
      <trkpt lat="39.525372" lon="2.930143">
        <ele>512.2</ele>
        <time>2016-04-18T15:44:38Z</time>
      </trkpt>
      <trkpt lat="39.525295" lon="2.930077">
        <ele>511.8</ele>
        <time>2016-04-18T15:44:39Z</time>
      </trkpt>
      <trkpt lat="39.525212" lon="2.930009">
        <ele>511.2</ele>
        <time>2016-04-18T15:44:40Z</time>
      </trkpt>
      <trkpt lat="39.525126" lon="2.929942">
        <ele>510.4</ele>
        <time>2016-04-18T15:44:41Z</time>
      </trkpt>
      <trkpt lat="39.525039" lon="2.929871">
        <ele>509.8</ele>
        <time>2016-04-18T15:44:42Z</time>
      </trkpt>
      <trkpt lat="39.524952" lon="2.929799">
        <ele>509</ele>
        <time>2016-04-18T15:44:43Z</time>
      </trkpt>
      <trkpt lat="39.524781" lon="2.92964">
        <ele>507.6</ele>
        <time>2016-04-18T15:44:44Z</time>
      </trkpt>
      <trkpt lat="39.524714" lon="2.929556">
        <ele>507</ele>
        <time>2016-04-18T15:44:47Z</time>
      </trkpt>
      <trkpt lat="39.524663" lon="2.929475">
        <ele>506.2</ele>
        <time>2016-04-18T15:44:48Z</time>
      </trkpt>
      <trkpt lat="39.524624" lon="2.929402">
        <ele>505.6</ele>
        <time>2016-04-18T15:44:49Z</time>
      </trkpt>
      <trkpt lat="39.524529" lon="2.929328">
        <ele>505.2</ele>
        <time>2016-04-18T15:44:51Z</time>
      </trkpt>
      <trkpt lat="39.524477" lon="2.929354">
        <ele>504.6</ele>
        <time>2016-04-18T15:44:52Z</time>
      </trkpt>
      <trkpt lat="39.524439" lon="2.929416">
        <ele>504.2</ele>
        <time>2016-04-18T15:44:53Z</time>
      </trkpt>
      <trkpt lat="39.524448" lon="2.929492">
        <ele>503.6</ele>
        <time>2016-04-18T15:44:54Z</time>
      </trkpt>
      <trkpt lat="39.524489" lon="2.929561">
        <ele>503</ele>
        <time>2016-04-18T15:44:55Z</time>
      </trkpt>
      <trkpt lat="39.524545" lon="2.929625">
        <ele>502.6</ele>
        <time>2016-04-18T15:44:56Z</time>
      </trkpt>
      <trkpt lat="39.524605" lon="2.929689">
        <ele>502</ele>
        <time>2016-04-18T15:44:57Z</time>
      </trkpt>
      <trkpt lat="39.524666" lon="2.929759">
        <ele>501.4</ele>
        <time>2016-04-18T15:44:58Z</time>
      </trkpt>
      <trkpt lat="39.524724" lon="2.929832">
        <ele>500.8</ele>
        <time>2016-04-18T15:44:59Z</time>
      </trkpt>
      <trkpt lat="39.524785" lon="2.929912">
        <ele>499.8</ele>
        <time>2016-04-18T15:45:00Z</time>
      </trkpt>
      <trkpt lat="39.524842" lon="2.92999">
        <ele>499.4</ele>
        <time>2016-04-18T15:45:01Z</time>
      </trkpt>
      <trkpt lat="39.525082" lon="2.930278">
        <ele>499.4</ele>
        <time>2016-04-18T15:45:05Z</time>
      </trkpt>
      <trkpt lat="39.525139" lon="2.930353">
        <ele>499.4</ele>
        <time>2016-04-18T15:45:06Z</time>
      </trkpt>
      <trkpt lat="39.525194" lon="2.930433">
        <ele>499.4</ele>
        <time>2016-04-18T15:45:07Z</time>
      </trkpt>
      <trkpt lat="39.525252" lon="2.930522">
        <ele>499.4</ele>
        <time>2016-04-18T15:45:08Z</time>
      </trkpt>
      <trkpt lat="39.525294" lon="2.930618">
        <ele>499.4</ele>
        <time>2016-04-18T15:45:09Z</time>
      </trkpt>
      <trkpt lat="39.525327" lon="2.930726">
        <ele>498.8</ele>
        <time>2016-04-18T15:45:10Z</time>
      </trkpt>
      <trkpt lat="39.525356" lon="2.930838">
        <ele>498.4</ele>
        <time>2016-04-18T15:45:11Z</time>
      </trkpt>
      <trkpt lat="39.525363" lon="2.930959">
        <ele>498</ele>
        <time>2016-04-18T15:45:12Z</time>
      </trkpt>
      <trkpt lat="39.525341" lon="2.931075">
        <ele>497.6</ele>
        <time>2016-04-18T15:45:13Z</time>
      </trkpt>
      <trkpt lat="39.525286" lon="2.931172">
        <ele>497.2</ele>
        <time>2016-04-18T15:45:14Z</time>
      </trkpt>
      <trkpt lat="39.525208" lon="2.931236">
        <ele>496.6</ele>
        <time>2016-04-18T15:45:15Z</time>
      </trkpt>
      <trkpt lat="39.525094" lon="2.931265">
        <ele>496</ele>
        <time>2016-04-18T15:45:16Z</time>
      </trkpt>
      <trkpt lat="39.52498" lon="2.931276">
        <ele>495.4</ele>
        <time>2016-04-18T15:45:17Z</time>
      </trkpt>
      <trkpt lat="39.524864" lon="2.931279">
        <ele>494.6</ele>
        <time>2016-04-18T15:45:18Z</time>
      </trkpt>
      <trkpt lat="39.524745" lon="2.931278">
        <ele>493.8</ele>
        <time>2016-04-18T15:45:19Z</time>
      </trkpt>
      <trkpt lat="39.524625" lon="2.931279">
        <ele>492.8</ele>
        <time>2016-04-18T15:45:20Z</time>
      </trkpt>
      <trkpt lat="39.524504" lon="2.931292">
        <ele>491.8</ele>
        <time>2016-04-18T15:45:21Z</time>
      </trkpt>
      <trkpt lat="39.524383" lon="2.931308">
        <ele>490.6</ele>
        <time>2016-04-18T15:45:22Z</time>
      </trkpt>
      <trkpt lat="39.52426" lon="2.931326">
        <ele>489.6</ele>
        <time>2016-04-18T15:45:23Z</time>
      </trkpt>
      <trkpt lat="39.524131" lon="2.931343">
        <ele>488.6</ele>
        <time>2016-04-18T15:45:24Z</time>
      </trkpt>
      <trkpt lat="39.524007" lon="2.931358">
        <ele>486.4</ele>
        <time>2016-04-18T15:45:25Z</time>
      </trkpt>
      <trkpt lat="39.52388" lon="2.931364">
        <ele>485.2</ele>
        <time>2016-04-18T15:45:26Z</time>
      </trkpt>
      <trkpt lat="39.523751" lon="2.931357">
        <ele>484.2</ele>
        <time>2016-04-18T15:45:27Z</time>
      </trkpt>
      <trkpt lat="39.523625" lon="2.931338">
        <ele>483</ele>
        <time>2016-04-18T15:45:28Z</time>
      </trkpt>
      <trkpt lat="39.523487" lon="2.93131">
        <ele>482</ele>
        <time>2016-04-18T15:45:29Z</time>
      </trkpt>
      <trkpt lat="39.523355" lon="2.931265">
        <ele>481.2</ele>
        <time>2016-04-18T15:45:30Z</time>
      </trkpt>
      <trkpt lat="39.523227" lon="2.931201">
        <ele>480.4</ele>
        <time>2016-04-18T15:45:31Z</time>
      </trkpt>
      <trkpt lat="39.523102" lon="2.931124">
        <ele>479.4</ele>
        <time>2016-04-18T15:45:32Z</time>
      </trkpt>
      <trkpt lat="39.522976" lon="2.931039">
        <ele>478.4</ele>
        <time>2016-04-18T15:45:33Z</time>
      </trkpt>
      <trkpt lat="39.522852" lon="2.930951">
        <ele>477.4</ele>
        <time>2016-04-18T15:45:34Z</time>
      </trkpt>
      <trkpt lat="39.522728" lon="2.930872">
        <ele>476.4</ele>
        <time>2016-04-18T15:45:35Z</time>
      </trkpt>
      <trkpt lat="39.5226" lon="2.930812">
        <ele>475.4</ele>
        <time>2016-04-18T15:45:36Z</time>
      </trkpt>
      <trkpt lat="39.522474" lon="2.930765">
        <ele>474.4</ele>
        <time>2016-04-18T15:45:37Z</time>
      </trkpt>
      <trkpt lat="39.522351" lon="2.930722">
        <ele>473.4</ele>
        <time>2016-04-18T15:45:38Z</time>
      </trkpt>
      <trkpt lat="39.522123" lon="2.93061">
        <ele>473.4</ele>
        <time>2016-04-18T15:45:40Z</time>
      </trkpt>
      <trkpt lat="39.522029" lon="2.930528">
        <ele>473.4</ele>
        <time>2016-04-18T15:45:41Z</time>
      </trkpt>
      <trkpt lat="39.521856" lon="2.930363">
        <ele>473.4</ele>
        <time>2016-04-18T15:45:43Z</time>
      </trkpt>
      <trkpt lat="39.521604" lon="2.930127">
        <ele>473.4</ele>
        <time>2016-04-18T15:45:46Z</time>
      </trkpt>
      <trkpt lat="39.521456" lon="2.929965">
        <ele>473.4</ele>
        <time>2016-04-18T15:45:48Z</time>
      </trkpt>
      <trkpt lat="39.521298" lon="2.92982">
        <ele>473.8</ele>
        <time>2016-04-18T15:45:50Z</time>
      </trkpt>
      <trkpt lat="39.521201" lon="2.92977">
        <ele>474.2</ele>
        <time>2016-04-18T15:45:51Z</time>
      </trkpt>
      <trkpt lat="39.521109" lon="2.929702">
        <ele>474.6</ele>
        <time>2016-04-18T15:45:52Z</time>
      </trkpt>
      <trkpt lat="39.521028" lon="2.929609">
        <ele>474.4</ele>
        <time>2016-04-18T15:45:53Z</time>
      </trkpt>
      <trkpt lat="39.52096" lon="2.929495">
        <ele>474</ele>
        <time>2016-04-18T15:45:54Z</time>
      </trkpt>
      <trkpt lat="39.520913" lon="2.929382">
        <ele>473.6</ele>
        <time>2016-04-18T15:45:55Z</time>
      </trkpt>
      <trkpt lat="39.520886" lon="2.929271">
        <ele>473</ele>
        <time>2016-04-18T15:45:56Z</time>
      </trkpt>
      <trkpt lat="39.520876" lon="2.929168">
        <ele>472.6</ele>
        <time>2016-04-18T15:45:57Z</time>
      </trkpt>
      <trkpt lat="39.520889" lon="2.929071">
        <ele>472</ele>
        <time>2016-04-18T15:45:58Z</time>
      </trkpt>
      <trkpt lat="39.520926" lon="2.928983">
        <ele>471.4</ele>
        <time>2016-04-18T15:45:59Z</time>
      </trkpt>
      <trkpt lat="39.520983" lon="2.928915">
        <ele>470.8</ele>
        <time>2016-04-18T15:46:00Z</time>
      </trkpt>
      <trkpt lat="39.521057" lon="2.928863">
        <ele>470.2</ele>
        <time>2016-04-18T15:46:01Z</time>
      </trkpt>
      <trkpt lat="39.521138" lon="2.928835">
        <ele>469.8</ele>
        <time>2016-04-18T15:46:02Z</time>
      </trkpt>
      <trkpt lat="39.521226" lon="2.92882">
        <ele>469.4</ele>
        <time>2016-04-18T15:46:03Z</time>
      </trkpt>
      <trkpt lat="39.521319" lon="2.928815">
        <ele>468.8</ele>
        <time>2016-04-18T15:46:04Z</time>
      </trkpt>
      <trkpt lat="39.521416" lon="2.92882">
        <ele>468</ele>
        <time>2016-04-18T15:46:05Z</time>
      </trkpt>
      <trkpt lat="39.521513" lon="2.928842">
        <ele>467.4</ele>
        <time>2016-04-18T15:46:06Z</time>
      </trkpt>
      <trkpt lat="39.521607" lon="2.928884">
        <ele>466.6</ele>
        <time>2016-04-18T15:46:07Z</time>
      </trkpt>
      <trkpt lat="39.521702" lon="2.928938">
        <ele>465.8</ele>
        <time>2016-04-18T15:46:08Z</time>
      </trkpt>
      <trkpt lat="39.521799" lon="2.928991">
        <ele>465</ele>
        <time>2016-04-18T15:46:09Z</time>
      </trkpt>
      <trkpt lat="39.521897" lon="2.929048">
        <ele>464.4</ele>
        <time>2016-04-18T15:46:10Z</time>
      </trkpt>
      <trkpt lat="39.521992" lon="2.929111">
        <ele>463.6</ele>
        <time>2016-04-18T15:46:11Z</time>
      </trkpt>
      <trkpt lat="39.522085" lon="2.929184">
        <ele>463</ele>
        <time>2016-04-18T15:46:12Z</time>
      </trkpt>
      <trkpt lat="39.522177" lon="2.929262">
        <ele>462.2</ele>
        <time>2016-04-18T15:46:13Z</time>
      </trkpt>
      <trkpt lat="39.522266" lon="2.92935">
        <ele>461</ele>
        <time>2016-04-18T15:46:14Z</time>
      </trkpt>
      <trkpt lat="39.522352" lon="2.929441">
        <ele>460.4</ele>
        <time>2016-04-18T15:46:15Z</time>
      </trkpt>
      <trkpt lat="39.522435" lon="2.929533">
        <ele>459.6</ele>
        <time>2016-04-18T15:46:16Z</time>
      </trkpt>
      <trkpt lat="39.52252" lon="2.929632">
        <ele>458.6</ele>
        <time>2016-04-18T15:46:17Z</time>
      </trkpt>
      <trkpt lat="39.522598" lon="2.92973">
        <ele>457.8</ele>
        <time>2016-04-18T15:46:18Z</time>
      </trkpt>
      <trkpt lat="39.522671" lon="2.92983">
        <ele>456.8</ele>
        <time>2016-04-18T15:46:19Z</time>
      </trkpt>
      <trkpt lat="39.522748" lon="2.929927">
        <ele>456</ele>
        <time>2016-04-18T15:46:20Z</time>
      </trkpt>
      <trkpt lat="39.522887" lon="2.930101">
        <ele>456</ele>
        <time>2016-04-18T15:46:22Z</time>
      </trkpt>
      <trkpt lat="39.523012" lon="2.930272">
        <ele>456</ele>
        <time>2016-04-18T15:46:24Z</time>
      </trkpt>
      <trkpt lat="39.523068" lon="2.930349">
        <ele>455.6</ele>
        <time>2016-04-18T15:46:25Z</time>
      </trkpt>
      <trkpt lat="39.523114" lon="2.930406">
        <ele>455</ele>
        <time>2016-04-18T15:46:26Z</time>
      </trkpt>
      <trkpt lat="39.523161" lon="2.93044">
        <ele>454.6</ele>
        <time>2016-04-18T15:46:27Z</time>
      </trkpt>
      <trkpt lat="39.523213" lon="2.930441">
        <ele>454.2</ele>
        <time>2016-04-18T15:46:28Z</time>
      </trkpt>
      <trkpt lat="39.523266" lon="2.930427">
        <ele>453.6</ele>
        <time>2016-04-18T15:46:29Z</time>
      </trkpt>
      <trkpt lat="39.523297" lon="2.930391">
        <ele>453.6</ele>
        <time>2016-04-18T15:46:30Z</time>
      </trkpt>
      <trkpt lat="39.523275" lon="2.930275">
        <ele>453.6</ele>
        <time>2016-04-18T15:46:32Z</time>
      </trkpt>
      <trkpt lat="39.523241" lon="2.930222">
        <ele>453.2</ele>
        <time>2016-04-18T15:46:33Z</time>
      </trkpt>
      <trkpt lat="39.523205" lon="2.930177">
        <ele>452.8</ele>
        <time>2016-04-18T15:46:34Z</time>
      </trkpt>
      <trkpt lat="39.52317" lon="2.930135">
        <ele>452.4</ele>
        <time>2016-04-18T15:46:35Z</time>
      </trkpt>
      <trkpt lat="39.523138" lon="2.930097">
        <ele>452</ele>
        <time>2016-04-18T15:46:36Z</time>
      </trkpt>
      <trkpt lat="39.523106" lon="2.930056">
        <ele>451.6</ele>
        <time>2016-04-18T15:46:37Z</time>
      </trkpt>
      <trkpt lat="39.52304" lon="2.929974">
        <ele>451.6</ele>
        <time>2016-04-18T15:46:39Z</time>
      </trkpt>
      <trkpt lat="39.523008" lon="2.929926">
        <ele>451.2</ele>
        <time>2016-04-18T15:46:40Z</time>
      </trkpt>
      <trkpt lat="39.522977" lon="2.929877">
        <ele>450.8</ele>
        <time>2016-04-18T15:46:41Z</time>
      </trkpt>
      <trkpt lat="39.522943" lon="2.929832">
        <ele>450.2</ele>
        <time>2016-04-18T15:46:42Z</time>
      </trkpt>
      <trkpt lat="39.52291" lon="2.929791">
        <ele>449.8</ele>
        <time>2016-04-18T15:46:43Z</time>
      </trkpt>
      <trkpt lat="39.522878" lon="2.929755">
        <ele>449.4</ele>
        <time>2016-04-18T15:46:44Z</time>
      </trkpt>
      <trkpt lat="39.52285" lon="2.929717">
        <ele>449</ele>
        <time>2016-04-18T15:46:45Z</time>
      </trkpt>
      <trkpt lat="39.522827" lon="2.929666">
        <ele>448.6</ele>
        <time>2016-04-18T15:46:46Z</time>
      </trkpt>
      <trkpt lat="39.522776" lon="2.929551">
        <ele>447.8</ele>
        <time>2016-04-18T15:46:47Z</time>
      </trkpt>
      <trkpt lat="39.522746" lon="2.929489">
        <ele>447.4</ele>
        <time>2016-04-18T15:46:49Z</time>
      </trkpt>
      <trkpt lat="39.522653" lon="2.92931">
        <ele>447</ele>
        <time>2016-04-18T15:46:52Z</time>
      </trkpt>
      <trkpt lat="39.522616" lon="2.929248">
        <ele>446.6</ele>
        <time>2016-04-18T15:46:53Z</time>
      </trkpt>
      <trkpt lat="39.522575" lon="2.929187">
        <ele>446.2</ele>
        <time>2016-04-18T15:46:54Z</time>
      </trkpt>
      <trkpt lat="39.522528" lon="2.92912">
        <ele>445.6</ele>
        <time>2016-04-18T15:46:55Z</time>
      </trkpt>
      <trkpt lat="39.522487" lon="2.929048">
        <ele>445.2</ele>
        <time>2016-04-18T15:46:56Z</time>
      </trkpt>
      <trkpt lat="39.522398" lon="2.928903">
        <ele>444.8</ele>
        <time>2016-04-18T15:46:58Z</time>
      </trkpt>
      <trkpt lat="39.522356" lon="2.928837">
        <ele>444.2</ele>
        <time>2016-04-18T15:46:59Z</time>
      </trkpt>
      <trkpt lat="39.522311" lon="2.928773">
        <ele>443.8</ele>
        <time>2016-04-18T15:47:00Z</time>
      </trkpt>
      <trkpt lat="39.522263" lon="2.928708">
        <ele>443.2</ele>
        <time>2016-04-18T15:47:01Z</time>
      </trkpt>
      <trkpt lat="39.522211" lon="2.928641">
        <ele>442.6</ele>
        <time>2016-04-18T15:47:02Z</time>
      </trkpt>
      <trkpt lat="39.522156" lon="2.928567">
        <ele>442</ele>
        <time>2016-04-18T15:47:03Z</time>
      </trkpt>
      <trkpt lat="39.522096" lon="2.928494">
        <ele>440.8</ele>
        <time>2016-04-18T15:47:04Z</time>
      </trkpt>
      <trkpt lat="39.522031" lon="2.928421">
        <ele>440.2</ele>
        <time>2016-04-18T15:47:05Z</time>
      </trkpt>
      <trkpt lat="39.521956" lon="2.928347">
        <ele>439.8</ele>
        <time>2016-04-18T15:47:06Z</time>
      </trkpt>
      <trkpt lat="39.521883" lon="2.928279">
        <ele>439.4</ele>
        <time>2016-04-18T15:47:07Z</time>
      </trkpt>
      <trkpt lat="39.521815" lon="2.928203">
        <ele>438.8</ele>
        <time>2016-04-18T15:47:08Z</time>
      </trkpt>
      <trkpt lat="39.521744" lon="2.928127">
        <ele>438.2</ele>
        <time>2016-04-18T15:47:09Z</time>
      </trkpt>
      <trkpt lat="39.521668" lon="2.928055">
        <ele>437.6</ele>
        <time>2016-04-18T15:47:10Z</time>
      </trkpt>
      <trkpt lat="39.521584" lon="2.927979">
        <ele>436.8</ele>
        <time>2016-04-18T15:47:11Z</time>
      </trkpt>
      <trkpt lat="39.521503" lon="2.927902">
        <ele>436</ele>
        <time>2016-04-18T15:47:12Z</time>
      </trkpt>
      <trkpt lat="39.521422" lon="2.92783">
        <ele>435.2</ele>
        <time>2016-04-18T15:47:13Z</time>
      </trkpt>
      <trkpt lat="39.521336" lon="2.927759">
        <ele>434.4</ele>
        <time>2016-04-18T15:47:14Z</time>
      </trkpt>
      <trkpt lat="39.52125" lon="2.927695">
        <ele>433.6</ele>
        <time>2016-04-18T15:47:15Z</time>
      </trkpt>
      <trkpt lat="39.521161" lon="2.927635">
        <ele>432.8</ele>
        <time>2016-04-18T15:47:16Z</time>
      </trkpt>
      <trkpt lat="39.521072" lon="2.927571">
        <ele>432</ele>
        <time>2016-04-18T15:47:17Z</time>
      </trkpt>
      <trkpt lat="39.520981" lon="2.927496">
        <ele>431.2</ele>
        <time>2016-04-18T15:47:18Z</time>
      </trkpt>
      <trkpt lat="39.520893" lon="2.927419">
        <ele>430.6</ele>
        <time>2016-04-18T15:47:19Z</time>
      </trkpt>
      <trkpt lat="39.520804" lon="2.927338">
        <ele>429.8</ele>
        <time>2016-04-18T15:47:20Z</time>
      </trkpt>
      <trkpt lat="39.520712" lon="2.92726">
        <ele>429</ele>
        <time>2016-04-18T15:47:21Z</time>
      </trkpt>
      <trkpt lat="39.52062" lon="2.927182">
        <ele>428.6</ele>
        <time>2016-04-18T15:47:22Z</time>
      </trkpt>
      <trkpt lat="39.520527" lon="2.927104">
        <ele>428.2</ele>
        <time>2016-04-18T15:47:23Z</time>
      </trkpt>
      <trkpt lat="39.520431" lon="2.927022">
        <ele>427.8</ele>
        <time>2016-04-18T15:47:24Z</time>
      </trkpt>
      <trkpt lat="39.520335" lon="2.92694">
        <ele>427.2</ele>
        <time>2016-04-18T15:47:25Z</time>
      </trkpt>
      <trkpt lat="39.52024" lon="2.92685">
        <ele>426.4</ele>
        <time>2016-04-18T15:47:26Z</time>
      </trkpt>
      <trkpt lat="39.520152" lon="2.926766">
        <ele>425.6</ele>
        <time>2016-04-18T15:47:27Z</time>
      </trkpt>
      <trkpt lat="39.520059" lon="2.926679">
        <ele>425</ele>
        <time>2016-04-18T15:47:28Z</time>
      </trkpt>
      <trkpt lat="39.519965" lon="2.926595">
        <ele>423.6</ele>
        <time>2016-04-18T15:47:29Z</time>
      </trkpt>
      <trkpt lat="39.519883" lon="2.926523">
        <ele>422.8</ele>
        <time>2016-04-18T15:47:30Z</time>
      </trkpt>
      <trkpt lat="39.519808" lon="2.926459">
        <ele>422</ele>
        <time>2016-04-18T15:47:31Z</time>
      </trkpt>
      <trkpt lat="39.519735" lon="2.926401">
        <ele>421.4</ele>
        <time>2016-04-18T15:47:32Z</time>
      </trkpt>
      <trkpt lat="39.519657" lon="2.926363">
        <ele>421.4</ele>
        <time>2016-04-18T15:47:33Z</time>
      </trkpt>
      <trkpt lat="39.519489" lon="2.926343">
        <ele>421.4</ele>
        <time>2016-04-18T15:47:35Z</time>
      </trkpt>
      <trkpt lat="39.519415" lon="2.926327">
        <ele>421.4</ele>
        <time>2016-04-18T15:47:36Z</time>
      </trkpt>
      <trkpt lat="39.519358" lon="2.926282">
        <ele>420.8</ele>
        <time>2016-04-18T15:47:37Z</time>
      </trkpt>
      <trkpt lat="39.519335" lon="2.926203">
        <ele>420.2</ele>
        <time>2016-04-18T15:47:38Z</time>
      </trkpt>
      <trkpt lat="39.519351" lon="2.92613">
        <ele>419.8</ele>
        <time>2016-04-18T15:47:39Z</time>
      </trkpt>
      <trkpt lat="39.519402" lon="2.926098">
        <ele>419.2</ele>
        <time>2016-04-18T15:47:40Z</time>
      </trkpt>
      <trkpt lat="39.519465" lon="2.926107">
        <ele>418.8</ele>
        <time>2016-04-18T15:47:41Z</time>
      </trkpt>
      <trkpt lat="39.51952" lon="2.926135">
        <ele>418.8</ele>
        <time>2016-04-18T15:47:42Z</time>
      </trkpt>
      <trkpt lat="39.519579" lon="2.926175">
        <ele>418.2</ele>
        <time>2016-04-18T15:47:43Z</time>
      </trkpt>
      <trkpt lat="39.519645" lon="2.926219">
        <ele>417.8</ele>
        <time>2016-04-18T15:47:44Z</time>
      </trkpt>
      <trkpt lat="39.519718" lon="2.926263">
        <ele>417.4</ele>
        <time>2016-04-18T15:47:45Z</time>
      </trkpt>
      <trkpt lat="39.519792" lon="2.926306">
        <ele>417</ele>
        <time>2016-04-18T15:47:46Z</time>
      </trkpt>
      <trkpt lat="39.519865" lon="2.92635">
        <ele>416.6</ele>
        <time>2016-04-18T15:47:47Z</time>
      </trkpt>
      <trkpt lat="39.520011" lon="2.92644">
        <ele>416.6</ele>
        <time>2016-04-18T15:47:49Z</time>
      </trkpt>
      <trkpt lat="39.520225" lon="2.92656">
        <ele>416.2</ele>
        <time>2016-04-18T15:47:52Z</time>
      </trkpt>
      <trkpt lat="39.520299" lon="2.9266">
        <ele>415.8</ele>
        <time>2016-04-18T15:47:53Z</time>
      </trkpt>
      <trkpt lat="39.52038" lon="2.926644">
        <ele>414.8</ele>
        <time>2016-04-18T15:47:54Z</time>
      </trkpt>
      <trkpt lat="39.520461" lon="2.926692">
        <ele>414.4</ele>
        <time>2016-04-18T15:47:55Z</time>
      </trkpt>
      <trkpt lat="39.52055" lon="2.926748">
        <ele>413.8</ele>
        <time>2016-04-18T15:47:56Z</time>
      </trkpt>
      <trkpt lat="39.520637" lon="2.926804">
        <ele>413.2</ele>
        <time>2016-04-18T15:47:57Z</time>
      </trkpt>
      <trkpt lat="39.520727" lon="2.92686">
        <ele>412.8</ele>
        <time>2016-04-18T15:47:58Z</time>
      </trkpt>
      <trkpt lat="39.520816" lon="2.926918">
        <ele>412.2</ele>
        <time>2016-04-18T15:47:59Z</time>
      </trkpt>
      <trkpt lat="39.521086" lon="2.92711">
        <ele>412.2</ele>
        <time>2016-04-18T15:48:02Z</time>
      </trkpt>
      <trkpt lat="39.52118" lon="2.92718">
        <ele>411.8</ele>
        <time>2016-04-18T15:48:03Z</time>
      </trkpt>
      <trkpt lat="39.521262" lon="2.927243">
        <ele>411.2</ele>
        <time>2016-04-18T15:48:04Z</time>
      </trkpt>
      <trkpt lat="39.521337" lon="2.927305">
        <ele>410.8</ele>
        <time>2016-04-18T15:48:05Z</time>
      </trkpt>
      <trkpt lat="39.521402" lon="2.927362">
        <ele>410.4</ele>
        <time>2016-04-18T15:48:06Z</time>
      </trkpt>
      <trkpt lat="39.521459" lon="2.927407">
        <ele>409.8</ele>
        <time>2016-04-18T15:48:07Z</time>
      </trkpt>
      <trkpt lat="39.521518" lon="2.927437">
        <ele>409.8</ele>
        <time>2016-04-18T15:48:08Z</time>
      </trkpt>
      <trkpt lat="39.521621" lon="2.927358">
        <ele>409.8</ele>
        <time>2016-04-18T15:48:10Z</time>
      </trkpt>
      <trkpt lat="39.521635" lon="2.927262">
        <ele>409.4</ele>
        <time>2016-04-18T15:48:11Z</time>
      </trkpt>
      <trkpt lat="39.521601" lon="2.927185">
        <ele>409</ele>
        <time>2016-04-18T15:48:12Z</time>
      </trkpt>
      <trkpt lat="39.521537" lon="2.92713">
        <ele>408.6</ele>
        <time>2016-04-18T15:48:13Z</time>
      </trkpt>
      <trkpt lat="39.52146" lon="2.927084">
        <ele>408</ele>
        <time>2016-04-18T15:48:14Z</time>
      </trkpt>
      <trkpt lat="39.521371" lon="2.927036">
        <ele>407.6</ele>
        <time>2016-04-18T15:48:15Z</time>
      </trkpt>
      <trkpt lat="39.521281" lon="2.926977">
        <ele>407</ele>
        <time>2016-04-18T15:48:16Z</time>
      </trkpt>
      <trkpt lat="39.521192" lon="2.92691">
        <ele>406.4</ele>
        <time>2016-04-18T15:48:17Z</time>
      </trkpt>
      <trkpt lat="39.521108" lon="2.926823">
        <ele>405</ele>
        <time>2016-04-18T15:48:18Z</time>
      </trkpt>
      <trkpt lat="39.521026" lon="2.926714">
        <ele>404.2</ele>
        <time>2016-04-18T15:48:19Z</time>
      </trkpt>
      <trkpt lat="39.520947" lon="2.926598">
        <ele>403.2</ele>
        <time>2016-04-18T15:48:20Z</time>
      </trkpt>
      <trkpt lat="39.520863" lon="2.926478">
        <ele>402</ele>
        <time>2016-04-18T15:48:21Z</time>
      </trkpt>
      <trkpt lat="39.520779" lon="2.926356">
        <ele>401</ele>
        <time>2016-04-18T15:48:22Z</time>
      </trkpt>
      <trkpt lat="39.520686" lon="2.926231">
        <ele>399.6</ele>
        <time>2016-04-18T15:48:23Z</time>
      </trkpt>
      <trkpt lat="39.520588" lon="2.92611">
        <ele>398.4</ele>
        <time>2016-04-18T15:48:24Z</time>
      </trkpt>
      <trkpt lat="39.520487" lon="2.925995">
        <ele>397.2</ele>
        <time>2016-04-18T15:48:25Z</time>
      </trkpt>
      <trkpt lat="39.520381" lon="2.92588">
        <ele>396</ele>
        <time>2016-04-18T15:48:26Z</time>
      </trkpt>
      <trkpt lat="39.520272" lon="2.925755">
        <ele>394.8</ele>
        <time>2016-04-18T15:48:27Z</time>
      </trkpt>
      <trkpt lat="39.520166" lon="2.925642">
        <ele>393.6</ele>
        <time>2016-04-18T15:48:28Z</time>
      </trkpt>
      <trkpt lat="39.520057" lon="2.925532">
        <ele>392.4</ele>
        <time>2016-04-18T15:48:29Z</time>
      </trkpt>
      <trkpt lat="39.51995" lon="2.925415">
        <ele>391.4</ele>
        <time>2016-04-18T15:48:30Z</time>
      </trkpt>
      <trkpt lat="39.519843" lon="2.925298">
        <ele>390.2</ele>
        <time>2016-04-18T15:48:31Z</time>
      </trkpt>
      <trkpt lat="39.519736" lon="2.925184">
        <ele>389</ele>
        <time>2016-04-18T15:48:32Z</time>
      </trkpt>
      <trkpt lat="39.519629" lon="2.925078">
        <ele>387.6</ele>
        <time>2016-04-18T15:48:33Z</time>
      </trkpt>
      <trkpt lat="39.519521" lon="2.924977">
        <ele>386.4</ele>
        <time>2016-04-18T15:48:34Z</time>
      </trkpt>
      <trkpt lat="39.519417" lon="2.924891">
        <ele>385.2</ele>
        <time>2016-04-18T15:48:35Z</time>
      </trkpt>
      <trkpt lat="39.519314" lon="2.924818">
        <ele>383.8</ele>
        <time>2016-04-18T15:48:36Z</time>
      </trkpt>
      <trkpt lat="39.519124" lon="2.924727">
        <ele>383.8</ele>
        <time>2016-04-18T15:48:38Z</time>
      </trkpt>
      <trkpt lat="39.518948" lon="2.92471">
        <ele>383.8</ele>
        <time>2016-04-18T15:48:40Z</time>
      </trkpt>
      <trkpt lat="39.518886" lon="2.924681">
        <ele>383.8</ele>
        <time>2016-04-18T15:48:41Z</time>
      </trkpt>
      <trkpt lat="39.518824" lon="2.924536">
        <ele>383.8</ele>
        <time>2016-04-18T15:48:43Z</time>
      </trkpt>
      <trkpt lat="39.51885" lon="2.924438">
        <ele>383.4</ele>
        <time>2016-04-18T15:48:44Z</time>
      </trkpt>
      <trkpt lat="39.518897" lon="2.924342">
        <ele>382.8</ele>
        <time>2016-04-18T15:48:45Z</time>
      </trkpt>
      <trkpt lat="39.518953" lon="2.924246">
        <ele>382</ele>
        <time>2016-04-18T15:48:46Z</time>
      </trkpt>
      <trkpt lat="39.519019" lon="2.924152">
        <ele>381.2</ele>
        <time>2016-04-18T15:48:47Z</time>
      </trkpt>
      <trkpt lat="39.519093" lon="2.924079">
        <ele>380.2</ele>
        <time>2016-04-18T15:48:48Z</time>
      </trkpt>
      <trkpt lat="39.519172" lon="2.924033">
        <ele>379.2</ele>
        <time>2016-04-18T15:48:49Z</time>
      </trkpt>
      <trkpt lat="39.519264" lon="2.924024">
        <ele>378.4</ele>
        <time>2016-04-18T15:48:50Z</time>
      </trkpt>
      <trkpt lat="39.519338" lon="2.924078">
        <ele>377.4</ele>
        <time>2016-04-18T15:48:51Z</time>
      </trkpt>
      <trkpt lat="39.519398" lon="2.92416">
        <ele>376.4</ele>
        <time>2016-04-18T15:48:52Z</time>
      </trkpt>
      <trkpt lat="39.519559" lon="2.924278">
        <ele>375.8</ele>
        <time>2016-04-18T15:48:54Z</time>
      </trkpt>
      <trkpt lat="39.519651" lon="2.924312">
        <ele>375.2</ele>
        <time>2016-04-18T15:48:55Z</time>
      </trkpt>
      <trkpt lat="39.519745" lon="2.924346">
        <ele>374.4</ele>
        <time>2016-04-18T15:48:56Z</time>
      </trkpt>
      <trkpt lat="39.519843" lon="2.924379">
        <ele>373.4</ele>
        <time>2016-04-18T15:48:57Z</time>
      </trkpt>
      <trkpt lat="39.519948" lon="2.924408">
        <ele>372.6</ele>
        <time>2016-04-18T15:48:58Z</time>
      </trkpt>
      <trkpt lat="39.520046" lon="2.924434">
        <ele>371.6</ele>
        <time>2016-04-18T15:48:59Z</time>
      </trkpt>
      <trkpt lat="39.520137" lon="2.924448">
        <ele>370.6</ele>
        <time>2016-04-18T15:49:00Z</time>
      </trkpt>
      <trkpt lat="39.520219" lon="2.924446">
        <ele>369.8</ele>
        <time>2016-04-18T15:49:01Z</time>
      </trkpt>
      <trkpt lat="39.520284" lon="2.924403">
        <ele>368.8</ele>
        <time>2016-04-18T15:49:02Z</time>
      </trkpt>
      <trkpt lat="39.520348" lon="2.924203">
        <ele>368.8</ele>
        <time>2016-04-18T15:49:04Z</time>
      </trkpt>
      <trkpt lat="39.520375" lon="2.924071">
        <ele>368.4</ele>
        <time>2016-04-18T15:49:05Z</time>
      </trkpt>
      <trkpt lat="39.520422" lon="2.923929">
        <ele>367.8</ele>
        <time>2016-04-18T15:49:06Z</time>
      </trkpt>
      <trkpt lat="39.520481" lon="2.923797">
        <ele>366.2</ele>
        <time>2016-04-18T15:49:07Z</time>
      </trkpt>
      <trkpt lat="39.520561" lon="2.92368">
        <ele>365.2</ele>
        <time>2016-04-18T15:49:08Z</time>
      </trkpt>
      <trkpt lat="39.52066" lon="2.923585">
        <ele>364</ele>
        <time>2016-04-18T15:49:09Z</time>
      </trkpt>
      <trkpt lat="39.520766" lon="2.923498">
        <ele>363</ele>
        <time>2016-04-18T15:49:10Z</time>
      </trkpt>
      <trkpt lat="39.520865" lon="2.9234">
        <ele>361.8</ele>
        <time>2016-04-18T15:49:11Z</time>
      </trkpt>
      <trkpt lat="39.520944" lon="2.923274">
        <ele>360.6</ele>
        <time>2016-04-18T15:49:12Z</time>
      </trkpt>
      <trkpt lat="39.521012" lon="2.923131">
        <ele>359.4</ele>
        <time>2016-04-18T15:49:13Z</time>
      </trkpt>
      <trkpt lat="39.521083" lon="2.92298">
        <ele>358.2</ele>
        <time>2016-04-18T15:49:14Z</time>
      </trkpt>
      <trkpt lat="39.521155" lon="2.922838">
        <ele>357</ele>
        <time>2016-04-18T15:49:15Z</time>
      </trkpt>
      <trkpt lat="39.521232" lon="2.922694">
        <ele>356.4</ele>
        <time>2016-04-18T15:49:16Z</time>
      </trkpt>
      <trkpt lat="39.521319" lon="2.922557">
        <ele>355.6</ele>
        <time>2016-04-18T15:49:17Z</time>
      </trkpt>
      <trkpt lat="39.521413" lon="2.92243">
        <ele>354.6</ele>
        <time>2016-04-18T15:49:18Z</time>
      </trkpt>
      <trkpt lat="39.521511" lon="2.92231">
        <ele>353.4</ele>
        <time>2016-04-18T15:49:19Z</time>
      </trkpt>
      <trkpt lat="39.521621" lon="2.922212">
        <ele>352.4</ele>
        <time>2016-04-18T15:49:20Z</time>
      </trkpt>
      <trkpt lat="39.521744" lon="2.922138">
        <ele>351.2</ele>
        <time>2016-04-18T15:49:21Z</time>
      </trkpt>
      <trkpt lat="39.521877" lon="2.922068">
        <ele>350</ele>
        <time>2016-04-18T15:49:22Z</time>
      </trkpt>
      <trkpt lat="39.522006" lon="2.922003">
        <ele>349</ele>
        <time>2016-04-18T15:49:23Z</time>
      </trkpt>
      <trkpt lat="39.522136" lon="2.92193">
        <ele>348.2</ele>
        <time>2016-04-18T15:49:24Z</time>
      </trkpt>
      <trkpt lat="39.522259" lon="2.921853">
        <ele>347.2</ele>
        <time>2016-04-18T15:49:25Z</time>
      </trkpt>
      <trkpt lat="39.522368" lon="2.921777">
        <ele>345.8</ele>
        <time>2016-04-18T15:49:26Z</time>
      </trkpt>
      <trkpt lat="39.522474" lon="2.9217">
        <ele>344.6</ele>
        <time>2016-04-18T15:49:27Z</time>
      </trkpt>
      <trkpt lat="39.522576" lon="2.921628">
        <ele>343.4</ele>
        <time>2016-04-18T15:49:28Z</time>
      </trkpt>
      <trkpt lat="39.522677" lon="2.921551">
        <ele>342.2</ele>
        <time>2016-04-18T15:49:29Z</time>
      </trkpt>
      <trkpt lat="39.522766" lon="2.921453">
        <ele>341</ele>
        <time>2016-04-18T15:49:30Z</time>
      </trkpt>
      <trkpt lat="39.522825" lon="2.921336">
        <ele>338.4</ele>
        <time>2016-04-18T15:49:31Z</time>
      </trkpt>
      <trkpt lat="39.522849" lon="2.921055">
        <ele>337.8</ele>
        <time>2016-04-18T15:49:33Z</time>
      </trkpt>
      <trkpt lat="39.52287" lon="2.920924">
        <ele>337.2</ele>
        <time>2016-04-18T15:49:34Z</time>
      </trkpt>
      <trkpt lat="39.522923" lon="2.920809">
        <ele>336.6</ele>
        <time>2016-04-18T15:49:35Z</time>
      </trkpt>
      <trkpt lat="39.523001" lon="2.920723">
        <ele>335.8</ele>
        <time>2016-04-18T15:49:36Z</time>
      </trkpt>
      <trkpt lat="39.523089" lon="2.92067">
        <ele>335.2</ele>
        <time>2016-04-18T15:49:37Z</time>
      </trkpt>
      <trkpt lat="39.523164" lon="2.920631">
        <ele>334.6</ele>
        <time>2016-04-18T15:49:38Z</time>
      </trkpt>
      <trkpt lat="39.523222" lon="2.920578">
        <ele>333.8</ele>
        <time>2016-04-18T15:49:39Z</time>
      </trkpt>
      <trkpt lat="39.523245" lon="2.920508">
        <ele>333.2</ele>
        <time>2016-04-18T15:49:40Z</time>
      </trkpt>
      <trkpt lat="39.523166" lon="2.920409">
        <ele>332.8</ele>
        <time>2016-04-18T15:49:42Z</time>
      </trkpt>
      <trkpt lat="39.523102" lon="2.920427">
        <ele>332.2</ele>
        <time>2016-04-18T15:49:43Z</time>
      </trkpt>
      <trkpt lat="39.523036" lon="2.920467">
        <ele>331.8</ele>
        <time>2016-04-18T15:49:44Z</time>
      </trkpt>
      <trkpt lat="39.522971" lon="2.92052">
        <ele>331.4</ele>
        <time>2016-04-18T15:49:45Z</time>
      </trkpt>
      <trkpt lat="39.522906" lon="2.920575">
        <ele>330.8</ele>
        <time>2016-04-18T15:49:46Z</time>
      </trkpt>
      <trkpt lat="39.522729" lon="2.920717">
        <ele>330.8</ele>
        <time>2016-04-18T15:49:49Z</time>
      </trkpt>
      <trkpt lat="39.522654" lon="2.920622">
        <ele>330.8</ele>
        <time>2016-04-18T15:49:51Z</time>
      </trkpt>
      <trkpt lat="39.522736" lon="2.920465">
        <ele>330.4</ele>
        <time>2016-04-18T15:49:53Z</time>
      </trkpt>
      <trkpt lat="39.522818" lon="2.920414">
        <ele>330</ele>
        <time>2016-04-18T15:49:54Z</time>
      </trkpt>
      <trkpt lat="39.522911" lon="2.920367">
        <ele>329.2</ele>
        <time>2016-04-18T15:49:55Z</time>
      </trkpt>
      <trkpt lat="39.523013" lon="2.920309">
        <ele>327.4</ele>
        <time>2016-04-18T15:49:56Z</time>
      </trkpt>
      <trkpt lat="39.523119" lon="2.920246">
        <ele>326.2</ele>
        <time>2016-04-18T15:49:57Z</time>
      </trkpt>
      <trkpt lat="39.523226" lon="2.920184">
        <ele>325</ele>
        <time>2016-04-18T15:49:58Z</time>
      </trkpt>
      <trkpt lat="39.523344" lon="2.920123">
        <ele>323.6</ele>
        <time>2016-04-18T15:49:59Z</time>
      </trkpt>
      <trkpt lat="39.52346" lon="2.920057">
        <ele>322.4</ele>
        <time>2016-04-18T15:50:00Z</time>
      </trkpt>
      <trkpt lat="39.52358" lon="2.919985">
        <ele>321.2</ele>
        <time>2016-04-18T15:50:01Z</time>
      </trkpt>
      <trkpt lat="39.523701" lon="2.919909">
        <ele>320</ele>
        <time>2016-04-18T15:50:02Z</time>
      </trkpt>
      <trkpt lat="39.523826" lon="2.919832">
        <ele>318.8</ele>
        <time>2016-04-18T15:50:03Z</time>
      </trkpt>
      <trkpt lat="39.523937" lon="2.919733">
        <ele>317.6</ele>
        <time>2016-04-18T15:50:04Z</time>
      </trkpt>
      <trkpt lat="39.524039" lon="2.919615">
        <ele>316.6</ele>
        <time>2016-04-18T15:50:05Z</time>
      </trkpt>
      <trkpt lat="39.524135" lon="2.919492">
        <ele>315.6</ele>
        <time>2016-04-18T15:50:06Z</time>
      </trkpt>
      <trkpt lat="39.524224" lon="2.919362">
        <ele>314.6</ele>
        <time>2016-04-18T15:50:07Z</time>
      </trkpt>
      <trkpt lat="39.524315" lon="2.919215">
        <ele>313.6</ele>
        <time>2016-04-18T15:50:08Z</time>
      </trkpt>
      <trkpt lat="39.524388" lon="2.919062">
        <ele>312.8</ele>
        <time>2016-04-18T15:50:09Z</time>
      </trkpt>
      <trkpt lat="39.524444" lon="2.918897">
        <ele>312</ele>
        <time>2016-04-18T15:50:10Z</time>
      </trkpt>
      <trkpt lat="39.524486" lon="2.918728">
        <ele>311</ele>
        <time>2016-04-18T15:50:11Z</time>
      </trkpt>
      <trkpt lat="39.524523" lon="2.918567">
        <ele>310.2</ele>
        <time>2016-04-18T15:50:12Z</time>
      </trkpt>
      <trkpt lat="39.524557" lon="2.918421">
        <ele>309.2</ele>
        <time>2016-04-18T15:50:13Z</time>
      </trkpt>
      <trkpt lat="39.524597" lon="2.918277">
        <ele>308.2</ele>
        <time>2016-04-18T15:50:14Z</time>
      </trkpt>
      <trkpt lat="39.52464" lon="2.918164">
        <ele>307.2</ele>
        <time>2016-04-18T15:50:15Z</time>
      </trkpt>
      <trkpt lat="39.524698" lon="2.91806">
        <ele>307.2</ele>
        <time>2016-04-18T15:50:16Z</time>
      </trkpt>
      <trkpt lat="39.524834" lon="2.917864">
        <ele>307.2</ele>
        <time>2016-04-18T15:50:18Z</time>
      </trkpt>
      <trkpt lat="39.52494" lon="2.917798">
        <ele>306.8</ele>
        <time>2016-04-18T15:50:19Z</time>
      </trkpt>
      <trkpt lat="39.525049" lon="2.917733">
        <ele>306.4</ele>
        <time>2016-04-18T15:50:20Z</time>
      </trkpt>
      <trkpt lat="39.525154" lon="2.917665">
        <ele>305.2</ele>
        <time>2016-04-18T15:50:21Z</time>
      </trkpt>
      <trkpt lat="39.52525" lon="2.91757">
        <ele>304.6</ele>
        <time>2016-04-18T15:50:22Z</time>
      </trkpt>
      <trkpt lat="39.525324" lon="2.917467">
        <ele>303.6</ele>
        <time>2016-04-18T15:50:23Z</time>
      </trkpt>
      <trkpt lat="39.525395" lon="2.91736">
        <ele>302.8</ele>
        <time>2016-04-18T15:50:24Z</time>
      </trkpt>
      <trkpt lat="39.525451" lon="2.917263">
        <ele>301.8</ele>
        <time>2016-04-18T15:50:25Z</time>
      </trkpt>
      <trkpt lat="39.525494" lon="2.91716">
        <ele>301</ele>
        <time>2016-04-18T15:50:26Z</time>
      </trkpt>
      <trkpt lat="39.525529" lon="2.917042">
        <ele>300.2</ele>
        <time>2016-04-18T15:50:27Z</time>
      </trkpt>
      <trkpt lat="39.525558" lon="2.916922">
        <ele>299.2</ele>
        <time>2016-04-18T15:50:28Z</time>
      </trkpt>
      <trkpt lat="39.525592" lon="2.916815">
        <ele>298.4</ele>
        <time>2016-04-18T15:50:29Z</time>
      </trkpt>
      <trkpt lat="39.525642" lon="2.916726">
        <ele>297.6</ele>
        <time>2016-04-18T15:50:30Z</time>
      </trkpt>
      <trkpt lat="39.525701" lon="2.916671">
        <ele>296.6</ele>
        <time>2016-04-18T15:50:31Z</time>
      </trkpt>
      <trkpt lat="39.525767" lon="2.916631">
        <ele>295.8</ele>
        <time>2016-04-18T15:50:32Z</time>
      </trkpt>
      <trkpt lat="39.525835" lon="2.916589">
        <ele>295</ele>
        <time>2016-04-18T15:50:33Z</time>
      </trkpt>
      <trkpt lat="39.52596" lon="2.916505">
        <ele>295</ele>
        <time>2016-04-18T15:50:35Z</time>
      </trkpt>
      <trkpt lat="39.526085" lon="2.916423">
        <ele>294.6</ele>
        <time>2016-04-18T15:50:37Z</time>
      </trkpt>
      <trkpt lat="39.526151" lon="2.916376">
        <ele>294</ele>
        <time>2016-04-18T15:50:38Z</time>
      </trkpt>
      <trkpt lat="39.526212" lon="2.916309">
        <ele>293.6</ele>
        <time>2016-04-18T15:50:39Z</time>
      </trkpt>
      <trkpt lat="39.526254" lon="2.916223">
        <ele>293.2</ele>
        <time>2016-04-18T15:50:40Z</time>
      </trkpt>
      <trkpt lat="39.526285" lon="2.916133">
        <ele>292.8</ele>
        <time>2016-04-18T15:50:41Z</time>
      </trkpt>
      <trkpt lat="39.52631" lon="2.916052">
        <ele>292.2</ele>
        <time>2016-04-18T15:50:42Z</time>
      </trkpt>
      <trkpt lat="39.52633" lon="2.915982">
        <ele>291.8</ele>
        <time>2016-04-18T15:50:43Z</time>
      </trkpt>
      <trkpt lat="39.52635" lon="2.915921">
        <ele>291.4</ele>
        <time>2016-04-18T15:50:44Z</time>
      </trkpt>
      <trkpt lat="39.526367" lon="2.915864">
        <ele>290.4</ele>
        <time>2016-04-18T15:50:45Z</time>
      </trkpt>
      <trkpt lat="39.526432" lon="2.915712">
        <ele>290</ele>
        <time>2016-04-18T15:50:49Z</time>
      </trkpt>
      <trkpt lat="39.526473" lon="2.915714">
        <ele>288.2</ele>
        <time>2016-04-18T15:51:40Z</time>
      </trkpt>
      <trkpt lat="39.526508" lon="2.915726">
        <ele>288.2</ele>
        <time>2016-04-18T15:51:42Z</time>
      </trkpt>
      <trkpt lat="39.526578" lon="2.91575">
        <ele>288.2</ele>
        <time>2016-04-18T15:51:45Z</time>
      </trkpt>
      <trkpt lat="39.526624" lon="2.915748">
        <ele>287.8</ele>
        <time>2016-04-18T15:51:46Z</time>
      </trkpt>
      <trkpt lat="39.52667" lon="2.915752">
        <ele>287.4</ele>
        <time>2016-04-18T15:51:47Z</time>
      </trkpt>
      <trkpt lat="39.52672" lon="2.91577">
        <ele>287</ele>
        <time>2016-04-18T15:51:48Z</time>
      </trkpt>
      <trkpt lat="39.526762" lon="2.915785">
        <ele>286.4</ele>
        <time>2016-04-18T15:51:49Z</time>
      </trkpt>
      <trkpt lat="39.526812" lon="2.915799">
        <ele>286</ele>
        <time>2016-04-18T15:51:50Z</time>
      </trkpt>
      <trkpt lat="39.526869" lon="2.91582">
        <ele>286</ele>
        <time>2016-04-18T15:51:51Z</time>
      </trkpt>
      <trkpt lat="39.526923" lon="2.915852">
        <ele>285.6</ele>
        <time>2016-04-18T15:51:52Z</time>
      </trkpt>
      <trkpt lat="39.526978" lon="2.915882">
        <ele>285.2</ele>
        <time>2016-04-18T15:51:53Z</time>
      </trkpt>
      <trkpt lat="39.527041" lon="2.915905">
        <ele>284.6</ele>
        <time>2016-04-18T15:51:54Z</time>
      </trkpt>
      <trkpt lat="39.527109" lon="2.915922">
        <ele>284.2</ele>
        <time>2016-04-18T15:51:55Z</time>
      </trkpt>
      <trkpt lat="39.527182" lon="2.915939">
        <ele>283.8</ele>
        <time>2016-04-18T15:51:56Z</time>
      </trkpt>
      <trkpt lat="39.527451" lon="2.916018">
        <ele>283.4</ele>
        <time>2016-04-18T15:52:00Z</time>
      </trkpt>
      <trkpt lat="39.527517" lon="2.916038">
        <ele>282.8</ele>
        <time>2016-04-18T15:52:01Z</time>
      </trkpt>
      <trkpt lat="39.527579" lon="2.916056">
        <ele>282.4</ele>
        <time>2016-04-18T15:52:02Z</time>
      </trkpt>
      <trkpt lat="39.527644" lon="2.916078">
        <ele>282</ele>
        <time>2016-04-18T15:52:03Z</time>
      </trkpt>
      <trkpt lat="39.527719" lon="2.916101">
        <ele>281.6</ele>
        <time>2016-04-18T15:52:04Z</time>
      </trkpt>
      <trkpt lat="39.527862" lon="2.916142">
        <ele>281.6</ele>
        <time>2016-04-18T15:52:06Z</time>
      </trkpt>
      <trkpt lat="39.52793" lon="2.916161">
        <ele>281.6</ele>
        <time>2016-04-18T15:52:07Z</time>
      </trkpt>
      <trkpt lat="39.528371" lon="2.916321">
        <ele>281.6</ele>
        <time>2016-04-18T15:52:14Z</time>
      </trkpt>
      <trkpt lat="39.528547" lon="2.916434">
        <ele>281.6</ele>
        <time>2016-04-18T15:52:17Z</time>
      </trkpt>
      <trkpt lat="39.528676" lon="2.916539">
        <ele>281.6</ele>
        <time>2016-04-18T15:52:19Z</time>
      </trkpt>
      <trkpt lat="39.528867" lon="2.916708">
        <ele>281</ele>
        <time>2016-04-18T15:52:22Z</time>
      </trkpt>
      <trkpt lat="39.528932" lon="2.916765">
        <ele>280.6</ele>
        <time>2016-04-18T15:52:23Z</time>
      </trkpt>
      <trkpt lat="39.528995" lon="2.916827">
        <ele>279.6</ele>
        <time>2016-04-18T15:52:24Z</time>
      </trkpt>
      <trkpt lat="39.529058" lon="2.916892">
        <ele>279</ele>
        <time>2016-04-18T15:52:25Z</time>
      </trkpt>
      <trkpt lat="39.529121" lon="2.916957">
        <ele>278.6</ele>
        <time>2016-04-18T15:52:26Z</time>
      </trkpt>
      <trkpt lat="39.529188" lon="2.917027">
        <ele>278.2</ele>
        <time>2016-04-18T15:52:27Z</time>
      </trkpt>
      <trkpt lat="39.529248" lon="2.917096">
        <ele>277.8</ele>
        <time>2016-04-18T15:52:28Z</time>
      </trkpt>
      <trkpt lat="39.529311" lon="2.917162">
        <ele>277.2</ele>
        <time>2016-04-18T15:52:29Z</time>
      </trkpt>
      <trkpt lat="39.529375" lon="2.917228">
        <ele>276.8</ele>
        <time>2016-04-18T15:52:30Z</time>
      </trkpt>
      <trkpt lat="39.529499" lon="2.917359">
        <ele>276.4</ele>
        <time>2016-04-18T15:52:32Z</time>
      </trkpt>
      <trkpt lat="39.529564" lon="2.917428">
        <ele>276</ele>
        <time>2016-04-18T15:52:33Z</time>
      </trkpt>
      <trkpt lat="39.52963" lon="2.9175">
        <ele>275.4</ele>
        <time>2016-04-18T15:52:34Z</time>
      </trkpt>
      <trkpt lat="39.529696" lon="2.917568">
        <ele>275</ele>
        <time>2016-04-18T15:52:35Z</time>
      </trkpt>
      <trkpt lat="39.529759" lon="2.91764">
        <ele>274.6</ele>
        <time>2016-04-18T15:52:36Z</time>
      </trkpt>
      <trkpt lat="39.529818" lon="2.917713">
        <ele>274.2</ele>
        <time>2016-04-18T15:52:37Z</time>
      </trkpt>
      <trkpt lat="39.529878" lon="2.917785">
        <ele>273.6</ele>
        <time>2016-04-18T15:52:38Z</time>
      </trkpt>
      <trkpt lat="39.52994" lon="2.917854">
        <ele>273.2</ele>
        <time>2016-04-18T15:52:39Z</time>
      </trkpt>
      <trkpt lat="39.529998" lon="2.917922">
        <ele>272.8</ele>
        <time>2016-04-18T15:52:40Z</time>
      </trkpt>
      <trkpt lat="39.530057" lon="2.91799">
        <ele>272.4</ele>
        <time>2016-04-18T15:52:41Z</time>
      </trkpt>
      <trkpt lat="39.530393" lon="2.918379">
        <ele>272.4</ele>
        <time>2016-04-18T15:52:47Z</time>
      </trkpt>
      <trkpt lat="39.530444" lon="2.918438">
        <ele>272.4</ele>
        <time>2016-04-18T15:52:48Z</time>
      </trkpt>
      <trkpt lat="39.530542" lon="2.91855">
        <ele>272.4</ele>
        <time>2016-04-18T15:52:50Z</time>
      </trkpt>
      <trkpt lat="39.53059" lon="2.918604">
        <ele>272.8</ele>
        <time>2016-04-18T15:52:51Z</time>
      </trkpt>
      <trkpt lat="39.530635" lon="2.918656">
        <ele>273.2</ele>
        <time>2016-04-18T15:52:52Z</time>
      </trkpt>
      <trkpt lat="39.530678" lon="2.918704">
        <ele>273.8</ele>
        <time>2016-04-18T15:52:53Z</time>
      </trkpt>
      <trkpt lat="39.530719" lon="2.91875">
        <ele>274.2</ele>
        <time>2016-04-18T15:52:54Z</time>
      </trkpt>
      <trkpt lat="39.530755" lon="2.91879">
        <ele>274.6</ele>
        <time>2016-04-18T15:52:55Z</time>
      </trkpt>
      <trkpt lat="39.530787" lon="2.91883">
        <ele>275</ele>
        <time>2016-04-18T15:52:56Z</time>
      </trkpt>
      <trkpt lat="39.530819" lon="2.918868">
        <ele>275.6</ele>
        <time>2016-04-18T15:52:57Z</time>
      </trkpt>
      <trkpt lat="39.530846" lon="2.918901">
        <ele>276</ele>
        <time>2016-04-18T15:52:58Z</time>
      </trkpt>
      <trkpt lat="39.530874" lon="2.918931">
        <ele>276.4</ele>
        <time>2016-04-18T15:52:59Z</time>
      </trkpt>
      <trkpt lat="39.530901" lon="2.918964">
        <ele>276.8</ele>
        <time>2016-04-18T15:53:00Z</time>
      </trkpt>
      <trkpt lat="39.530925" lon="2.918998">
        <ele>277.2</ele>
        <time>2016-04-18T15:53:01Z</time>
      </trkpt>
      <trkpt lat="39.530951" lon="2.919035">
        <ele>277.6</ele>
        <time>2016-04-18T15:53:02Z</time>
      </trkpt>
      <trkpt lat="39.530976" lon="2.919072">
        <ele>278</ele>
        <time>2016-04-18T15:53:03Z</time>
      </trkpt>
      <trkpt lat="39.530999" lon="2.919115">
        <ele>278.4</ele>
        <time>2016-04-18T15:53:04Z</time>
      </trkpt>
      <trkpt lat="39.53102" lon="2.919154">
        <ele>279</ele>
        <time>2016-04-18T15:53:05Z</time>
      </trkpt>
      <trkpt lat="39.531041" lon="2.919194">
        <ele>279</ele>
        <time>2016-04-18T15:53:06Z</time>
      </trkpt>
      <trkpt lat="39.531105" lon="2.919318">
        <ele>279.4</ele>
        <time>2016-04-18T15:53:09Z</time>
      </trkpt>
      <trkpt lat="39.53113" lon="2.919363">
        <ele>279.8</ele>
        <time>2016-04-18T15:53:10Z</time>
      </trkpt>
      <trkpt lat="39.531156" lon="2.919408">
        <ele>280.2</ele>
        <time>2016-04-18T15:53:11Z</time>
      </trkpt>
      <trkpt lat="39.531183" lon="2.919459">
        <ele>280.6</ele>
        <time>2016-04-18T15:53:12Z</time>
      </trkpt>
      <trkpt lat="39.531207" lon="2.919509">
        <ele>281</ele>
        <time>2016-04-18T15:53:13Z</time>
      </trkpt>
      <trkpt lat="39.531371" lon="2.919834">
        <ele>281</ele>
        <time>2016-04-18T15:53:19Z</time>
      </trkpt>
      <trkpt lat="39.531398" lon="2.919897">
        <ele>281</ele>
        <time>2016-04-18T15:53:20Z</time>
      </trkpt>
      <trkpt lat="39.531445" lon="2.920018">
        <ele>281</ele>
        <time>2016-04-18T15:53:22Z</time>
      </trkpt>
      <trkpt lat="39.531524" lon="2.920261">
        <ele>281</ele>
        <time>2016-04-18T15:53:26Z</time>
      </trkpt>
      <trkpt lat="39.531673" lon="2.920725">
        <ele>281</ele>
        <time>2016-04-18T15:53:33Z</time>
      </trkpt>
      <trkpt lat="39.531944" lon="2.921304">
        <ele>281</ele>
        <time>2016-04-18T15:53:41Z</time>
      </trkpt>
      <trkpt lat="39.532242" lon="2.92194">
        <ele>281</ele>
        <time>2016-04-18T15:53:50Z</time>
      </trkpt>
      <trkpt lat="39.532436" lon="2.922336">
        <ele>281</ele>
        <time>2016-04-18T15:53:56Z</time>
      </trkpt>
      <trkpt lat="39.532611" lon="2.922661">
        <ele>281.6</ele>
        <time>2016-04-18T15:54:02Z</time>
      </trkpt>
      <trkpt lat="39.53264" lon="2.922709">
        <ele>282.6</ele>
        <time>2016-04-18T15:54:03Z</time>
      </trkpt>
      <trkpt lat="39.532676" lon="2.922752">
        <ele>283.2</ele>
        <time>2016-04-18T15:54:04Z</time>
      </trkpt>
      <trkpt lat="39.532712" lon="2.922794">
        <ele>283.8</ele>
        <time>2016-04-18T15:54:05Z</time>
      </trkpt>
      <trkpt lat="39.532866" lon="2.922973">
        <ele>283.8</ele>
        <time>2016-04-18T15:54:09Z</time>
      </trkpt>
      <trkpt lat="39.532983" lon="2.92312">
        <ele>283.8</ele>
        <time>2016-04-18T15:54:12Z</time>
      </trkpt>
      <trkpt lat="39.533107" lon="2.923287">
        <ele>283.8</ele>
        <time>2016-04-18T15:54:15Z</time>
      </trkpt>
      <trkpt lat="39.533414" lon="2.923666">
        <ele>283.8</ele>
        <time>2016-04-18T15:54:21Z</time>
      </trkpt>
      <trkpt lat="39.533469" lon="2.923737">
        <ele>283.2</ele>
        <time>2016-04-18T15:54:22Z</time>
      </trkpt>
      <trkpt lat="39.533525" lon="2.923811">
        <ele>282.8</ele>
        <time>2016-04-18T15:54:23Z</time>
      </trkpt>
      <trkpt lat="39.53358" lon="2.923886">
        <ele>282.4</ele>
        <time>2016-04-18T15:54:24Z</time>
      </trkpt>
      <trkpt lat="39.533634" lon="2.923964">
        <ele>282</ele>
        <time>2016-04-18T15:54:25Z</time>
      </trkpt>
      <trkpt lat="39.53369" lon="2.924046">
        <ele>281.6</ele>
        <time>2016-04-18T15:54:26Z</time>
      </trkpt>
      <trkpt lat="39.533744" lon="2.92413">
        <ele>281.2</ele>
        <time>2016-04-18T15:54:27Z</time>
      </trkpt>
      <trkpt lat="39.533802" lon="2.924214">
        <ele>280.2</ele>
        <time>2016-04-18T15:54:28Z</time>
      </trkpt>
      <trkpt lat="39.533861" lon="2.924305">
        <ele>279.4</ele>
        <time>2016-04-18T15:54:29Z</time>
      </trkpt>
      <trkpt lat="39.533919" lon="2.924394">
        <ele>278.6</ele>
        <time>2016-04-18T15:54:30Z</time>
      </trkpt>
      <trkpt lat="39.533979" lon="2.924484">
        <ele>277.6</ele>
        <time>2016-04-18T15:54:31Z</time>
      </trkpt>
      <trkpt lat="39.534042" lon="2.92458">
        <ele>276.8</ele>
        <time>2016-04-18T15:54:32Z</time>
      </trkpt>
      <trkpt lat="39.534106" lon="2.924675">
        <ele>276</ele>
        <time>2016-04-18T15:54:33Z</time>
      </trkpt>
      <trkpt lat="39.534172" lon="2.924774">
        <ele>275.2</ele>
        <time>2016-04-18T15:54:34Z</time>
      </trkpt>
      <trkpt lat="39.534241" lon="2.924878">
        <ele>274.4</ele>
        <time>2016-04-18T15:54:35Z</time>
      </trkpt>
      <trkpt lat="39.534315" lon="2.924978">
        <ele>273.4</ele>
        <time>2016-04-18T15:54:36Z</time>
      </trkpt>
      <trkpt lat="39.534402" lon="2.925077">
        <ele>272.6</ele>
        <time>2016-04-18T15:54:37Z</time>
      </trkpt>
      <trkpt lat="39.534483" lon="2.925173">
        <ele>271.8</ele>
        <time>2016-04-18T15:54:38Z</time>
      </trkpt>
      <trkpt lat="39.53456" lon="2.925267">
        <ele>271.2</ele>
        <time>2016-04-18T15:54:39Z</time>
      </trkpt>
      <trkpt lat="39.534632" lon="2.92536">
        <ele>270.4</ele>
        <time>2016-04-18T15:54:40Z</time>
      </trkpt>
      <trkpt lat="39.53469" lon="2.925464">
        <ele>269.8</ele>
        <time>2016-04-18T15:54:41Z</time>
      </trkpt>
      <trkpt lat="39.534729" lon="2.925587">
        <ele>269.2</ele>
        <time>2016-04-18T15:54:42Z</time>
      </trkpt>
      <trkpt lat="39.534751" lon="2.925722">
        <ele>268.8</ele>
        <time>2016-04-18T15:54:43Z</time>
      </trkpt>
      <trkpt lat="39.534773" lon="2.925856">
        <ele>268.2</ele>
        <time>2016-04-18T15:54:44Z</time>
      </trkpt>
      <trkpt lat="39.534804" lon="2.925993">
        <ele>267.6</ele>
        <time>2016-04-18T15:54:45Z</time>
      </trkpt>
      <trkpt lat="39.534851" lon="2.926118">
        <ele>266.8</ele>
        <time>2016-04-18T15:54:46Z</time>
      </trkpt>
      <trkpt lat="39.534914" lon="2.926236">
        <ele>266.2</ele>
        <time>2016-04-18T15:54:47Z</time>
      </trkpt>
      <trkpt lat="39.534987" lon="2.926343">
        <ele>265.4</ele>
        <time>2016-04-18T15:54:48Z</time>
      </trkpt>
      <trkpt lat="39.535072" lon="2.926439">
        <ele>264.8</ele>
        <time>2016-04-18T15:54:49Z</time>
      </trkpt>
      <trkpt lat="39.535158" lon="2.926529">
        <ele>264</ele>
        <time>2016-04-18T15:54:50Z</time>
      </trkpt>
      <trkpt lat="39.535241" lon="2.926622">
        <ele>263.4</ele>
        <time>2016-04-18T15:54:51Z</time>
      </trkpt>
      <trkpt lat="39.535323" lon="2.926721">
        <ele>261.8</ele>
        <time>2016-04-18T15:54:52Z</time>
      </trkpt>
      <trkpt lat="39.535386" lon="2.926832">
        <ele>261</ele>
        <time>2016-04-18T15:54:53Z</time>
      </trkpt>
      <trkpt lat="39.535437" lon="2.92695">
        <ele>260</ele>
        <time>2016-04-18T15:54:54Z</time>
      </trkpt>
      <trkpt lat="39.535486" lon="2.927075">
        <ele>259.2</ele>
        <time>2016-04-18T15:54:55Z</time>
      </trkpt>
      <trkpt lat="39.535525" lon="2.927205">
        <ele>258.4</ele>
        <time>2016-04-18T15:54:56Z</time>
      </trkpt>
      <trkpt lat="39.535559" lon="2.927334">
        <ele>258</ele>
        <time>2016-04-18T15:54:57Z</time>
      </trkpt>
      <trkpt lat="39.535588" lon="2.927465">
        <ele>257.4</ele>
        <time>2016-04-18T15:54:58Z</time>
      </trkpt>
      <trkpt lat="39.535621" lon="2.927602">
        <ele>257</ele>
        <time>2016-04-18T15:54:59Z</time>
      </trkpt>
      <trkpt lat="39.535651" lon="2.927729">
        <ele>256.6</ele>
        <time>2016-04-18T15:55:00Z</time>
      </trkpt>
      <trkpt lat="39.535681" lon="2.927857">
        <ele>256.2</ele>
        <time>2016-04-18T15:55:01Z</time>
      </trkpt>
      <trkpt lat="39.535712" lon="2.927987">
        <ele>256.2</ele>
        <time>2016-04-18T15:55:02Z</time>
      </trkpt>
      <trkpt lat="39.535865" lon="2.928634">
        <ele>256.2</ele>
        <time>2016-04-18T15:55:07Z</time>
      </trkpt>
      <trkpt lat="39.535891" lon="2.928759">
        <ele>255.8</ele>
        <time>2016-04-18T15:55:08Z</time>
      </trkpt>
      <trkpt lat="39.535918" lon="2.92888">
        <ele>255.2</ele>
        <time>2016-04-18T15:55:09Z</time>
      </trkpt>
      <trkpt lat="39.535944" lon="2.928997">
        <ele>254.8</ele>
        <time>2016-04-18T15:55:10Z</time>
      </trkpt>
      <trkpt lat="39.535969" lon="2.929111">
        <ele>254.4</ele>
        <time>2016-04-18T15:55:11Z</time>
      </trkpt>
      <trkpt lat="39.535994" lon="2.929223">
        <ele>253.8</ele>
        <time>2016-04-18T15:55:12Z</time>
      </trkpt>
      <trkpt lat="39.536016" lon="2.929333">
        <ele>253.8</ele>
        <time>2016-04-18T15:55:13Z</time>
      </trkpt>
      <trkpt lat="39.536036" lon="2.929439">
        <ele>253.8</ele>
        <time>2016-04-18T15:55:14Z</time>
      </trkpt>
      <trkpt lat="39.536052" lon="2.929549">
        <ele>253.8</ele>
        <time>2016-04-18T15:55:15Z</time>
      </trkpt>
      <trkpt lat="39.536081" lon="2.929761">
        <ele>253.8</ele>
        <time>2016-04-18T15:55:17Z</time>
      </trkpt>
      <trkpt lat="39.536108" lon="2.929965">
        <ele>253.8</ele>
        <time>2016-04-18T15:55:19Z</time>
      </trkpt>
      <trkpt lat="39.536141" lon="2.93016">
        <ele>253.8</ele>
        <time>2016-04-18T15:55:21Z</time>
      </trkpt>
      <trkpt lat="39.536155" lon="2.930252">
        <ele>253.8</ele>
        <time>2016-04-18T15:55:22Z</time>
      </trkpt>
      <trkpt lat="39.536184" lon="2.930436">
        <ele>253.8</ele>
        <time>2016-04-18T15:55:24Z</time>
      </trkpt>
      <trkpt lat="39.536217" lon="2.930607">
        <ele>253.8</ele>
        <time>2016-04-18T15:55:26Z</time>
      </trkpt>
      <trkpt lat="39.536249" lon="2.930781">
        <ele>253.8</ele>
        <time>2016-04-18T15:55:28Z</time>
      </trkpt>
      <trkpt lat="39.536297" lon="2.931032">
        <ele>253.8</ele>
        <time>2016-04-18T15:55:31Z</time>
      </trkpt>
      <trkpt lat="39.536328" lon="2.931197">
        <ele>253.8</ele>
        <time>2016-04-18T15:55:33Z</time>
      </trkpt>
      <trkpt lat="39.536386" lon="2.931439">
        <ele>254.4</ele>
        <time>2016-04-18T15:55:36Z</time>
      </trkpt>
      <trkpt lat="39.536405" lon="2.931523">
        <ele>254.8</ele>
        <time>2016-04-18T15:55:37Z</time>
      </trkpt>
      <trkpt lat="39.536424" lon="2.931608">
        <ele>255.2</ele>
        <time>2016-04-18T15:55:38Z</time>
      </trkpt>
      <trkpt lat="39.536441" lon="2.931688">
        <ele>255.8</ele>
        <time>2016-04-18T15:55:39Z</time>
      </trkpt>
      <trkpt lat="39.536458" lon="2.931765">
        <ele>256.2</ele>
        <time>2016-04-18T15:55:40Z</time>
      </trkpt>
      <trkpt lat="39.536543" lon="2.93214">
        <ele>256.2</ele>
        <time>2016-04-18T15:55:45Z</time>
      </trkpt>
      <trkpt lat="39.536603" lon="2.932375">
        <ele>256.2</ele>
        <time>2016-04-18T15:55:48Z</time>
      </trkpt>
      <trkpt lat="39.536655" lon="2.93253">
        <ele>256.2</ele>
        <time>2016-04-18T15:55:50Z</time>
      </trkpt>
      <trkpt lat="39.5368" lon="2.93276">
        <ele>256.2</ele>
        <time>2016-04-18T15:55:53Z</time>
      </trkpt>
      <trkpt lat="39.53686" lon="2.932833">
        <ele>256.2</ele>
        <time>2016-04-18T15:55:54Z</time>
      </trkpt>
      <trkpt lat="39.537078" lon="2.933166">
        <ele>256.2</ele>
        <time>2016-04-18T15:55:58Z</time>
      </trkpt>
      <trkpt lat="39.537129" lon="2.933252">
        <ele>255.8</ele>
        <time>2016-04-18T15:55:59Z</time>
      </trkpt>
      <trkpt lat="39.537179" lon="2.933343">
        <ele>255.2</ele>
        <time>2016-04-18T15:56:00Z</time>
      </trkpt>
      <trkpt lat="39.537229" lon="2.933442">
        <ele>254.8</ele>
        <time>2016-04-18T15:56:01Z</time>
      </trkpt>
      <trkpt lat="39.537276" lon="2.933537">
        <ele>254.4</ele>
        <time>2016-04-18T15:56:02Z</time>
      </trkpt>
      <trkpt lat="39.537325" lon="2.933631">
        <ele>253.8</ele>
        <time>2016-04-18T15:56:03Z</time>
      </trkpt>
      <trkpt lat="39.537372" lon="2.933726">
        <ele>253.4</ele>
        <time>2016-04-18T15:56:04Z</time>
      </trkpt>
      <trkpt lat="39.537419" lon="2.93382">
        <ele>252.8</ele>
        <time>2016-04-18T15:56:05Z</time>
      </trkpt>
      <trkpt lat="39.537468" lon="2.933915">
        <ele>252.4</ele>
        <time>2016-04-18T15:56:06Z</time>
      </trkpt>
      <trkpt lat="39.537515" lon="2.934012">
        <ele>251.8</ele>
        <time>2016-04-18T15:56:07Z</time>
      </trkpt>
      <trkpt lat="39.53775" lon="2.934504">
        <ele>251.4</ele>
        <time>2016-04-18T15:56:12Z</time>
      </trkpt>
      <trkpt lat="39.537796" lon="2.934604">
        <ele>251</ele>
        <time>2016-04-18T15:56:13Z</time>
      </trkpt>
      <trkpt lat="39.537845" lon="2.934704">
        <ele>250.6</ele>
        <time>2016-04-18T15:56:14Z</time>
      </trkpt>
      <trkpt lat="39.53789" lon="2.934801">
        <ele>250</ele>
        <time>2016-04-18T15:56:15Z</time>
      </trkpt>
      <trkpt lat="39.537938" lon="2.934894">
        <ele>249.6</ele>
        <time>2016-04-18T15:56:16Z</time>
      </trkpt>
      <trkpt lat="39.538036" lon="2.935084">
        <ele>249.2</ele>
        <time>2016-04-18T15:56:18Z</time>
      </trkpt>
      <trkpt lat="39.53808" lon="2.935177">
        <ele>248.8</ele>
        <time>2016-04-18T15:56:19Z</time>
      </trkpt>
      <trkpt lat="39.538125" lon="2.93527">
        <ele>248.4</ele>
        <time>2016-04-18T15:56:20Z</time>
      </trkpt>
      <trkpt lat="39.53817" lon="2.935369">
        <ele>248</ele>
        <time>2016-04-18T15:56:21Z</time>
      </trkpt>
      <trkpt lat="39.53821" lon="2.93547">
        <ele>247.6</ele>
        <time>2016-04-18T15:56:22Z</time>
      </trkpt>
      <trkpt lat="39.53831" lon="2.93581">
        <ele>247.6</ele>
        <time>2016-04-18T15:56:25Z</time>
      </trkpt>
      <trkpt lat="39.5384" lon="2.936145">
        <ele>247.2</ele>
        <time>2016-04-18T15:56:28Z</time>
      </trkpt>
      <trkpt lat="39.538431" lon="2.936253">
        <ele>246.6</ele>
        <time>2016-04-18T15:56:29Z</time>
      </trkpt>
      <trkpt lat="39.538462" lon="2.936362">
        <ele>246.2</ele>
        <time>2016-04-18T15:56:30Z</time>
      </trkpt>
      <trkpt lat="39.538491" lon="2.936471">
        <ele>245.8</ele>
        <time>2016-04-18T15:56:31Z</time>
      </trkpt>
      <trkpt lat="39.538518" lon="2.936587">
        <ele>245.4</ele>
        <time>2016-04-18T15:56:32Z</time>
      </trkpt>
      <trkpt lat="39.538562" lon="2.936815">
        <ele>245</ele>
        <time>2016-04-18T15:56:34Z</time>
      </trkpt>
      <trkpt lat="39.53858" lon="2.93693">
        <ele>244.4</ele>
        <time>2016-04-18T15:56:35Z</time>
      </trkpt>
      <trkpt lat="39.538594" lon="2.937046">
        <ele>244</ele>
        <time>2016-04-18T15:56:36Z</time>
      </trkpt>
      <trkpt lat="39.538607" lon="2.937165">
        <ele>243.6</ele>
        <time>2016-04-18T15:56:37Z</time>
      </trkpt>
      <trkpt lat="39.538619" lon="2.937282">
        <ele>243.2</ele>
        <time>2016-04-18T15:56:38Z</time>
      </trkpt>
      <trkpt lat="39.538698" lon="2.93777">
        <ele>243.2</ele>
        <time>2016-04-18T15:56:42Z</time>
      </trkpt>
      <trkpt lat="39.538719" lon="2.937897">
        <ele>242.6</ele>
        <time>2016-04-18T15:56:43Z</time>
      </trkpt>
      <trkpt lat="39.53874" lon="2.938028">
        <ele>242</ele>
        <time>2016-04-18T15:56:44Z</time>
      </trkpt>
      <trkpt lat="39.53876" lon="2.938163">
        <ele>241.4</ele>
        <time>2016-04-18T15:56:45Z</time>
      </trkpt>
      <trkpt lat="39.53878" lon="2.938301">
        <ele>240.8</ele>
        <time>2016-04-18T15:56:46Z</time>
      </trkpt>
      <trkpt lat="39.538797" lon="2.938447">
        <ele>240</ele>
        <time>2016-04-18T15:56:47Z</time>
      </trkpt>
      <trkpt lat="39.538812" lon="2.938593">
        <ele>239.4</ele>
        <time>2016-04-18T15:56:48Z</time>
      </trkpt>
      <trkpt lat="39.538822" lon="2.938734">
        <ele>238.6</ele>
        <time>2016-04-18T15:56:49Z</time>
      </trkpt>
      <trkpt lat="39.538828" lon="2.938878">
        <ele>237.8</ele>
        <time>2016-04-18T15:56:50Z</time>
      </trkpt>
      <trkpt lat="39.538836" lon="2.939021">
        <ele>237</ele>
        <time>2016-04-18T15:56:51Z</time>
      </trkpt>
      <trkpt lat="39.538841" lon="2.939164">
        <ele>236.2</ele>
        <time>2016-04-18T15:56:52Z</time>
      </trkpt>
      <trkpt lat="39.538848" lon="2.939307">
        <ele>235.6</ele>
        <time>2016-04-18T15:56:53Z</time>
      </trkpt>
      <trkpt lat="39.538852" lon="2.939448">
        <ele>234.8</ele>
        <time>2016-04-18T15:56:54Z</time>
      </trkpt>
      <trkpt lat="39.538859" lon="2.939595">
        <ele>234</ele>
        <time>2016-04-18T15:56:55Z</time>
      </trkpt>
      <trkpt lat="39.53887" lon="2.939738">
        <ele>233.4</ele>
        <time>2016-04-18T15:56:56Z</time>
      </trkpt>
      <trkpt lat="39.538884" lon="2.939879">
        <ele>231.8</ele>
        <time>2016-04-18T15:56:57Z</time>
      </trkpt>
      <trkpt lat="39.538899" lon="2.940019">
        <ele>231</ele>
        <time>2016-04-18T15:56:58Z</time>
      </trkpt>
      <trkpt lat="39.538915" lon="2.940159">
        <ele>230.2</ele>
        <time>2016-04-18T15:56:59Z</time>
      </trkpt>
      <trkpt lat="39.538935" lon="2.9403">
        <ele>229.4</ele>
        <time>2016-04-18T15:57:00Z</time>
      </trkpt>
      <trkpt lat="39.538966" lon="2.94044">
        <ele>228.8</ele>
        <time>2016-04-18T15:57:01Z</time>
      </trkpt>
      <trkpt lat="39.538992" lon="2.940579">
        <ele>228.8</ele>
        <time>2016-04-18T15:57:02Z</time>
      </trkpt>
      <trkpt lat="39.539022" lon="2.940723">
        <ele>228.2</ele>
        <time>2016-04-18T15:57:03Z</time>
      </trkpt>
      <trkpt lat="39.539056" lon="2.940857">
        <ele>227.8</ele>
        <time>2016-04-18T15:57:04Z</time>
      </trkpt>
      <trkpt lat="39.539094" lon="2.940988">
        <ele>227.4</ele>
        <time>2016-04-18T15:57:05Z</time>
      </trkpt>
      <trkpt lat="39.539139" lon="2.941113">
        <ele>227</ele>
        <time>2016-04-18T15:57:06Z</time>
      </trkpt>
      <trkpt lat="39.539189" lon="2.941233">
        <ele>226.6</ele>
        <time>2016-04-18T15:57:07Z</time>
      </trkpt>
      <trkpt lat="39.539446" lon="2.94181">
        <ele>226.6</ele>
        <time>2016-04-18T15:57:12Z</time>
      </trkpt>
      <trkpt lat="39.539497" lon="2.941922">
        <ele>226.6</ele>
        <time>2016-04-18T15:57:13Z</time>
      </trkpt>
      <trkpt lat="39.539547" lon="2.942033">
        <ele>226.2</ele>
        <time>2016-04-18T15:57:14Z</time>
      </trkpt>
      <trkpt lat="39.539597" lon="2.942143">
        <ele>225.6</ele>
        <time>2016-04-18T15:57:15Z</time>
      </trkpt>
      <trkpt lat="39.539648" lon="2.942254">
        <ele>225.2</ele>
        <time>2016-04-18T15:57:16Z</time>
      </trkpt>
      <trkpt lat="39.539696" lon="2.942364">
        <ele>224.8</ele>
        <time>2016-04-18T15:57:17Z</time>
      </trkpt>
      <trkpt lat="39.539745" lon="2.942478">
        <ele>224.4</ele>
        <time>2016-04-18T15:57:18Z</time>
      </trkpt>
      <trkpt lat="39.539919" lon="2.942877">
        <ele>224.8</ele>
        <time>2016-04-18T15:57:22Z</time>
      </trkpt>
      <trkpt lat="39.539962" lon="2.942967">
        <ele>225.2</ele>
        <time>2016-04-18T15:57:23Z</time>
      </trkpt>
      <trkpt lat="39.540005" lon="2.943051">
        <ele>225.6</ele>
        <time>2016-04-18T15:57:24Z</time>
      </trkpt>
      <trkpt lat="39.540053" lon="2.943134">
        <ele>226</ele>
        <time>2016-04-18T15:57:25Z</time>
      </trkpt>
      <trkpt lat="39.5401" lon="2.943209">
        <ele>226.6</ele>
        <time>2016-04-18T15:57:26Z</time>
      </trkpt>
      <trkpt lat="39.540145" lon="2.943282">
        <ele>226.6</ele>
        <time>2016-04-18T15:57:27Z</time>
      </trkpt>
      <trkpt lat="39.540279" lon="2.943485">
        <ele>226.6</ele>
        <time>2016-04-18T15:57:30Z</time>
      </trkpt>
      <trkpt lat="39.540365" lon="2.94361">
        <ele>226.6</ele>
        <time>2016-04-18T15:57:32Z</time>
      </trkpt>
      <trkpt lat="39.540412" lon="2.943675">
        <ele>227</ele>
        <time>2016-04-18T15:57:33Z</time>
      </trkpt>
      <trkpt lat="39.540457" lon="2.943738">
        <ele>227.4</ele>
        <time>2016-04-18T15:57:34Z</time>
      </trkpt>
      <trkpt lat="39.540503" lon="2.943803">
        <ele>227.8</ele>
        <time>2016-04-18T15:57:35Z</time>
      </trkpt>
      <trkpt lat="39.540551" lon="2.943875">
        <ele>228.2</ele>
        <time>2016-04-18T15:57:36Z</time>
      </trkpt>
      <trkpt lat="39.540599" lon="2.94394">
        <ele>228.8</ele>
        <time>2016-04-18T15:57:37Z</time>
      </trkpt>
      <trkpt lat="39.54065" lon="2.944013">
        <ele>228.8</ele>
        <time>2016-04-18T15:57:38Z</time>
      </trkpt>
      <trkpt lat="39.540812" lon="2.944247">
        <ele>228.2</ele>
        <time>2016-04-18T15:57:41Z</time>
      </trkpt>
      <trkpt lat="39.540869" lon="2.944324">
        <ele>227.8</ele>
        <time>2016-04-18T15:57:42Z</time>
      </trkpt>
      <trkpt lat="39.54093" lon="2.944404">
        <ele>227.4</ele>
        <time>2016-04-18T15:57:43Z</time>
      </trkpt>
      <trkpt lat="39.540991" lon="2.944486">
        <ele>227</ele>
        <time>2016-04-18T15:57:44Z</time>
      </trkpt>
      <trkpt lat="39.541051" lon="2.944571">
        <ele>226.4</ele>
        <time>2016-04-18T15:57:45Z</time>
      </trkpt>
      <trkpt lat="39.541116" lon="2.944656">
        <ele>225.4</ele>
        <time>2016-04-18T15:57:46Z</time>
      </trkpt>
      <trkpt lat="39.541183" lon="2.944742">
        <ele>225</ele>
        <time>2016-04-18T15:57:47Z</time>
      </trkpt>
      <trkpt lat="39.54125" lon="2.944828">
        <ele>224.4</ele>
        <time>2016-04-18T15:57:48Z</time>
      </trkpt>
      <trkpt lat="39.541381" lon="2.944998">
        <ele>224</ele>
        <time>2016-04-18T15:57:50Z</time>
      </trkpt>
      <trkpt lat="39.541449" lon="2.945078">
        <ele>223.6</ele>
        <time>2016-04-18T15:57:51Z</time>
      </trkpt>
      <trkpt lat="39.541516" lon="2.945157">
        <ele>223.2</ele>
        <time>2016-04-18T15:57:52Z</time>
      </trkpt>
      <trkpt lat="39.541583" lon="2.945238">
        <ele>222.6</ele>
        <time>2016-04-18T15:57:53Z</time>
      </trkpt>
      <trkpt lat="39.541649" lon="2.945318">
        <ele>222.2</ele>
        <time>2016-04-18T15:57:54Z</time>
      </trkpt>
      <trkpt lat="39.541787" lon="2.945472">
        <ele>221.8</ele>
        <time>2016-04-18T15:57:56Z</time>
      </trkpt>
      <trkpt lat="39.54186" lon="2.945554">
        <ele>221.4</ele>
        <time>2016-04-18T15:57:57Z</time>
      </trkpt>
      <trkpt lat="39.541928" lon="2.94563">
        <ele>220.8</ele>
        <time>2016-04-18T15:57:58Z</time>
      </trkpt>
      <trkpt lat="39.541999" lon="2.945707">
        <ele>220.4</ele>
        <time>2016-04-18T15:57:59Z</time>
      </trkpt>
      <trkpt lat="39.542067" lon="2.945784">
        <ele>220</ele>
        <time>2016-04-18T15:58:00Z</time>
      </trkpt>
      <trkpt lat="39.542134" lon="2.945862">
        <ele>219.6</ele>
        <time>2016-04-18T15:58:01Z</time>
      </trkpt>
      <trkpt lat="39.542204" lon="2.945943">
        <ele>219.2</ele>
        <time>2016-04-18T15:58:02Z</time>
      </trkpt>
      <trkpt lat="39.542269" lon="2.946024">
        <ele>218.8</ele>
        <time>2016-04-18T15:58:03Z</time>
      </trkpt>
      <trkpt lat="39.542332" lon="2.946109">
        <ele>218.4</ele>
        <time>2016-04-18T15:58:04Z</time>
      </trkpt>
      <trkpt lat="39.54239" lon="2.946195">
        <ele>217.8</ele>
        <time>2016-04-18T15:58:05Z</time>
      </trkpt>
      <trkpt lat="39.542439" lon="2.946295">
        <ele>217.8</ele>
        <time>2016-04-18T15:58:06Z</time>
      </trkpt>
      <trkpt lat="39.54249" lon="2.946514">
        <ele>217.8</ele>
        <time>2016-04-18T15:58:08Z</time>
      </trkpt>
      <trkpt lat="39.542631" lon="2.947241">
        <ele>217.8</ele>
        <time>2016-04-18T15:58:15Z</time>
      </trkpt>
      <trkpt lat="39.542679" lon="2.94745">
        <ele>217.4</ele>
        <time>2016-04-18T15:58:17Z</time>
      </trkpt>
      <trkpt lat="39.542703" lon="2.947556">
        <ele>217</ele>
        <time>2016-04-18T15:58:18Z</time>
      </trkpt>
      <trkpt lat="39.54273" lon="2.94767">
        <ele>216.6</ele>
        <time>2016-04-18T15:58:19Z</time>
      </trkpt>
      <trkpt lat="39.542754" lon="2.947778">
        <ele>216.2</ele>
        <time>2016-04-18T15:58:20Z</time>
      </trkpt>
      <trkpt lat="39.542778" lon="2.947889">
        <ele>215.8</ele>
        <time>2016-04-18T15:58:21Z</time>
      </trkpt>
      <trkpt lat="39.542802" lon="2.947999">
        <ele>215.4</ele>
        <time>2016-04-18T15:58:22Z</time>
      </trkpt>
      <trkpt lat="39.542828" lon="2.948111">
        <ele>215</ele>
        <time>2016-04-18T15:58:23Z</time>
      </trkpt>
      <trkpt lat="39.542853" lon="2.948225">
        <ele>214.4</ele>
        <time>2016-04-18T15:58:24Z</time>
      </trkpt>
      <trkpt lat="39.54288" lon="2.948339">
        <ele>214</ele>
        <time>2016-04-18T15:58:25Z</time>
      </trkpt>
      <trkpt lat="39.542908" lon="2.948451">
        <ele>213.6</ele>
        <time>2016-04-18T15:58:26Z</time>
      </trkpt>
      <trkpt lat="39.542937" lon="2.948572">
        <ele>213</ele>
        <time>2016-04-18T15:58:27Z</time>
      </trkpt>
      <trkpt lat="39.542972" lon="2.948686">
        <ele>212.6</ele>
        <time>2016-04-18T15:58:28Z</time>
      </trkpt>
      <trkpt lat="39.543016" lon="2.948798">
        <ele>212</ele>
        <time>2016-04-18T15:58:29Z</time>
      </trkpt>
      <trkpt lat="39.543069" lon="2.948907">
        <ele>211.6</ele>
        <time>2016-04-18T15:58:30Z</time>
      </trkpt>
      <trkpt lat="39.54313" lon="2.949012">
        <ele>211.2</ele>
        <time>2016-04-18T15:58:31Z</time>
      </trkpt>
      <trkpt lat="39.543196" lon="2.949115">
        <ele>210.6</ele>
        <time>2016-04-18T15:58:32Z</time>
      </trkpt>
      <trkpt lat="39.543264" lon="2.94922">
        <ele>210</ele>
        <time>2016-04-18T15:58:33Z</time>
      </trkpt>
      <trkpt lat="39.543341" lon="2.949328">
        <ele>209.4</ele>
        <time>2016-04-18T15:58:34Z</time>
      </trkpt>
      <trkpt lat="39.543411" lon="2.949434">
        <ele>208.6</ele>
        <time>2016-04-18T15:58:35Z</time>
      </trkpt>
      <trkpt lat="39.543484" lon="2.949541">
        <ele>206.8</ele>
        <time>2016-04-18T15:58:36Z</time>
      </trkpt>
      <trkpt lat="39.543559" lon="2.949648">
        <ele>206</ele>
        <time>2016-04-18T15:58:37Z</time>
      </trkpt>
      <trkpt lat="39.543635" lon="2.949764">
        <ele>205</ele>
        <time>2016-04-18T15:58:38Z</time>
      </trkpt>
      <trkpt lat="39.543711" lon="2.949876">
        <ele>204</ele>
        <time>2016-04-18T15:58:39Z</time>
      </trkpt>
      <trkpt lat="39.543784" lon="2.949987">
        <ele>203</ele>
        <time>2016-04-18T15:58:40Z</time>
      </trkpt>
      <trkpt lat="39.543856" lon="2.950103">
        <ele>202.2</ele>
        <time>2016-04-18T15:58:41Z</time>
      </trkpt>
      <trkpt lat="39.543933" lon="2.950225">
        <ele>201.2</ele>
        <time>2016-04-18T15:58:42Z</time>
      </trkpt>
      <trkpt lat="39.544009" lon="2.95034">
        <ele>200.4</ele>
        <time>2016-04-18T15:58:43Z</time>
      </trkpt>
      <trkpt lat="39.544081" lon="2.95046">
        <ele>199.8</ele>
        <time>2016-04-18T15:58:44Z</time>
      </trkpt>
      <trkpt lat="39.544154" lon="2.950578">
        <ele>199.2</ele>
        <time>2016-04-18T15:58:45Z</time>
      </trkpt>
      <trkpt lat="39.544229" lon="2.950698">
        <ele>198.4</ele>
        <time>2016-04-18T15:58:46Z</time>
      </trkpt>
      <trkpt lat="39.544306" lon="2.950817">
        <ele>197.6</ele>
        <time>2016-04-18T15:58:47Z</time>
      </trkpt>
      <trkpt lat="39.544379" lon="2.950936">
        <ele>196.8</ele>
        <time>2016-04-18T15:58:48Z</time>
      </trkpt>
      <trkpt lat="39.544452" lon="2.951056">
        <ele>196</ele>
        <time>2016-04-18T15:58:49Z</time>
      </trkpt>
      <trkpt lat="39.544527" lon="2.951173">
        <ele>195.2</ele>
        <time>2016-04-18T15:58:50Z</time>
      </trkpt>
      <trkpt lat="39.544602" lon="2.951292">
        <ele>194.4</ele>
        <time>2016-04-18T15:58:51Z</time>
      </trkpt>
      <trkpt lat="39.544675" lon="2.951407">
        <ele>193.6</ele>
        <time>2016-04-18T15:58:52Z</time>
      </trkpt>
      <trkpt lat="39.544748" lon="2.951519">
        <ele>192.8</ele>
        <time>2016-04-18T15:58:53Z</time>
      </trkpt>
      <trkpt lat="39.544816" lon="2.95163">
        <ele>192.2</ele>
        <time>2016-04-18T15:58:54Z</time>
      </trkpt>
      <trkpt lat="39.544883" lon="2.951737">
        <ele>191.6</ele>
        <time>2016-04-18T15:58:55Z</time>
      </trkpt>
      <trkpt lat="39.544948" lon="2.951839">
        <ele>191</ele>
        <time>2016-04-18T15:58:56Z</time>
      </trkpt>
      <trkpt lat="39.545014" lon="2.951945">
        <ele>190.4</ele>
        <time>2016-04-18T15:58:57Z</time>
      </trkpt>
      <trkpt lat="39.545078" lon="2.952045">
        <ele>189.8</ele>
        <time>2016-04-18T15:58:58Z</time>
      </trkpt>
      <trkpt lat="39.545146" lon="2.95214">
        <ele>189.8</ele>
        <time>2016-04-18T15:58:59Z</time>
      </trkpt>
      <trkpt lat="39.545214" lon="2.952233">
        <ele>189.8</ele>
        <time>2016-04-18T15:59:00Z</time>
      </trkpt>
      <trkpt lat="39.545617" lon="2.952691">
        <ele>189.8</ele>
        <time>2016-04-18T15:59:05Z</time>
      </trkpt>
      <trkpt lat="39.545709" lon="2.952783">
        <ele>189.4</ele>
        <time>2016-04-18T15:59:06Z</time>
      </trkpt>
      <trkpt lat="39.545799" lon="2.952872">
        <ele>188.8</ele>
        <time>2016-04-18T15:59:07Z</time>
      </trkpt>
      <trkpt lat="39.545889" lon="2.952962">
        <ele>188.4</ele>
        <time>2016-04-18T15:59:08Z</time>
      </trkpt>
      <trkpt lat="39.545981" lon="2.95305">
        <ele>187.6</ele>
        <time>2016-04-18T15:59:09Z</time>
      </trkpt>
      <trkpt lat="39.546073" lon="2.953141">
        <ele>187</ele>
        <time>2016-04-18T15:59:10Z</time>
      </trkpt>
      <trkpt lat="39.546164" lon="2.953234">
        <ele>186.2</ele>
        <time>2016-04-18T15:59:11Z</time>
      </trkpt>
      <trkpt lat="39.546256" lon="2.953325">
        <ele>185.6</ele>
        <time>2016-04-18T15:59:12Z</time>
      </trkpt>
      <trkpt lat="39.546358" lon="2.95341">
        <ele>184.8</ele>
        <time>2016-04-18T15:59:13Z</time>
      </trkpt>
      <trkpt lat="39.546466" lon="2.953477">
        <ele>184.2</ele>
        <time>2016-04-18T15:59:14Z</time>
      </trkpt>
      <trkpt lat="39.546576" lon="2.953537">
        <ele>183.4</ele>
        <time>2016-04-18T15:59:15Z</time>
      </trkpt>
      <trkpt lat="39.546688" lon="2.953602">
        <ele>182.6</ele>
        <time>2016-04-18T15:59:16Z</time>
      </trkpt>
      <trkpt lat="39.546802" lon="2.953668">
        <ele>182</ele>
        <time>2016-04-18T15:59:17Z</time>
      </trkpt>
      <trkpt lat="39.546917" lon="2.953732">
        <ele>181.2</ele>
        <time>2016-04-18T15:59:18Z</time>
      </trkpt>
      <trkpt lat="39.547031" lon="2.953796">
        <ele>180.4</ele>
        <time>2016-04-18T15:59:19Z</time>
      </trkpt>
      <trkpt lat="39.547149" lon="2.953865">
        <ele>179.4</ele>
        <time>2016-04-18T15:59:20Z</time>
      </trkpt>
      <trkpt lat="39.547258" lon="2.953929">
        <ele>178.4</ele>
        <time>2016-04-18T15:59:21Z</time>
      </trkpt>
      <trkpt lat="39.547372" lon="2.953997">
        <ele>177.6</ele>
        <time>2016-04-18T15:59:22Z</time>
      </trkpt>
      <trkpt lat="39.547482" lon="2.954073">
        <ele>176.6</ele>
        <time>2016-04-18T15:59:23Z</time>
      </trkpt>
      <trkpt lat="39.547593" lon="2.954149">
        <ele>175.8</ele>
        <time>2016-04-18T15:59:24Z</time>
      </trkpt>
      <trkpt lat="39.547703" lon="2.954233">
        <ele>174.2</ele>
        <time>2016-04-18T15:59:25Z</time>
      </trkpt>
      <trkpt lat="39.547817" lon="2.954319">
        <ele>173</ele>
        <time>2016-04-18T15:59:26Z</time>
      </trkpt>
      <trkpt lat="39.54793" lon="2.954405">
        <ele>172</ele>
        <time>2016-04-18T15:59:27Z</time>
      </trkpt>
      <trkpt lat="39.548044" lon="2.954497">
        <ele>170.8</ele>
        <time>2016-04-18T15:59:28Z</time>
      </trkpt>
      <trkpt lat="39.548153" lon="2.954582">
        <ele>169.8</ele>
        <time>2016-04-18T15:59:29Z</time>
      </trkpt>
      <trkpt lat="39.548258" lon="2.954666">
        <ele>169</ele>
        <time>2016-04-18T15:59:30Z</time>
      </trkpt>
      <trkpt lat="39.548362" lon="2.954745">
        <ele>168.4</ele>
        <time>2016-04-18T15:59:31Z</time>
      </trkpt>
      <trkpt lat="39.548467" lon="2.954821">
        <ele>167.6</ele>
        <time>2016-04-18T15:59:32Z</time>
      </trkpt>
      <trkpt lat="39.548575" lon="2.954888">
        <ele>167</ele>
        <time>2016-04-18T15:59:33Z</time>
      </trkpt>
      <trkpt lat="39.548686" lon="2.954942">
        <ele>166.2</ele>
        <time>2016-04-18T15:59:34Z</time>
      </trkpt>
      <trkpt lat="39.549018" lon="2.955058">
        <ele>166.2</ele>
        <time>2016-04-18T15:59:37Z</time>
      </trkpt>
      <trkpt lat="39.549124" lon="2.955092">
        <ele>166.2</ele>
        <time>2016-04-18T15:59:38Z</time>
      </trkpt>
      <trkpt lat="39.549307" lon="2.955197">
        <ele>166.2</ele>
        <time>2016-04-18T15:59:40Z</time>
      </trkpt>
      <trkpt lat="39.549388" lon="2.955265">
        <ele>166.2</ele>
        <time>2016-04-18T15:59:41Z</time>
      </trkpt>
      <trkpt lat="39.54946" lon="2.955351">
        <ele>166.2</ele>
        <time>2016-04-18T15:59:42Z</time>
      </trkpt>
      <trkpt lat="39.549525" lon="2.955449">
        <ele>166.6</ele>
        <time>2016-04-18T15:59:43Z</time>
      </trkpt>
      <trkpt lat="39.549582" lon="2.955544">
        <ele>167.2</ele>
        <time>2016-04-18T15:59:44Z</time>
      </trkpt>
      <trkpt lat="39.549646" lon="2.955636">
        <ele>167.6</ele>
        <time>2016-04-18T15:59:45Z</time>
      </trkpt>
      <trkpt lat="39.549706" lon="2.95573">
        <ele>168</ele>
        <time>2016-04-18T15:59:46Z</time>
      </trkpt>
      <trkpt lat="39.549766" lon="2.955823">
        <ele>168.4</ele>
        <time>2016-04-18T15:59:47Z</time>
      </trkpt>
      <trkpt lat="39.549882" lon="2.956012">
        <ele>168.4</ele>
        <time>2016-04-18T15:59:49Z</time>
      </trkpt>
      <trkpt lat="39.550006" lon="2.956199">
        <ele>168.4</ele>
        <time>2016-04-18T15:59:51Z</time>
      </trkpt>
      <trkpt lat="39.550117" lon="2.956372">
        <ele>168.4</ele>
        <time>2016-04-18T15:59:53Z</time>
      </trkpt>
      <trkpt lat="39.55017" lon="2.956454">
        <ele>168.4</ele>
        <time>2016-04-18T15:59:54Z</time>
      </trkpt>
      <trkpt lat="39.550223" lon="2.956535">
        <ele>168.8</ele>
        <time>2016-04-18T15:59:55Z</time>
      </trkpt>
      <trkpt lat="39.550269" lon="2.956614">
        <ele>169.2</ele>
        <time>2016-04-18T15:59:56Z</time>
      </trkpt>
      <trkpt lat="39.550314" lon="2.956686">
        <ele>169.6</ele>
        <time>2016-04-18T15:59:57Z</time>
      </trkpt>
      <trkpt lat="39.550355" lon="2.956757">
        <ele>170</ele>
        <time>2016-04-18T15:59:58Z</time>
      </trkpt>
      <trkpt lat="39.550399" lon="2.956826">
        <ele>170.6</ele>
        <time>2016-04-18T15:59:59Z</time>
      </trkpt>
      <trkpt lat="39.55044" lon="2.95689">
        <ele>171</ele>
        <time>2016-04-18T16:00:00Z</time>
      </trkpt>
      <trkpt lat="39.550477" lon="2.956953">
        <ele>171.6</ele>
        <time>2016-04-18T16:00:01Z</time>
      </trkpt>
      <trkpt lat="39.550513" lon="2.957014">
        <ele>172</ele>
        <time>2016-04-18T16:00:02Z</time>
      </trkpt>
      <trkpt lat="39.550548" lon="2.957073">
        <ele>172.6</ele>
        <time>2016-04-18T16:00:03Z</time>
      </trkpt>
      <trkpt lat="39.550573" lon="2.957141">
        <ele>172.6</ele>
        <time>2016-04-18T16:00:04Z</time>
      </trkpt>
      <trkpt lat="39.550595" lon="2.957212">
        <ele>172.6</ele>
        <time>2016-04-18T16:00:05Z</time>
      </trkpt>
      <trkpt lat="39.550732" lon="2.957721">
        <ele>172.6</ele>
        <time>2016-04-18T16:00:11Z</time>
      </trkpt>
      <trkpt lat="39.550811" lon="2.958021">
        <ele>171.6</ele>
        <time>2016-04-18T16:00:14Z</time>
      </trkpt>
      <trkpt lat="39.55084" lon="2.958118">
        <ele>171.2</ele>
        <time>2016-04-18T16:00:15Z</time>
      </trkpt>
      <trkpt lat="39.550871" lon="2.95822">
        <ele>170.8</ele>
        <time>2016-04-18T16:00:16Z</time>
      </trkpt>
      <trkpt lat="39.550899" lon="2.958327">
        <ele>170.2</ele>
        <time>2016-04-18T16:00:17Z</time>
      </trkpt>
      <trkpt lat="39.550928" lon="2.958434">
        <ele>169.6</ele>
        <time>2016-04-18T16:00:18Z</time>
      </trkpt>
      <trkpt lat="39.550958" lon="2.958544">
        <ele>169</ele>
        <time>2016-04-18T16:00:19Z</time>
      </trkpt>
      <trkpt lat="39.550988" lon="2.958654">
        <ele>168.4</ele>
        <time>2016-04-18T16:00:20Z</time>
      </trkpt>
      <trkpt lat="39.551019" lon="2.958762">
        <ele>167.8</ele>
        <time>2016-04-18T16:00:21Z</time>
      </trkpt>
      <trkpt lat="39.551085" lon="2.958975">
        <ele>167.8</ele>
        <time>2016-04-18T16:00:23Z</time>
      </trkpt>
      <trkpt lat="39.551126" lon="2.959068">
        <ele>167.8</ele>
        <time>2016-04-18T16:00:24Z</time>
      </trkpt>
      <trkpt lat="39.551176" lon="2.959151">
        <ele>167.8</ele>
        <time>2016-04-18T16:00:25Z</time>
      </trkpt>
      <trkpt lat="39.551222" lon="2.95923">
        <ele>167.4</ele>
        <time>2016-04-18T16:00:26Z</time>
      </trkpt>
      <trkpt lat="39.551265" lon="2.959309">
        <ele>167</ele>
        <time>2016-04-18T16:00:27Z</time>
      </trkpt>
      <trkpt lat="39.551309" lon="2.959381">
        <ele>166.6</ele>
        <time>2016-04-18T16:00:28Z</time>
      </trkpt>
      <trkpt lat="39.551352" lon="2.959459">
        <ele>166.2</ele>
        <time>2016-04-18T16:00:29Z</time>
      </trkpt>
      <trkpt lat="39.551389" lon="2.959536">
        <ele>165.6</ele>
        <time>2016-04-18T16:00:30Z</time>
      </trkpt>
      <trkpt lat="39.55142" lon="2.959613">
        <ele>165.6</ele>
        <time>2016-04-18T16:00:31Z</time>
      </trkpt>
      <trkpt lat="39.551612" lon="2.960054">
        <ele>165.6</ele>
        <time>2016-04-18T16:00:37Z</time>
      </trkpt>
      <trkpt lat="39.551773" lon="2.960485">
        <ele>165.6</ele>
        <time>2016-04-18T16:00:43Z</time>
      </trkpt>
      <trkpt lat="39.552061" lon="2.960999">
        <ele>165.6</ele>
        <time>2016-04-18T16:00:50Z</time>
      </trkpt>
      <trkpt lat="39.55211" lon="2.961076">
        <ele>165.2</ele>
        <time>2016-04-18T16:00:51Z</time>
      </trkpt>
      <trkpt lat="39.552163" lon="2.961159">
        <ele>164.8</ele>
        <time>2016-04-18T16:00:52Z</time>
      </trkpt>
      <trkpt lat="39.552215" lon="2.961237">
        <ele>164.4</ele>
        <time>2016-04-18T16:00:53Z</time>
      </trkpt>
      <trkpt lat="39.552269" lon="2.961316">
        <ele>164</ele>
        <time>2016-04-18T16:00:54Z</time>
      </trkpt>
      <trkpt lat="39.552321" lon="2.961398">
        <ele>163.6</ele>
        <time>2016-04-18T16:00:55Z</time>
      </trkpt>
      <trkpt lat="39.552374" lon="2.961479">
        <ele>163.2</ele>
        <time>2016-04-18T16:00:56Z</time>
      </trkpt>
      <trkpt lat="39.552429" lon="2.961559">
        <ele>162.6</ele>
        <time>2016-04-18T16:00:57Z</time>
      </trkpt>
      <trkpt lat="39.552483" lon="2.961642">
        <ele>162.2</ele>
        <time>2016-04-18T16:00:58Z</time>
      </trkpt>
      <trkpt lat="39.55254" lon="2.961733">
        <ele>161.8</ele>
        <time>2016-04-18T16:00:59Z</time>
      </trkpt>
      <trkpt lat="39.552596" lon="2.961819">
        <ele>161.2</ele>
        <time>2016-04-18T16:01:00Z</time>
      </trkpt>
      <trkpt lat="39.552652" lon="2.961906">
        <ele>160.8</ele>
        <time>2016-04-18T16:01:01Z</time>
      </trkpt>
      <trkpt lat="39.552708" lon="2.961996">
        <ele>160.4</ele>
        <time>2016-04-18T16:01:02Z</time>
      </trkpt>
      <trkpt lat="39.552763" lon="2.96208">
        <ele>159.8</ele>
        <time>2016-04-18T16:01:03Z</time>
      </trkpt>
      <trkpt lat="39.552815" lon="2.96216">
        <ele>159</ele>
        <time>2016-04-18T16:01:04Z</time>
      </trkpt>
      <trkpt lat="39.552862" lon="2.962236">
        <ele>159</ele>
        <time>2016-04-18T16:01:05Z</time>
      </trkpt>
      <trkpt lat="39.552908" lon="2.962309">
        <ele>159</ele>
        <time>2016-04-18T16:01:06Z</time>
      </trkpt>
      <trkpt lat="39.552988" lon="2.96243">
        <ele>158.6</ele>
        <time>2016-04-18T16:01:08Z</time>
      </trkpt>
      <trkpt lat="39.553021" lon="2.962482">
        <ele>158</ele>
        <time>2016-04-18T16:01:09Z</time>
      </trkpt>
      <trkpt lat="39.553035" lon="2.962538">
        <ele>157.6</ele>
        <time>2016-04-18T16:01:10Z</time>
      </trkpt>
      <trkpt lat="39.553048" lon="2.962585">
        <ele>157.2</ele>
        <time>2016-04-18T16:01:11Z</time>
      </trkpt>
      <trkpt lat="39.553067" lon="2.962619">
        <ele>156.8</ele>
        <time>2016-04-18T16:01:12Z</time>
      </trkpt>
      <trkpt lat="39.553084" lon="2.962617">
        <ele>156.8</ele>
        <time>2016-04-18T16:01:13Z</time>
      </trkpt>
      <trkpt lat="39.55309" lon="2.962618">
        <ele>156.8</ele>
        <time>2016-04-18T16:01:16Z</time>
      </trkpt>
      <trkpt lat="39.553171" lon="2.962717">
        <ele>156.8</ele>
        <time>2016-04-18T16:03:14Z</time>
      </trkpt>
      <trkpt lat="39.553195" lon="2.962751">
        <ele>156.8</ele>
        <time>2016-04-18T16:03:15Z</time>
      </trkpt>
      <trkpt lat="39.553286" lon="2.962895">
        <ele>156.8</ele>
        <time>2016-04-18T16:03:18Z</time>
      </trkpt>
      <trkpt lat="39.553494" lon="2.963202">
        <ele>156.4</ele>
        <time>2016-04-18T16:03:23Z</time>
      </trkpt>
      <trkpt lat="39.553536" lon="2.963261">
        <ele>156</ele>
        <time>2016-04-18T16:03:24Z</time>
      </trkpt>
      <trkpt lat="39.553576" lon="2.963321">
        <ele>155.6</ele>
        <time>2016-04-18T16:03:25Z</time>
      </trkpt>
      <trkpt lat="39.553619" lon="2.963378">
        <ele>155.2</ele>
        <time>2016-04-18T16:03:26Z</time>
      </trkpt>
      <trkpt lat="39.553665" lon="2.963439">
        <ele>154.6</ele>
        <time>2016-04-18T16:03:27Z</time>
      </trkpt>
      <trkpt lat="39.553754" lon="2.963568">
        <ele>154.6</ele>
        <time>2016-04-18T16:03:29Z</time>
      </trkpt>
      <trkpt lat="39.553893" lon="2.963769">
        <ele>154.2</ele>
        <time>2016-04-18T16:03:32Z</time>
      </trkpt>
      <trkpt lat="39.553934" lon="2.963843">
        <ele>153.4</ele>
        <time>2016-04-18T16:03:33Z</time>
      </trkpt>
      <trkpt lat="39.553956" lon="2.963928">
        <ele>152.8</ele>
        <time>2016-04-18T16:03:34Z</time>
      </trkpt>
      <trkpt lat="39.553981" lon="2.964014">
        <ele>152.4</ele>
        <time>2016-04-18T16:03:35Z</time>
      </trkpt>
      <trkpt lat="39.554124" lon="2.96456">
        <ele>152.4</ele>
        <time>2016-04-18T16:03:41Z</time>
      </trkpt>
      <trkpt lat="39.554153" lon="2.96465">
        <ele>152.4</ele>
        <time>2016-04-18T16:03:42Z</time>
      </trkpt>
      <trkpt lat="39.554244" lon="2.96493">
        <ele>152</ele>
        <time>2016-04-18T16:03:45Z</time>
      </trkpt>
      <trkpt lat="39.554286" lon="2.965026">
        <ele>151.6</ele>
        <time>2016-04-18T16:03:46Z</time>
      </trkpt>
      <trkpt lat="39.554336" lon="2.965107">
        <ele>151.2</ele>
        <time>2016-04-18T16:03:47Z</time>
      </trkpt>
      <trkpt lat="39.554385" lon="2.965189">
        <ele>150.8</ele>
        <time>2016-04-18T16:03:48Z</time>
      </trkpt>
      <trkpt lat="39.554435" lon="2.965269">
        <ele>150.4</ele>
        <time>2016-04-18T16:03:49Z</time>
      </trkpt>
      <trkpt lat="39.554485" lon="2.965349">
        <ele>150</ele>
        <time>2016-04-18T16:03:50Z</time>
      </trkpt>
      <trkpt lat="39.554535" lon="2.965432">
        <ele>149.6</ele>
        <time>2016-04-18T16:03:51Z</time>
      </trkpt>
      <trkpt lat="39.554587" lon="2.965512">
        <ele>149.2</ele>
        <time>2016-04-18T16:03:52Z</time>
      </trkpt>
      <trkpt lat="39.554641" lon="2.965592">
        <ele>148.6</ele>
        <time>2016-04-18T16:03:53Z</time>
      </trkpt>
      <trkpt lat="39.554701" lon="2.965672">
        <ele>148.2</ele>
        <time>2016-04-18T16:03:54Z</time>
      </trkpt>
      <trkpt lat="39.55476" lon="2.965748">
        <ele>148.2</ele>
        <time>2016-04-18T16:03:55Z</time>
      </trkpt>
      <trkpt lat="39.555127" lon="2.966173">
        <ele>147.8</ele>
        <time>2016-04-18T16:04:01Z</time>
      </trkpt>
      <trkpt lat="39.555191" lon="2.966247">
        <ele>147.4</ele>
        <time>2016-04-18T16:04:02Z</time>
      </trkpt>
      <trkpt lat="39.555251" lon="2.966318">
        <ele>147</ele>
        <time>2016-04-18T16:04:03Z</time>
      </trkpt>
      <trkpt lat="39.555311" lon="2.96639">
        <ele>146.6</ele>
        <time>2016-04-18T16:04:04Z</time>
      </trkpt>
      <trkpt lat="39.555371" lon="2.966459">
        <ele>146.2</ele>
        <time>2016-04-18T16:04:05Z</time>
      </trkpt>
      <trkpt lat="39.55575" lon="2.966865">
        <ele>146.2</ele>
        <time>2016-04-18T16:04:11Z</time>
      </trkpt>
      <trkpt lat="39.55603" lon="2.967093">
        <ele>145.8</ele>
        <time>2016-04-18T16:04:15Z</time>
      </trkpt>
      <trkpt lat="39.556102" lon="2.967147">
        <ele>145.2</ele>
        <time>2016-04-18T16:04:16Z</time>
      </trkpt>
      <trkpt lat="39.556174" lon="2.967199">
        <ele>144.8</ele>
        <time>2016-04-18T16:04:17Z</time>
      </trkpt>
      <trkpt lat="39.556251" lon="2.967255">
        <ele>144.4</ele>
        <time>2016-04-18T16:04:18Z</time>
      </trkpt>
      <trkpt lat="39.556323" lon="2.967309">
        <ele>144</ele>
        <time>2016-04-18T16:04:19Z</time>
      </trkpt>
      <trkpt lat="39.556747" lon="2.96764">
        <ele>144</ele>
        <time>2016-04-18T16:04:25Z</time>
      </trkpt>
      <trkpt lat="39.557264" lon="2.968036">
        <ele>143.6</ele>
        <time>2016-04-18T16:04:32Z</time>
      </trkpt>
      <trkpt lat="39.557343" lon="2.968096">
        <ele>143</ele>
        <time>2016-04-18T16:04:33Z</time>
      </trkpt>
      <trkpt lat="39.557418" lon="2.968156">
        <ele>142.6</ele>
        <time>2016-04-18T16:04:34Z</time>
      </trkpt>
      <trkpt lat="39.557494" lon="2.968214">
        <ele>142.2</ele>
        <time>2016-04-18T16:04:35Z</time>
      </trkpt>
      <trkpt lat="39.557568" lon="2.96827">
        <ele>141.6</ele>
        <time>2016-04-18T16:04:36Z</time>
      </trkpt>
      <trkpt lat="39.557938" lon="2.968557">
        <ele>141.6</ele>
        <time>2016-04-18T16:04:41Z</time>
      </trkpt>
      <trkpt lat="39.558" lon="2.968627">
        <ele>141.6</ele>
        <time>2016-04-18T16:04:42Z</time>
      </trkpt>
      <trkpt lat="39.558158" lon="2.968853">
        <ele>141.6</ele>
        <time>2016-04-18T16:04:45Z</time>
      </trkpt>
      <trkpt lat="39.558207" lon="2.968934">
        <ele>141.6</ele>
        <time>2016-04-18T16:04:46Z</time>
      </trkpt>
      <trkpt lat="39.55835" lon="2.96919">
        <ele>141.2</ele>
        <time>2016-04-18T16:04:49Z</time>
      </trkpt>
      <trkpt lat="39.558398" lon="2.969275">
        <ele>140.8</ele>
        <time>2016-04-18T16:04:50Z</time>
      </trkpt>
      <trkpt lat="39.558444" lon="2.969361">
        <ele>140.4</ele>
        <time>2016-04-18T16:04:51Z</time>
      </trkpt>
      <trkpt lat="39.558489" lon="2.969453">
        <ele>140</ele>
        <time>2016-04-18T16:04:52Z</time>
      </trkpt>
      <trkpt lat="39.558536" lon="2.969542">
        <ele>139.6</ele>
        <time>2016-04-18T16:04:53Z</time>
      </trkpt>
      <trkpt lat="39.558859" lon="2.970161">
        <ele>139.6</ele>
        <time>2016-04-18T16:04:59Z</time>
      </trkpt>
      <trkpt lat="39.559139" lon="2.970678">
        <ele>139.6</ele>
        <time>2016-04-18T16:05:06Z</time>
      </trkpt>
      <trkpt lat="39.559234" lon="2.970839">
        <ele>139.2</ele>
        <time>2016-04-18T16:05:08Z</time>
      </trkpt>
      <trkpt lat="39.559295" lon="2.970939">
        <ele>138.2</ele>
        <time>2016-04-18T16:05:09Z</time>
      </trkpt>
      <trkpt lat="39.559346" lon="2.971013">
        <ele>137.8</ele>
        <time>2016-04-18T16:05:10Z</time>
      </trkpt>
      <trkpt lat="39.559396" lon="2.971093">
        <ele>137.4</ele>
        <time>2016-04-18T16:05:11Z</time>
      </trkpt>
      <trkpt lat="39.559557" lon="2.971457">
        <ele>137.4</ele>
        <time>2016-04-18T16:05:15Z</time>
      </trkpt>
      <trkpt lat="39.559595" lon="2.971767">
        <ele>137.4</ele>
        <time>2016-04-18T16:05:18Z</time>
      </trkpt>
      <trkpt lat="39.55969" lon="2.97215">
        <ele>137.4</ele>
        <time>2016-04-18T16:05:22Z</time>
      </trkpt>
      <trkpt lat="39.559729" lon="2.972237">
        <ele>137</ele>
        <time>2016-04-18T16:05:23Z</time>
      </trkpt>
      <trkpt lat="39.559768" lon="2.972326">
        <ele>136.6</ele>
        <time>2016-04-18T16:05:24Z</time>
      </trkpt>
      <trkpt lat="39.559807" lon="2.972416">
        <ele>136.2</ele>
        <time>2016-04-18T16:05:25Z</time>
      </trkpt>
      <trkpt lat="39.559848" lon="2.972507">
        <ele>135.8</ele>
        <time>2016-04-18T16:05:26Z</time>
      </trkpt>
      <trkpt lat="39.559889" lon="2.972598">
        <ele>135.2</ele>
        <time>2016-04-18T16:05:27Z</time>
      </trkpt>
      <trkpt lat="39.560095" lon="2.973055">
        <ele>135.2</ele>
        <time>2016-04-18T16:05:32Z</time>
      </trkpt>
      <trkpt lat="39.560146" lon="2.973128">
        <ele>135.2</ele>
        <time>2016-04-18T16:05:33Z</time>
      </trkpt>
      <trkpt lat="39.560272" lon="2.973244">
        <ele>135.2</ele>
        <time>2016-04-18T16:05:35Z</time>
      </trkpt>
      <trkpt lat="39.560345" lon="2.97329">
        <ele>134.8</ele>
        <time>2016-04-18T16:05:36Z</time>
      </trkpt>
      <trkpt lat="39.560415" lon="2.973328">
        <ele>134.4</ele>
        <time>2016-04-18T16:05:37Z</time>
      </trkpt>
      <trkpt lat="39.560486" lon="2.973355">
        <ele>134</ele>
        <time>2016-04-18T16:05:38Z</time>
      </trkpt>
      <trkpt lat="39.56056" lon="2.973378">
        <ele>133.6</ele>
        <time>2016-04-18T16:05:39Z</time>
      </trkpt>
      <trkpt lat="39.560633" lon="2.973404">
        <ele>133.2</ele>
        <time>2016-04-18T16:05:40Z</time>
      </trkpt>
      <trkpt lat="39.560915" lon="2.973549">
        <ele>132.8</ele>
        <time>2016-04-18T16:05:44Z</time>
      </trkpt>
      <trkpt lat="39.560972" lon="2.973603">
        <ele>132.4</ele>
        <time>2016-04-18T16:05:45Z</time>
      </trkpt>
      <trkpt lat="39.561024" lon="2.973657">
        <ele>132</ele>
        <time>2016-04-18T16:05:46Z</time>
      </trkpt>
      <trkpt lat="39.561081" lon="2.973706">
        <ele>131.6</ele>
        <time>2016-04-18T16:05:47Z</time>
      </trkpt>
      <trkpt lat="39.561135" lon="2.973752">
        <ele>131.2</ele>
        <time>2016-04-18T16:05:48Z</time>
      </trkpt>
      <trkpt lat="39.56121" lon="2.973788">
        <ele>131.2</ele>
        <time>2016-04-18T16:05:50Z</time>
      </trkpt>
      <trkpt lat="39.561286" lon="2.973728">
        <ele>131.2</ele>
        <time>2016-04-18T16:05:53Z</time>
      </trkpt>
      <trkpt lat="39.561338" lon="2.973531">
        <ele>131.2</ele>
        <time>2016-04-18T16:05:56Z</time>
      </trkpt>
      <trkpt lat="39.561349" lon="2.97346">
        <ele>131.6</ele>
        <time>2016-04-18T16:05:57Z</time>
      </trkpt>
      <trkpt lat="39.561364" lon="2.973385">
        <ele>132</ele>
        <time>2016-04-18T16:05:58Z</time>
      </trkpt>
      <trkpt lat="39.561387" lon="2.973315">
        <ele>132.4</ele>
        <time>2016-04-18T16:05:59Z</time>
      </trkpt>
      <trkpt lat="39.561406" lon="2.973243">
        <ele>132.8</ele>
        <time>2016-04-18T16:06:00Z</time>
      </trkpt>
      <trkpt lat="39.56142" lon="2.973166">
        <ele>133.2</ele>
        <time>2016-04-18T16:06:01Z</time>
      </trkpt>
      <trkpt lat="39.561447" lon="2.973021">
        <ele>133.2</ele>
        <time>2016-04-18T16:06:03Z</time>
      </trkpt>
      <trkpt lat="39.561476" lon="2.972891">
        <ele>133.2</ele>
        <time>2016-04-18T16:06:05Z</time>
      </trkpt>
      <trkpt lat="39.561489" lon="2.972826">
        <ele>133.2</ele>
        <time>2016-04-18T16:06:06Z</time>
      </trkpt>
      <trkpt lat="39.561535" lon="2.972626">
        <ele>133.2</ele>
        <time>2016-04-18T16:06:09Z</time>
      </trkpt>
      <trkpt lat="39.561549" lon="2.972559">
        <ele>133.8</ele>
        <time>2016-04-18T16:06:10Z</time>
      </trkpt>
      <trkpt lat="39.561568" lon="2.972493">
        <ele>134.2</ele>
        <time>2016-04-18T16:06:11Z</time>
      </trkpt>
      <trkpt lat="39.561579" lon="2.972425">
        <ele>134.8</ele>
        <time>2016-04-18T16:06:12Z</time>
      </trkpt>
      <trkpt lat="39.561583" lon="2.972353">
        <ele>135.2</ele>
        <time>2016-04-18T16:06:13Z</time>
      </trkpt>
      <trkpt lat="39.561577" lon="2.972275">
        <ele>135.8</ele>
        <time>2016-04-18T16:06:14Z</time>
      </trkpt>
      <trkpt lat="39.561547" lon="2.972114">
        <ele>135.8</ele>
        <time>2016-04-18T16:06:16Z</time>
      </trkpt>
      <trkpt lat="39.561517" lon="2.97204">
        <ele>135.8</ele>
        <time>2016-04-18T16:06:17Z</time>
      </trkpt>
      <trkpt lat="39.561344" lon="2.971705">
        <ele>135.8</ele>
        <time>2016-04-18T16:06:22Z</time>
      </trkpt>
      <trkpt lat="39.561324" lon="2.971625">
        <ele>135.8</ele>
        <time>2016-04-18T16:06:23Z</time>
      </trkpt>
      <trkpt lat="39.56135" lon="2.971437">
        <ele>135.8</ele>
        <time>2016-04-18T16:06:25Z</time>
      </trkpt>
      <trkpt lat="39.561404" lon="2.971367">
        <ele>135.2</ele>
        <time>2016-04-18T16:06:26Z</time>
      </trkpt>
      <trkpt lat="39.56148" lon="2.971347">
        <ele>134.8</ele>
        <time>2016-04-18T16:06:27Z</time>
      </trkpt>
      <trkpt lat="39.561556" lon="2.971368">
        <ele>134.4</ele>
        <time>2016-04-18T16:06:28Z</time>
      </trkpt>
      <trkpt lat="39.561623" lon="2.971403">
        <ele>134</ele>
        <time>2016-04-18T16:06:29Z</time>
      </trkpt>
      <trkpt lat="39.561665" lon="2.971467">
        <ele>133.4</ele>
        <time>2016-04-18T16:06:30Z</time>
      </trkpt>
      <trkpt lat="39.561683" lon="2.971553">
        <ele>133</ele>
        <time>2016-04-18T16:06:31Z</time>
      </trkpt>
      <trkpt lat="39.56169" lon="2.971643">
        <ele>132.4</ele>
        <time>2016-04-18T16:06:32Z</time>
      </trkpt>
      <trkpt lat="39.561723" lon="2.971722">
        <ele>131.8</ele>
        <time>2016-04-18T16:06:33Z</time>
      </trkpt>
      <trkpt lat="39.561771" lon="2.971781">
        <ele>131.4</ele>
        <time>2016-04-18T16:06:34Z</time>
      </trkpt>
      <trkpt lat="39.561971" lon="2.97184">
        <ele>131.4</ele>
        <time>2016-04-18T16:06:37Z</time>
      </trkpt>
      <trkpt lat="39.562095" lon="2.971793">
        <ele>131.4</ele>
        <time>2016-04-18T16:06:39Z</time>
      </trkpt>
      <trkpt lat="39.562153" lon="2.971763">
        <ele>131.4</ele>
        <time>2016-04-18T16:06:40Z</time>
      </trkpt>
      <trkpt lat="39.56221" lon="2.971757">
        <ele>131.4</ele>
        <time>2016-04-18T16:06:41Z</time>
      </trkpt>
      <trkpt lat="39.562332" lon="2.971796">
        <ele>131.4</ele>
        <time>2016-04-18T16:06:43Z</time>
      </trkpt>
      <trkpt lat="39.562448" lon="2.971978">
        <ele>131.4</ele>
        <time>2016-04-18T16:06:46Z</time>
      </trkpt>
      <trkpt lat="39.562478" lon="2.972039">
        <ele>131.4</ele>
        <time>2016-04-18T16:06:47Z</time>
      </trkpt>
      <trkpt lat="39.562503" lon="2.972092">
        <ele>131.4</ele>
        <time>2016-04-18T16:06:48Z</time>
      </trkpt>
      <trkpt lat="39.562527" lon="2.972144">
        <ele>131.4</ele>
        <time>2016-04-18T16:06:49Z</time>
      </trkpt>
      <trkpt lat="39.562561" lon="2.972231">
        <ele>131.4</ele>
        <time>2016-04-18T16:06:51Z</time>
      </trkpt>
      <trkpt lat="39.562685" lon="2.972474">
        <ele>131.4</ele>
        <time>2016-04-18T16:06:56Z</time>
      </trkpt>
      <trkpt lat="39.562709" lon="2.972533">
        <ele>131.4</ele>
        <time>2016-04-18T16:06:57Z</time>
      </trkpt>
      <trkpt lat="39.562768" lon="2.972651">
        <ele>130.8</ele>
        <time>2016-04-18T16:06:59Z</time>
      </trkpt>
      <trkpt lat="39.562802" lon="2.972712">
        <ele>130.4</ele>
        <time>2016-04-18T16:07:00Z</time>
      </trkpt>
      <trkpt lat="39.562833" lon="2.972778">
        <ele>130</ele>
        <time>2016-04-18T16:07:01Z</time>
      </trkpt>
      <trkpt lat="39.56286" lon="2.972836">
        <ele>129.6</ele>
        <time>2016-04-18T16:07:02Z</time>
      </trkpt>
      <trkpt lat="39.56288" lon="2.972884">
        <ele>129.2</ele>
        <time>2016-04-18T16:07:03Z</time>
      </trkpt>
      <trkpt lat="39.562946" lon="2.973009">
        <ele>129.2</ele>
        <time>2016-04-18T16:07:06Z</time>
      </trkpt>
      <trkpt lat="39.563028" lon="2.973164">
        <ele>129.2</ele>
        <time>2016-04-18T16:07:09Z</time>
      </trkpt>
      <trkpt lat="39.563139" lon="2.973397">
        <ele>129.2</ele>
        <time>2016-04-18T16:07:13Z</time>
      </trkpt>
      <trkpt lat="39.563232" lon="2.973596">
        <ele>129.2</ele>
        <time>2016-04-18T16:07:16Z</time>
      </trkpt>
      <trkpt lat="39.563362" lon="2.973878">
        <ele>129.2</ele>
        <time>2016-04-18T16:07:20Z</time>
      </trkpt>
      <trkpt lat="39.563464" lon="2.974092">
        <ele>129.2</ele>
        <time>2016-04-18T16:07:23Z</time>
      </trkpt>
      <trkpt lat="39.56364" lon="2.974459">
        <ele>129.2</ele>
        <time>2016-04-18T16:07:28Z</time>
      </trkpt>
      <trkpt lat="39.56371" lon="2.974601">
        <ele>129.2</ele>
        <time>2016-04-18T16:07:30Z</time>
      </trkpt>
      <trkpt lat="39.563854" lon="2.974898">
        <ele>129.2</ele>
        <time>2016-04-18T16:07:34Z</time>
      </trkpt>
      <trkpt lat="39.563955" lon="2.975115">
        <ele>129.2</ele>
        <time>2016-04-18T16:07:37Z</time>
      </trkpt>
      <trkpt lat="39.564125" lon="2.975471">
        <ele>129.2</ele>
        <time>2016-04-18T16:07:42Z</time>
      </trkpt>
      <trkpt lat="39.564143" lon="2.975522">
        <ele>129.2</ele>
        <time>2016-04-18T16:07:43Z</time>
      </trkpt>
      <trkpt lat="39.564184" lon="2.975689">
        <ele>129.2</ele>
        <time>2016-04-18T16:07:46Z</time>
      </trkpt>
      <trkpt lat="39.564201" lon="2.975742">
        <ele>129.2</ele>
        <time>2016-04-18T16:07:48Z</time>
      </trkpt>
      <trkpt lat="39.564266" lon="2.975729">
        <ele>129.2</ele>
        <time>2016-04-18T16:07:51Z</time>
      </trkpt>
      <trkpt lat="39.564243" lon="2.975636">
        <ele>129.2</ele>
        <time>2016-04-18T16:07:53Z</time>
      </trkpt>
      <trkpt lat="39.564219" lon="2.975592">
        <ele>129.2</ele>
        <time>2016-04-18T16:07:54Z</time>
      </trkpt>
      <trkpt lat="39.564202" lon="2.975539">
        <ele>129.2</ele>
        <time>2016-04-18T16:07:55Z</time>
      </trkpt>
      <trkpt lat="39.564177" lon="2.975408">
        <ele>129.2</ele>
        <time>2016-04-18T16:07:57Z</time>
      </trkpt>
      <trkpt lat="39.564197" lon="2.975348">
        <ele>129.2</ele>
        <time>2016-04-18T16:07:58Z</time>
      </trkpt>
      <trkpt lat="39.564307" lon="2.97519">
        <ele>129.2</ele>
        <time>2016-04-18T16:08:01Z</time>
      </trkpt>
      <trkpt lat="39.564384" lon="2.975076">
        <ele>129.2</ele>
        <time>2016-04-18T16:08:03Z</time>
      </trkpt>
      <trkpt lat="39.564422" lon="2.975018">
        <ele>129.2</ele>
        <time>2016-04-18T16:08:04Z</time>
      </trkpt>
      <trkpt lat="39.564527" lon="2.974824">
        <ele>129.2</ele>
        <time>2016-04-18T16:08:07Z</time>
      </trkpt>
      <trkpt lat="39.564567" lon="2.97476">
        <ele>129.2</ele>
        <time>2016-04-18T16:08:08Z</time>
      </trkpt>
      <trkpt lat="39.564793" lon="2.974345">
        <ele>129.2</ele>
        <time>2016-04-18T16:08:14Z</time>
      </trkpt>
      <trkpt lat="39.565067" lon="2.973842">
        <ele>129.2</ele>
        <time>2016-04-18T16:08:21Z</time>
      </trkpt>
      <trkpt lat="39.565157" lon="2.97372">
        <ele>129.2</ele>
        <time>2016-04-18T16:08:23Z</time>
      </trkpt>
      <trkpt lat="39.565275" lon="2.973618">
        <ele>129.2</ele>
        <time>2016-04-18T16:08:25Z</time>
      </trkpt>
      <trkpt lat="39.565621" lon="2.97331">
        <ele>128.8</ele>
        <time>2016-04-18T16:08:31Z</time>
      </trkpt>
      <trkpt lat="39.565674" lon="2.973242">
        <ele>128.2</ele>
        <time>2016-04-18T16:08:32Z</time>
      </trkpt>
      <trkpt lat="39.565725" lon="2.973175">
        <ele>127.8</ele>
        <time>2016-04-18T16:08:33Z</time>
      </trkpt>
      <trkpt lat="39.565779" lon="2.973108">
        <ele>127.4</ele>
        <time>2016-04-18T16:08:34Z</time>
      </trkpt>
      <trkpt lat="39.565837" lon="2.973037">
        <ele>127</ele>
        <time>2016-04-18T16:08:35Z</time>
      </trkpt>
      <trkpt lat="39.566069" lon="2.972782">
        <ele>127</ele>
        <time>2016-04-18T16:08:39Z</time>
      </trkpt>
      <trkpt lat="39.566138" lon="2.972743">
        <ele>127</ele>
        <time>2016-04-18T16:08:40Z</time>
      </trkpt>
      <trkpt lat="39.566355" lon="2.972644">
        <ele>126.6</ele>
        <time>2016-04-18T16:08:43Z</time>
      </trkpt>
      <trkpt lat="39.566425" lon="2.972613">
        <ele>126.2</ele>
        <time>2016-04-18T16:08:44Z</time>
      </trkpt>
      <trkpt lat="39.566494" lon="2.972578">
        <ele>125.8</ele>
        <time>2016-04-18T16:08:45Z</time>
      </trkpt>
      <trkpt lat="39.566561" lon="2.972543">
        <ele>125.4</ele>
        <time>2016-04-18T16:08:46Z</time>
      </trkpt>
      <trkpt lat="39.56663" lon="2.972507">
        <ele>125</ele>
        <time>2016-04-18T16:08:47Z</time>
      </trkpt>
      <trkpt lat="39.566773" lon="2.97244">
        <ele>125</ele>
        <time>2016-04-18T16:08:49Z</time>
      </trkpt>
      <trkpt lat="39.567208" lon="2.972228">
        <ele>125</ele>
        <time>2016-04-18T16:08:55Z</time>
      </trkpt>
      <trkpt lat="39.567499" lon="2.972081">
        <ele>125</ele>
        <time>2016-04-18T16:08:59Z</time>
      </trkpt>
      <trkpt lat="39.567919" lon="2.971853">
        <ele>125</ele>
        <time>2016-04-18T16:09:05Z</time>
      </trkpt>
      <trkpt lat="39.567989" lon="2.971804">
        <ele>125</ele>
        <time>2016-04-18T16:09:06Z</time>
      </trkpt>
      <trkpt lat="39.568401" lon="2.971513">
        <ele>125</ele>
        <time>2016-04-18T16:09:12Z</time>
      </trkpt>
      <trkpt lat="39.56854" lon="2.971411">
        <ele>125</ele>
        <time>2016-04-18T16:09:14Z</time>
      </trkpt>
      <trkpt lat="39.569018" lon="2.97104">
        <ele>125</ele>
        <time>2016-04-18T16:09:21Z</time>
      </trkpt>
      <trkpt lat="39.569223" lon="2.97088">
        <ele>125</ele>
        <time>2016-04-18T16:09:24Z</time>
      </trkpt>
      <trkpt lat="39.569521" lon="2.970547">
        <ele>125</ele>
        <time>2016-04-18T16:09:29Z</time>
      </trkpt>
      <trkpt lat="39.569579" lon="2.970466">
        <ele>124.4</ele>
        <time>2016-04-18T16:09:30Z</time>
      </trkpt>
      <trkpt lat="39.569635" lon="2.970393">
        <ele>124</ele>
        <time>2016-04-18T16:09:31Z</time>
      </trkpt>
      <trkpt lat="39.56969" lon="2.970322">
        <ele>123.6</ele>
        <time>2016-04-18T16:09:32Z</time>
      </trkpt>
      <trkpt lat="39.569746" lon="2.97025">
        <ele>123</ele>
        <time>2016-04-18T16:09:33Z</time>
      </trkpt>
      <trkpt lat="39.569805" lon="2.970179">
        <ele>122.6</ele>
        <time>2016-04-18T16:09:34Z</time>
      </trkpt>
      <trkpt lat="39.569915" lon="2.970033">
        <ele>122.6</ele>
        <time>2016-04-18T16:09:36Z</time>
      </trkpt>
      <trkpt lat="39.570232" lon="2.969606">
        <ele>122.6</ele>
        <time>2016-04-18T16:09:42Z</time>
      </trkpt>
      <trkpt lat="39.570532" lon="2.96919">
        <ele>122.6</ele>
        <time>2016-04-18T16:09:48Z</time>
      </trkpt>
      <trkpt lat="39.570629" lon="2.969049">
        <ele>122.6</ele>
        <time>2016-04-18T16:09:50Z</time>
      </trkpt>
      <trkpt lat="39.571008" lon="2.968475">
        <ele>122.6</ele>
        <time>2016-04-18T16:09:58Z</time>
      </trkpt>
      <trkpt lat="39.571055" lon="2.968402">
        <ele>122.6</ele>
        <time>2016-04-18T16:09:59Z</time>
      </trkpt>
      <trkpt lat="39.57143" lon="2.967821">
        <ele>122.6</ele>
        <time>2016-04-18T16:10:07Z</time>
      </trkpt>
      <trkpt lat="39.571623" lon="2.967405">
        <ele>122.6</ele>
        <time>2016-04-18T16:10:12Z</time>
      </trkpt>
      <trkpt lat="39.57181" lon="2.966749">
        <ele>122.6</ele>
        <time>2016-04-18T16:10:19Z</time>
      </trkpt>
      <trkpt lat="39.572008" lon="2.966315">
        <ele>122.6</ele>
        <time>2016-04-18T16:10:24Z</time>
      </trkpt>
      <trkpt lat="39.57205" lon="2.966229">
        <ele>122.6</ele>
        <time>2016-04-18T16:10:25Z</time>
      </trkpt>
      <trkpt lat="39.572334" lon="2.965614">
        <ele>122.6</ele>
        <time>2016-04-18T16:10:32Z</time>
      </trkpt>
      <trkpt lat="39.572376" lon="2.965522">
        <ele>122.6</ele>
        <time>2016-04-18T16:10:33Z</time>
      </trkpt>
      <trkpt lat="39.572586" lon="2.965091">
        <ele>122.6</ele>
        <time>2016-04-18T16:10:38Z</time>
      </trkpt>
      <trkpt lat="39.572776" lon="2.964761">
        <ele>122.6</ele>
        <time>2016-04-18T16:10:42Z</time>
      </trkpt>
      <trkpt lat="39.572997" lon="2.964474">
        <ele>122.6</ele>
        <time>2016-04-18T16:10:46Z</time>
      </trkpt>
      <trkpt lat="39.573177" lon="2.96427">
        <ele>122.6</ele>
        <time>2016-04-18T16:10:49Z</time>
      </trkpt>
      <trkpt lat="39.573474" lon="2.96393">
        <ele>122.6</ele>
        <time>2016-04-18T16:10:54Z</time>
      </trkpt>
      <trkpt lat="39.573534" lon="2.963862">
        <ele>122</ele>
        <time>2016-04-18T16:10:55Z</time>
      </trkpt>
      <trkpt lat="39.573591" lon="2.963794">
        <ele>121.6</ele>
        <time>2016-04-18T16:10:56Z</time>
      </trkpt>
      <trkpt lat="39.573651" lon="2.963723">
        <ele>121.2</ele>
        <time>2016-04-18T16:10:57Z</time>
      </trkpt>
      <trkpt lat="39.573708" lon="2.963654">
        <ele>120.6</ele>
        <time>2016-04-18T16:10:58Z</time>
      </trkpt>
      <trkpt lat="39.573765" lon="2.963587">
        <ele>120.2</ele>
        <time>2016-04-18T16:10:59Z</time>
      </trkpt>
      <trkpt lat="39.574216" lon="2.963054">
        <ele>120.2</ele>
        <time>2016-04-18T16:11:07Z</time>
      </trkpt>
      <trkpt lat="39.574273" lon="2.962989">
        <ele>120.2</ele>
        <time>2016-04-18T16:11:08Z</time>
      </trkpt>
      <trkpt lat="39.574389" lon="2.962853">
        <ele>120.2</ele>
        <time>2016-04-18T16:11:10Z</time>
      </trkpt>
      <trkpt lat="39.574739" lon="2.96245">
        <ele>120.2</ele>
        <time>2016-04-18T16:11:16Z</time>
      </trkpt>
      <trkpt lat="39.574978" lon="2.962199">
        <ele>120.2</ele>
        <time>2016-04-18T16:11:20Z</time>
      </trkpt>
      <trkpt lat="39.575099" lon="2.962075">
        <ele>120.2</ele>
        <time>2016-04-18T16:11:22Z</time>
      </trkpt>
      <trkpt lat="39.575279" lon="2.961892">
        <ele>119.8</ele>
        <time>2016-04-18T16:11:25Z</time>
      </trkpt>
      <trkpt lat="39.57534" lon="2.961834">
        <ele>119.4</ele>
        <time>2016-04-18T16:11:26Z</time>
      </trkpt>
      <trkpt lat="39.5754" lon="2.961774">
        <ele>119</ele>
        <time>2016-04-18T16:11:27Z</time>
      </trkpt>
      <trkpt lat="39.57546" lon="2.961713">
        <ele>118.6</ele>
        <time>2016-04-18T16:11:28Z</time>
      </trkpt>
      <trkpt lat="39.575518" lon="2.961657">
        <ele>118.2</ele>
        <time>2016-04-18T16:11:29Z</time>
      </trkpt>
      <trkpt lat="39.575699" lon="2.961487">
        <ele>118.2</ele>
        <time>2016-04-18T16:11:32Z</time>
      </trkpt>
      <trkpt lat="39.576044" lon="2.96114">
        <ele>118.2</ele>
        <time>2016-04-18T16:11:38Z</time>
      </trkpt>
      <trkpt lat="39.5761" lon="2.961088">
        <ele>118.2</ele>
        <time>2016-04-18T16:11:39Z</time>
      </trkpt>
      <trkpt lat="39.576559" lon="2.96065">
        <ele>118.2</ele>
        <time>2016-04-18T16:11:47Z</time>
      </trkpt>
      <trkpt lat="39.576998" lon="2.960192">
        <ele>118.2</ele>
        <time>2016-04-18T16:11:55Z</time>
      </trkpt>
      <trkpt lat="39.577282" lon="2.959786">
        <ele>118.2</ele>
        <time>2016-04-18T16:12:01Z</time>
      </trkpt>
      <trkpt lat="39.577601" lon="2.959174">
        <ele>118.2</ele>
        <time>2016-04-18T16:12:09Z</time>
      </trkpt>
      <trkpt lat="39.577914" lon="2.958554">
        <ele>118.2</ele>
        <time>2016-04-18T16:12:17Z</time>
      </trkpt>
      <trkpt lat="39.578041" lon="2.958331">
        <ele>118.2</ele>
        <time>2016-04-18T16:12:20Z</time>
      </trkpt>
      <trkpt lat="39.57835" lon="2.957831">
        <ele>118.2</ele>
        <time>2016-04-18T16:12:27Z</time>
      </trkpt>
      <trkpt lat="39.57849" lon="2.957628">
        <ele>118.2</ele>
        <time>2016-04-18T16:12:30Z</time>
      </trkpt>
      <trkpt lat="39.578598" lon="2.957508">
        <ele>118.2</ele>
        <time>2016-04-18T16:12:32Z</time>
      </trkpt>
      <trkpt lat="39.578952" lon="2.957118">
        <ele>118.2</ele>
        <time>2016-04-18T16:12:39Z</time>
      </trkpt>
      <trkpt lat="39.579266" lon="2.956646">
        <ele>118.2</ele>
        <time>2016-04-18T16:12:46Z</time>
      </trkpt>
      <trkpt lat="39.579555" lon="2.956109">
        <ele>118.2</ele>
        <time>2016-04-18T16:12:53Z</time>
      </trkpt>
      <trkpt lat="39.579776" lon="2.955767">
        <ele>118.2</ele>
        <time>2016-04-18T16:12:58Z</time>
      </trkpt>
      <trkpt lat="39.579817" lon="2.955706">
        <ele>118.2</ele>
        <time>2016-04-18T16:12:59Z</time>
      </trkpt>
      <trkpt lat="39.580065" lon="2.955319">
        <ele>118.2</ele>
        <time>2016-04-18T16:13:05Z</time>
      </trkpt>
      <trkpt lat="39.580144" lon="2.955185">
        <ele>118.2</ele>
        <time>2016-04-18T16:13:07Z</time>
      </trkpt>
      <trkpt lat="39.580295" lon="2.954911">
        <ele>118.2</ele>
        <time>2016-04-18T16:13:11Z</time>
      </trkpt>
      <trkpt lat="39.580361" lon="2.954774">
        <ele>118.2</ele>
        <time>2016-04-18T16:13:13Z</time>
      </trkpt>
      <trkpt lat="39.580535" lon="2.954421">
        <ele>118.2</ele>
        <time>2016-04-18T16:13:18Z</time>
      </trkpt>
      <trkpt lat="39.580631" lon="2.954203">
        <ele>118.2</ele>
        <time>2016-04-18T16:13:21Z</time>
      </trkpt>
      <trkpt lat="39.580694" lon="2.95406">
        <ele>118.2</ele>
        <time>2016-04-18T16:13:23Z</time>
      </trkpt>
      <trkpt lat="39.58084" lon="2.953739">
        <ele>118.2</ele>
        <time>2016-04-18T16:13:27Z</time>
      </trkpt>
      <trkpt lat="39.580929" lon="2.953596">
        <ele>118.2</ele>
        <time>2016-04-18T16:13:29Z</time>
      </trkpt>
      <trkpt lat="39.580979" lon="2.953533">
        <ele>118.2</ele>
        <time>2016-04-18T16:13:30Z</time>
      </trkpt>
      <trkpt lat="39.581196" lon="2.953306">
        <ele>118.2</ele>
        <time>2016-04-18T16:13:34Z</time>
      </trkpt>
      <trkpt lat="39.581247" lon="2.953245">
        <ele>118.2</ele>
        <time>2016-04-18T16:13:35Z</time>
      </trkpt>
      <trkpt lat="39.581348" lon="2.953128">
        <ele>117.8</ele>
        <time>2016-04-18T16:13:37Z</time>
      </trkpt>
      <trkpt lat="39.581403" lon="2.953061">
        <ele>116.8</ele>
        <time>2016-04-18T16:13:38Z</time>
      </trkpt>
      <trkpt lat="39.581455" lon="2.952991">
        <ele>116.4</ele>
        <time>2016-04-18T16:13:39Z</time>
      </trkpt>
      <trkpt lat="39.581512" lon="2.952915">
        <ele>115.8</ele>
        <time>2016-04-18T16:13:40Z</time>
      </trkpt>
      <trkpt lat="39.581747" lon="2.952642">
        <ele>115.8</ele>
        <time>2016-04-18T16:13:44Z</time>
      </trkpt>
      <trkpt lat="39.581875" lon="2.952515">
        <ele>115.8</ele>
        <time>2016-04-18T16:13:46Z</time>
      </trkpt>
      <trkpt lat="39.582186" lon="2.952206">
        <ele>115.8</ele>
        <time>2016-04-18T16:13:51Z</time>
      </trkpt>
      <trkpt lat="39.582491" lon="2.951889">
        <ele>115.8</ele>
        <time>2016-04-18T16:13:56Z</time>
      </trkpt>
      <trkpt lat="39.582713" lon="2.95163">
        <ele>115.4</ele>
        <time>2016-04-18T16:14:00Z</time>
      </trkpt>
      <trkpt lat="39.582767" lon="2.951558">
        <ele>115</ele>
        <time>2016-04-18T16:14:01Z</time>
      </trkpt>
      <trkpt lat="39.582816" lon="2.951483">
        <ele>114.2</ele>
        <time>2016-04-18T16:14:02Z</time>
      </trkpt>
      <trkpt lat="39.582866" lon="2.951404">
        <ele>113.8</ele>
        <time>2016-04-18T16:14:03Z</time>
      </trkpt>
      <trkpt lat="39.583234" lon="2.950824">
        <ele>113.8</ele>
        <time>2016-04-18T16:14:11Z</time>
      </trkpt>
      <trkpt lat="39.583545" lon="2.950299">
        <ele>113.8</ele>
        <time>2016-04-18T16:14:18Z</time>
      </trkpt>
      <trkpt lat="39.583793" lon="2.949879">
        <ele>114.2</ele>
        <time>2016-04-18T16:14:24Z</time>
      </trkpt>
      <trkpt lat="39.583833" lon="2.949808">
        <ele>114.6</ele>
        <time>2016-04-18T16:14:25Z</time>
      </trkpt>
      <trkpt lat="39.583871" lon="2.949737">
        <ele>115</ele>
        <time>2016-04-18T16:14:26Z</time>
      </trkpt>
      <trkpt lat="39.583911" lon="2.949663">
        <ele>115.8</ele>
        <time>2016-04-18T16:14:27Z</time>
      </trkpt>
      <trkpt lat="39.584221" lon="2.949109">
        <ele>115.8</ele>
        <time>2016-04-18T16:14:35Z</time>
      </trkpt>
      <trkpt lat="39.584337" lon="2.948939">
        <ele>115.8</ele>
        <time>2016-04-18T16:14:38Z</time>
      </trkpt>
      <trkpt lat="39.584401" lon="2.948829">
        <ele>115.8</ele>
        <time>2016-04-18T16:14:40Z</time>
      </trkpt>
      <trkpt lat="39.58443" lon="2.948598">
        <ele>115.8</ele>
        <time>2016-04-18T16:14:43Z</time>
      </trkpt>
      <trkpt lat="39.584443" lon="2.948164">
        <ele>115.8</ele>
        <time>2016-04-18T16:14:48Z</time>
      </trkpt>
      <trkpt lat="39.584437" lon="2.947976">
        <ele>115.8</ele>
        <time>2016-04-18T16:14:50Z</time>
      </trkpt>
      <trkpt lat="39.58444" lon="2.947604">
        <ele>115.8</ele>
        <time>2016-04-18T16:14:54Z</time>
      </trkpt>
      <trkpt lat="39.584458" lon="2.947517">
        <ele>115.8</ele>
        <time>2016-04-18T16:14:55Z</time>
      </trkpt>
      <trkpt lat="39.584569" lon="2.947282">
        <ele>115.8</ele>
        <time>2016-04-18T16:14:58Z</time>
      </trkpt>
      <trkpt lat="39.584612" lon="2.947213">
        <ele>115.8</ele>
        <time>2016-04-18T16:14:59Z</time>
      </trkpt>
      <trkpt lat="39.584847" lon="2.946836">
        <ele>115.8</ele>
        <time>2016-04-18T16:15:05Z</time>
      </trkpt>
      <trkpt lat="39.584885" lon="2.946774">
        <ele>116.2</ele>
        <time>2016-04-18T16:15:06Z</time>
      </trkpt>
      <trkpt lat="39.584916" lon="2.946718">
        <ele>116.6</ele>
        <time>2016-04-18T16:15:07Z</time>
      </trkpt>
      <trkpt lat="39.584949" lon="2.94666">
        <ele>117</ele>
        <time>2016-04-18T16:15:08Z</time>
      </trkpt>
      <trkpt lat="39.584981" lon="2.946604">
        <ele>117.4</ele>
        <time>2016-04-18T16:15:09Z</time>
      </trkpt>
      <trkpt lat="39.585014" lon="2.946549">
        <ele>118</ele>
        <time>2016-04-18T16:15:10Z</time>
      </trkpt>
      <trkpt lat="39.585076" lon="2.94644">
        <ele>118</ele>
        <time>2016-04-18T16:15:12Z</time>
      </trkpt>
      <trkpt lat="39.585166" lon="2.946288">
        <ele>118</ele>
        <time>2016-04-18T16:15:15Z</time>
      </trkpt>
      <trkpt lat="39.585195" lon="2.946242">
        <ele>118.8</ele>
        <time>2016-04-18T16:15:16Z</time>
      </trkpt>
      <trkpt lat="39.585224" lon="2.946194">
        <ele>119.2</ele>
        <time>2016-04-18T16:15:17Z</time>
      </trkpt>
      <trkpt lat="39.585255" lon="2.946146">
        <ele>119.6</ele>
        <time>2016-04-18T16:15:18Z</time>
      </trkpt>
      <trkpt lat="39.585286" lon="2.946099">
        <ele>120</ele>
        <time>2016-04-18T16:15:19Z</time>
      </trkpt>
      <trkpt lat="39.585449" lon="2.945825">
        <ele>120</ele>
        <time>2016-04-18T16:15:24Z</time>
      </trkpt>
      <trkpt lat="39.585481" lon="2.945768">
        <ele>120</ele>
        <time>2016-04-18T16:15:25Z</time>
      </trkpt>
      <trkpt lat="39.585679" lon="2.945441">
        <ele>120</ele>
        <time>2016-04-18T16:15:31Z</time>
      </trkpt>
      <trkpt lat="39.585887" lon="2.945103">
        <ele>120.4</ele>
        <time>2016-04-18T16:15:37Z</time>
      </trkpt>
      <trkpt lat="39.585924" lon="2.945046">
        <ele>121</ele>
        <time>2016-04-18T16:15:38Z</time>
      </trkpt>
      <trkpt lat="39.585959" lon="2.944987">
        <ele>121.4</ele>
        <time>2016-04-18T16:15:39Z</time>
      </trkpt>
      <trkpt lat="39.585998" lon="2.944923">
        <ele>121.8</ele>
        <time>2016-04-18T16:15:40Z</time>
      </trkpt>
      <trkpt lat="39.586038" lon="2.944858">
        <ele>122.2</ele>
        <time>2016-04-18T16:15:41Z</time>
      </trkpt>
      <trkpt lat="39.586273" lon="2.944479">
        <ele>122.2</ele>
        <time>2016-04-18T16:15:46Z</time>
      </trkpt>
      <trkpt lat="39.586329" lon="2.944398">
        <ele>122.2</ele>
        <time>2016-04-18T16:15:47Z</time>
      </trkpt>
      <trkpt lat="39.586531" lon="2.94418">
        <ele>122.2</ele>
        <time>2016-04-18T16:15:50Z</time>
      </trkpt>
      <trkpt lat="39.586683" lon="2.944075">
        <ele>122.2</ele>
        <time>2016-04-18T16:15:52Z</time>
      </trkpt>
      <trkpt lat="39.586843" lon="2.943996">
        <ele>122.2</ele>
        <time>2016-04-18T16:15:54Z</time>
      </trkpt>
      <trkpt lat="39.586992" lon="2.943916">
        <ele>121.8</ele>
        <time>2016-04-18T16:15:56Z</time>
      </trkpt>
      <trkpt lat="39.587066" lon="2.943875">
        <ele>121.4</ele>
        <time>2016-04-18T16:15:57Z</time>
      </trkpt>
      <trkpt lat="39.58714" lon="2.943838">
        <ele>120.8</ele>
        <time>2016-04-18T16:15:58Z</time>
      </trkpt>
      <trkpt lat="39.587211" lon="2.943802">
        <ele>120.4</ele>
        <time>2016-04-18T16:15:59Z</time>
      </trkpt>
      <trkpt lat="39.587282" lon="2.943767">
        <ele>120</ele>
        <time>2016-04-18T16:16:00Z</time>
      </trkpt>
      <trkpt lat="39.587512" lon="2.943642">
        <ele>120</ele>
        <time>2016-04-18T16:16:03Z</time>
      </trkpt>
      <trkpt lat="39.587588" lon="2.943601">
        <ele>120</ele>
        <time>2016-04-18T16:16:04Z</time>
      </trkpt>
      <trkpt lat="39.587829" lon="2.943476">
        <ele>120</ele>
        <time>2016-04-18T16:16:07Z</time>
      </trkpt>
      <trkpt lat="39.587911" lon="2.943433">
        <ele>119.4</ele>
        <time>2016-04-18T16:16:08Z</time>
      </trkpt>
      <trkpt lat="39.587998" lon="2.943383">
        <ele>119</ele>
        <time>2016-04-18T16:16:09Z</time>
      </trkpt>
      <trkpt lat="39.588083" lon="2.94334">
        <ele>118.6</ele>
        <time>2016-04-18T16:16:10Z</time>
      </trkpt>
      <trkpt lat="39.588171" lon="2.943295">
        <ele>118.2</ele>
        <time>2016-04-18T16:16:11Z</time>
      </trkpt>
      <trkpt lat="39.58826" lon="2.943252">
        <ele>117.8</ele>
        <time>2016-04-18T16:16:12Z</time>
      </trkpt>
      <trkpt lat="39.588432" lon="2.943159">
        <ele>117.8</ele>
        <time>2016-04-18T16:16:14Z</time>
      </trkpt>
      <trkpt lat="39.588516" lon="2.943117">
        <ele>117.2</ele>
        <time>2016-04-18T16:16:15Z</time>
      </trkpt>
      <trkpt lat="39.588605" lon="2.943074">
        <ele>116.6</ele>
        <time>2016-04-18T16:16:16Z</time>
      </trkpt>
      <trkpt lat="39.588689" lon="2.943032">
        <ele>116</ele>
        <time>2016-04-18T16:16:17Z</time>
      </trkpt>
      <trkpt lat="39.588774" lon="2.942988">
        <ele>115.6</ele>
        <time>2016-04-18T16:16:18Z</time>
      </trkpt>
      <trkpt lat="39.588862" lon="2.942944">
        <ele>115</ele>
        <time>2016-04-18T16:16:19Z</time>
      </trkpt>
      <trkpt lat="39.588948" lon="2.942899">
        <ele>115</ele>
        <time>2016-04-18T16:16:20Z</time>
      </trkpt>
      <trkpt lat="39.589308" lon="2.94271">
        <ele>114.6</ele>
        <time>2016-04-18T16:16:24Z</time>
      </trkpt>
      <trkpt lat="39.589399" lon="2.942659">
        <ele>114.2</ele>
        <time>2016-04-18T16:16:25Z</time>
      </trkpt>
      <trkpt lat="39.589491" lon="2.94261">
        <ele>113.8</ele>
        <time>2016-04-18T16:16:26Z</time>
      </trkpt>
      <trkpt lat="39.589584" lon="2.942568">
        <ele>113.4</ele>
        <time>2016-04-18T16:16:27Z</time>
      </trkpt>
      <trkpt lat="39.589674" lon="2.94252">
        <ele>113</ele>
        <time>2016-04-18T16:16:28Z</time>
      </trkpt>
      <trkpt lat="39.589857" lon="2.942425">
        <ele>112.4</ele>
        <time>2016-04-18T16:16:30Z</time>
      </trkpt>
      <trkpt lat="39.589947" lon="2.942378">
        <ele>111.6</ele>
        <time>2016-04-18T16:16:31Z</time>
      </trkpt>
      <trkpt lat="39.590044" lon="2.942328">
        <ele>111.2</ele>
        <time>2016-04-18T16:16:32Z</time>
      </trkpt>
      <trkpt lat="39.590137" lon="2.942281">
        <ele>110.8</ele>
        <time>2016-04-18T16:16:33Z</time>
      </trkpt>
      <trkpt lat="39.59023" lon="2.942231">
        <ele>110.2</ele>
        <time>2016-04-18T16:16:34Z</time>
      </trkpt>
      <trkpt lat="39.590322" lon="2.942184">
        <ele>109.8</ele>
        <time>2016-04-18T16:16:35Z</time>
      </trkpt>
      <trkpt lat="39.590411" lon="2.942137">
        <ele>109.4</ele>
        <time>2016-04-18T16:16:36Z</time>
      </trkpt>
      <trkpt lat="39.590499" lon="2.942089">
        <ele>108.8</ele>
        <time>2016-04-18T16:16:37Z</time>
      </trkpt>
      <trkpt lat="39.590585" lon="2.942047">
        <ele>108.4</ele>
        <time>2016-04-18T16:16:38Z</time>
      </trkpt>
      <trkpt lat="39.590672" lon="2.942008">
        <ele>108.4</ele>
        <time>2016-04-18T16:16:39Z</time>
      </trkpt>
      <trkpt lat="39.590933" lon="2.94189">
        <ele>108.4</ele>
        <time>2016-04-18T16:16:42Z</time>
      </trkpt>
      <trkpt lat="39.591016" lon="2.941857">
        <ele>108.4</ele>
        <time>2016-04-18T16:16:43Z</time>
      </trkpt>
      <trkpt lat="39.591441" lon="2.94174">
        <ele>108.4</ele>
        <time>2016-04-18T16:16:48Z</time>
      </trkpt>
      <trkpt lat="39.591684" lon="2.941696">
        <ele>108.4</ele>
        <time>2016-04-18T16:16:51Z</time>
      </trkpt>
      <trkpt lat="39.59192" lon="2.941656">
        <ele>108.4</ele>
        <time>2016-04-18T16:16:54Z</time>
      </trkpt>
      <trkpt lat="39.592162" lon="2.941612">
        <ele>108.4</ele>
        <time>2016-04-18T16:16:57Z</time>
      </trkpt>
      <trkpt lat="39.592243" lon="2.941595">
        <ele>108.4</ele>
        <time>2016-04-18T16:16:58Z</time>
      </trkpt>
      <trkpt lat="39.592485" lon="2.941548">
        <ele>108.4</ele>
        <time>2016-04-18T16:17:01Z</time>
      </trkpt>
      <trkpt lat="39.592647" lon="2.941517">
        <ele>108.4</ele>
        <time>2016-04-18T16:17:03Z</time>
      </trkpt>
      <trkpt lat="39.592802" lon="2.941484">
        <ele>108.4</ele>
        <time>2016-04-18T16:17:05Z</time>
      </trkpt>
      <trkpt lat="39.593209" lon="2.94141">
        <ele>108.4</ele>
        <time>2016-04-18T16:17:10Z</time>
      </trkpt>
      <trkpt lat="39.593366" lon="2.941381">
        <ele>108.4</ele>
        <time>2016-04-18T16:17:12Z</time>
      </trkpt>
      <trkpt lat="39.593825" lon="2.9413">
        <ele>108.4</ele>
        <time>2016-04-18T16:17:18Z</time>
      </trkpt>
      <trkpt lat="39.59414" lon="2.941238">
        <ele>108.4</ele>
        <time>2016-04-18T16:17:22Z</time>
      </trkpt>
      <trkpt lat="39.594442" lon="2.941184">
        <ele>108</ele>
        <time>2016-04-18T16:17:26Z</time>
      </trkpt>
      <trkpt lat="39.594522" lon="2.94117">
        <ele>107.4</ele>
        <time>2016-04-18T16:17:27Z</time>
      </trkpt>
      <trkpt lat="39.594599" lon="2.941158">
        <ele>107</ele>
        <time>2016-04-18T16:17:28Z</time>
      </trkpt>
      <trkpt lat="39.594674" lon="2.941146">
        <ele>106.6</ele>
        <time>2016-04-18T16:17:29Z</time>
      </trkpt>
      <trkpt lat="39.594751" lon="2.941132">
        <ele>106.2</ele>
        <time>2016-04-18T16:17:30Z</time>
      </trkpt>
      <trkpt lat="39.595059" lon="2.941076">
        <ele>106.2</ele>
        <time>2016-04-18T16:17:34Z</time>
      </trkpt>
      <trkpt lat="39.595277" lon="2.941033">
        <ele>106.2</ele>
        <time>2016-04-18T16:17:37Z</time>
      </trkpt>
      <trkpt lat="39.595856" lon="2.940941">
        <ele>106.2</ele>
        <time>2016-04-18T16:17:45Z</time>
      </trkpt>
      <trkpt lat="39.596415" lon="2.940835">
        <ele>106.2</ele>
        <time>2016-04-18T16:17:53Z</time>
      </trkpt>
      <trkpt lat="39.5969" lon="2.94074">
        <ele>106.2</ele>
        <time>2016-04-18T16:18:00Z</time>
      </trkpt>
      <trkpt lat="39.597375" lon="2.940656">
        <ele>106.2</ele>
        <time>2016-04-18T16:18:07Z</time>
      </trkpt>
      <trkpt lat="39.597906" lon="2.940566">
        <ele>106.2</ele>
        <time>2016-04-18T16:18:15Z</time>
      </trkpt>
      <trkpt lat="39.598299" lon="2.94049">
        <ele>106.2</ele>
        <time>2016-04-18T16:18:21Z</time>
      </trkpt>
      <trkpt lat="39.598359" lon="2.940479">
        <ele>106.2</ele>
        <time>2016-04-18T16:18:22Z</time>
      </trkpt>
      <trkpt lat="39.598631" lon="2.940432">
        <ele>106.2</ele>
        <time>2016-04-18T16:18:27Z</time>
      </trkpt>
      <trkpt lat="39.598724" lon="2.94041">
        <ele>106.2</ele>
        <time>2016-04-18T16:18:29Z</time>
      </trkpt>
      <trkpt lat="39.59879" lon="2.940385">
        <ele>106.2</ele>
        <time>2016-04-18T16:18:32Z</time>
      </trkpt>
      <trkpt lat="39.598845" lon="2.940317">
        <ele>106.2</ele>
        <time>2016-04-18T16:18:36Z</time>
      </trkpt>
      <trkpt lat="39.598845" lon="2.940159">
        <ele>106.2</ele>
        <time>2016-04-18T16:18:39Z</time>
      </trkpt>
      <trkpt lat="39.598819" lon="2.939819">
        <ele>106.2</ele>
        <time>2016-04-18T16:18:44Z</time>
      </trkpt>
      <trkpt lat="39.598776" lon="2.93939">
        <ele>106.2</ele>
        <time>2016-04-18T16:18:49Z</time>
      </trkpt>
      <trkpt lat="39.598712" lon="2.938773">
        <ele>106.2</ele>
        <time>2016-04-18T16:18:56Z</time>
      </trkpt>
      <trkpt lat="39.598646" lon="2.938216">
        <ele>106.2</ele>
        <time>2016-04-18T16:19:02Z</time>
      </trkpt>
      <trkpt lat="39.598597" lon="2.937747">
        <ele>106.2</ele>
        <time>2016-04-18T16:19:07Z</time>
      </trkpt>
      <trkpt lat="39.598526" lon="2.937189">
        <ele>106.2</ele>
        <time>2016-04-18T16:19:13Z</time>
      </trkpt>
      <trkpt lat="39.59851" lon="2.937012">
        <ele>106.2</ele>
        <time>2016-04-18T16:19:15Z</time>
      </trkpt>
      <trkpt lat="39.598495" lon="2.93685">
        <ele>106.6</ele>
        <time>2016-04-18T16:19:17Z</time>
      </trkpt>
      <trkpt lat="39.598488" lon="2.936777">
        <ele>107</ele>
        <time>2016-04-18T16:19:18Z</time>
      </trkpt>
      <trkpt lat="39.598481" lon="2.936706">
        <ele>107.6</ele>
        <time>2016-04-18T16:19:19Z</time>
      </trkpt>
      <trkpt lat="39.598474" lon="2.936642">
        <ele>108</ele>
        <time>2016-04-18T16:19:20Z</time>
      </trkpt>
      <trkpt lat="39.598468" lon="2.93658">
        <ele>108.4</ele>
        <time>2016-04-18T16:19:21Z</time>
      </trkpt>
      <trkpt lat="39.598464" lon="2.936518">
        <ele>109</ele>
        <time>2016-04-18T16:19:22Z</time>
      </trkpt>
      <trkpt lat="39.598458" lon="2.936457">
        <ele>109.6</ele>
        <time>2016-04-18T16:19:23Z</time>
      </trkpt>
      <trkpt lat="39.598451" lon="2.936396">
        <ele>110.6</ele>
        <time>2016-04-18T16:19:24Z</time>
      </trkpt>
      <trkpt lat="39.598445" lon="2.936337">
        <ele>111.2</ele>
        <time>2016-04-18T16:19:25Z</time>
      </trkpt>
      <trkpt lat="39.598438" lon="2.936278">
        <ele>111.8</ele>
        <time>2016-04-18T16:19:26Z</time>
      </trkpt>
      <trkpt lat="39.598431" lon="2.936222">
        <ele>112.4</ele>
        <time>2016-04-18T16:19:27Z</time>
      </trkpt>
      <trkpt lat="39.598426" lon="2.936167">
        <ele>113</ele>
        <time>2016-04-18T16:19:28Z</time>
      </trkpt>
      <trkpt lat="39.598395" lon="2.935901">
        <ele>113.4</ele>
        <time>2016-04-18T16:19:33Z</time>
      </trkpt>
      <trkpt lat="39.59839" lon="2.935847">
        <ele>113.8</ele>
        <time>2016-04-18T16:19:34Z</time>
      </trkpt>
      <trkpt lat="39.598386" lon="2.935799">
        <ele>114.2</ele>
        <time>2016-04-18T16:19:35Z</time>
      </trkpt>
      <trkpt lat="39.598383" lon="2.935749">
        <ele>114.6</ele>
        <time>2016-04-18T16:19:36Z</time>
      </trkpt>
      <trkpt lat="39.598377" lon="2.935698">
        <ele>115</ele>
        <time>2016-04-18T16:19:37Z</time>
      </trkpt>
      <trkpt lat="39.598359" lon="2.93549">
        <ele>115.4</ele>
        <time>2016-04-18T16:19:41Z</time>
      </trkpt>
      <trkpt lat="39.598356" lon="2.935436">
        <ele>116</ele>
        <time>2016-04-18T16:19:42Z</time>
      </trkpt>
      <trkpt lat="39.598352" lon="2.935385">
        <ele>116.4</ele>
        <time>2016-04-18T16:19:43Z</time>
      </trkpt>
      <trkpt lat="39.598346" lon="2.935335">
        <ele>116.8</ele>
        <time>2016-04-18T16:19:44Z</time>
      </trkpt>
      <trkpt lat="39.598341" lon="2.935283">
        <ele>117.4</ele>
        <time>2016-04-18T16:19:45Z</time>
      </trkpt>
      <trkpt lat="39.598317" lon="2.935035">
        <ele>117.8</ele>
        <time>2016-04-18T16:19:50Z</time>
      </trkpt>
      <trkpt lat="39.59831" lon="2.934984">
        <ele>118.2</ele>
        <time>2016-04-18T16:19:51Z</time>
      </trkpt>
      <trkpt lat="39.5983" lon="2.934932">
        <ele>118.8</ele>
        <time>2016-04-18T16:19:52Z</time>
      </trkpt>
      <trkpt lat="39.598291" lon="2.934882">
        <ele>119.2</ele>
        <time>2016-04-18T16:19:53Z</time>
      </trkpt>
      <trkpt lat="39.598281" lon="2.934834">
        <ele>119.6</ele>
        <time>2016-04-18T16:19:54Z</time>
      </trkpt>
      <trkpt lat="39.598259" lon="2.934737">
        <ele>120</ele>
        <time>2016-04-18T16:19:56Z</time>
      </trkpt>
      <trkpt lat="39.598249" lon="2.93469">
        <ele>120.4</ele>
        <time>2016-04-18T16:19:57Z</time>
      </trkpt>
      <trkpt lat="39.598237" lon="2.934643">
        <ele>120.8</ele>
        <time>2016-04-18T16:19:58Z</time>
      </trkpt>
      <trkpt lat="39.598224" lon="2.934597">
        <ele>121.4</ele>
        <time>2016-04-18T16:19:59Z</time>
      </trkpt>
      <trkpt lat="39.59821" lon="2.934549">
        <ele>121.8</ele>
        <time>2016-04-18T16:20:00Z</time>
      </trkpt>
      <trkpt lat="39.59813" lon="2.934259">
        <ele>122.2</ele>
        <time>2016-04-18T16:20:07Z</time>
      </trkpt>
      <trkpt lat="39.598117" lon="2.934212">
        <ele>122.6</ele>
        <time>2016-04-18T16:20:08Z</time>
      </trkpt>
      <trkpt lat="39.598102" lon="2.934167">
        <ele>123</ele>
        <time>2016-04-18T16:20:09Z</time>
      </trkpt>
      <trkpt lat="39.598087" lon="2.934116">
        <ele>123.6</ele>
        <time>2016-04-18T16:20:10Z</time>
      </trkpt>
      <trkpt lat="39.598072" lon="2.934065">
        <ele>124</ele>
        <time>2016-04-18T16:20:11Z</time>
      </trkpt>
      <trkpt lat="39.597989" lon="2.933761">
        <ele>124.4</ele>
        <time>2016-04-18T16:20:17Z</time>
      </trkpt>
      <trkpt lat="39.597975" lon="2.933709">
        <ele>124.8</ele>
        <time>2016-04-18T16:20:18Z</time>
      </trkpt>
      <trkpt lat="39.597963" lon="2.933655">
        <ele>125.4</ele>
        <time>2016-04-18T16:20:19Z</time>
      </trkpt>
      <trkpt lat="39.597946" lon="2.933598">
        <ele>125.8</ele>
        <time>2016-04-18T16:20:20Z</time>
      </trkpt>
      <trkpt lat="39.597933" lon="2.933541">
        <ele>126.2</ele>
        <time>2016-04-18T16:20:21Z</time>
      </trkpt>
      <trkpt lat="39.597892" lon="2.933377">
        <ele>126.2</ele>
        <time>2016-04-18T16:20:24Z</time>
      </trkpt>
      <trkpt lat="39.59789" lon="2.933314">
        <ele>126.2</ele>
        <time>2016-04-18T16:20:25Z</time>
      </trkpt>
      <trkpt lat="39.597923" lon="2.933192">
        <ele>126.2</ele>
        <time>2016-04-18T16:20:27Z</time>
      </trkpt>
      <trkpt lat="39.597972" lon="2.933083">
        <ele>126.2</ele>
        <time>2016-04-18T16:20:29Z</time>
      </trkpt>
      <trkpt lat="39.59807" lon="2.93288">
        <ele>126.2</ele>
        <time>2016-04-18T16:20:33Z</time>
      </trkpt>
      <trkpt lat="39.598256" lon="2.932484">
        <ele>126.6</ele>
        <time>2016-04-18T16:20:40Z</time>
      </trkpt>
      <trkpt lat="39.598283" lon="2.932423">
        <ele>127</ele>
        <time>2016-04-18T16:20:41Z</time>
      </trkpt>
      <trkpt lat="39.59831" lon="2.932363">
        <ele>127.4</ele>
        <time>2016-04-18T16:20:42Z</time>
      </trkpt>
      <trkpt lat="39.598336" lon="2.932302">
        <ele>127.8</ele>
        <time>2016-04-18T16:20:43Z</time>
      </trkpt>
      <trkpt lat="39.598366" lon="2.932239">
        <ele>128.4</ele>
        <time>2016-04-18T16:20:44Z</time>
      </trkpt>
      <trkpt lat="39.598569" lon="2.931802">
        <ele>128.4</ele>
        <time>2016-04-18T16:20:51Z</time>
      </trkpt>
      <trkpt lat="39.598855" lon="2.931194">
        <ele>128.8</ele>
        <time>2016-04-18T16:21:01Z</time>
      </trkpt>
      <trkpt lat="39.598883" lon="2.931132">
        <ele>129.2</ele>
        <time>2016-04-18T16:21:02Z</time>
      </trkpt>
      <trkpt lat="39.598912" lon="2.93107">
        <ele>130</ele>
        <time>2016-04-18T16:21:03Z</time>
      </trkpt>
      <trkpt lat="39.59894" lon="2.931008">
        <ele>130.4</ele>
        <time>2016-04-18T16:21:04Z</time>
      </trkpt>
      <trkpt lat="39.599071" lon="2.930733">
        <ele>130.4</ele>
        <time>2016-04-18T16:21:09Z</time>
      </trkpt>
      <trkpt lat="39.599121" lon="2.930633">
        <ele>130.8</ele>
        <time>2016-04-18T16:21:11Z</time>
      </trkpt>
      <trkpt lat="39.599145" lon="2.930583">
        <ele>131.2</ele>
        <time>2016-04-18T16:21:12Z</time>
      </trkpt>
      <trkpt lat="39.59917" lon="2.93053">
        <ele>131.6</ele>
        <time>2016-04-18T16:21:13Z</time>
      </trkpt>
      <trkpt lat="39.599195" lon="2.930474">
        <ele>132</ele>
        <time>2016-04-18T16:21:14Z</time>
      </trkpt>
      <trkpt lat="39.599218" lon="2.93042">
        <ele>132.6</ele>
        <time>2016-04-18T16:21:15Z</time>
      </trkpt>
      <trkpt lat="39.599269" lon="2.93032">
        <ele>132.6</ele>
        <time>2016-04-18T16:21:17Z</time>
      </trkpt>
      <trkpt lat="39.599317" lon="2.930222">
        <ele>133</ele>
        <time>2016-04-18T16:21:19Z</time>
      </trkpt>
      <trkpt lat="39.599342" lon="2.930171">
        <ele>133.4</ele>
        <time>2016-04-18T16:21:20Z</time>
      </trkpt>
      <trkpt lat="39.599367" lon="2.930121">
        <ele>133.8</ele>
        <time>2016-04-18T16:21:21Z</time>
      </trkpt>
      <trkpt lat="39.599393" lon="2.930072">
        <ele>134.2</ele>
        <time>2016-04-18T16:21:22Z</time>
      </trkpt>
      <trkpt lat="39.59942" lon="2.930021">
        <ele>134.6</ele>
        <time>2016-04-18T16:21:23Z</time>
      </trkpt>
      <trkpt lat="39.599505" lon="2.92987">
        <ele>134.6</ele>
        <time>2016-04-18T16:21:26Z</time>
      </trkpt>
      <trkpt lat="39.599714" lon="2.929521">
        <ele>134.6</ele>
        <time>2016-04-18T16:21:32Z</time>
      </trkpt>
      <trkpt lat="39.599983" lon="2.929066">
        <ele>134.6</ele>
        <time>2016-04-18T16:21:39Z</time>
      </trkpt>
      <trkpt lat="39.60003" lon="2.929012">
        <ele>134.6</ele>
        <time>2016-04-18T16:21:40Z</time>
      </trkpt>
      <trkpt lat="39.600201" lon="2.928896">
        <ele>134.6</ele>
        <time>2016-04-18T16:21:43Z</time>
      </trkpt>
      <trkpt lat="39.600533" lon="2.928706">
        <ele>134.6</ele>
        <time>2016-04-18T16:21:49Z</time>
      </trkpt>
      <trkpt lat="39.600585" lon="2.928676">
        <ele>134.6</ele>
        <time>2016-04-18T16:21:50Z</time>
      </trkpt>
      <trkpt lat="39.600995" lon="2.928462">
        <ele>134.6</ele>
        <time>2016-04-18T16:21:58Z</time>
      </trkpt>
      <trkpt lat="39.601405" lon="2.928331">
        <ele>134.6</ele>
        <time>2016-04-18T16:22:05Z</time>
      </trkpt>
      <trkpt lat="39.601865" lon="2.928249">
        <ele>134.6</ele>
        <time>2016-04-18T16:22:12Z</time>
      </trkpt>
      <trkpt lat="39.602319" lon="2.928159">
        <ele>134.6</ele>
        <time>2016-04-18T16:22:19Z</time>
      </trkpt>
      <trkpt lat="39.602452" lon="2.928134">
        <ele>134.6</ele>
        <time>2016-04-18T16:22:21Z</time>
      </trkpt>
      <trkpt lat="39.602856" lon="2.928057">
        <ele>134.6</ele>
        <time>2016-04-18T16:22:27Z</time>
      </trkpt>
      <trkpt lat="39.602993" lon="2.928032">
        <ele>134.6</ele>
        <time>2016-04-18T16:22:29Z</time>
      </trkpt>
      <trkpt lat="39.603201" lon="2.927998">
        <ele>134.2</ele>
        <time>2016-04-18T16:22:32Z</time>
      </trkpt>
      <trkpt lat="39.603276" lon="2.927982">
        <ele>133.8</ele>
        <time>2016-04-18T16:22:33Z</time>
      </trkpt>
      <trkpt lat="39.603348" lon="2.92797">
        <ele>133.4</ele>
        <time>2016-04-18T16:22:34Z</time>
      </trkpt>
      <trkpt lat="39.603419" lon="2.927958">
        <ele>133</ele>
        <time>2016-04-18T16:22:35Z</time>
      </trkpt>
      <trkpt lat="39.603491" lon="2.927946">
        <ele>132.6</ele>
        <time>2016-04-18T16:22:36Z</time>
      </trkpt>
      <trkpt lat="39.603997" lon="2.92789">
        <ele>132.6</ele>
        <time>2016-04-18T16:22:43Z</time>
      </trkpt>
      <trkpt lat="39.604602" lon="2.927845">
        <ele>132.6</ele>
        <time>2016-04-18T16:22:51Z</time>
      </trkpt>
      <trkpt lat="39.604986" lon="2.927847">
        <ele>132.2</ele>
        <time>2016-04-18T16:22:56Z</time>
      </trkpt>
      <trkpt lat="39.605065" lon="2.927854">
        <ele>131.6</ele>
        <time>2016-04-18T16:22:57Z</time>
      </trkpt>
      <trkpt lat="39.60514" lon="2.927865">
        <ele>131.2</ele>
        <time>2016-04-18T16:22:58Z</time>
      </trkpt>
      <trkpt lat="39.605216" lon="2.92788">
        <ele>130.8</ele>
        <time>2016-04-18T16:22:59Z</time>
      </trkpt>
      <trkpt lat="39.605291" lon="2.927894">
        <ele>130.4</ele>
        <time>2016-04-18T16:23:00Z</time>
      </trkpt>
      <trkpt lat="39.605513" lon="2.92793">
        <ele>130.4</ele>
        <time>2016-04-18T16:23:03Z</time>
      </trkpt>
      <trkpt lat="39.605865" lon="2.927919">
        <ele>130.4</ele>
        <time>2016-04-18T16:23:08Z</time>
      </trkpt>
      <trkpt lat="39.605985" lon="2.92789">
        <ele>130.4</ele>
        <time>2016-04-18T16:23:10Z</time>
      </trkpt>
      <trkpt lat="39.606155" lon="2.927837">
        <ele>130.8</ele>
        <time>2016-04-18T16:23:13Z</time>
      </trkpt>
      <trkpt lat="39.606209" lon="2.927816">
        <ele>131.4</ele>
        <time>2016-04-18T16:23:14Z</time>
      </trkpt>
      <trkpt lat="39.606257" lon="2.92779">
        <ele>131.8</ele>
        <time>2016-04-18T16:23:15Z</time>
      </trkpt>
      <trkpt lat="39.606302" lon="2.927767">
        <ele>132.2</ele>
        <time>2016-04-18T16:23:16Z</time>
      </trkpt>
      <trkpt lat="39.606345" lon="2.927747">
        <ele>132.8</ele>
        <time>2016-04-18T16:23:17Z</time>
      </trkpt>
      <trkpt lat="39.606415" lon="2.927707">
        <ele>132.8</ele>
        <time>2016-04-18T16:23:19Z</time>
      </trkpt>
      <trkpt lat="39.606443" lon="2.927687">
        <ele>133.2</ele>
        <time>2016-04-18T16:23:20Z</time>
      </trkpt>
      <trkpt lat="39.606467" lon="2.927663">
        <ele>133.8</ele>
        <time>2016-04-18T16:23:21Z</time>
      </trkpt>
      <trkpt lat="39.606495" lon="2.927645">
        <ele>134.4</ele>
        <time>2016-04-18T16:23:22Z</time>
      </trkpt>
      <trkpt lat="39.606525" lon="2.927632">
        <ele>134.8</ele>
        <time>2016-04-18T16:23:23Z</time>
      </trkpt>
      <trkpt lat="39.606556" lon="2.927617">
        <ele>135.4</ele>
        <time>2016-04-18T16:23:24Z</time>
      </trkpt>
      <trkpt lat="39.606666" lon="2.927551">
        <ele>135.8</ele>
        <time>2016-04-18T16:23:28Z</time>
      </trkpt>
      <trkpt lat="39.606696" lon="2.927534">
        <ele>136.2</ele>
        <time>2016-04-18T16:23:29Z</time>
      </trkpt>
      <trkpt lat="39.606726" lon="2.927512">
        <ele>136.6</ele>
        <time>2016-04-18T16:23:30Z</time>
      </trkpt>
      <trkpt lat="39.606759" lon="2.927498">
        <ele>137.6</ele>
        <time>2016-04-18T16:23:31Z</time>
      </trkpt>
      <trkpt lat="39.606887" lon="2.927436">
        <ele>137.6</ele>
        <time>2016-04-18T16:23:35Z</time>
      </trkpt>
      <trkpt lat="39.606918" lon="2.92743">
        <ele>138</ele>
        <time>2016-04-18T16:23:36Z</time>
      </trkpt>
      <trkpt lat="39.606953" lon="2.92743">
        <ele>138.4</ele>
        <time>2016-04-18T16:23:37Z</time>
      </trkpt>
      <trkpt lat="39.60699" lon="2.927434">
        <ele>139</ele>
        <time>2016-04-18T16:23:38Z</time>
      </trkpt>
      <trkpt lat="39.607024" lon="2.927436">
        <ele>139.4</ele>
        <time>2016-04-18T16:23:39Z</time>
      </trkpt>
      <trkpt lat="39.607057" lon="2.927439">
        <ele>139.8</ele>
        <time>2016-04-18T16:23:40Z</time>
      </trkpt>
      <trkpt lat="39.607245" lon="2.927463">
        <ele>139.8</ele>
        <time>2016-04-18T16:23:45Z</time>
      </trkpt>
      <trkpt lat="39.607375" lon="2.927489">
        <ele>140.2</ele>
        <time>2016-04-18T16:23:48Z</time>
      </trkpt>
      <trkpt lat="39.60742" lon="2.9275">
        <ele>140.6</ele>
        <time>2016-04-18T16:23:49Z</time>
      </trkpt>
      <trkpt lat="39.607468" lon="2.927513">
        <ele>141</ele>
        <time>2016-04-18T16:23:50Z</time>
      </trkpt>
      <trkpt lat="39.607516" lon="2.927526">
        <ele>141.4</ele>
        <time>2016-04-18T16:23:51Z</time>
      </trkpt>
      <trkpt lat="39.607563" lon="2.927532">
        <ele>141.8</ele>
        <time>2016-04-18T16:23:52Z</time>
      </trkpt>
      <trkpt lat="39.607827" lon="2.927576">
        <ele>141.8</ele>
        <time>2016-04-18T16:23:58Z</time>
      </trkpt>
      <trkpt lat="39.607967" lon="2.927614">
        <ele>141.8</ele>
        <time>2016-04-18T16:24:01Z</time>
      </trkpt>
      <trkpt lat="39.60808" lon="2.927678">
        <ele>141.8</ele>
        <time>2016-04-18T16:24:03Z</time>
      </trkpt>
      <trkpt lat="39.608271" lon="2.927804">
        <ele>141.2</ele>
        <time>2016-04-18T16:24:06Z</time>
      </trkpt>
      <trkpt lat="39.608338" lon="2.927862">
        <ele>140.8</ele>
        <time>2016-04-18T16:24:07Z</time>
      </trkpt>
      <trkpt lat="39.608399" lon="2.927925">
        <ele>140.2</ele>
        <time>2016-04-18T16:24:08Z</time>
      </trkpt>
      <trkpt lat="39.60846" lon="2.927991">
        <ele>139.8</ele>
        <time>2016-04-18T16:24:09Z</time>
      </trkpt>
      <trkpt lat="39.608527" lon="2.928057">
        <ele>139.2</ele>
        <time>2016-04-18T16:24:10Z</time>
      </trkpt>
      <trkpt lat="39.608597" lon="2.928119">
        <ele>138.8</ele>
        <time>2016-04-18T16:24:11Z</time>
      </trkpt>
      <trkpt lat="39.608672" lon="2.928177">
        <ele>138.2</ele>
        <time>2016-04-18T16:24:12Z</time>
      </trkpt>
      <trkpt lat="39.608753" lon="2.928229">
        <ele>137.8</ele>
        <time>2016-04-18T16:24:13Z</time>
      </trkpt>
      <trkpt lat="39.608837" lon="2.928282">
        <ele>137.4</ele>
        <time>2016-04-18T16:24:14Z</time>
      </trkpt>
      <trkpt lat="39.608928" lon="2.928338">
        <ele>136.8</ele>
        <time>2016-04-18T16:24:15Z</time>
      </trkpt>
      <trkpt lat="39.609017" lon="2.928393">
        <ele>136.2</ele>
        <time>2016-04-18T16:24:16Z</time>
      </trkpt>
      <trkpt lat="39.609107" lon="2.928449">
        <ele>135.6</ele>
        <time>2016-04-18T16:24:17Z</time>
      </trkpt>
      <trkpt lat="39.609197" lon="2.928503">
        <ele>134.8</ele>
        <time>2016-04-18T16:24:18Z</time>
      </trkpt>
      <trkpt lat="39.609287" lon="2.928557">
        <ele>134</ele>
        <time>2016-04-18T16:24:19Z</time>
      </trkpt>
      <trkpt lat="39.609376" lon="2.928611">
        <ele>133</ele>
        <time>2016-04-18T16:24:20Z</time>
      </trkpt>
      <trkpt lat="39.609467" lon="2.928655">
        <ele>131</ele>
        <time>2016-04-18T16:24:21Z</time>
      </trkpt>
      <trkpt lat="39.609559" lon="2.928685">
        <ele>130</ele>
        <time>2016-04-18T16:24:22Z</time>
      </trkpt>
      <trkpt lat="39.609661" lon="2.928712">
        <ele>129</ele>
        <time>2016-04-18T16:24:23Z</time>
      </trkpt>
      <trkpt lat="39.609757" lon="2.928739">
        <ele>128.6</ele>
        <time>2016-04-18T16:24:24Z</time>
      </trkpt>
      <trkpt lat="39.609856" lon="2.928762">
        <ele>128.2</ele>
        <time>2016-04-18T16:24:25Z</time>
      </trkpt>
      <trkpt lat="39.609957" lon="2.928787">
        <ele>127.8</ele>
        <time>2016-04-18T16:24:26Z</time>
      </trkpt>
      <trkpt lat="39.610056" lon="2.928813">
        <ele>127.4</ele>
        <time>2016-04-18T16:24:27Z</time>
      </trkpt>
      <trkpt lat="39.610154" lon="2.928836">
        <ele>127</ele>
        <time>2016-04-18T16:24:28Z</time>
      </trkpt>
      <trkpt lat="39.610254" lon="2.92885">
        <ele>126.6</ele>
        <time>2016-04-18T16:24:29Z</time>
      </trkpt>
      <trkpt lat="39.610357" lon="2.928859">
        <ele>126.2</ele>
        <time>2016-04-18T16:24:30Z</time>
      </trkpt>
      <trkpt lat="39.610458" lon="2.928859">
        <ele>125.8</ele>
        <time>2016-04-18T16:24:31Z</time>
      </trkpt>
      <trkpt lat="39.610557" lon="2.928866">
        <ele>125.2</ele>
        <time>2016-04-18T16:24:32Z</time>
      </trkpt>
      <trkpt lat="39.610654" lon="2.92887">
        <ele>124.8</ele>
        <time>2016-04-18T16:24:33Z</time>
      </trkpt>
      <trkpt lat="39.610963" lon="2.92888">
        <ele>124.8</ele>
        <time>2016-04-18T16:24:36Z</time>
      </trkpt>
      <trkpt lat="39.611273" lon="2.928884">
        <ele>124.8</ele>
        <time>2016-04-18T16:24:39Z</time>
      </trkpt>
      <trkpt lat="39.611369" lon="2.928886">
        <ele>124.4</ele>
        <time>2016-04-18T16:24:40Z</time>
      </trkpt>
      <trkpt lat="39.611469" lon="2.928888">
        <ele>123.8</ele>
        <time>2016-04-18T16:24:41Z</time>
      </trkpt>
      <trkpt lat="39.611565" lon="2.928884">
        <ele>123.4</ele>
        <time>2016-04-18T16:24:42Z</time>
      </trkpt>
      <trkpt lat="39.611662" lon="2.928884">
        <ele>123</ele>
        <time>2016-04-18T16:24:43Z</time>
      </trkpt>
      <trkpt lat="39.611756" lon="2.928883">
        <ele>122.4</ele>
        <time>2016-04-18T16:24:44Z</time>
      </trkpt>
      <trkpt lat="39.611859" lon="2.928875">
        <ele>121.6</ele>
        <time>2016-04-18T16:24:45Z</time>
      </trkpt>
      <trkpt lat="39.611961" lon="2.92887">
        <ele>121.2</ele>
        <time>2016-04-18T16:24:46Z</time>
      </trkpt>
      <trkpt lat="39.61206" lon="2.928854">
        <ele>120.8</ele>
        <time>2016-04-18T16:24:47Z</time>
      </trkpt>
      <trkpt lat="39.612161" lon="2.928831">
        <ele>120.4</ele>
        <time>2016-04-18T16:24:48Z</time>
      </trkpt>
      <trkpt lat="39.612365" lon="2.928777">
        <ele>120</ele>
        <time>2016-04-18T16:24:50Z</time>
      </trkpt>
      <trkpt lat="39.612466" lon="2.928744">
        <ele>119.4</ele>
        <time>2016-04-18T16:24:51Z</time>
      </trkpt>
      <trkpt lat="39.612566" lon="2.928712">
        <ele>119</ele>
        <time>2016-04-18T16:24:52Z</time>
      </trkpt>
      <trkpt lat="39.61267" lon="2.92868">
        <ele>118.2</ele>
        <time>2016-04-18T16:24:53Z</time>
      </trkpt>
      <trkpt lat="39.61279" lon="2.92864">
        <ele>117.6</ele>
        <time>2016-04-18T16:24:54Z</time>
      </trkpt>
      <trkpt lat="39.6129" lon="2.92861">
        <ele>116.8</ele>
        <time>2016-04-18T16:24:55Z</time>
      </trkpt>
      <trkpt lat="39.613009" lon="2.92858">
        <ele>116.2</ele>
        <time>2016-04-18T16:24:56Z</time>
      </trkpt>
      <trkpt lat="39.613119" lon="2.928554">
        <ele>115.4</ele>
        <time>2016-04-18T16:24:57Z</time>
      </trkpt>
      <trkpt lat="39.613238" lon="2.928531">
        <ele>114.6</ele>
        <time>2016-04-18T16:24:58Z</time>
      </trkpt>
      <trkpt lat="39.613352" lon="2.928525">
        <ele>113.8</ele>
        <time>2016-04-18T16:24:59Z</time>
      </trkpt>
      <trkpt lat="39.613464" lon="2.928537">
        <ele>113</ele>
        <time>2016-04-18T16:25:00Z</time>
      </trkpt>
      <trkpt lat="39.613574" lon="2.928559">
        <ele>112.2</ele>
        <time>2016-04-18T16:25:01Z</time>
      </trkpt>
      <trkpt lat="39.613691" lon="2.928596">
        <ele>111.4</ele>
        <time>2016-04-18T16:25:02Z</time>
      </trkpt>
      <trkpt lat="39.613796" lon="2.928653">
        <ele>110.6</ele>
        <time>2016-04-18T16:25:03Z</time>
      </trkpt>
      <trkpt lat="39.613901" lon="2.928712">
        <ele>109.8</ele>
        <time>2016-04-18T16:25:04Z</time>
      </trkpt>
      <trkpt lat="39.613998" lon="2.928784">
        <ele>109.2</ele>
        <time>2016-04-18T16:25:05Z</time>
      </trkpt>
      <trkpt lat="39.614094" lon="2.928859">
        <ele>108.4</ele>
        <time>2016-04-18T16:25:06Z</time>
      </trkpt>
      <trkpt lat="39.614189" lon="2.928932">
        <ele>107.8</ele>
        <time>2016-04-18T16:25:07Z</time>
      </trkpt>
      <trkpt lat="39.614282" lon="2.929008">
        <ele>107.2</ele>
        <time>2016-04-18T16:25:08Z</time>
      </trkpt>
      <trkpt lat="39.614378" lon="2.92908">
        <ele>106.6</ele>
        <time>2016-04-18T16:25:09Z</time>
      </trkpt>
      <trkpt lat="39.614819" lon="2.92941">
        <ele>106.6</ele>
        <time>2016-04-18T16:25:14Z</time>
      </trkpt>
      <trkpt lat="39.614906" lon="2.929475">
        <ele>106.6</ele>
        <time>2016-04-18T16:25:15Z</time>
      </trkpt>
      <trkpt lat="39.614989" lon="2.929539">
        <ele>106.6</ele>
        <time>2016-04-18T16:25:16Z</time>
      </trkpt>
      <trkpt lat="39.615073" lon="2.929603">
        <ele>106.6</ele>
        <time>2016-04-18T16:25:17Z</time>
      </trkpt>
      <trkpt lat="39.61516" lon="2.929666">
        <ele>106.6</ele>
        <time>2016-04-18T16:25:18Z</time>
      </trkpt>
      <trkpt lat="39.615244" lon="2.929729">
        <ele>106.6</ele>
        <time>2016-04-18T16:25:19Z</time>
      </trkpt>
      <trkpt lat="39.615408" lon="2.929848">
        <ele>106.6</ele>
        <time>2016-04-18T16:25:21Z</time>
      </trkpt>
      <trkpt lat="39.615484" lon="2.929905">
        <ele>106.6</ele>
        <time>2016-04-18T16:25:22Z</time>
      </trkpt>
      <trkpt lat="39.615811" lon="2.93009">
        <ele>106.6</ele>
        <time>2016-04-18T16:25:26Z</time>
      </trkpt>
      <trkpt lat="39.615906" lon="2.93012">
        <ele>106.6</ele>
        <time>2016-04-18T16:25:27Z</time>
      </trkpt>
      <trkpt lat="39.616003" lon="2.930139">
        <ele>106</ele>
        <time>2016-04-18T16:25:28Z</time>
      </trkpt>
      <trkpt lat="39.616108" lon="2.93015">
        <ele>105.6</ele>
        <time>2016-04-18T16:25:29Z</time>
      </trkpt>
      <trkpt lat="39.616222" lon="2.930155">
        <ele>105</ele>
        <time>2016-04-18T16:25:30Z</time>
      </trkpt>
      <trkpt lat="39.616337" lon="2.930158">
        <ele>104.2</ele>
        <time>2016-04-18T16:25:31Z</time>
      </trkpt>
      <trkpt lat="39.616447" lon="2.93016">
        <ele>103.4</ele>
        <time>2016-04-18T16:25:32Z</time>
      </trkpt>
      <trkpt lat="39.616563" lon="2.930157">
        <ele>102.6</ele>
        <time>2016-04-18T16:25:33Z</time>
      </trkpt>
      <trkpt lat="39.616671" lon="2.930152">
        <ele>101.2</ele>
        <time>2016-04-18T16:25:34Z</time>
      </trkpt>
      <trkpt lat="39.616776" lon="2.930147">
        <ele>100.4</ele>
        <time>2016-04-18T16:25:35Z</time>
      </trkpt>
      <trkpt lat="39.616877" lon="2.930145">
        <ele>99.6</ele>
        <time>2016-04-18T16:25:36Z</time>
      </trkpt>
      <trkpt lat="39.616976" lon="2.930135">
        <ele>98.8</ele>
        <time>2016-04-18T16:25:37Z</time>
      </trkpt>
      <trkpt lat="39.617172" lon="2.930116">
        <ele>98.8</ele>
        <time>2016-04-18T16:25:39Z</time>
      </trkpt>
      <trkpt lat="39.617364" lon="2.930106">
        <ele>98.8</ele>
        <time>2016-04-18T16:25:41Z</time>
      </trkpt>
      <trkpt lat="39.61752" lon="2.930105">
        <ele>98.8</ele>
        <time>2016-04-18T16:25:43Z</time>
      </trkpt>
      <trkpt lat="39.617599" lon="2.930096">
        <ele>99.2</ele>
        <time>2016-04-18T16:25:44Z</time>
      </trkpt>
      <trkpt lat="39.617677" lon="2.930092">
        <ele>99.8</ele>
        <time>2016-04-18T16:25:45Z</time>
      </trkpt>
      <trkpt lat="39.617744" lon="2.930088">
        <ele>100.2</ele>
        <time>2016-04-18T16:25:46Z</time>
      </trkpt>
      <trkpt lat="39.61782" lon="2.93008">
        <ele>100.6</ele>
        <time>2016-04-18T16:25:47Z</time>
      </trkpt>
      <trkpt lat="39.617902" lon="2.930068">
        <ele>101.2</ele>
        <time>2016-04-18T16:25:48Z</time>
      </trkpt>
      <trkpt lat="39.617985" lon="2.930057">
        <ele>101.8</ele>
        <time>2016-04-18T16:25:49Z</time>
      </trkpt>
      <trkpt lat="39.618065" lon="2.930038">
        <ele>102.2</ele>
        <time>2016-04-18T16:25:50Z</time>
      </trkpt>
      <trkpt lat="39.618145" lon="2.930012">
        <ele>102.8</ele>
        <time>2016-04-18T16:25:51Z</time>
      </trkpt>
      <trkpt lat="39.618225" lon="2.929988">
        <ele>103.4</ele>
        <time>2016-04-18T16:25:52Z</time>
      </trkpt>
      <trkpt lat="39.618714" lon="2.929839">
        <ele>103.4</ele>
        <time>2016-04-18T16:25:58Z</time>
      </trkpt>
      <trkpt lat="39.618994" lon="2.929754">
        <ele>102.8</ele>
        <time>2016-04-18T16:26:01Z</time>
      </trkpt>
      <trkpt lat="39.619091" lon="2.929727">
        <ele>102.4</ele>
        <time>2016-04-18T16:26:02Z</time>
      </trkpt>
      <trkpt lat="39.619192" lon="2.9297">
        <ele>101.6</ele>
        <time>2016-04-18T16:26:03Z</time>
      </trkpt>
      <trkpt lat="39.619299" lon="2.929675">
        <ele>100.8</ele>
        <time>2016-04-18T16:26:04Z</time>
      </trkpt>
      <trkpt lat="39.619401" lon="2.929656">
        <ele>99.8</ele>
        <time>2016-04-18T16:26:05Z</time>
      </trkpt>
      <trkpt lat="39.619501" lon="2.929647">
        <ele>99</ele>
        <time>2016-04-18T16:26:06Z</time>
      </trkpt>
      <trkpt lat="39.6196" lon="2.929647">
        <ele>98</ele>
        <time>2016-04-18T16:26:07Z</time>
      </trkpt>
      <trkpt lat="39.619699" lon="2.92965">
        <ele>97.2</ele>
        <time>2016-04-18T16:26:08Z</time>
      </trkpt>
      <trkpt lat="39.619795" lon="2.929655">
        <ele>96.2</ele>
        <time>2016-04-18T16:26:09Z</time>
      </trkpt>
      <trkpt lat="39.620105" lon="2.929652">
        <ele>95.8</ele>
        <time>2016-04-18T16:26:12Z</time>
      </trkpt>
      <trkpt lat="39.620207" lon="2.929646">
        <ele>95.4</ele>
        <time>2016-04-18T16:26:13Z</time>
      </trkpt>
      <trkpt lat="39.620305" lon="2.929633">
        <ele>95</ele>
        <time>2016-04-18T16:26:14Z</time>
      </trkpt>
      <trkpt lat="39.620404" lon="2.929612">
        <ele>94.6</ele>
        <time>2016-04-18T16:26:15Z</time>
      </trkpt>
      <trkpt lat="39.620502" lon="2.929588">
        <ele>94.2</ele>
        <time>2016-04-18T16:26:16Z</time>
      </trkpt>
      <trkpt lat="39.620601" lon="2.929561">
        <ele>93.8</ele>
        <time>2016-04-18T16:26:17Z</time>
      </trkpt>
      <trkpt lat="39.620699" lon="2.929536">
        <ele>93.4</ele>
        <time>2016-04-18T16:26:18Z</time>
      </trkpt>
      <trkpt lat="39.620795" lon="2.929505">
        <ele>92.8</ele>
        <time>2016-04-18T16:26:19Z</time>
      </trkpt>
      <trkpt lat="39.620896" lon="2.929475">
        <ele>92.4</ele>
        <time>2016-04-18T16:26:20Z</time>
      </trkpt>
      <trkpt lat="39.620992" lon="2.929444">
        <ele>92</ele>
        <time>2016-04-18T16:26:21Z</time>
      </trkpt>
      <trkpt lat="39.621179" lon="2.929389">
        <ele>91.4</ele>
        <time>2016-04-18T16:26:23Z</time>
      </trkpt>
      <trkpt lat="39.621272" lon="2.929361">
        <ele>90.6</ele>
        <time>2016-04-18T16:26:24Z</time>
      </trkpt>
      <trkpt lat="39.621365" lon="2.929331">
        <ele>90.2</ele>
        <time>2016-04-18T16:26:25Z</time>
      </trkpt>
      <trkpt lat="39.621459" lon="2.929302">
        <ele>89.8</ele>
        <time>2016-04-18T16:26:26Z</time>
      </trkpt>
      <trkpt lat="39.621554" lon="2.929271">
        <ele>89.8</ele>
        <time>2016-04-18T16:26:27Z</time>
      </trkpt>
      <trkpt lat="39.622096" lon="2.929089">
        <ele>89.8</ele>
        <time>2016-04-18T16:26:33Z</time>
      </trkpt>
      <trkpt lat="39.622271" lon="2.929028">
        <ele>89.8</ele>
        <time>2016-04-18T16:26:35Z</time>
      </trkpt>
      <trkpt lat="39.622744" lon="2.928866">
        <ele>89.8</ele>
        <time>2016-04-18T16:26:41Z</time>
      </trkpt>
      <trkpt lat="39.623188" lon="2.928699">
        <ele>89.8</ele>
        <time>2016-04-18T16:26:47Z</time>
      </trkpt>
      <trkpt lat="39.62339" lon="2.928618">
        <ele>89.8</ele>
        <time>2016-04-18T16:26:50Z</time>
      </trkpt>
      <trkpt lat="39.623571" lon="2.928513">
        <ele>89.8</ele>
        <time>2016-04-18T16:26:53Z</time>
      </trkpt>
      <trkpt lat="39.623689" lon="2.928455">
        <ele>89.8</ele>
        <time>2016-04-18T16:26:55Z</time>
      </trkpt>
      <trkpt lat="39.623804" lon="2.928427">
        <ele>89.8</ele>
        <time>2016-04-18T16:26:57Z</time>
      </trkpt>
      <trkpt lat="39.623897" lon="2.928451">
        <ele>89.8</ele>
        <time>2016-04-18T16:26:59Z</time>
      </trkpt>
      <trkpt lat="39.623923" lon="2.928495">
        <ele>89.8</ele>
        <time>2016-04-18T16:27:00Z</time>
      </trkpt>
      <trkpt lat="39.62395" lon="2.928701">
        <ele>89.8</ele>
        <time>2016-04-18T16:27:03Z</time>
      </trkpt>
      <trkpt lat="39.623989" lon="2.928932">
        <ele>89.8</ele>
        <time>2016-04-18T16:27:06Z</time>
      </trkpt>
      <trkpt lat="39.624025" lon="2.929096">
        <ele>89.8</ele>
        <time>2016-04-18T16:27:08Z</time>
      </trkpt>
      <trkpt lat="39.624105" lon="2.929527">
        <ele>89.8</ele>
        <time>2016-04-18T16:27:13Z</time>
      </trkpt>
      <trkpt lat="39.624137" lon="2.929697">
        <ele>89.8</ele>
        <time>2016-04-18T16:27:14Z</time>
      </trkpt>
      <trkpt lat="39.624205" lon="2.930041">
        <ele>89.8</ele>
        <time>2016-04-18T16:27:20Z</time>
      </trkpt>
      <trkpt lat="39.624295" lon="2.930556">
        <ele>89.8</ele>
        <time>2016-04-18T16:27:26Z</time>
      </trkpt>
      <trkpt lat="39.62433" lon="2.930733">
        <ele>89.8</ele>
        <time>2016-04-18T16:27:28Z</time>
      </trkpt>
      <trkpt lat="39.624432" lon="2.931249">
        <ele>89.8</ele>
        <time>2016-04-18T16:27:34Z</time>
      </trkpt>
      <trkpt lat="39.624442" lon="2.931335">
        <ele>89.8</ele>
        <time>2016-04-18T16:27:35Z</time>
      </trkpt>
      <trkpt lat="39.624545" lon="2.93185">
        <ele>89.8</ele>
        <time>2016-04-18T16:27:41Z</time>
      </trkpt>
      <trkpt lat="39.624574" lon="2.931929">
        <ele>89.8</ele>
        <time>2016-04-18T16:27:42Z</time>
      </trkpt>
      <trkpt lat="39.624677" lon="2.932053">
        <ele>89.8</ele>
        <time>2016-04-18T16:27:44Z</time>
      </trkpt>
      <trkpt lat="39.624884" lon="2.932144">
        <ele>89.8</ele>
        <time>2016-04-18T16:27:47Z</time>
      </trkpt>
      <trkpt lat="39.625175" lon="2.932105">
        <ele>89.8</ele>
        <time>2016-04-18T16:27:51Z</time>
      </trkpt>
      <trkpt lat="39.625344" lon="2.931936">
        <ele>89.8</ele>
        <time>2016-04-18T16:27:54Z</time>
      </trkpt>
      <trkpt lat="39.62565" lon="2.931574">
        <ele>89.8</ele>
        <time>2016-04-18T16:28:00Z</time>
      </trkpt>
      <trkpt lat="39.626096" lon="2.931048">
        <ele>89.8</ele>
        <time>2016-04-18T16:28:08Z</time>
      </trkpt>
      <trkpt lat="39.626543" lon="2.930508">
        <ele>89.8</ele>
        <time>2016-04-18T16:28:16Z</time>
      </trkpt>
      <trkpt lat="39.626599" lon="2.930439">
        <ele>89.8</ele>
        <time>2016-04-18T16:28:17Z</time>
      </trkpt>
      <trkpt lat="39.626998" lon="2.92996">
        <ele>89.4</ele>
        <time>2016-04-18T16:28:24Z</time>
      </trkpt>
      <trkpt lat="39.627054" lon="2.929889">
        <ele>88.8</ele>
        <time>2016-04-18T16:28:25Z</time>
      </trkpt>
      <trkpt lat="39.627118" lon="2.929821">
        <ele>88</ele>
        <time>2016-04-18T16:28:26Z</time>
      </trkpt>
      <trkpt lat="39.627178" lon="2.929754">
        <ele>87.4</ele>
        <time>2016-04-18T16:28:27Z</time>
      </trkpt>
      <trkpt lat="39.627464" lon="2.929415">
        <ele>87.4</ele>
        <time>2016-04-18T16:28:32Z</time>
      </trkpt>
      <trkpt lat="39.627833" lon="2.928981">
        <ele>88</ele>
        <time>2016-04-18T16:28:39Z</time>
      </trkpt>
      <trkpt lat="39.627885" lon="2.928916">
        <ele>88.4</ele>
        <time>2016-04-18T16:28:40Z</time>
      </trkpt>
      <trkpt lat="39.62794" lon="2.928847">
        <ele>88.8</ele>
        <time>2016-04-18T16:28:41Z</time>
      </trkpt>
      <trkpt lat="39.627994" lon="2.928784">
        <ele>89.2</ele>
        <time>2016-04-18T16:28:42Z</time>
      </trkpt>
      <trkpt lat="39.628047" lon="2.928718">
        <ele>89.8</ele>
        <time>2016-04-18T16:28:43Z</time>
      </trkpt>
      <trkpt lat="39.628315" lon="2.928405">
        <ele>89.8</ele>
        <time>2016-04-18T16:28:48Z</time>
      </trkpt>
      <trkpt lat="39.628696" lon="2.927931">
        <ele>89.8</ele>
        <time>2016-04-18T16:28:55Z</time>
      </trkpt>
      <trkpt lat="39.629082" lon="2.927476">
        <ele>89.8</ele>
        <time>2016-04-18T16:29:02Z</time>
      </trkpt>
      <trkpt lat="39.629514" lon="2.927009">
        <ele>89.8</ele>
        <time>2016-04-18T16:29:09Z</time>
      </trkpt>
      <trkpt lat="39.629961" lon="2.926483">
        <ele>89.8</ele>
        <time>2016-04-18T16:29:16Z</time>
      </trkpt>
      <trkpt lat="39.630027" lon="2.926407">
        <ele>89.8</ele>
        <time>2016-04-18T16:29:17Z</time>
      </trkpt>
      <trkpt lat="39.630161" lon="2.926264">
        <ele>89.4</ele>
        <time>2016-04-18T16:29:19Z</time>
      </trkpt>
      <trkpt lat="39.630232" lon="2.926187">
        <ele>89</ele>
        <time>2016-04-18T16:29:20Z</time>
      </trkpt>
      <trkpt lat="39.630297" lon="2.926113">
        <ele>88.6</ele>
        <time>2016-04-18T16:29:21Z</time>
      </trkpt>
      <trkpt lat="39.630361" lon="2.926037">
        <ele>88.2</ele>
        <time>2016-04-18T16:29:22Z</time>
      </trkpt>
      <trkpt lat="39.630428" lon="2.925964">
        <ele>87.8</ele>
        <time>2016-04-18T16:29:23Z</time>
      </trkpt>
      <trkpt lat="39.630566" lon="2.925827">
        <ele>87.8</ele>
        <time>2016-04-18T16:29:25Z</time>
      </trkpt>
      <trkpt lat="39.631069" lon="2.925394">
        <ele>87.8</ele>
        <time>2016-04-18T16:29:32Z</time>
      </trkpt>
      <trkpt lat="39.631584" lon="2.924929">
        <ele>87.8</ele>
        <time>2016-04-18T16:29:39Z</time>
      </trkpt>
      <trkpt lat="39.631659" lon="2.924858">
        <ele>87.4</ele>
        <time>2016-04-18T16:29:40Z</time>
      </trkpt>
      <trkpt lat="39.63173" lon="2.924783">
        <ele>86.4</ele>
        <time>2016-04-18T16:29:41Z</time>
      </trkpt>
      <trkpt lat="39.631805" lon="2.924713">
        <ele>86</ele>
        <time>2016-04-18T16:29:42Z</time>
      </trkpt>
      <trkpt lat="39.631884" lon="2.92464">
        <ele>85.6</ele>
        <time>2016-04-18T16:29:43Z</time>
      </trkpt>
      <trkpt lat="39.632032" lon="2.924503">
        <ele>85.6</ele>
        <time>2016-04-18T16:29:45Z</time>
      </trkpt>
      <trkpt lat="39.632249" lon="2.9243">
        <ele>85.6</ele>
        <time>2016-04-18T16:29:48Z</time>
      </trkpt>
      <trkpt lat="39.632322" lon="2.92423">
        <ele>85.2</ele>
        <time>2016-04-18T16:29:49Z</time>
      </trkpt>
      <trkpt lat="39.632393" lon="2.92416">
        <ele>84.8</ele>
        <time>2016-04-18T16:29:50Z</time>
      </trkpt>
      <trkpt lat="39.63247" lon="2.924089">
        <ele>84.2</ele>
        <time>2016-04-18T16:29:51Z</time>
      </trkpt>
      <trkpt lat="39.63254" lon="2.924025">
        <ele>83.8</ele>
        <time>2016-04-18T16:29:52Z</time>
      </trkpt>
      <trkpt lat="39.63261" lon="2.923959">
        <ele>83.4</ele>
        <time>2016-04-18T16:29:53Z</time>
      </trkpt>
      <trkpt lat="39.632899" lon="2.923726">
        <ele>83.4</ele>
        <time>2016-04-18T16:29:57Z</time>
      </trkpt>
      <trkpt lat="39.633459" lon="2.923385">
        <ele>83.4</ele>
        <time>2016-04-18T16:30:04Z</time>
      </trkpt>
      <trkpt lat="39.633539" lon="2.923332">
        <ele>83.4</ele>
        <time>2016-04-18T16:30:05Z</time>
      </trkpt>
      <trkpt lat="39.63402" lon="2.922986">
        <ele>83</ele>
        <time>2016-04-18T16:30:11Z</time>
      </trkpt>
      <trkpt lat="39.634101" lon="2.922927">
        <ele>82.4</ele>
        <time>2016-04-18T16:30:12Z</time>
      </trkpt>
      <trkpt lat="39.634178" lon="2.922866">
        <ele>82</ele>
        <time>2016-04-18T16:30:13Z</time>
      </trkpt>
      <trkpt lat="39.634257" lon="2.922806">
        <ele>81.6</ele>
        <time>2016-04-18T16:30:14Z</time>
      </trkpt>
      <trkpt lat="39.634337" lon="2.922746">
        <ele>81.2</ele>
        <time>2016-04-18T16:30:15Z</time>
      </trkpt>
      <trkpt lat="39.634783" lon="2.922402">
        <ele>81.2</ele>
        <time>2016-04-18T16:30:21Z</time>
      </trkpt>
      <trkpt lat="39.635286" lon="2.922007">
        <ele>81.2</ele>
        <time>2016-04-18T16:30:28Z</time>
      </trkpt>
      <trkpt lat="39.635422" lon="2.921908">
        <ele>80.4</ele>
        <time>2016-04-18T16:30:30Z</time>
      </trkpt>
      <trkpt lat="39.635495" lon="2.921855">
        <ele>80</ele>
        <time>2016-04-18T16:30:31Z</time>
      </trkpt>
      <trkpt lat="39.635561" lon="2.921799">
        <ele>80.2</ele>
        <time>2016-04-18T16:30:32Z</time>
      </trkpt>
      <trkpt lat="39.63563" lon="2.921745">
        <ele>80.4</ele>
        <time>2016-04-18T16:30:33Z</time>
      </trkpt>
      <trkpt lat="39.635697" lon="2.921693">
        <ele>80.8</ele>
        <time>2016-04-18T16:30:34Z</time>
      </trkpt>
      <trkpt lat="39.635763" lon="2.921643">
        <ele>81</ele>
        <time>2016-04-18T16:30:35Z</time>
      </trkpt>
      <trkpt lat="39.635828" lon="2.921593">
        <ele>81.2</ele>
        <time>2016-04-18T16:30:36Z</time>
      </trkpt>
      <trkpt lat="39.635894" lon="2.921544">
        <ele>81.2</ele>
        <time>2016-04-18T16:30:37Z</time>
      </trkpt>
      <trkpt lat="39.636367" lon="2.921268">
        <ele>81.2</ele>
        <time>2016-04-18T16:30:44Z</time>
      </trkpt>
      <trkpt lat="39.636514" lon="2.921227">
        <ele>81.2</ele>
        <time>2016-04-18T16:30:46Z</time>
      </trkpt>
      <trkpt lat="39.636728" lon="2.921195">
        <ele>81.2</ele>
        <time>2016-04-18T16:30:49Z</time>
      </trkpt>
      <trkpt lat="39.637039" lon="2.921138">
        <ele>81.8</ele>
        <time>2016-04-18T16:30:54Z</time>
      </trkpt>
      <trkpt lat="39.637099" lon="2.921125">
        <ele>82.2</ele>
        <time>2016-04-18T16:30:55Z</time>
      </trkpt>
      <trkpt lat="39.637154" lon="2.921111">
        <ele>82.6</ele>
        <time>2016-04-18T16:30:56Z</time>
      </trkpt>
      <trkpt lat="39.637208" lon="2.921097">
        <ele>83.2</ele>
        <time>2016-04-18T16:30:57Z</time>
      </trkpt>
      <trkpt lat="39.637262" lon="2.921083">
        <ele>83.6</ele>
        <time>2016-04-18T16:30:58Z</time>
      </trkpt>
      <trkpt lat="39.637312" lon="2.921066">
        <ele>84</ele>
        <time>2016-04-18T16:30:59Z</time>
      </trkpt>
      <trkpt lat="39.637353" lon="2.921056">
        <ele>84.4</ele>
        <time>2016-04-18T16:31:00Z</time>
      </trkpt>
      <trkpt lat="39.637397" lon="2.921042">
        <ele>84.8</ele>
        <time>2016-04-18T16:31:01Z</time>
      </trkpt>
      <trkpt lat="39.63744" lon="2.921033">
        <ele>85.2</ele>
        <time>2016-04-18T16:31:02Z</time>
      </trkpt>
      <trkpt lat="39.637478" lon="2.921025">
        <ele>85.6</ele>
        <time>2016-04-18T16:31:03Z</time>
      </trkpt>
      <trkpt lat="39.637517" lon="2.921019">
        <ele>86</ele>
        <time>2016-04-18T16:31:04Z</time>
      </trkpt>
      <trkpt lat="39.637555" lon="2.921014">
        <ele>86.6</ele>
        <time>2016-04-18T16:31:05Z</time>
      </trkpt>
      <trkpt lat="39.637595" lon="2.921014">
        <ele>87</ele>
        <time>2016-04-18T16:31:06Z</time>
      </trkpt>
      <trkpt lat="39.637634" lon="2.921014">
        <ele>87.4</ele>
        <time>2016-04-18T16:31:07Z</time>
      </trkpt>
      <trkpt lat="39.637669" lon="2.921017">
        <ele>87.8</ele>
        <time>2016-04-18T16:31:08Z</time>
      </trkpt>
      <trkpt lat="39.637817" lon="2.921089">
        <ele>88.2</ele>
        <time>2016-04-18T16:31:12Z</time>
      </trkpt>
      <trkpt lat="39.637854" lon="2.921102">
        <ele>88.6</ele>
        <time>2016-04-18T16:31:13Z</time>
      </trkpt>
      <trkpt lat="39.637894" lon="2.921112">
        <ele>89</ele>
        <time>2016-04-18T16:31:14Z</time>
      </trkpt>
      <trkpt lat="39.637934" lon="2.921114">
        <ele>89.4</ele>
        <time>2016-04-18T16:31:15Z</time>
      </trkpt>
      <trkpt lat="39.637974" lon="2.921104">
        <ele>89.8</ele>
        <time>2016-04-18T16:31:16Z</time>
      </trkpt>
      <trkpt lat="39.638014" lon="2.921084">
        <ele>89.8</ele>
        <time>2016-04-18T16:31:17Z</time>
      </trkpt>
      <trkpt lat="39.638086" lon="2.92103">
        <ele>90.2</ele>
        <time>2016-04-18T16:31:19Z</time>
      </trkpt>
      <trkpt lat="39.63813" lon="2.92095">
        <ele>91</ele>
        <time>2016-04-18T16:31:21Z</time>
      </trkpt>
      <trkpt lat="39.63812" lon="2.920896">
        <ele>91.4</ele>
        <time>2016-04-18T16:31:22Z</time>
      </trkpt>
      <trkpt lat="39.638103" lon="2.920845">
        <ele>91.8</ele>
        <time>2016-04-18T16:31:23Z</time>
      </trkpt>
      <trkpt lat="39.638057" lon="2.920619">
        <ele>91.8</ele>
        <time>2016-04-18T16:31:27Z</time>
      </trkpt>
      <trkpt lat="39.638149" lon="2.920453">
        <ele>92.2</ele>
        <time>2016-04-18T16:31:30Z</time>
      </trkpt>
      <trkpt lat="39.638183" lon="2.920397">
        <ele>92.6</ele>
        <time>2016-04-18T16:31:31Z</time>
      </trkpt>
      <trkpt lat="39.638219" lon="2.920345">
        <ele>93</ele>
        <time>2016-04-18T16:31:32Z</time>
      </trkpt>
      <trkpt lat="39.638252" lon="2.92029">
        <ele>93.4</ele>
        <time>2016-04-18T16:31:33Z</time>
      </trkpt>
      <trkpt lat="39.638288" lon="2.920238">
        <ele>93.8</ele>
        <time>2016-04-18T16:31:34Z</time>
      </trkpt>
      <trkpt lat="39.63836" lon="2.920143">
        <ele>93.8</ele>
        <time>2016-04-18T16:31:36Z</time>
      </trkpt>
      <trkpt lat="39.638551" lon="2.919849">
        <ele>94.2</ele>
        <time>2016-04-18T16:31:42Z</time>
      </trkpt>
      <trkpt lat="39.638585" lon="2.919806">
        <ele>94.6</ele>
        <time>2016-04-18T16:31:43Z</time>
      </trkpt>
      <trkpt lat="39.638621" lon="2.919756">
        <ele>95</ele>
        <time>2016-04-18T16:31:44Z</time>
      </trkpt>
      <trkpt lat="39.638656" lon="2.919704">
        <ele>95.8</ele>
        <time>2016-04-18T16:31:45Z</time>
      </trkpt>
      <trkpt lat="39.638732" lon="2.9196">
        <ele>95.8</ele>
        <time>2016-04-18T16:31:47Z</time>
      </trkpt>
      <trkpt lat="39.638909" lon="2.919354">
        <ele>95.8</ele>
        <time>2016-04-18T16:31:52Z</time>
      </trkpt>
      <trkpt lat="39.63897" lon="2.919244">
        <ele>95.8</ele>
        <time>2016-04-18T16:31:54Z</time>
      </trkpt>
      <trkpt lat="39.639175" lon="2.918848">
        <ele>95.8</ele>
        <time>2016-04-18T16:32:00Z</time>
      </trkpt>
      <trkpt lat="39.639361" lon="2.918497">
        <ele>95.8</ele>
        <time>2016-04-18T16:32:05Z</time>
      </trkpt>
      <trkpt lat="39.639396" lon="2.91842">
        <ele>95.8</ele>
        <time>2016-04-18T16:32:06Z</time>
      </trkpt>
      <trkpt lat="39.63953" lon="2.918189">
        <ele>95.8</ele>
        <time>2016-04-18T16:32:09Z</time>
      </trkpt>
      <trkpt lat="39.639583" lon="2.918111">
        <ele>95.4</ele>
        <time>2016-04-18T16:32:10Z</time>
      </trkpt>
      <trkpt lat="39.639642" lon="2.918033">
        <ele>94.8</ele>
        <time>2016-04-18T16:32:11Z</time>
      </trkpt>
      <trkpt lat="39.639697" lon="2.917962">
        <ele>94.4</ele>
        <time>2016-04-18T16:32:12Z</time>
      </trkpt>
      <trkpt lat="39.639756" lon="2.91789">
        <ele>93.8</ele>
        <time>2016-04-18T16:32:13Z</time>
      </trkpt>
      <trkpt lat="39.639814" lon="2.917818">
        <ele>93.4</ele>
        <time>2016-04-18T16:32:14Z</time>
      </trkpt>
      <trkpt lat="39.639934" lon="2.91768">
        <ele>93.4</ele>
        <time>2016-04-18T16:32:16Z</time>
      </trkpt>
      <trkpt lat="39.640051" lon="2.917527">
        <ele>93.4</ele>
        <time>2016-04-18T16:32:18Z</time>
      </trkpt>
      <trkpt lat="39.640111" lon="2.917447">
        <ele>92.8</ele>
        <time>2016-04-18T16:32:19Z</time>
      </trkpt>
      <trkpt lat="39.640165" lon="2.917366">
        <ele>92.4</ele>
        <time>2016-04-18T16:32:20Z</time>
      </trkpt>
      <trkpt lat="39.640207" lon="2.917276">
        <ele>92</ele>
        <time>2016-04-18T16:32:21Z</time>
      </trkpt>
      <trkpt lat="39.640242" lon="2.917183">
        <ele>91.6</ele>
        <time>2016-04-18T16:32:22Z</time>
      </trkpt>
      <trkpt lat="39.640273" lon="2.917087">
        <ele>91.2</ele>
        <time>2016-04-18T16:32:23Z</time>
      </trkpt>
      <trkpt lat="39.640387" lon="2.916689">
        <ele>91.2</ele>
        <time>2016-04-18T16:32:27Z</time>
      </trkpt>
      <trkpt lat="39.640532" lon="2.916152">
        <ele>91.2</ele>
        <time>2016-04-18T16:32:33Z</time>
      </trkpt>
      <trkpt lat="39.640606" lon="2.915905">
        <ele>91.6</ele>
        <time>2016-04-18T16:32:36Z</time>
      </trkpt>
      <trkpt lat="39.64063" lon="2.915825">
        <ele>92</ele>
        <time>2016-04-18T16:32:37Z</time>
      </trkpt>
      <trkpt lat="39.64065" lon="2.91574">
        <ele>92.4</ele>
        <time>2016-04-18T16:32:38Z</time>
      </trkpt>
      <trkpt lat="39.640669" lon="2.915658">
        <ele>92.8</ele>
        <time>2016-04-18T16:32:39Z</time>
      </trkpt>
      <trkpt lat="39.64069" lon="2.915582">
        <ele>93.2</ele>
        <time>2016-04-18T16:32:40Z</time>
      </trkpt>
      <trkpt lat="39.64076" lon="2.915366">
        <ele>93.6</ele>
        <time>2016-04-18T16:32:43Z</time>
      </trkpt>
      <trkpt lat="39.640783" lon="2.9153">
        <ele>94.2</ele>
        <time>2016-04-18T16:32:44Z</time>
      </trkpt>
      <trkpt lat="39.640801" lon="2.91523">
        <ele>94.6</ele>
        <time>2016-04-18T16:32:45Z</time>
      </trkpt>
      <trkpt lat="39.640823" lon="2.915162">
        <ele>95</ele>
        <time>2016-04-18T16:32:46Z</time>
      </trkpt>
      <trkpt lat="39.640844" lon="2.915089">
        <ele>95.6</ele>
        <time>2016-04-18T16:32:47Z</time>
      </trkpt>
      <trkpt lat="39.640896" lon="2.914873">
        <ele>96</ele>
        <time>2016-04-18T16:32:50Z</time>
      </trkpt>
      <trkpt lat="39.640917" lon="2.914788">
        <ele>96.4</ele>
        <time>2016-04-18T16:32:51Z</time>
      </trkpt>
      <trkpt lat="39.640941" lon="2.91471">
        <ele>96.8</ele>
        <time>2016-04-18T16:32:52Z</time>
      </trkpt>
      <trkpt lat="39.640966" lon="2.914642">
        <ele>97.2</ele>
        <time>2016-04-18T16:32:53Z</time>
      </trkpt>
      <trkpt lat="39.640992" lon="2.914566">
        <ele>97.6</ele>
        <time>2016-04-18T16:32:54Z</time>
      </trkpt>
      <trkpt lat="39.641017" lon="2.914487">
        <ele>97.6</ele>
        <time>2016-04-18T16:32:55Z</time>
      </trkpt>
      <trkpt lat="39.641132" lon="2.914014">
        <ele>97.6</ele>
        <time>2016-04-18T16:33:01Z</time>
      </trkpt>
      <trkpt lat="39.64123" lon="2.913639">
        <ele>98</ele>
        <time>2016-04-18T16:33:06Z</time>
      </trkpt>
      <trkpt lat="39.641253" lon="2.913566">
        <ele>98.4</ele>
        <time>2016-04-18T16:33:07Z</time>
      </trkpt>
      <trkpt lat="39.641277" lon="2.913492">
        <ele>98.8</ele>
        <time>2016-04-18T16:33:08Z</time>
      </trkpt>
      <trkpt lat="39.641298" lon="2.913414">
        <ele>99.2</ele>
        <time>2016-04-18T16:33:09Z</time>
      </trkpt>
      <trkpt lat="39.641322" lon="2.913335">
        <ele>99.8</ele>
        <time>2016-04-18T16:33:10Z</time>
      </trkpt>
      <trkpt lat="39.641411" lon="2.913016">
        <ele>99.8</ele>
        <time>2016-04-18T16:33:14Z</time>
      </trkpt>
      <trkpt lat="39.641536" lon="2.912506">
        <ele>99.8</ele>
        <time>2016-04-18T16:33:20Z</time>
      </trkpt>
      <trkpt lat="39.641574" lon="2.912331">
        <ele>99.8</ele>
        <time>2016-04-18T16:33:22Z</time>
      </trkpt>
      <trkpt lat="39.641637" lon="2.912068">
        <ele>99.2</ele>
        <time>2016-04-18T16:33:25Z</time>
      </trkpt>
      <trkpt lat="39.641652" lon="2.911978">
        <ele>98.8</ele>
        <time>2016-04-18T16:33:26Z</time>
      </trkpt>
      <trkpt lat="39.641674" lon="2.91189">
        <ele>98.4</ele>
        <time>2016-04-18T16:33:27Z</time>
      </trkpt>
      <trkpt lat="39.6417" lon="2.911803">
        <ele>98</ele>
        <time>2016-04-18T16:33:28Z</time>
      </trkpt>
      <trkpt lat="39.64172" lon="2.911709">
        <ele>97.6</ele>
        <time>2016-04-18T16:33:29Z</time>
      </trkpt>
      <trkpt lat="39.64182" lon="2.911249">
        <ele>97.6</ele>
        <time>2016-04-18T16:33:34Z</time>
      </trkpt>
      <trkpt lat="39.641845" lon="2.910954">
        <ele>97.6</ele>
        <time>2016-04-18T16:33:37Z</time>
      </trkpt>
      <trkpt lat="39.641824" lon="2.910755">
        <ele>97.6</ele>
        <time>2016-04-18T16:33:39Z</time>
      </trkpt>
      <trkpt lat="39.641747" lon="2.910017">
        <ele>97.6</ele>
        <time>2016-04-18T16:33:46Z</time>
      </trkpt>
      <trkpt lat="39.641735" lon="2.909915">
        <ele>97.6</ele>
        <time>2016-04-18T16:33:47Z</time>
      </trkpt>
      <trkpt lat="39.641673" lon="2.909298">
        <ele>97.6</ele>
        <time>2016-04-18T16:33:53Z</time>
      </trkpt>
      <trkpt lat="39.641605" lon="2.908723">
        <ele>97.6</ele>
        <time>2016-04-18T16:33:59Z</time>
      </trkpt>
      <trkpt lat="39.641589" lon="2.908539">
        <ele>97.6</ele>
        <time>2016-04-18T16:34:01Z</time>
      </trkpt>
      <trkpt lat="39.641541" lon="2.908167">
        <ele>97.6</ele>
        <time>2016-04-18T16:34:05Z</time>
      </trkpt>
      <trkpt lat="39.641495" lon="2.90771">
        <ele>98</ele>
        <time>2016-04-18T16:34:10Z</time>
      </trkpt>
      <trkpt lat="39.641483" lon="2.907626">
        <ele>98.4</ele>
        <time>2016-04-18T16:34:11Z</time>
      </trkpt>
      <trkpt lat="39.641474" lon="2.907534">
        <ele>98.8</ele>
        <time>2016-04-18T16:34:12Z</time>
      </trkpt>
      <trkpt lat="39.641467" lon="2.907442">
        <ele>99.6</ele>
        <time>2016-04-18T16:34:13Z</time>
      </trkpt>
      <trkpt lat="39.641456" lon="2.907254">
        <ele>99.6</ele>
        <time>2016-04-18T16:34:15Z</time>
      </trkpt>
      <trkpt lat="39.641416" lon="2.906784">
        <ele>99.6</ele>
        <time>2016-04-18T16:34:20Z</time>
      </trkpt>
      <trkpt lat="39.641363" lon="2.90606">
        <ele>99.6</ele>
        <time>2016-04-18T16:34:27Z</time>
      </trkpt>
      <trkpt lat="39.641354" lon="2.905957">
        <ele>99.6</ele>
        <time>2016-04-18T16:34:28Z</time>
      </trkpt>
      <trkpt lat="39.641251" lon="2.905342">
        <ele>99.6</ele>
        <time>2016-04-18T16:34:34Z</time>
      </trkpt>
      <trkpt lat="39.641083" lon="2.90465">
        <ele>99.6</ele>
        <time>2016-04-18T16:34:41Z</time>
      </trkpt>
      <trkpt lat="39.641062" lon="2.904546">
        <ele>99.6</ele>
        <time>2016-04-18T16:34:42Z</time>
      </trkpt>
      <trkpt lat="39.641044" lon="2.90433">
        <ele>99.6</ele>
        <time>2016-04-18T16:34:44Z</time>
      </trkpt>
      <trkpt lat="39.641086" lon="2.904121">
        <ele>99.6</ele>
        <time>2016-04-18T16:34:46Z</time>
      </trkpt>
      <trkpt lat="39.641276" lon="2.903904">
        <ele>99.6</ele>
        <time>2016-04-18T16:34:49Z</time>
      </trkpt>
      <trkpt lat="39.641345" lon="2.903844">
        <ele>99.6</ele>
        <time>2016-04-18T16:34:50Z</time>
      </trkpt>
      <trkpt lat="39.641748" lon="2.903475">
        <ele>99.2</ele>
        <time>2016-04-18T16:34:56Z</time>
      </trkpt>
      <trkpt lat="39.641814" lon="2.903416">
        <ele>98.8</ele>
        <time>2016-04-18T16:34:57Z</time>
      </trkpt>
      <trkpt lat="39.641879" lon="2.903358">
        <ele>98.4</ele>
        <time>2016-04-18T16:34:58Z</time>
      </trkpt>
      <trkpt lat="39.641944" lon="2.903295">
        <ele>97.8</ele>
        <time>2016-04-18T16:34:59Z</time>
      </trkpt>
      <trkpt lat="39.642012" lon="2.903232">
        <ele>97.4</ele>
        <time>2016-04-18T16:35:00Z</time>
      </trkpt>
      <trkpt lat="39.642385" lon="2.902886">
        <ele>97.4</ele>
        <time>2016-04-18T16:35:06Z</time>
      </trkpt>
      <trkpt lat="39.642731" lon="2.902545">
        <ele>97.4</ele>
        <time>2016-04-18T16:35:12Z</time>
      </trkpt>
      <trkpt lat="39.642847" lon="2.902432">
        <ele>97.8</ele>
        <time>2016-04-18T16:35:14Z</time>
      </trkpt>
      <trkpt lat="39.642907" lon="2.902374">
        <ele>98.4</ele>
        <time>2016-04-18T16:35:15Z</time>
      </trkpt>
      <trkpt lat="39.642963" lon="2.902318">
        <ele>98.8</ele>
        <time>2016-04-18T16:35:16Z</time>
      </trkpt>
      <trkpt lat="39.643021" lon="2.902261">
        <ele>99.2</ele>
        <time>2016-04-18T16:35:17Z</time>
      </trkpt>
      <trkpt lat="39.643084" lon="2.902197">
        <ele>99.6</ele>
        <time>2016-04-18T16:35:18Z</time>
      </trkpt>
      <trkpt lat="39.643148" lon="2.902147">
        <ele>99.6</ele>
        <time>2016-04-18T16:35:19Z</time>
      </trkpt>
      <trkpt lat="39.643497" lon="2.901825">
        <ele>99.6</ele>
        <time>2016-04-18T16:35:25Z</time>
      </trkpt>
      <trkpt lat="39.643546" lon="2.901763">
        <ele>99.6</ele>
        <time>2016-04-18T16:35:26Z</time>
      </trkpt>
      <trkpt lat="39.643667" lon="2.901578">
        <ele>100</ele>
        <time>2016-04-18T16:35:29Z</time>
      </trkpt>
      <trkpt lat="39.643706" lon="2.901518">
        <ele>100.4</ele>
        <time>2016-04-18T16:35:30Z</time>
      </trkpt>
      <trkpt lat="39.643744" lon="2.901466">
        <ele>100.8</ele>
        <time>2016-04-18T16:35:31Z</time>
      </trkpt>
      <trkpt lat="39.64378" lon="2.901413">
        <ele>101.2</ele>
        <time>2016-04-18T16:35:32Z</time>
      </trkpt>
      <trkpt lat="39.643811" lon="2.901359">
        <ele>101.6</ele>
        <time>2016-04-18T16:35:33Z</time>
      </trkpt>
      <trkpt lat="39.643876" lon="2.901265">
        <ele>102</ele>
        <time>2016-04-18T16:35:35Z</time>
      </trkpt>
      <trkpt lat="39.643903" lon="2.90121">
        <ele>102.4</ele>
        <time>2016-04-18T16:35:36Z</time>
      </trkpt>
      <trkpt lat="39.643937" lon="2.901164">
        <ele>102.8</ele>
        <time>2016-04-18T16:35:37Z</time>
      </trkpt>
      <trkpt lat="39.643971" lon="2.901123">
        <ele>103.4</ele>
        <time>2016-04-18T16:35:38Z</time>
      </trkpt>
      <trkpt lat="39.644003" lon="2.901082">
        <ele>103.8</ele>
        <time>2016-04-18T16:35:39Z</time>
      </trkpt>
      <trkpt lat="39.644074" lon="2.901004">
        <ele>103.8</ele>
        <time>2016-04-18T16:35:41Z</time>
      </trkpt>
      <trkpt lat="39.644138" lon="2.900924">
        <ele>104.2</ele>
        <time>2016-04-18T16:35:43Z</time>
      </trkpt>
      <trkpt lat="39.644167" lon="2.90089">
        <ele>104.6</ele>
        <time>2016-04-18T16:35:44Z</time>
      </trkpt>
      <trkpt lat="39.644197" lon="2.900856">
        <ele>105</ele>
        <time>2016-04-18T16:35:45Z</time>
      </trkpt>
      <trkpt lat="39.644221" lon="2.900814">
        <ele>105.4</ele>
        <time>2016-04-18T16:35:46Z</time>
      </trkpt>
      <trkpt lat="39.64425" lon="2.900781">
        <ele>106</ele>
        <time>2016-04-18T16:35:47Z</time>
      </trkpt>
      <trkpt lat="39.644342" lon="2.900634">
        <ele>106.4</ele>
        <time>2016-04-18T16:35:51Z</time>
      </trkpt>
      <trkpt lat="39.644365" lon="2.900603">
        <ele>106.8</ele>
        <time>2016-04-18T16:35:52Z</time>
      </trkpt>
      <trkpt lat="39.644386" lon="2.900569">
        <ele>107.4</ele>
        <time>2016-04-18T16:35:53Z</time>
      </trkpt>
      <trkpt lat="39.644412" lon="2.900532">
        <ele>107.8</ele>
        <time>2016-04-18T16:35:54Z</time>
      </trkpt>
      <trkpt lat="39.644436" lon="2.900493">
        <ele>108.2</ele>
        <time>2016-04-18T16:35:55Z</time>
      </trkpt>
      <trkpt lat="39.64454" lon="2.900348">
        <ele>108.2</ele>
        <time>2016-04-18T16:35:59Z</time>
      </trkpt>
      <trkpt lat="39.644683" lon="2.900253">
        <ele>108.8</ele>
        <time>2016-04-18T16:36:03Z</time>
      </trkpt>
      <trkpt lat="39.644724" lon="2.900239">
        <ele>109.2</ele>
        <time>2016-04-18T16:36:04Z</time>
      </trkpt>
      <trkpt lat="39.644764" lon="2.900226">
        <ele>109.6</ele>
        <time>2016-04-18T16:36:05Z</time>
      </trkpt>
      <trkpt lat="39.644803" lon="2.90021">
        <ele>110</ele>
        <time>2016-04-18T16:36:06Z</time>
      </trkpt>
      <trkpt lat="39.644843" lon="2.900199">
        <ele>110.4</ele>
        <time>2016-04-18T16:36:07Z</time>
      </trkpt>
      <trkpt lat="39.645037" lon="2.900129">
        <ele>110.4</ele>
        <time>2016-04-18T16:36:12Z</time>
      </trkpt>
      <trkpt lat="39.64515" lon="2.900087">
        <ele>110.8</ele>
        <time>2016-04-18T16:36:15Z</time>
      </trkpt>
      <trkpt lat="39.645187" lon="2.900074">
        <ele>111.8</ele>
        <time>2016-04-18T16:36:16Z</time>
      </trkpt>
      <trkpt lat="39.645224" lon="2.90006">
        <ele>112.2</ele>
        <time>2016-04-18T16:36:17Z</time>
      </trkpt>
      <trkpt lat="39.645263" lon="2.900049">
        <ele>112.6</ele>
        <time>2016-04-18T16:36:18Z</time>
      </trkpt>
      <trkpt lat="39.64529" lon="2.900036">
        <ele>112.6</ele>
        <time>2016-04-18T16:36:19Z</time>
      </trkpt>
      <trkpt lat="39.645473" lon="2.90003">
        <ele>112.6</ele>
        <time>2016-04-18T16:36:24Z</time>
      </trkpt>
      <trkpt lat="39.64562" lon="2.900196">
        <ele>112.6</ele>
        <time>2016-04-18T16:36:28Z</time>
      </trkpt>
      <trkpt lat="39.645882" lon="2.900477">
        <ele>112.6</ele>
        <time>2016-04-18T16:36:35Z</time>
      </trkpt>
      <trkpt lat="39.645992" lon="2.900615">
        <ele>112.6</ele>
        <time>2016-04-18T16:36:38Z</time>
      </trkpt>
      <trkpt lat="39.646078" lon="2.900696">
        <ele>112.6</ele>
        <time>2016-04-18T16:36:40Z</time>
      </trkpt>
      <trkpt lat="39.646118" lon="2.900736">
        <ele>112.6</ele>
        <time>2016-04-18T16:36:41Z</time>
      </trkpt>
      <trkpt lat="39.646261" lon="2.900861">
        <ele>112.6</ele>
        <time>2016-04-18T16:36:44Z</time>
      </trkpt>
      <trkpt lat="39.646353" lon="2.900947">
        <ele>112.6</ele>
        <time>2016-04-18T16:36:46Z</time>
      </trkpt>
      <trkpt lat="39.646396" lon="2.900993">
        <ele>112.6</ele>
        <time>2016-04-18T16:36:47Z</time>
      </trkpt>
      <trkpt lat="39.646437" lon="2.901035">
        <ele>112.2</ele>
        <time>2016-04-18T16:36:48Z</time>
      </trkpt>
      <trkpt lat="39.646469" lon="2.901085">
        <ele>111.6</ele>
        <time>2016-04-18T16:36:49Z</time>
      </trkpt>
      <trkpt lat="39.64651" lon="2.901131">
        <ele>111.2</ele>
        <time>2016-04-18T16:36:50Z</time>
      </trkpt>
      <trkpt lat="39.64655" lon="2.90118">
        <ele>110.8</ele>
        <time>2016-04-18T16:36:51Z</time>
      </trkpt>
      <trkpt lat="39.646587" lon="2.901224">
        <ele>110.4</ele>
        <time>2016-04-18T16:36:52Z</time>
      </trkpt>
      <trkpt lat="39.646619" lon="2.901263">
        <ele>110.4</ele>
        <time>2016-04-18T16:36:53Z</time>
      </trkpt>
      <trkpt lat="39.64669" lon="2.901256">
        <ele>110.4</ele>
        <time>2016-04-18T16:36:55Z</time>
      </trkpt>
      <trkpt lat="39.646736" lon="2.901218">
        <ele>110.4</ele>
        <time>2016-04-18T16:36:56Z</time>
      </trkpt>
      <trkpt lat="39.646774" lon="2.901174">
        <ele>110.4</ele>
        <time>2016-04-18T16:36:57Z</time>
      </trkpt>
      <trkpt lat="39.64682" lon="2.901137">
        <ele>110.4</ele>
        <time>2016-04-18T16:36:58Z</time>
      </trkpt>
      <trkpt lat="39.646872" lon="2.90109">
        <ele>110.4</ele>
        <time>2016-04-18T16:36:59Z</time>
      </trkpt>
      <trkpt lat="39.646927" lon="2.90105">
        <ele>110.4</ele>
        <time>2016-04-18T16:37:00Z</time>
      </trkpt>
      <trkpt lat="39.646984" lon="2.900998">
        <ele>110.4</ele>
        <time>2016-04-18T16:37:01Z</time>
      </trkpt>
      <trkpt lat="39.647038" lon="2.900943">
        <ele>109.8</ele>
        <time>2016-04-18T16:37:02Z</time>
      </trkpt>
      <trkpt lat="39.647091" lon="2.900897">
        <ele>109.2</ele>
        <time>2016-04-18T16:37:03Z</time>
      </trkpt>
      <trkpt lat="39.647144" lon="2.900846">
        <ele>108.6</ele>
        <time>2016-04-18T16:37:04Z</time>
      </trkpt>
      <trkpt lat="39.647206" lon="2.900796">
        <ele>107.4</ele>
        <time>2016-04-18T16:37:05Z</time>
      </trkpt>
      <trkpt lat="39.647263" lon="2.900746">
        <ele>106.8</ele>
        <time>2016-04-18T16:37:06Z</time>
      </trkpt>
      <trkpt lat="39.647326" lon="2.900697">
        <ele>106.4</ele>
        <time>2016-04-18T16:37:07Z</time>
      </trkpt>
      <trkpt lat="39.647378" lon="2.900655">
        <ele>105.8</ele>
        <time>2016-04-18T16:37:08Z</time>
      </trkpt>
      <trkpt lat="39.64742" lon="2.900609">
        <ele>105.4</ele>
        <time>2016-04-18T16:37:09Z</time>
      </trkpt>
      <trkpt lat="39.647464" lon="2.900576">
        <ele>105.4</ele>
        <time>2016-04-18T16:37:10Z</time>
      </trkpt>
      <trkpt lat="39.647577" lon="2.90048">
        <ele>105.4</ele>
        <time>2016-04-18T16:37:13Z</time>
      </trkpt>
      <trkpt lat="39.647618" lon="2.900444">
        <ele>105.4</ele>
        <time>2016-04-18T16:37:14Z</time>
      </trkpt>
      <trkpt lat="39.647662" lon="2.9004">
        <ele>104.8</ele>
        <time>2016-04-18T16:37:15Z</time>
      </trkpt>
      <trkpt lat="39.647704" lon="2.900365">
        <ele>104.4</ele>
        <time>2016-04-18T16:37:16Z</time>
      </trkpt>
      <trkpt lat="39.647744" lon="2.900327">
        <ele>104</ele>
        <time>2016-04-18T16:37:17Z</time>
      </trkpt>
      <trkpt lat="39.647788" lon="2.900292">
        <ele>103.6</ele>
        <time>2016-04-18T16:37:18Z</time>
      </trkpt>
      <trkpt lat="39.647832" lon="2.900249">
        <ele>103.2</ele>
        <time>2016-04-18T16:37:19Z</time>
      </trkpt>
      <trkpt lat="39.647871" lon="2.900207">
        <ele>103.2</ele>
        <time>2016-04-18T16:37:20Z</time>
      </trkpt>
      <trkpt lat="39.647913" lon="2.900165">
        <ele>103.2</ele>
        <time>2016-04-18T16:37:21Z</time>
      </trkpt>
      <trkpt lat="39.648035" lon="2.900056">
        <ele>103.2</ele>
        <time>2016-04-18T16:37:24Z</time>
      </trkpt>
      <trkpt lat="39.648106" lon="2.899995">
        <ele>103.2</ele>
        <time>2016-04-18T16:37:26Z</time>
      </trkpt>
      <trkpt lat="39.648135" lon="2.899974">
        <ele>103.2</ele>
        <time>2016-04-18T16:37:27Z</time>
      </trkpt>
      <trkpt lat="39.648174" lon="2.899943">
        <ele>103.2</ele>
        <time>2016-04-18T16:37:29Z</time>
      </trkpt>
      <trkpt lat="39.648196" lon="2.899925">
        <ele>103.6</ele>
        <time>2016-04-18T16:37:31Z</time>
      </trkpt>
      <trkpt lat="39.648207" lon="2.899913">
        <ele>104</ele>
        <time>2016-04-18T16:37:32Z</time>
      </trkpt>
      <trkpt lat="39.648217" lon="2.899899">
        <ele>104.4</ele>
        <time>2016-04-18T16:37:33Z</time>
      </trkpt>
      <trkpt lat="39.648222" lon="2.899879">
        <ele>104.8</ele>
        <time>2016-04-18T16:37:34Z</time>
      </trkpt>
      <trkpt lat="39.648233" lon="2.899862">
        <ele>105.2</ele>
        <time>2016-04-18T16:37:35Z</time>
      </trkpt>
      <trkpt lat="39.648251" lon="2.899854">
        <ele>105.2</ele>
        <time>2016-04-18T16:37:36Z</time>
      </trkpt>
      <trkpt lat="39.648282" lon="2.899839">
        <ele>105.2</ele>
        <time>2016-04-18T16:37:38Z</time>
      </trkpt>
      <trkpt lat="39.648306" lon="2.89982">
        <ele>105.2</ele>
        <time>2016-04-18T16:37:41Z</time>
      </trkpt>
      <trkpt lat="39.648309" lon="2.899826">
        <ele>105.2</ele>
        <time>2016-04-18T16:37:42Z</time>
      </trkpt>
      <trkpt lat="39.648337" lon="2.899856">
        <ele>105.2</ele>
        <time>2016-04-18T16:37:45Z</time>
      </trkpt>
      <trkpt lat="39.648364" lon="2.899875">
        <ele>105.2</ele>
        <time>2016-04-18T16:37:47Z</time>
      </trkpt>
      <trkpt lat="39.648374" lon="2.899882">
        <ele>105.2</ele>
        <time>2016-04-18T16:37:48Z</time>
      </trkpt>
      <trkpt lat="39.648438" lon="2.899962">
        <ele>105.2</ele>
        <time>2016-04-18T16:37:51Z</time>
      </trkpt>
      <trkpt lat="39.648461" lon="2.899999">
        <ele>105.2</ele>
        <time>2016-04-18T16:37:52Z</time>
      </trkpt>
      <trkpt lat="39.648649" lon="2.900332">
        <ele>105.2</ele>
        <time>2016-04-18T16:37:59Z</time>
      </trkpt>
      <trkpt lat="39.648869" lon="2.900671">
        <ele>105.2</ele>
        <time>2016-04-18T16:38:06Z</time>
      </trkpt>
      <trkpt lat="39.648921" lon="2.900705">
        <ele>105.2</ele>
        <time>2016-04-18T16:38:07Z</time>
      </trkpt>
      <trkpt lat="39.649007" lon="2.900774">
        <ele>104.8</ele>
        <time>2016-04-18T16:38:09Z</time>
      </trkpt>
      <trkpt lat="39.649047" lon="2.900813">
        <ele>104.4</ele>
        <time>2016-04-18T16:38:10Z</time>
      </trkpt>
      <trkpt lat="39.649084" lon="2.900852">
        <ele>104</ele>
        <time>2016-04-18T16:38:11Z</time>
      </trkpt>
      <trkpt lat="39.649119" lon="2.900894">
        <ele>103.6</ele>
        <time>2016-04-18T16:38:12Z</time>
      </trkpt>
      <trkpt lat="39.649159" lon="2.900934">
        <ele>103</ele>
        <time>2016-04-18T16:38:13Z</time>
      </trkpt>
      <trkpt lat="39.649239" lon="2.901019">
        <ele>103</ele>
        <time>2016-04-18T16:38:15Z</time>
      </trkpt>
      <trkpt lat="39.649319" lon="2.901108">
        <ele>103</ele>
        <time>2016-04-18T16:38:17Z</time>
      </trkpt>
      <trkpt lat="39.64944" lon="2.901236">
        <ele>103</ele>
        <time>2016-04-18T16:38:20Z</time>
      </trkpt>
      <trkpt lat="39.649625" lon="2.901428">
        <ele>102.6</ele>
        <time>2016-04-18T16:38:24Z</time>
      </trkpt>
      <trkpt lat="39.64968" lon="2.901484">
        <ele>102.2</ele>
        <time>2016-04-18T16:38:25Z</time>
      </trkpt>
      <trkpt lat="39.64973" lon="2.90154">
        <ele>101.6</ele>
        <time>2016-04-18T16:38:26Z</time>
      </trkpt>
      <trkpt lat="39.649781" lon="2.901592">
        <ele>101.2</ele>
        <time>2016-04-18T16:38:27Z</time>
      </trkpt>
      <trkpt lat="39.649835" lon="2.901651">
        <ele>100.6</ele>
        <time>2016-04-18T16:38:28Z</time>
      </trkpt>
      <trkpt lat="39.649889" lon="2.901709">
        <ele>100.2</ele>
        <time>2016-04-18T16:38:29Z</time>
      </trkpt>
      <trkpt lat="39.649943" lon="2.901766">
        <ele>99.6</ele>
        <time>2016-04-18T16:38:30Z</time>
      </trkpt>
      <trkpt lat="39.649997" lon="2.901813">
        <ele>99.2</ele>
        <time>2016-04-18T16:38:31Z</time>
      </trkpt>
      <trkpt lat="39.650051" lon="2.901857">
        <ele>98.6</ele>
        <time>2016-04-18T16:38:32Z</time>
      </trkpt>
      <trkpt lat="39.650095" lon="2.901892">
        <ele>98.2</ele>
        <time>2016-04-18T16:38:33Z</time>
      </trkpt>
      <trkpt lat="39.650137" lon="2.901922">
        <ele>98.2</ele>
        <time>2016-04-18T16:38:34Z</time>
      </trkpt>
      <trkpt lat="39.65019" lon="2.901948">
        <ele>98.2</ele>
        <time>2016-04-18T16:38:37Z</time>
      </trkpt>
      <trkpt lat="39.650187" lon="2.901949">
        <ele>98.2</ele>
        <time>2016-04-18T16:38:38Z</time>
      </trkpt>
      <trkpt lat="39.650206" lon="2.901956">
        <ele>98.2</ele>
        <time>2016-04-18T16:40:26Z</time>
      </trkpt>
      <trkpt lat="39.650248" lon="2.90196">
        <ele>98.2</ele>
        <time>2016-04-18T16:40:28Z</time>
      </trkpt>
      <trkpt lat="39.650325" lon="2.901969">
        <ele>98.2</ele>
        <time>2016-04-18T16:40:30Z</time>
      </trkpt>
      <trkpt lat="39.65038" lon="2.901977">
        <ele>97.8</ele>
        <time>2016-04-18T16:40:31Z</time>
      </trkpt>
      <trkpt lat="39.650431" lon="2.901985">
        <ele>97.2</ele>
        <time>2016-04-18T16:40:32Z</time>
      </trkpt>
      <trkpt lat="39.650492" lon="2.901992">
        <ele>96.8</ele>
        <time>2016-04-18T16:40:33Z</time>
      </trkpt>
      <trkpt lat="39.650552" lon="2.901996">
        <ele>96.4</ele>
        <time>2016-04-18T16:40:34Z</time>
      </trkpt>
      <trkpt lat="39.650614" lon="2.901998">
        <ele>96</ele>
        <time>2016-04-18T16:40:35Z</time>
      </trkpt>
      <trkpt lat="39.650741" lon="2.902002">
        <ele>95.6</ele>
        <time>2016-04-18T16:40:37Z</time>
      </trkpt>
      <trkpt lat="39.650812" lon="2.901998">
        <ele>95</ele>
        <time>2016-04-18T16:40:38Z</time>
      </trkpt>
      <trkpt lat="39.650881" lon="2.902001">
        <ele>94.6</ele>
        <time>2016-04-18T16:40:39Z</time>
      </trkpt>
      <trkpt lat="39.650957" lon="2.902008">
        <ele>94.2</ele>
        <time>2016-04-18T16:40:40Z</time>
      </trkpt>
      <trkpt lat="39.651027" lon="2.902019">
        <ele>93.8</ele>
        <time>2016-04-18T16:40:41Z</time>
      </trkpt>
      <trkpt lat="39.651098" lon="2.902023">
        <ele>93.8</ele>
        <time>2016-04-18T16:40:42Z</time>
      </trkpt>
      <trkpt lat="39.65124" lon="2.902033">
        <ele>93.2</ele>
        <time>2016-04-18T16:40:44Z</time>
      </trkpt>
      <trkpt lat="39.651316" lon="2.902042">
        <ele>92.8</ele>
        <time>2016-04-18T16:40:45Z</time>
      </trkpt>
      <trkpt lat="39.651388" lon="2.902048">
        <ele>91.8</ele>
        <time>2016-04-18T16:40:46Z</time>
      </trkpt>
      <trkpt lat="39.651463" lon="2.902058">
        <ele>91.2</ele>
        <time>2016-04-18T16:40:47Z</time>
      </trkpt>
      <trkpt lat="39.651606" lon="2.902082">
        <ele>91.2</ele>
        <time>2016-04-18T16:40:49Z</time>
      </trkpt>
      <trkpt lat="39.651881" lon="2.902174">
        <ele>91.2</ele>
        <time>2016-04-18T16:40:53Z</time>
      </trkpt>
      <trkpt lat="39.652012" lon="2.902233">
        <ele>91.2</ele>
        <time>2016-04-18T16:40:55Z</time>
      </trkpt>
      <trkpt lat="39.652212" lon="2.90234">
        <ele>91.2</ele>
        <time>2016-04-18T16:40:58Z</time>
      </trkpt>
      <trkpt lat="39.652392" lon="2.902473">
        <ele>91.2</ele>
        <time>2016-04-18T16:41:01Z</time>
      </trkpt>
      <trkpt lat="39.652643" lon="2.902714">
        <ele>91.2</ele>
        <time>2016-04-18T16:41:05Z</time>
      </trkpt>
      <trkpt lat="39.652706" lon="2.902782">
        <ele>91.2</ele>
        <time>2016-04-18T16:41:06Z</time>
      </trkpt>
      <trkpt lat="39.652896" lon="2.902991">
        <ele>90.8</ele>
        <time>2016-04-18T16:41:09Z</time>
      </trkpt>
      <trkpt lat="39.65296" lon="2.903065">
        <ele>90.2</ele>
        <time>2016-04-18T16:41:10Z</time>
      </trkpt>
      <trkpt lat="39.653024" lon="2.903137">
        <ele>89.2</ele>
        <time>2016-04-18T16:41:11Z</time>
      </trkpt>
      <trkpt lat="39.65309" lon="2.903212">
        <ele>88.8</ele>
        <time>2016-04-18T16:41:12Z</time>
      </trkpt>
      <trkpt lat="39.653151" lon="2.903287">
        <ele>88.8</ele>
        <time>2016-04-18T16:41:13Z</time>
      </trkpt>
      <trkpt lat="39.653509" lon="2.9037">
        <ele>88.8</ele>
        <time>2016-04-18T16:41:19Z</time>
      </trkpt>
      <trkpt lat="39.653624" lon="2.903826">
        <ele>88.8</ele>
        <time>2016-04-18T16:41:21Z</time>
      </trkpt>
      <trkpt lat="39.654026" lon="2.904281">
        <ele>88.8</ele>
        <time>2016-04-18T16:41:28Z</time>
      </trkpt>
      <trkpt lat="39.654086" lon="2.904348">
        <ele>88.8</ele>
        <time>2016-04-18T16:41:29Z</time>
      </trkpt>
      <trkpt lat="39.654335" lon="2.904603">
        <ele>88.4</ele>
        <time>2016-04-18T16:41:33Z</time>
      </trkpt>
      <trkpt lat="39.654413" lon="2.904662">
        <ele>87.8</ele>
        <time>2016-04-18T16:41:34Z</time>
      </trkpt>
      <trkpt lat="39.654488" lon="2.904719">
        <ele>87.4</ele>
        <time>2016-04-18T16:41:35Z</time>
      </trkpt>
      <trkpt lat="39.654563" lon="2.90477">
        <ele>86.6</ele>
        <time>2016-04-18T16:41:36Z</time>
      </trkpt>
      <trkpt lat="39.654789" lon="2.904914">
        <ele>86</ele>
        <time>2016-04-18T16:41:39Z</time>
      </trkpt>
      <trkpt lat="39.654865" lon="2.90496">
        <ele>85.6</ele>
        <time>2016-04-18T16:41:40Z</time>
      </trkpt>
      <trkpt lat="39.654943" lon="2.905008">
        <ele>85.2</ele>
        <time>2016-04-18T16:41:41Z</time>
      </trkpt>
      <trkpt lat="39.655024" lon="2.905055">
        <ele>84.6</ele>
        <time>2016-04-18T16:41:42Z</time>
      </trkpt>
      <trkpt lat="39.655103" lon="2.905097">
        <ele>84.2</ele>
        <time>2016-04-18T16:41:43Z</time>
      </trkpt>
      <trkpt lat="39.655503" lon="2.905269">
        <ele>83.8</ele>
        <time>2016-04-18T16:41:48Z</time>
      </trkpt>
      <trkpt lat="39.655585" lon="2.905301">
        <ele>83.2</ele>
        <time>2016-04-18T16:41:49Z</time>
      </trkpt>
      <trkpt lat="39.655666" lon="2.905337">
        <ele>82.8</ele>
        <time>2016-04-18T16:41:50Z</time>
      </trkpt>
      <trkpt lat="39.655741" lon="2.905371">
        <ele>82.4</ele>
        <time>2016-04-18T16:41:51Z</time>
      </trkpt>
      <trkpt lat="39.655814" lon="2.905407">
        <ele>82</ele>
        <time>2016-04-18T16:41:52Z</time>
      </trkpt>
      <trkpt lat="39.656035" lon="2.90554">
        <ele>82</ele>
        <time>2016-04-18T16:41:55Z</time>
      </trkpt>
      <trkpt lat="39.656104" lon="2.905598">
        <ele>82</ele>
        <time>2016-04-18T16:41:56Z</time>
      </trkpt>
      <trkpt lat="39.656369" lon="2.905838">
        <ele>81.6</ele>
        <time>2016-04-18T16:42:00Z</time>
      </trkpt>
      <trkpt lat="39.656433" lon="2.905897">
        <ele>81</ele>
        <time>2016-04-18T16:42:01Z</time>
      </trkpt>
      <trkpt lat="39.656494" lon="2.905959">
        <ele>80.6</ele>
        <time>2016-04-18T16:42:02Z</time>
      </trkpt>
      <trkpt lat="39.656557" lon="2.906016">
        <ele>80.2</ele>
        <time>2016-04-18T16:42:03Z</time>
      </trkpt>
      <trkpt lat="39.656618" lon="2.906074">
        <ele>79.8</ele>
        <time>2016-04-18T16:42:04Z</time>
      </trkpt>
      <trkpt lat="39.656866" lon="2.906297">
        <ele>79.8</ele>
        <time>2016-04-18T16:42:08Z</time>
      </trkpt>
      <trkpt lat="39.657252" lon="2.906596">
        <ele>79.8</ele>
        <time>2016-04-18T16:42:14Z</time>
      </trkpt>
      <trkpt lat="39.657393" lon="2.90668">
        <ele>79.8</ele>
        <time>2016-04-18T16:42:16Z</time>
      </trkpt>
      <trkpt lat="39.657816" lon="2.90689">
        <ele>79.8</ele>
        <time>2016-04-18T16:42:22Z</time>
      </trkpt>
      <trkpt lat="39.658333" lon="2.907138">
        <ele>79.8</ele>
        <time>2016-04-18T16:42:29Z</time>
      </trkpt>
      <trkpt lat="39.658409" lon="2.907173">
        <ele>79.4</ele>
        <time>2016-04-18T16:42:30Z</time>
      </trkpt>
      <trkpt lat="39.658481" lon="2.907211">
        <ele>79</ele>
        <time>2016-04-18T16:42:31Z</time>
      </trkpt>
      <trkpt lat="39.658553" lon="2.907248">
        <ele>78.6</ele>
        <time>2016-04-18T16:42:32Z</time>
      </trkpt>
      <trkpt lat="39.658628" lon="2.90728">
        <ele>78.2</ele>
        <time>2016-04-18T16:42:33Z</time>
      </trkpt>
      <trkpt lat="39.658704" lon="2.907311">
        <ele>77.8</ele>
        <time>2016-04-18T16:42:34Z</time>
      </trkpt>
      <trkpt lat="39.659001" lon="2.907455">
        <ele>77.8</ele>
        <time>2016-04-18T16:42:38Z</time>
      </trkpt>
      <trkpt lat="39.659521" lon="2.907639">
        <ele>77.8</ele>
        <time>2016-04-18T16:42:45Z</time>
      </trkpt>
      <trkpt lat="39.660007" lon="2.907781">
        <ele>77.8</ele>
        <time>2016-04-18T16:42:52Z</time>
      </trkpt>
      <trkpt lat="39.66033" lon="2.907997">
        <ele>77.8</ele>
        <time>2016-04-18T16:42:57Z</time>
      </trkpt>
      <trkpt lat="39.660819" lon="2.90843">
        <ele>77.8</ele>
        <time>2016-04-18T16:43:05Z</time>
      </trkpt>
      <trkpt lat="39.661252" lon="2.908757">
        <ele>77.8</ele>
        <time>2016-04-18T16:43:12Z</time>
      </trkpt>
      <trkpt lat="39.661641" lon="2.908969">
        <ele>77.8</ele>
        <time>2016-04-18T16:43:18Z</time>
      </trkpt>
      <trkpt lat="39.662112" lon="2.909129">
        <ele>78.2</ele>
        <time>2016-04-18T16:43:25Z</time>
      </trkpt>
      <trkpt lat="39.66218" lon="2.909148">
        <ele>78.6</ele>
        <time>2016-04-18T16:43:26Z</time>
      </trkpt>
      <trkpt lat="39.662247" lon="2.909166">
        <ele>79.2</ele>
        <time>2016-04-18T16:43:27Z</time>
      </trkpt>
      <trkpt lat="39.662315" lon="2.909185">
        <ele>79.6</ele>
        <time>2016-04-18T16:43:28Z</time>
      </trkpt>
      <trkpt lat="39.662383" lon="2.909202">
        <ele>80</ele>
        <time>2016-04-18T16:43:29Z</time>
      </trkpt>
      <trkpt lat="39.662726" lon="2.909326">
        <ele>80</ele>
        <time>2016-04-18T16:43:34Z</time>
      </trkpt>
      <trkpt lat="39.663179" lon="2.90958">
        <ele>80</ele>
        <time>2016-04-18T16:43:41Z</time>
      </trkpt>
      <trkpt lat="39.663525" lon="2.909866">
        <ele>80</ele>
        <time>2016-04-18T16:43:47Z</time>
      </trkpt>
      <trkpt lat="39.663583" lon="2.909921">
        <ele>80</ele>
        <time>2016-04-18T16:43:48Z</time>
      </trkpt>
      <trkpt lat="39.664018" lon="2.91033">
        <ele>80</ele>
        <time>2016-04-18T16:43:56Z</time>
      </trkpt>
      <trkpt lat="39.664489" lon="2.910773">
        <ele>80</ele>
        <time>2016-04-18T16:44:05Z</time>
      </trkpt>
      <trkpt lat="39.664538" lon="2.910822">
        <ele>80</ele>
        <time>2016-04-18T16:44:06Z</time>
      </trkpt>
      <trkpt lat="39.664994" lon="2.911251">
        <ele>80</ele>
        <time>2016-04-18T16:44:15Z</time>
      </trkpt>
      <trkpt lat="39.665436" lon="2.91167">
        <ele>80</ele>
        <time>2016-04-18T16:44:24Z</time>
      </trkpt>
      <trkpt lat="39.665533" lon="2.911763">
        <ele>80.4</ele>
        <time>2016-04-18T16:44:26Z</time>
      </trkpt>
      <trkpt lat="39.665582" lon="2.911811">
        <ele>80.8</ele>
        <time>2016-04-18T16:44:27Z</time>
      </trkpt>
      <trkpt lat="39.665631" lon="2.911857">
        <ele>81.8</ele>
        <time>2016-04-18T16:44:28Z</time>
      </trkpt>
      <trkpt lat="39.665677" lon="2.9119">
        <ele>82.2</ele>
        <time>2016-04-18T16:44:29Z</time>
      </trkpt>
      <trkpt lat="39.665914" lon="2.912125">
        <ele>82.2</ele>
        <time>2016-04-18T16:44:34Z</time>
      </trkpt>
      <trkpt lat="39.666286" lon="2.912486">
        <ele>82.2</ele>
        <time>2016-04-18T16:44:42Z</time>
      </trkpt>
      <trkpt lat="39.666713" lon="2.912909">
        <ele>82.2</ele>
        <time>2016-04-18T16:44:51Z</time>
      </trkpt>
      <trkpt lat="39.667076" lon="2.913254">
        <ele>82.2</ele>
        <time>2016-04-18T16:44:58Z</time>
      </trkpt>
      <trkpt lat="39.667422" lon="2.913576">
        <ele>82.2</ele>
        <time>2016-04-18T16:45:04Z</time>
      </trkpt>
      <trkpt lat="39.667539" lon="2.913687">
        <ele>81.8</ele>
        <time>2016-04-18T16:45:06Z</time>
      </trkpt>
      <trkpt lat="39.667602" lon="2.913735">
        <ele>81.4</ele>
        <time>2016-04-18T16:45:07Z</time>
      </trkpt>
      <trkpt lat="39.667658" lon="2.913781">
        <ele>80.8</ele>
        <time>2016-04-18T16:45:08Z</time>
      </trkpt>
      <trkpt lat="39.667719" lon="2.913819">
        <ele>80.4</ele>
        <time>2016-04-18T16:45:09Z</time>
      </trkpt>
      <trkpt lat="39.66778" lon="2.913857">
        <ele>80</ele>
        <time>2016-04-18T16:45:10Z</time>
      </trkpt>
      <trkpt lat="39.667912" lon="2.913916">
        <ele>80</ele>
        <time>2016-04-18T16:45:12Z</time>
      </trkpt>
      <trkpt lat="39.668104" lon="2.913979">
        <ele>80</ele>
        <time>2016-04-18T16:45:15Z</time>
      </trkpt>
      <trkpt lat="39.668232" lon="2.914006">
        <ele>80</ele>
        <time>2016-04-18T16:45:17Z</time>
      </trkpt>
      <trkpt lat="39.668359" lon="2.914012">
        <ele>80</ele>
        <time>2016-04-18T16:45:19Z</time>
      </trkpt>
      <trkpt lat="39.668566" lon="2.913992">
        <ele>79.6</ele>
        <time>2016-04-18T16:45:22Z</time>
      </trkpt>
      <trkpt lat="39.668632" lon="2.913979">
        <ele>79.2</ele>
        <time>2016-04-18T16:45:23Z</time>
      </trkpt>
      <trkpt lat="39.668696" lon="2.913963">
        <ele>78.8</ele>
        <time>2016-04-18T16:45:24Z</time>
      </trkpt>
      <trkpt lat="39.668761" lon="2.913946">
        <ele>78.2</ele>
        <time>2016-04-18T16:45:25Z</time>
      </trkpt>
      <trkpt lat="39.668824" lon="2.913928">
        <ele>77.8</ele>
        <time>2016-04-18T16:45:26Z</time>
      </trkpt>
      <trkpt lat="39.669017" lon="2.913875">
        <ele>77.8</ele>
        <time>2016-04-18T16:45:29Z</time>
      </trkpt>
      <trkpt lat="39.669273" lon="2.913812">
        <ele>77.8</ele>
        <time>2016-04-18T16:45:33Z</time>
      </trkpt>
      <trkpt lat="39.669406" lon="2.913794">
        <ele>77.8</ele>
        <time>2016-04-18T16:45:35Z</time>
      </trkpt>
      <trkpt lat="39.669531" lon="2.913792">
        <ele>78.4</ele>
        <time>2016-04-18T16:45:37Z</time>
      </trkpt>
      <trkpt lat="39.669595" lon="2.9138">
        <ele>78.8</ele>
        <time>2016-04-18T16:45:38Z</time>
      </trkpt>
      <trkpt lat="39.669656" lon="2.913814">
        <ele>79.2</ele>
        <time>2016-04-18T16:45:39Z</time>
      </trkpt>
      <trkpt lat="39.669717" lon="2.913831">
        <ele>79.6</ele>
        <time>2016-04-18T16:45:40Z</time>
      </trkpt>
      <trkpt lat="39.669778" lon="2.913854">
        <ele>80.2</ele>
        <time>2016-04-18T16:45:41Z</time>
      </trkpt>
      <trkpt lat="39.670009" lon="2.913966">
        <ele>80.2</ele>
        <time>2016-04-18T16:45:45Z</time>
      </trkpt>
      <trkpt lat="39.670334" lon="2.914162">
        <ele>80.2</ele>
        <time>2016-04-18T16:45:51Z</time>
      </trkpt>
      <trkpt lat="39.670387" lon="2.914194">
        <ele>80.6</ele>
        <time>2016-04-18T16:45:52Z</time>
      </trkpt>
      <trkpt lat="39.670442" lon="2.914229">
        <ele>81.2</ele>
        <time>2016-04-18T16:45:53Z</time>
      </trkpt>
      <trkpt lat="39.670497" lon="2.914264">
        <ele>81.6</ele>
        <time>2016-04-18T16:45:54Z</time>
      </trkpt>
      <trkpt lat="39.670552" lon="2.914295">
        <ele>82.2</ele>
        <time>2016-04-18T16:45:55Z</time>
      </trkpt>
      <trkpt lat="39.670604" lon="2.914328">
        <ele>82.6</ele>
        <time>2016-04-18T16:45:56Z</time>
      </trkpt>
      <trkpt lat="39.670881" lon="2.914505">
        <ele>82.6</ele>
        <time>2016-04-18T16:46:01Z</time>
      </trkpt>
      <trkpt lat="39.670991" lon="2.914576">
        <ele>82.6</ele>
        <time>2016-04-18T16:46:03Z</time>
      </trkpt>
      <trkpt lat="39.6715" lon="2.914919">
        <ele>82.6</ele>
        <time>2016-04-18T16:46:12Z</time>
      </trkpt>
      <trkpt lat="39.671553" lon="2.914959">
        <ele>82.6</ele>
        <time>2016-04-18T16:46:13Z</time>
      </trkpt>
      <trkpt lat="39.671992" lon="2.9153">
        <ele>82.6</ele>
        <time>2016-04-18T16:46:21Z</time>
      </trkpt>
      <trkpt lat="39.672406" lon="2.915676">
        <ele>82.6</ele>
        <time>2016-04-18T16:46:29Z</time>
      </trkpt>
      <trkpt lat="39.672658" lon="2.915919">
        <ele>82.6</ele>
        <time>2016-04-18T16:46:34Z</time>
      </trkpt>
      <trkpt lat="39.672849" lon="2.916118">
        <ele>82.6</ele>
        <time>2016-04-18T16:46:38Z</time>
      </trkpt>
      <trkpt lat="39.673284" lon="2.916558">
        <ele>82.6</ele>
        <time>2016-04-18T16:46:47Z</time>
      </trkpt>
      <trkpt lat="39.673332" lon="2.916607">
        <ele>82.6</ele>
        <time>2016-04-18T16:46:48Z</time>
      </trkpt>
      <trkpt lat="39.673707" lon="2.916999">
        <ele>82.6</ele>
        <time>2016-04-18T16:46:56Z</time>
      </trkpt>
      <trkpt lat="39.673755" lon="2.917048">
        <ele>83</ele>
        <time>2016-04-18T16:46:57Z</time>
      </trkpt>
      <trkpt lat="39.673802" lon="2.917095">
        <ele>83.6</ele>
        <time>2016-04-18T16:46:58Z</time>
      </trkpt>
      <trkpt lat="39.673849" lon="2.917145">
        <ele>84</ele>
        <time>2016-04-18T16:46:59Z</time>
      </trkpt>
      <trkpt lat="39.673895" lon="2.917193">
        <ele>84.4</ele>
        <time>2016-04-18T16:47:00Z</time>
      </trkpt>
      <trkpt lat="39.67394" lon="2.917242">
        <ele>84.8</ele>
        <time>2016-04-18T16:47:01Z</time>
      </trkpt>
      <trkpt lat="39.674259" lon="2.917563">
        <ele>85.2</ele>
        <time>2016-04-18T16:47:08Z</time>
      </trkpt>
      <trkpt lat="39.674306" lon="2.917609">
        <ele>85.6</ele>
        <time>2016-04-18T16:47:09Z</time>
      </trkpt>
      <trkpt lat="39.674349" lon="2.917652">
        <ele>86.2</ele>
        <time>2016-04-18T16:47:10Z</time>
      </trkpt>
      <trkpt lat="39.674392" lon="2.917694">
        <ele>86.6</ele>
        <time>2016-04-18T16:47:11Z</time>
      </trkpt>
      <trkpt lat="39.674435" lon="2.917735">
        <ele>87</ele>
        <time>2016-04-18T16:47:12Z</time>
      </trkpt>
      <trkpt lat="39.674571" lon="2.917841">
        <ele>87</ele>
        <time>2016-04-18T16:47:15Z</time>
      </trkpt>
      <trkpt lat="39.674667" lon="2.917907">
        <ele>87</ele>
        <time>2016-04-18T16:47:17Z</time>
      </trkpt>
      <trkpt lat="39.674814" lon="2.917998">
        <ele>87</ele>
        <time>2016-04-18T16:47:20Z</time>
      </trkpt>
      <trkpt lat="39.674915" lon="2.918041">
        <ele>87</ele>
        <time>2016-04-18T16:47:22Z</time>
      </trkpt>
      <trkpt lat="39.674964" lon="2.91806">
        <ele>87.4</ele>
        <time>2016-04-18T16:47:23Z</time>
      </trkpt>
      <trkpt lat="39.675018" lon="2.91808">
        <ele>87.8</ele>
        <time>2016-04-18T16:47:24Z</time>
      </trkpt>
      <trkpt lat="39.675075" lon="2.918089">
        <ele>88.4</ele>
        <time>2016-04-18T16:47:25Z</time>
      </trkpt>
      <trkpt lat="39.675126" lon="2.918099">
        <ele>88.8</ele>
        <time>2016-04-18T16:47:26Z</time>
      </trkpt>
      <trkpt lat="39.675181" lon="2.918105">
        <ele>89.4</ele>
        <time>2016-04-18T16:47:27Z</time>
      </trkpt>
      <trkpt lat="39.67529" lon="2.918118">
        <ele>89.4</ele>
        <time>2016-04-18T16:47:29Z</time>
      </trkpt>
      <trkpt lat="39.675345" lon="2.918119">
        <ele>89.4</ele>
        <time>2016-04-18T16:47:30Z</time>
      </trkpt>
      <trkpt lat="39.675618" lon="2.918078">
        <ele>89.4</ele>
        <time>2016-04-18T16:47:35Z</time>
      </trkpt>
      <trkpt lat="39.675888" lon="2.917969">
        <ele>89.4</ele>
        <time>2016-04-18T16:47:40Z</time>
      </trkpt>
      <trkpt lat="39.675942" lon="2.917943">
        <ele>89.4</ele>
        <time>2016-04-18T16:47:41Z</time>
      </trkpt>
      <trkpt lat="39.676238" lon="2.917758">
        <ele>89.4</ele>
        <time>2016-04-18T16:47:46Z</time>
      </trkpt>
      <trkpt lat="39.676615" lon="2.917526">
        <ele>89.4</ele>
        <time>2016-04-18T16:47:52Z</time>
      </trkpt>
      <trkpt lat="39.676931" lon="2.917337">
        <ele>89.4</ele>
        <time>2016-04-18T16:47:57Z</time>
      </trkpt>
      <trkpt lat="39.677134" lon="2.917232">
        <ele>89.4</ele>
        <time>2016-04-18T16:48:00Z</time>
      </trkpt>
      <trkpt lat="39.677547" lon="2.917047">
        <ele>89.4</ele>
        <time>2016-04-18T16:48:06Z</time>
      </trkpt>
      <trkpt lat="39.677755" lon="2.916963">
        <ele>89.4</ele>
        <time>2016-04-18T16:48:09Z</time>
      </trkpt>
      <trkpt lat="39.677827" lon="2.916934">
        <ele>88.8</ele>
        <time>2016-04-18T16:48:10Z</time>
      </trkpt>
      <trkpt lat="39.677901" lon="2.916902">
        <ele>88.4</ele>
        <time>2016-04-18T16:48:11Z</time>
      </trkpt>
      <trkpt lat="39.677971" lon="2.916872">
        <ele>88</ele>
        <time>2016-04-18T16:48:12Z</time>
      </trkpt>
      <trkpt lat="39.678041" lon="2.916842">
        <ele>87.6</ele>
        <time>2016-04-18T16:48:13Z</time>
      </trkpt>
      <trkpt lat="39.678112" lon="2.916813">
        <ele>87</ele>
        <time>2016-04-18T16:48:14Z</time>
      </trkpt>
      <trkpt lat="39.678259" lon="2.916755">
        <ele>87</ele>
        <time>2016-04-18T16:48:16Z</time>
      </trkpt>
      <trkpt lat="39.678478" lon="2.916658">
        <ele>87</ele>
        <time>2016-04-18T16:48:19Z</time>
      </trkpt>
      <trkpt lat="39.678777" lon="2.916536">
        <ele>87</ele>
        <time>2016-04-18T16:48:23Z</time>
      </trkpt>
      <trkpt lat="39.678851" lon="2.916507">
        <ele>87</ele>
        <time>2016-04-18T16:48:24Z</time>
      </trkpt>
      <trkpt lat="39.678925" lon="2.916476">
        <ele>87</ele>
        <time>2016-04-18T16:48:25Z</time>
      </trkpt>
      <trkpt lat="39.679166" lon="2.916386">
        <ele>86.6</ele>
        <time>2016-04-18T16:48:28Z</time>
      </trkpt>
      <trkpt lat="39.679251" lon="2.916366">
        <ele>86.2</ele>
        <time>2016-04-18T16:48:29Z</time>
      </trkpt>
      <trkpt lat="39.679337" lon="2.916353">
        <ele>85.8</ele>
        <time>2016-04-18T16:48:30Z</time>
      </trkpt>
      <trkpt lat="39.679424" lon="2.916346">
        <ele>85.4</ele>
        <time>2016-04-18T16:48:31Z</time>
      </trkpt>
      <trkpt lat="39.679514" lon="2.916346">
        <ele>85</ele>
        <time>2016-04-18T16:48:32Z</time>
      </trkpt>
      <trkpt lat="39.67969" lon="2.916364">
        <ele>85</ele>
        <time>2016-04-18T16:48:34Z</time>
      </trkpt>
      <trkpt lat="39.679779" lon="2.916382">
        <ele>84.6</ele>
        <time>2016-04-18T16:48:35Z</time>
      </trkpt>
      <trkpt lat="39.679861" lon="2.916402">
        <ele>84.2</ele>
        <time>2016-04-18T16:48:36Z</time>
      </trkpt>
      <trkpt lat="39.679941" lon="2.916423">
        <ele>83.8</ele>
        <time>2016-04-18T16:48:37Z</time>
      </trkpt>
      <trkpt lat="39.680025" lon="2.916445">
        <ele>83.2</ele>
        <time>2016-04-18T16:48:38Z</time>
      </trkpt>
      <trkpt lat="39.680107" lon="2.916467">
        <ele>82.8</ele>
        <time>2016-04-18T16:48:39Z</time>
      </trkpt>
      <trkpt lat="39.680188" lon="2.916486">
        <ele>82.2</ele>
        <time>2016-04-18T16:48:40Z</time>
      </trkpt>
      <trkpt lat="39.680263" lon="2.916503">
        <ele>81.8</ele>
        <time>2016-04-18T16:48:41Z</time>
      </trkpt>
      <trkpt lat="39.680337" lon="2.916516">
        <ele>81</ele>
        <time>2016-04-18T16:48:42Z</time>
      </trkpt>
      <trkpt lat="39.680416" lon="2.916522">
        <ele>80.2</ele>
        <time>2016-04-18T16:48:43Z</time>
      </trkpt>
      <trkpt lat="39.680491" lon="2.916523">
        <ele>79.4</ele>
        <time>2016-04-18T16:48:44Z</time>
      </trkpt>
      <trkpt lat="39.680566" lon="2.916521">
        <ele>78.6</ele>
        <time>2016-04-18T16:48:45Z</time>
      </trkpt>
      <trkpt lat="39.680641" lon="2.916514">
        <ele>79</ele>
        <time>2016-04-18T16:48:46Z</time>
      </trkpt>
      <trkpt lat="39.680718" lon="2.916505">
        <ele>79.2</ele>
        <time>2016-04-18T16:48:47Z</time>
      </trkpt>
      <trkpt lat="39.68079" lon="2.916499">
        <ele>79.4</ele>
        <time>2016-04-18T16:48:48Z</time>
      </trkpt>
      <trkpt lat="39.680865" lon="2.916493">
        <ele>79.8</ele>
        <time>2016-04-18T16:48:49Z</time>
      </trkpt>
      <trkpt lat="39.68094" lon="2.916484">
        <ele>80.2</ele>
        <time>2016-04-18T16:48:50Z</time>
      </trkpt>
      <trkpt lat="39.681017" lon="2.916474">
        <ele>80.8</ele>
        <time>2016-04-18T16:48:51Z</time>
      </trkpt>
      <trkpt lat="39.681091" lon="2.916463">
        <ele>81.4</ele>
        <time>2016-04-18T16:48:52Z</time>
      </trkpt>
      <trkpt lat="39.681166" lon="2.916453">
        <ele>81.8</ele>
        <time>2016-04-18T16:48:53Z</time>
      </trkpt>
      <trkpt lat="39.68124" lon="2.916443">
        <ele>82.4</ele>
        <time>2016-04-18T16:48:54Z</time>
      </trkpt>
      <trkpt lat="39.681387" lon="2.916418">
        <ele>82.4</ele>
        <time>2016-04-18T16:48:56Z</time>
      </trkpt>
      <trkpt lat="39.681535" lon="2.916397">
        <ele>82.4</ele>
        <time>2016-04-18T16:48:58Z</time>
      </trkpt>
      <trkpt lat="39.681884" lon="2.916344">
        <ele>82.4</ele>
        <time>2016-04-18T16:49:03Z</time>
      </trkpt>
      <trkpt lat="39.68229" lon="2.91627">
        <ele>82.4</ele>
        <time>2016-04-18T16:49:09Z</time>
      </trkpt>
      <trkpt lat="39.682485" lon="2.916218">
        <ele>82.4</ele>
        <time>2016-04-18T16:49:12Z</time>
      </trkpt>
      <trkpt lat="39.682741" lon="2.916128">
        <ele>82.4</ele>
        <time>2016-04-18T16:49:16Z</time>
      </trkpt>
      <trkpt lat="39.682936" lon="2.916054">
        <ele>82.4</ele>
        <time>2016-04-18T16:49:19Z</time>
      </trkpt>
      <trkpt lat="39.683002" lon="2.916027">
        <ele>82.8</ele>
        <time>2016-04-18T16:49:20Z</time>
      </trkpt>
      <trkpt lat="39.683066" lon="2.916004">
        <ele>83.4</ele>
        <time>2016-04-18T16:49:21Z</time>
      </trkpt>
      <trkpt lat="39.683133" lon="2.915981">
        <ele>83.8</ele>
        <time>2016-04-18T16:49:22Z</time>
      </trkpt>
      <trkpt lat="39.683198" lon="2.915962">
        <ele>84.2</ele>
        <time>2016-04-18T16:49:23Z</time>
      </trkpt>
      <trkpt lat="39.683263" lon="2.915947">
        <ele>84.8</ele>
        <time>2016-04-18T16:49:24Z</time>
      </trkpt>
      <trkpt lat="39.68346" lon="2.915905">
        <ele>84.8</ele>
        <time>2016-04-18T16:49:27Z</time>
      </trkpt>
      <trkpt lat="39.684013" lon="2.915828">
        <ele>84.8</ele>
        <time>2016-04-18T16:49:35Z</time>
      </trkpt>
      <trkpt lat="39.684576" lon="2.915749">
        <ele>84.8</ele>
        <time>2016-04-18T16:49:43Z</time>
      </trkpt>
      <trkpt lat="39.684644" lon="2.915736">
        <ele>84.8</ele>
        <time>2016-04-18T16:49:44Z</time>
      </trkpt>
      <trkpt lat="39.685181" lon="2.915623">
        <ele>84.8</ele>
        <time>2016-04-18T16:49:52Z</time>
      </trkpt>
      <trkpt lat="39.685598" lon="2.91553">
        <ele>84.8</ele>
        <time>2016-04-18T16:49:58Z</time>
      </trkpt>
      <trkpt lat="39.686098" lon="2.915465">
        <ele>84.8</ele>
        <time>2016-04-18T16:50:05Z</time>
      </trkpt>
      <trkpt lat="39.686567" lon="2.91543">
        <ele>84.8</ele>
        <time>2016-04-18T16:50:12Z</time>
      </trkpt>
      <trkpt lat="39.686633" lon="2.915425">
        <ele>85.2</ele>
        <time>2016-04-18T16:50:13Z</time>
      </trkpt>
      <trkpt lat="39.686697" lon="2.91542">
        <ele>86</ele>
        <time>2016-04-18T16:50:14Z</time>
      </trkpt>
      <trkpt lat="39.686761" lon="2.915411">
        <ele>86.4</ele>
        <time>2016-04-18T16:50:15Z</time>
      </trkpt>
      <trkpt lat="39.686824" lon="2.915403">
        <ele>86.8</ele>
        <time>2016-04-18T16:50:16Z</time>
      </trkpt>
      <trkpt lat="39.686952" lon="2.915386">
        <ele>86.8</ele>
        <time>2016-04-18T16:50:18Z</time>
      </trkpt>
      <trkpt lat="39.687483" lon="2.915282">
        <ele>86.8</ele>
        <time>2016-04-18T16:50:26Z</time>
      </trkpt>
      <trkpt lat="39.688014" lon="2.915156">
        <ele>86.8</ele>
        <time>2016-04-18T16:50:34Z</time>
      </trkpt>
      <trkpt lat="39.688254" lon="2.915085">
        <ele>86.8</ele>
        <time>2016-04-18T16:50:38Z</time>
      </trkpt>
      <trkpt lat="39.688434" lon="2.915018">
        <ele>86.8</ele>
        <time>2016-04-18T16:50:41Z</time>
      </trkpt>
      <trkpt lat="39.688667" lon="2.914924">
        <ele>86.8</ele>
        <time>2016-04-18T16:50:45Z</time>
      </trkpt>
      <trkpt lat="39.688893" lon="2.91481">
        <ele>86.8</ele>
        <time>2016-04-18T16:50:49Z</time>
      </trkpt>
      <trkpt lat="39.689011" lon="2.914757">
        <ele>87.4</ele>
        <time>2016-04-18T16:50:51Z</time>
      </trkpt>
      <trkpt lat="39.68907" lon="2.914729">
        <ele>87.8</ele>
        <time>2016-04-18T16:50:52Z</time>
      </trkpt>
      <trkpt lat="39.68913" lon="2.914702">
        <ele>88.2</ele>
        <time>2016-04-18T16:50:53Z</time>
      </trkpt>
      <trkpt lat="39.689191" lon="2.914677">
        <ele>88.8</ele>
        <time>2016-04-18T16:50:54Z</time>
      </trkpt>
      <trkpt lat="39.689252" lon="2.914651">
        <ele>89.2</ele>
        <time>2016-04-18T16:50:55Z</time>
      </trkpt>
      <trkpt lat="39.689375" lon="2.914596">
        <ele>89.2</ele>
        <time>2016-04-18T16:50:57Z</time>
      </trkpt>
      <trkpt lat="39.689672" lon="2.914453">
        <ele>88.8</ele>
        <time>2016-04-18T16:51:02Z</time>
      </trkpt>
      <trkpt lat="39.689735" lon="2.914425">
        <ele>87.8</ele>
        <time>2016-04-18T16:51:03Z</time>
      </trkpt>
      <trkpt lat="39.689797" lon="2.914398">
        <ele>87.4</ele>
        <time>2016-04-18T16:51:04Z</time>
      </trkpt>
      <trkpt lat="39.68986" lon="2.914373">
        <ele>87</ele>
        <time>2016-04-18T16:51:05Z</time>
      </trkpt>
      <trkpt lat="39.690102" lon="2.91427">
        <ele>87.4</ele>
        <time>2016-04-18T16:51:09Z</time>
      </trkpt>
      <trkpt lat="39.690167" lon="2.914248">
        <ele>87.8</ele>
        <time>2016-04-18T16:51:10Z</time>
      </trkpt>
      <trkpt lat="39.690231" lon="2.914226">
        <ele>88.2</ele>
        <time>2016-04-18T16:51:11Z</time>
      </trkpt>
      <trkpt lat="39.690297" lon="2.914206">
        <ele>88.6</ele>
        <time>2016-04-18T16:51:12Z</time>
      </trkpt>
      <trkpt lat="39.690367" lon="2.914184">
        <ele>89</ele>
        <time>2016-04-18T16:51:13Z</time>
      </trkpt>
      <trkpt lat="39.690683" lon="2.914108">
        <ele>89</ele>
        <time>2016-04-18T16:51:18Z</time>
      </trkpt>
      <trkpt lat="39.690995" lon="2.914005">
        <ele>89</ele>
        <time>2016-04-18T16:51:23Z</time>
      </trkpt>
      <trkpt lat="39.691188" lon="2.913934">
        <ele>89</ele>
        <time>2016-04-18T16:51:26Z</time>
      </trkpt>
      <trkpt lat="39.691327" lon="2.913878">
        <ele>89</ele>
        <time>2016-04-18T16:51:28Z</time>
      </trkpt>
      <trkpt lat="39.691711" lon="2.913725">
        <ele>89</ele>
        <time>2016-04-18T16:51:34Z</time>
      </trkpt>
      <trkpt lat="39.692247" lon="2.913516">
        <ele>89</ele>
        <time>2016-04-18T16:51:42Z</time>
      </trkpt>
      <trkpt lat="39.692454" lon="2.913438">
        <ele>89</ele>
        <time>2016-04-18T16:51:45Z</time>
      </trkpt>
      <trkpt lat="39.692855" lon="2.913279">
        <ele>89</ele>
        <time>2016-04-18T16:51:51Z</time>
      </trkpt>
      <trkpt lat="39.692986" lon="2.91323">
        <ele>89.8</ele>
        <time>2016-04-18T16:51:53Z</time>
      </trkpt>
      <trkpt lat="39.69305" lon="2.913202">
        <ele>90.2</ele>
        <time>2016-04-18T16:51:54Z</time>
      </trkpt>
      <trkpt lat="39.693114" lon="2.913174">
        <ele>90.6</ele>
        <time>2016-04-18T16:51:55Z</time>
      </trkpt>
      <trkpt lat="39.693177" lon="2.913147">
        <ele>91</ele>
        <time>2016-04-18T16:51:56Z</time>
      </trkpt>
      <trkpt lat="39.69324" lon="2.913122">
        <ele>91</ele>
        <time>2016-04-18T16:51:57Z</time>
      </trkpt>
      <trkpt lat="39.693431" lon="2.913052">
        <ele>91</ele>
        <time>2016-04-18T16:52:00Z</time>
      </trkpt>
      <trkpt lat="39.693865" lon="2.912885">
        <ele>91</ele>
        <time>2016-04-18T16:52:07Z</time>
      </trkpt>
      <trkpt lat="39.694331" lon="2.912704">
        <ele>91</ele>
        <time>2016-04-18T16:52:14Z</time>
      </trkpt>
      <trkpt lat="39.69453" lon="2.912629">
        <ele>91</ele>
        <time>2016-04-18T16:52:17Z</time>
      </trkpt>
      <trkpt lat="39.694726" lon="2.91255">
        <ele>91.4</ele>
        <time>2016-04-18T16:52:20Z</time>
      </trkpt>
      <trkpt lat="39.694791" lon="2.912525">
        <ele>92</ele>
        <time>2016-04-18T16:52:21Z</time>
      </trkpt>
      <trkpt lat="39.694859" lon="2.912499">
        <ele>92.4</ele>
        <time>2016-04-18T16:52:22Z</time>
      </trkpt>
      <trkpt lat="39.694924" lon="2.912475">
        <ele>92.8</ele>
        <time>2016-04-18T16:52:23Z</time>
      </trkpt>
      <trkpt lat="39.69499" lon="2.91245">
        <ele>93.4</ele>
        <time>2016-04-18T16:52:24Z</time>
      </trkpt>
      <trkpt lat="39.695519" lon="2.912239">
        <ele>93.4</ele>
        <time>2016-04-18T16:52:32Z</time>
      </trkpt>
      <trkpt lat="39.695583" lon="2.912213">
        <ele>93.4</ele>
        <time>2016-04-18T16:52:33Z</time>
      </trkpt>
      <trkpt lat="39.696103" lon="2.91202">
        <ele>93.4</ele>
        <time>2016-04-18T16:52:41Z</time>
      </trkpt>
      <trkpt lat="39.696633" lon="2.91185">
        <ele>93.4</ele>
        <time>2016-04-18T16:52:49Z</time>
      </trkpt>
      <trkpt lat="39.697088" lon="2.911719">
        <ele>93.4</ele>
        <time>2016-04-18T16:52:56Z</time>
      </trkpt>
      <trkpt lat="39.697416" lon="2.911621">
        <ele>93.8</ele>
        <time>2016-04-18T16:53:01Z</time>
      </trkpt>
      <trkpt lat="39.697481" lon="2.911603">
        <ele>94.2</ele>
        <time>2016-04-18T16:53:02Z</time>
      </trkpt>
      <trkpt lat="39.697546" lon="2.911586">
        <ele>94.6</ele>
        <time>2016-04-18T16:53:03Z</time>
      </trkpt>
      <trkpt lat="39.697609" lon="2.91157">
        <ele>95.2</ele>
        <time>2016-04-18T16:53:04Z</time>
      </trkpt>
      <trkpt lat="39.697673" lon="2.911555">
        <ele>95.6</ele>
        <time>2016-04-18T16:53:05Z</time>
      </trkpt>
      <trkpt lat="39.698133" lon="2.911447">
        <ele>95.6</ele>
        <time>2016-04-18T16:53:12Z</time>
      </trkpt>
      <trkpt lat="39.698393" lon="2.911398">
        <ele>96</ele>
        <time>2016-04-18T16:53:16Z</time>
      </trkpt>
      <trkpt lat="39.698458" lon="2.911384">
        <ele>96.4</ele>
        <time>2016-04-18T16:53:17Z</time>
      </trkpt>
      <trkpt lat="39.698523" lon="2.911374">
        <ele>96.8</ele>
        <time>2016-04-18T16:53:18Z</time>
      </trkpt>
      <trkpt lat="39.698587" lon="2.911364">
        <ele>97.2</ele>
        <time>2016-04-18T16:53:19Z</time>
      </trkpt>
      <trkpt lat="39.698652" lon="2.911354">
        <ele>97.6</ele>
        <time>2016-04-18T16:53:20Z</time>
      </trkpt>
      <trkpt lat="39.698717" lon="2.911345">
        <ele>97.6</ele>
        <time>2016-04-18T16:53:21Z</time>
      </trkpt>
      <trkpt lat="39.699238" lon="2.911254">
        <ele>97.6</ele>
        <time>2016-04-18T16:53:29Z</time>
      </trkpt>
      <trkpt lat="39.699597" lon="2.911093">
        <ele>97.6</ele>
        <time>2016-04-18T16:53:35Z</time>
      </trkpt>
      <trkpt lat="39.699775" lon="2.910976">
        <ele>98</ele>
        <time>2016-04-18T16:53:38Z</time>
      </trkpt>
      <trkpt lat="39.699836" lon="2.910935">
        <ele>98.4</ele>
        <time>2016-04-18T16:53:39Z</time>
      </trkpt>
      <trkpt lat="39.699899" lon="2.910893">
        <ele>98.8</ele>
        <time>2016-04-18T16:53:40Z</time>
      </trkpt>
      <trkpt lat="39.699955" lon="2.910852">
        <ele>99.2</ele>
        <time>2016-04-18T16:53:41Z</time>
      </trkpt>
      <trkpt lat="39.700011" lon="2.910809">
        <ele>99.6</ele>
        <time>2016-04-18T16:53:42Z</time>
      </trkpt>
      <trkpt lat="39.700519" lon="2.910426">
        <ele>99.6</ele>
        <time>2016-04-18T16:53:51Z</time>
      </trkpt>
      <trkpt lat="39.700865" lon="2.910166">
        <ele>99.6</ele>
        <time>2016-04-18T16:53:57Z</time>
      </trkpt>
      <trkpt lat="39.701042" lon="2.910037">
        <ele>99.6</ele>
        <time>2016-04-18T16:54:00Z</time>
      </trkpt>
      <trkpt lat="39.701104" lon="2.910002">
        <ele>99.6</ele>
        <time>2016-04-18T16:54:01Z</time>
      </trkpt>
      <trkpt lat="39.701375" lon="2.909913">
        <ele>99.6</ele>
        <time>2016-04-18T16:54:05Z</time>
      </trkpt>
      <trkpt lat="39.701722" lon="2.909926">
        <ele>99.6</ele>
        <time>2016-04-18T16:54:10Z</time>
      </trkpt>
      <trkpt lat="39.701929" lon="2.910007">
        <ele>100</ele>
        <time>2016-04-18T16:54:13Z</time>
      </trkpt>
      <trkpt lat="39.701993" lon="2.910041">
        <ele>100.6</ele>
        <time>2016-04-18T16:54:14Z</time>
      </trkpt>
      <trkpt lat="39.702057" lon="2.910074">
        <ele>101</ele>
        <time>2016-04-18T16:54:15Z</time>
      </trkpt>
      <trkpt lat="39.702125" lon="2.910107">
        <ele>101.4</ele>
        <time>2016-04-18T16:54:16Z</time>
      </trkpt>
      <trkpt lat="39.702192" lon="2.910141">
        <ele>101.8</ele>
        <time>2016-04-18T16:54:17Z</time>
      </trkpt>
      <trkpt lat="39.702522" lon="2.910305">
        <ele>101.8</ele>
        <time>2016-04-18T16:54:22Z</time>
      </trkpt>
      <trkpt lat="39.702784" lon="2.910412">
        <ele>101.4</ele>
        <time>2016-04-18T16:54:26Z</time>
      </trkpt>
      <trkpt lat="39.702852" lon="2.910435">
        <ele>101</ele>
        <time>2016-04-18T16:54:27Z</time>
      </trkpt>
      <trkpt lat="39.702918" lon="2.910458">
        <ele>100.4</ele>
        <time>2016-04-18T16:54:28Z</time>
      </trkpt>
      <trkpt lat="39.702982" lon="2.910482">
        <ele>100</ele>
        <time>2016-04-18T16:54:29Z</time>
      </trkpt>
      <trkpt lat="39.703047" lon="2.910503">
        <ele>99.6</ele>
        <time>2016-04-18T16:54:30Z</time>
      </trkpt>
      <trkpt lat="39.703304" lon="2.910563">
        <ele>99.6</ele>
        <time>2016-04-18T16:54:34Z</time>
      </trkpt>
      <trkpt lat="39.703433" lon="2.910584">
        <ele>100</ele>
        <time>2016-04-18T16:54:36Z</time>
      </trkpt>
      <trkpt lat="39.703496" lon="2.910589">
        <ele>100.4</ele>
        <time>2016-04-18T16:54:37Z</time>
      </trkpt>
      <trkpt lat="39.70356" lon="2.910593">
        <ele>100.8</ele>
        <time>2016-04-18T16:54:38Z</time>
      </trkpt>
      <trkpt lat="39.703624" lon="2.910595">
        <ele>101.2</ele>
        <time>2016-04-18T16:54:39Z</time>
      </trkpt>
      <trkpt lat="39.703689" lon="2.910598">
        <ele>101.6</ele>
        <time>2016-04-18T16:54:40Z</time>
      </trkpt>
      <trkpt lat="39.703816" lon="2.910599">
        <ele>101.6</ele>
        <time>2016-04-18T16:54:42Z</time>
      </trkpt>
      <trkpt lat="39.704001" lon="2.910599">
        <ele>101.6</ele>
        <time>2016-04-18T16:54:45Z</time>
      </trkpt>
      <trkpt lat="39.704117" lon="2.910604">
        <ele>101.6</ele>
        <time>2016-04-18T16:54:47Z</time>
      </trkpt>
      <trkpt lat="39.704351" lon="2.910591">
        <ele>101.6</ele>
        <time>2016-04-18T16:54:51Z</time>
      </trkpt>
      <trkpt lat="39.704582" lon="2.910552">
        <ele>102</ele>
        <time>2016-04-18T16:54:55Z</time>
      </trkpt>
      <trkpt lat="39.704631" lon="2.910542">
        <ele>102.6</ele>
        <time>2016-04-18T16:54:56Z</time>
      </trkpt>
      <trkpt lat="39.704684" lon="2.910534">
        <ele>103</ele>
        <time>2016-04-18T16:54:57Z</time>
      </trkpt>
      <trkpt lat="39.704743" lon="2.910525">
        <ele>103.6</ele>
        <time>2016-04-18T16:54:58Z</time>
      </trkpt>
      <trkpt lat="39.704803" lon="2.910516">
        <ele>104</ele>
        <time>2016-04-18T16:54:59Z</time>
      </trkpt>
      <trkpt lat="39.704925" lon="2.910497">
        <ele>104</ele>
        <time>2016-04-18T16:55:01Z</time>
      </trkpt>
      <trkpt lat="39.70533" lon="2.91046">
        <ele>104</ele>
        <time>2016-04-18T16:55:08Z</time>
      </trkpt>
      <trkpt lat="39.705626" lon="2.910453">
        <ele>104</ele>
        <time>2016-04-18T16:55:13Z</time>
      </trkpt>
      <trkpt lat="39.705681" lon="2.910451">
        <ele>104</ele>
        <time>2016-04-18T16:55:14Z</time>
      </trkpt>
      <trkpt lat="39.705853" lon="2.910435">
        <ele>104.4</ele>
        <time>2016-04-18T16:55:17Z</time>
      </trkpt>
      <trkpt lat="39.705908" lon="2.910432">
        <ele>104.8</ele>
        <time>2016-04-18T16:55:18Z</time>
      </trkpt>
      <trkpt lat="39.705965" lon="2.910427">
        <ele>105.2</ele>
        <time>2016-04-18T16:55:19Z</time>
      </trkpt>
      <trkpt lat="39.706022" lon="2.910425">
        <ele>105.6</ele>
        <time>2016-04-18T16:55:20Z</time>
      </trkpt>
      <trkpt lat="39.706077" lon="2.910439">
        <ele>106.2</ele>
        <time>2016-04-18T16:55:21Z</time>
      </trkpt>
      <trkpt lat="39.706129" lon="2.910469">
        <ele>106.2</ele>
        <time>2016-04-18T16:55:22Z</time>
      </trkpt>
      <trkpt lat="39.706305" lon="2.910568">
        <ele>106.2</ele>
        <time>2016-04-18T16:55:26Z</time>
      </trkpt>
      <trkpt lat="39.706433" lon="2.910522">
        <ele>106.2</ele>
        <time>2016-04-18T16:55:29Z</time>
      </trkpt>
      <trkpt lat="39.706474" lon="2.910477">
        <ele>106.2</ele>
        <time>2016-04-18T16:55:30Z</time>
      </trkpt>
      <trkpt lat="39.706514" lon="2.910427">
        <ele>106.2</ele>
        <time>2016-04-18T16:55:31Z</time>
      </trkpt>
      <trkpt lat="39.706559" lon="2.910384">
        <ele>106.2</ele>
        <time>2016-04-18T16:55:32Z</time>
      </trkpt>
      <trkpt lat="39.706667" lon="2.910332">
        <ele>106.2</ele>
        <time>2016-04-18T16:55:34Z</time>
      </trkpt>
      <trkpt lat="39.706843" lon="2.910284">
        <ele>106.2</ele>
        <time>2016-04-18T16:55:37Z</time>
      </trkpt>
      <trkpt lat="39.707007" lon="2.910242">
        <ele>106.2</ele>
        <time>2016-04-18T16:55:40Z</time>
      </trkpt>
      <trkpt lat="39.70722" lon="2.910186">
        <ele>106.6</ele>
        <time>2016-04-18T16:55:44Z</time>
      </trkpt>
      <trkpt lat="39.707272" lon="2.910172">
        <ele>107</ele>
        <time>2016-04-18T16:55:45Z</time>
      </trkpt>
      <trkpt lat="39.707324" lon="2.910154">
        <ele>107.6</ele>
        <time>2016-04-18T16:55:46Z</time>
      </trkpt>
      <trkpt lat="39.707374" lon="2.910136">
        <ele>108</ele>
        <time>2016-04-18T16:55:47Z</time>
      </trkpt>
      <trkpt lat="39.707425" lon="2.91012">
        <ele>108.4</ele>
        <time>2016-04-18T16:55:48Z</time>
      </trkpt>
      <trkpt lat="39.707623" lon="2.910055">
        <ele>108.8</ele>
        <time>2016-04-18T16:55:52Z</time>
      </trkpt>
      <trkpt lat="39.707674" lon="2.910039">
        <ele>109.4</ele>
        <time>2016-04-18T16:55:53Z</time>
      </trkpt>
      <trkpt lat="39.707727" lon="2.910025">
        <ele>109.8</ele>
        <time>2016-04-18T16:55:54Z</time>
      </trkpt>
      <trkpt lat="39.707779" lon="2.910012">
        <ele>110.2</ele>
        <time>2016-04-18T16:55:55Z</time>
      </trkpt>
      <trkpt lat="39.70783" lon="2.909995">
        <ele>110.8</ele>
        <time>2016-04-18T16:55:56Z</time>
      </trkpt>
      <trkpt lat="39.708087" lon="2.909923">
        <ele>111.2</ele>
        <time>2016-04-18T16:56:01Z</time>
      </trkpt>
      <trkpt lat="39.708137" lon="2.909905">
        <ele>111.6</ele>
        <time>2016-04-18T16:56:02Z</time>
      </trkpt>
      <trkpt lat="39.708189" lon="2.909888">
        <ele>112.2</ele>
        <time>2016-04-18T16:56:03Z</time>
      </trkpt>
      <trkpt lat="39.708241" lon="2.909873">
        <ele>112.6</ele>
        <time>2016-04-18T16:56:04Z</time>
      </trkpt>
      <trkpt lat="39.708291" lon="2.909857">
        <ele>113.2</ele>
        <time>2016-04-18T16:56:05Z</time>
      </trkpt>
      <trkpt lat="39.708551" lon="2.909778">
        <ele>113.2</ele>
        <time>2016-04-18T16:56:10Z</time>
      </trkpt>
      <trkpt lat="39.708954" lon="2.909656">
        <ele>113.2</ele>
        <time>2016-04-18T16:56:18Z</time>
      </trkpt>
      <trkpt lat="39.709304" lon="2.90955">
        <ele>113.2</ele>
        <time>2016-04-18T16:56:24Z</time>
      </trkpt>
      <trkpt lat="39.709686" lon="2.909425">
        <ele>113.2</ele>
        <time>2016-04-18T16:56:30Z</time>
      </trkpt>
      <trkpt lat="39.709887" lon="2.909367">
        <ele>113.2</ele>
        <time>2016-04-18T16:56:33Z</time>
      </trkpt>
      <trkpt lat="39.709959" lon="2.909345">
        <ele>112.6</ele>
        <time>2016-04-18T16:56:34Z</time>
      </trkpt>
      <trkpt lat="39.710027" lon="2.909322">
        <ele>112.2</ele>
        <time>2016-04-18T16:56:35Z</time>
      </trkpt>
      <trkpt lat="39.710095" lon="2.909299">
        <ele>111.8</ele>
        <time>2016-04-18T16:56:36Z</time>
      </trkpt>
      <trkpt lat="39.710161" lon="2.909275">
        <ele>111.2</ele>
        <time>2016-04-18T16:56:37Z</time>
      </trkpt>
      <trkpt lat="39.710221" lon="2.909253">
        <ele>110.8</ele>
        <time>2016-04-18T16:56:38Z</time>
      </trkpt>
      <trkpt lat="39.710278" lon="2.909237">
        <ele>110.8</ele>
        <time>2016-04-18T16:56:39Z</time>
      </trkpt>
      <trkpt lat="39.71033" lon="2.909241">
        <ele>110.8</ele>
        <time>2016-04-18T16:56:40Z</time>
      </trkpt>
      <trkpt lat="39.710514" lon="2.909355">
        <ele>110.8</ele>
        <time>2016-04-18T16:56:44Z</time>
      </trkpt>
      <trkpt lat="39.710632" lon="2.909599">
        <ele>110.8</ele>
        <time>2016-04-18T16:56:48Z</time>
      </trkpt>
      <trkpt lat="39.710646" lon="2.909671">
        <ele>110.8</ele>
        <time>2016-04-18T16:56:49Z</time>
      </trkpt>
      <trkpt lat="39.710654" lon="2.909739">
        <ele>110.8</ele>
        <time>2016-04-18T16:56:50Z</time>
      </trkpt>
      <trkpt lat="39.710695" lon="2.910019">
        <ele>110.8</ele>
        <time>2016-04-18T16:56:54Z</time>
      </trkpt>
      <trkpt lat="39.710733" lon="2.910237">
        <ele>110.8</ele>
        <time>2016-04-18T16:56:57Z</time>
      </trkpt>
      <trkpt lat="39.710822" lon="2.91059">
        <ele>110.8</ele>
        <time>2016-04-18T16:57:02Z</time>
      </trkpt>
      <trkpt lat="39.711029" lon="2.911143">
        <ele>110.8</ele>
        <time>2016-04-18T16:57:10Z</time>
      </trkpt>
      <trkpt lat="39.711091" lon="2.911281">
        <ele>109.8</ele>
        <time>2016-04-18T16:57:12Z</time>
      </trkpt>
      <trkpt lat="39.711126" lon="2.911345">
        <ele>109.4</ele>
        <time>2016-04-18T16:57:13Z</time>
      </trkpt>
      <trkpt lat="39.711162" lon="2.911406">
        <ele>108.8</ele>
        <time>2016-04-18T16:57:14Z</time>
      </trkpt>
      <trkpt lat="39.711195" lon="2.911467">
        <ele>108.4</ele>
        <time>2016-04-18T16:57:15Z</time>
      </trkpt>
      <trkpt lat="39.711229" lon="2.911531">
        <ele>108.4</ele>
        <time>2016-04-18T16:57:16Z</time>
      </trkpt>
      <trkpt lat="39.711423" lon="2.911835">
        <ele>108.4</ele>
        <time>2016-04-18T16:57:21Z</time>
      </trkpt>
      <trkpt lat="39.711465" lon="2.911893">
        <ele>108.4</ele>
        <time>2016-04-18T16:57:22Z</time>
      </trkpt>
      <trkpt lat="39.711823" lon="2.912313">
        <ele>108.4</ele>
        <time>2016-04-18T16:57:30Z</time>
      </trkpt>
      <trkpt lat="39.712188" lon="2.912619">
        <ele>108.4</ele>
        <time>2016-04-18T16:57:37Z</time>
      </trkpt>
      <trkpt lat="39.712483" lon="2.912809">
        <ele>108.4</ele>
        <time>2016-04-18T16:57:42Z</time>
      </trkpt>
      <trkpt lat="39.712546" lon="2.912848">
        <ele>108.4</ele>
        <time>2016-04-18T16:57:43Z</time>
      </trkpt>
      <trkpt lat="39.712667" lon="2.912925">
        <ele>107.8</ele>
        <time>2016-04-18T16:57:45Z</time>
      </trkpt>
      <trkpt lat="39.712727" lon="2.912961">
        <ele>107.4</ele>
        <time>2016-04-18T16:57:46Z</time>
      </trkpt>
      <trkpt lat="39.712788" lon="2.912997">
        <ele>107</ele>
        <time>2016-04-18T16:57:47Z</time>
      </trkpt>
      <trkpt lat="39.712848" lon="2.913033">
        <ele>106.4</ele>
        <time>2016-04-18T16:57:48Z</time>
      </trkpt>
      <trkpt lat="39.712908" lon="2.913072">
        <ele>106</ele>
        <time>2016-04-18T16:57:49Z</time>
      </trkpt>
      <trkpt lat="39.713036" lon="2.913151">
        <ele>106</ele>
        <time>2016-04-18T16:57:51Z</time>
      </trkpt>
      <trkpt lat="39.713346" lon="2.913346">
        <ele>106</ele>
        <time>2016-04-18T16:57:56Z</time>
      </trkpt>
      <trkpt lat="39.713531" lon="2.913464">
        <ele>106</ele>
        <time>2016-04-18T16:57:59Z</time>
      </trkpt>
      <trkpt lat="39.714039" lon="2.913776">
        <ele>106</ele>
        <time>2016-04-18T16:58:07Z</time>
      </trkpt>
      <trkpt lat="39.714293" lon="2.913942">
        <ele>105.4</ele>
        <time>2016-04-18T16:58:11Z</time>
      </trkpt>
      <trkpt lat="39.714362" lon="2.913987">
        <ele>105</ele>
        <time>2016-04-18T16:58:12Z</time>
      </trkpt>
      <trkpt lat="39.714431" lon="2.914033">
        <ele>104.6</ele>
        <time>2016-04-18T16:58:13Z</time>
      </trkpt>
      <trkpt lat="39.714502" lon="2.914078">
        <ele>105</ele>
        <time>2016-04-18T16:58:14Z</time>
      </trkpt>
      <trkpt lat="39.714573" lon="2.914124">
        <ele>105.6</ele>
        <time>2016-04-18T16:58:15Z</time>
      </trkpt>
      <trkpt lat="39.714644" lon="2.914169">
        <ele>106.2</ele>
        <time>2016-04-18T16:58:16Z</time>
      </trkpt>
      <trkpt lat="39.714715" lon="2.914214">
        <ele>106.8</ele>
        <time>2016-04-18T16:58:17Z</time>
      </trkpt>
      <trkpt lat="39.714784" lon="2.914258">
        <ele>106.4</ele>
        <time>2016-04-18T16:58:18Z</time>
      </trkpt>
      <trkpt lat="39.714853" lon="2.914299">
        <ele>106.2</ele>
        <time>2016-04-18T16:58:19Z</time>
      </trkpt>
      <trkpt lat="39.714919" lon="2.91434">
        <ele>105.8</ele>
        <time>2016-04-18T16:58:20Z</time>
      </trkpt>
      <trkpt lat="39.714986" lon="2.914382">
        <ele>105.6</ele>
        <time>2016-04-18T16:58:21Z</time>
      </trkpt>
      <trkpt lat="39.715054" lon="2.914423">
        <ele>105.2</ele>
        <time>2016-04-18T16:58:22Z</time>
      </trkpt>
      <trkpt lat="39.715193" lon="2.914505">
        <ele>105.2</ele>
        <time>2016-04-18T16:58:24Z</time>
      </trkpt>
      <trkpt lat="39.715327" lon="2.914598">
        <ele>105.2</ele>
        <time>2016-04-18T16:58:26Z</time>
      </trkpt>
      <trkpt lat="39.71553" lon="2.914718">
        <ele>104.2</ele>
        <time>2016-04-18T16:58:29Z</time>
      </trkpt>
      <trkpt lat="39.715595" lon="2.914756">
        <ele>103.6</ele>
        <time>2016-04-18T16:58:30Z</time>
      </trkpt>
      <trkpt lat="39.715657" lon="2.914795">
        <ele>103.2</ele>
        <time>2016-04-18T16:58:31Z</time>
      </trkpt>
      <trkpt lat="39.715722" lon="2.914835">
        <ele>102.6</ele>
        <time>2016-04-18T16:58:32Z</time>
      </trkpt>
      <trkpt lat="39.715783" lon="2.914873">
        <ele>102.6</ele>
        <time>2016-04-18T16:58:33Z</time>
      </trkpt>
      <trkpt lat="39.71591" lon="2.914952">
        <ele>102.6</ele>
        <time>2016-04-18T16:58:35Z</time>
      </trkpt>
      <trkpt lat="39.716253" lon="2.915186">
        <ele>102.6</ele>
        <time>2016-04-18T16:58:41Z</time>
      </trkpt>
      <trkpt lat="39.716273" lon="2.915246">
        <ele>102.6</ele>
        <time>2016-04-18T16:58:43Z</time>
      </trkpt>
      <trkpt lat="39.716301" lon="2.915324">
        <ele>103</ele>
        <time>2016-04-18T16:58:45Z</time>
      </trkpt>
      <trkpt lat="39.716331" lon="2.915361">
        <ele>103.6</ele>
        <time>2016-04-18T16:58:46Z</time>
      </trkpt>
      <trkpt lat="39.716366" lon="2.915394">
        <ele>104</ele>
        <time>2016-04-18T16:58:47Z</time>
      </trkpt>
      <trkpt lat="39.716405" lon="2.915419">
        <ele>104.4</ele>
        <time>2016-04-18T16:58:48Z</time>
      </trkpt>
      <trkpt lat="39.716447" lon="2.915437">
        <ele>104.8</ele>
        <time>2016-04-18T16:58:49Z</time>
      </trkpt>
      <trkpt lat="39.716493" lon="2.915451">
        <ele>104.8</ele>
        <time>2016-04-18T16:58:50Z</time>
      </trkpt>
      <trkpt lat="39.716544" lon="2.915459">
        <ele>104.8</ele>
        <time>2016-04-18T16:58:51Z</time>
      </trkpt>
      <trkpt lat="39.716649" lon="2.915502">
        <ele>104.8</ele>
        <time>2016-04-18T16:58:53Z</time>
      </trkpt>
      <trkpt lat="39.71676" lon="2.915563">
        <ele>104.8</ele>
        <time>2016-04-18T16:58:55Z</time>
      </trkpt>
      <trkpt lat="39.716961" lon="2.91568">
        <ele>104.8</ele>
        <time>2016-04-18T16:58:59Z</time>
      </trkpt>
      <trkpt lat="39.717007" lon="2.915711">
        <ele>104.8</ele>
        <time>2016-04-18T16:59:00Z</time>
      </trkpt>
      <trkpt lat="39.71729" lon="2.915888">
        <ele>104.8</ele>
        <time>2016-04-18T16:59:06Z</time>
      </trkpt>
      <trkpt lat="39.717522" lon="2.916009">
        <ele>104.8</ele>
        <time>2016-04-18T16:59:11Z</time>
      </trkpt>
      <trkpt lat="39.717566" lon="2.916036">
        <ele>104.8</ele>
        <time>2016-04-18T16:59:12Z</time>
      </trkpt>
      <trkpt lat="39.717751" lon="2.916152">
        <ele>105.2</ele>
        <time>2016-04-18T16:59:16Z</time>
      </trkpt>
      <trkpt lat="39.717795" lon="2.916183">
        <ele>105.6</ele>
        <time>2016-04-18T16:59:17Z</time>
      </trkpt>
      <trkpt lat="39.717843" lon="2.916212">
        <ele>106.4</ele>
        <time>2016-04-18T16:59:18Z</time>
      </trkpt>
      <trkpt lat="39.717892" lon="2.916244">
        <ele>106.8</ele>
        <time>2016-04-18T16:59:19Z</time>
      </trkpt>
      <trkpt lat="39.718101" lon="2.916392">
        <ele>106.8</ele>
        <time>2016-04-18T16:59:24Z</time>
      </trkpt>
      <trkpt lat="39.718148" lon="2.916419">
        <ele>106.8</ele>
        <time>2016-04-18T16:59:25Z</time>
      </trkpt>
      <trkpt lat="39.718292" lon="2.916505">
        <ele>107.4</ele>
        <time>2016-04-18T16:59:28Z</time>
      </trkpt>
      <trkpt lat="39.718341" lon="2.916532">
        <ele>107.8</ele>
        <time>2016-04-18T16:59:29Z</time>
      </trkpt>
      <trkpt lat="39.718391" lon="2.916559">
        <ele>108.2</ele>
        <time>2016-04-18T16:59:30Z</time>
      </trkpt>
      <trkpt lat="39.718437" lon="2.916586">
        <ele>108.6</ele>
        <time>2016-04-18T16:59:31Z</time>
      </trkpt>
      <trkpt lat="39.718481" lon="2.916611">
        <ele>109</ele>
        <time>2016-04-18T16:59:32Z</time>
      </trkpt>
      <trkpt lat="39.718666" lon="2.916726">
        <ele>109</ele>
        <time>2016-04-18T16:59:36Z</time>
      </trkpt>
      <trkpt lat="39.718981" lon="2.916919">
        <ele>108.6</ele>
        <time>2016-04-18T16:59:42Z</time>
      </trkpt>
      <trkpt lat="39.71904" lon="2.916956">
        <ele>108.2</ele>
        <time>2016-04-18T16:59:43Z</time>
      </trkpt>
      <trkpt lat="39.7191" lon="2.916997">
        <ele>107.8</ele>
        <time>2016-04-18T16:59:44Z</time>
      </trkpt>
      <trkpt lat="39.719162" lon="2.917043">
        <ele>107.2</ele>
        <time>2016-04-18T16:59:45Z</time>
      </trkpt>
      <trkpt lat="39.719224" lon="2.917089">
        <ele>106.8</ele>
        <time>2016-04-18T16:59:46Z</time>
      </trkpt>
      <trkpt lat="39.719288" lon="2.917134">
        <ele>106.4</ele>
        <time>2016-04-18T16:59:47Z</time>
      </trkpt>
      <trkpt lat="39.719351" lon="2.91718">
        <ele>105.8</ele>
        <time>2016-04-18T16:59:48Z</time>
      </trkpt>
      <trkpt lat="39.719416" lon="2.917221">
        <ele>105.2</ele>
        <time>2016-04-18T16:59:49Z</time>
      </trkpt>
      <trkpt lat="39.719486" lon="2.917264">
        <ele>104.8</ele>
        <time>2016-04-18T16:59:50Z</time>
      </trkpt>
      <trkpt lat="39.719554" lon="2.917305">
        <ele>104</ele>
        <time>2016-04-18T16:59:51Z</time>
      </trkpt>
      <trkpt lat="39.719622" lon="2.917341">
        <ele>103.4</ele>
        <time>2016-04-18T16:59:52Z</time>
      </trkpt>
      <trkpt lat="39.719687" lon="2.91738">
        <ele>102.6</ele>
        <time>2016-04-18T16:59:53Z</time>
      </trkpt>
      <trkpt lat="39.719754" lon="2.917424">
        <ele>101.8</ele>
        <time>2016-04-18T16:59:54Z</time>
      </trkpt>
      <trkpt lat="39.719822" lon="2.917473">
        <ele>101.2</ele>
        <time>2016-04-18T16:59:55Z</time>
      </trkpt>
      <trkpt lat="39.719886" lon="2.917529">
        <ele>101.2</ele>
        <time>2016-04-18T16:59:56Z</time>
      </trkpt>
      <trkpt lat="39.720002" lon="2.91766">
        <ele>100.8</ele>
        <time>2016-04-18T16:59:58Z</time>
      </trkpt>
      <trkpt lat="39.720033" lon="2.917734">
        <ele>100.2</ele>
        <time>2016-04-18T16:59:59Z</time>
      </trkpt>
      <trkpt lat="39.720039" lon="2.917822">
        <ele>99.8</ele>
        <time>2016-04-18T17:00:00Z</time>
      </trkpt>
      <trkpt lat="39.720022" lon="2.917913">
        <ele>99.4</ele>
        <time>2016-04-18T17:00:01Z</time>
      </trkpt>
      <trkpt lat="39.719999" lon="2.917997">
        <ele>99</ele>
        <time>2016-04-18T17:00:02Z</time>
      </trkpt>
      <trkpt lat="39.719966" lon="2.91808">
        <ele>99</ele>
        <time>2016-04-18T17:00:03Z</time>
      </trkpt>
      <trkpt lat="39.719901" lon="2.918251">
        <ele>99</ele>
        <time>2016-04-18T17:00:05Z</time>
      </trkpt>
      <trkpt lat="39.719847" lon="2.918425">
        <ele>99</ele>
        <time>2016-04-18T17:00:07Z</time>
      </trkpt>
      <trkpt lat="39.719761" lon="2.918667">
        <ele>98.4</ele>
        <time>2016-04-18T17:00:10Z</time>
      </trkpt>
      <trkpt lat="39.719732" lon="2.918749">
        <ele>98</ele>
        <time>2016-04-18T17:00:11Z</time>
      </trkpt>
      <trkpt lat="39.719704" lon="2.918829">
        <ele>97.4</ele>
        <time>2016-04-18T17:00:12Z</time>
      </trkpt>
      <trkpt lat="39.719673" lon="2.918911">
        <ele>97</ele>
        <time>2016-04-18T17:00:13Z</time>
      </trkpt>
      <trkpt lat="39.719644" lon="2.918992">
        <ele>96.4</ele>
        <time>2016-04-18T17:00:14Z</time>
      </trkpt>
      <trkpt lat="39.719583" lon="2.919154">
        <ele>96.4</ele>
        <time>2016-04-18T17:00:16Z</time>
      </trkpt>
      <trkpt lat="39.719493" lon="2.919401">
        <ele>96.4</ele>
        <time>2016-04-18T17:00:19Z</time>
      </trkpt>
      <trkpt lat="39.719402" lon="2.919665">
        <ele>96.4</ele>
        <time>2016-04-18T17:00:22Z</time>
      </trkpt>
      <trkpt lat="39.719283" lon="2.919991">
        <ele>96.4</ele>
        <time>2016-04-18T17:00:26Z</time>
      </trkpt>
      <trkpt lat="39.719185" lon="2.920245">
        <ele>96.4</ele>
        <time>2016-04-18T17:00:29Z</time>
      </trkpt>
      <trkpt lat="39.719026" lon="2.920685">
        <ele>96.4</ele>
        <time>2016-04-18T17:00:34Z</time>
      </trkpt>
      <trkpt lat="39.718773" lon="2.921404">
        <ele>96.4</ele>
        <time>2016-04-18T17:00:42Z</time>
      </trkpt>
      <trkpt lat="39.718742" lon="2.92149">
        <ele>95.8</ele>
        <time>2016-04-18T17:00:43Z</time>
      </trkpt>
      <trkpt lat="39.718713" lon="2.921575">
        <ele>95.4</ele>
        <time>2016-04-18T17:00:44Z</time>
      </trkpt>
      <trkpt lat="39.718682" lon="2.921663">
        <ele>94.8</ele>
        <time>2016-04-18T17:00:45Z</time>
      </trkpt>
      <trkpt lat="39.71865" lon="2.921744">
        <ele>94.2</ele>
        <time>2016-04-18T17:00:46Z</time>
      </trkpt>
      <trkpt lat="39.71862" lon="2.921821">
        <ele>93.6</ele>
        <time>2016-04-18T17:00:47Z</time>
      </trkpt>
      <trkpt lat="39.718512" lon="2.922119">
        <ele>93.6</ele>
        <time>2016-04-18T17:00:51Z</time>
      </trkpt>
      <trkpt lat="39.718409" lon="2.922384">
        <ele>93.6</ele>
        <time>2016-04-18T17:00:55Z</time>
      </trkpt>
      <trkpt lat="39.718397" lon="2.922444">
        <ele>93.6</ele>
        <time>2016-04-18T17:00:56Z</time>
      </trkpt>
      <trkpt lat="39.718448" lon="2.922549">
        <ele>93.6</ele>
        <time>2016-04-18T17:00:58Z</time>
      </trkpt>
      <trkpt lat="39.718593" lon="2.922652">
        <ele>93.6</ele>
        <time>2016-04-18T17:01:01Z</time>
      </trkpt>
      <trkpt lat="39.71865" lon="2.922701">
        <ele>93.6</ele>
        <time>2016-04-18T17:01:02Z</time>
      </trkpt>
      <trkpt lat="39.718869" lon="2.922916">
        <ele>93.6</ele>
        <time>2016-04-18T17:01:06Z</time>
      </trkpt>
      <trkpt lat="39.718966" lon="2.923043">
        <ele>93.6</ele>
        <time>2016-04-18T17:01:08Z</time>
      </trkpt>
      <trkpt lat="39.71901" lon="2.92312">
        <ele>93.6</ele>
        <time>2016-04-18T17:01:09Z</time>
      </trkpt>
      <trkpt lat="39.719119" lon="2.923352">
        <ele>93.6</ele>
        <time>2016-04-18T17:01:12Z</time>
      </trkpt>
      <trkpt lat="39.719347" lon="2.923791">
        <ele>93.6</ele>
        <time>2016-04-18T17:01:18Z</time>
      </trkpt>
      <trkpt lat="39.719535" lon="2.92416">
        <ele>93.6</ele>
        <time>2016-04-18T17:01:24Z</time>
      </trkpt>
      <trkpt lat="39.719613" lon="2.924311">
        <ele>93.6</ele>
        <time>2016-04-18T17:01:28Z</time>
      </trkpt>
      <trkpt lat="39.719801" lon="2.92468">
        <ele>93.6</ele>
        <time>2016-04-18T17:01:34Z</time>
      </trkpt>
      <trkpt lat="39.719868" lon="2.924812">
        <ele>93.6</ele>
        <time>2016-04-18T17:01:36Z</time>
      </trkpt>
      <trkpt lat="39.71997" lon="2.925004">
        <ele>93.6</ele>
        <time>2016-04-18T17:01:39Z</time>
      </trkpt>
      <trkpt lat="39.720035" lon="2.925129">
        <ele>93.6</ele>
        <time>2016-04-18T17:01:41Z</time>
      </trkpt>
      <trkpt lat="39.720188" lon="2.925443">
        <ele>93.6</ele>
        <time>2016-04-18T17:01:46Z</time>
      </trkpt>
      <trkpt lat="39.720401" lon="2.925815">
        <ele>93.6</ele>
        <time>2016-04-18T17:01:52Z</time>
      </trkpt>
      <trkpt lat="39.720612" lon="2.926187">
        <ele>93.6</ele>
        <time>2016-04-18T17:01:58Z</time>
      </trkpt>
      <trkpt lat="39.720848" lon="2.926633">
        <ele>93.6</ele>
        <time>2016-04-18T17:02:05Z</time>
      </trkpt>
      <trkpt lat="39.72108" lon="2.927175">
        <ele>93.6</ele>
        <time>2016-04-18T17:02:13Z</time>
      </trkpt>
      <trkpt lat="39.721266" lon="2.927684">
        <ele>93.6</ele>
        <time>2016-04-18T17:02:21Z</time>
      </trkpt>
      <trkpt lat="39.721301" lon="2.927769">
        <ele>94</ele>
        <time>2016-04-18T17:02:23Z</time>
      </trkpt>
      <trkpt lat="39.721319" lon="2.927806">
        <ele>94.6</ele>
        <time>2016-04-18T17:02:24Z</time>
      </trkpt>
      <trkpt lat="39.721333" lon="2.92784">
        <ele>95</ele>
        <time>2016-04-18T17:02:25Z</time>
      </trkpt>
      <trkpt lat="39.721346" lon="2.927876">
        <ele>95.6</ele>
        <time>2016-04-18T17:02:26Z</time>
      </trkpt>
      <trkpt lat="39.721359" lon="2.927913">
        <ele>96</ele>
        <time>2016-04-18T17:02:27Z</time>
      </trkpt>
      <trkpt lat="39.721384" lon="2.927988">
        <ele>96.4</ele>
        <time>2016-04-18T17:02:29Z</time>
      </trkpt>
      <trkpt lat="39.721399" lon="2.928024">
        <ele>96.8</ele>
        <time>2016-04-18T17:02:30Z</time>
      </trkpt>
      <trkpt lat="39.721413" lon="2.928063">
        <ele>97.4</ele>
        <time>2016-04-18T17:02:31Z</time>
      </trkpt>
      <trkpt lat="39.721425" lon="2.928101">
        <ele>97.8</ele>
        <time>2016-04-18T17:02:32Z</time>
      </trkpt>
      <trkpt lat="39.721439" lon="2.928138">
        <ele>98.2</ele>
        <time>2016-04-18T17:02:33Z</time>
      </trkpt>
      <trkpt lat="39.721473" lon="2.928205">
        <ele>98.2</ele>
        <time>2016-04-18T17:02:35Z</time>
      </trkpt>
      <trkpt lat="39.721545" lon="2.9284">
        <ele>98.6</ele>
        <time>2016-04-18T17:02:40Z</time>
      </trkpt>
      <trkpt lat="39.721562" lon="2.92844">
        <ele>99</ele>
        <time>2016-04-18T17:02:41Z</time>
      </trkpt>
      <trkpt lat="39.721575" lon="2.928483">
        <ele>99.4</ele>
        <time>2016-04-18T17:02:42Z</time>
      </trkpt>
      <trkpt lat="39.721593" lon="2.928524">
        <ele>99.8</ele>
        <time>2016-04-18T17:02:43Z</time>
      </trkpt>
      <trkpt lat="39.72161" lon="2.928563">
        <ele>100.2</ele>
        <time>2016-04-18T17:02:44Z</time>
      </trkpt>
      <trkpt lat="39.721625" lon="2.928603">
        <ele>100.2</ele>
        <time>2016-04-18T17:02:45Z</time>
      </trkpt>
      <trkpt lat="39.721676" lon="2.928742">
        <ele>100.2</ele>
        <time>2016-04-18T17:02:48Z</time>
      </trkpt>
      <trkpt lat="39.721729" lon="2.928897">
        <ele>100.2</ele>
        <time>2016-04-18T17:02:51Z</time>
      </trkpt>
      <trkpt lat="39.721882" lon="2.929306">
        <ele>100.2</ele>
        <time>2016-04-18T17:02:58Z</time>
      </trkpt>
      <trkpt lat="39.721967" lon="2.929522">
        <ele>99.8</ele>
        <time>2016-04-18T17:03:01Z</time>
      </trkpt>
      <trkpt lat="39.721999" lon="2.929604">
        <ele>99.4</ele>
        <time>2016-04-18T17:03:02Z</time>
      </trkpt>
      <trkpt lat="39.722034" lon="2.929692">
        <ele>99</ele>
        <time>2016-04-18T17:03:03Z</time>
      </trkpt>
      <trkpt lat="39.72207" lon="2.929785">
        <ele>98.2</ele>
        <time>2016-04-18T17:03:04Z</time>
      </trkpt>
      <trkpt lat="39.722106" lon="2.929882">
        <ele>97.6</ele>
        <time>2016-04-18T17:03:05Z</time>
      </trkpt>
      <trkpt lat="39.722144" lon="2.929986">
        <ele>96.8</ele>
        <time>2016-04-18T17:03:06Z</time>
      </trkpt>
      <trkpt lat="39.722185" lon="2.930089">
        <ele>95.8</ele>
        <time>2016-04-18T17:03:07Z</time>
      </trkpt>
      <trkpt lat="39.722227" lon="2.930194">
        <ele>95</ele>
        <time>2016-04-18T17:03:08Z</time>
      </trkpt>
      <trkpt lat="39.722271" lon="2.930301">
        <ele>94</ele>
        <time>2016-04-18T17:03:09Z</time>
      </trkpt>
      <trkpt lat="39.722316" lon="2.930413">
        <ele>93.2</ele>
        <time>2016-04-18T17:03:10Z</time>
      </trkpt>
      <trkpt lat="39.72236" lon="2.930528">
        <ele>92.2</ele>
        <time>2016-04-18T17:03:11Z</time>
      </trkpt>
      <trkpt lat="39.722405" lon="2.93064">
        <ele>91.4</ele>
        <time>2016-04-18T17:03:12Z</time>
      </trkpt>
      <trkpt lat="39.722454" lon="2.930752">
        <ele>90.6</ele>
        <time>2016-04-18T17:03:13Z</time>
      </trkpt>
      <trkpt lat="39.722498" lon="2.930855">
        <ele>89.8</ele>
        <time>2016-04-18T17:03:14Z</time>
      </trkpt>
      <trkpt lat="39.722541" lon="2.930955">
        <ele>89</ele>
        <time>2016-04-18T17:03:15Z</time>
      </trkpt>
      <trkpt lat="39.72258" lon="2.931049">
        <ele>88.2</ele>
        <time>2016-04-18T17:03:16Z</time>
      </trkpt>
      <trkpt lat="39.722723" lon="2.931432">
        <ele>88.2</ele>
        <time>2016-04-18T17:03:20Z</time>
      </trkpt>
      <trkpt lat="39.722898" lon="2.931894">
        <ele>88.2</ele>
        <time>2016-04-18T17:03:25Z</time>
      </trkpt>
      <trkpt lat="39.722962" lon="2.932071">
        <ele>88.2</ele>
        <time>2016-04-18T17:03:27Z</time>
      </trkpt>
      <trkpt lat="39.723219" lon="2.932772">
        <ele>88.2</ele>
        <time>2016-04-18T17:03:35Z</time>
      </trkpt>
      <trkpt lat="39.723251" lon="2.932857">
        <ele>88.2</ele>
        <time>2016-04-18T17:03:36Z</time>
      </trkpt>
      <trkpt lat="39.723542" lon="2.933517">
        <ele>88.2</ele>
        <time>2016-04-18T17:03:44Z</time>
      </trkpt>
      <trkpt lat="39.723809" lon="2.934067">
        <ele>88.2</ele>
        <time>2016-04-18T17:03:51Z</time>
      </trkpt>
      <trkpt lat="39.724017" lon="2.934488">
        <ele>88.2</ele>
        <time>2016-04-18T17:03:57Z</time>
      </trkpt>
      <trkpt lat="39.724291" lon="2.935025">
        <ele>88.2</ele>
        <time>2016-04-18T17:04:05Z</time>
      </trkpt>
      <trkpt lat="39.724355" lon="2.93515">
        <ele>88.2</ele>
        <time>2016-04-18T17:04:07Z</time>
      </trkpt>
      <trkpt lat="39.724414" lon="2.935263">
        <ele>88.2</ele>
        <time>2016-04-18T17:04:09Z</time>
      </trkpt>
      <trkpt lat="39.724482" lon="2.93537">
        <ele>88.2</ele>
        <time>2016-04-18T17:04:11Z</time>
      </trkpt>
      <trkpt lat="39.724622" lon="2.935581">
        <ele>88.6</ele>
        <time>2016-04-18T17:04:15Z</time>
      </trkpt>
      <trkpt lat="39.724654" lon="2.93563">
        <ele>89</ele>
        <time>2016-04-18T17:04:16Z</time>
      </trkpt>
      <trkpt lat="39.724683" lon="2.93568">
        <ele>89.4</ele>
        <time>2016-04-18T17:04:17Z</time>
      </trkpt>
      <trkpt lat="39.724712" lon="2.935727">
        <ele>89.8</ele>
        <time>2016-04-18T17:04:18Z</time>
      </trkpt>
      <trkpt lat="39.724739" lon="2.935771">
        <ele>90.2</ele>
        <time>2016-04-18T17:04:19Z</time>
      </trkpt>
      <trkpt lat="39.72477" lon="2.935816">
        <ele>90.2</ele>
        <time>2016-04-18T17:04:20Z</time>
      </trkpt>
      <trkpt lat="39.724891" lon="2.935994">
        <ele>90.6</ele>
        <time>2016-04-18T17:04:24Z</time>
      </trkpt>
      <trkpt lat="39.724919" lon="2.936037">
        <ele>91</ele>
        <time>2016-04-18T17:04:25Z</time>
      </trkpt>
      <trkpt lat="39.724948" lon="2.936081">
        <ele>91.6</ele>
        <time>2016-04-18T17:04:26Z</time>
      </trkpt>
      <trkpt lat="39.724973" lon="2.936126">
        <ele>92</ele>
        <time>2016-04-18T17:04:27Z</time>
      </trkpt>
      <trkpt lat="39.724997" lon="2.936173">
        <ele>92.4</ele>
        <time>2016-04-18T17:04:28Z</time>
      </trkpt>
      <trkpt lat="39.725124" lon="2.936449">
        <ele>92.8</ele>
        <time>2016-04-18T17:04:34Z</time>
      </trkpt>
      <trkpt lat="39.725145" lon="2.936493">
        <ele>93.2</ele>
        <time>2016-04-18T17:04:35Z</time>
      </trkpt>
      <trkpt lat="39.725164" lon="2.936538">
        <ele>93.6</ele>
        <time>2016-04-18T17:04:36Z</time>
      </trkpt>
      <trkpt lat="39.725184" lon="2.936584">
        <ele>94</ele>
        <time>2016-04-18T17:04:37Z</time>
      </trkpt>
      <trkpt lat="39.725202" lon="2.936633">
        <ele>94.4</ele>
        <time>2016-04-18T17:04:38Z</time>
      </trkpt>
      <trkpt lat="39.725222" lon="2.93668">
        <ele>94.4</ele>
        <time>2016-04-18T17:04:39Z</time>
      </trkpt>
      <trkpt lat="39.725283" lon="2.936816">
        <ele>95</ele>
        <time>2016-04-18T17:04:42Z</time>
      </trkpt>
      <trkpt lat="39.725303" lon="2.936862">
        <ele>95.8</ele>
        <time>2016-04-18T17:04:43Z</time>
      </trkpt>
      <trkpt lat="39.725323" lon="2.936909">
        <ele>96.4</ele>
        <time>2016-04-18T17:04:44Z</time>
      </trkpt>
      <trkpt lat="39.725341" lon="2.936956">
        <ele>97</ele>
        <time>2016-04-18T17:04:45Z</time>
      </trkpt>
      <trkpt lat="39.725362" lon="2.936997">
        <ele>97.6</ele>
        <time>2016-04-18T17:04:46Z</time>
      </trkpt>
      <trkpt lat="39.725392" lon="2.937076">
        <ele>97.6</ele>
        <time>2016-04-18T17:04:48Z</time>
      </trkpt>
      <trkpt lat="39.725517" lon="2.937395">
        <ele>97.6</ele>
        <time>2016-04-18T17:04:56Z</time>
      </trkpt>
      <trkpt lat="39.725591" lon="2.937566">
        <ele>98</ele>
        <time>2016-04-18T17:05:00Z</time>
      </trkpt>
      <trkpt lat="39.725611" lon="2.937609">
        <ele>98.4</ele>
        <time>2016-04-18T17:05:01Z</time>
      </trkpt>
      <trkpt lat="39.725632" lon="2.937654">
        <ele>98.8</ele>
        <time>2016-04-18T17:05:02Z</time>
      </trkpt>
      <trkpt lat="39.725652" lon="2.937699">
        <ele>99.4</ele>
        <time>2016-04-18T17:05:03Z</time>
      </trkpt>
      <trkpt lat="39.725672" lon="2.937742">
        <ele>99.8</ele>
        <time>2016-04-18T17:05:04Z</time>
      </trkpt>
      <trkpt lat="39.725786" lon="2.937982">
        <ele>100.2</ele>
        <time>2016-04-18T17:05:09Z</time>
      </trkpt>
      <trkpt lat="39.72581" lon="2.93803">
        <ele>100.6</ele>
        <time>2016-04-18T17:05:10Z</time>
      </trkpt>
      <trkpt lat="39.725832" lon="2.938074">
        <ele>101</ele>
        <time>2016-04-18T17:05:11Z</time>
      </trkpt>
      <trkpt lat="39.725856" lon="2.938122">
        <ele>101.4</ele>
        <time>2016-04-18T17:05:12Z</time>
      </trkpt>
      <trkpt lat="39.725879" lon="2.938167">
        <ele>101.8</ele>
        <time>2016-04-18T17:05:13Z</time>
      </trkpt>
      <trkpt lat="39.725962" lon="2.938345">
        <ele>101.8</ele>
        <time>2016-04-18T17:05:17Z</time>
      </trkpt>
      <trkpt lat="39.725977" lon="2.938397">
        <ele>101.8</ele>
        <time>2016-04-18T17:05:18Z</time>
      </trkpt>
      <trkpt lat="39.725996" lon="2.938446">
        <ele>101.8</ele>
        <time>2016-04-18T17:05:19Z</time>
      </trkpt>
      <trkpt lat="39.726062" lon="2.938585">
        <ele>102.4</ele>
        <time>2016-04-18T17:05:22Z</time>
      </trkpt>
      <trkpt lat="39.726084" lon="2.938638">
        <ele>102.8</ele>
        <time>2016-04-18T17:05:23Z</time>
      </trkpt>
      <trkpt lat="39.726106" lon="2.938687">
        <ele>103.2</ele>
        <time>2016-04-18T17:05:24Z</time>
      </trkpt>
      <trkpt lat="39.726131" lon="2.938744">
        <ele>104</ele>
        <time>2016-04-18T17:05:25Z</time>
      </trkpt>
      <trkpt lat="39.726251" lon="2.939012">
        <ele>104</ele>
        <time>2016-04-18T17:05:31Z</time>
      </trkpt>
      <trkpt lat="39.726338" lon="2.939194">
        <ele>104</ele>
        <time>2016-04-18T17:05:35Z</time>
      </trkpt>
      <trkpt lat="39.726356" lon="2.939239">
        <ele>104.4</ele>
        <time>2016-04-18T17:05:36Z</time>
      </trkpt>
      <trkpt lat="39.726372" lon="2.939287">
        <ele>104.8</ele>
        <time>2016-04-18T17:05:37Z</time>
      </trkpt>
      <trkpt lat="39.726393" lon="2.939334">
        <ele>105.2</ele>
        <time>2016-04-18T17:05:38Z</time>
      </trkpt>
      <trkpt lat="39.726416" lon="2.939377">
        <ele>105.6</ele>
        <time>2016-04-18T17:05:39Z</time>
      </trkpt>
      <trkpt lat="39.726442" lon="2.939424">
        <ele>106</ele>
        <time>2016-04-18T17:05:40Z</time>
      </trkpt>
      <trkpt lat="39.726529" lon="2.939628">
        <ele>106</ele>
        <time>2016-04-18T17:05:44Z</time>
      </trkpt>
      <trkpt lat="39.726627" lon="2.939839">
        <ele>106</ele>
        <time>2016-04-18T17:05:48Z</time>
      </trkpt>
      <trkpt lat="39.726647" lon="2.939891">
        <ele>106</ele>
        <time>2016-04-18T17:05:49Z</time>
      </trkpt>
      <trkpt lat="39.726691" lon="2.939995">
        <ele>106</ele>
        <time>2016-04-18T17:05:51Z</time>
      </trkpt>
      <trkpt lat="39.726805" lon="2.940275">
        <ele>106</ele>
        <time>2016-04-18T17:05:56Z</time>
      </trkpt>
      <trkpt lat="39.726918" lon="2.940551">
        <ele>106</ele>
        <time>2016-04-18T17:06:01Z</time>
      </trkpt>
      <trkpt lat="39.727117" lon="2.940908">
        <ele>106</ele>
        <time>2016-04-18T17:06:08Z</time>
      </trkpt>
      <trkpt lat="39.727153" lon="2.940959">
        <ele>106</ele>
        <time>2016-04-18T17:06:09Z</time>
      </trkpt>
      <trkpt lat="39.727275" lon="2.94113">
        <ele>106</ele>
        <time>2016-04-18T17:06:12Z</time>
      </trkpt>
      <trkpt lat="39.727358" lon="2.941255">
        <ele>106</ele>
        <time>2016-04-18T17:06:14Z</time>
      </trkpt>
      <trkpt lat="39.727484" lon="2.941454">
        <ele>106</ele>
        <time>2016-04-18T17:06:17Z</time>
      </trkpt>
      <trkpt lat="39.727528" lon="2.941524">
        <ele>105.6</ele>
        <time>2016-04-18T17:06:18Z</time>
      </trkpt>
      <trkpt lat="39.727575" lon="2.94159">
        <ele>105.2</ele>
        <time>2016-04-18T17:06:19Z</time>
      </trkpt>
      <trkpt lat="39.727619" lon="2.941657">
        <ele>104.8</ele>
        <time>2016-04-18T17:06:20Z</time>
      </trkpt>
      <trkpt lat="39.727662" lon="2.941723">
        <ele>104.4</ele>
        <time>2016-04-18T17:06:21Z</time>
      </trkpt>
      <trkpt lat="39.727705" lon="2.941788">
        <ele>104</ele>
        <time>2016-04-18T17:06:22Z</time>
      </trkpt>
      <trkpt lat="39.727748" lon="2.941851">
        <ele>104</ele>
        <time>2016-04-18T17:06:23Z</time>
      </trkpt>
      <trkpt lat="39.727881" lon="2.94203">
        <ele>104</ele>
        <time>2016-04-18T17:06:26Z</time>
      </trkpt>
      <trkpt lat="39.727921" lon="2.942093">
        <ele>104</ele>
        <time>2016-04-18T17:06:27Z</time>
      </trkpt>
      <trkpt lat="39.728224" lon="2.942543">
        <ele>104</ele>
        <time>2016-04-18T17:06:34Z</time>
      </trkpt>
      <trkpt lat="39.728356" lon="2.942735">
        <ele>104</ele>
        <time>2016-04-18T17:06:37Z</time>
      </trkpt>
      <trkpt lat="39.728527" lon="2.942962">
        <ele>104</ele>
        <time>2016-04-18T17:06:41Z</time>
      </trkpt>
      <trkpt lat="39.72865" lon="2.943105">
        <ele>104</ele>
        <time>2016-04-18T17:06:44Z</time>
      </trkpt>
      <trkpt lat="39.728749" lon="2.943197">
        <ele>104</ele>
        <time>2016-04-18T17:06:46Z</time>
      </trkpt>
      <trkpt lat="39.728851" lon="2.943304">
        <ele>103.6</ele>
        <time>2016-04-18T17:06:48Z</time>
      </trkpt>
      <trkpt lat="39.728907" lon="2.943354">
        <ele>103</ele>
        <time>2016-04-18T17:06:49Z</time>
      </trkpt>
      <trkpt lat="39.728965" lon="2.943401">
        <ele>102.6</ele>
        <time>2016-04-18T17:06:50Z</time>
      </trkpt>
      <trkpt lat="39.729026" lon="2.943447">
        <ele>102.2</ele>
        <time>2016-04-18T17:06:51Z</time>
      </trkpt>
      <trkpt lat="39.729089" lon="2.943491">
        <ele>101.6</ele>
        <time>2016-04-18T17:06:52Z</time>
      </trkpt>
      <trkpt lat="39.729153" lon="2.943538">
        <ele>101</ele>
        <time>2016-04-18T17:06:53Z</time>
      </trkpt>
      <trkpt lat="39.729217" lon="2.943589">
        <ele>100.6</ele>
        <time>2016-04-18T17:06:54Z</time>
      </trkpt>
      <trkpt lat="39.729284" lon="2.943645">
        <ele>100</ele>
        <time>2016-04-18T17:06:55Z</time>
      </trkpt>
      <trkpt lat="39.729347" lon="2.943698">
        <ele>99.4</ele>
        <time>2016-04-18T17:06:56Z</time>
      </trkpt>
      <trkpt lat="39.729472" lon="2.94381">
        <ele>99.4</ele>
        <time>2016-04-18T17:06:58Z</time>
      </trkpt>
      <trkpt lat="39.729794" lon="2.944166">
        <ele>99.4</ele>
        <time>2016-04-18T17:07:04Z</time>
      </trkpt>
      <trkpt lat="39.729835" lon="2.94424">
        <ele>99.4</ele>
        <time>2016-04-18T17:07:05Z</time>
      </trkpt>
      <trkpt lat="39.729845" lon="2.944399">
        <ele>98.6</ele>
        <time>2016-04-18T17:07:07Z</time>
      </trkpt>
      <trkpt lat="39.72982" lon="2.944462">
        <ele>98.2</ele>
        <time>2016-04-18T17:07:08Z</time>
      </trkpt>
      <trkpt lat="39.729786" lon="2.944513">
        <ele>97.8</ele>
        <time>2016-04-18T17:07:09Z</time>
      </trkpt>
      <trkpt lat="39.729751" lon="2.944556">
        <ele>97.2</ele>
        <time>2016-04-18T17:07:10Z</time>
      </trkpt>
      <trkpt lat="39.729719" lon="2.944596">
        <ele>97.6</ele>
        <time>2016-04-18T17:07:11Z</time>
      </trkpt>
      <trkpt lat="39.729682" lon="2.944634">
        <ele>98</ele>
        <time>2016-04-18T17:07:12Z</time>
      </trkpt>
      <trkpt lat="39.729648" lon="2.94467">
        <ele>98.4</ele>
        <time>2016-04-18T17:07:13Z</time>
      </trkpt>
      <trkpt lat="39.729614" lon="2.94471">
        <ele>98.8</ele>
        <time>2016-04-18T17:07:14Z</time>
      </trkpt>
      <trkpt lat="39.729585" lon="2.944756">
        <ele>99.4</ele>
        <time>2016-04-18T17:07:15Z</time>
      </trkpt>
      <trkpt lat="39.729559" lon="2.944796">
        <ele>99.4</ele>
        <time>2016-04-18T17:07:16Z</time>
      </trkpt>
      <trkpt lat="39.729491" lon="2.944892">
        <ele>99.8</ele>
        <time>2016-04-18T17:07:19Z</time>
      </trkpt>
      <trkpt lat="39.72947" lon="2.944934">
        <ele>100.2</ele>
        <time>2016-04-18T17:07:20Z</time>
      </trkpt>
      <trkpt lat="39.729446" lon="2.944969">
        <ele>100.6</ele>
        <time>2016-04-18T17:07:21Z</time>
      </trkpt>
      <trkpt lat="39.729421" lon="2.945008">
        <ele>101</ele>
        <time>2016-04-18T17:07:22Z</time>
      </trkpt>
      <trkpt lat="39.729391" lon="2.945041">
        <ele>101.4</ele>
        <time>2016-04-18T17:07:23Z</time>
      </trkpt>
      <trkpt lat="39.7293" lon="2.945165">
        <ele>101.4</ele>
        <time>2016-04-18T17:07:26Z</time>
      </trkpt>
      <trkpt lat="39.729213" lon="2.945282">
        <ele>101.4</ele>
        <time>2016-04-18T17:07:29Z</time>
      </trkpt>
      <trkpt lat="39.729133" lon="2.9454">
        <ele>101.4</ele>
        <time>2016-04-18T17:07:32Z</time>
      </trkpt>
      <trkpt lat="39.729104" lon="2.945442">
        <ele>101.8</ele>
        <time>2016-04-18T17:07:33Z</time>
      </trkpt>
      <trkpt lat="39.72907" lon="2.945477">
        <ele>102.2</ele>
        <time>2016-04-18T17:07:34Z</time>
      </trkpt>
      <trkpt lat="39.729033" lon="2.945514">
        <ele>102.6</ele>
        <time>2016-04-18T17:07:35Z</time>
      </trkpt>
      <trkpt lat="39.729" lon="2.945559">
        <ele>103</ele>
        <time>2016-04-18T17:07:36Z</time>
      </trkpt>
      <trkpt lat="39.728967" lon="2.945604">
        <ele>103.4</ele>
        <time>2016-04-18T17:07:37Z</time>
      </trkpt>
      <trkpt lat="39.728868" lon="2.945734">
        <ele>103.4</ele>
        <time>2016-04-18T17:07:40Z</time>
      </trkpt>
      <trkpt lat="39.728761" lon="2.945872">
        <ele>103.8</ele>
        <time>2016-04-18T17:07:43Z</time>
      </trkpt>
      <trkpt lat="39.728728" lon="2.945922">
        <ele>104.4</ele>
        <time>2016-04-18T17:07:44Z</time>
      </trkpt>
      <trkpt lat="39.72869" lon="2.945973">
        <ele>104.8</ele>
        <time>2016-04-18T17:07:45Z</time>
      </trkpt>
      <trkpt lat="39.72865" lon="2.946022">
        <ele>105.2</ele>
        <time>2016-04-18T17:07:46Z</time>
      </trkpt>
      <trkpt lat="39.728611" lon="2.946068">
        <ele>105.6</ele>
        <time>2016-04-18T17:07:47Z</time>
      </trkpt>
      <trkpt lat="39.728498" lon="2.946204">
        <ele>105.6</ele>
        <time>2016-04-18T17:07:50Z</time>
      </trkpt>
      <trkpt lat="39.728402" lon="2.94633">
        <ele>106</ele>
        <time>2016-04-18T17:07:53Z</time>
      </trkpt>
      <trkpt lat="39.728372" lon="2.946375">
        <ele>106.4</ele>
        <time>2016-04-18T17:07:54Z</time>
      </trkpt>
      <trkpt lat="39.728339" lon="2.946417">
        <ele>106.8</ele>
        <time>2016-04-18T17:07:55Z</time>
      </trkpt>
      <trkpt lat="39.728307" lon="2.946457">
        <ele>107.8</ele>
        <time>2016-04-18T17:07:56Z</time>
      </trkpt>
      <trkpt lat="39.728275" lon="2.946498">
        <ele>107.8</ele>
        <time>2016-04-18T17:07:57Z</time>
      </trkpt>
      <trkpt lat="39.728244" lon="2.946546">
        <ele>107.8</ele>
        <time>2016-04-18T17:07:58Z</time>
      </trkpt>
      <trkpt lat="39.728192" lon="2.946631">
        <ele>108.2</ele>
        <time>2016-04-18T17:08:00Z</time>
      </trkpt>
      <trkpt lat="39.728158" lon="2.946668">
        <ele>108.6</ele>
        <time>2016-04-18T17:08:01Z</time>
      </trkpt>
      <trkpt lat="39.728123" lon="2.946708">
        <ele>109</ele>
        <time>2016-04-18T17:08:02Z</time>
      </trkpt>
      <trkpt lat="39.728092" lon="2.94675">
        <ele>109.6</ele>
        <time>2016-04-18T17:08:03Z</time>
      </trkpt>
      <trkpt lat="39.728063" lon="2.946794">
        <ele>110</ele>
        <time>2016-04-18T17:08:04Z</time>
      </trkpt>
      <trkpt lat="39.728" lon="2.946881">
        <ele>110</ele>
        <time>2016-04-18T17:08:06Z</time>
      </trkpt>
      <trkpt lat="39.727934" lon="2.946962">
        <ele>110</ele>
        <time>2016-04-18T17:08:08Z</time>
      </trkpt>
      <trkpt lat="39.727841" lon="2.947087">
        <ele>110.4</ele>
        <time>2016-04-18T17:08:11Z</time>
      </trkpt>
      <trkpt lat="39.727811" lon="2.947123">
        <ele>110.8</ele>
        <time>2016-04-18T17:08:12Z</time>
      </trkpt>
      <trkpt lat="39.727778" lon="2.947164">
        <ele>111.2</ele>
        <time>2016-04-18T17:08:13Z</time>
      </trkpt>
      <trkpt lat="39.727746" lon="2.947202">
        <ele>111.8</ele>
        <time>2016-04-18T17:08:14Z</time>
      </trkpt>
      <trkpt lat="39.727714" lon="2.947241">
        <ele>112.2</ele>
        <time>2016-04-18T17:08:15Z</time>
      </trkpt>
      <trkpt lat="39.727624" lon="2.947364">
        <ele>112.2</ele>
        <time>2016-04-18T17:08:18Z</time>
      </trkpt>
      <trkpt lat="39.727562" lon="2.947432">
        <ele>113.2</ele>
        <time>2016-04-18T17:08:20Z</time>
      </trkpt>
      <trkpt lat="39.727536" lon="2.947473">
        <ele>113.6</ele>
        <time>2016-04-18T17:08:21Z</time>
      </trkpt>
      <trkpt lat="39.72751" lon="2.947509">
        <ele>114</ele>
        <time>2016-04-18T17:08:22Z</time>
      </trkpt>
      <trkpt lat="39.727483" lon="2.947544">
        <ele>114.6</ele>
        <time>2016-04-18T17:08:23Z</time>
      </trkpt>
      <trkpt lat="39.727409" lon="2.947645">
        <ele>115</ele>
        <time>2016-04-18T17:08:26Z</time>
      </trkpt>
      <trkpt lat="39.727382" lon="2.947679">
        <ele>115.4</ele>
        <time>2016-04-18T17:08:27Z</time>
      </trkpt>
      <trkpt lat="39.727357" lon="2.947715">
        <ele>115.8</ele>
        <time>2016-04-18T17:08:28Z</time>
      </trkpt>
      <trkpt lat="39.727328" lon="2.947751">
        <ele>116.2</ele>
        <time>2016-04-18T17:08:29Z</time>
      </trkpt>
      <trkpt lat="39.727301" lon="2.947786">
        <ele>116.6</ele>
        <time>2016-04-18T17:08:30Z</time>
      </trkpt>
      <trkpt lat="39.727193" lon="2.947913">
        <ele>117</ele>
        <time>2016-04-18T17:08:34Z</time>
      </trkpt>
      <trkpt lat="39.727171" lon="2.947949">
        <ele>117.4</ele>
        <time>2016-04-18T17:08:35Z</time>
      </trkpt>
      <trkpt lat="39.727148" lon="2.947986">
        <ele>118</ele>
        <time>2016-04-18T17:08:36Z</time>
      </trkpt>
      <trkpt lat="39.727124" lon="2.948016">
        <ele>118.4</ele>
        <time>2016-04-18T17:08:37Z</time>
      </trkpt>
      <trkpt lat="39.727097" lon="2.948045">
        <ele>118.8</ele>
        <time>2016-04-18T17:08:38Z</time>
      </trkpt>
      <trkpt lat="39.726988" lon="2.948174">
        <ele>119.2</ele>
        <time>2016-04-18T17:08:42Z</time>
      </trkpt>
      <trkpt lat="39.72696" lon="2.948205">
        <ele>119.6</ele>
        <time>2016-04-18T17:08:43Z</time>
      </trkpt>
      <trkpt lat="39.726934" lon="2.948239">
        <ele>120.2</ele>
        <time>2016-04-18T17:08:44Z</time>
      </trkpt>
      <trkpt lat="39.726907" lon="2.948269">
        <ele>121</ele>
        <time>2016-04-18T17:08:45Z</time>
      </trkpt>
      <trkpt lat="39.72688" lon="2.948301">
        <ele>121</ele>
        <time>2016-04-18T17:08:46Z</time>
      </trkpt>
      <trkpt lat="39.726822" lon="2.94836">
        <ele>121.4</ele>
        <time>2016-04-18T17:08:48Z</time>
      </trkpt>
      <trkpt lat="39.726794" lon="2.94839">
        <ele>121.8</ele>
        <time>2016-04-18T17:08:49Z</time>
      </trkpt>
      <trkpt lat="39.726765" lon="2.948416">
        <ele>122.2</ele>
        <time>2016-04-18T17:08:50Z</time>
      </trkpt>
      <trkpt lat="39.726733" lon="2.948438">
        <ele>122.8</ele>
        <time>2016-04-18T17:08:51Z</time>
      </trkpt>
      <trkpt lat="39.726701" lon="2.948463">
        <ele>123.2</ele>
        <time>2016-04-18T17:08:52Z</time>
      </trkpt>
      <trkpt lat="39.72659" lon="2.948563">
        <ele>123.6</ele>
        <time>2016-04-18T17:08:56Z</time>
      </trkpt>
      <trkpt lat="39.726562" lon="2.948585">
        <ele>124</ele>
        <time>2016-04-18T17:08:57Z</time>
      </trkpt>
      <trkpt lat="39.726529" lon="2.948608">
        <ele>124.4</ele>
        <time>2016-04-18T17:08:58Z</time>
      </trkpt>
      <trkpt lat="39.726495" lon="2.94863">
        <ele>124.8</ele>
        <time>2016-04-18T17:08:59Z</time>
      </trkpt>
      <trkpt lat="39.726463" lon="2.948652">
        <ele>125.2</ele>
        <time>2016-04-18T17:09:00Z</time>
      </trkpt>
      <trkpt lat="39.726321" lon="2.948736">
        <ele>125.6</ele>
        <time>2016-04-18T17:09:05Z</time>
      </trkpt>
      <trkpt lat="39.726298" lon="2.948751">
        <ele>126.2</ele>
        <time>2016-04-18T17:09:06Z</time>
      </trkpt>
      <trkpt lat="39.726274" lon="2.948767">
        <ele>126.6</ele>
        <time>2016-04-18T17:09:07Z</time>
      </trkpt>
      <trkpt lat="39.726248" lon="2.94878">
        <ele>127.2</ele>
        <time>2016-04-18T17:09:08Z</time>
      </trkpt>
      <trkpt lat="39.726223" lon="2.948795">
        <ele>127.6</ele>
        <time>2016-04-18T17:09:09Z</time>
      </trkpt>
      <trkpt lat="39.72617" lon="2.94882">
        <ele>128</ele>
        <time>2016-04-18T17:09:11Z</time>
      </trkpt>
      <trkpt lat="39.726144" lon="2.948834">
        <ele>128.6</ele>
        <time>2016-04-18T17:09:12Z</time>
      </trkpt>
      <trkpt lat="39.72612" lon="2.948851">
        <ele>129</ele>
        <time>2016-04-18T17:09:13Z</time>
      </trkpt>
      <trkpt lat="39.726096" lon="2.948862">
        <ele>129.4</ele>
        <time>2016-04-18T17:09:14Z</time>
      </trkpt>
      <trkpt lat="39.726074" lon="2.948874">
        <ele>129.8</ele>
        <time>2016-04-18T17:09:15Z</time>
      </trkpt>
      <trkpt lat="39.726002" lon="2.948914">
        <ele>130.2</ele>
        <time>2016-04-18T17:09:18Z</time>
      </trkpt>
      <trkpt lat="39.725977" lon="2.948927">
        <ele>130.8</ele>
        <time>2016-04-18T17:09:19Z</time>
      </trkpt>
      <trkpt lat="39.725954" lon="2.948941">
        <ele>131.2</ele>
        <time>2016-04-18T17:09:20Z</time>
      </trkpt>
      <trkpt lat="39.725929" lon="2.948951">
        <ele>131.6</ele>
        <time>2016-04-18T17:09:21Z</time>
      </trkpt>
      <trkpt lat="39.725902" lon="2.948964">
        <ele>132</ele>
        <time>2016-04-18T17:09:22Z</time>
      </trkpt>
      <trkpt lat="39.725878" lon="2.948982">
        <ele>132</ele>
        <time>2016-04-18T17:09:23Z</time>
      </trkpt>
      <trkpt lat="39.725692" lon="2.949093">
        <ele>132.4</ele>
        <time>2016-04-18T17:09:30Z</time>
      </trkpt>
      <trkpt lat="39.72567" lon="2.94911">
        <ele>133</ele>
        <time>2016-04-18T17:09:31Z</time>
      </trkpt>
      <trkpt lat="39.725641" lon="2.949125">
        <ele>133.4</ele>
        <time>2016-04-18T17:09:32Z</time>
      </trkpt>
      <trkpt lat="39.725615" lon="2.94914">
        <ele>133.8</ele>
        <time>2016-04-18T17:09:33Z</time>
      </trkpt>
      <trkpt lat="39.725589" lon="2.949152">
        <ele>134.4</ele>
        <time>2016-04-18T17:09:34Z</time>
      </trkpt>
      <trkpt lat="39.725568" lon="2.949165">
        <ele>134.8</ele>
        <time>2016-04-18T17:09:35Z</time>
      </trkpt>
      <trkpt lat="39.725547" lon="2.949181">
        <ele>135.2</ele>
        <time>2016-04-18T17:09:36Z</time>
      </trkpt>
      <trkpt lat="39.725522" lon="2.949196">
        <ele>135.6</ele>
        <time>2016-04-18T17:09:37Z</time>
      </trkpt>
      <trkpt lat="39.725498" lon="2.949213">
        <ele>136</ele>
        <time>2016-04-18T17:09:38Z</time>
      </trkpt>
      <trkpt lat="39.725481" lon="2.949228">
        <ele>136.4</ele>
        <time>2016-04-18T17:09:39Z</time>
      </trkpt>
      <trkpt lat="39.725465" lon="2.949254">
        <ele>136.4</ele>
        <time>2016-04-18T17:09:40Z</time>
      </trkpt>
      <trkpt lat="39.725418" lon="2.949283">
        <ele>136.4</ele>
        <time>2016-04-18T17:09:42Z</time>
      </trkpt>
      <trkpt lat="39.725389" lon="2.949293">
        <ele>136.8</ele>
        <time>2016-04-18T17:09:43Z</time>
      </trkpt>
      <trkpt lat="39.725359" lon="2.949306">
        <ele>137.4</ele>
        <time>2016-04-18T17:09:44Z</time>
      </trkpt>
      <trkpt lat="39.725334" lon="2.949319">
        <ele>137.8</ele>
        <time>2016-04-18T17:09:45Z</time>
      </trkpt>
      <trkpt lat="39.725308" lon="2.949334">
        <ele>138.2</ele>
        <time>2016-04-18T17:09:46Z</time>
      </trkpt>
      <trkpt lat="39.725283" lon="2.949348">
        <ele>138.6</ele>
        <time>2016-04-18T17:09:47Z</time>
      </trkpt>
      <trkpt lat="39.725261" lon="2.949361">
        <ele>138.6</ele>
        <time>2016-04-18T17:09:48Z</time>
      </trkpt>
      <trkpt lat="39.72513" lon="2.949459">
        <ele>139</ele>
        <time>2016-04-18T17:09:54Z</time>
      </trkpt>
      <trkpt lat="39.725108" lon="2.949484">
        <ele>139.4</ele>
        <time>2016-04-18T17:09:55Z</time>
      </trkpt>
      <trkpt lat="39.725089" lon="2.949506">
        <ele>140</ele>
        <time>2016-04-18T17:09:56Z</time>
      </trkpt>
      <trkpt lat="39.725071" lon="2.949531">
        <ele>140.4</ele>
        <time>2016-04-18T17:09:57Z</time>
      </trkpt>
      <trkpt lat="39.725057" lon="2.949558">
        <ele>140.8</ele>
        <time>2016-04-18T17:09:58Z</time>
      </trkpt>
      <trkpt lat="39.725042" lon="2.949626">
        <ele>141.2</ele>
        <time>2016-04-18T17:10:00Z</time>
      </trkpt>
      <trkpt lat="39.725049" lon="2.949662">
        <ele>141.8</ele>
        <time>2016-04-18T17:10:01Z</time>
      </trkpt>
      <trkpt lat="39.725055" lon="2.9497">
        <ele>142.2</ele>
        <time>2016-04-18T17:10:02Z</time>
      </trkpt>
      <trkpt lat="39.725061" lon="2.949735">
        <ele>142.8</ele>
        <time>2016-04-18T17:10:03Z</time>
      </trkpt>
      <trkpt lat="39.725066" lon="2.949768">
        <ele>143.2</ele>
        <time>2016-04-18T17:10:04Z</time>
      </trkpt>
      <trkpt lat="39.72508" lon="2.949854">
        <ele>143.6</ele>
        <time>2016-04-18T17:10:07Z</time>
      </trkpt>
      <trkpt lat="39.725086" lon="2.949879">
        <ele>144.2</ele>
        <time>2016-04-18T17:10:08Z</time>
      </trkpt>
      <trkpt lat="39.725093" lon="2.949899">
        <ele>144.6</ele>
        <time>2016-04-18T17:10:09Z</time>
      </trkpt>
      <trkpt lat="39.725101" lon="2.949922">
        <ele>145</ele>
        <time>2016-04-18T17:10:10Z</time>
      </trkpt>
      <trkpt lat="39.725106" lon="2.94995">
        <ele>145.4</ele>
        <time>2016-04-18T17:10:11Z</time>
      </trkpt>
      <trkpt lat="39.725124" lon="2.950006">
        <ele>145.8</ele>
        <time>2016-04-18T17:10:13Z</time>
      </trkpt>
      <trkpt lat="39.725133" lon="2.950032">
        <ele>146.4</ele>
        <time>2016-04-18T17:10:14Z</time>
      </trkpt>
      <trkpt lat="39.725139" lon="2.950062">
        <ele>146.8</ele>
        <time>2016-04-18T17:10:15Z</time>
      </trkpt>
      <trkpt lat="39.725148" lon="2.950091">
        <ele>147.2</ele>
        <time>2016-04-18T17:10:16Z</time>
      </trkpt>
      <trkpt lat="39.725155" lon="2.950118">
        <ele>147.6</ele>
        <time>2016-04-18T17:10:17Z</time>
      </trkpt>
      <trkpt lat="39.725182" lon="2.950196">
        <ele>148.2</ele>
        <time>2016-04-18T17:10:20Z</time>
      </trkpt>
      <trkpt lat="39.725183" lon="2.950223">
        <ele>148.6</ele>
        <time>2016-04-18T17:10:21Z</time>
      </trkpt>
      <trkpt lat="39.725183" lon="2.95025">
        <ele>149.2</ele>
        <time>2016-04-18T17:10:22Z</time>
      </trkpt>
      <trkpt lat="39.72519" lon="2.950277">
        <ele>149.8</ele>
        <time>2016-04-18T17:10:23Z</time>
      </trkpt>
      <trkpt lat="39.725197" lon="2.950305">
        <ele>150.2</ele>
        <time>2016-04-18T17:10:24Z</time>
      </trkpt>
      <trkpt lat="39.725217" lon="2.950411">
        <ele>150.2</ele>
        <time>2016-04-18T17:10:28Z</time>
      </trkpt>
      <trkpt lat="39.725205" lon="2.95066">
        <ele>150.6</ele>
        <time>2016-04-18T17:10:35Z</time>
      </trkpt>
      <trkpt lat="39.725192" lon="2.950695">
        <ele>151.2</ele>
        <time>2016-04-18T17:10:36Z</time>
      </trkpt>
      <trkpt lat="39.725177" lon="2.95073">
        <ele>151.6</ele>
        <time>2016-04-18T17:10:37Z</time>
      </trkpt>
      <trkpt lat="39.725163" lon="2.950763">
        <ele>152</ele>
        <time>2016-04-18T17:10:38Z</time>
      </trkpt>
      <trkpt lat="39.72515" lon="2.950796">
        <ele>152.4</ele>
        <time>2016-04-18T17:10:39Z</time>
      </trkpt>
      <trkpt lat="39.72511" lon="2.950857">
        <ele>152.4</ele>
        <time>2016-04-18T17:10:41Z</time>
      </trkpt>
      <trkpt lat="39.724931" lon="2.951099">
        <ele>152.8</ele>
        <time>2016-04-18T17:10:48Z</time>
      </trkpt>
      <trkpt lat="39.724902" lon="2.951132">
        <ele>153.4</ele>
        <time>2016-04-18T17:10:49Z</time>
      </trkpt>
      <trkpt lat="39.724875" lon="2.951168">
        <ele>154.2</ele>
        <time>2016-04-18T17:10:50Z</time>
      </trkpt>
      <trkpt lat="39.724846" lon="2.951194">
        <ele>154.6</ele>
        <time>2016-04-18T17:10:51Z</time>
      </trkpt>
      <trkpt lat="39.724788" lon="2.951251">
        <ele>154.6</ele>
        <time>2016-04-18T17:10:53Z</time>
      </trkpt>
      <trkpt lat="39.724608" lon="2.951408">
        <ele>154.6</ele>
        <time>2016-04-18T17:10:59Z</time>
      </trkpt>
      <trkpt lat="39.724591" lon="2.95145">
        <ele>155.2</ele>
        <time>2016-04-18T17:11:00Z</time>
      </trkpt>
      <trkpt lat="39.724582" lon="2.951499">
        <ele>155.6</ele>
        <time>2016-04-18T17:11:01Z</time>
      </trkpt>
      <trkpt lat="39.724574" lon="2.951547">
        <ele>156</ele>
        <time>2016-04-18T17:11:02Z</time>
      </trkpt>
      <trkpt lat="39.724569" lon="2.951593">
        <ele>156.4</ele>
        <time>2016-04-18T17:11:03Z</time>
      </trkpt>
      <trkpt lat="39.724569" lon="2.951639">
        <ele>157</ele>
        <time>2016-04-18T17:11:04Z</time>
      </trkpt>
      <trkpt lat="39.724567" lon="2.951767">
        <ele>157.4</ele>
        <time>2016-04-18T17:11:07Z</time>
      </trkpt>
      <trkpt lat="39.724564" lon="2.951811">
        <ele>157.8</ele>
        <time>2016-04-18T17:11:08Z</time>
      </trkpt>
      <trkpt lat="39.724559" lon="2.951856">
        <ele>158.2</ele>
        <time>2016-04-18T17:11:09Z</time>
      </trkpt>
      <trkpt lat="39.724561" lon="2.9519">
        <ele>158.6</ele>
        <time>2016-04-18T17:11:10Z</time>
      </trkpt>
      <trkpt lat="39.724562" lon="2.951944">
        <ele>159</ele>
        <time>2016-04-18T17:11:11Z</time>
      </trkpt>
      <trkpt lat="39.724551" lon="2.952109">
        <ele>159.4</ele>
        <time>2016-04-18T17:11:15Z</time>
      </trkpt>
      <trkpt lat="39.724551" lon="2.95215">
        <ele>160</ele>
        <time>2016-04-18T17:11:16Z</time>
      </trkpt>
      <trkpt lat="39.72455" lon="2.952189">
        <ele>160.4</ele>
        <time>2016-04-18T17:11:17Z</time>
      </trkpt>
      <trkpt lat="39.72455" lon="2.952229">
        <ele>161</ele>
        <time>2016-04-18T17:11:18Z</time>
      </trkpt>
      <trkpt lat="39.724547" lon="2.952268">
        <ele>161.4</ele>
        <time>2016-04-18T17:11:19Z</time>
      </trkpt>
      <trkpt lat="39.724539" lon="2.952346">
        <ele>161.4</ele>
        <time>2016-04-18T17:11:21Z</time>
      </trkpt>
      <trkpt lat="39.72453" lon="2.952424">
        <ele>161.8</ele>
        <time>2016-04-18T17:11:23Z</time>
      </trkpt>
      <trkpt lat="39.724525" lon="2.952462">
        <ele>162.4</ele>
        <time>2016-04-18T17:11:24Z</time>
      </trkpt>
      <trkpt lat="39.72453" lon="2.952498">
        <ele>162.8</ele>
        <time>2016-04-18T17:11:25Z</time>
      </trkpt>
      <trkpt lat="39.724537" lon="2.952537">
        <ele>163.2</ele>
        <time>2016-04-18T17:11:26Z</time>
      </trkpt>
      <trkpt lat="39.724541" lon="2.952576">
        <ele>163.6</ele>
        <time>2016-04-18T17:11:27Z</time>
      </trkpt>
      <trkpt lat="39.724584" lon="2.952674">
        <ele>164</ele>
        <time>2016-04-18T17:11:30Z</time>
      </trkpt>
      <trkpt lat="39.724605" lon="2.95266">
        <ele>164.4</ele>
        <time>2016-04-18T17:11:31Z</time>
      </trkpt>
      <trkpt lat="39.724628" lon="2.952633">
        <ele>164.8</ele>
        <time>2016-04-18T17:11:32Z</time>
      </trkpt>
      <trkpt lat="39.72464" lon="2.952595">
        <ele>165.2</ele>
        <time>2016-04-18T17:11:33Z</time>
      </trkpt>
      <trkpt lat="39.724653" lon="2.952556">
        <ele>165.6</ele>
        <time>2016-04-18T17:11:34Z</time>
      </trkpt>
      <trkpt lat="39.724666" lon="2.952519">
        <ele>165.6</ele>
        <time>2016-04-18T17:11:35Z</time>
      </trkpt>
      <trkpt lat="39.72471" lon="2.952403">
        <ele>166</ele>
        <time>2016-04-18T17:11:38Z</time>
      </trkpt>
      <trkpt lat="39.72473" lon="2.952363">
        <ele>166.8</ele>
        <time>2016-04-18T17:11:39Z</time>
      </trkpt>
      <trkpt lat="39.724744" lon="2.952322">
        <ele>167.2</ele>
        <time>2016-04-18T17:11:40Z</time>
      </trkpt>
      <trkpt lat="39.724758" lon="2.952282">
        <ele>167.6</ele>
        <time>2016-04-18T17:11:41Z</time>
      </trkpt>
      <trkpt lat="39.724771" lon="2.952243">
        <ele>167.6</ele>
        <time>2016-04-18T17:11:42Z</time>
      </trkpt>
      <trkpt lat="39.724815" lon="2.95212">
        <ele>168</ele>
        <time>2016-04-18T17:11:45Z</time>
      </trkpt>
      <trkpt lat="39.724826" lon="2.952077">
        <ele>168.6</ele>
        <time>2016-04-18T17:11:46Z</time>
      </trkpt>
      <trkpt lat="39.724837" lon="2.952035">
        <ele>169</ele>
        <time>2016-04-18T17:11:47Z</time>
      </trkpt>
      <trkpt lat="39.724851" lon="2.951994">
        <ele>169.4</ele>
        <time>2016-04-18T17:11:48Z</time>
      </trkpt>
      <trkpt lat="39.724864" lon="2.951952">
        <ele>169.8</ele>
        <time>2016-04-18T17:11:49Z</time>
      </trkpt>
      <trkpt lat="39.724956" lon="2.951666">
        <ele>170.2</ele>
        <time>2016-04-18T17:11:56Z</time>
      </trkpt>
      <trkpt lat="39.724986" lon="2.951679">
        <ele>170.6</ele>
        <time>2016-04-18T17:11:57Z</time>
      </trkpt>
      <trkpt lat="39.724991" lon="2.951714">
        <ele>171</ele>
        <time>2016-04-18T17:11:58Z</time>
      </trkpt>
      <trkpt lat="39.724984" lon="2.951747">
        <ele>171.4</ele>
        <time>2016-04-18T17:11:59Z</time>
      </trkpt>
      <trkpt lat="39.72497" lon="2.951778">
        <ele>171.8</ele>
        <time>2016-04-18T17:12:00Z</time>
      </trkpt>
      <trkpt lat="39.724959" lon="2.951808">
        <ele>171.8</ele>
        <time>2016-04-18T17:12:01Z</time>
      </trkpt>
      <trkpt lat="39.724947" lon="2.951876">
        <ele>172.2</ele>
        <time>2016-04-18T17:12:03Z</time>
      </trkpt>
      <trkpt lat="39.724946" lon="2.951914">
        <ele>173.2</ele>
        <time>2016-04-18T17:12:04Z</time>
      </trkpt>
      <trkpt lat="39.724943" lon="2.951954">
        <ele>173.6</ele>
        <time>2016-04-18T17:12:05Z</time>
      </trkpt>
      <trkpt lat="39.724943" lon="2.951995">
        <ele>174</ele>
        <time>2016-04-18T17:12:06Z</time>
      </trkpt>
      <trkpt lat="39.724941" lon="2.952035">
        <ele>174</ele>
        <time>2016-04-18T17:12:07Z</time>
      </trkpt>
      <trkpt lat="39.724936" lon="2.952147">
        <ele>174.4</ele>
        <time>2016-04-18T17:12:10Z</time>
      </trkpt>
      <trkpt lat="39.724938" lon="2.952182">
        <ele>174.8</ele>
        <time>2016-04-18T17:12:11Z</time>
      </trkpt>
      <trkpt lat="39.724938" lon="2.952212">
        <ele>175.2</ele>
        <time>2016-04-18T17:12:12Z</time>
      </trkpt>
      <trkpt lat="39.724932" lon="2.952247">
        <ele>175.6</ele>
        <time>2016-04-18T17:12:13Z</time>
      </trkpt>
      <trkpt lat="39.724929" lon="2.952282">
        <ele>176</ele>
        <time>2016-04-18T17:12:14Z</time>
      </trkpt>
      <trkpt lat="39.72491" lon="2.952482">
        <ele>176.6</ele>
        <time>2016-04-18T17:12:19Z</time>
      </trkpt>
      <trkpt lat="39.724908" lon="2.952515">
        <ele>177</ele>
        <time>2016-04-18T17:12:20Z</time>
      </trkpt>
      <trkpt lat="39.724911" lon="2.952552">
        <ele>177.4</ele>
        <time>2016-04-18T17:12:21Z</time>
      </trkpt>
      <trkpt lat="39.724914" lon="2.952585">
        <ele>177.8</ele>
        <time>2016-04-18T17:12:22Z</time>
      </trkpt>
      <trkpt lat="39.724913" lon="2.952618">
        <ele>178.2</ele>
        <time>2016-04-18T17:12:23Z</time>
      </trkpt>
      <trkpt lat="39.724906" lon="2.952696">
        <ele>178.2</ele>
        <time>2016-04-18T17:12:25Z</time>
      </trkpt>
      <trkpt lat="39.724913" lon="2.95282">
        <ele>178.6</ele>
        <time>2016-04-18T17:12:28Z</time>
      </trkpt>
      <trkpt lat="39.72492" lon="2.952861">
        <ele>179.4</ele>
        <time>2016-04-18T17:12:29Z</time>
      </trkpt>
      <trkpt lat="39.724923" lon="2.952898">
        <ele>179.8</ele>
        <time>2016-04-18T17:12:30Z</time>
      </trkpt>
      <trkpt lat="39.724928" lon="2.952922">
        <ele>180.4</ele>
        <time>2016-04-18T17:12:31Z</time>
      </trkpt>
      <trkpt lat="39.724963" lon="2.953061">
        <ele>180.8</ele>
        <time>2016-04-18T17:12:35Z</time>
      </trkpt>
      <trkpt lat="39.724967" lon="2.9531">
        <ele>181.2</ele>
        <time>2016-04-18T17:12:36Z</time>
      </trkpt>
      <trkpt lat="39.724972" lon="2.953143">
        <ele>181.6</ele>
        <time>2016-04-18T17:12:37Z</time>
      </trkpt>
      <trkpt lat="39.724981" lon="2.953183">
        <ele>182</ele>
        <time>2016-04-18T17:12:38Z</time>
      </trkpt>
      <trkpt lat="39.724992" lon="2.953222">
        <ele>182.6</ele>
        <time>2016-04-18T17:12:39Z</time>
      </trkpt>
      <trkpt lat="39.725038" lon="2.953366">
        <ele>183</ele>
        <time>2016-04-18T17:12:43Z</time>
      </trkpt>
      <trkpt lat="39.725047" lon="2.953389">
        <ele>183.4</ele>
        <time>2016-04-18T17:12:44Z</time>
      </trkpt>
      <trkpt lat="39.725059" lon="2.953409">
        <ele>183.8</ele>
        <time>2016-04-18T17:12:45Z</time>
      </trkpt>
      <trkpt lat="39.725071" lon="2.953428">
        <ele>184.4</ele>
        <time>2016-04-18T17:12:46Z</time>
      </trkpt>
      <trkpt lat="39.725081" lon="2.953454">
        <ele>184.8</ele>
        <time>2016-04-18T17:12:47Z</time>
      </trkpt>
      <trkpt lat="39.725093" lon="2.953481">
        <ele>184.8</ele>
        <time>2016-04-18T17:12:48Z</time>
      </trkpt>
      <trkpt lat="39.725129" lon="2.953556">
        <ele>185.2</ele>
        <time>2016-04-18T17:12:51Z</time>
      </trkpt>
      <trkpt lat="39.725136" lon="2.953589">
        <ele>185.6</ele>
        <time>2016-04-18T17:12:52Z</time>
      </trkpt>
      <trkpt lat="39.725141" lon="2.953615">
        <ele>186.4</ele>
        <time>2016-04-18T17:12:53Z</time>
      </trkpt>
      <trkpt lat="39.725149" lon="2.953648">
        <ele>186.8</ele>
        <time>2016-04-18T17:12:54Z</time>
      </trkpt>
      <trkpt lat="39.725172" lon="2.953735">
        <ele>187.4</ele>
        <time>2016-04-18T17:12:57Z</time>
      </trkpt>
      <trkpt lat="39.725179" lon="2.953767">
        <ele>187.8</ele>
        <time>2016-04-18T17:12:58Z</time>
      </trkpt>
      <trkpt lat="39.725177" lon="2.953793">
        <ele>188.2</ele>
        <time>2016-04-18T17:12:59Z</time>
      </trkpt>
      <trkpt lat="39.725178" lon="2.953814">
        <ele>188.6</ele>
        <time>2016-04-18T17:13:00Z</time>
      </trkpt>
      <trkpt lat="39.725188" lon="2.953839">
        <ele>189</ele>
        <time>2016-04-18T17:13:01Z</time>
      </trkpt>
      <trkpt lat="39.725222" lon="2.953882">
        <ele>189</ele>
        <time>2016-04-18T17:13:03Z</time>
      </trkpt>
      <trkpt lat="39.725276" lon="2.953853">
        <ele>189</ele>
        <time>2016-04-18T17:13:05Z</time>
      </trkpt>
      <trkpt lat="39.725277" lon="2.953741">
        <ele>189</ele>
        <time>2016-04-18T17:13:08Z</time>
      </trkpt>
      <trkpt lat="39.72527" lon="2.953709">
        <ele>189.4</ele>
        <time>2016-04-18T17:13:09Z</time>
      </trkpt>
      <trkpt lat="39.725263" lon="2.953681">
        <ele>189.8</ele>
        <time>2016-04-18T17:13:10Z</time>
      </trkpt>
      <trkpt lat="39.725259" lon="2.953652">
        <ele>190.4</ele>
        <time>2016-04-18T17:13:11Z</time>
      </trkpt>
      <trkpt lat="39.725252" lon="2.953627">
        <ele>190.8</ele>
        <time>2016-04-18T17:13:12Z</time>
      </trkpt>
      <trkpt lat="39.72525" lon="2.953599">
        <ele>191.2</ele>
        <time>2016-04-18T17:13:13Z</time>
      </trkpt>
      <trkpt lat="39.725247" lon="2.953562">
        <ele>191.2</ele>
        <time>2016-04-18T17:13:14Z</time>
      </trkpt>
      <trkpt lat="39.725215" lon="2.953332">
        <ele>191.2</ele>
        <time>2016-04-18T17:13:20Z</time>
      </trkpt>
      <trkpt lat="39.725212" lon="2.953291">
        <ele>191.6</ele>
        <time>2016-04-18T17:13:21Z</time>
      </trkpt>
      <trkpt lat="39.72521" lon="2.953253">
        <ele>192</ele>
        <time>2016-04-18T17:13:22Z</time>
      </trkpt>
      <trkpt lat="39.725206" lon="2.953213">
        <ele>192.4</ele>
        <time>2016-04-18T17:13:23Z</time>
      </trkpt>
      <trkpt lat="39.725208" lon="2.95317">
        <ele>192.8</ele>
        <time>2016-04-18T17:13:24Z</time>
      </trkpt>
      <trkpt lat="39.72521" lon="2.953126">
        <ele>193.2</ele>
        <time>2016-04-18T17:13:25Z</time>
      </trkpt>
      <trkpt lat="39.725221" lon="2.952982">
        <ele>193.2</ele>
        <time>2016-04-18T17:13:28Z</time>
      </trkpt>
      <trkpt lat="39.725229" lon="2.952941">
        <ele>193.6</ele>
        <time>2016-04-18T17:13:29Z</time>
      </trkpt>
      <trkpt lat="39.725236" lon="2.952897">
        <ele>194</ele>
        <time>2016-04-18T17:13:30Z</time>
      </trkpt>
      <trkpt lat="39.725246" lon="2.952852">
        <ele>194.4</ele>
        <time>2016-04-18T17:13:31Z</time>
      </trkpt>
      <trkpt lat="39.725251" lon="2.952807">
        <ele>195</ele>
        <time>2016-04-18T17:13:32Z</time>
      </trkpt>
      <trkpt lat="39.725259" lon="2.952769">
        <ele>195.4</ele>
        <time>2016-04-18T17:13:33Z</time>
      </trkpt>
      <trkpt lat="39.72527" lon="2.952729">
        <ele>195.4</ele>
        <time>2016-04-18T17:13:34Z</time>
      </trkpt>
      <trkpt lat="39.725305" lon="2.952609">
        <ele>195.8</ele>
        <time>2016-04-18T17:13:37Z</time>
      </trkpt>
      <trkpt lat="39.725318" lon="2.952569">
        <ele>196.2</ele>
        <time>2016-04-18T17:13:38Z</time>
      </trkpt>
      <trkpt lat="39.725331" lon="2.952528">
        <ele>196.6</ele>
        <time>2016-04-18T17:13:39Z</time>
      </trkpt>
      <trkpt lat="39.725345" lon="2.952491">
        <ele>197.2</ele>
        <time>2016-04-18T17:13:40Z</time>
      </trkpt>
      <trkpt lat="39.725356" lon="2.952459">
        <ele>197.6</ele>
        <time>2016-04-18T17:13:41Z</time>
      </trkpt>
      <trkpt lat="39.725375" lon="2.952405">
        <ele>198</ele>
        <time>2016-04-18T17:13:43Z</time>
      </trkpt>
      <trkpt lat="39.725388" lon="2.95238">
        <ele>198.4</ele>
        <time>2016-04-18T17:13:44Z</time>
      </trkpt>
      <trkpt lat="39.725408" lon="2.95235">
        <ele>198.8</ele>
        <time>2016-04-18T17:13:45Z</time>
      </trkpt>
      <trkpt lat="39.725423" lon="2.952317">
        <ele>199.2</ele>
        <time>2016-04-18T17:13:46Z</time>
      </trkpt>
      <trkpt lat="39.725435" lon="2.952288">
        <ele>199.8</ele>
        <time>2016-04-18T17:13:47Z</time>
      </trkpt>
      <trkpt lat="39.725457" lon="2.952263">
        <ele>199.8</ele>
        <time>2016-04-18T17:13:48Z</time>
      </trkpt>
      <trkpt lat="39.72548" lon="2.95226">
        <ele>200.2</ele>
        <time>2016-04-18T17:13:49Z</time>
      </trkpt>
      <trkpt lat="39.725502" lon="2.952268">
        <ele>200.6</ele>
        <time>2016-04-18T17:13:50Z</time>
      </trkpt>
      <trkpt lat="39.725504" lon="2.95229">
        <ele>201</ele>
        <time>2016-04-18T17:13:51Z</time>
      </trkpt>
      <trkpt lat="39.725497" lon="2.952313">
        <ele>201.4</ele>
        <time>2016-04-18T17:13:52Z</time>
      </trkpt>
      <trkpt lat="39.72549" lon="2.952333">
        <ele>201.8</ele>
        <time>2016-04-18T17:13:53Z</time>
      </trkpt>
      <trkpt lat="39.72547" lon="2.952448">
        <ele>201.8</ele>
        <time>2016-04-18T17:13:57Z</time>
      </trkpt>
      <trkpt lat="39.725459" lon="2.952544">
        <ele>202.2</ele>
        <time>2016-04-18T17:14:00Z</time>
      </trkpt>
      <trkpt lat="39.725459" lon="2.952577">
        <ele>202.6</ele>
        <time>2016-04-18T17:14:01Z</time>
      </trkpt>
      <trkpt lat="39.725458" lon="2.952611">
        <ele>203</ele>
        <time>2016-04-18T17:14:02Z</time>
      </trkpt>
      <trkpt lat="39.725462" lon="2.952645">
        <ele>203.4</ele>
        <time>2016-04-18T17:14:03Z</time>
      </trkpt>
      <trkpt lat="39.725466" lon="2.952681">
        <ele>203.8</ele>
        <time>2016-04-18T17:14:04Z</time>
      </trkpt>
      <trkpt lat="39.72547" lon="2.952823">
        <ele>204.2</ele>
        <time>2016-04-18T17:14:08Z</time>
      </trkpt>
      <trkpt lat="39.725472" lon="2.952858">
        <ele>204.8</ele>
        <time>2016-04-18T17:14:09Z</time>
      </trkpt>
      <trkpt lat="39.725473" lon="2.952895">
        <ele>205.2</ele>
        <time>2016-04-18T17:14:10Z</time>
      </trkpt>
      <trkpt lat="39.725479" lon="2.952925">
        <ele>205.6</ele>
        <time>2016-04-18T17:14:11Z</time>
      </trkpt>
      <trkpt lat="39.725496" lon="2.952957">
        <ele>206</ele>
        <time>2016-04-18T17:14:12Z</time>
      </trkpt>
      <trkpt lat="39.72555" lon="2.952978">
        <ele>206</ele>
        <time>2016-04-18T17:14:14Z</time>
      </trkpt>
      <trkpt lat="39.725572" lon="2.952918">
        <ele>206.6</ele>
        <time>2016-04-18T17:14:16Z</time>
      </trkpt>
      <trkpt lat="39.725577" lon="2.952885">
        <ele>207</ele>
        <time>2016-04-18T17:14:17Z</time>
      </trkpt>
      <trkpt lat="39.725574" lon="2.95285">
        <ele>207.6</ele>
        <time>2016-04-18T17:14:18Z</time>
      </trkpt>
      <trkpt lat="39.725573" lon="2.952811">
        <ele>208</ele>
        <time>2016-04-18T17:14:19Z</time>
      </trkpt>
      <trkpt lat="39.725581" lon="2.952773">
        <ele>208.6</ele>
        <time>2016-04-18T17:14:20Z</time>
      </trkpt>
      <trkpt lat="39.725605" lon="2.952704">
        <ele>208.6</ele>
        <time>2016-04-18T17:14:22Z</time>
      </trkpt>
      <trkpt lat="39.725635" lon="2.952574">
        <ele>209</ele>
        <time>2016-04-18T17:14:25Z</time>
      </trkpt>
      <trkpt lat="39.725644" lon="2.952541">
        <ele>209.4</ele>
        <time>2016-04-18T17:14:26Z</time>
      </trkpt>
      <trkpt lat="39.725659" lon="2.952513">
        <ele>209.8</ele>
        <time>2016-04-18T17:14:27Z</time>
      </trkpt>
      <trkpt lat="39.725683" lon="2.952506">
        <ele>210.2</ele>
        <time>2016-04-18T17:14:28Z</time>
      </trkpt>
      <trkpt lat="39.725707" lon="2.952526">
        <ele>210.6</ele>
        <time>2016-04-18T17:14:29Z</time>
      </trkpt>
      <trkpt lat="39.725704" lon="2.952556">
        <ele>210.6</ele>
        <time>2016-04-18T17:14:30Z</time>
      </trkpt>
      <trkpt lat="39.725688" lon="2.952626">
        <ele>211</ele>
        <time>2016-04-18T17:14:32Z</time>
      </trkpt>
      <trkpt lat="39.725679" lon="2.952665">
        <ele>211.4</ele>
        <time>2016-04-18T17:14:33Z</time>
      </trkpt>
      <trkpt lat="39.725676" lon="2.952704">
        <ele>211.8</ele>
        <time>2016-04-18T17:14:34Z</time>
      </trkpt>
      <trkpt lat="39.725676" lon="2.952741">
        <ele>212.4</ele>
        <time>2016-04-18T17:14:35Z</time>
      </trkpt>
      <trkpt lat="39.725677" lon="2.952782">
        <ele>212.8</ele>
        <time>2016-04-18T17:14:36Z</time>
      </trkpt>
      <trkpt lat="39.725689" lon="2.952976">
        <ele>213.2</ele>
        <time>2016-04-18T17:14:41Z</time>
      </trkpt>
      <trkpt lat="39.725686" lon="2.953011">
        <ele>213.6</ele>
        <time>2016-04-18T17:14:42Z</time>
      </trkpt>
      <trkpt lat="39.725684" lon="2.953045">
        <ele>214</ele>
        <time>2016-04-18T17:14:43Z</time>
      </trkpt>
      <trkpt lat="39.725688" lon="2.953085">
        <ele>214.4</ele>
        <time>2016-04-18T17:14:44Z</time>
      </trkpt>
      <trkpt lat="39.725693" lon="2.953123">
        <ele>214.8</ele>
        <time>2016-04-18T17:14:45Z</time>
      </trkpt>
      <trkpt lat="39.725704" lon="2.953229">
        <ele>214.8</ele>
        <time>2016-04-18T17:14:48Z</time>
      </trkpt>
      <trkpt lat="39.725713" lon="2.953325">
        <ele>215.2</ele>
        <time>2016-04-18T17:14:51Z</time>
      </trkpt>
      <trkpt lat="39.725716" lon="2.953358">
        <ele>215.6</ele>
        <time>2016-04-18T17:14:52Z</time>
      </trkpt>
      <trkpt lat="39.725721" lon="2.953391">
        <ele>216.2</ele>
        <time>2016-04-18T17:14:53Z</time>
      </trkpt>
      <trkpt lat="39.725733" lon="2.953422">
        <ele>216.6</ele>
        <time>2016-04-18T17:14:54Z</time>
      </trkpt>
      <trkpt lat="39.725759" lon="2.953439">
        <ele>217</ele>
        <time>2016-04-18T17:14:55Z</time>
      </trkpt>
      <trkpt lat="39.725774" lon="2.95343">
        <ele>217</ele>
        <time>2016-04-18T17:14:56Z</time>
      </trkpt>
      <trkpt lat="39.725797" lon="2.953406">
        <ele>217.4</ele>
        <time>2016-04-18T17:14:57Z</time>
      </trkpt>
      <trkpt lat="39.725812" lon="2.95337">
        <ele>218</ele>
        <time>2016-04-18T17:14:58Z</time>
      </trkpt>
      <trkpt lat="39.725819" lon="2.953326">
        <ele>218.4</ele>
        <time>2016-04-18T17:14:59Z</time>
      </trkpt>
      <trkpt lat="39.725822" lon="2.953279">
        <ele>218.8</ele>
        <time>2016-04-18T17:15:00Z</time>
      </trkpt>
      <trkpt lat="39.72582" lon="2.953237">
        <ele>219.2</ele>
        <time>2016-04-18T17:15:01Z</time>
      </trkpt>
      <trkpt lat="39.725848" lon="2.953125">
        <ele>219.2</ele>
        <time>2016-04-18T17:15:04Z</time>
      </trkpt>
      <trkpt lat="39.725857" lon="2.95309">
        <ele>219.2</ele>
        <time>2016-04-18T17:15:05Z</time>
      </trkpt>
      <trkpt lat="39.725877" lon="2.952989">
        <ele>219.8</ele>
        <time>2016-04-18T17:15:07Z</time>
      </trkpt>
      <trkpt lat="39.725903" lon="2.952952">
        <ele>220.2</ele>
        <time>2016-04-18T17:15:08Z</time>
      </trkpt>
      <trkpt lat="39.725944" lon="2.95296">
        <ele>220.6</ele>
        <time>2016-04-18T17:15:09Z</time>
      </trkpt>
      <trkpt lat="39.725967" lon="2.952985">
        <ele>221</ele>
        <time>2016-04-18T17:15:10Z</time>
      </trkpt>
      <trkpt lat="39.72597" lon="2.95303">
        <ele>221.4</ele>
        <time>2016-04-18T17:15:11Z</time>
      </trkpt>
      <trkpt lat="39.725961" lon="2.953109">
        <ele>221.4</ele>
        <time>2016-04-18T17:15:13Z</time>
      </trkpt>
      <trkpt lat="39.725963" lon="2.953212">
        <ele>221.8</ele>
        <time>2016-04-18T17:15:16Z</time>
      </trkpt>
      <trkpt lat="39.725969" lon="2.953243">
        <ele>222.4</ele>
        <time>2016-04-18T17:15:17Z</time>
      </trkpt>
      <trkpt lat="39.725973" lon="2.953272">
        <ele>222.8</ele>
        <time>2016-04-18T17:15:18Z</time>
      </trkpt>
      <trkpt lat="39.725976" lon="2.953299">
        <ele>223.4</ele>
        <time>2016-04-18T17:15:19Z</time>
      </trkpt>
      <trkpt lat="39.725987" lon="2.953326">
        <ele>223.8</ele>
        <time>2016-04-18T17:15:20Z</time>
      </trkpt>
      <trkpt lat="39.726005" lon="2.953383">
        <ele>224.2</ele>
        <time>2016-04-18T17:15:22Z</time>
      </trkpt>
      <trkpt lat="39.726013" lon="2.95341">
        <ele>224.6</ele>
        <time>2016-04-18T17:15:23Z</time>
      </trkpt>
      <trkpt lat="39.726013" lon="2.95344">
        <ele>225.2</ele>
        <time>2016-04-18T17:15:24Z</time>
      </trkpt>
      <trkpt lat="39.726015" lon="2.953474">
        <ele>225.6</ele>
        <time>2016-04-18T17:15:25Z</time>
      </trkpt>
      <trkpt lat="39.726021" lon="2.953504">
        <ele>226</ele>
        <time>2016-04-18T17:15:26Z</time>
      </trkpt>
      <trkpt lat="39.726029" lon="2.953538">
        <ele>226.4</ele>
        <time>2016-04-18T17:15:27Z</time>
      </trkpt>
      <trkpt lat="39.726036" lon="2.953571">
        <ele>226.8</ele>
        <time>2016-04-18T17:15:28Z</time>
      </trkpt>
      <trkpt lat="39.726045" lon="2.953597">
        <ele>227.2</ele>
        <time>2016-04-18T17:15:29Z</time>
      </trkpt>
      <trkpt lat="39.726044" lon="2.953622">
        <ele>227.6</ele>
        <time>2016-04-18T17:15:30Z</time>
      </trkpt>
      <trkpt lat="39.726042" lon="2.953639">
        <ele>228</ele>
        <time>2016-04-18T17:15:31Z</time>
      </trkpt>
      <trkpt lat="39.726047" lon="2.95367">
        <ele>228</ele>
        <time>2016-04-18T17:15:32Z</time>
      </trkpt>
      <trkpt lat="39.726044" lon="2.953831">
        <ele>228</ele>
        <time>2016-04-18T17:15:37Z</time>
      </trkpt>
      <trkpt lat="39.726042" lon="2.953865">
        <ele>228.6</ele>
        <time>2016-04-18T17:15:38Z</time>
      </trkpt>
      <trkpt lat="39.726038" lon="2.953896">
        <ele>229</ele>
        <time>2016-04-18T17:15:39Z</time>
      </trkpt>
      <trkpt lat="39.726038" lon="2.953929">
        <ele>229.4</ele>
        <time>2016-04-18T17:15:40Z</time>
      </trkpt>
      <trkpt lat="39.726039" lon="2.953961">
        <ele>229.8</ele>
        <time>2016-04-18T17:15:41Z</time>
      </trkpt>
      <trkpt lat="39.726041" lon="2.953992">
        <ele>230.4</ele>
        <time>2016-04-18T17:15:42Z</time>
      </trkpt>
      <trkpt lat="39.726036" lon="2.954086">
        <ele>230.4</ele>
        <time>2016-04-18T17:15:45Z</time>
      </trkpt>
      <trkpt lat="39.726024" lon="2.954154">
        <ele>230.8</ele>
        <time>2016-04-18T17:15:47Z</time>
      </trkpt>
      <trkpt lat="39.726019" lon="2.954189">
        <ele>231.2</ele>
        <time>2016-04-18T17:15:48Z</time>
      </trkpt>
      <trkpt lat="39.726016" lon="2.954223">
        <ele>231.6</ele>
        <time>2016-04-18T17:15:49Z</time>
      </trkpt>
      <trkpt lat="39.726013" lon="2.954254">
        <ele>232</ele>
        <time>2016-04-18T17:15:50Z</time>
      </trkpt>
      <trkpt lat="39.726009" lon="2.954285">
        <ele>232.4</ele>
        <time>2016-04-18T17:15:51Z</time>
      </trkpt>
      <trkpt lat="39.726001" lon="2.954351">
        <ele>232.4</ele>
        <time>2016-04-18T17:15:53Z</time>
      </trkpt>
      <trkpt lat="39.725998" lon="2.954387">
        <ele>232.8</ele>
        <time>2016-04-18T17:15:54Z</time>
      </trkpt>
      <trkpt lat="39.725994" lon="2.954421">
        <ele>233.4</ele>
        <time>2016-04-18T17:15:55Z</time>
      </trkpt>
      <trkpt lat="39.725987" lon="2.954457">
        <ele>233.8</ele>
        <time>2016-04-18T17:15:56Z</time>
      </trkpt>
      <trkpt lat="39.725981" lon="2.954494">
        <ele>234.2</ele>
        <time>2016-04-18T17:15:57Z</time>
      </trkpt>
      <trkpt lat="39.725976" lon="2.954533">
        <ele>234.8</ele>
        <time>2016-04-18T17:15:58Z</time>
      </trkpt>
      <trkpt lat="39.725953" lon="2.954608">
        <ele>234.8</ele>
        <time>2016-04-18T17:16:00Z</time>
      </trkpt>
      <trkpt lat="39.725928" lon="2.954682">
        <ele>235.2</ele>
        <time>2016-04-18T17:16:02Z</time>
      </trkpt>
      <trkpt lat="39.725918" lon="2.954721">
        <ele>235.6</ele>
        <time>2016-04-18T17:16:03Z</time>
      </trkpt>
      <trkpt lat="39.725903" lon="2.954758">
        <ele>236</ele>
        <time>2016-04-18T17:16:04Z</time>
      </trkpt>
      <trkpt lat="39.725886" lon="2.954791">
        <ele>236.4</ele>
        <time>2016-04-18T17:16:05Z</time>
      </trkpt>
      <trkpt lat="39.72587" lon="2.954826">
        <ele>237</ele>
        <time>2016-04-18T17:16:06Z</time>
      </trkpt>
      <trkpt lat="39.725808" lon="2.954927">
        <ele>237.4</ele>
        <time>2016-04-18T17:16:09Z</time>
      </trkpt>
      <trkpt lat="39.725787" lon="2.954957">
        <ele>238.2</ele>
        <time>2016-04-18T17:16:10Z</time>
      </trkpt>
      <trkpt lat="39.725763" lon="2.954982">
        <ele>238.6</ele>
        <time>2016-04-18T17:16:11Z</time>
      </trkpt>
      <trkpt lat="39.725744" lon="2.955011">
        <ele>239</ele>
        <time>2016-04-18T17:16:12Z</time>
      </trkpt>
      <trkpt lat="39.725728" lon="2.955036">
        <ele>239</ele>
        <time>2016-04-18T17:16:13Z</time>
      </trkpt>
      <trkpt lat="39.725645" lon="2.955103">
        <ele>239.4</ele>
        <time>2016-04-18T17:16:17Z</time>
      </trkpt>
      <trkpt lat="39.725627" lon="2.955127">
        <ele>239.8</ele>
        <time>2016-04-18T17:16:18Z</time>
      </trkpt>
      <trkpt lat="39.725604" lon="2.955144">
        <ele>240.2</ele>
        <time>2016-04-18T17:16:19Z</time>
      </trkpt>
      <trkpt lat="39.725582" lon="2.955164">
        <ele>240.6</ele>
        <time>2016-04-18T17:16:20Z</time>
      </trkpt>
      <trkpt lat="39.725559" lon="2.955181">
        <ele>241</ele>
        <time>2016-04-18T17:16:21Z</time>
      </trkpt>
      <trkpt lat="39.725461" lon="2.955229">
        <ele>241</ele>
        <time>2016-04-18T17:16:25Z</time>
      </trkpt>
      <trkpt lat="39.725359" lon="2.955273">
        <ele>241</ele>
        <time>2016-04-18T17:16:29Z</time>
      </trkpt>
      <trkpt lat="39.725338" lon="2.955297">
        <ele>241.4</ele>
        <time>2016-04-18T17:16:30Z</time>
      </trkpt>
      <trkpt lat="39.725318" lon="2.95532">
        <ele>241.8</ele>
        <time>2016-04-18T17:16:31Z</time>
      </trkpt>
      <trkpt lat="39.725308" lon="2.955354">
        <ele>242.2</ele>
        <time>2016-04-18T17:16:32Z</time>
      </trkpt>
      <trkpt lat="39.725316" lon="2.955382">
        <ele>242.8</ele>
        <time>2016-04-18T17:16:33Z</time>
      </trkpt>
      <trkpt lat="39.725325" lon="2.955391">
        <ele>243.2</ele>
        <time>2016-04-18T17:16:34Z</time>
      </trkpt>
      <trkpt lat="39.725378" lon="2.955394">
        <ele>243.2</ele>
        <time>2016-04-18T17:16:36Z</time>
      </trkpt>
      <trkpt lat="39.72541" lon="2.955398">
        <ele>243.2</ele>
        <time>2016-04-18T17:16:37Z</time>
      </trkpt>
      <trkpt lat="39.725479" lon="2.955403">
        <ele>243.6</ele>
        <time>2016-04-18T17:16:39Z</time>
      </trkpt>
      <trkpt lat="39.72551" lon="2.955405">
        <ele>244</ele>
        <time>2016-04-18T17:16:40Z</time>
      </trkpt>
      <trkpt lat="39.725542" lon="2.955412">
        <ele>244.4</ele>
        <time>2016-04-18T17:16:41Z</time>
      </trkpt>
      <trkpt lat="39.725574" lon="2.955418">
        <ele>245</ele>
        <time>2016-04-18T17:16:42Z</time>
      </trkpt>
      <trkpt lat="39.725604" lon="2.955423">
        <ele>245.4</ele>
        <time>2016-04-18T17:16:43Z</time>
      </trkpt>
      <trkpt lat="39.725666" lon="2.955426">
        <ele>245.4</ele>
        <time>2016-04-18T17:16:45Z</time>
      </trkpt>
      <trkpt lat="39.72575" lon="2.955435">
        <ele>245.8</ele>
        <time>2016-04-18T17:16:48Z</time>
      </trkpt>
      <trkpt lat="39.725781" lon="2.955436">
        <ele>246.2</ele>
        <time>2016-04-18T17:16:49Z</time>
      </trkpt>
      <trkpt lat="39.725813" lon="2.95544">
        <ele>246.8</ele>
        <time>2016-04-18T17:16:50Z</time>
      </trkpt>
      <trkpt lat="39.725841" lon="2.955439">
        <ele>247.2</ele>
        <time>2016-04-18T17:16:51Z</time>
      </trkpt>
      <trkpt lat="39.725871" lon="2.955445">
        <ele>247.6</ele>
        <time>2016-04-18T17:16:52Z</time>
      </trkpt>
      <trkpt lat="39.726035" lon="2.955467">
        <ele>247.6</ele>
        <time>2016-04-18T17:16:57Z</time>
      </trkpt>
      <trkpt lat="39.72622" lon="2.955483">
        <ele>247.6</ele>
        <time>2016-04-18T17:17:03Z</time>
      </trkpt>
      <trkpt lat="39.726379" lon="2.955489">
        <ele>248.2</ele>
        <time>2016-04-18T17:17:08Z</time>
      </trkpt>
      <trkpt lat="39.726414" lon="2.955483">
        <ele>248.6</ele>
        <time>2016-04-18T17:17:09Z</time>
      </trkpt>
      <trkpt lat="39.726448" lon="2.955475">
        <ele>249</ele>
        <time>2016-04-18T17:17:10Z</time>
      </trkpt>
      <trkpt lat="39.726482" lon="2.955469">
        <ele>249.4</ele>
        <time>2016-04-18T17:17:11Z</time>
      </trkpt>
      <trkpt lat="39.72652" lon="2.955467">
        <ele>250</ele>
        <time>2016-04-18T17:17:12Z</time>
      </trkpt>
      <trkpt lat="39.726664" lon="2.955418">
        <ele>250</ele>
        <time>2016-04-18T17:17:16Z</time>
      </trkpt>
      <trkpt lat="39.726898" lon="2.955378">
        <ele>250</ele>
        <time>2016-04-18T17:17:21Z</time>
      </trkpt>
      <trkpt lat="39.727062" lon="2.955401">
        <ele>250</ele>
        <time>2016-04-18T17:17:24Z</time>
      </trkpt>
      <trkpt lat="39.727174" lon="2.955442">
        <ele>250</ele>
        <time>2016-04-18T17:17:26Z</time>
      </trkpt>
      <trkpt lat="39.727356" lon="2.955609">
        <ele>250</ele>
        <time>2016-04-18T17:17:30Z</time>
      </trkpt>
      <trkpt lat="39.727387" lon="2.955656">
        <ele>250</ele>
        <time>2016-04-18T17:17:31Z</time>
      </trkpt>
      <trkpt lat="39.727471" lon="2.955774">
        <ele>250.4</ele>
        <time>2016-04-18T17:17:34Z</time>
      </trkpt>
      <trkpt lat="39.727491" lon="2.955813">
        <ele>251</ele>
        <time>2016-04-18T17:17:35Z</time>
      </trkpt>
      <trkpt lat="39.727508" lon="2.955848">
        <ele>251.4</ele>
        <time>2016-04-18T17:17:36Z</time>
      </trkpt>
      <trkpt lat="39.72753" lon="2.955883">
        <ele>252</ele>
        <time>2016-04-18T17:17:37Z</time>
      </trkpt>
      <trkpt lat="39.727553" lon="2.955925">
        <ele>252.4</ele>
        <time>2016-04-18T17:17:38Z</time>
      </trkpt>
      <trkpt lat="39.727593" lon="2.956015">
        <ele>252.8</ele>
        <time>2016-04-18T17:17:40Z</time>
      </trkpt>
      <trkpt lat="39.727613" lon="2.956061">
        <ele>253.4</ele>
        <time>2016-04-18T17:17:41Z</time>
      </trkpt>
      <trkpt lat="39.727637" lon="2.956106">
        <ele>253.8</ele>
        <time>2016-04-18T17:17:42Z</time>
      </trkpt>
      <trkpt lat="39.727656" lon="2.956147">
        <ele>254.2</ele>
        <time>2016-04-18T17:17:43Z</time>
      </trkpt>
      <trkpt lat="39.727673" lon="2.956192">
        <ele>254.6</ele>
        <time>2016-04-18T17:17:44Z</time>
      </trkpt>
      <trkpt lat="39.7277" lon="2.95629">
        <ele>254.6</ele>
        <time>2016-04-18T17:17:46Z</time>
      </trkpt>
      <trkpt lat="39.72771" lon="2.956342">
        <ele>254.6</ele>
        <time>2016-04-18T17:17:47Z</time>
      </trkpt>
      <trkpt lat="39.727714" lon="2.956394">
        <ele>255.2</ele>
        <time>2016-04-18T17:17:48Z</time>
      </trkpt>
      <trkpt lat="39.727719" lon="2.956449">
        <ele>255.6</ele>
        <time>2016-04-18T17:17:49Z</time>
      </trkpt>
      <trkpt lat="39.72772" lon="2.956504">
        <ele>256.6</ele>
        <time>2016-04-18T17:17:50Z</time>
      </trkpt>
      <trkpt lat="39.727723" lon="2.956563">
        <ele>257</ele>
        <time>2016-04-18T17:17:51Z</time>
      </trkpt>
      <trkpt lat="39.727727" lon="2.956625">
        <ele>257.4</ele>
        <time>2016-04-18T17:17:52Z</time>
      </trkpt>
      <trkpt lat="39.727731" lon="2.956684">
        <ele>257.8</ele>
        <time>2016-04-18T17:17:53Z</time>
      </trkpt>
      <trkpt lat="39.727732" lon="2.956745">
        <ele>258.2</ele>
        <time>2016-04-18T17:17:54Z</time>
      </trkpt>
      <trkpt lat="39.727735" lon="2.956803">
        <ele>258.6</ele>
        <time>2016-04-18T17:17:55Z</time>
      </trkpt>
      <trkpt lat="39.727737" lon="2.956857">
        <ele>259</ele>
        <time>2016-04-18T17:17:56Z</time>
      </trkpt>
      <trkpt lat="39.727756" lon="2.95702">
        <ele>259.6</ele>
        <time>2016-04-18T17:17:59Z</time>
      </trkpt>
      <trkpt lat="39.727758" lon="2.957075">
        <ele>260</ele>
        <time>2016-04-18T17:18:00Z</time>
      </trkpt>
      <trkpt lat="39.727769" lon="2.957132">
        <ele>260.4</ele>
        <time>2016-04-18T17:18:01Z</time>
      </trkpt>
      <trkpt lat="39.727778" lon="2.957195">
        <ele>260.8</ele>
        <time>2016-04-18T17:18:02Z</time>
      </trkpt>
      <trkpt lat="39.727786" lon="2.957255">
        <ele>261.4</ele>
        <time>2016-04-18T17:18:03Z</time>
      </trkpt>
      <trkpt lat="39.72779" lon="2.957311">
        <ele>261.4</ele>
        <time>2016-04-18T17:18:04Z</time>
      </trkpt>
      <trkpt lat="39.727799" lon="2.957363">
        <ele>261.4</ele>
        <time>2016-04-18T17:18:05Z</time>
      </trkpt>
      <trkpt lat="39.727805" lon="2.957397">
        <ele>261.8</ele>
        <time>2016-04-18T17:18:06Z</time>
      </trkpt>
      <trkpt lat="39.727807" lon="2.957443">
        <ele>262.2</ele>
        <time>2016-04-18T17:18:07Z</time>
      </trkpt>
      <trkpt lat="39.727817" lon="2.957488">
        <ele>262.6</ele>
        <time>2016-04-18T17:18:08Z</time>
      </trkpt>
      <trkpt lat="39.727823" lon="2.957535">
        <ele>263</ele>
        <time>2016-04-18T17:18:09Z</time>
      </trkpt>
      <trkpt lat="39.727827" lon="2.957592">
        <ele>263.4</ele>
        <time>2016-04-18T17:18:10Z</time>
      </trkpt>
      <trkpt lat="39.727827" lon="2.957644">
        <ele>263.4</ele>
        <time>2016-04-18T17:18:11Z</time>
      </trkpt>
      <trkpt lat="39.727838" lon="2.957763">
        <ele>263.4</ele>
        <time>2016-04-18T17:18:13Z</time>
      </trkpt>
      <trkpt lat="39.727891" lon="2.957855">
        <ele>263.8</ele>
        <time>2016-04-18T17:18:15Z</time>
      </trkpt>
      <trkpt lat="39.727926" lon="2.957886">
        <ele>264.2</ele>
        <time>2016-04-18T17:18:16Z</time>
      </trkpt>
      <trkpt lat="39.727965" lon="2.957899">
        <ele>264.8</ele>
        <time>2016-04-18T17:18:17Z</time>
      </trkpt>
      <trkpt lat="39.728009" lon="2.957902">
        <ele>265.2</ele>
        <time>2016-04-18T17:18:18Z</time>
      </trkpt>
      <trkpt lat="39.728048" lon="2.957905">
        <ele>265.6</ele>
        <time>2016-04-18T17:18:19Z</time>
      </trkpt>
      <trkpt lat="39.728319" lon="2.957911">
        <ele>266</ele>
        <time>2016-04-18T17:18:26Z</time>
      </trkpt>
      <trkpt lat="39.728357" lon="2.957905">
        <ele>266.6</ele>
        <time>2016-04-18T17:18:27Z</time>
      </trkpt>
      <trkpt lat="39.728399" lon="2.957904">
        <ele>267</ele>
        <time>2016-04-18T17:18:28Z</time>
      </trkpt>
      <trkpt lat="39.728442" lon="2.957899">
        <ele>267.4</ele>
        <time>2016-04-18T17:18:29Z</time>
      </trkpt>
      <trkpt lat="39.728485" lon="2.957895">
        <ele>267.8</ele>
        <time>2016-04-18T17:18:30Z</time>
      </trkpt>
      <trkpt lat="39.728561" lon="2.95788">
        <ele>267.8</ele>
        <time>2016-04-18T17:18:32Z</time>
      </trkpt>
      <trkpt lat="39.728681" lon="2.957854">
        <ele>268.2</ele>
        <time>2016-04-18T17:18:35Z</time>
      </trkpt>
      <trkpt lat="39.728721" lon="2.957832">
        <ele>268.8</ele>
        <time>2016-04-18T17:18:36Z</time>
      </trkpt>
      <trkpt lat="39.728755" lon="2.957806">
        <ele>269.2</ele>
        <time>2016-04-18T17:18:37Z</time>
      </trkpt>
      <trkpt lat="39.728793" lon="2.957778">
        <ele>269.6</ele>
        <time>2016-04-18T17:18:38Z</time>
      </trkpt>
      <trkpt lat="39.728822" lon="2.957743">
        <ele>270</ele>
        <time>2016-04-18T17:18:39Z</time>
      </trkpt>
      <trkpt lat="39.728858" lon="2.957711">
        <ele>270.6</ele>
        <time>2016-04-18T17:18:40Z</time>
      </trkpt>
      <trkpt lat="39.728889" lon="2.957681">
        <ele>271</ele>
        <time>2016-04-18T17:18:41Z</time>
      </trkpt>
      <trkpt lat="39.728918" lon="2.957647">
        <ele>271.6</ele>
        <time>2016-04-18T17:18:42Z</time>
      </trkpt>
      <trkpt lat="39.728941" lon="2.957601">
        <ele>272</ele>
        <time>2016-04-18T17:18:43Z</time>
      </trkpt>
      <trkpt lat="39.728963" lon="2.957555">
        <ele>272.6</ele>
        <time>2016-04-18T17:18:44Z</time>
      </trkpt>
      <trkpt lat="39.728986" lon="2.95751">
        <ele>272.6</ele>
        <time>2016-04-18T17:18:45Z</time>
      </trkpt>
      <trkpt lat="39.72902" lon="2.957425">
        <ele>273</ele>
        <time>2016-04-18T17:18:47Z</time>
      </trkpt>
      <trkpt lat="39.729037" lon="2.957387">
        <ele>273.4</ele>
        <time>2016-04-18T17:18:48Z</time>
      </trkpt>
      <trkpt lat="39.72905" lon="2.957347">
        <ele>273.8</ele>
        <time>2016-04-18T17:18:49Z</time>
      </trkpt>
      <trkpt lat="39.729059" lon="2.957303">
        <ele>274.2</ele>
        <time>2016-04-18T17:18:50Z</time>
      </trkpt>
      <trkpt lat="39.729068" lon="2.95726">
        <ele>274.8</ele>
        <time>2016-04-18T17:18:51Z</time>
      </trkpt>
      <trkpt lat="39.729087" lon="2.957167">
        <ele>274.8</ele>
        <time>2016-04-18T17:18:53Z</time>
      </trkpt>
      <trkpt lat="39.729091" lon="2.957113">
        <ele>274.8</ele>
        <time>2016-04-18T17:18:54Z</time>
      </trkpt>
      <trkpt lat="39.729089" lon="2.957057">
        <ele>275.2</ele>
        <time>2016-04-18T17:18:55Z</time>
      </trkpt>
      <trkpt lat="39.729089" lon="2.956996">
        <ele>275.6</ele>
        <time>2016-04-18T17:18:56Z</time>
      </trkpt>
      <trkpt lat="39.729091" lon="2.956939">
        <ele>276.2</ele>
        <time>2016-04-18T17:18:57Z</time>
      </trkpt>
      <trkpt lat="39.72909" lon="2.956889">
        <ele>276.6</ele>
        <time>2016-04-18T17:18:58Z</time>
      </trkpt>
      <trkpt lat="39.729086" lon="2.956843">
        <ele>277</ele>
        <time>2016-04-18T17:18:59Z</time>
      </trkpt>
      <trkpt lat="39.729083" lon="2.956796">
        <ele>277.4</ele>
        <time>2016-04-18T17:19:00Z</time>
      </trkpt>
      <trkpt lat="39.729078" lon="2.956751">
        <ele>277.8</ele>
        <time>2016-04-18T17:19:01Z</time>
      </trkpt>
      <trkpt lat="39.72907" lon="2.956704">
        <ele>278.2</ele>
        <time>2016-04-18T17:19:02Z</time>
      </trkpt>
      <trkpt lat="39.729057" lon="2.956662">
        <ele>279.2</ele>
        <time>2016-04-18T17:19:03Z</time>
      </trkpt>
      <trkpt lat="39.729036" lon="2.956618">
        <ele>279.2</ele>
        <time>2016-04-18T17:19:04Z</time>
      </trkpt>
      <trkpt lat="39.728966" lon="2.956562">
        <ele>279.2</ele>
        <time>2016-04-18T17:19:06Z</time>
      </trkpt>
      <trkpt lat="39.728921" lon="2.956577">
        <ele>279.2</ele>
        <time>2016-04-18T17:19:07Z</time>
      </trkpt>
      <trkpt lat="39.728787" lon="2.956668">
        <ele>279.2</ele>
        <time>2016-04-18T17:19:11Z</time>
      </trkpt>
      <trkpt lat="39.728757" lon="2.956692">
        <ele>279.6</ele>
        <time>2016-04-18T17:19:12Z</time>
      </trkpt>
      <trkpt lat="39.728732" lon="2.956723">
        <ele>280</ele>
        <time>2016-04-18T17:19:13Z</time>
      </trkpt>
      <trkpt lat="39.728704" lon="2.95675">
        <ele>280.4</ele>
        <time>2016-04-18T17:19:14Z</time>
      </trkpt>
      <trkpt lat="39.7287" lon="2.956791">
        <ele>280.8</ele>
        <time>2016-04-18T17:19:15Z</time>
      </trkpt>
      <trkpt lat="39.72871" lon="2.956826">
        <ele>281.2</ele>
        <time>2016-04-18T17:19:16Z</time>
      </trkpt>
      <trkpt lat="39.728724" lon="2.956955">
        <ele>281.2</ele>
        <time>2016-04-18T17:19:21Z</time>
      </trkpt>
      <trkpt lat="39.728772" lon="2.957055">
        <ele>281.2</ele>
        <time>2016-04-18T17:19:25Z</time>
      </trkpt>
      <trkpt lat="39.728838" lon="2.957153">
        <ele>281.2</ele>
        <time>2016-04-18T17:19:29Z</time>
      </trkpt>
      <trkpt lat="39.728857" lon="2.957182">
        <ele>283.4</ele>
        <time>2016-04-18T17:26:42Z</time>
      </trkpt>
      <trkpt lat="39.728763" lon="2.956978">
        <ele>283.4</ele>
        <time>2016-04-18T17:26:47Z</time>
      </trkpt>
      <trkpt lat="39.728718" lon="2.956807">
        <ele>283.4</ele>
        <time>2016-04-18T17:26:50Z</time>
      </trkpt>
      <trkpt lat="39.728741" lon="2.956738">
        <ele>283.4</ele>
        <time>2016-04-18T17:26:51Z</time>
      </trkpt>
      <trkpt lat="39.728881" lon="2.956625">
        <ele>282.8</ele>
        <time>2016-04-18T17:26:54Z</time>
      </trkpt>
      <trkpt lat="39.728929" lon="2.956584">
        <ele>282.4</ele>
        <time>2016-04-18T17:26:55Z</time>
      </trkpt>
      <trkpt lat="39.728992" lon="2.956584">
        <ele>282</ele>
        <time>2016-04-18T17:26:56Z</time>
      </trkpt>
      <trkpt lat="39.729049" lon="2.956625">
        <ele>281.6</ele>
        <time>2016-04-18T17:26:57Z</time>
      </trkpt>
      <trkpt lat="39.729081" lon="2.956713">
        <ele>281</ele>
        <time>2016-04-18T17:26:58Z</time>
      </trkpt>
      <trkpt lat="39.729088" lon="2.956795">
        <ele>280.6</ele>
        <time>2016-04-18T17:26:59Z</time>
      </trkpt>
      <trkpt lat="39.729095" lon="2.956876">
        <ele>280</ele>
        <time>2016-04-18T17:27:00Z</time>
      </trkpt>
      <trkpt lat="39.729094" lon="2.956956">
        <ele>279.6</ele>
        <time>2016-04-18T17:27:01Z</time>
      </trkpt>
      <trkpt lat="39.729097" lon="2.957041">
        <ele>279</ele>
        <time>2016-04-18T17:27:02Z</time>
      </trkpt>
      <trkpt lat="39.729088" lon="2.957133">
        <ele>278.6</ele>
        <time>2016-04-18T17:27:03Z</time>
      </trkpt>
      <trkpt lat="39.729071" lon="2.957229">
        <ele>278</ele>
        <time>2016-04-18T17:27:04Z</time>
      </trkpt>
      <trkpt lat="39.729051" lon="2.957329">
        <ele>277.6</ele>
        <time>2016-04-18T17:27:05Z</time>
      </trkpt>
      <trkpt lat="39.729023" lon="2.957426">
        <ele>277</ele>
        <time>2016-04-18T17:27:06Z</time>
      </trkpt>
      <trkpt lat="39.72898" lon="2.957522">
        <ele>276.2</ele>
        <time>2016-04-18T17:27:07Z</time>
      </trkpt>
      <trkpt lat="39.728932" lon="2.957617">
        <ele>275.6</ele>
        <time>2016-04-18T17:27:08Z</time>
      </trkpt>
      <trkpt lat="39.728878" lon="2.957708">
        <ele>275</ele>
        <time>2016-04-18T17:27:09Z</time>
      </trkpt>
      <trkpt lat="39.728814" lon="2.957777">
        <ele>274.4</ele>
        <time>2016-04-18T17:27:10Z</time>
      </trkpt>
      <trkpt lat="39.728733" lon="2.957833">
        <ele>273.6</ele>
        <time>2016-04-18T17:27:11Z</time>
      </trkpt>
      <trkpt lat="39.728645" lon="2.957882">
        <ele>273</ele>
        <time>2016-04-18T17:27:12Z</time>
      </trkpt>
      <trkpt lat="39.728546" lon="2.957887">
        <ele>272.4</ele>
        <time>2016-04-18T17:27:13Z</time>
      </trkpt>
      <trkpt lat="39.728449" lon="2.957896">
        <ele>271.8</ele>
        <time>2016-04-18T17:27:14Z</time>
      </trkpt>
      <trkpt lat="39.728349" lon="2.957901">
        <ele>271.2</ele>
        <time>2016-04-18T17:27:15Z</time>
      </trkpt>
      <trkpt lat="39.728249" lon="2.957908">
        <ele>270.2</ele>
        <time>2016-04-18T17:27:16Z</time>
      </trkpt>
      <trkpt lat="39.728151" lon="2.957916">
        <ele>269.8</ele>
        <time>2016-04-18T17:27:17Z</time>
      </trkpt>
      <trkpt lat="39.72806" lon="2.957925">
        <ele>269.4</ele>
        <time>2016-04-18T17:27:18Z</time>
      </trkpt>
      <trkpt lat="39.727979" lon="2.95792">
        <ele>269</ele>
        <time>2016-04-18T17:27:19Z</time>
      </trkpt>
      <trkpt lat="39.727905" lon="2.957898">
        <ele>268.6</ele>
        <time>2016-04-18T17:27:20Z</time>
      </trkpt>
      <trkpt lat="39.727852" lon="2.957843">
        <ele>268.2</ele>
        <time>2016-04-18T17:27:21Z</time>
      </trkpt>
      <trkpt lat="39.727823" lon="2.957756">
        <ele>268.2</ele>
        <time>2016-04-18T17:27:22Z</time>
      </trkpt>
      <trkpt lat="39.727827" lon="2.95755">
        <ele>267.6</ele>
        <time>2016-04-18T17:27:24Z</time>
      </trkpt>
      <trkpt lat="39.727826" lon="2.95744">
        <ele>267.2</ele>
        <time>2016-04-18T17:27:25Z</time>
      </trkpt>
      <trkpt lat="39.72781" lon="2.957326">
        <ele>266.6</ele>
        <time>2016-04-18T17:27:26Z</time>
      </trkpt>
      <trkpt lat="39.727792" lon="2.957211">
        <ele>266</ele>
        <time>2016-04-18T17:27:27Z</time>
      </trkpt>
      <trkpt lat="39.727775" lon="2.957084">
        <ele>265.2</ele>
        <time>2016-04-18T17:27:28Z</time>
      </trkpt>
      <trkpt lat="39.727761" lon="2.956961">
        <ele>264.4</ele>
        <time>2016-04-18T17:27:29Z</time>
      </trkpt>
      <trkpt lat="39.72774" lon="2.956836">
        <ele>263.6</ele>
        <time>2016-04-18T17:27:30Z</time>
      </trkpt>
      <trkpt lat="39.727743" lon="2.956703">
        <ele>263</ele>
        <time>2016-04-18T17:27:31Z</time>
      </trkpt>
      <trkpt lat="39.727739" lon="2.956567">
        <ele>262.2</ele>
        <time>2016-04-18T17:27:32Z</time>
      </trkpt>
      <trkpt lat="39.727738" lon="2.95643">
        <ele>261.4</ele>
        <time>2016-04-18T17:27:33Z</time>
      </trkpt>
      <trkpt lat="39.727728" lon="2.956287">
        <ele>260.6</ele>
        <time>2016-04-18T17:27:34Z</time>
      </trkpt>
      <trkpt lat="39.727687" lon="2.956152">
        <ele>260</ele>
        <time>2016-04-18T17:27:35Z</time>
      </trkpt>
      <trkpt lat="39.727632" lon="2.956003">
        <ele>259.2</ele>
        <time>2016-04-18T17:27:36Z</time>
      </trkpt>
      <trkpt lat="39.727551" lon="2.955889">
        <ele>258.2</ele>
        <time>2016-04-18T17:27:37Z</time>
      </trkpt>
      <trkpt lat="39.727489" lon="2.955759">
        <ele>257.2</ele>
        <time>2016-04-18T17:27:38Z</time>
      </trkpt>
      <trkpt lat="39.727417" lon="2.955627">
        <ele>256</ele>
        <time>2016-04-18T17:27:39Z</time>
      </trkpt>
      <trkpt lat="39.727332" lon="2.955506">
        <ele>254.8</ele>
        <time>2016-04-18T17:27:40Z</time>
      </trkpt>
      <trkpt lat="39.727228" lon="2.95541">
        <ele>252.4</ele>
        <time>2016-04-18T17:27:41Z</time>
      </trkpt>
      <trkpt lat="39.727103" lon="2.955362">
        <ele>251.6</ele>
        <time>2016-04-18T17:27:42Z</time>
      </trkpt>
      <trkpt lat="39.72698" lon="2.955339">
        <ele>250.6</ele>
        <time>2016-04-18T17:27:43Z</time>
      </trkpt>
      <trkpt lat="39.726856" lon="2.955351">
        <ele>249.8</ele>
        <time>2016-04-18T17:27:44Z</time>
      </trkpt>
      <trkpt lat="39.726753" lon="2.955379">
        <ele>248.8</ele>
        <time>2016-04-18T17:27:45Z</time>
      </trkpt>
      <trkpt lat="39.72665" lon="2.955401">
        <ele>247.8</ele>
        <time>2016-04-18T17:27:46Z</time>
      </trkpt>
      <trkpt lat="39.726555" lon="2.955421">
        <ele>248.4</ele>
        <time>2016-04-18T17:27:47Z</time>
      </trkpt>
      <trkpt lat="39.726457" lon="2.955448">
        <ele>248.8</ele>
        <time>2016-04-18T17:27:48Z</time>
      </trkpt>
      <trkpt lat="39.726362" lon="2.955463">
        <ele>249.2</ele>
        <time>2016-04-18T17:27:49Z</time>
      </trkpt>
      <trkpt lat="39.726263" lon="2.955459">
        <ele>249.6</ele>
        <time>2016-04-18T17:27:50Z</time>
      </trkpt>
      <trkpt lat="39.726163" lon="2.955449">
        <ele>250</ele>
        <time>2016-04-18T17:27:51Z</time>
      </trkpt>
      <trkpt lat="39.725744" lon="2.955397">
        <ele>250</ele>
        <time>2016-04-18T17:27:55Z</time>
      </trkpt>
      <trkpt lat="39.725639" lon="2.955388">
        <ele>249.4</ele>
        <time>2016-04-18T17:27:56Z</time>
      </trkpt>
      <trkpt lat="39.725562" lon="2.955384">
        <ele>249</ele>
        <time>2016-04-18T17:27:57Z</time>
      </trkpt>
      <trkpt lat="39.725483" lon="2.955386">
        <ele>248.4</ele>
        <time>2016-04-18T17:27:58Z</time>
      </trkpt>
      <trkpt lat="39.725414" lon="2.955395">
        <ele>247.8</ele>
        <time>2016-04-18T17:27:59Z</time>
      </trkpt>
      <trkpt lat="39.72535" lon="2.955401">
        <ele>247.4</ele>
        <time>2016-04-18T17:28:00Z</time>
      </trkpt>
      <trkpt lat="39.725272" lon="2.955357">
        <ele>247.4</ele>
        <time>2016-04-18T17:28:02Z</time>
      </trkpt>
      <trkpt lat="39.725356" lon="2.955271">
        <ele>247</ele>
        <time>2016-04-18T17:28:04Z</time>
      </trkpt>
      <trkpt lat="39.725414" lon="2.955272">
        <ele>246</ele>
        <time>2016-04-18T17:28:05Z</time>
      </trkpt>
      <trkpt lat="39.725474" lon="2.955261">
        <ele>245.6</ele>
        <time>2016-04-18T17:28:06Z</time>
      </trkpt>
      <trkpt lat="39.725534" lon="2.955232">
        <ele>245</ele>
        <time>2016-04-18T17:28:07Z</time>
      </trkpt>
      <trkpt lat="39.725595" lon="2.95519">
        <ele>244.4</ele>
        <time>2016-04-18T17:28:08Z</time>
      </trkpt>
      <trkpt lat="39.725654" lon="2.955142">
        <ele>243.6</ele>
        <time>2016-04-18T17:28:09Z</time>
      </trkpt>
      <trkpt lat="39.725708" lon="2.955074">
        <ele>243</ele>
        <time>2016-04-18T17:28:10Z</time>
      </trkpt>
      <trkpt lat="39.725763" lon="2.954999">
        <ele>242.2</ele>
        <time>2016-04-18T17:28:11Z</time>
      </trkpt>
      <trkpt lat="39.725828" lon="2.95493">
        <ele>241.6</ele>
        <time>2016-04-18T17:28:12Z</time>
      </trkpt>
      <trkpt lat="39.725879" lon="2.954842">
        <ele>240.8</ele>
        <time>2016-04-18T17:28:13Z</time>
      </trkpt>
      <trkpt lat="39.725922" lon="2.95474">
        <ele>240</ele>
        <time>2016-04-18T17:28:14Z</time>
      </trkpt>
      <trkpt lat="39.725955" lon="2.954619">
        <ele>239</ele>
        <time>2016-04-18T17:28:15Z</time>
      </trkpt>
      <trkpt lat="39.725978" lon="2.954504">
        <ele>238.2</ele>
        <time>2016-04-18T17:28:16Z</time>
      </trkpt>
      <trkpt lat="39.72599" lon="2.954387">
        <ele>237.2</ele>
        <time>2016-04-18T17:28:17Z</time>
      </trkpt>
      <trkpt lat="39.726015" lon="2.954263">
        <ele>236.4</ele>
        <time>2016-04-18T17:28:18Z</time>
      </trkpt>
      <trkpt lat="39.726029" lon="2.954133">
        <ele>235.6</ele>
        <time>2016-04-18T17:28:19Z</time>
      </trkpt>
      <trkpt lat="39.726041" lon="2.954003">
        <ele>234.6</ele>
        <time>2016-04-18T17:28:20Z</time>
      </trkpt>
      <trkpt lat="39.726046" lon="2.953882">
        <ele>233.6</ele>
        <time>2016-04-18T17:28:21Z</time>
      </trkpt>
      <trkpt lat="39.72605" lon="2.953766">
        <ele>232.6</ele>
        <time>2016-04-18T17:28:22Z</time>
      </trkpt>
      <trkpt lat="39.726041" lon="2.953647">
        <ele>231.8</ele>
        <time>2016-04-18T17:28:23Z</time>
      </trkpt>
      <trkpt lat="39.726031" lon="2.953537">
        <ele>230.8</ele>
        <time>2016-04-18T17:28:24Z</time>
      </trkpt>
      <trkpt lat="39.726006" lon="2.953415">
        <ele>230</ele>
        <time>2016-04-18T17:28:25Z</time>
      </trkpt>
      <trkpt lat="39.725983" lon="2.953302">
        <ele>229.2</ele>
        <time>2016-04-18T17:28:26Z</time>
      </trkpt>
      <trkpt lat="39.725968" lon="2.9532">
        <ele>228.6</ele>
        <time>2016-04-18T17:28:27Z</time>
      </trkpt>
      <trkpt lat="39.725966" lon="2.953107">
        <ele>228</ele>
        <time>2016-04-18T17:28:28Z</time>
      </trkpt>
      <trkpt lat="39.725968" lon="2.95303">
        <ele>227.4</ele>
        <time>2016-04-18T17:28:29Z</time>
      </trkpt>
      <trkpt lat="39.725972" lon="2.952963">
        <ele>226.2</ele>
        <time>2016-04-18T17:28:30Z</time>
      </trkpt>
      <trkpt lat="39.725968" lon="2.952894">
        <ele>225.8</ele>
        <time>2016-04-18T17:28:31Z</time>
      </trkpt>
      <trkpt lat="39.725913" lon="2.952886">
        <ele>225.4</ele>
        <time>2016-04-18T17:28:32Z</time>
      </trkpt>
      <trkpt lat="39.72589" lon="2.952901">
        <ele>224.8</ele>
        <time>2016-04-18T17:28:33Z</time>
      </trkpt>
      <trkpt lat="39.725869" lon="2.952991">
        <ele>224.4</ele>
        <time>2016-04-18T17:28:34Z</time>
      </trkpt>
      <trkpt lat="39.725851" lon="2.953063">
        <ele>223.8</ele>
        <time>2016-04-18T17:28:35Z</time>
      </trkpt>
      <trkpt lat="39.725842" lon="2.953142">
        <ele>223.2</ele>
        <time>2016-04-18T17:28:36Z</time>
      </trkpt>
      <trkpt lat="39.725834" lon="2.953224">
        <ele>222.6</ele>
        <time>2016-04-18T17:28:37Z</time>
      </trkpt>
      <trkpt lat="39.725838" lon="2.953287">
        <ele>222</ele>
        <time>2016-04-18T17:28:38Z</time>
      </trkpt>
      <trkpt lat="39.725834" lon="2.953344">
        <ele>221.6</ele>
        <time>2016-04-18T17:28:39Z</time>
      </trkpt>
      <trkpt lat="39.725729" lon="2.953305">
        <ele>221.6</ele>
        <time>2016-04-18T17:28:41Z</time>
      </trkpt>
      <trkpt lat="39.725717" lon="2.953244">
        <ele>221</ele>
        <time>2016-04-18T17:28:42Z</time>
      </trkpt>
      <trkpt lat="39.725735" lon="2.953169">
        <ele>220.6</ele>
        <time>2016-04-18T17:28:43Z</time>
      </trkpt>
      <trkpt lat="39.725727" lon="2.953096">
        <ele>220.2</ele>
        <time>2016-04-18T17:28:44Z</time>
      </trkpt>
      <trkpt lat="39.72571" lon="2.953">
        <ele>219.4</ele>
        <time>2016-04-18T17:28:45Z</time>
      </trkpt>
      <trkpt lat="39.725698" lon="2.952896">
        <ele>218.6</ele>
        <time>2016-04-18T17:28:46Z</time>
      </trkpt>
      <trkpt lat="39.725699" lon="2.952783">
        <ele>217.8</ele>
        <time>2016-04-18T17:28:47Z</time>
      </trkpt>
      <trkpt lat="39.725716" lon="2.95269">
        <ele>217</ele>
        <time>2016-04-18T17:28:48Z</time>
      </trkpt>
      <trkpt lat="39.725737" lon="2.952612">
        <ele>216.2</ele>
        <time>2016-04-18T17:28:49Z</time>
      </trkpt>
      <trkpt lat="39.725764" lon="2.952542">
        <ele>215.4</ele>
        <time>2016-04-18T17:28:50Z</time>
      </trkpt>
      <trkpt lat="39.725751" lon="2.952471">
        <ele>214.6</ele>
        <time>2016-04-18T17:28:51Z</time>
      </trkpt>
      <trkpt lat="39.72569" lon="2.952446">
        <ele>213.8</ele>
        <time>2016-04-18T17:28:52Z</time>
      </trkpt>
      <trkpt lat="39.725606" lon="2.952579">
        <ele>213.8</ele>
        <time>2016-04-18T17:28:54Z</time>
      </trkpt>
      <trkpt lat="39.7256" lon="2.95266">
        <ele>212.8</ele>
        <time>2016-04-18T17:28:55Z</time>
      </trkpt>
      <trkpt lat="39.725574" lon="2.952736">
        <ele>212.4</ele>
        <time>2016-04-18T17:28:56Z</time>
      </trkpt>
      <trkpt lat="39.725564" lon="2.952821">
        <ele>212</ele>
        <time>2016-04-18T17:28:57Z</time>
      </trkpt>
      <trkpt lat="39.725572" lon="2.952906">
        <ele>211.4</ele>
        <time>2016-04-18T17:28:58Z</time>
      </trkpt>
      <trkpt lat="39.72557" lon="2.952968">
        <ele>210.8</ele>
        <time>2016-04-18T17:28:59Z</time>
      </trkpt>
      <trkpt lat="39.725519" lon="2.953003">
        <ele>210.2</ele>
        <time>2016-04-18T17:29:00Z</time>
      </trkpt>
      <trkpt lat="39.725461" lon="2.952951">
        <ele>209.8</ele>
        <time>2016-04-18T17:29:01Z</time>
      </trkpt>
      <trkpt lat="39.725452" lon="2.95288">
        <ele>209.2</ele>
        <time>2016-04-18T17:29:02Z</time>
      </trkpt>
      <trkpt lat="39.72547" lon="2.952693">
        <ele>208.6</ele>
        <time>2016-04-18T17:29:04Z</time>
      </trkpt>
      <trkpt lat="39.725468" lon="2.952597">
        <ele>208.2</ele>
        <time>2016-04-18T17:29:05Z</time>
      </trkpt>
      <trkpt lat="39.725473" lon="2.952489">
        <ele>207.6</ele>
        <time>2016-04-18T17:29:06Z</time>
      </trkpt>
      <trkpt lat="39.725505" lon="2.95238">
        <ele>206.8</ele>
        <time>2016-04-18T17:29:07Z</time>
      </trkpt>
      <trkpt lat="39.725544" lon="2.952299">
        <ele>206.2</ele>
        <time>2016-04-18T17:29:08Z</time>
      </trkpt>
      <trkpt lat="39.725549" lon="2.952227">
        <ele>205.6</ele>
        <time>2016-04-18T17:29:09Z</time>
      </trkpt>
      <trkpt lat="39.725509" lon="2.952182">
        <ele>204.8</ele>
        <time>2016-04-18T17:29:10Z</time>
      </trkpt>
      <trkpt lat="39.725432" lon="2.952192">
        <ele>204.8</ele>
        <time>2016-04-18T17:29:12Z</time>
      </trkpt>
      <trkpt lat="39.725397" lon="2.952202">
        <ele>204.4</ele>
        <time>2016-04-18T17:29:13Z</time>
      </trkpt>
      <trkpt lat="39.725367" lon="2.952218">
        <ele>203.8</ele>
        <time>2016-04-18T17:29:14Z</time>
      </trkpt>
      <trkpt lat="39.725349" lon="2.952281">
        <ele>203</ele>
        <time>2016-04-18T17:29:15Z</time>
      </trkpt>
      <trkpt lat="39.72533" lon="2.952354">
        <ele>202.4</ele>
        <time>2016-04-18T17:29:16Z</time>
      </trkpt>
      <trkpt lat="39.725298" lon="2.952566">
        <ele>201.4</ele>
        <time>2016-04-18T17:29:17Z</time>
      </trkpt>
      <trkpt lat="39.725265" lon="2.952778">
        <ele>200.4</ele>
        <time>2016-04-18T17:29:18Z</time>
      </trkpt>
      <trkpt lat="39.725248" lon="2.952914">
        <ele>199.4</ele>
        <time>2016-04-18T17:29:19Z</time>
      </trkpt>
      <trkpt lat="39.725238" lon="2.953061">
        <ele>197</ele>
        <time>2016-04-18T17:29:20Z</time>
      </trkpt>
      <trkpt lat="39.725237" lon="2.953202">
        <ele>196</ele>
        <time>2016-04-18T17:29:21Z</time>
      </trkpt>
      <trkpt lat="39.725252" lon="2.953319">
        <ele>194.8</ele>
        <time>2016-04-18T17:29:22Z</time>
      </trkpt>
      <trkpt lat="39.725284" lon="2.95342">
        <ele>193.8</ele>
        <time>2016-04-18T17:29:23Z</time>
      </trkpt>
      <trkpt lat="39.725294" lon="2.953513">
        <ele>192.6</ele>
        <time>2016-04-18T17:29:24Z</time>
      </trkpt>
      <trkpt lat="39.725302" lon="2.953612">
        <ele>192.6</ele>
        <time>2016-04-18T17:29:25Z</time>
      </trkpt>
      <trkpt lat="39.725324" lon="2.953773">
        <ele>192.6</ele>
        <time>2016-04-18T17:29:27Z</time>
      </trkpt>
      <trkpt lat="39.725273" lon="2.953815">
        <ele>192.6</ele>
        <time>2016-04-18T17:29:28Z</time>
      </trkpt>
      <trkpt lat="39.7252" lon="2.953745">
        <ele>192.6</ele>
        <time>2016-04-18T17:29:30Z</time>
      </trkpt>
      <trkpt lat="39.725202" lon="2.953663">
        <ele>192.2</ele>
        <time>2016-04-18T17:29:31Z</time>
      </trkpt>
      <trkpt lat="39.725189" lon="2.953583">
        <ele>191.8</ele>
        <time>2016-04-18T17:29:32Z</time>
      </trkpt>
      <trkpt lat="39.725162" lon="2.953489">
        <ele>191</ele>
        <time>2016-04-18T17:29:33Z</time>
      </trkpt>
      <trkpt lat="39.725127" lon="2.953403">
        <ele>190.2</ele>
        <time>2016-04-18T17:29:34Z</time>
      </trkpt>
      <trkpt lat="39.725083" lon="2.953311">
        <ele>189.4</ele>
        <time>2016-04-18T17:29:35Z</time>
      </trkpt>
      <trkpt lat="39.725043" lon="2.953209">
        <ele>188.6</ele>
        <time>2016-04-18T17:29:36Z</time>
      </trkpt>
      <trkpt lat="39.725013" lon="2.953095">
        <ele>187.6</ele>
        <time>2016-04-18T17:29:37Z</time>
      </trkpt>
      <trkpt lat="39.724989" lon="2.952977">
        <ele>186.6</ele>
        <time>2016-04-18T17:29:38Z</time>
      </trkpt>
      <trkpt lat="39.724976" lon="2.952851">
        <ele>185.4</ele>
        <time>2016-04-18T17:29:39Z</time>
      </trkpt>
      <trkpt lat="39.72496" lon="2.952705">
        <ele>184.4</ele>
        <time>2016-04-18T17:29:40Z</time>
      </trkpt>
      <trkpt lat="39.724957" lon="2.952559">
        <ele>183.2</ele>
        <time>2016-04-18T17:29:41Z</time>
      </trkpt>
      <trkpt lat="39.72496" lon="2.952415">
        <ele>182.2</ele>
        <time>2016-04-18T17:29:42Z</time>
      </trkpt>
      <trkpt lat="39.724973" lon="2.952288">
        <ele>181.2</ele>
        <time>2016-04-18T17:29:43Z</time>
      </trkpt>
      <trkpt lat="39.724981" lon="2.952168">
        <ele>180.4</ele>
        <time>2016-04-18T17:29:44Z</time>
      </trkpt>
      <trkpt lat="39.724969" lon="2.952053">
        <ele>178.6</ele>
        <time>2016-04-18T17:29:45Z</time>
      </trkpt>
      <trkpt lat="39.72498" lon="2.951941">
        <ele>178</ele>
        <time>2016-04-18T17:29:46Z</time>
      </trkpt>
      <trkpt lat="39.725" lon="2.951856">
        <ele>177.4</ele>
        <time>2016-04-18T17:29:47Z</time>
      </trkpt>
      <trkpt lat="39.725022" lon="2.951782">
        <ele>176.8</ele>
        <time>2016-04-18T17:29:48Z</time>
      </trkpt>
      <trkpt lat="39.725039" lon="2.951706">
        <ele>176.2</ele>
        <time>2016-04-18T17:29:49Z</time>
      </trkpt>
      <trkpt lat="39.725032" lon="2.951644">
        <ele>175.6</ele>
        <time>2016-04-18T17:29:50Z</time>
      </trkpt>
      <trkpt lat="39.724992" lon="2.951617">
        <ele>175.6</ele>
        <time>2016-04-18T17:29:51Z</time>
      </trkpt>
      <trkpt lat="39.724897" lon="2.951793">
        <ele>174.8</ele>
        <time>2016-04-18T17:29:53Z</time>
      </trkpt>
      <trkpt lat="39.724887" lon="2.951836">
        <ele>174.8</ele>
        <time>2016-04-18T17:29:54Z</time>
      </trkpt>
      <trkpt lat="39.724876" lon="2.951879">
        <ele>174.2</ele>
        <time>2016-04-18T17:29:55Z</time>
      </trkpt>
      <trkpt lat="39.724855" lon="2.951979">
        <ele>173.8</ele>
        <time>2016-04-18T17:29:56Z</time>
      </trkpt>
      <trkpt lat="39.724838" lon="2.95207">
        <ele>173.2</ele>
        <time>2016-04-18T17:29:57Z</time>
      </trkpt>
      <trkpt lat="39.724805" lon="2.952161">
        <ele>172.4</ele>
        <time>2016-04-18T17:29:58Z</time>
      </trkpt>
      <trkpt lat="39.724768" lon="2.952252">
        <ele>171.8</ele>
        <time>2016-04-18T17:29:59Z</time>
      </trkpt>
      <trkpt lat="39.724732" lon="2.95235">
        <ele>171</ele>
        <time>2016-04-18T17:30:00Z</time>
      </trkpt>
      <trkpt lat="39.724709" lon="2.952447">
        <ele>170.4</ele>
        <time>2016-04-18T17:30:01Z</time>
      </trkpt>
      <trkpt lat="39.724688" lon="2.952537">
        <ele>169.8</ele>
        <time>2016-04-18T17:30:02Z</time>
      </trkpt>
      <trkpt lat="39.724662" lon="2.952605">
        <ele>169.2</ele>
        <time>2016-04-18T17:30:03Z</time>
      </trkpt>
      <trkpt lat="39.72463" lon="2.952649">
        <ele>168.6</ele>
        <time>2016-04-18T17:30:04Z</time>
      </trkpt>
      <trkpt lat="39.724585" lon="2.952646">
        <ele>168</ele>
        <time>2016-04-18T17:30:05Z</time>
      </trkpt>
      <trkpt lat="39.724545" lon="2.952488">
        <ele>168</ele>
        <time>2016-04-18T17:30:07Z</time>
      </trkpt>
      <trkpt lat="39.724566" lon="2.952304">
        <ele>167</ele>
        <time>2016-04-18T17:30:09Z</time>
      </trkpt>
      <trkpt lat="39.72457" lon="2.9522">
        <ele>166.4</ele>
        <time>2016-04-18T17:30:10Z</time>
      </trkpt>
      <trkpt lat="39.724574" lon="2.9521">
        <ele>165.6</ele>
        <time>2016-04-18T17:30:11Z</time>
      </trkpt>
      <trkpt lat="39.724571" lon="2.951987">
        <ele>165</ele>
        <time>2016-04-18T17:30:12Z</time>
      </trkpt>
      <trkpt lat="39.724576" lon="2.951874">
        <ele>164.2</ele>
        <time>2016-04-18T17:30:13Z</time>
      </trkpt>
      <trkpt lat="39.724578" lon="2.951756">
        <ele>163.2</ele>
        <time>2016-04-18T17:30:14Z</time>
      </trkpt>
      <trkpt lat="39.724578" lon="2.95163">
        <ele>162.4</ele>
        <time>2016-04-18T17:30:15Z</time>
      </trkpt>
      <trkpt lat="39.724593" lon="2.951508">
        <ele>161.6</ele>
        <time>2016-04-18T17:30:16Z</time>
      </trkpt>
      <trkpt lat="39.724621" lon="2.951407">
        <ele>160.6</ele>
        <time>2016-04-18T17:30:17Z</time>
      </trkpt>
      <trkpt lat="39.724706" lon="2.951324">
        <ele>160.2</ele>
        <time>2016-04-18T17:30:18Z</time>
      </trkpt>
      <trkpt lat="39.724782" lon="2.951255">
        <ele>159.8</ele>
        <time>2016-04-18T17:30:19Z</time>
      </trkpt>
      <trkpt lat="39.724865" lon="2.951192">
        <ele>159.4</ele>
        <time>2016-04-18T17:30:20Z</time>
      </trkpt>
      <trkpt lat="39.724934" lon="2.951116">
        <ele>158.6</ele>
        <time>2016-04-18T17:30:21Z</time>
      </trkpt>
      <trkpt lat="39.725002" lon="2.95103">
        <ele>158</ele>
        <time>2016-04-18T17:30:22Z</time>
      </trkpt>
      <trkpt lat="39.725062" lon="2.95094">
        <ele>157.2</ele>
        <time>2016-04-18T17:30:23Z</time>
      </trkpt>
      <trkpt lat="39.725117" lon="2.950857">
        <ele>156.6</ele>
        <time>2016-04-18T17:30:24Z</time>
      </trkpt>
      <trkpt lat="39.72517" lon="2.950753">
        <ele>155.8</ele>
        <time>2016-04-18T17:30:25Z</time>
      </trkpt>
      <trkpt lat="39.725214" lon="2.950658">
        <ele>155.4</ele>
        <time>2016-04-18T17:30:26Z</time>
      </trkpt>
      <trkpt lat="39.72524" lon="2.950546">
        <ele>155</ele>
        <time>2016-04-18T17:30:27Z</time>
      </trkpt>
      <trkpt lat="39.725244" lon="2.950425">
        <ele>154.6</ele>
        <time>2016-04-18T17:30:28Z</time>
      </trkpt>
      <trkpt lat="39.725217" lon="2.9503">
        <ele>154.2</ele>
        <time>2016-04-18T17:30:29Z</time>
      </trkpt>
      <trkpt lat="39.725186" lon="2.950177">
        <ele>153.6</ele>
        <time>2016-04-18T17:30:30Z</time>
      </trkpt>
      <trkpt lat="39.725154" lon="2.95006">
        <ele>152.8</ele>
        <time>2016-04-18T17:30:31Z</time>
      </trkpt>
      <trkpt lat="39.725125" lon="2.949954">
        <ele>152</ele>
        <time>2016-04-18T17:30:32Z</time>
      </trkpt>
      <trkpt lat="39.7251" lon="2.94986">
        <ele>150.4</ele>
        <time>2016-04-18T17:30:33Z</time>
      </trkpt>
      <trkpt lat="39.725076" lon="2.949772">
        <ele>149.6</ele>
        <time>2016-04-18T17:30:34Z</time>
      </trkpt>
      <trkpt lat="39.725055" lon="2.949685">
        <ele>149</ele>
        <time>2016-04-18T17:30:35Z</time>
      </trkpt>
      <trkpt lat="39.725071" lon="2.949592">
        <ele>148.2</ele>
        <time>2016-04-18T17:30:36Z</time>
      </trkpt>
      <trkpt lat="39.725112" lon="2.94951">
        <ele>147.4</ele>
        <time>2016-04-18T17:30:37Z</time>
      </trkpt>
      <trkpt lat="39.725179" lon="2.949449">
        <ele>146.6</ele>
        <time>2016-04-18T17:30:38Z</time>
      </trkpt>
      <trkpt lat="39.725259" lon="2.949407">
        <ele>145.6</ele>
        <time>2016-04-18T17:30:39Z</time>
      </trkpt>
      <trkpt lat="39.725341" lon="2.949356">
        <ele>144.8</ele>
        <time>2016-04-18T17:30:40Z</time>
      </trkpt>
      <trkpt lat="39.725435" lon="2.949299">
        <ele>143.8</ele>
        <time>2016-04-18T17:30:41Z</time>
      </trkpt>
      <trkpt lat="39.725525" lon="2.949241">
        <ele>143</ele>
        <time>2016-04-18T17:30:42Z</time>
      </trkpt>
      <trkpt lat="39.725616" lon="2.949182">
        <ele>142</ele>
        <time>2016-04-18T17:30:43Z</time>
      </trkpt>
      <trkpt lat="39.725721" lon="2.949117">
        <ele>141</ele>
        <time>2016-04-18T17:30:44Z</time>
      </trkpt>
      <trkpt lat="39.72583" lon="2.949052">
        <ele>140</ele>
        <time>2016-04-18T17:30:45Z</time>
      </trkpt>
      <trkpt lat="39.725924" lon="2.948993">
        <ele>138.8</ele>
        <time>2016-04-18T17:30:46Z</time>
      </trkpt>
      <trkpt lat="39.726016" lon="2.948938">
        <ele>137.4</ele>
        <time>2016-04-18T17:30:47Z</time>
      </trkpt>
      <trkpt lat="39.726111" lon="2.94888">
        <ele>136</ele>
        <time>2016-04-18T17:30:48Z</time>
      </trkpt>
      <trkpt lat="39.72621" lon="2.948824">
        <ele>134.8</ele>
        <time>2016-04-18T17:30:49Z</time>
      </trkpt>
      <trkpt lat="39.726311" lon="2.948775">
        <ele>133.8</ele>
        <time>2016-04-18T17:30:50Z</time>
      </trkpt>
      <trkpt lat="39.726416" lon="2.948712">
        <ele>132.8</ele>
        <time>2016-04-18T17:30:51Z</time>
      </trkpt>
      <trkpt lat="39.726528" lon="2.948647">
        <ele>131.6</ele>
        <time>2016-04-18T17:30:52Z</time>
      </trkpt>
      <trkpt lat="39.726637" lon="2.948571">
        <ele>130.4</ele>
        <time>2016-04-18T17:30:53Z</time>
      </trkpt>
      <trkpt lat="39.726738" lon="2.94849">
        <ele>129.2</ele>
        <time>2016-04-18T17:30:54Z</time>
      </trkpt>
      <trkpt lat="39.726836" lon="2.948398">
        <ele>127.8</ele>
        <time>2016-04-18T17:30:55Z</time>
      </trkpt>
      <trkpt lat="39.72693" lon="2.948294">
        <ele>126.4</ele>
        <time>2016-04-18T17:30:56Z</time>
      </trkpt>
      <trkpt lat="39.727018" lon="2.948185">
        <ele>125</ele>
        <time>2016-04-18T17:30:57Z</time>
      </trkpt>
      <trkpt lat="39.7271" lon="2.948079">
        <ele>122</ele>
        <time>2016-04-18T17:30:58Z</time>
      </trkpt>
      <trkpt lat="39.72718" lon="2.947978">
        <ele>121.4</ele>
        <time>2016-04-18T17:30:59Z</time>
      </trkpt>
      <trkpt lat="39.72726" lon="2.947874">
        <ele>120.6</ele>
        <time>2016-04-18T17:31:00Z</time>
      </trkpt>
      <trkpt lat="39.727331" lon="2.947781">
        <ele>119.8</ele>
        <time>2016-04-18T17:31:01Z</time>
      </trkpt>
      <trkpt lat="39.727401" lon="2.947681">
        <ele>119.2</ele>
        <time>2016-04-18T17:31:02Z</time>
      </trkpt>
      <trkpt lat="39.727484" lon="2.947578">
        <ele>118.4</ele>
        <time>2016-04-18T17:31:03Z</time>
      </trkpt>
      <trkpt lat="39.72757" lon="2.947474">
        <ele>117.6</ele>
        <time>2016-04-18T17:31:04Z</time>
      </trkpt>
      <trkpt lat="39.727642" lon="2.947378">
        <ele>116.8</ele>
        <time>2016-04-18T17:31:05Z</time>
      </trkpt>
      <trkpt lat="39.727718" lon="2.947272">
        <ele>116</ele>
        <time>2016-04-18T17:31:06Z</time>
      </trkpt>
      <trkpt lat="39.727796" lon="2.947168">
        <ele>115.4</ele>
        <time>2016-04-18T17:31:07Z</time>
      </trkpt>
      <trkpt lat="39.72787" lon="2.947072">
        <ele>114.6</ele>
        <time>2016-04-18T17:31:08Z</time>
      </trkpt>
      <trkpt lat="39.727941" lon="2.946977">
        <ele>113.8</ele>
        <time>2016-04-18T17:31:09Z</time>
      </trkpt>
      <trkpt lat="39.728013" lon="2.946879">
        <ele>113.4</ele>
        <time>2016-04-18T17:31:10Z</time>
      </trkpt>
      <trkpt lat="39.728087" lon="2.946774">
        <ele>112.8</ele>
        <time>2016-04-18T17:31:11Z</time>
      </trkpt>
      <trkpt lat="39.728161" lon="2.946675">
        <ele>112.4</ele>
        <time>2016-04-18T17:31:12Z</time>
      </trkpt>
      <trkpt lat="39.728235" lon="2.946579">
        <ele>111.8</ele>
        <time>2016-04-18T17:31:13Z</time>
      </trkpt>
      <trkpt lat="39.728311" lon="2.946483">
        <ele>111.4</ele>
        <time>2016-04-18T17:31:14Z</time>
      </trkpt>
      <trkpt lat="39.728385" lon="2.946387">
        <ele>110.8</ele>
        <time>2016-04-18T17:31:15Z</time>
      </trkpt>
      <trkpt lat="39.728464" lon="2.946287">
        <ele>110.2</ele>
        <time>2016-04-18T17:31:16Z</time>
      </trkpt>
      <trkpt lat="39.728551" lon="2.946178">
        <ele>109.8</ele>
        <time>2016-04-18T17:31:17Z</time>
      </trkpt>
      <trkpt lat="39.72862" lon="2.946088">
        <ele>109</ele>
        <time>2016-04-18T17:31:18Z</time>
      </trkpt>
      <trkpt lat="39.728698" lon="2.945983">
        <ele>108.4</ele>
        <time>2016-04-18T17:31:19Z</time>
      </trkpt>
      <trkpt lat="39.728772" lon="2.945884">
        <ele>107.8</ele>
        <time>2016-04-18T17:31:20Z</time>
      </trkpt>
      <trkpt lat="39.728841" lon="2.945788">
        <ele>107.2</ele>
        <time>2016-04-18T17:31:21Z</time>
      </trkpt>
      <trkpt lat="39.728909" lon="2.945697">
        <ele>106</ele>
        <time>2016-04-18T17:31:22Z</time>
      </trkpt>
      <trkpt lat="39.728982" lon="2.945601">
        <ele>105.4</ele>
        <time>2016-04-18T17:31:23Z</time>
      </trkpt>
      <trkpt lat="39.729046" lon="2.945517">
        <ele>104.8</ele>
        <time>2016-04-18T17:31:24Z</time>
      </trkpt>
      <trkpt lat="39.729111" lon="2.945426">
        <ele>104.4</ele>
        <time>2016-04-18T17:31:25Z</time>
      </trkpt>
      <trkpt lat="39.729231" lon="2.945279">
        <ele>104.4</ele>
        <time>2016-04-18T17:31:27Z</time>
      </trkpt>
      <trkpt lat="39.729492" lon="2.944922">
        <ele>104.4</ele>
        <time>2016-04-18T17:31:32Z</time>
      </trkpt>
      <trkpt lat="39.72955" lon="2.944853">
        <ele>103.8</ele>
        <time>2016-04-18T17:31:33Z</time>
      </trkpt>
      <trkpt lat="39.729606" lon="2.944775">
        <ele>103.2</ele>
        <time>2016-04-18T17:31:34Z</time>
      </trkpt>
      <trkpt lat="39.729661" lon="2.944707">
        <ele>102.8</ele>
        <time>2016-04-18T17:31:35Z</time>
      </trkpt>
      <trkpt lat="39.72971" lon="2.94465">
        <ele>102.2</ele>
        <time>2016-04-18T17:31:36Z</time>
      </trkpt>
      <trkpt lat="39.729752" lon="2.944597">
        <ele>101.6</ele>
        <time>2016-04-18T17:31:37Z</time>
      </trkpt>
      <trkpt lat="39.729848" lon="2.944452">
        <ele>101.6</ele>
        <time>2016-04-18T17:31:40Z</time>
      </trkpt>
      <trkpt lat="39.729861" lon="2.944389">
        <ele>101.6</ele>
        <time>2016-04-18T17:31:43Z</time>
      </trkpt>
      <trkpt lat="39.729952" lon="2.944359">
        <ele>101.6</ele>
        <time>2016-04-18T17:32:16Z</time>
      </trkpt>
      <trkpt lat="39.729976" lon="2.944385">
        <ele>101.6</ele>
        <time>2016-04-18T17:32:17Z</time>
      </trkpt>
      <trkpt lat="39.73004" lon="2.944462">
        <ele>101.2</ele>
        <time>2016-04-18T17:32:19Z</time>
      </trkpt>
      <trkpt lat="39.730084" lon="2.944509">
        <ele>100.8</ele>
        <time>2016-04-18T17:32:20Z</time>
      </trkpt>
      <trkpt lat="39.730123" lon="2.944552">
        <ele>100.4</ele>
        <time>2016-04-18T17:32:21Z</time>
      </trkpt>
      <trkpt lat="39.730165" lon="2.944597">
        <ele>99.8</ele>
        <time>2016-04-18T17:32:22Z</time>
      </trkpt>
      <trkpt lat="39.730201" lon="2.944647">
        <ele>99.4</ele>
        <time>2016-04-18T17:32:23Z</time>
      </trkpt>
      <trkpt lat="39.730345" lon="2.944849">
        <ele>99.4</ele>
        <time>2016-04-18T17:32:27Z</time>
      </trkpt>
      <trkpt lat="39.730526" lon="2.945099">
        <ele>99.4</ele>
        <time>2016-04-18T17:32:32Z</time>
      </trkpt>
      <trkpt lat="39.730598" lon="2.945191">
        <ele>99</ele>
        <time>2016-04-18T17:32:34Z</time>
      </trkpt>
      <trkpt lat="39.730632" lon="2.945243">
        <ele>98.6</ele>
        <time>2016-04-18T17:32:35Z</time>
      </trkpt>
      <trkpt lat="39.730672" lon="2.9453">
        <ele>98.2</ele>
        <time>2016-04-18T17:32:36Z</time>
      </trkpt>
      <trkpt lat="39.730717" lon="2.945361">
        <ele>97.8</ele>
        <time>2016-04-18T17:32:37Z</time>
      </trkpt>
      <trkpt lat="39.730759" lon="2.945419">
        <ele>97.4</ele>
        <time>2016-04-18T17:32:38Z</time>
      </trkpt>
      <trkpt lat="39.7308" lon="2.945473">
        <ele>97.4</ele>
        <time>2016-04-18T17:32:39Z</time>
      </trkpt>
      <trkpt lat="39.730886" lon="2.945573">
        <ele>97.4</ele>
        <time>2016-04-18T17:32:41Z</time>
      </trkpt>
      <trkpt lat="39.731004" lon="2.945726">
        <ele>97.4</ele>
        <time>2016-04-18T17:32:44Z</time>
      </trkpt>
      <trkpt lat="39.731251" lon="2.946054">
        <ele>97.4</ele>
        <time>2016-04-18T17:32:50Z</time>
      </trkpt>
      <trkpt lat="39.731488" lon="2.946361">
        <ele>97.4</ele>
        <time>2016-04-18T17:32:55Z</time>
      </trkpt>
      <trkpt lat="39.73179" lon="2.946731">
        <ele>97.4</ele>
        <time>2016-04-18T17:33:01Z</time>
      </trkpt>
      <trkpt lat="39.732166" lon="2.947183">
        <ele>97.4</ele>
        <time>2016-04-18T17:33:08Z</time>
      </trkpt>
      <trkpt lat="39.732279" lon="2.94731">
        <ele>96.8</ele>
        <time>2016-04-18T17:33:10Z</time>
      </trkpt>
      <trkpt lat="39.73234" lon="2.947368">
        <ele>96.4</ele>
        <time>2016-04-18T17:33:11Z</time>
      </trkpt>
      <trkpt lat="39.732398" lon="2.947428">
        <ele>95.8</ele>
        <time>2016-04-18T17:33:12Z</time>
      </trkpt>
      <trkpt lat="39.732457" lon="2.94749">
        <ele>95.2</ele>
        <time>2016-04-18T17:33:13Z</time>
      </trkpt>
      <trkpt lat="39.732518" lon="2.947551">
        <ele>94.8</ele>
        <time>2016-04-18T17:33:14Z</time>
      </trkpt>
      <trkpt lat="39.732822" lon="2.947844">
        <ele>94.8</ele>
        <time>2016-04-18T17:33:19Z</time>
      </trkpt>
      <trkpt lat="39.732887" lon="2.947895">
        <ele>94.8</ele>
        <time>2016-04-18T17:33:20Z</time>
      </trkpt>
      <trkpt lat="39.733175" lon="2.948112">
        <ele>94.4</ele>
        <time>2016-04-18T17:33:24Z</time>
      </trkpt>
      <trkpt lat="39.733243" lon="2.948167">
        <ele>94</ele>
        <time>2016-04-18T17:33:25Z</time>
      </trkpt>
      <trkpt lat="39.733315" lon="2.94822">
        <ele>93.2</ele>
        <time>2016-04-18T17:33:26Z</time>
      </trkpt>
      <trkpt lat="39.733389" lon="2.948276">
        <ele>92.6</ele>
        <time>2016-04-18T17:33:27Z</time>
      </trkpt>
      <trkpt lat="39.733459" lon="2.948331">
        <ele>92</ele>
        <time>2016-04-18T17:33:28Z</time>
      </trkpt>
      <trkpt lat="39.733527" lon="2.948386">
        <ele>91.2</ele>
        <time>2016-04-18T17:33:29Z</time>
      </trkpt>
      <trkpt lat="39.733597" lon="2.948443">
        <ele>90.6</ele>
        <time>2016-04-18T17:33:30Z</time>
      </trkpt>
      <trkpt lat="39.733876" lon="2.94868">
        <ele>90.6</ele>
        <time>2016-04-18T17:33:34Z</time>
      </trkpt>
      <trkpt lat="39.734163" lon="2.948926">
        <ele>90.2</ele>
        <time>2016-04-18T17:33:38Z</time>
      </trkpt>
      <trkpt lat="39.734237" lon="2.948993">
        <ele>89.6</ele>
        <time>2016-04-18T17:33:39Z</time>
      </trkpt>
      <trkpt lat="39.734309" lon="2.949056">
        <ele>89.2</ele>
        <time>2016-04-18T17:33:40Z</time>
      </trkpt>
      <trkpt lat="39.734381" lon="2.949121">
        <ele>88.8</ele>
        <time>2016-04-18T17:33:41Z</time>
      </trkpt>
      <trkpt lat="39.734456" lon="2.949191">
        <ele>88.4</ele>
        <time>2016-04-18T17:33:42Z</time>
      </trkpt>
      <trkpt lat="39.734605" lon="2.949331">
        <ele>88</ele>
        <time>2016-04-18T17:33:44Z</time>
      </trkpt>
      <trkpt lat="39.73468" lon="2.949403">
        <ele>87.6</ele>
        <time>2016-04-18T17:33:45Z</time>
      </trkpt>
      <trkpt lat="39.734757" lon="2.949484">
        <ele>86.8</ele>
        <time>2016-04-18T17:33:46Z</time>
      </trkpt>
      <trkpt lat="39.734829" lon="2.949565">
        <ele>86.4</ele>
        <time>2016-04-18T17:33:47Z</time>
      </trkpt>
      <trkpt lat="39.734963" lon="2.94972">
        <ele>86.4</ele>
        <time>2016-04-18T17:33:49Z</time>
      </trkpt>
      <trkpt lat="39.735023" lon="2.949804">
        <ele>86.4</ele>
        <time>2016-04-18T17:33:50Z</time>
      </trkpt>
      <trkpt lat="39.735122" lon="2.949993">
        <ele>86.4</ele>
        <time>2016-04-18T17:33:52Z</time>
      </trkpt>
      <trkpt lat="39.735292" lon="2.950353">
        <ele>86</ele>
        <time>2016-04-18T17:33:56Z</time>
      </trkpt>
      <trkpt lat="39.735333" lon="2.950436">
        <ele>85.4</ele>
        <time>2016-04-18T17:33:57Z</time>
      </trkpt>
      <trkpt lat="39.735381" lon="2.950531">
        <ele>85</ele>
        <time>2016-04-18T17:33:58Z</time>
      </trkpt>
      <trkpt lat="39.735424" lon="2.95062">
        <ele>84.6</ele>
        <time>2016-04-18T17:33:59Z</time>
      </trkpt>
      <trkpt lat="39.735464" lon="2.950711">
        <ele>84.2</ele>
        <time>2016-04-18T17:34:00Z</time>
      </trkpt>
      <trkpt lat="39.735629" lon="2.951063">
        <ele>84.2</ele>
        <time>2016-04-18T17:34:04Z</time>
      </trkpt>
      <trkpt lat="39.735916" lon="2.951685">
        <ele>84.2</ele>
        <time>2016-04-18T17:34:11Z</time>
      </trkpt>
      <trkpt lat="39.735962" lon="2.951767">
        <ele>84.2</ele>
        <time>2016-04-18T17:34:12Z</time>
      </trkpt>
      <trkpt lat="39.736159" lon="2.952063">
        <ele>83.8</ele>
        <time>2016-04-18T17:34:16Z</time>
      </trkpt>
      <trkpt lat="39.736209" lon="2.952129">
        <ele>83.4</ele>
        <time>2016-04-18T17:34:17Z</time>
      </trkpt>
      <trkpt lat="39.73626" lon="2.952201">
        <ele>83</ele>
        <time>2016-04-18T17:34:18Z</time>
      </trkpt>
      <trkpt lat="39.736309" lon="2.952272">
        <ele>82.6</ele>
        <time>2016-04-18T17:34:19Z</time>
      </trkpt>
      <trkpt lat="39.736356" lon="2.952342">
        <ele>82.2</ele>
        <time>2016-04-18T17:34:20Z</time>
      </trkpt>
      <trkpt lat="39.736611" lon="2.952713">
        <ele>82.2</ele>
        <time>2016-04-18T17:34:25Z</time>
      </trkpt>
      <trkpt lat="39.736766" lon="2.952938">
        <ele>81.6</ele>
        <time>2016-04-18T17:34:28Z</time>
      </trkpt>
      <trkpt lat="39.73682" lon="2.953016">
        <ele>81.2</ele>
        <time>2016-04-18T17:34:29Z</time>
      </trkpt>
      <trkpt lat="39.736874" lon="2.953095">
        <ele>80.8</ele>
        <time>2016-04-18T17:34:30Z</time>
      </trkpt>
      <trkpt lat="39.736928" lon="2.953176">
        <ele>80.4</ele>
        <time>2016-04-18T17:34:31Z</time>
      </trkpt>
      <trkpt lat="39.736983" lon="2.953256">
        <ele>79.8</ele>
        <time>2016-04-18T17:34:32Z</time>
      </trkpt>
      <trkpt lat="39.737351" lon="2.953828">
        <ele>79.8</ele>
        <time>2016-04-18T17:34:39Z</time>
      </trkpt>
      <trkpt lat="39.737713" lon="2.954432">
        <ele>79.4</ele>
        <time>2016-04-18T17:34:46Z</time>
      </trkpt>
      <trkpt lat="39.737765" lon="2.954518">
        <ele>79</ele>
        <time>2016-04-18T17:34:47Z</time>
      </trkpt>
      <trkpt lat="39.737812" lon="2.954603">
        <ele>78.6</ele>
        <time>2016-04-18T17:34:48Z</time>
      </trkpt>
      <trkpt lat="39.737863" lon="2.954695">
        <ele>78.2</ele>
        <time>2016-04-18T17:34:49Z</time>
      </trkpt>
      <trkpt lat="39.737917" lon="2.954782">
        <ele>77.6</ele>
        <time>2016-04-18T17:34:50Z</time>
      </trkpt>
      <trkpt lat="39.738185" lon="2.955226">
        <ele>77.6</ele>
        <time>2016-04-18T17:34:55Z</time>
      </trkpt>
      <trkpt lat="39.738291" lon="2.9554">
        <ele>77.2</ele>
        <time>2016-04-18T17:34:57Z</time>
      </trkpt>
      <trkpt lat="39.738343" lon="2.955489">
        <ele>76.6</ele>
        <time>2016-04-18T17:34:58Z</time>
      </trkpt>
      <trkpt lat="39.738395" lon="2.955575">
        <ele>76</ele>
        <time>2016-04-18T17:34:59Z</time>
      </trkpt>
      <trkpt lat="39.738447" lon="2.955663">
        <ele>75.6</ele>
        <time>2016-04-18T17:35:00Z</time>
      </trkpt>
      <trkpt lat="39.738501" lon="2.955752">
        <ele>75</ele>
        <time>2016-04-18T17:35:01Z</time>
      </trkpt>
      <trkpt lat="39.738607" lon="2.955934">
        <ele>75</ele>
        <time>2016-04-18T17:35:03Z</time>
      </trkpt>
      <trkpt lat="39.739002" lon="2.956546">
        <ele>75</ele>
        <time>2016-04-18T17:35:10Z</time>
      </trkpt>
      <trkpt lat="39.73906" lon="2.956626">
        <ele>75</ele>
        <time>2016-04-18T17:35:11Z</time>
      </trkpt>
      <trkpt lat="39.739409" lon="2.957131">
        <ele>74.6</ele>
        <time>2016-04-18T17:35:17Z</time>
      </trkpt>
      <trkpt lat="39.739473" lon="2.95722">
        <ele>74.2</ele>
        <time>2016-04-18T17:35:18Z</time>
      </trkpt>
      <trkpt lat="39.739532" lon="2.957303">
        <ele>73.8</ele>
        <time>2016-04-18T17:35:19Z</time>
      </trkpt>
      <trkpt lat="39.739593" lon="2.957386">
        <ele>73.4</ele>
        <time>2016-04-18T17:35:20Z</time>
      </trkpt>
      <trkpt lat="39.73965" lon="2.957469">
        <ele>73</ele>
        <time>2016-04-18T17:35:21Z</time>
      </trkpt>
      <trkpt lat="39.739931" lon="2.957878">
        <ele>73</ele>
        <time>2016-04-18T17:35:26Z</time>
      </trkpt>
      <trkpt lat="39.740326" lon="2.958462">
        <ele>73</ele>
        <time>2016-04-18T17:35:33Z</time>
      </trkpt>
      <trkpt lat="39.740446" lon="2.958633">
        <ele>73</ele>
        <time>2016-04-18T17:35:35Z</time>
      </trkpt>
      <trkpt lat="39.740621" lon="2.95889">
        <ele>72.4</ele>
        <time>2016-04-18T17:35:38Z</time>
      </trkpt>
      <trkpt lat="39.740679" lon="2.958977">
        <ele>72</ele>
        <time>2016-04-18T17:35:39Z</time>
      </trkpt>
      <trkpt lat="39.740738" lon="2.959061">
        <ele>71.6</ele>
        <time>2016-04-18T17:35:40Z</time>
      </trkpt>
      <trkpt lat="39.740798" lon="2.959151">
        <ele>71.2</ele>
        <time>2016-04-18T17:35:41Z</time>
      </trkpt>
      <trkpt lat="39.740855" lon="2.95923">
        <ele>70.6</ele>
        <time>2016-04-18T17:35:42Z</time>
      </trkpt>
      <trkpt lat="39.74091" lon="2.959308">
        <ele>70.6</ele>
        <time>2016-04-18T17:35:43Z</time>
      </trkpt>
      <trkpt lat="39.741238" lon="2.959801">
        <ele>70.6</ele>
        <time>2016-04-18T17:35:49Z</time>
      </trkpt>
      <trkpt lat="39.741574" lon="2.960255">
        <ele>70.6</ele>
        <time>2016-04-18T17:35:55Z</time>
      </trkpt>
      <trkpt lat="39.74201" lon="2.960745">
        <ele>70.6</ele>
        <time>2016-04-18T17:36:02Z</time>
      </trkpt>
      <trkpt lat="39.742072" lon="2.960815">
        <ele>70.6</ele>
        <time>2016-04-18T17:36:03Z</time>
      </trkpt>
      <trkpt lat="39.742302" lon="2.961105">
        <ele>70.6</ele>
        <time>2016-04-18T17:36:07Z</time>
      </trkpt>
      <trkpt lat="39.742355" lon="2.961178">
        <ele>70.6</ele>
        <time>2016-04-18T17:36:08Z</time>
      </trkpt>
      <trkpt lat="39.7426" lon="2.961496">
        <ele>70.6</ele>
        <time>2016-04-18T17:36:13Z</time>
      </trkpt>
      <trkpt lat="39.742813" lon="2.961684">
        <ele>70.6</ele>
        <time>2016-04-18T17:36:17Z</time>
      </trkpt>
      <trkpt lat="39.742865" lon="2.96174">
        <ele>70.6</ele>
        <time>2016-04-18T17:36:18Z</time>
      </trkpt>
      <trkpt lat="39.743025" lon="2.961907">
        <ele>70.6</ele>
        <time>2016-04-18T17:36:21Z</time>
      </trkpt>
      <trkpt lat="39.743184" lon="2.962086">
        <ele>70.6</ele>
        <time>2016-04-18T17:36:24Z</time>
      </trkpt>
      <trkpt lat="39.743467" lon="2.962385">
        <ele>70.6</ele>
        <time>2016-04-18T17:36:29Z</time>
      </trkpt>
      <trkpt lat="39.743824" lon="2.962783">
        <ele>70.2</ele>
        <time>2016-04-18T17:36:35Z</time>
      </trkpt>
      <trkpt lat="39.74389" lon="2.962854">
        <ele>69.4</ele>
        <time>2016-04-18T17:36:36Z</time>
      </trkpt>
      <trkpt lat="39.743948" lon="2.962926">
        <ele>69</ele>
        <time>2016-04-18T17:36:37Z</time>
      </trkpt>
      <trkpt lat="39.744007" lon="2.963001">
        <ele>68.6</ele>
        <time>2016-04-18T17:36:38Z</time>
      </trkpt>
      <trkpt lat="39.744126" lon="2.963151">
        <ele>68.6</ele>
        <time>2016-04-18T17:36:40Z</time>
      </trkpt>
      <trkpt lat="39.744318" lon="2.963363">
        <ele>68.6</ele>
        <time>2016-04-18T17:36:43Z</time>
      </trkpt>
      <trkpt lat="39.744769" lon="2.963856">
        <ele>68.6</ele>
        <time>2016-04-18T17:36:50Z</time>
      </trkpt>
      <trkpt lat="39.744896" lon="2.963996">
        <ele>68.2</ele>
        <time>2016-04-18T17:36:52Z</time>
      </trkpt>
      <trkpt lat="39.744961" lon="2.964062">
        <ele>67.8</ele>
        <time>2016-04-18T17:36:53Z</time>
      </trkpt>
      <trkpt lat="39.745023" lon="2.964127">
        <ele>67.4</ele>
        <time>2016-04-18T17:36:54Z</time>
      </trkpt>
      <trkpt lat="39.745088" lon="2.964191">
        <ele>67</ele>
        <time>2016-04-18T17:36:55Z</time>
      </trkpt>
      <trkpt lat="39.745152" lon="2.964255">
        <ele>66.6</ele>
        <time>2016-04-18T17:36:56Z</time>
      </trkpt>
      <trkpt lat="39.745469" lon="2.964608">
        <ele>66.6</ele>
        <time>2016-04-18T17:37:01Z</time>
      </trkpt>
      <trkpt lat="39.745784" lon="2.96505">
        <ele>66.6</ele>
        <time>2016-04-18T17:37:07Z</time>
      </trkpt>
      <trkpt lat="39.746085" lon="2.965477">
        <ele>66.6</ele>
        <time>2016-04-18T17:37:13Z</time>
      </trkpt>
      <trkpt lat="39.746135" lon="2.965561">
        <ele>66.6</ele>
        <time>2016-04-18T17:37:14Z</time>
      </trkpt>
      <trkpt lat="39.746538" lon="2.966134">
        <ele>66.6</ele>
        <time>2016-04-18T17:37:21Z</time>
      </trkpt>
      <trkpt lat="39.746772" lon="2.96648">
        <ele>66.2</ele>
        <time>2016-04-18T17:37:25Z</time>
      </trkpt>
      <trkpt lat="39.746831" lon="2.966566">
        <ele>65.8</ele>
        <time>2016-04-18T17:37:26Z</time>
      </trkpt>
      <trkpt lat="39.746893" lon="2.966644">
        <ele>65.2</ele>
        <time>2016-04-18T17:37:27Z</time>
      </trkpt>
      <trkpt lat="39.746954" lon="2.96673">
        <ele>64.8</ele>
        <time>2016-04-18T17:37:28Z</time>
      </trkpt>
      <trkpt lat="39.747016" lon="2.966818">
        <ele>64.4</ele>
        <time>2016-04-18T17:37:29Z</time>
      </trkpt>
      <trkpt lat="39.747355" lon="2.967403">
        <ele>64.4</ele>
        <time>2016-04-18T17:37:35Z</time>
      </trkpt>
      <trkpt lat="39.747521" lon="2.967842">
        <ele>64</ele>
        <time>2016-04-18T17:37:39Z</time>
      </trkpt>
      <trkpt lat="39.74757" lon="2.967938">
        <ele>63.6</ele>
        <time>2016-04-18T17:37:40Z</time>
      </trkpt>
      <trkpt lat="39.74762" lon="2.968033">
        <ele>63.2</ele>
        <time>2016-04-18T17:37:41Z</time>
      </trkpt>
      <trkpt lat="39.74767" lon="2.968125">
        <ele>62.8</ele>
        <time>2016-04-18T17:37:42Z</time>
      </trkpt>
      <trkpt lat="39.747719" lon="2.968216">
        <ele>62.4</ele>
        <time>2016-04-18T17:37:43Z</time>
      </trkpt>
      <trkpt lat="39.747818" lon="2.968409">
        <ele>62.4</ele>
        <time>2016-04-18T17:37:45Z</time>
      </trkpt>
      <trkpt lat="39.748124" lon="2.968981">
        <ele>62.4</ele>
        <time>2016-04-18T17:37:51Z</time>
      </trkpt>
      <trkpt lat="39.748332" lon="2.969364">
        <ele>62.4</ele>
        <time>2016-04-18T17:37:55Z</time>
      </trkpt>
      <trkpt lat="39.74836" lon="2.969476">
        <ele>62.4</ele>
        <time>2016-04-18T17:37:56Z</time>
      </trkpt>
      <trkpt lat="39.748407" lon="2.969829">
        <ele>62.4</ele>
        <time>2016-04-18T17:37:59Z</time>
      </trkpt>
      <trkpt lat="39.748418" lon="2.969935">
        <ele>62.4</ele>
        <time>2016-04-18T17:38:00Z</time>
      </trkpt>
      <trkpt lat="39.748506" lon="2.970638">
        <ele>62.4</ele>
        <time>2016-04-18T17:38:06Z</time>
      </trkpt>
      <trkpt lat="39.748523" lon="2.970755">
        <ele>62.4</ele>
        <time>2016-04-18T17:38:07Z</time>
      </trkpt>
      <trkpt lat="39.748574" lon="2.971104">
        <ele>62.4</ele>
        <time>2016-04-18T17:38:10Z</time>
      </trkpt>
      <trkpt lat="39.748581" lon="2.971215">
        <ele>61.8</ele>
        <time>2016-04-18T17:38:11Z</time>
      </trkpt>
      <trkpt lat="39.748588" lon="2.971326">
        <ele>61.4</ele>
        <time>2016-04-18T17:38:12Z</time>
      </trkpt>
      <trkpt lat="39.748586" lon="2.971446">
        <ele>61</ele>
        <time>2016-04-18T17:38:13Z</time>
      </trkpt>
      <trkpt lat="39.74858" lon="2.971569">
        <ele>60.6</ele>
        <time>2016-04-18T17:38:14Z</time>
      </trkpt>
      <trkpt lat="39.74857" lon="2.971683">
        <ele>60.2</ele>
        <time>2016-04-18T17:38:15Z</time>
      </trkpt>
      <trkpt lat="39.748562" lon="2.971807">
        <ele>60.2</ele>
        <time>2016-04-18T17:38:16Z</time>
      </trkpt>
      <trkpt lat="39.74856" lon="2.972033">
        <ele>60.2</ele>
        <time>2016-04-18T17:38:18Z</time>
      </trkpt>
      <trkpt lat="39.748584" lon="2.972267">
        <ele>60.2</ele>
        <time>2016-04-18T17:38:20Z</time>
      </trkpt>
      <trkpt lat="39.748595" lon="2.972488">
        <ele>59.8</ele>
        <time>2016-04-18T17:38:22Z</time>
      </trkpt>
      <trkpt lat="39.748607" lon="2.972603">
        <ele>59.4</ele>
        <time>2016-04-18T17:38:23Z</time>
      </trkpt>
      <trkpt lat="39.74862" lon="2.972725">
        <ele>59</ele>
        <time>2016-04-18T17:38:24Z</time>
      </trkpt>
      <trkpt lat="39.748635" lon="2.972838">
        <ele>58.6</ele>
        <time>2016-04-18T17:38:25Z</time>
      </trkpt>
      <trkpt lat="39.74866" lon="2.972949">
        <ele>58</ele>
        <time>2016-04-18T17:38:26Z</time>
      </trkpt>
      <trkpt lat="39.748742" lon="2.973152">
        <ele>58</ele>
        <time>2016-04-18T17:38:28Z</time>
      </trkpt>
      <trkpt lat="39.748958" lon="2.973591">
        <ele>57.6</ele>
        <time>2016-04-18T17:38:32Z</time>
      </trkpt>
      <trkpt lat="39.749011" lon="2.973695">
        <ele>57.2</ele>
        <time>2016-04-18T17:38:33Z</time>
      </trkpt>
      <trkpt lat="39.749056" lon="2.973789">
        <ele>56.8</ele>
        <time>2016-04-18T17:38:34Z</time>
      </trkpt>
      <trkpt lat="39.749087" lon="2.973888">
        <ele>56.2</ele>
        <time>2016-04-18T17:38:35Z</time>
      </trkpt>
      <trkpt lat="39.749109" lon="2.973997">
        <ele>55.8</ele>
        <time>2016-04-18T17:38:36Z</time>
      </trkpt>
      <trkpt lat="39.749228" lon="2.974541">
        <ele>55.8</ele>
        <time>2016-04-18T17:38:41Z</time>
      </trkpt>
      <trkpt lat="39.749364" lon="2.975084">
        <ele>55.8</ele>
        <time>2016-04-18T17:38:46Z</time>
      </trkpt>
      <trkpt lat="39.749494" lon="2.975684">
        <ele>55.8</ele>
        <time>2016-04-18T17:38:52Z</time>
      </trkpt>
      <trkpt lat="39.749663" lon="2.976074">
        <ele>55.8</ele>
        <time>2016-04-18T17:38:57Z</time>
      </trkpt>
      <trkpt lat="39.749723" lon="2.976194">
        <ele>56.2</ele>
        <time>2016-04-18T17:38:59Z</time>
      </trkpt>
      <trkpt lat="39.749769" lon="2.976222">
        <ele>56.6</ele>
        <time>2016-04-18T17:39:00Z</time>
      </trkpt>
      <trkpt lat="39.749827" lon="2.976224">
        <ele>57</ele>
        <time>2016-04-18T17:39:01Z</time>
      </trkpt>
      <trkpt lat="39.749882" lon="2.976209">
        <ele>57.6</ele>
        <time>2016-04-18T17:39:02Z</time>
      </trkpt>
      <trkpt lat="39.749943" lon="2.97619">
        <ele>58</ele>
        <time>2016-04-18T17:39:03Z</time>
      </trkpt>
      <trkpt lat="39.75025" lon="2.976111">
        <ele>57.6</ele>
        <time>2016-04-18T17:39:08Z</time>
      </trkpt>
      <trkpt lat="39.750316" lon="2.976095">
        <ele>57.2</ele>
        <time>2016-04-18T17:39:09Z</time>
      </trkpt>
      <trkpt lat="39.75038" lon="2.976077">
        <ele>56.8</ele>
        <time>2016-04-18T17:39:10Z</time>
      </trkpt>
      <trkpt lat="39.750449" lon="2.97606">
        <ele>56.4</ele>
        <time>2016-04-18T17:39:11Z</time>
      </trkpt>
      <trkpt lat="39.750514" lon="2.976052">
        <ele>56</ele>
        <time>2016-04-18T17:39:12Z</time>
      </trkpt>
      <trkpt lat="39.750642" lon="2.976081">
        <ele>56</ele>
        <time>2016-04-18T17:39:14Z</time>
      </trkpt>
      <trkpt lat="39.750825" lon="2.976123">
        <ele>56</ele>
        <time>2016-04-18T17:39:17Z</time>
      </trkpt>
      <trkpt lat="39.751018" lon="2.976145">
        <ele>56</ele>
        <time>2016-04-18T17:39:20Z</time>
      </trkpt>
      <trkpt lat="39.751473" lon="2.976196">
        <ele>56</ele>
        <time>2016-04-18T17:39:27Z</time>
      </trkpt>
      <trkpt lat="39.75167" lon="2.97624">
        <ele>56</ele>
        <time>2016-04-18T17:39:30Z</time>
      </trkpt>
      <trkpt lat="39.751788" lon="2.976336">
        <ele>56</ele>
        <time>2016-04-18T17:39:32Z</time>
      </trkpt>
      <trkpt lat="39.7519" lon="2.976447">
        <ele>56</ele>
        <time>2016-04-18T17:39:34Z</time>
      </trkpt>
      <trkpt lat="39.752028" lon="2.976522">
        <ele>56</ele>
        <time>2016-04-18T17:39:36Z</time>
      </trkpt>
      <trkpt lat="39.752284" lon="2.976546">
        <ele>56</ele>
        <time>2016-04-18T17:39:40Z</time>
      </trkpt>
      <trkpt lat="39.752348" lon="2.97653">
        <ele>56</ele>
        <time>2016-04-18T17:39:41Z</time>
      </trkpt>
      <trkpt lat="39.75248" lon="2.976509">
        <ele>56.4</ele>
        <time>2016-04-18T17:39:43Z</time>
      </trkpt>
      <trkpt lat="39.752545" lon="2.976498">
        <ele>56.8</ele>
        <time>2016-04-18T17:39:44Z</time>
      </trkpt>
      <trkpt lat="39.752609" lon="2.976492">
        <ele>57.2</ele>
        <time>2016-04-18T17:39:45Z</time>
      </trkpt>
      <trkpt lat="39.752668" lon="2.976485">
        <ele>57.8</ele>
        <time>2016-04-18T17:39:46Z</time>
      </trkpt>
      <trkpt lat="39.75273" lon="2.97647">
        <ele>58.2</ele>
        <time>2016-04-18T17:39:47Z</time>
      </trkpt>
      <trkpt lat="39.753151" lon="2.976358">
        <ele>58.2</ele>
        <time>2016-04-18T17:39:54Z</time>
      </trkpt>
      <trkpt lat="39.753505" lon="2.976262">
        <ele>58.2</ele>
        <time>2016-04-18T17:40:00Z</time>
      </trkpt>
      <trkpt lat="39.753648" lon="2.976394">
        <ele>58.2</ele>
        <time>2016-04-18T17:40:03Z</time>
      </trkpt>
      <trkpt lat="39.75375" lon="2.976624">
        <ele>58.2</ele>
        <time>2016-04-18T17:40:06Z</time>
      </trkpt>
      <trkpt lat="39.753789" lon="2.976696">
        <ele>58.2</ele>
        <time>2016-04-18T17:40:07Z</time>
      </trkpt>
      <trkpt lat="39.753908" lon="2.976916">
        <ele>57.8</ele>
        <time>2016-04-18T17:40:10Z</time>
      </trkpt>
      <trkpt lat="39.753945" lon="2.976993">
        <ele>57.4</ele>
        <time>2016-04-18T17:40:11Z</time>
      </trkpt>
      <trkpt lat="39.75398" lon="2.977071">
        <ele>57</ele>
        <time>2016-04-18T17:40:12Z</time>
      </trkpt>
      <trkpt lat="39.754011" lon="2.977147">
        <ele>56.6</ele>
        <time>2016-04-18T17:40:13Z</time>
      </trkpt>
      <trkpt lat="39.754028" lon="2.977222">
        <ele>56.2</ele>
        <time>2016-04-18T17:40:14Z</time>
      </trkpt>
      <trkpt lat="39.754069" lon="2.977361">
        <ele>56.2</ele>
        <time>2016-04-18T17:40:16Z</time>
      </trkpt>
      <trkpt lat="39.754206" lon="2.977792">
        <ele>56.2</ele>
        <time>2016-04-18T17:40:22Z</time>
      </trkpt>
      <trkpt lat="39.754355" lon="2.978207">
        <ele>56.2</ele>
        <time>2016-04-18T17:40:28Z</time>
      </trkpt>
      <trkpt lat="39.754473" lon="2.978456">
        <ele>56.6</ele>
        <time>2016-04-18T17:40:32Z</time>
      </trkpt>
      <trkpt lat="39.754503" lon="2.978516">
        <ele>57</ele>
        <time>2016-04-18T17:40:33Z</time>
      </trkpt>
      <trkpt lat="39.754533" lon="2.978573">
        <ele>57.4</ele>
        <time>2016-04-18T17:40:34Z</time>
      </trkpt>
      <trkpt lat="39.754564" lon="2.97863">
        <ele>57.8</ele>
        <time>2016-04-18T17:40:35Z</time>
      </trkpt>
      <trkpt lat="39.754593" lon="2.978687">
        <ele>58.4</ele>
        <time>2016-04-18T17:40:36Z</time>
      </trkpt>
      <trkpt lat="39.754628" lon="2.978743">
        <ele>58.4</ele>
        <time>2016-04-18T17:40:37Z</time>
      </trkpt>
      <trkpt lat="39.754745" lon="2.978903">
        <ele>58.4</ele>
        <time>2016-04-18T17:40:40Z</time>
      </trkpt>
      <trkpt lat="39.754781" lon="2.978955">
        <ele>58.4</ele>
        <time>2016-04-18T17:40:41Z</time>
      </trkpt>
      <trkpt lat="39.755036" lon="2.979313">
        <ele>58.4</ele>
        <time>2016-04-18T17:40:48Z</time>
      </trkpt>
      <trkpt lat="39.755196" lon="2.979591">
        <ele>58.4</ele>
        <time>2016-04-18T17:40:53Z</time>
      </trkpt>
      <trkpt lat="39.755221" lon="2.979655">
        <ele>58.4</ele>
        <time>2016-04-18T17:40:54Z</time>
      </trkpt>
      <trkpt lat="39.755333" lon="2.979956">
        <ele>58.4</ele>
        <time>2016-04-18T17:41:00Z</time>
      </trkpt>
      <trkpt lat="39.755346" lon="2.979979">
        <ele>58.8</ele>
        <time>2016-04-18T17:41:01Z</time>
      </trkpt>
      <trkpt lat="39.755356" lon="2.979999">
        <ele>59.2</ele>
        <time>2016-04-18T17:41:02Z</time>
      </trkpt>
      <trkpt lat="39.75536" lon="2.980018">
        <ele>59.6</ele>
        <time>2016-04-18T17:41:03Z</time>
      </trkpt>
      <trkpt lat="39.755363" lon="2.980033">
        <ele>60.2</ele>
        <time>2016-04-18T17:41:04Z</time>
      </trkpt>
      <trkpt lat="39.755365" lon="2.980036">
        <ele>60.6</ele>
        <time>2016-04-18T17:41:05Z</time>
      </trkpt>
      <trkpt lat="39.755404" lon="2.980184">
        <ele>60.6</ele>
        <time>2016-04-18T17:41:33Z</time>
      </trkpt>
      <trkpt lat="39.75542" lon="2.980229">
        <ele>60.6</ele>
        <time>2016-04-18T17:41:36Z</time>
      </trkpt>
      <trkpt lat="39.755458" lon="2.980386">
        <ele>60.6</ele>
        <time>2016-04-18T17:41:41Z</time>
      </trkpt>
      <trkpt lat="39.755591" lon="2.980559">
        <ele>60.6</ele>
        <time>2016-04-18T17:41:46Z</time>
      </trkpt>
      <trkpt lat="39.755709" lon="2.980704">
        <ele>61</ele>
        <time>2016-04-18T17:41:50Z</time>
      </trkpt>
      <trkpt lat="39.755739" lon="2.980746">
        <ele>61.6</ele>
        <time>2016-04-18T17:41:51Z</time>
      </trkpt>
      <trkpt lat="39.755763" lon="2.980784">
        <ele>62</ele>
        <time>2016-04-18T17:41:52Z</time>
      </trkpt>
      <trkpt lat="39.755788" lon="2.980821">
        <ele>62.4</ele>
        <time>2016-04-18T17:41:53Z</time>
      </trkpt>
      <trkpt lat="39.755814" lon="2.980857">
        <ele>62.8</ele>
        <time>2016-04-18T17:41:54Z</time>
      </trkpt>
      <trkpt lat="39.755956" lon="2.981052">
        <ele>62.8</ele>
        <time>2016-04-18T17:41:59Z</time>
      </trkpt>
      <trkpt lat="39.755984" lon="2.981086">
        <ele>63.4</ele>
        <time>2016-04-18T17:42:00Z</time>
      </trkpt>
      <trkpt lat="39.756015" lon="2.98112">
        <ele>63.8</ele>
        <time>2016-04-18T17:42:01Z</time>
      </trkpt>
      <trkpt lat="39.75604" lon="2.981151">
        <ele>64.2</ele>
        <time>2016-04-18T17:42:02Z</time>
      </trkpt>
      <trkpt lat="39.756067" lon="2.981182">
        <ele>64.6</ele>
        <time>2016-04-18T17:42:03Z</time>
      </trkpt>
      <trkpt lat="39.756098" lon="2.98121">
        <ele>65</ele>
        <time>2016-04-18T17:42:04Z</time>
      </trkpt>
      <trkpt lat="39.756141" lon="2.981231">
        <ele>65</ele>
        <time>2016-04-18T17:42:05Z</time>
      </trkpt>
      <trkpt lat="39.756286" lon="2.981248">
        <ele>65.4</ele>
        <time>2016-04-18T17:42:08Z</time>
      </trkpt>
      <trkpt lat="39.75634" lon="2.981253">
        <ele>66</ele>
        <time>2016-04-18T17:42:09Z</time>
      </trkpt>
      <trkpt lat="39.756388" lon="2.981264">
        <ele>66.4</ele>
        <time>2016-04-18T17:42:10Z</time>
      </trkpt>
      <trkpt lat="39.756432" lon="2.981279">
        <ele>66.8</ele>
        <time>2016-04-18T17:42:11Z</time>
      </trkpt>
      <trkpt lat="39.756477" lon="2.981309">
        <ele>67.2</ele>
        <time>2016-04-18T17:42:12Z</time>
      </trkpt>
      <trkpt lat="39.756512" lon="2.981346">
        <ele>67.2</ele>
        <time>2016-04-18T17:42:13Z</time>
      </trkpt>
      <trkpt lat="39.756597" lon="2.981473">
        <ele>67.2</ele>
        <time>2016-04-18T17:42:16Z</time>
      </trkpt>
      <trkpt lat="39.756643" lon="2.98156">
        <ele>67.2</ele>
        <time>2016-04-18T17:42:18Z</time>
      </trkpt>
      <trkpt lat="39.75677" lon="2.981886">
        <ele>67.2</ele>
        <time>2016-04-18T17:42:25Z</time>
      </trkpt>
      <trkpt lat="39.756784" lon="2.981934">
        <ele>67.6</ele>
        <time>2016-04-18T17:42:26Z</time>
      </trkpt>
      <trkpt lat="39.75679" lon="2.981984">
        <ele>68</ele>
        <time>2016-04-18T17:42:27Z</time>
      </trkpt>
      <trkpt lat="39.756796" lon="2.982034">
        <ele>68.6</ele>
        <time>2016-04-18T17:42:28Z</time>
      </trkpt>
      <trkpt lat="39.756802" lon="2.982089">
        <ele>69</ele>
        <time>2016-04-18T17:42:29Z</time>
      </trkpt>
      <trkpt lat="39.756794" lon="2.98215">
        <ele>69.6</ele>
        <time>2016-04-18T17:42:30Z</time>
      </trkpt>
      <trkpt lat="39.756791" lon="2.982288">
        <ele>69.6</ele>
        <time>2016-04-18T17:42:32Z</time>
      </trkpt>
      <trkpt lat="39.756812" lon="2.982405">
        <ele>69.6</ele>
        <time>2016-04-18T17:42:34Z</time>
      </trkpt>
      <trkpt lat="39.756901" lon="2.982719">
        <ele>69.6</ele>
        <time>2016-04-18T17:42:41Z</time>
      </trkpt>
      <trkpt lat="39.756955" lon="2.982812">
        <ele>70</ele>
        <time>2016-04-18T17:42:44Z</time>
      </trkpt>
      <trkpt lat="39.756973" lon="2.982845">
        <ele>70.4</ele>
        <time>2016-04-18T17:42:45Z</time>
      </trkpt>
      <trkpt lat="39.756988" lon="2.982874">
        <ele>71</ele>
        <time>2016-04-18T17:42:46Z</time>
      </trkpt>
      <trkpt lat="39.75701" lon="2.982897">
        <ele>71.4</ele>
        <time>2016-04-18T17:42:47Z</time>
      </trkpt>
      <trkpt lat="39.757028" lon="2.98292">
        <ele>71.8</ele>
        <time>2016-04-18T17:42:48Z</time>
      </trkpt>
      <trkpt lat="39.757063" lon="2.982961">
        <ele>72.2</ele>
        <time>2016-04-18T17:42:50Z</time>
      </trkpt>
      <trkpt lat="39.757079" lon="2.982985">
        <ele>72.8</ele>
        <time>2016-04-18T17:42:51Z</time>
      </trkpt>
      <trkpt lat="39.757094" lon="2.983011">
        <ele>73.2</ele>
        <time>2016-04-18T17:42:52Z</time>
      </trkpt>
      <trkpt lat="39.757113" lon="2.983033">
        <ele>73.8</ele>
        <time>2016-04-18T17:42:53Z</time>
      </trkpt>
      <trkpt lat="39.757129" lon="2.983059">
        <ele>74.2</ele>
        <time>2016-04-18T17:42:54Z</time>
      </trkpt>
      <trkpt lat="39.757188" lon="2.983158">
        <ele>74.6</ele>
        <time>2016-04-18T17:42:58Z</time>
      </trkpt>
      <trkpt lat="39.757203" lon="2.983182">
        <ele>75</ele>
        <time>2016-04-18T17:42:59Z</time>
      </trkpt>
      <trkpt lat="39.757213" lon="2.983211">
        <ele>75.4</ele>
        <time>2016-04-18T17:43:00Z</time>
      </trkpt>
      <trkpt lat="39.757227" lon="2.98324">
        <ele>75.8</ele>
        <time>2016-04-18T17:43:01Z</time>
      </trkpt>
      <trkpt lat="39.757239" lon="2.983268">
        <ele>76.2</ele>
        <time>2016-04-18T17:43:02Z</time>
      </trkpt>
      <trkpt lat="39.757248" lon="2.983301">
        <ele>76.2</ele>
        <time>2016-04-18T17:43:03Z</time>
      </trkpt>
      <trkpt lat="39.757275" lon="2.983437">
        <ele>76.6</ele>
        <time>2016-04-18T17:43:07Z</time>
      </trkpt>
      <trkpt lat="39.757281" lon="2.983469">
        <ele>77.2</ele>
        <time>2016-04-18T17:43:08Z</time>
      </trkpt>
      <trkpt lat="39.757275" lon="2.983504">
        <ele>77.6</ele>
        <time>2016-04-18T17:43:09Z</time>
      </trkpt>
      <trkpt lat="39.757274" lon="2.983539">
        <ele>78.2</ele>
        <time>2016-04-18T17:43:10Z</time>
      </trkpt>
      <trkpt lat="39.757283" lon="2.983569">
        <ele>78.6</ele>
        <time>2016-04-18T17:43:11Z</time>
      </trkpt>
      <trkpt lat="39.757278" lon="2.983596">
        <ele>79</ele>
        <time>2016-04-18T17:43:12Z</time>
      </trkpt>
      <trkpt lat="39.757271" lon="2.983627">
        <ele>79.8</ele>
        <time>2016-04-18T17:43:13Z</time>
      </trkpt>
      <trkpt lat="39.757268" lon="2.983655">
        <ele>80.4</ele>
        <time>2016-04-18T17:43:14Z</time>
      </trkpt>
      <trkpt lat="39.757266" lon="2.98368">
        <ele>80.8</ele>
        <time>2016-04-18T17:43:15Z</time>
      </trkpt>
      <trkpt lat="39.757274" lon="2.98376">
        <ele>80.8</ele>
        <time>2016-04-18T17:43:19Z</time>
      </trkpt>
      <trkpt lat="39.757286" lon="2.983771">
        <ele>80.8</ele>
        <time>2016-04-18T17:43:20Z</time>
      </trkpt>
      <trkpt lat="39.757361" lon="2.983729">
        <ele>80.8</ele>
        <time>2016-04-18T17:43:23Z</time>
      </trkpt>
      <trkpt lat="39.757387" lon="2.98371">
        <ele>81.2</ele>
        <time>2016-04-18T17:43:24Z</time>
      </trkpt>
      <trkpt lat="39.757414" lon="2.983696">
        <ele>81.6</ele>
        <time>2016-04-18T17:43:25Z</time>
      </trkpt>
      <trkpt lat="39.757439" lon="2.98368">
        <ele>82</ele>
        <time>2016-04-18T17:43:26Z</time>
      </trkpt>
      <trkpt lat="39.757463" lon="2.983659">
        <ele>82.4</ele>
        <time>2016-04-18T17:43:27Z</time>
      </trkpt>
      <trkpt lat="39.757484" lon="2.983645">
        <ele>82.8</ele>
        <time>2016-04-18T17:43:28Z</time>
      </trkpt>
      <trkpt lat="39.757503" lon="2.983626">
        <ele>82.8</ele>
        <time>2016-04-18T17:43:29Z</time>
      </trkpt>
      <trkpt lat="39.757575" lon="2.983563">
        <ele>83.2</ele>
        <time>2016-04-18T17:43:32Z</time>
      </trkpt>
      <trkpt lat="39.757598" lon="2.98354">
        <ele>83.8</ele>
        <time>2016-04-18T17:43:33Z</time>
      </trkpt>
      <trkpt lat="39.757615" lon="2.983513">
        <ele>84.2</ele>
        <time>2016-04-18T17:43:34Z</time>
      </trkpt>
      <trkpt lat="39.75764" lon="2.983486">
        <ele>84.6</ele>
        <time>2016-04-18T17:43:35Z</time>
      </trkpt>
      <trkpt lat="39.757667" lon="2.983464">
        <ele>85</ele>
        <time>2016-04-18T17:43:36Z</time>
      </trkpt>
      <trkpt lat="39.757795" lon="2.983387">
        <ele>85</ele>
        <time>2016-04-18T17:43:41Z</time>
      </trkpt>
      <trkpt lat="39.757817" lon="2.983391">
        <ele>85</ele>
        <time>2016-04-18T17:43:42Z</time>
      </trkpt>
      <trkpt lat="39.757866" lon="2.983355">
        <ele>85</ele>
        <time>2016-04-18T17:43:44Z</time>
      </trkpt>
      <trkpt lat="39.75789" lon="2.983341">
        <ele>85.6</ele>
        <time>2016-04-18T17:43:45Z</time>
      </trkpt>
      <trkpt lat="39.757913" lon="2.983325">
        <ele>86</ele>
        <time>2016-04-18T17:43:46Z</time>
      </trkpt>
      <trkpt lat="39.757935" lon="2.983312">
        <ele>86.4</ele>
        <time>2016-04-18T17:43:47Z</time>
      </trkpt>
      <trkpt lat="39.757963" lon="2.983303">
        <ele>87</ele>
        <time>2016-04-18T17:43:48Z</time>
      </trkpt>
      <trkpt lat="39.757989" lon="2.983288">
        <ele>87.4</ele>
        <time>2016-04-18T17:43:49Z</time>
      </trkpt>
      <trkpt lat="39.758044" lon="2.983277">
        <ele>87.4</ele>
        <time>2016-04-18T17:43:51Z</time>
      </trkpt>
      <trkpt lat="39.75818" lon="2.983335">
        <ele>87.8</ele>
        <time>2016-04-18T17:43:57Z</time>
      </trkpt>
      <trkpt lat="39.758189" lon="2.983369">
        <ele>88.2</ele>
        <time>2016-04-18T17:43:58Z</time>
      </trkpt>
      <trkpt lat="39.758198" lon="2.983405">
        <ele>88.6</ele>
        <time>2016-04-18T17:43:59Z</time>
      </trkpt>
      <trkpt lat="39.758203" lon="2.983439">
        <ele>89</ele>
        <time>2016-04-18T17:44:00Z</time>
      </trkpt>
      <trkpt lat="39.758208" lon="2.98347">
        <ele>89.4</ele>
        <time>2016-04-18T17:44:01Z</time>
      </trkpt>
      <trkpt lat="39.758216" lon="2.983499">
        <ele>89.4</ele>
        <time>2016-04-18T17:44:02Z</time>
      </trkpt>
      <trkpt lat="39.758249" lon="2.983527">
        <ele>89.4</ele>
        <time>2016-04-18T17:44:04Z</time>
      </trkpt>
      <trkpt lat="39.758327" lon="2.983511">
        <ele>89.4</ele>
        <time>2016-04-18T17:44:06Z</time>
      </trkpt>
      <trkpt lat="39.758435" lon="2.98347">
        <ele>89.4</ele>
        <time>2016-04-18T17:44:08Z</time>
      </trkpt>
      <trkpt lat="39.75849" lon="2.983412">
        <ele>89.4</ele>
        <time>2016-04-18T17:44:09Z</time>
      </trkpt>
      <trkpt lat="39.758545" lon="2.983345">
        <ele>88.8</ele>
        <time>2016-04-18T17:44:10Z</time>
      </trkpt>
      <trkpt lat="39.758598" lon="2.983275">
        <ele>88.2</ele>
        <time>2016-04-18T17:44:11Z</time>
      </trkpt>
      <trkpt lat="39.758655" lon="2.983196">
        <ele>87.8</ele>
        <time>2016-04-18T17:44:12Z</time>
      </trkpt>
      <trkpt lat="39.758722" lon="2.983117">
        <ele>87</ele>
        <time>2016-04-18T17:44:13Z</time>
      </trkpt>
      <trkpt lat="39.75879" lon="2.983029">
        <ele>86.2</ele>
        <time>2016-04-18T17:44:14Z</time>
      </trkpt>
      <trkpt lat="39.758854" lon="2.982945">
        <ele>85.4</ele>
        <time>2016-04-18T17:44:15Z</time>
      </trkpt>
      <trkpt lat="39.758921" lon="2.982865">
        <ele>84.4</ele>
        <time>2016-04-18T17:44:16Z</time>
      </trkpt>
      <trkpt lat="39.758982" lon="2.982794">
        <ele>83.4</ele>
        <time>2016-04-18T17:44:17Z</time>
      </trkpt>
      <trkpt lat="39.759045" lon="2.982725">
        <ele>82.6</ele>
        <time>2016-04-18T17:44:18Z</time>
      </trkpt>
      <trkpt lat="39.759125" lon="2.982679">
        <ele>81.8</ele>
        <time>2016-04-18T17:44:19Z</time>
      </trkpt>
      <trkpt lat="39.759215" lon="2.982646">
        <ele>80.2</ele>
        <time>2016-04-18T17:44:20Z</time>
      </trkpt>
      <trkpt lat="39.759302" lon="2.982607">
        <ele>79.4</ele>
        <time>2016-04-18T17:44:21Z</time>
      </trkpt>
      <trkpt lat="39.759396" lon="2.982583">
        <ele>78.8</ele>
        <time>2016-04-18T17:44:22Z</time>
      </trkpt>
      <trkpt lat="39.75953" lon="2.982535">
        <ele>78.4</ele>
        <time>2016-04-18T17:44:23Z</time>
      </trkpt>
      <trkpt lat="39.759607" lon="2.982498">
        <ele>77.6</ele>
        <time>2016-04-18T17:44:24Z</time>
      </trkpt>
      <trkpt lat="39.759697" lon="2.98244">
        <ele>76.8</ele>
        <time>2016-04-18T17:44:25Z</time>
      </trkpt>
      <trkpt lat="39.759785" lon="2.982372">
        <ele>76.2</ele>
        <time>2016-04-18T17:44:26Z</time>
      </trkpt>
      <trkpt lat="39.759873" lon="2.982298">
        <ele>75.4</ele>
        <time>2016-04-18T17:44:27Z</time>
      </trkpt>
      <trkpt lat="39.759959" lon="2.982217">
        <ele>74.8</ele>
        <time>2016-04-18T17:44:28Z</time>
      </trkpt>
      <trkpt lat="39.760042" lon="2.982126">
        <ele>74</ele>
        <time>2016-04-18T17:44:29Z</time>
      </trkpt>
      <trkpt lat="39.760114" lon="2.982024">
        <ele>73.4</ele>
        <time>2016-04-18T17:44:30Z</time>
      </trkpt>
      <trkpt lat="39.760182" lon="2.981917">
        <ele>72.6</ele>
        <time>2016-04-18T17:44:31Z</time>
      </trkpt>
      <trkpt lat="39.760249" lon="2.981805">
        <ele>72</ele>
        <time>2016-04-18T17:44:32Z</time>
      </trkpt>
      <trkpt lat="39.76032" lon="2.98169">
        <ele>71.2</ele>
        <time>2016-04-18T17:44:33Z</time>
      </trkpt>
      <trkpt lat="39.760391" lon="2.981575">
        <ele>70.4</ele>
        <time>2016-04-18T17:44:34Z</time>
      </trkpt>
      <trkpt lat="39.760466" lon="2.981453">
        <ele>69.8</ele>
        <time>2016-04-18T17:44:35Z</time>
      </trkpt>
      <trkpt lat="39.760543" lon="2.981332">
        <ele>69.2</ele>
        <time>2016-04-18T17:44:36Z</time>
      </trkpt>
      <trkpt lat="39.760626" lon="2.981206">
        <ele>68.4</ele>
        <time>2016-04-18T17:44:37Z</time>
      </trkpt>
      <trkpt lat="39.760705" lon="2.981086">
        <ele>67.6</ele>
        <time>2016-04-18T17:44:38Z</time>
      </trkpt>
      <trkpt lat="39.760789" lon="2.98097">
        <ele>66.4</ele>
        <time>2016-04-18T17:44:39Z</time>
      </trkpt>
      <trkpt lat="39.760883" lon="2.980868">
        <ele>64.2</ele>
        <time>2016-04-18T17:44:40Z</time>
      </trkpt>
      <trkpt lat="39.760981" lon="2.980781">
        <ele>63.2</ele>
        <time>2016-04-18T17:44:41Z</time>
      </trkpt>
      <trkpt lat="39.761078" lon="2.980697">
        <ele>62.2</ele>
        <time>2016-04-18T17:44:42Z</time>
      </trkpt>
      <trkpt lat="39.761172" lon="2.980612">
        <ele>61.2</ele>
        <time>2016-04-18T17:44:43Z</time>
      </trkpt>
      <trkpt lat="39.761263" lon="2.980533">
        <ele>60</ele>
        <time>2016-04-18T17:44:44Z</time>
      </trkpt>
      <trkpt lat="39.761355" lon="2.980454">
        <ele>59</ele>
        <time>2016-04-18T17:44:45Z</time>
      </trkpt>
      <trkpt lat="39.76144" lon="2.980381">
        <ele>59</ele>
        <time>2016-04-18T17:44:46Z</time>
      </trkpt>
      <trkpt lat="39.761826" lon="2.98003">
        <ele>59.4</ele>
        <time>2016-04-18T17:44:51Z</time>
      </trkpt>
      <trkpt lat="39.7619" lon="2.979965">
        <ele>59.8</ele>
        <time>2016-04-18T17:44:52Z</time>
      </trkpt>
      <trkpt lat="39.761968" lon="2.979899">
        <ele>60.2</ele>
        <time>2016-04-18T17:44:53Z</time>
      </trkpt>
      <trkpt lat="39.762031" lon="2.979839">
        <ele>60.6</ele>
        <time>2016-04-18T17:44:54Z</time>
      </trkpt>
      <trkpt lat="39.762095" lon="2.979785">
        <ele>61</ele>
        <time>2016-04-18T17:44:55Z</time>
      </trkpt>
      <trkpt lat="39.762158" lon="2.979733">
        <ele>61</ele>
        <time>2016-04-18T17:44:56Z</time>
      </trkpt>
      <trkpt lat="39.762337" lon="2.97957">
        <ele>61.6</ele>
        <time>2016-04-18T17:44:59Z</time>
      </trkpt>
      <trkpt lat="39.762395" lon="2.979513">
        <ele>62</ele>
        <time>2016-04-18T17:45:00Z</time>
      </trkpt>
      <trkpt lat="39.762456" lon="2.979457">
        <ele>62.4</ele>
        <time>2016-04-18T17:45:01Z</time>
      </trkpt>
      <trkpt lat="39.762513" lon="2.979403">
        <ele>62.8</ele>
        <time>2016-04-18T17:45:02Z</time>
      </trkpt>
      <trkpt lat="39.762565" lon="2.97935">
        <ele>63.2</ele>
        <time>2016-04-18T17:45:03Z</time>
      </trkpt>
      <trkpt lat="39.762839" lon="2.979015">
        <ele>63.2</ele>
        <time>2016-04-18T17:45:09Z</time>
      </trkpt>
      <trkpt lat="39.763178" lon="2.97858">
        <ele>63.2</ele>
        <time>2016-04-18T17:45:17Z</time>
      </trkpt>
      <trkpt lat="39.763259" lon="2.978471">
        <ele>63.2</ele>
        <time>2016-04-18T17:45:19Z</time>
      </trkpt>
      <trkpt lat="39.763296" lon="2.978414">
        <ele>63.8</ele>
        <time>2016-04-18T17:45:20Z</time>
      </trkpt>
      <trkpt lat="39.763338" lon="2.978363">
        <ele>64.2</ele>
        <time>2016-04-18T17:45:21Z</time>
      </trkpt>
      <trkpt lat="39.763382" lon="2.978316">
        <ele>64.6</ele>
        <time>2016-04-18T17:45:22Z</time>
      </trkpt>
      <trkpt lat="39.763422" lon="2.978268">
        <ele>65</ele>
        <time>2016-04-18T17:45:23Z</time>
      </trkpt>
      <trkpt lat="39.763462" lon="2.978218">
        <ele>65.4</ele>
        <time>2016-04-18T17:45:24Z</time>
      </trkpt>
      <trkpt lat="39.763568" lon="2.978076">
        <ele>65.8</ele>
        <time>2016-04-18T17:45:27Z</time>
      </trkpt>
      <trkpt lat="39.763598" lon="2.978028">
        <ele>66.4</ele>
        <time>2016-04-18T17:45:28Z</time>
      </trkpt>
      <trkpt lat="39.763628" lon="2.97798">
        <ele>66.8</ele>
        <time>2016-04-18T17:45:29Z</time>
      </trkpt>
      <trkpt lat="39.763658" lon="2.97793">
        <ele>67.6</ele>
        <time>2016-04-18T17:45:30Z</time>
      </trkpt>
      <trkpt lat="39.763717" lon="2.97783">
        <ele>68</ele>
        <time>2016-04-18T17:45:32Z</time>
      </trkpt>
      <trkpt lat="39.763744" lon="2.977779">
        <ele>68.4</ele>
        <time>2016-04-18T17:45:33Z</time>
      </trkpt>
      <trkpt lat="39.76377" lon="2.977727">
        <ele>69</ele>
        <time>2016-04-18T17:45:34Z</time>
      </trkpt>
      <trkpt lat="39.763797" lon="2.977674">
        <ele>69.4</ele>
        <time>2016-04-18T17:45:35Z</time>
      </trkpt>
      <trkpt lat="39.763826" lon="2.977621">
        <ele>69.8</ele>
        <time>2016-04-18T17:45:36Z</time>
      </trkpt>
      <trkpt lat="39.763857" lon="2.977568">
        <ele>70.2</ele>
        <time>2016-04-18T17:45:37Z</time>
      </trkpt>
      <trkpt lat="39.763886" lon="2.977517">
        <ele>70.6</ele>
        <time>2016-04-18T17:45:38Z</time>
      </trkpt>
      <trkpt lat="39.763919" lon="2.977468">
        <ele>71</ele>
        <time>2016-04-18T17:45:39Z</time>
      </trkpt>
      <trkpt lat="39.763946" lon="2.977422">
        <ele>71.4</ele>
        <time>2016-04-18T17:45:40Z</time>
      </trkpt>
      <trkpt lat="39.763974" lon="2.977377">
        <ele>72</ele>
        <time>2016-04-18T17:45:41Z</time>
      </trkpt>
      <trkpt lat="39.764001" lon="2.97733">
        <ele>72</ele>
        <time>2016-04-18T17:45:42Z</time>
      </trkpt>
      <trkpt lat="39.764026" lon="2.977278">
        <ele>72</ele>
        <time>2016-04-18T17:45:43Z</time>
      </trkpt>
      <trkpt lat="39.764203" lon="2.97696">
        <ele>72</ele>
        <time>2016-04-18T17:45:49Z</time>
      </trkpt>
      <trkpt lat="39.764393" lon="2.976662">
        <ele>72</ele>
        <time>2016-04-18T17:45:54Z</time>
      </trkpt>
      <trkpt lat="39.764752" lon="2.976263">
        <ele>72</ele>
        <time>2016-04-18T17:46:01Z</time>
      </trkpt>
      <trkpt lat="39.765024" lon="2.975929">
        <ele>71.4</ele>
        <time>2016-04-18T17:46:06Z</time>
      </trkpt>
      <trkpt lat="39.765074" lon="2.975856">
        <ele>71</ele>
        <time>2016-04-18T17:46:07Z</time>
      </trkpt>
      <trkpt lat="39.765119" lon="2.975779">
        <ele>70.4</ele>
        <time>2016-04-18T17:46:08Z</time>
      </trkpt>
      <trkpt lat="39.765163" lon="2.975696">
        <ele>70</ele>
        <time>2016-04-18T17:46:09Z</time>
      </trkpt>
      <trkpt lat="39.765204" lon="2.975615">
        <ele>69.6</ele>
        <time>2016-04-18T17:46:10Z</time>
      </trkpt>
      <trkpt lat="39.765365" lon="2.975304">
        <ele>69.6</ele>
        <time>2016-04-18T17:46:14Z</time>
      </trkpt>
      <trkpt lat="39.765673" lon="2.974696">
        <ele>69.6</ele>
        <time>2016-04-18T17:46:22Z</time>
      </trkpt>
      <trkpt lat="39.765751" lon="2.974541">
        <ele>69.6</ele>
        <time>2016-04-18T17:46:24Z</time>
      </trkpt>
      <trkpt lat="39.766041" lon="2.973965">
        <ele>69.6</ele>
        <time>2016-04-18T17:46:32Z</time>
      </trkpt>
      <trkpt lat="39.766147" lon="2.973789">
        <ele>69.6</ele>
        <time>2016-04-18T17:46:35Z</time>
      </trkpt>
      <trkpt lat="39.766214" lon="2.973736">
        <ele>69.6</ele>
        <time>2016-04-18T17:46:37Z</time>
      </trkpt>
      <trkpt lat="39.766361" lon="2.973676">
        <ele>69.6</ele>
        <time>2016-04-18T17:46:42Z</time>
      </trkpt>
      <trkpt lat="39.766453" lon="2.97366">
        <ele>69.6</ele>
        <time>2016-04-18T17:46:44Z</time>
      </trkpt>
      <trkpt lat="39.766531" lon="2.973599">
        <ele>69.6</ele>
        <time>2016-04-18T17:46:46Z</time>
      </trkpt>
      <trkpt lat="39.766601" lon="2.973399">
        <ele>69.6</ele>
        <time>2016-04-18T17:46:49Z</time>
      </trkpt>
      <trkpt lat="39.766612" lon="2.973232">
        <ele>69.6</ele>
        <time>2016-04-18T17:46:51Z</time>
      </trkpt>
      <trkpt lat="39.76662" lon="2.973157">
        <ele>69.6</ele>
        <time>2016-04-18T17:46:52Z</time>
      </trkpt>
      <trkpt lat="39.766638" lon="2.973086">
        <ele>69.6</ele>
        <time>2016-04-18T17:46:53Z</time>
      </trkpt>
      <trkpt lat="39.766742" lon="2.972913">
        <ele>69.6</ele>
        <time>2016-04-18T17:46:56Z</time>
      </trkpt>
      <trkpt lat="39.766873" lon="2.972726">
        <ele>69.6</ele>
        <time>2016-04-18T17:46:59Z</time>
      </trkpt>
      <trkpt lat="39.766955" lon="2.972612">
        <ele>69.6</ele>
        <time>2016-04-18T17:47:01Z</time>
      </trkpt>
      <trkpt lat="39.767137" lon="2.972368">
        <ele>69.6</ele>
        <time>2016-04-18T17:47:06Z</time>
      </trkpt>
      <trkpt lat="39.76717" lon="2.972321">
        <ele>70</ele>
        <time>2016-04-18T17:47:07Z</time>
      </trkpt>
      <trkpt lat="39.767201" lon="2.972272">
        <ele>70.4</ele>
        <time>2016-04-18T17:47:08Z</time>
      </trkpt>
      <trkpt lat="39.767234" lon="2.972226">
        <ele>70.8</ele>
        <time>2016-04-18T17:47:09Z</time>
      </trkpt>
      <trkpt lat="39.767272" lon="2.972181">
        <ele>71.6</ele>
        <time>2016-04-18T17:47:10Z</time>
      </trkpt>
      <trkpt lat="39.767358" lon="2.972113">
        <ele>71.6</ele>
        <time>2016-04-18T17:47:12Z</time>
      </trkpt>
      <trkpt lat="39.76751" lon="2.972099">
        <ele>71.6</ele>
        <time>2016-04-18T17:47:15Z</time>
      </trkpt>
      <trkpt lat="39.76756" lon="2.972098">
        <ele>71.6</ele>
        <time>2016-04-18T17:47:16Z</time>
      </trkpt>
      <trkpt lat="39.767611" lon="2.97209">
        <ele>71.6</ele>
        <time>2016-04-18T17:47:17Z</time>
      </trkpt>
      <trkpt lat="39.767706" lon="2.972029">
        <ele>71.6</ele>
        <time>2016-04-18T17:47:19Z</time>
      </trkpt>
      <trkpt lat="39.767795" lon="2.971848">
        <ele>71.6</ele>
        <time>2016-04-18T17:47:22Z</time>
      </trkpt>
      <trkpt lat="39.767782" lon="2.971638">
        <ele>71.6</ele>
        <time>2016-04-18T17:47:25Z</time>
      </trkpt>
      <trkpt lat="39.767739" lon="2.971503">
        <ele>72</ele>
        <time>2016-04-18T17:47:27Z</time>
      </trkpt>
      <trkpt lat="39.767722" lon="2.971428">
        <ele>72.4</ele>
        <time>2016-04-18T17:47:28Z</time>
      </trkpt>
      <trkpt lat="39.76772" lon="2.971349">
        <ele>72.8</ele>
        <time>2016-04-18T17:47:29Z</time>
      </trkpt>
      <trkpt lat="39.767733" lon="2.971271">
        <ele>73.2</ele>
        <time>2016-04-18T17:47:30Z</time>
      </trkpt>
      <trkpt lat="39.767755" lon="2.971196">
        <ele>73.6</ele>
        <time>2016-04-18T17:47:31Z</time>
      </trkpt>
      <trkpt lat="39.767814" lon="2.971056">
        <ele>73.6</ele>
        <time>2016-04-18T17:47:33Z</time>
      </trkpt>
      <trkpt lat="39.767889" lon="2.970935">
        <ele>73.6</ele>
        <time>2016-04-18T17:47:35Z</time>
      </trkpt>
      <trkpt lat="39.768026" lon="2.970713">
        <ele>73.6</ele>
        <time>2016-04-18T17:47:39Z</time>
      </trkpt>
      <trkpt lat="39.768263" lon="2.970301">
        <ele>73.6</ele>
        <time>2016-04-18T17:47:46Z</time>
      </trkpt>
      <trkpt lat="39.768512" lon="2.969887">
        <ele>73.6</ele>
        <time>2016-04-18T17:47:53Z</time>
      </trkpt>
      <trkpt lat="39.768731" lon="2.969536">
        <ele>74</ele>
        <time>2016-04-18T17:47:59Z</time>
      </trkpt>
      <trkpt lat="39.76877" lon="2.969479">
        <ele>74.4</ele>
        <time>2016-04-18T17:48:00Z</time>
      </trkpt>
      <trkpt lat="39.768805" lon="2.969426">
        <ele>74.8</ele>
        <time>2016-04-18T17:48:01Z</time>
      </trkpt>
      <trkpt lat="39.768841" lon="2.969374">
        <ele>75.2</ele>
        <time>2016-04-18T17:48:02Z</time>
      </trkpt>
      <trkpt lat="39.768875" lon="2.969324">
        <ele>75.8</ele>
        <time>2016-04-18T17:48:03Z</time>
      </trkpt>
      <trkpt lat="39.769126" lon="2.968971">
        <ele>76.2</ele>
        <time>2016-04-18T17:48:10Z</time>
      </trkpt>
      <trkpt lat="39.769164" lon="2.968928">
        <ele>76.6</ele>
        <time>2016-04-18T17:48:11Z</time>
      </trkpt>
      <trkpt lat="39.769199" lon="2.968883">
        <ele>77</ele>
        <time>2016-04-18T17:48:12Z</time>
      </trkpt>
      <trkpt lat="39.769233" lon="2.96884">
        <ele>77.4</ele>
        <time>2016-04-18T17:48:13Z</time>
      </trkpt>
      <trkpt lat="39.769266" lon="2.968801">
        <ele>77.8</ele>
        <time>2016-04-18T17:48:14Z</time>
      </trkpt>
      <trkpt lat="39.769408" lon="2.968638">
        <ele>77.8</ele>
        <time>2016-04-18T17:48:18Z</time>
      </trkpt>
      <trkpt lat="39.7695" lon="2.9686">
        <ele>78.2</ele>
        <time>2016-04-18T17:48:20Z</time>
      </trkpt>
      <trkpt lat="39.769546" lon="2.968602">
        <ele>78.6</ele>
        <time>2016-04-18T17:48:21Z</time>
      </trkpt>
      <trkpt lat="39.769588" lon="2.968616">
        <ele>79</ele>
        <time>2016-04-18T17:48:22Z</time>
      </trkpt>
      <trkpt lat="39.769622" lon="2.968643">
        <ele>79.4</ele>
        <time>2016-04-18T17:48:23Z</time>
      </trkpt>
      <trkpt lat="39.769652" lon="2.96868">
        <ele>79.8</ele>
        <time>2016-04-18T17:48:24Z</time>
      </trkpt>
      <trkpt lat="39.769697" lon="2.968762">
        <ele>80.2</ele>
        <time>2016-04-18T17:48:26Z</time>
      </trkpt>
      <trkpt lat="39.769717" lon="2.968807">
        <ele>80.6</ele>
        <time>2016-04-18T17:48:27Z</time>
      </trkpt>
      <trkpt lat="39.769739" lon="2.96885">
        <ele>81.2</ele>
        <time>2016-04-18T17:48:28Z</time>
      </trkpt>
      <trkpt lat="39.76976" lon="2.968891">
        <ele>81.6</ele>
        <time>2016-04-18T17:48:29Z</time>
      </trkpt>
      <trkpt lat="39.769781" lon="2.968934">
        <ele>82</ele>
        <time>2016-04-18T17:48:30Z</time>
      </trkpt>
      <trkpt lat="39.769877" lon="2.969129">
        <ele>82.4</ele>
        <time>2016-04-18T17:48:35Z</time>
      </trkpt>
      <trkpt lat="39.769894" lon="2.969165">
        <ele>82.8</ele>
        <time>2016-04-18T17:48:36Z</time>
      </trkpt>
      <trkpt lat="39.76991" lon="2.969201">
        <ele>83.2</ele>
        <time>2016-04-18T17:48:37Z</time>
      </trkpt>
      <trkpt lat="39.769927" lon="2.969236">
        <ele>83.6</ele>
        <time>2016-04-18T17:48:38Z</time>
      </trkpt>
      <trkpt lat="39.769944" lon="2.969273">
        <ele>84</ele>
        <time>2016-04-18T17:48:39Z</time>
      </trkpt>
      <trkpt lat="39.770013" lon="2.969412">
        <ele>84.4</ele>
        <time>2016-04-18T17:48:43Z</time>
      </trkpt>
      <trkpt lat="39.770032" lon="2.969446">
        <ele>84.8</ele>
        <time>2016-04-18T17:48:44Z</time>
      </trkpt>
      <trkpt lat="39.77005" lon="2.969481">
        <ele>85.2</ele>
        <time>2016-04-18T17:48:45Z</time>
      </trkpt>
      <trkpt lat="39.770069" lon="2.969514">
        <ele>85.6</ele>
        <time>2016-04-18T17:48:46Z</time>
      </trkpt>
      <trkpt lat="39.77009" lon="2.969548">
        <ele>86</ele>
        <time>2016-04-18T17:48:47Z</time>
      </trkpt>
      <trkpt lat="39.770288" lon="2.969729">
        <ele>86</ele>
        <time>2016-04-18T17:48:54Z</time>
      </trkpt>
      <trkpt lat="39.770352" lon="2.96977">
        <ele>86.4</ele>
        <time>2016-04-18T17:48:56Z</time>
      </trkpt>
      <trkpt lat="39.770382" lon="2.969783">
        <ele>86.8</ele>
        <time>2016-04-18T17:48:57Z</time>
      </trkpt>
      <trkpt lat="39.770413" lon="2.969792">
        <ele>87.2</ele>
        <time>2016-04-18T17:48:58Z</time>
      </trkpt>
      <trkpt lat="39.770443" lon="2.969798">
        <ele>87.6</ele>
        <time>2016-04-18T17:48:59Z</time>
      </trkpt>
      <trkpt lat="39.770474" lon="2.9698">
        <ele>88</ele>
        <time>2016-04-18T17:49:00Z</time>
      </trkpt>
      <trkpt lat="39.770507" lon="2.969802">
        <ele>88</ele>
        <time>2016-04-18T17:49:01Z</time>
      </trkpt>
      <trkpt lat="39.770752" lon="2.969772">
        <ele>88</ele>
        <time>2016-04-18T17:49:08Z</time>
      </trkpt>
      <trkpt lat="39.770787" lon="2.969762">
        <ele>88.6</ele>
        <time>2016-04-18T17:49:09Z</time>
      </trkpt>
      <trkpt lat="39.770822" lon="2.969752">
        <ele>89</ele>
        <time>2016-04-18T17:49:10Z</time>
      </trkpt>
      <trkpt lat="39.770856" lon="2.969743">
        <ele>89.4</ele>
        <time>2016-04-18T17:49:11Z</time>
      </trkpt>
      <trkpt lat="39.770888" lon="2.969734">
        <ele>89.8</ele>
        <time>2016-04-18T17:49:12Z</time>
      </trkpt>
      <trkpt lat="39.770922" lon="2.969731">
        <ele>90.2</ele>
        <time>2016-04-18T17:49:13Z</time>
      </trkpt>
      <trkpt lat="39.77106" lon="2.969709">
        <ele>90.2</ele>
        <time>2016-04-18T17:49:17Z</time>
      </trkpt>
      <trkpt lat="39.771191" lon="2.969673">
        <ele>90.8</ele>
        <time>2016-04-18T17:49:21Z</time>
      </trkpt>
      <trkpt lat="39.771223" lon="2.969664">
        <ele>91.2</ele>
        <time>2016-04-18T17:49:22Z</time>
      </trkpt>
      <trkpt lat="39.771254" lon="2.969653">
        <ele>91.6</ele>
        <time>2016-04-18T17:49:23Z</time>
      </trkpt>
      <trkpt lat="39.771285" lon="2.969642">
        <ele>92</ele>
        <time>2016-04-18T17:49:24Z</time>
      </trkpt>
      <trkpt lat="39.771315" lon="2.969629">
        <ele>92.6</ele>
        <time>2016-04-18T17:49:25Z</time>
      </trkpt>
      <trkpt lat="39.771396" lon="2.969587">
        <ele>93</ele>
        <time>2016-04-18T17:49:28Z</time>
      </trkpt>
      <trkpt lat="39.771421" lon="2.969571">
        <ele>93.4</ele>
        <time>2016-04-18T17:49:29Z</time>
      </trkpt>
      <trkpt lat="39.771444" lon="2.969552">
        <ele>93.8</ele>
        <time>2016-04-18T17:49:30Z</time>
      </trkpt>
      <trkpt lat="39.771468" lon="2.969537">
        <ele>94.2</ele>
        <time>2016-04-18T17:49:31Z</time>
      </trkpt>
      <trkpt lat="39.771493" lon="2.969524">
        <ele>94.6</ele>
        <time>2016-04-18T17:49:32Z</time>
      </trkpt>
      <trkpt lat="39.771518" lon="2.969513">
        <ele>94.6</ele>
        <time>2016-04-18T17:49:33Z</time>
      </trkpt>
      <trkpt lat="39.771644" lon="2.969468">
        <ele>95.4</ele>
        <time>2016-04-18T17:49:38Z</time>
      </trkpt>
      <trkpt lat="39.771668" lon="2.969456">
        <ele>96</ele>
        <time>2016-04-18T17:49:39Z</time>
      </trkpt>
      <trkpt lat="39.771691" lon="2.969441">
        <ele>96.4</ele>
        <time>2016-04-18T17:49:40Z</time>
      </trkpt>
      <trkpt lat="39.771718" lon="2.969428">
        <ele>96.8</ele>
        <time>2016-04-18T17:49:41Z</time>
      </trkpt>
      <trkpt lat="39.77179" lon="2.969386">
        <ele>97.2</ele>
        <time>2016-04-18T17:49:44Z</time>
      </trkpt>
      <trkpt lat="39.771816" lon="2.969369">
        <ele>97.6</ele>
        <time>2016-04-18T17:49:45Z</time>
      </trkpt>
      <trkpt lat="39.771842" lon="2.969355">
        <ele>98</ele>
        <time>2016-04-18T17:49:46Z</time>
      </trkpt>
      <trkpt lat="39.77187" lon="2.969341">
        <ele>98.4</ele>
        <time>2016-04-18T17:49:47Z</time>
      </trkpt>
      <trkpt lat="39.771899" lon="2.969329">
        <ele>98.8</ele>
        <time>2016-04-18T17:49:48Z</time>
      </trkpt>
      <trkpt lat="39.772076" lon="2.969218">
        <ele>99.2</ele>
        <time>2016-04-18T17:49:55Z</time>
      </trkpt>
      <trkpt lat="39.772101" lon="2.969198">
        <ele>99.6</ele>
        <time>2016-04-18T17:49:56Z</time>
      </trkpt>
      <trkpt lat="39.772126" lon="2.969176">
        <ele>100</ele>
        <time>2016-04-18T17:49:57Z</time>
      </trkpt>
      <trkpt lat="39.772149" lon="2.969155">
        <ele>100.6</ele>
        <time>2016-04-18T17:49:58Z</time>
      </trkpt>
      <trkpt lat="39.772173" lon="2.969136">
        <ele>101</ele>
        <time>2016-04-18T17:49:59Z</time>
      </trkpt>
      <trkpt lat="39.772252" lon="2.969056">
        <ele>101.8</ele>
        <time>2016-04-18T17:50:03Z</time>
      </trkpt>
      <trkpt lat="39.772268" lon="2.969035">
        <ele>102.4</ele>
        <time>2016-04-18T17:50:04Z</time>
      </trkpt>
      <trkpt lat="39.77228" lon="2.969006">
        <ele>102.8</ele>
        <time>2016-04-18T17:50:05Z</time>
      </trkpt>
      <trkpt lat="39.772293" lon="2.968974">
        <ele>103.2</ele>
        <time>2016-04-18T17:50:06Z</time>
      </trkpt>
      <trkpt lat="39.772365" lon="2.968774">
        <ele>103.6</ele>
        <time>2016-04-18T17:50:12Z</time>
      </trkpt>
      <trkpt lat="39.772374" lon="2.968739">
        <ele>104</ele>
        <time>2016-04-18T17:50:13Z</time>
      </trkpt>
      <trkpt lat="39.772383" lon="2.968707">
        <ele>104.4</ele>
        <time>2016-04-18T17:50:14Z</time>
      </trkpt>
      <trkpt lat="39.772394" lon="2.968676">
        <ele>104.8</ele>
        <time>2016-04-18T17:50:15Z</time>
      </trkpt>
      <trkpt lat="39.772408" lon="2.968643">
        <ele>105.4</ele>
        <time>2016-04-18T17:50:16Z</time>
      </trkpt>
      <trkpt lat="39.772422" lon="2.96861">
        <ele>105.4</ele>
        <time>2016-04-18T17:50:17Z</time>
      </trkpt>
      <trkpt lat="39.772496" lon="2.968451">
        <ele>105.8</ele>
        <time>2016-04-18T17:50:22Z</time>
      </trkpt>
      <trkpt lat="39.772512" lon="2.968421">
        <ele>106.2</ele>
        <time>2016-04-18T17:50:23Z</time>
      </trkpt>
      <trkpt lat="39.772529" lon="2.968387">
        <ele>106.6</ele>
        <time>2016-04-18T17:50:24Z</time>
      </trkpt>
      <trkpt lat="39.772544" lon="2.968354">
        <ele>107</ele>
        <time>2016-04-18T17:50:25Z</time>
      </trkpt>
      <trkpt lat="39.772562" lon="2.968323">
        <ele>107.4</ele>
        <time>2016-04-18T17:50:26Z</time>
      </trkpt>
      <trkpt lat="39.772625" lon="2.968263">
        <ele>107.4</ele>
        <time>2016-04-18T17:50:29Z</time>
      </trkpt>
      <trkpt lat="39.772689" lon="2.968212">
        <ele>107.8</ele>
        <time>2016-04-18T17:50:32Z</time>
      </trkpt>
      <trkpt lat="39.772712" lon="2.968194">
        <ele>108.2</ele>
        <time>2016-04-18T17:50:33Z</time>
      </trkpt>
      <trkpt lat="39.772732" lon="2.968175">
        <ele>108.8</ele>
        <time>2016-04-18T17:50:34Z</time>
      </trkpt>
      <trkpt lat="39.772752" lon="2.968157">
        <ele>109.2</ele>
        <time>2016-04-18T17:50:35Z</time>
      </trkpt>
      <trkpt lat="39.772773" lon="2.968137">
        <ele>109.6</ele>
        <time>2016-04-18T17:50:36Z</time>
      </trkpt>
      <trkpt lat="39.772831" lon="2.968077">
        <ele>109.6</ele>
        <time>2016-04-18T17:50:39Z</time>
      </trkpt>
      <trkpt lat="39.772945" lon="2.967995">
        <ele>110</ele>
        <time>2016-04-18T17:50:44Z</time>
      </trkpt>
      <trkpt lat="39.772968" lon="2.967979">
        <ele>110.4</ele>
        <time>2016-04-18T17:50:45Z</time>
      </trkpt>
      <trkpt lat="39.772988" lon="2.967963">
        <ele>110.8</ele>
        <time>2016-04-18T17:50:46Z</time>
      </trkpt>
      <trkpt lat="39.773009" lon="2.967945">
        <ele>111.2</ele>
        <time>2016-04-18T17:50:47Z</time>
      </trkpt>
      <trkpt lat="39.773033" lon="2.967928">
        <ele>111.6</ele>
        <time>2016-04-18T17:50:48Z</time>
      </trkpt>
      <trkpt lat="39.773132" lon="2.967861">
        <ele>112</ele>
        <time>2016-04-18T17:50:52Z</time>
      </trkpt>
      <trkpt lat="39.773156" lon="2.967846">
        <ele>112.6</ele>
        <time>2016-04-18T17:50:53Z</time>
      </trkpt>
      <trkpt lat="39.773181" lon="2.967832">
        <ele>113</ele>
        <time>2016-04-18T17:50:54Z</time>
      </trkpt>
      <trkpt lat="39.773207" lon="2.967816">
        <ele>113.4</ele>
        <time>2016-04-18T17:50:55Z</time>
      </trkpt>
      <trkpt lat="39.773233" lon="2.967804">
        <ele>113.8</ele>
        <time>2016-04-18T17:50:56Z</time>
      </trkpt>
      <trkpt lat="39.773285" lon="2.967774">
        <ele>114.2</ele>
        <time>2016-04-18T17:50:58Z</time>
      </trkpt>
      <trkpt lat="39.773313" lon="2.96776">
        <ele>114.6</ele>
        <time>2016-04-18T17:50:59Z</time>
      </trkpt>
      <trkpt lat="39.77334" lon="2.967747">
        <ele>115.2</ele>
        <time>2016-04-18T17:51:00Z</time>
      </trkpt>
      <trkpt lat="39.773365" lon="2.967731">
        <ele>115.6</ele>
        <time>2016-04-18T17:51:01Z</time>
      </trkpt>
      <trkpt lat="39.773393" lon="2.967717">
        <ele>116</ele>
        <time>2016-04-18T17:51:02Z</time>
      </trkpt>
      <trkpt lat="39.773478" lon="2.967673">
        <ele>116.4</ele>
        <time>2016-04-18T17:51:05Z</time>
      </trkpt>
      <trkpt lat="39.773504" lon="2.967655">
        <ele>116.8</ele>
        <time>2016-04-18T17:51:06Z</time>
      </trkpt>
      <trkpt lat="39.773533" lon="2.967636">
        <ele>117.4</ele>
        <time>2016-04-18T17:51:07Z</time>
      </trkpt>
      <trkpt lat="39.77356" lon="2.967616">
        <ele>117.8</ele>
        <time>2016-04-18T17:51:08Z</time>
      </trkpt>
      <trkpt lat="39.773586" lon="2.967593">
        <ele>118.2</ele>
        <time>2016-04-18T17:51:09Z</time>
      </trkpt>
      <trkpt lat="39.773727" lon="2.967472">
        <ele>118.6</ele>
        <time>2016-04-18T17:51:15Z</time>
      </trkpt>
      <trkpt lat="39.773748" lon="2.967448">
        <ele>119</ele>
        <time>2016-04-18T17:51:16Z</time>
      </trkpt>
      <trkpt lat="39.773767" lon="2.96742">
        <ele>119.8</ele>
        <time>2016-04-18T17:51:17Z</time>
      </trkpt>
      <trkpt lat="39.773788" lon="2.967394">
        <ele>120.2</ele>
        <time>2016-04-18T17:51:18Z</time>
      </trkpt>
      <trkpt lat="39.773866" lon="2.96728">
        <ele>120.2</ele>
        <time>2016-04-18T17:51:22Z</time>
      </trkpt>
      <trkpt lat="39.773953" lon="2.967186">
        <ele>120.6</ele>
        <time>2016-04-18T17:51:26Z</time>
      </trkpt>
      <trkpt lat="39.773974" lon="2.967159">
        <ele>121</ele>
        <time>2016-04-18T17:51:27Z</time>
      </trkpt>
      <trkpt lat="39.773994" lon="2.967132">
        <ele>121.4</ele>
        <time>2016-04-18T17:51:28Z</time>
      </trkpt>
      <trkpt lat="39.774012" lon="2.967101">
        <ele>122</ele>
        <time>2016-04-18T17:51:29Z</time>
      </trkpt>
      <trkpt lat="39.774035" lon="2.967072">
        <ele>122.4</ele>
        <time>2016-04-18T17:51:30Z</time>
      </trkpt>
      <trkpt lat="39.774157" lon="2.966926">
        <ele>122.4</ele>
        <time>2016-04-18T17:51:36Z</time>
      </trkpt>
      <trkpt lat="39.774217" lon="2.966852">
        <ele>122.8</ele>
        <time>2016-04-18T17:51:39Z</time>
      </trkpt>
      <trkpt lat="39.774235" lon="2.966824">
        <ele>123.2</ele>
        <time>2016-04-18T17:51:40Z</time>
      </trkpt>
      <trkpt lat="39.774256" lon="2.966797">
        <ele>124</ele>
        <time>2016-04-18T17:51:41Z</time>
      </trkpt>
      <trkpt lat="39.774279" lon="2.966775">
        <ele>124.4</ele>
        <time>2016-04-18T17:51:42Z</time>
      </trkpt>
      <trkpt lat="39.774407" lon="2.96663">
        <ele>124.4</ele>
        <time>2016-04-18T17:51:47Z</time>
      </trkpt>
      <trkpt lat="39.774518" lon="2.96652">
        <ele>124.4</ele>
        <time>2016-04-18T17:51:51Z</time>
      </trkpt>
      <trkpt lat="39.774551" lon="2.966498">
        <ele>124.4</ele>
        <time>2016-04-18T17:51:52Z</time>
      </trkpt>
      <trkpt lat="39.774727" lon="2.966388">
        <ele>124.4</ele>
        <time>2016-04-18T17:51:57Z</time>
      </trkpt>
      <trkpt lat="39.774761" lon="2.966363">
        <ele>124.4</ele>
        <time>2016-04-18T17:51:58Z</time>
      </trkpt>
      <trkpt lat="39.774787" lon="2.966325">
        <ele>124.8</ele>
        <time>2016-04-18T17:51:59Z</time>
      </trkpt>
      <trkpt lat="39.774799" lon="2.966279">
        <ele>125.2</ele>
        <time>2016-04-18T17:52:00Z</time>
      </trkpt>
      <trkpt lat="39.774814" lon="2.966234">
        <ele>125.6</ele>
        <time>2016-04-18T17:52:01Z</time>
      </trkpt>
      <trkpt lat="39.774833" lon="2.966192">
        <ele>126.2</ele>
        <time>2016-04-18T17:52:02Z</time>
      </trkpt>
      <trkpt lat="39.774856" lon="2.966149">
        <ele>126.6</ele>
        <time>2016-04-18T17:52:03Z</time>
      </trkpt>
      <trkpt lat="39.77492" lon="2.966047">
        <ele>126.6</ele>
        <time>2016-04-18T17:52:05Z</time>
      </trkpt>
      <trkpt lat="39.774996" lon="2.96593">
        <ele>126.6</ele>
        <time>2016-04-18T17:52:07Z</time>
      </trkpt>
      <trkpt lat="39.775095" lon="2.965776">
        <ele>126.6</ele>
        <time>2016-04-18T17:52:11Z</time>
      </trkpt>
      <trkpt lat="39.775246" lon="2.965573">
        <ele>126.2</ele>
        <time>2016-04-18T17:52:17Z</time>
      </trkpt>
      <trkpt lat="39.77528" lon="2.965523">
        <ele>125.6</ele>
        <time>2016-04-18T17:52:18Z</time>
      </trkpt>
      <trkpt lat="39.775315" lon="2.965482">
        <ele>125.2</ele>
        <time>2016-04-18T17:52:19Z</time>
      </trkpt>
      <trkpt lat="39.77535" lon="2.965443">
        <ele>124.8</ele>
        <time>2016-04-18T17:52:20Z</time>
      </trkpt>
      <trkpt lat="39.775385" lon="2.965403">
        <ele>124.4</ele>
        <time>2016-04-18T17:52:21Z</time>
      </trkpt>
      <trkpt lat="39.775499" lon="2.965259">
        <ele>124.4</ele>
        <time>2016-04-18T17:52:24Z</time>
      </trkpt>
      <trkpt lat="39.775648" lon="2.965041">
        <ele>124.4</ele>
        <time>2016-04-18T17:52:28Z</time>
      </trkpt>
      <trkpt lat="39.775689" lon="2.964995">
        <ele>124.4</ele>
        <time>2016-04-18T17:52:29Z</time>
      </trkpt>
      <trkpt lat="39.775862" lon="2.964791">
        <ele>125</ele>
        <time>2016-04-18T17:52:34Z</time>
      </trkpt>
      <trkpt lat="39.775894" lon="2.964755">
        <ele>125.6</ele>
        <time>2016-04-18T17:52:35Z</time>
      </trkpt>
      <trkpt lat="39.775925" lon="2.964728">
        <ele>126.2</ele>
        <time>2016-04-18T17:52:36Z</time>
      </trkpt>
      <trkpt lat="39.775956" lon="2.964698">
        <ele>126.8</ele>
        <time>2016-04-18T17:52:37Z</time>
      </trkpt>
      <trkpt lat="39.775981" lon="2.964662">
        <ele>127.6</ele>
        <time>2016-04-18T17:52:38Z</time>
      </trkpt>
      <trkpt lat="39.776061" lon="2.964533">
        <ele>127.6</ele>
        <time>2016-04-18T17:52:41Z</time>
      </trkpt>
      <trkpt lat="39.776162" lon="2.964382">
        <ele>127</ele>
        <time>2016-04-18T17:52:44Z</time>
      </trkpt>
      <trkpt lat="39.776195" lon="2.964329">
        <ele>126.4</ele>
        <time>2016-04-18T17:52:45Z</time>
      </trkpt>
      <trkpt lat="39.776227" lon="2.964283">
        <ele>126</ele>
        <time>2016-04-18T17:52:46Z</time>
      </trkpt>
      <trkpt lat="39.776258" lon="2.964233">
        <ele>125.4</ele>
        <time>2016-04-18T17:52:47Z</time>
      </trkpt>
      <trkpt lat="39.776287" lon="2.964172">
        <ele>125</ele>
        <time>2016-04-18T17:52:48Z</time>
      </trkpt>
      <trkpt lat="39.776383" lon="2.963961">
        <ele>125</ele>
        <time>2016-04-18T17:52:51Z</time>
      </trkpt>
      <trkpt lat="39.77646" lon="2.963822">
        <ele>124.6</ele>
        <time>2016-04-18T17:52:53Z</time>
      </trkpt>
      <trkpt lat="39.776501" lon="2.963757">
        <ele>124</ele>
        <time>2016-04-18T17:52:54Z</time>
      </trkpt>
      <trkpt lat="39.77654" lon="2.963691">
        <ele>123.6</ele>
        <time>2016-04-18T17:52:55Z</time>
      </trkpt>
      <trkpt lat="39.776576" lon="2.963623">
        <ele>123.2</ele>
        <time>2016-04-18T17:52:56Z</time>
      </trkpt>
      <trkpt lat="39.776609" lon="2.963564">
        <ele>122.8</ele>
        <time>2016-04-18T17:52:57Z</time>
      </trkpt>
      <trkpt lat="39.776694" lon="2.963412">
        <ele>122.8</ele>
        <time>2016-04-18T17:53:00Z</time>
      </trkpt>
      <trkpt lat="39.776705" lon="2.963368">
        <ele>122.8</ele>
        <time>2016-04-18T17:53:01Z</time>
      </trkpt>
      <trkpt lat="39.776693" lon="2.963048">
        <ele>123.2</ele>
        <time>2016-04-18T17:53:08Z</time>
      </trkpt>
      <trkpt lat="39.776687" lon="2.962998">
        <ele>123.6</ele>
        <time>2016-04-18T17:53:09Z</time>
      </trkpt>
      <trkpt lat="39.776683" lon="2.962947">
        <ele>124</ele>
        <time>2016-04-18T17:53:10Z</time>
      </trkpt>
      <trkpt lat="39.77668" lon="2.962894">
        <ele>124.6</ele>
        <time>2016-04-18T17:53:11Z</time>
      </trkpt>
      <trkpt lat="39.776681" lon="2.962836">
        <ele>125</ele>
        <time>2016-04-18T17:53:12Z</time>
      </trkpt>
      <trkpt lat="39.776683" lon="2.962781">
        <ele>125.4</ele>
        <time>2016-04-18T17:53:13Z</time>
      </trkpt>
      <trkpt lat="39.776688" lon="2.962726">
        <ele>125.8</ele>
        <time>2016-04-18T17:53:14Z</time>
      </trkpt>
      <trkpt lat="39.77669" lon="2.962673">
        <ele>126.2</ele>
        <time>2016-04-18T17:53:15Z</time>
      </trkpt>
      <trkpt lat="39.776693" lon="2.96262">
        <ele>126.6</ele>
        <time>2016-04-18T17:53:16Z</time>
      </trkpt>
      <trkpt lat="39.776693" lon="2.962568">
        <ele>127.2</ele>
        <time>2016-04-18T17:53:17Z</time>
      </trkpt>
      <trkpt lat="39.776697" lon="2.962421">
        <ele>127.2</ele>
        <time>2016-04-18T17:53:21Z</time>
      </trkpt>
      <trkpt lat="39.776711" lon="2.96241">
        <ele>127.6</ele>
        <time>2016-04-18T17:53:22Z</time>
      </trkpt>
      <trkpt lat="39.776729" lon="2.962385">
        <ele>128</ele>
        <time>2016-04-18T17:53:23Z</time>
      </trkpt>
      <trkpt lat="39.776758" lon="2.962368">
        <ele>128.4</ele>
        <time>2016-04-18T17:53:24Z</time>
      </trkpt>
      <trkpt lat="39.776794" lon="2.96234">
        <ele>128.8</ele>
        <time>2016-04-18T17:53:25Z</time>
      </trkpt>
      <trkpt lat="39.776826" lon="2.962315">
        <ele>129.2</ele>
        <time>2016-04-18T17:53:26Z</time>
      </trkpt>
      <trkpt lat="39.776909" lon="2.962258">
        <ele>129.2</ele>
        <time>2016-04-18T17:53:29Z</time>
      </trkpt>
      <trkpt lat="39.777054" lon="2.962114">
        <ele>129.2</ele>
        <time>2016-04-18T17:53:34Z</time>
      </trkpt>
      <trkpt lat="39.777251" lon="2.961913">
        <ele>129.2</ele>
        <time>2016-04-18T17:53:40Z</time>
      </trkpt>
      <trkpt lat="39.777289" lon="2.961872">
        <ele>129.2</ele>
        <time>2016-04-18T17:53:41Z</time>
      </trkpt>
      <trkpt lat="39.777471" lon="2.96167">
        <ele>129.2</ele>
        <time>2016-04-18T17:53:45Z</time>
      </trkpt>
      <trkpt lat="39.77764" lon="2.961504">
        <ele>128.8</ele>
        <time>2016-04-18T17:53:48Z</time>
      </trkpt>
      <trkpt lat="39.777695" lon="2.961443">
        <ele>128.2</ele>
        <time>2016-04-18T17:53:49Z</time>
      </trkpt>
      <trkpt lat="39.77775" lon="2.961378">
        <ele>127.8</ele>
        <time>2016-04-18T17:53:50Z</time>
      </trkpt>
      <trkpt lat="39.777808" lon="2.961314">
        <ele>127.4</ele>
        <time>2016-04-18T17:53:51Z</time>
      </trkpt>
      <trkpt lat="39.777865" lon="2.961255">
        <ele>127</ele>
        <time>2016-04-18T17:53:52Z</time>
      </trkpt>
      <trkpt lat="39.77817" lon="2.960916">
        <ele>127</ele>
        <time>2016-04-18T17:53:58Z</time>
      </trkpt>
      <trkpt lat="39.778507" lon="2.960557">
        <ele>127</ele>
        <time>2016-04-18T17:54:05Z</time>
      </trkpt>
      <trkpt lat="39.778801" lon="2.960222">
        <ele>127</ele>
        <time>2016-04-18T17:54:12Z</time>
      </trkpt>
      <trkpt lat="39.779022" lon="2.95993">
        <ele>127</ele>
        <time>2016-04-18T17:54:18Z</time>
      </trkpt>
      <trkpt lat="39.779221" lon="2.959632">
        <ele>127</ele>
        <time>2016-04-18T17:54:24Z</time>
      </trkpt>
      <trkpt lat="39.77925" lon="2.959581">
        <ele>127</ele>
        <time>2016-04-18T17:54:25Z</time>
      </trkpt>
      <trkpt lat="39.779251" lon="2.95949">
        <ele>127</ele>
        <time>2016-04-18T17:54:27Z</time>
      </trkpt>
      <trkpt lat="39.779209" lon="2.959417">
        <ele>127</ele>
        <time>2016-04-18T17:54:29Z</time>
      </trkpt>
      <trkpt lat="39.779177" lon="2.959372">
        <ele>127</ele>
        <time>2016-04-18T17:54:30Z</time>
      </trkpt>
      <trkpt lat="39.77913" lon="2.95932">
        <ele>127</ele>
        <time>2016-04-18T17:54:31Z</time>
      </trkpt>
      <trkpt lat="39.779021" lon="2.959218">
        <ele>126.6</ele>
        <time>2016-04-18T17:54:33Z</time>
      </trkpt>
      <trkpt lat="39.778966" lon="2.959175">
        <ele>126</ele>
        <time>2016-04-18T17:54:34Z</time>
      </trkpt>
      <trkpt lat="39.778909" lon="2.959133">
        <ele>125.2</ele>
        <time>2016-04-18T17:54:35Z</time>
      </trkpt>
      <trkpt lat="39.778858" lon="2.959091">
        <ele>124.6</ele>
        <time>2016-04-18T17:54:36Z</time>
      </trkpt>
      <trkpt lat="39.77881" lon="2.959055">
        <ele>124.2</ele>
        <time>2016-04-18T17:54:37Z</time>
      </trkpt>
      <trkpt lat="39.778767" lon="2.959019">
        <ele>123.8</ele>
        <time>2016-04-18T17:54:38Z</time>
      </trkpt>
      <trkpt lat="39.778741" lon="2.958968">
        <ele>123.4</ele>
        <time>2016-04-18T17:54:39Z</time>
      </trkpt>
      <trkpt lat="39.778742" lon="2.958912">
        <ele>123</ele>
        <time>2016-04-18T17:54:40Z</time>
      </trkpt>
      <trkpt lat="39.778763" lon="2.958851">
        <ele>122.4</ele>
        <time>2016-04-18T17:54:41Z</time>
      </trkpt>
      <trkpt lat="39.778789" lon="2.958785">
        <ele>122</ele>
        <time>2016-04-18T17:54:42Z</time>
      </trkpt>
      <trkpt lat="39.778817" lon="2.958717">
        <ele>121.4</ele>
        <time>2016-04-18T17:54:43Z</time>
      </trkpt>
      <trkpt lat="39.778843" lon="2.958645">
        <ele>120.8</ele>
        <time>2016-04-18T17:54:44Z</time>
      </trkpt>
      <trkpt lat="39.77887" lon="2.958576">
        <ele>120.4</ele>
        <time>2016-04-18T17:54:45Z</time>
      </trkpt>
      <trkpt lat="39.778931" lon="2.958431">
        <ele>120.4</ele>
        <time>2016-04-18T17:54:47Z</time>
      </trkpt>
      <trkpt lat="39.778959" lon="2.958356">
        <ele>119.8</ele>
        <time>2016-04-18T17:54:48Z</time>
      </trkpt>
      <trkpt lat="39.778991" lon="2.958276">
        <ele>119.2</ele>
        <time>2016-04-18T17:54:49Z</time>
      </trkpt>
      <trkpt lat="39.779022" lon="2.958194">
        <ele>118.6</ele>
        <time>2016-04-18T17:54:50Z</time>
      </trkpt>
      <trkpt lat="39.779059" lon="2.958107">
        <ele>117.8</ele>
        <time>2016-04-18T17:54:51Z</time>
      </trkpt>
      <trkpt lat="39.779095" lon="2.95801">
        <ele>117.2</ele>
        <time>2016-04-18T17:54:52Z</time>
      </trkpt>
      <trkpt lat="39.779129" lon="2.957913">
        <ele>117.2</ele>
        <time>2016-04-18T17:54:53Z</time>
      </trkpt>
      <trkpt lat="39.779204" lon="2.957709">
        <ele>116.8</ele>
        <time>2016-04-18T17:54:55Z</time>
      </trkpt>
      <trkpt lat="39.779244" lon="2.957606">
        <ele>116.4</ele>
        <time>2016-04-18T17:54:56Z</time>
      </trkpt>
      <trkpt lat="39.779282" lon="2.957503">
        <ele>116</ele>
        <time>2016-04-18T17:54:57Z</time>
      </trkpt>
      <trkpt lat="39.779319" lon="2.9574">
        <ele>115.4</ele>
        <time>2016-04-18T17:54:58Z</time>
      </trkpt>
      <trkpt lat="39.779358" lon="2.957297">
        <ele>114.2</ele>
        <time>2016-04-18T17:54:59Z</time>
      </trkpt>
      <trkpt lat="39.779403" lon="2.957194">
        <ele>113.6</ele>
        <time>2016-04-18T17:55:00Z</time>
      </trkpt>
      <trkpt lat="39.779451" lon="2.957088">
        <ele>113</ele>
        <time>2016-04-18T17:55:01Z</time>
      </trkpt>
      <trkpt lat="39.779505" lon="2.95698">
        <ele>112.4</ele>
        <time>2016-04-18T17:55:02Z</time>
      </trkpt>
      <trkpt lat="39.779555" lon="2.956881">
        <ele>112</ele>
        <time>2016-04-18T17:55:03Z</time>
      </trkpt>
      <trkpt lat="39.779609" lon="2.956783">
        <ele>111</ele>
        <time>2016-04-18T17:55:04Z</time>
      </trkpt>
      <trkpt lat="39.779676" lon="2.956694">
        <ele>110.2</ele>
        <time>2016-04-18T17:55:05Z</time>
      </trkpt>
      <trkpt lat="39.779755" lon="2.956617">
        <ele>109.4</ele>
        <time>2016-04-18T17:55:06Z</time>
      </trkpt>
      <trkpt lat="39.779834" lon="2.95655">
        <ele>108.4</ele>
        <time>2016-04-18T17:55:07Z</time>
      </trkpt>
      <trkpt lat="39.779911" lon="2.956491">
        <ele>107.8</ele>
        <time>2016-04-18T17:55:08Z</time>
      </trkpt>
      <trkpt lat="39.779987" lon="2.956444">
        <ele>107</ele>
        <time>2016-04-18T17:55:09Z</time>
      </trkpt>
      <trkpt lat="39.780069" lon="2.956423">
        <ele>106.2</ele>
        <time>2016-04-18T17:55:10Z</time>
      </trkpt>
      <trkpt lat="39.780152" lon="2.956449">
        <ele>105.4</ele>
        <time>2016-04-18T17:55:11Z</time>
      </trkpt>
      <trkpt lat="39.780232" lon="2.956507">
        <ele>104.8</ele>
        <time>2016-04-18T17:55:12Z</time>
      </trkpt>
      <trkpt lat="39.780309" lon="2.956566">
        <ele>104.2</ele>
        <time>2016-04-18T17:55:13Z</time>
      </trkpt>
      <trkpt lat="39.780387" lon="2.956625">
        <ele>103.6</ele>
        <time>2016-04-18T17:55:14Z</time>
      </trkpt>
      <trkpt lat="39.780472" lon="2.956659">
        <ele>103</ele>
        <time>2016-04-18T17:55:15Z</time>
      </trkpt>
      <trkpt lat="39.780558" lon="2.956674">
        <ele>102.4</ele>
        <time>2016-04-18T17:55:16Z</time>
      </trkpt>
      <trkpt lat="39.780649" lon="2.956682">
        <ele>101.8</ele>
        <time>2016-04-18T17:55:17Z</time>
      </trkpt>
      <trkpt lat="39.780746" lon="2.956681">
        <ele>101.2</ele>
        <time>2016-04-18T17:55:18Z</time>
      </trkpt>
      <trkpt lat="39.780838" lon="2.956679">
        <ele>100.4</ele>
        <time>2016-04-18T17:55:19Z</time>
      </trkpt>
      <trkpt lat="39.78093" lon="2.956678">
        <ele>99.8</ele>
        <time>2016-04-18T17:55:20Z</time>
      </trkpt>
      <trkpt lat="39.781021" lon="2.956673">
        <ele>99</ele>
        <time>2016-04-18T17:55:21Z</time>
      </trkpt>
      <trkpt lat="39.781112" lon="2.95667">
        <ele>98.4</ele>
        <time>2016-04-18T17:55:22Z</time>
      </trkpt>
      <trkpt lat="39.781202" lon="2.956668">
        <ele>97.6</ele>
        <time>2016-04-18T17:55:23Z</time>
      </trkpt>
      <trkpt lat="39.781392" lon="2.956666">
        <ele>97.2</ele>
        <time>2016-04-18T17:55:25Z</time>
      </trkpt>
      <trkpt lat="39.781486" lon="2.956663">
        <ele>96.6</ele>
        <time>2016-04-18T17:55:26Z</time>
      </trkpt>
      <trkpt lat="39.78158" lon="2.956657">
        <ele>96.2</ele>
        <time>2016-04-18T17:55:27Z</time>
      </trkpt>
      <trkpt lat="39.781678" lon="2.956654">
        <ele>95.6</ele>
        <time>2016-04-18T17:55:28Z</time>
      </trkpt>
      <trkpt lat="39.781775" lon="2.956654">
        <ele>95</ele>
        <time>2016-04-18T17:55:29Z</time>
      </trkpt>
      <trkpt lat="39.781876" lon="2.956653">
        <ele>94.6</ele>
        <time>2016-04-18T17:55:30Z</time>
      </trkpt>
      <trkpt lat="39.781977" lon="2.956652">
        <ele>94</ele>
        <time>2016-04-18T17:55:31Z</time>
      </trkpt>
      <trkpt lat="39.782078" lon="2.956651">
        <ele>93.4</ele>
        <time>2016-04-18T17:55:32Z</time>
      </trkpt>
      <trkpt lat="39.782186" lon="2.95665">
        <ele>92.8</ele>
        <time>2016-04-18T17:55:33Z</time>
      </trkpt>
      <trkpt lat="39.782288" lon="2.956645">
        <ele>92.2</ele>
        <time>2016-04-18T17:55:34Z</time>
      </trkpt>
      <trkpt lat="39.782395" lon="2.956639">
        <ele>91.6</ele>
        <time>2016-04-18T17:55:35Z</time>
      </trkpt>
      <trkpt lat="39.782497" lon="2.956631">
        <ele>90.8</ele>
        <time>2016-04-18T17:55:36Z</time>
      </trkpt>
      <trkpt lat="39.782596" lon="2.956638">
        <ele>90.2</ele>
        <time>2016-04-18T17:55:37Z</time>
      </trkpt>
      <trkpt lat="39.782692" lon="2.956653">
        <ele>89.4</ele>
        <time>2016-04-18T17:55:38Z</time>
      </trkpt>
      <trkpt lat="39.782784" lon="2.956675">
        <ele>88.6</ele>
        <time>2016-04-18T17:55:39Z</time>
      </trkpt>
      <trkpt lat="39.78288" lon="2.95671">
        <ele>88</ele>
        <time>2016-04-18T17:55:40Z</time>
      </trkpt>
      <trkpt lat="39.782966" lon="2.956758">
        <ele>87.2</ele>
        <time>2016-04-18T17:55:41Z</time>
      </trkpt>
      <trkpt lat="39.783049" lon="2.956821">
        <ele>86.6</ele>
        <time>2016-04-18T17:55:42Z</time>
      </trkpt>
      <trkpt lat="39.783128" lon="2.956892">
        <ele>85.8</ele>
        <time>2016-04-18T17:55:43Z</time>
      </trkpt>
      <trkpt lat="39.783205" lon="2.956967">
        <ele>85</ele>
        <time>2016-04-18T17:55:44Z</time>
      </trkpt>
      <trkpt lat="39.783288" lon="2.95705">
        <ele>84.2</ele>
        <time>2016-04-18T17:55:45Z</time>
      </trkpt>
      <trkpt lat="39.78337" lon="2.957131">
        <ele>83.4</ele>
        <time>2016-04-18T17:55:46Z</time>
      </trkpt>
      <trkpt lat="39.783456" lon="2.957213">
        <ele>82.8</ele>
        <time>2016-04-18T17:55:47Z</time>
      </trkpt>
      <trkpt lat="39.783548" lon="2.957295">
        <ele>82</ele>
        <time>2016-04-18T17:55:48Z</time>
      </trkpt>
      <trkpt lat="39.783635" lon="2.957377">
        <ele>80.2</ele>
        <time>2016-04-18T17:55:49Z</time>
      </trkpt>
      <trkpt lat="39.783721" lon="2.95746">
        <ele>79.2</ele>
        <time>2016-04-18T17:55:50Z</time>
      </trkpt>
      <trkpt lat="39.783803" lon="2.957548">
        <ele>78.2</ele>
        <time>2016-04-18T17:55:51Z</time>
      </trkpt>
      <trkpt lat="39.783888" lon="2.957627">
        <ele>77.2</ele>
        <time>2016-04-18T17:55:52Z</time>
      </trkpt>
      <trkpt lat="39.783978" lon="2.957694">
        <ele>76.4</ele>
        <time>2016-04-18T17:55:53Z</time>
      </trkpt>
      <trkpt lat="39.784074" lon="2.957738">
        <ele>75.4</ele>
        <time>2016-04-18T17:55:54Z</time>
      </trkpt>
      <trkpt lat="39.784169" lon="2.957773">
        <ele>75.4</ele>
        <time>2016-04-18T17:55:55Z</time>
      </trkpt>
      <trkpt lat="39.784269" lon="2.957807">
        <ele>74.8</ele>
        <time>2016-04-18T17:55:56Z</time>
      </trkpt>
      <trkpt lat="39.784362" lon="2.957842">
        <ele>74.2</ele>
        <time>2016-04-18T17:55:57Z</time>
      </trkpt>
      <trkpt lat="39.784455" lon="2.957875">
        <ele>73.6</ele>
        <time>2016-04-18T17:55:58Z</time>
      </trkpt>
      <trkpt lat="39.784548" lon="2.95791">
        <ele>73</ele>
        <time>2016-04-18T17:55:59Z</time>
      </trkpt>
      <trkpt lat="39.784642" lon="2.957942">
        <ele>72.4</ele>
        <time>2016-04-18T17:56:00Z</time>
      </trkpt>
      <trkpt lat="39.784737" lon="2.957978">
        <ele>71.8</ele>
        <time>2016-04-18T17:56:01Z</time>
      </trkpt>
      <trkpt lat="39.784836" lon="2.958016">
        <ele>71.2</ele>
        <time>2016-04-18T17:56:02Z</time>
      </trkpt>
      <trkpt lat="39.784938" lon="2.958054">
        <ele>70.6</ele>
        <time>2016-04-18T17:56:03Z</time>
      </trkpt>
      <trkpt lat="39.785042" lon="2.958101">
        <ele>70.2</ele>
        <time>2016-04-18T17:56:04Z</time>
      </trkpt>
      <trkpt lat="39.785143" lon="2.958142">
        <ele>69.6</ele>
        <time>2016-04-18T17:56:05Z</time>
      </trkpt>
      <trkpt lat="39.785243" lon="2.958181">
        <ele>69.2</ele>
        <time>2016-04-18T17:56:06Z</time>
      </trkpt>
      <trkpt lat="39.785345" lon="2.95822">
        <ele>68.8</ele>
        <time>2016-04-18T17:56:07Z</time>
      </trkpt>
      <trkpt lat="39.785446" lon="2.958254">
        <ele>68.4</ele>
        <time>2016-04-18T17:56:08Z</time>
      </trkpt>
      <trkpt lat="39.785546" lon="2.958292">
        <ele>67.8</ele>
        <time>2016-04-18T17:56:09Z</time>
      </trkpt>
      <trkpt lat="39.786038" lon="2.958477">
        <ele>67.8</ele>
        <time>2016-04-18T17:56:14Z</time>
      </trkpt>
      <trkpt lat="39.786543" lon="2.958668">
        <ele>67.8</ele>
        <time>2016-04-18T17:56:20Z</time>
      </trkpt>
      <trkpt lat="39.786704" lon="2.958734">
        <ele>67.8</ele>
        <time>2016-04-18T17:56:22Z</time>
      </trkpt>
      <trkpt lat="39.786853" lon="2.958834">
        <ele>67.8</ele>
        <time>2016-04-18T17:56:24Z</time>
      </trkpt>
      <trkpt lat="39.78702" lon="2.959081">
        <ele>67.8</ele>
        <time>2016-04-18T17:56:27Z</time>
      </trkpt>
      <trkpt lat="39.787192" lon="2.959431">
        <ele>67.8</ele>
        <time>2016-04-18T17:56:31Z</time>
      </trkpt>
      <trkpt lat="39.787222" lon="2.959528">
        <ele>67.8</ele>
        <time>2016-04-18T17:56:32Z</time>
      </trkpt>
      <trkpt lat="39.787406" lon="2.960149">
        <ele>67.4</ele>
        <time>2016-04-18T17:56:38Z</time>
      </trkpt>
      <trkpt lat="39.787447" lon="2.960258">
        <ele>66</ele>
        <time>2016-04-18T17:56:39Z</time>
      </trkpt>
      <trkpt lat="39.787496" lon="2.960362">
        <ele>65.4</ele>
        <time>2016-04-18T17:56:40Z</time>
      </trkpt>
      <trkpt lat="39.787554" lon="2.960467">
        <ele>64.6</ele>
        <time>2016-04-18T17:56:41Z</time>
      </trkpt>
      <trkpt lat="39.787615" lon="2.960572">
        <ele>63.8</ele>
        <time>2016-04-18T17:56:42Z</time>
      </trkpt>
      <trkpt lat="39.787684" lon="2.960674">
        <ele>63</ele>
        <time>2016-04-18T17:56:43Z</time>
      </trkpt>
      <trkpt lat="39.787759" lon="2.960773">
        <ele>62</ele>
        <time>2016-04-18T17:56:44Z</time>
      </trkpt>
      <trkpt lat="39.787841" lon="2.960863">
        <ele>61</ele>
        <time>2016-04-18T17:56:45Z</time>
      </trkpt>
      <trkpt lat="39.787933" lon="2.960951">
        <ele>60</ele>
        <time>2016-04-18T17:56:46Z</time>
      </trkpt>
      <trkpt lat="39.788021" lon="2.961033">
        <ele>58.8</ele>
        <time>2016-04-18T17:56:47Z</time>
      </trkpt>
      <trkpt lat="39.788106" lon="2.961111">
        <ele>57.6</ele>
        <time>2016-04-18T17:56:48Z</time>
      </trkpt>
      <trkpt lat="39.788192" lon="2.96119">
        <ele>56.8</ele>
        <time>2016-04-18T17:56:49Z</time>
      </trkpt>
      <trkpt lat="39.788278" lon="2.961265">
        <ele>56</ele>
        <time>2016-04-18T17:56:50Z</time>
      </trkpt>
      <trkpt lat="39.788365" lon="2.961338">
        <ele>55</ele>
        <time>2016-04-18T17:56:51Z</time>
      </trkpt>
      <trkpt lat="39.788453" lon="2.961405">
        <ele>54.2</ele>
        <time>2016-04-18T17:56:52Z</time>
      </trkpt>
      <trkpt lat="39.788541" lon="2.961466">
        <ele>53.2</ele>
        <time>2016-04-18T17:56:53Z</time>
      </trkpt>
      <trkpt lat="39.788634" lon="2.961529">
        <ele>52.8</ele>
        <time>2016-04-18T17:56:54Z</time>
      </trkpt>
      <trkpt lat="39.78872" lon="2.961586">
        <ele>52.4</ele>
        <time>2016-04-18T17:56:55Z</time>
      </trkpt>
      <trkpt lat="39.788807" lon="2.961644">
        <ele>52</ele>
        <time>2016-04-18T17:56:56Z</time>
      </trkpt>
      <trkpt lat="39.788896" lon="2.961698">
        <ele>51.6</ele>
        <time>2016-04-18T17:56:57Z</time>
      </trkpt>
      <trkpt lat="39.788983" lon="2.961753">
        <ele>51.2</ele>
        <time>2016-04-18T17:56:58Z</time>
      </trkpt>
      <trkpt lat="39.789413" lon="2.961969">
        <ele>51.2</ele>
        <time>2016-04-18T17:57:03Z</time>
      </trkpt>
      <trkpt lat="39.789586" lon="2.962053">
        <ele>51.2</ele>
        <time>2016-04-18T17:57:05Z</time>
      </trkpt>
      <trkpt lat="39.789774" lon="2.962137">
        <ele>51.2</ele>
        <time>2016-04-18T17:57:07Z</time>
      </trkpt>
      <trkpt lat="39.790066" lon="2.96221">
        <ele>50.6</ele>
        <time>2016-04-18T17:57:10Z</time>
      </trkpt>
      <trkpt lat="39.790166" lon="2.962218">
        <ele>50.2</ele>
        <time>2016-04-18T17:57:11Z</time>
      </trkpt>
      <trkpt lat="39.790262" lon="2.962237">
        <ele>49.6</ele>
        <time>2016-04-18T17:57:12Z</time>
      </trkpt>
      <trkpt lat="39.79035" lon="2.96227">
        <ele>49</ele>
        <time>2016-04-18T17:57:13Z</time>
      </trkpt>
      <trkpt lat="39.790433" lon="2.962315">
        <ele>48.6</ele>
        <time>2016-04-18T17:57:14Z</time>
      </trkpt>
      <trkpt lat="39.790511" lon="2.96237">
        <ele>48.2</ele>
        <time>2016-04-18T17:57:15Z</time>
      </trkpt>
      <trkpt lat="39.790584" lon="2.962433">
        <ele>47.6</ele>
        <time>2016-04-18T17:57:16Z</time>
      </trkpt>
      <trkpt lat="39.790655" lon="2.962499">
        <ele>47.2</ele>
        <time>2016-04-18T17:57:17Z</time>
      </trkpt>
      <trkpt lat="39.790732" lon="2.962565">
        <ele>46.8</ele>
        <time>2016-04-18T17:57:18Z</time>
      </trkpt>
      <trkpt lat="39.790804" lon="2.962628">
        <ele>46.4</ele>
        <time>2016-04-18T17:57:19Z</time>
      </trkpt>
      <trkpt lat="39.790938" lon="2.962747">
        <ele>46.4</ele>
        <time>2016-04-18T17:57:21Z</time>
      </trkpt>
      <trkpt lat="39.791067" lon="2.962859">
        <ele>46.4</ele>
        <time>2016-04-18T17:57:23Z</time>
      </trkpt>
      <trkpt lat="39.791192" lon="2.962966">
        <ele>46.8</ele>
        <time>2016-04-18T17:57:25Z</time>
      </trkpt>
      <trkpt lat="39.791251" lon="2.963015">
        <ele>47.2</ele>
        <time>2016-04-18T17:57:26Z</time>
      </trkpt>
      <trkpt lat="39.791315" lon="2.963056">
        <ele>47.6</ele>
        <time>2016-04-18T17:57:27Z</time>
      </trkpt>
      <trkpt lat="39.791383" lon="2.963093">
        <ele>48.4</ele>
        <time>2016-04-18T17:57:28Z</time>
      </trkpt>
      <trkpt lat="39.791516" lon="2.963176">
        <ele>48.4</ele>
        <time>2016-04-18T17:57:30Z</time>
      </trkpt>
      <trkpt lat="39.791704" lon="2.963351">
        <ele>48.4</ele>
        <time>2016-04-18T17:57:33Z</time>
      </trkpt>
      <trkpt lat="39.791757" lon="2.963427">
        <ele>48</ele>
        <time>2016-04-18T17:57:34Z</time>
      </trkpt>
      <trkpt lat="39.7918" lon="2.963509">
        <ele>47.6</ele>
        <time>2016-04-18T17:57:35Z</time>
      </trkpt>
      <trkpt lat="39.791838" lon="2.96359">
        <ele>47</ele>
        <time>2016-04-18T17:57:36Z</time>
      </trkpt>
      <trkpt lat="39.791876" lon="2.963666">
        <ele>46.6</ele>
        <time>2016-04-18T17:57:37Z</time>
      </trkpt>
      <trkpt lat="39.791915" lon="2.963742">
        <ele>46.2</ele>
        <time>2016-04-18T17:57:38Z</time>
      </trkpt>
      <trkpt lat="39.791954" lon="2.963804">
        <ele>46.2</ele>
        <time>2016-04-18T17:57:39Z</time>
      </trkpt>
      <trkpt lat="39.792033" lon="2.963901">
        <ele>46.2</ele>
        <time>2016-04-18T17:57:41Z</time>
      </trkpt>
      <trkpt lat="39.792248" lon="2.964032">
        <ele>46.2</ele>
        <time>2016-04-18T17:57:45Z</time>
      </trkpt>
      <trkpt lat="39.792296" lon="2.964073">
        <ele>46.2</ele>
        <time>2016-04-18T17:57:46Z</time>
      </trkpt>
      <trkpt lat="39.792389" lon="2.964188">
        <ele>46.2</ele>
        <time>2016-04-18T17:57:48Z</time>
      </trkpt>
      <trkpt lat="39.792451" lon="2.964226">
        <ele>46.2</ele>
        <time>2016-04-18T17:57:49Z</time>
      </trkpt>
      <trkpt lat="39.792516" lon="2.964231">
        <ele>46.2</ele>
        <time>2016-04-18T17:57:50Z</time>
      </trkpt>
      <trkpt lat="39.79273" lon="2.964256">
        <ele>45.2</ele>
        <time>2016-04-18T17:57:53Z</time>
      </trkpt>
      <trkpt lat="39.792783" lon="2.964311">
        <ele>44.8</ele>
        <time>2016-04-18T17:57:54Z</time>
      </trkpt>
      <trkpt lat="39.79283" lon="2.964372">
        <ele>44.2</ele>
        <time>2016-04-18T17:57:55Z</time>
      </trkpt>
      <trkpt lat="39.792882" lon="2.964431">
        <ele>43.8</ele>
        <time>2016-04-18T17:57:56Z</time>
      </trkpt>
      <trkpt lat="39.792932" lon="2.964487">
        <ele>43.8</ele>
        <time>2016-04-18T17:57:57Z</time>
      </trkpt>
      <trkpt lat="39.793139" lon="2.964702">
        <ele>43.8</ele>
        <time>2016-04-18T17:58:01Z</time>
      </trkpt>
      <trkpt lat="39.793191" lon="2.964751">
        <ele>43.8</ele>
        <time>2016-04-18T17:58:02Z</time>
      </trkpt>
      <trkpt lat="39.793332" lon="2.964908">
        <ele>43.8</ele>
        <time>2016-04-18T17:58:05Z</time>
      </trkpt>
      <trkpt lat="39.793379" lon="2.964949">
        <ele>43.8</ele>
        <time>2016-04-18T17:58:06Z</time>
      </trkpt>
      <trkpt lat="39.79356" lon="2.965077">
        <ele>43.8</ele>
        <time>2016-04-18T17:58:10Z</time>
      </trkpt>
      <trkpt lat="39.793598" lon="2.965103">
        <ele>43.8</ele>
        <time>2016-04-18T17:58:11Z</time>
      </trkpt>
      <trkpt lat="39.793949" lon="2.965502">
        <ele>46</ele>
        <time>2016-04-18T17:58:22Z</time>
      </trkpt>
      <trkpt lat="39.79403" lon="2.965555">
        <ele>45.4</ele>
        <time>2016-04-18T17:58:24Z</time>
      </trkpt>
      <trkpt lat="39.794214" lon="2.965661">
        <ele>45</ele>
        <time>2016-04-18T17:58:29Z</time>
      </trkpt>
      <trkpt lat="39.794246" lon="2.96568">
        <ele>45.2</ele>
        <time>2016-04-18T17:58:30Z</time>
      </trkpt>
      <trkpt lat="39.794286" lon="2.965701">
        <ele>45.4</ele>
        <time>2016-04-18T17:58:31Z</time>
      </trkpt>
      <trkpt lat="39.794372" lon="2.965742">
        <ele>45.4</ele>
        <time>2016-04-18T17:58:33Z</time>
      </trkpt>
      <trkpt lat="39.794469" lon="2.965784">
        <ele>45.4</ele>
        <time>2016-04-18T17:58:35Z</time>
      </trkpt>
      <trkpt lat="39.794609" lon="2.965847">
        <ele>45.4</ele>
        <time>2016-04-18T17:58:38Z</time>
      </trkpt>
      <trkpt lat="39.794652" lon="2.965863">
        <ele>45.4</ele>
        <time>2016-04-18T17:58:39Z</time>
      </trkpt>
      <trkpt lat="39.794916" lon="2.965924">
        <ele>45.4</ele>
        <time>2016-04-18T17:58:44Z</time>
      </trkpt>
      <trkpt lat="39.794973" lon="2.965925">
        <ele>45.4</ele>
        <time>2016-04-18T17:58:45Z</time>
      </trkpt>
      <trkpt lat="39.795154" lon="2.96592">
        <ele>45.4</ele>
        <time>2016-04-18T17:58:48Z</time>
      </trkpt>
      <trkpt lat="39.795594" lon="2.965903">
        <ele>45.4</ele>
        <time>2016-04-18T17:58:55Z</time>
      </trkpt>
      <trkpt lat="39.796156" lon="2.965868">
        <ele>45.4</ele>
        <time>2016-04-18T17:59:04Z</time>
      </trkpt>
      <trkpt lat="39.796604" lon="2.965883">
        <ele>45.4</ele>
        <time>2016-04-18T17:59:11Z</time>
      </trkpt>
      <trkpt lat="39.796723" lon="2.965919">
        <ele>45.4</ele>
        <time>2016-04-18T17:59:13Z</time>
      </trkpt>
      <trkpt lat="39.796838" lon="2.96598">
        <ele>45.4</ele>
        <time>2016-04-18T17:59:15Z</time>
      </trkpt>
      <trkpt lat="39.796952" lon="2.96604">
        <ele>45.4</ele>
        <time>2016-04-18T17:59:17Z</time>
      </trkpt>
      <trkpt lat="39.79706" lon="2.96611">
        <ele>45.4</ele>
        <time>2016-04-18T17:59:19Z</time>
      </trkpt>
      <trkpt lat="39.79722" lon="2.966202">
        <ele>45.8</ele>
        <time>2016-04-18T17:59:22Z</time>
      </trkpt>
      <trkpt lat="39.797271" lon="2.966236">
        <ele>46.2</ele>
        <time>2016-04-18T17:59:23Z</time>
      </trkpt>
      <trkpt lat="39.797318" lon="2.966272">
        <ele>46.6</ele>
        <time>2016-04-18T17:59:24Z</time>
      </trkpt>
      <trkpt lat="39.797368" lon="2.96631">
        <ele>47</ele>
        <time>2016-04-18T17:59:25Z</time>
      </trkpt>
      <trkpt lat="39.797419" lon="2.966348">
        <ele>47.4</ele>
        <time>2016-04-18T17:59:26Z</time>
      </trkpt>
      <trkpt lat="39.797468" lon="2.966387">
        <ele>47.4</ele>
        <time>2016-04-18T17:59:27Z</time>
      </trkpt>
      <trkpt lat="39.79783" lon="2.966663">
        <ele>47.4</ele>
        <time>2016-04-18T17:59:34Z</time>
      </trkpt>
      <trkpt lat="39.798136" lon="2.966883">
        <ele>47.4</ele>
        <time>2016-04-18T17:59:40Z</time>
      </trkpt>
      <trkpt lat="39.798421" lon="2.967141">
        <ele>47.4</ele>
        <time>2016-04-18T17:59:46Z</time>
      </trkpt>
      <trkpt lat="39.798467" lon="2.967184">
        <ele>47.8</ele>
        <time>2016-04-18T17:59:47Z</time>
      </trkpt>
      <trkpt lat="39.798514" lon="2.967228">
        <ele>48.4</ele>
        <time>2016-04-18T17:59:48Z</time>
      </trkpt>
      <trkpt lat="39.798561" lon="2.967269">
        <ele>48.8</ele>
        <time>2016-04-18T17:59:49Z</time>
      </trkpt>
      <trkpt lat="39.798608" lon="2.967309">
        <ele>49.2</ele>
        <time>2016-04-18T17:59:50Z</time>
      </trkpt>
      <trkpt lat="39.798658" lon="2.967346">
        <ele>49.6</ele>
        <time>2016-04-18T17:59:51Z</time>
      </trkpt>
      <trkpt lat="39.798757" lon="2.967428">
        <ele>49.6</ele>
        <time>2016-04-18T17:59:53Z</time>
      </trkpt>
      <trkpt lat="39.799148" lon="2.967762">
        <ele>49.6</ele>
        <time>2016-04-18T18:00:01Z</time>
      </trkpt>
      <trkpt lat="39.799242" lon="2.967841">
        <ele>50</ele>
        <time>2016-04-18T18:00:03Z</time>
      </trkpt>
      <trkpt lat="39.799289" lon="2.96788">
        <ele>50.6</ele>
        <time>2016-04-18T18:00:04Z</time>
      </trkpt>
      <trkpt lat="39.799326" lon="2.967915">
        <ele>51</ele>
        <time>2016-04-18T18:00:05Z</time>
      </trkpt>
      <trkpt lat="39.799365" lon="2.967948">
        <ele>51.4</ele>
        <time>2016-04-18T18:00:06Z</time>
      </trkpt>
      <trkpt lat="39.799407" lon="2.967979">
        <ele>52</ele>
        <time>2016-04-18T18:00:07Z</time>
      </trkpt>
      <trkpt lat="39.799488" lon="2.968044">
        <ele>52</ele>
        <time>2016-04-18T18:00:09Z</time>
      </trkpt>
      <trkpt lat="39.799569" lon="2.968113">
        <ele>52.4</ele>
        <time>2016-04-18T18:00:11Z</time>
      </trkpt>
      <trkpt lat="39.799609" lon="2.968147">
        <ele>52.8</ele>
        <time>2016-04-18T18:00:12Z</time>
      </trkpt>
      <trkpt lat="39.799644" lon="2.968186">
        <ele>53.2</ele>
        <time>2016-04-18T18:00:13Z</time>
      </trkpt>
      <trkpt lat="39.799674" lon="2.968226">
        <ele>53.8</ele>
        <time>2016-04-18T18:00:14Z</time>
      </trkpt>
      <trkpt lat="39.799704" lon="2.968262">
        <ele>54.2</ele>
        <time>2016-04-18T18:00:15Z</time>
      </trkpt>
      <trkpt lat="39.799738" lon="2.968297">
        <ele>54.2</ele>
        <time>2016-04-18T18:00:16Z</time>
      </trkpt>
      <trkpt lat="39.799792" lon="2.968366">
        <ele>54.2</ele>
        <time>2016-04-18T18:00:18Z</time>
      </trkpt>
      <trkpt lat="39.799832" lon="2.968392">
        <ele>54.2</ele>
        <time>2016-04-18T18:00:19Z</time>
      </trkpt>
      <trkpt lat="39.799917" lon="2.968437">
        <ele>55</ele>
        <time>2016-04-18T18:00:21Z</time>
      </trkpt>
      <trkpt lat="39.799952" lon="2.968457">
        <ele>55.6</ele>
        <time>2016-04-18T18:00:22Z</time>
      </trkpt>
      <trkpt lat="39.799981" lon="2.968483">
        <ele>56</ele>
        <time>2016-04-18T18:00:23Z</time>
      </trkpt>
      <trkpt lat="39.800016" lon="2.968513">
        <ele>56.4</ele>
        <time>2016-04-18T18:00:24Z</time>
      </trkpt>
      <trkpt lat="39.80005" lon="2.968536">
        <ele>56.4</ele>
        <time>2016-04-18T18:00:25Z</time>
      </trkpt>
      <trkpt lat="39.800256" lon="2.968686">
        <ele>56.4</ele>
        <time>2016-04-18T18:00:30Z</time>
      </trkpt>
      <trkpt lat="39.800656" lon="2.968881">
        <ele>56.4</ele>
        <time>2016-04-18T18:00:36Z</time>
      </trkpt>
      <trkpt lat="39.800704" lon="2.968906">
        <ele>56.8</ele>
        <time>2016-04-18T18:00:37Z</time>
      </trkpt>
      <trkpt lat="39.800752" lon="2.968928">
        <ele>57.4</ele>
        <time>2016-04-18T18:00:38Z</time>
      </trkpt>
      <trkpt lat="39.800802" lon="2.968949">
        <ele>57.8</ele>
        <time>2016-04-18T18:00:39Z</time>
      </trkpt>
      <trkpt lat="39.800854" lon="2.968964">
        <ele>58.2</ele>
        <time>2016-04-18T18:00:40Z</time>
      </trkpt>
      <trkpt lat="39.800904" lon="2.968983">
        <ele>58.6</ele>
        <time>2016-04-18T18:00:41Z</time>
      </trkpt>
      <trkpt lat="39.800955" lon="2.969004">
        <ele>58.6</ele>
        <time>2016-04-18T18:00:42Z</time>
      </trkpt>
      <trkpt lat="39.801283" lon="2.969111">
        <ele>58.6</ele>
        <time>2016-04-18T18:00:48Z</time>
      </trkpt>
      <trkpt lat="39.801681" lon="2.969231">
        <ele>58.6</ele>
        <time>2016-04-18T18:00:55Z</time>
      </trkpt>
      <trkpt lat="39.802097" lon="2.96931">
        <ele>58.6</ele>
        <time>2016-04-18T18:01:02Z</time>
      </trkpt>
      <trkpt lat="39.802502" lon="2.969457">
        <ele>58.6</ele>
        <time>2016-04-18T18:01:09Z</time>
      </trkpt>
      <trkpt lat="39.802623" lon="2.969524">
        <ele>58.6</ele>
        <time>2016-04-18T18:01:11Z</time>
      </trkpt>
      <trkpt lat="39.802793" lon="2.969655">
        <ele>58.6</ele>
        <time>2016-04-18T18:01:14Z</time>
      </trkpt>
      <trkpt lat="39.802852" lon="2.969701">
        <ele>58.2</ele>
        <time>2016-04-18T18:01:15Z</time>
      </trkpt>
      <trkpt lat="39.802913" lon="2.969746">
        <ele>57.8</ele>
        <time>2016-04-18T18:01:16Z</time>
      </trkpt>
      <trkpt lat="39.802975" lon="2.969792">
        <ele>57.4</ele>
        <time>2016-04-18T18:01:17Z</time>
      </trkpt>
      <trkpt lat="39.803041" lon="2.969845">
        <ele>57</ele>
        <time>2016-04-18T18:01:18Z</time>
      </trkpt>
      <trkpt lat="39.803108" lon="2.969891">
        <ele>56.6</ele>
        <time>2016-04-18T18:01:19Z</time>
      </trkpt>
      <trkpt lat="39.803178" lon="2.969928">
        <ele>56.6</ele>
        <time>2016-04-18T18:01:20Z</time>
      </trkpt>
      <trkpt lat="39.803586" lon="2.970083">
        <ele>56.6</ele>
        <time>2016-04-18T18:01:26Z</time>
      </trkpt>
      <trkpt lat="39.803783" lon="2.970128">
        <ele>56.6</ele>
        <time>2016-04-18T18:01:29Z</time>
      </trkpt>
      <trkpt lat="39.803921" lon="2.970109">
        <ele>56.6</ele>
        <time>2016-04-18T18:01:31Z</time>
      </trkpt>
      <trkpt lat="39.804061" lon="2.970066">
        <ele>56.6</ele>
        <time>2016-04-18T18:01:33Z</time>
      </trkpt>
      <trkpt lat="39.80427" lon="2.970041">
        <ele>56.2</ele>
        <time>2016-04-18T18:01:36Z</time>
      </trkpt>
      <trkpt lat="39.804341" lon="2.970058">
        <ele>55.8</ele>
        <time>2016-04-18T18:01:37Z</time>
      </trkpt>
      <trkpt lat="39.80441" lon="2.970084">
        <ele>55.2</ele>
        <time>2016-04-18T18:01:38Z</time>
      </trkpt>
      <trkpt lat="39.804474" lon="2.970126">
        <ele>54.8</ele>
        <time>2016-04-18T18:01:39Z</time>
      </trkpt>
      <trkpt lat="39.804532" lon="2.970174">
        <ele>54.4</ele>
        <time>2016-04-18T18:01:40Z</time>
      </trkpt>
      <trkpt lat="39.804594" lon="2.97023">
        <ele>54.4</ele>
        <time>2016-04-18T18:01:41Z</time>
      </trkpt>
      <trkpt lat="39.804755" lon="2.970396">
        <ele>54.4</ele>
        <time>2016-04-18T18:01:44Z</time>
      </trkpt>
      <trkpt lat="39.805076" lon="2.970715">
        <ele>54.4</ele>
        <time>2016-04-18T18:01:50Z</time>
      </trkpt>
      <trkpt lat="39.805125" lon="2.970768">
        <ele>54.4</ele>
        <time>2016-04-18T18:01:51Z</time>
      </trkpt>
      <trkpt lat="39.805519" lon="2.971184">
        <ele>54.4</ele>
        <time>2016-04-18T18:01:59Z</time>
      </trkpt>
      <trkpt lat="39.805709" lon="2.971401">
        <ele>54.8</ele>
        <time>2016-04-18T18:02:03Z</time>
      </trkpt>
      <trkpt lat="39.805758" lon="2.971455">
        <ele>55.2</ele>
        <time>2016-04-18T18:02:04Z</time>
      </trkpt>
      <trkpt lat="39.80581" lon="2.971512">
        <ele>55.6</ele>
        <time>2016-04-18T18:02:05Z</time>
      </trkpt>
      <trkpt lat="39.805859" lon="2.971565">
        <ele>56</ele>
        <time>2016-04-18T18:02:06Z</time>
      </trkpt>
      <trkpt lat="39.805907" lon="2.971619">
        <ele>56.6</ele>
        <time>2016-04-18T18:02:07Z</time>
      </trkpt>
      <trkpt lat="39.806184" lon="2.971935">
        <ele>56.6</ele>
        <time>2016-04-18T18:02:13Z</time>
      </trkpt>
      <trkpt lat="39.806515" lon="2.972298">
        <ele>56.6</ele>
        <time>2016-04-18T18:02:20Z</time>
      </trkpt>
      <trkpt lat="39.806751" lon="2.972648">
        <ele>56.6</ele>
        <time>2016-04-18T18:02:26Z</time>
      </trkpt>
      <trkpt lat="39.806812" lon="2.972776">
        <ele>57</ele>
        <time>2016-04-18T18:02:28Z</time>
      </trkpt>
      <trkpt lat="39.806846" lon="2.972842">
        <ele>57.4</ele>
        <time>2016-04-18T18:02:29Z</time>
      </trkpt>
      <trkpt lat="39.806878" lon="2.972905">
        <ele>57.8</ele>
        <time>2016-04-18T18:02:30Z</time>
      </trkpt>
      <trkpt lat="39.80691" lon="2.972966">
        <ele>58.2</ele>
        <time>2016-04-18T18:02:31Z</time>
      </trkpt>
      <trkpt lat="39.806941" lon="2.973027">
        <ele>58.6</ele>
        <time>2016-04-18T18:02:32Z</time>
      </trkpt>
      <trkpt lat="39.806973" lon="2.973088">
        <ele>58.6</ele>
        <time>2016-04-18T18:02:33Z</time>
      </trkpt>
      <trkpt lat="39.807169" lon="2.97346">
        <ele>58.6</ele>
        <time>2016-04-18T18:02:39Z</time>
      </trkpt>
      <trkpt lat="39.807522" lon="2.97397">
        <ele>58.6</ele>
        <time>2016-04-18T18:02:48Z</time>
      </trkpt>
      <trkpt lat="39.807801" lon="2.974249">
        <ele>58.6</ele>
        <time>2016-04-18T18:02:54Z</time>
      </trkpt>
      <trkpt lat="39.807893" lon="2.97434">
        <ele>59</ele>
        <time>2016-04-18T18:02:56Z</time>
      </trkpt>
      <trkpt lat="39.807936" lon="2.974391">
        <ele>59.4</ele>
        <time>2016-04-18T18:02:57Z</time>
      </trkpt>
      <trkpt lat="39.807976" lon="2.974443">
        <ele>59.8</ele>
        <time>2016-04-18T18:02:58Z</time>
      </trkpt>
      <trkpt lat="39.808017" lon="2.974497">
        <ele>60.2</ele>
        <time>2016-04-18T18:02:59Z</time>
      </trkpt>
      <trkpt lat="39.808055" lon="2.974547">
        <ele>60.8</ele>
        <time>2016-04-18T18:03:00Z</time>
      </trkpt>
      <trkpt lat="39.808093" lon="2.974595">
        <ele>60.8</ele>
        <time>2016-04-18T18:03:01Z</time>
      </trkpt>
      <trkpt lat="39.808399" lon="2.974993">
        <ele>60.8</ele>
        <time>2016-04-18T18:03:09Z</time>
      </trkpt>
      <trkpt lat="39.808525" lon="2.975119">
        <ele>61.2</ele>
        <time>2016-04-18T18:03:12Z</time>
      </trkpt>
      <trkpt lat="39.808572" lon="2.975155">
        <ele>62</ele>
        <time>2016-04-18T18:03:13Z</time>
      </trkpt>
      <trkpt lat="39.808621" lon="2.975191">
        <ele>62.4</ele>
        <time>2016-04-18T18:03:14Z</time>
      </trkpt>
      <trkpt lat="39.808672" lon="2.97523">
        <ele>62.8</ele>
        <time>2016-04-18T18:03:15Z</time>
      </trkpt>
      <trkpt lat="39.809078" lon="2.975574">
        <ele>62.8</ele>
        <time>2016-04-18T18:03:23Z</time>
      </trkpt>
      <trkpt lat="39.809123" lon="2.975632">
        <ele>62.8</ele>
        <time>2016-04-18T18:03:24Z</time>
      </trkpt>
      <trkpt lat="39.809459" lon="2.976145">
        <ele>62.8</ele>
        <time>2016-04-18T18:03:32Z</time>
      </trkpt>
      <trkpt lat="39.809631" lon="2.976595">
        <ele>62.8</ele>
        <time>2016-04-18T18:03:38Z</time>
      </trkpt>
      <trkpt lat="39.809705" lon="2.977012">
        <ele>62.8</ele>
        <time>2016-04-18T18:03:43Z</time>
      </trkpt>
      <trkpt lat="39.809708" lon="2.977179">
        <ele>62.8</ele>
        <time>2016-04-18T18:03:45Z</time>
      </trkpt>
      <trkpt lat="39.809714" lon="2.977665">
        <ele>62.4</ele>
        <time>2016-04-18T18:03:51Z</time>
      </trkpt>
      <trkpt lat="39.809715" lon="2.977747">
        <ele>61.8</ele>
        <time>2016-04-18T18:03:52Z</time>
      </trkpt>
      <trkpt lat="39.809712" lon="2.977827">
        <ele>61.4</ele>
        <time>2016-04-18T18:03:53Z</time>
      </trkpt>
      <trkpt lat="39.809709" lon="2.977908">
        <ele>61.8</ele>
        <time>2016-04-18T18:03:54Z</time>
      </trkpt>
      <trkpt lat="39.809704" lon="2.97799">
        <ele>62.4</ele>
        <time>2016-04-18T18:03:55Z</time>
      </trkpt>
      <trkpt lat="39.809702" lon="2.978072">
        <ele>62.8</ele>
        <time>2016-04-18T18:03:56Z</time>
      </trkpt>
      <trkpt lat="39.809699" lon="2.978156">
        <ele>63.4</ele>
        <time>2016-04-18T18:03:57Z</time>
      </trkpt>
      <trkpt lat="39.809697" lon="2.97824">
        <ele>63.8</ele>
        <time>2016-04-18T18:03:58Z</time>
      </trkpt>
      <trkpt lat="39.80969" lon="2.978805">
        <ele>63.8</ele>
        <time>2016-04-18T18:04:05Z</time>
      </trkpt>
      <trkpt lat="39.809708" lon="2.978952">
        <ele>63.8</ele>
        <time>2016-04-18T18:04:07Z</time>
      </trkpt>
      <trkpt lat="39.809781" lon="2.979155">
        <ele>63.8</ele>
        <time>2016-04-18T18:04:10Z</time>
      </trkpt>
      <trkpt lat="39.809914" lon="2.979386">
        <ele>64.2</ele>
        <time>2016-04-18T18:04:14Z</time>
      </trkpt>
      <trkpt lat="39.809947" lon="2.979442">
        <ele>64.6</ele>
        <time>2016-04-18T18:04:15Z</time>
      </trkpt>
      <trkpt lat="39.809981" lon="2.979487">
        <ele>65</ele>
        <time>2016-04-18T18:04:16Z</time>
      </trkpt>
      <trkpt lat="39.810014" lon="2.979533">
        <ele>65.6</ele>
        <time>2016-04-18T18:04:17Z</time>
      </trkpt>
      <trkpt lat="39.810044" lon="2.979587">
        <ele>66</ele>
        <time>2016-04-18T18:04:18Z</time>
      </trkpt>
      <trkpt lat="39.810062" lon="2.979643">
        <ele>66</ele>
        <time>2016-04-18T18:04:19Z</time>
      </trkpt>
      <trkpt lat="39.810114" lon="2.979776">
        <ele>66</ele>
        <time>2016-04-18T18:04:21Z</time>
      </trkpt>
      <trkpt lat="39.810172" lon="2.979903">
        <ele>66</ele>
        <time>2016-04-18T18:04:23Z</time>
      </trkpt>
      <trkpt lat="39.81041" lon="2.980319">
        <ele>66.4</ele>
        <time>2016-04-18T18:04:30Z</time>
      </trkpt>
      <trkpt lat="39.810451" lon="2.980365">
        <ele>66.8</ele>
        <time>2016-04-18T18:04:31Z</time>
      </trkpt>
      <trkpt lat="39.810493" lon="2.980415">
        <ele>67.2</ele>
        <time>2016-04-18T18:04:32Z</time>
      </trkpt>
      <trkpt lat="39.810533" lon="2.980462">
        <ele>67.8</ele>
        <time>2016-04-18T18:04:33Z</time>
      </trkpt>
      <trkpt lat="39.810569" lon="2.980515">
        <ele>68.2</ele>
        <time>2016-04-18T18:04:34Z</time>
      </trkpt>
      <trkpt lat="39.810609" lon="2.980566">
        <ele>68.2</ele>
        <time>2016-04-18T18:04:35Z</time>
      </trkpt>
      <trkpt lat="39.810859" lon="2.980862">
        <ele>68.2</ele>
        <time>2016-04-18T18:04:41Z</time>
      </trkpt>
      <trkpt lat="39.811018" lon="2.981073">
        <ele>68.2</ele>
        <time>2016-04-18T18:04:45Z</time>
      </trkpt>
      <trkpt lat="39.811085" lon="2.981185">
        <ele>68.2</ele>
        <time>2016-04-18T18:04:47Z</time>
      </trkpt>
      <trkpt lat="39.811146" lon="2.981295">
        <ele>68.2</ele>
        <time>2016-04-18T18:04:49Z</time>
      </trkpt>
      <trkpt lat="39.811243" lon="2.981461">
        <ele>69</ele>
        <time>2016-04-18T18:04:52Z</time>
      </trkpt>
      <trkpt lat="39.811273" lon="2.981524">
        <ele>69.4</ele>
        <time>2016-04-18T18:04:53Z</time>
      </trkpt>
      <trkpt lat="39.811302" lon="2.981589">
        <ele>69.8</ele>
        <time>2016-04-18T18:04:54Z</time>
      </trkpt>
      <trkpt lat="39.811333" lon="2.981656">
        <ele>70.2</ele>
        <time>2016-04-18T18:04:55Z</time>
      </trkpt>
      <trkpt lat="39.811387" lon="2.981795">
        <ele>70.2</ele>
        <time>2016-04-18T18:04:57Z</time>
      </trkpt>
      <trkpt lat="39.811435" lon="2.98193">
        <ele>70.2</ele>
        <time>2016-04-18T18:04:59Z</time>
      </trkpt>
      <trkpt lat="39.811463" lon="2.981993">
        <ele>70.2</ele>
        <time>2016-04-18T18:05:00Z</time>
      </trkpt>
      <trkpt lat="39.811525" lon="2.982117">
        <ele>70.2</ele>
        <time>2016-04-18T18:05:02Z</time>
      </trkpt>
      <trkpt lat="39.811601" lon="2.982221">
        <ele>70.2</ele>
        <time>2016-04-18T18:05:04Z</time>
      </trkpt>
      <trkpt lat="39.811896" lon="2.982583">
        <ele>70.2</ele>
        <time>2016-04-18T18:05:11Z</time>
      </trkpt>
      <trkpt lat="39.812115" lon="2.982796">
        <ele>70.2</ele>
        <time>2016-04-18T18:05:16Z</time>
      </trkpt>
      <trkpt lat="39.812159" lon="2.982832">
        <ele>71</ele>
        <time>2016-04-18T18:05:17Z</time>
      </trkpt>
      <trkpt lat="39.812204" lon="2.982865">
        <ele>71.4</ele>
        <time>2016-04-18T18:05:18Z</time>
      </trkpt>
      <trkpt lat="39.812248" lon="2.982901">
        <ele>71.8</ele>
        <time>2016-04-18T18:05:19Z</time>
      </trkpt>
      <trkpt lat="39.812296" lon="2.982932">
        <ele>72.2</ele>
        <time>2016-04-18T18:05:20Z</time>
      </trkpt>
      <trkpt lat="39.812445" lon="2.983049">
        <ele>72.2</ele>
        <time>2016-04-18T18:05:23Z</time>
      </trkpt>
      <trkpt lat="39.812483" lon="2.983111">
        <ele>72.2</ele>
        <time>2016-04-18T18:05:24Z</time>
      </trkpt>
      <trkpt lat="39.812636" lon="2.983479">
        <ele>72.2</ele>
        <time>2016-04-18T18:05:29Z</time>
      </trkpt>
      <trkpt lat="39.81286" lon="2.983978">
        <ele>72.2</ele>
        <time>2016-04-18T18:05:36Z</time>
      </trkpt>
      <trkpt lat="39.813181" lon="2.984648">
        <ele>72.2</ele>
        <time>2016-04-18T18:05:45Z</time>
      </trkpt>
      <trkpt lat="39.813227" lon="2.984708">
        <ele>72.2</ele>
        <time>2016-04-18T18:05:46Z</time>
      </trkpt>
      <trkpt lat="39.813327" lon="2.984815">
        <ele>72.2</ele>
        <time>2016-04-18T18:05:48Z</time>
      </trkpt>
      <trkpt lat="39.813382" lon="2.984854">
        <ele>72.2</ele>
        <time>2016-04-18T18:05:49Z</time>
      </trkpt>
      <trkpt lat="39.813721" lon="2.985104">
        <ele>72.2</ele>
        <time>2016-04-18T18:05:55Z</time>
      </trkpt>
      <trkpt lat="39.813813" lon="2.985216">
        <ele>72.6</ele>
        <time>2016-04-18T18:05:57Z</time>
      </trkpt>
      <trkpt lat="39.813862" lon="2.985269">
        <ele>73</ele>
        <time>2016-04-18T18:05:58Z</time>
      </trkpt>
      <trkpt lat="39.813908" lon="2.985327">
        <ele>73.4</ele>
        <time>2016-04-18T18:05:59Z</time>
      </trkpt>
      <trkpt lat="39.813954" lon="2.985386">
        <ele>73.8</ele>
        <time>2016-04-18T18:06:00Z</time>
      </trkpt>
      <trkpt lat="39.814002" lon="2.985445">
        <ele>74.2</ele>
        <time>2016-04-18T18:06:01Z</time>
      </trkpt>
      <trkpt lat="39.814405" lon="2.986001">
        <ele>74.2</ele>
        <time>2016-04-18T18:06:10Z</time>
      </trkpt>
      <trkpt lat="39.814655" lon="2.986342">
        <ele>74.2</ele>
        <time>2016-04-18T18:06:16Z</time>
      </trkpt>
      <trkpt lat="39.814923" lon="2.986751">
        <ele>74.2</ele>
        <time>2016-04-18T18:06:23Z</time>
      </trkpt>
      <trkpt lat="39.815052" lon="2.98701">
        <ele>74.6</ele>
        <time>2016-04-18T18:06:27Z</time>
      </trkpt>
      <trkpt lat="39.815083" lon="2.987082">
        <ele>75</ele>
        <time>2016-04-18T18:06:28Z</time>
      </trkpt>
      <trkpt lat="39.815113" lon="2.987152">
        <ele>75.4</ele>
        <time>2016-04-18T18:06:29Z</time>
      </trkpt>
      <trkpt lat="39.81514" lon="2.987223">
        <ele>75.8</ele>
        <time>2016-04-18T18:06:30Z</time>
      </trkpt>
      <trkpt lat="39.815169" lon="2.987299">
        <ele>76.2</ele>
        <time>2016-04-18T18:06:31Z</time>
      </trkpt>
      <trkpt lat="39.815345" lon="2.987651">
        <ele>76.2</ele>
        <time>2016-04-18T18:06:36Z</time>
      </trkpt>
      <trkpt lat="39.815614" lon="2.988085">
        <ele>76.2</ele>
        <time>2016-04-18T18:06:43Z</time>
      </trkpt>
      <trkpt lat="39.815823" lon="2.988468">
        <ele>76.8</ele>
        <time>2016-04-18T18:06:50Z</time>
      </trkpt>
      <trkpt lat="39.815852" lon="2.988528">
        <ele>77.2</ele>
        <time>2016-04-18T18:06:51Z</time>
      </trkpt>
      <trkpt lat="39.815879" lon="2.988591">
        <ele>77.6</ele>
        <time>2016-04-18T18:06:52Z</time>
      </trkpt>
      <trkpt lat="39.815903" lon="2.988658">
        <ele>78.2</ele>
        <time>2016-04-18T18:06:53Z</time>
      </trkpt>
      <trkpt lat="39.81592" lon="2.988729">
        <ele>78.6</ele>
        <time>2016-04-18T18:06:54Z</time>
      </trkpt>
      <trkpt lat="39.815949" lon="2.988879">
        <ele>78.6</ele>
        <time>2016-04-18T18:06:56Z</time>
      </trkpt>
      <trkpt lat="39.815968" lon="2.988954">
        <ele>79.4</ele>
        <time>2016-04-18T18:06:57Z</time>
      </trkpt>
      <trkpt lat="39.815983" lon="2.989036">
        <ele>79.8</ele>
        <time>2016-04-18T18:06:58Z</time>
      </trkpt>
      <trkpt lat="39.816003" lon="2.989119">
        <ele>80.2</ele>
        <time>2016-04-18T18:06:59Z</time>
      </trkpt>
      <trkpt lat="39.816028" lon="2.989203">
        <ele>80.6</ele>
        <time>2016-04-18T18:07:00Z</time>
      </trkpt>
      <trkpt lat="39.816053" lon="2.98929">
        <ele>80.6</ele>
        <time>2016-04-18T18:07:01Z</time>
      </trkpt>
      <trkpt lat="39.816111" lon="2.989458">
        <ele>80.2</ele>
        <time>2016-04-18T18:07:03Z</time>
      </trkpt>
      <trkpt lat="39.816153" lon="2.989542">
        <ele>79.6</ele>
        <time>2016-04-18T18:07:04Z</time>
      </trkpt>
      <trkpt lat="39.816195" lon="2.989628">
        <ele>79.2</ele>
        <time>2016-04-18T18:07:05Z</time>
      </trkpt>
      <trkpt lat="39.816242" lon="2.989712">
        <ele>78.6</ele>
        <time>2016-04-18T18:07:06Z</time>
      </trkpt>
      <trkpt lat="39.816296" lon="2.98979">
        <ele>78.2</ele>
        <time>2016-04-18T18:07:07Z</time>
      </trkpt>
      <trkpt lat="39.816467" lon="2.99">
        <ele>78.2</ele>
        <time>2016-04-18T18:07:10Z</time>
      </trkpt>
      <trkpt lat="39.816671" lon="2.990261">
        <ele>78.6</ele>
        <time>2016-04-18T18:07:14Z</time>
      </trkpt>
      <trkpt lat="39.816711" lon="2.990322">
        <ele>79</ele>
        <time>2016-04-18T18:07:15Z</time>
      </trkpt>
      <trkpt lat="39.81675" lon="2.990385">
        <ele>79.4</ele>
        <time>2016-04-18T18:07:16Z</time>
      </trkpt>
      <trkpt lat="39.816792" lon="2.990446">
        <ele>79.8</ele>
        <time>2016-04-18T18:07:17Z</time>
      </trkpt>
      <trkpt lat="39.816831" lon="2.990507">
        <ele>80.4</ele>
        <time>2016-04-18T18:07:18Z</time>
      </trkpt>
      <trkpt lat="39.816954" lon="2.990684">
        <ele>80.8</ele>
        <time>2016-04-18T18:07:21Z</time>
      </trkpt>
      <trkpt lat="39.816996" lon="2.990742">
        <ele>81.2</ele>
        <time>2016-04-18T18:07:22Z</time>
      </trkpt>
      <trkpt lat="39.817037" lon="2.990801">
        <ele>81.6</ele>
        <time>2016-04-18T18:07:23Z</time>
      </trkpt>
      <trkpt lat="39.817084" lon="2.990853">
        <ele>82</ele>
        <time>2016-04-18T18:07:24Z</time>
      </trkpt>
      <trkpt lat="39.817127" lon="2.990909">
        <ele>82.4</ele>
        <time>2016-04-18T18:07:25Z</time>
      </trkpt>
      <trkpt lat="39.817216" lon="2.991027">
        <ele>82.4</ele>
        <time>2016-04-18T18:07:27Z</time>
      </trkpt>
      <trkpt lat="39.817415" lon="2.991309">
        <ele>82.4</ele>
        <time>2016-04-18T18:07:32Z</time>
      </trkpt>
      <trkpt lat="39.818987" lon="2.995373">
        <ele>87.3</ele>
        <time>2016-04-18T18:08:28Z</time>
      </trkpt>
      <trkpt lat="39.819046" lon="2.995458">
        <ele>87.6</ele>
        <time>2016-04-18T18:08:29Z</time>
      </trkpt>
      <trkpt lat="39.819089" lon="2.995509">
        <ele>87.9</ele>
        <time>2016-04-18T18:08:30Z</time>
      </trkpt>
      <trkpt lat="39.81912" lon="2.995561">
        <ele>88.1</ele>
        <time>2016-04-18T18:08:31Z</time>
      </trkpt>
      <trkpt lat="39.819158" lon="2.995607">
        <ele>88.3</ele>
        <time>2016-04-18T18:08:32Z</time>
      </trkpt>
      <trkpt lat="39.819187" lon="2.995645">
        <ele>88.4</ele>
        <time>2016-04-18T18:08:33Z</time>
      </trkpt>
      <trkpt lat="39.819236" lon="2.995689">
        <ele>88.4</ele>
        <time>2016-04-18T18:08:34Z</time>
      </trkpt>
      <trkpt lat="39.81926" lon="2.995746">
        <ele>88.6</ele>
        <time>2016-04-18T18:08:35Z</time>
      </trkpt>
      <trkpt lat="39.8193" lon="2.995798">
        <ele>88.7</ele>
        <time>2016-04-18T18:08:36Z</time>
      </trkpt>
      <trkpt lat="39.819337" lon="2.995845">
        <ele>88.7</ele>
        <time>2016-04-18T18:08:37Z</time>
      </trkpt>
      <trkpt lat="39.819375" lon="2.995891">
        <ele>88.6</ele>
        <time>2016-04-18T18:08:38Z</time>
      </trkpt>
      <trkpt lat="39.81941" lon="2.995943">
        <ele>88.6</ele>
        <time>2016-04-18T18:08:39Z</time>
      </trkpt>
      <trkpt lat="39.819452" lon="2.995988">
        <ele>88.4</ele>
        <time>2016-04-18T18:08:40Z</time>
      </trkpt>
      <trkpt lat="39.819496" lon="2.996037">
        <ele>88.2</ele>
        <time>2016-04-18T18:08:41Z</time>
      </trkpt>
      <trkpt lat="39.819536" lon="2.99609">
        <ele>88.1</ele>
        <time>2016-04-18T18:08:42Z</time>
      </trkpt>
      <trkpt lat="39.819577" lon="2.996147">
        <ele>87.8</ele>
        <time>2016-04-18T18:08:43Z</time>
      </trkpt>
      <trkpt lat="39.819617" lon="2.9962">
        <ele>87.9</ele>
        <time>2016-04-18T18:08:44Z</time>
      </trkpt>
      <trkpt lat="39.819656" lon="2.996258">
        <ele>88</ele>
        <time>2016-04-18T18:08:45Z</time>
      </trkpt>
      <trkpt lat="39.819697" lon="2.996311">
        <ele>88.1</ele>
        <time>2016-04-18T18:08:46Z</time>
      </trkpt>
      <trkpt lat="39.81974" lon="2.996367">
        <ele>88.3</ele>
        <time>2016-04-18T18:08:47Z</time>
      </trkpt>
      <trkpt lat="39.81978" lon="2.996416">
        <ele>88.4</ele>
        <time>2016-04-18T18:08:48Z</time>
      </trkpt>
      <trkpt lat="39.819828" lon="2.996473">
        <ele>88.5</ele>
        <time>2016-04-18T18:08:49Z</time>
      </trkpt>
      <trkpt lat="39.819874" lon="2.99653">
        <ele>88.6</ele>
        <time>2016-04-18T18:08:50Z</time>
      </trkpt>
      <trkpt lat="39.819911" lon="2.996603">
        <ele>88.7</ele>
        <time>2016-04-18T18:08:51Z</time>
      </trkpt>
      <trkpt lat="39.819956" lon="2.996658">
        <ele>88.8</ele>
        <time>2016-04-18T18:08:52Z</time>
      </trkpt>
      <trkpt lat="39.819998" lon="2.996713">
        <ele>88.8</ele>
        <time>2016-04-18T18:08:53Z</time>
      </trkpt>
      <trkpt lat="39.820042" lon="2.996772">
        <ele>88.9</ele>
        <time>2016-04-18T18:08:54Z</time>
      </trkpt>
      <trkpt lat="39.82008" lon="2.99683">
        <ele>89</ele>
        <time>2016-04-18T18:08:55Z</time>
      </trkpt>
      <trkpt lat="39.820128" lon="2.996883">
        <ele>89</ele>
        <time>2016-04-18T18:08:56Z</time>
      </trkpt>
      <trkpt lat="39.820169" lon="2.996933">
        <ele>89.1</ele>
        <time>2016-04-18T18:08:57Z</time>
      </trkpt>
      <trkpt lat="39.820218" lon="2.997008">
        <ele>89.1</ele>
        <time>2016-04-18T18:08:58Z</time>
      </trkpt>
      <trkpt lat="39.820263" lon="2.997052">
        <ele>89.1</ele>
        <time>2016-04-18T18:08:59Z</time>
      </trkpt>
      <trkpt lat="39.820304" lon="2.997102">
        <ele>89.2</ele>
        <time>2016-04-18T18:09:00Z</time>
      </trkpt>
      <trkpt lat="39.820347" lon="2.997166">
        <ele>89.4</ele>
        <time>2016-04-18T18:09:01Z</time>
      </trkpt>
      <trkpt lat="39.820392" lon="2.997222">
        <ele>89.6</ele>
        <time>2016-04-18T18:09:02Z</time>
      </trkpt>
      <trkpt lat="39.820435" lon="2.997274">
        <ele>89.6</ele>
        <time>2016-04-18T18:09:03Z</time>
      </trkpt>
      <trkpt lat="39.820482" lon="2.997333">
        <ele>89.7</ele>
        <time>2016-04-18T18:09:04Z</time>
      </trkpt>
      <trkpt lat="39.820526" lon="2.997389">
        <ele>89.8</ele>
        <time>2016-04-18T18:09:05Z</time>
      </trkpt>
      <trkpt lat="39.820565" lon="2.99745">
        <ele>89.9</ele>
        <time>2016-04-18T18:09:06Z</time>
      </trkpt>
      <trkpt lat="39.82061" lon="2.997499">
        <ele>89.9</ele>
        <time>2016-04-18T18:09:07Z</time>
      </trkpt>
      <trkpt lat="39.820657" lon="2.997559">
        <ele>89.9</ele>
        <time>2016-04-18T18:09:08Z</time>
      </trkpt>
      <trkpt lat="39.820702" lon="2.997614">
        <ele>89.9</ele>
        <time>2016-04-18T18:09:09Z</time>
      </trkpt>
      <trkpt lat="39.820743" lon="2.997664">
        <ele>89.9</ele>
        <time>2016-04-18T18:09:10Z</time>
      </trkpt>
      <trkpt lat="39.820784" lon="2.997711">
        <ele>89.8</ele>
        <time>2016-04-18T18:09:11Z</time>
      </trkpt>
      <trkpt lat="39.820829" lon="2.997763">
        <ele>89.7</ele>
        <time>2016-04-18T18:09:12Z</time>
      </trkpt>
      <trkpt lat="39.820869" lon="2.997824">
        <ele>89.7</ele>
        <time>2016-04-18T18:09:13Z</time>
      </trkpt>
      <trkpt lat="39.820909" lon="2.997885">
        <ele>89.6</ele>
        <time>2016-04-18T18:09:14Z</time>
      </trkpt>
      <trkpt lat="39.820953" lon="2.997943">
        <ele>89.6</ele>
        <time>2016-04-18T18:09:15Z</time>
      </trkpt>
      <trkpt lat="39.820994" lon="2.998005">
        <ele>89.9</ele>
        <time>2016-04-18T18:09:16Z</time>
      </trkpt>
      <trkpt lat="39.821036" lon="2.998054">
        <ele>90</ele>
        <time>2016-04-18T18:09:17Z</time>
      </trkpt>
      <trkpt lat="39.821076" lon="2.99811">
        <ele>90.1</ele>
        <time>2016-04-18T18:09:18Z</time>
      </trkpt>
      <trkpt lat="39.821119" lon="2.99817">
        <ele>90.1</ele>
        <time>2016-04-18T18:09:19Z</time>
      </trkpt>
      <trkpt lat="39.821162" lon="2.998219">
        <ele>89.9</ele>
        <time>2016-04-18T18:09:20Z</time>
      </trkpt>
      <trkpt lat="39.821205" lon="2.998283">
        <ele>89.8</ele>
        <time>2016-04-18T18:09:21Z</time>
      </trkpt>
      <trkpt lat="39.821243" lon="2.998329">
        <ele>89.6</ele>
        <time>2016-04-18T18:09:22Z</time>
      </trkpt>
      <trkpt lat="39.821283" lon="2.998371">
        <ele>89.7</ele>
        <time>2016-04-18T18:09:23Z</time>
      </trkpt>
      <trkpt lat="39.821321" lon="2.998431">
        <ele>89.9</ele>
        <time>2016-04-18T18:09:24Z</time>
      </trkpt>
      <trkpt lat="39.821359" lon="2.998474">
        <ele>90.1</ele>
        <time>2016-04-18T18:09:25Z</time>
      </trkpt>
      <trkpt lat="39.821396" lon="2.998532">
        <ele>90.3</ele>
        <time>2016-04-18T18:09:26Z</time>
      </trkpt>
      <trkpt lat="39.821431" lon="2.998575">
        <ele>90.5</ele>
        <time>2016-04-18T18:09:27Z</time>
      </trkpt>
      <trkpt lat="39.821467" lon="2.998624">
        <ele>90.6</ele>
        <time>2016-04-18T18:09:28Z</time>
      </trkpt>
      <trkpt lat="39.821503" lon="2.998677">
        <ele>90.8</ele>
        <time>2016-04-18T18:09:29Z</time>
      </trkpt>
      <trkpt lat="39.821533" lon="2.998723">
        <ele>90.9</ele>
        <time>2016-04-18T18:09:30Z</time>
      </trkpt>
      <trkpt lat="39.821571" lon="2.998774">
        <ele>91.3</ele>
        <time>2016-04-18T18:09:31Z</time>
      </trkpt>
      <trkpt lat="39.821608" lon="2.998814">
        <ele>91.9</ele>
        <time>2016-04-18T18:09:32Z</time>
      </trkpt>
      <trkpt lat="39.821649" lon="2.998859">
        <ele>92.5</ele>
        <time>2016-04-18T18:09:33Z</time>
      </trkpt>
      <trkpt lat="39.821688" lon="2.998909">
        <ele>93</ele>
        <time>2016-04-18T18:09:34Z</time>
      </trkpt>
      <trkpt lat="39.82172" lon="2.998958">
        <ele>93.6</ele>
        <time>2016-04-18T18:09:35Z</time>
      </trkpt>
      <trkpt lat="39.821759" lon="2.999012">
        <ele>94.1</ele>
        <time>2016-04-18T18:09:36Z</time>
      </trkpt>
      <trkpt lat="39.821795" lon="2.999058">
        <ele>94.5</ele>
        <time>2016-04-18T18:09:37Z</time>
      </trkpt>
      <trkpt lat="39.821831" lon="2.999097">
        <ele>94.8</ele>
        <time>2016-04-18T18:09:38Z</time>
      </trkpt>
      <trkpt lat="39.821864" lon="2.999145">
        <ele>95.1</ele>
        <time>2016-04-18T18:09:39Z</time>
      </trkpt>
      <trkpt lat="39.821891" lon="2.999196">
        <ele>95.4</ele>
        <time>2016-04-18T18:09:40Z</time>
      </trkpt>
      <trkpt lat="39.821923" lon="2.999242">
        <ele>95.7</ele>
        <time>2016-04-18T18:09:41Z</time>
      </trkpt>
      <trkpt lat="39.821964" lon="2.999277">
        <ele>95.7</ele>
        <time>2016-04-18T18:09:42Z</time>
      </trkpt>
      <trkpt lat="39.821998" lon="2.999317">
        <ele>95.8</ele>
        <time>2016-04-18T18:09:43Z</time>
      </trkpt>
      <trkpt lat="39.82203" lon="2.999354">
        <ele>95.8</ele>
        <time>2016-04-18T18:09:44Z</time>
      </trkpt>
      <trkpt lat="39.822065" lon="2.999401">
        <ele>95.9</ele>
        <time>2016-04-18T18:09:45Z</time>
      </trkpt>
      <trkpt lat="39.822104" lon="2.999439">
        <ele>95.9</ele>
        <time>2016-04-18T18:09:46Z</time>
      </trkpt>
      <trkpt lat="39.822144" lon="2.999479">
        <ele>96.1</ele>
        <time>2016-04-18T18:09:47Z</time>
      </trkpt>
      <trkpt lat="39.822186" lon="2.999525">
        <ele>96.4</ele>
        <time>2016-04-18T18:09:48Z</time>
      </trkpt>
      <trkpt lat="39.822224" lon="2.999561">
        <ele>96.5</ele>
        <time>2016-04-18T18:09:49Z</time>
      </trkpt>
      <trkpt lat="39.822261" lon="2.999595">
        <ele>96.8</ele>
        <time>2016-04-18T18:09:50Z</time>
      </trkpt>
      <trkpt lat="39.822296" lon="2.999644">
        <ele>97.7</ele>
        <time>2016-04-18T18:09:51Z</time>
      </trkpt>
      <trkpt lat="39.822339" lon="2.999678">
        <ele>98.2</ele>
        <time>2016-04-18T18:09:52Z</time>
      </trkpt>
      <trkpt lat="39.822381" lon="2.999716">
        <ele>98.7</ele>
        <time>2016-04-18T18:09:53Z</time>
      </trkpt>
      <trkpt lat="39.822419" lon="2.999761">
        <ele>99.4</ele>
        <time>2016-04-18T18:09:54Z</time>
      </trkpt>
      <trkpt lat="39.822458" lon="2.999807">
        <ele>100</ele>
        <time>2016-04-18T18:09:55Z</time>
      </trkpt>
      <trkpt lat="39.822491" lon="2.999864">
        <ele>100.8</ele>
        <time>2016-04-18T18:09:56Z</time>
      </trkpt>
      <trkpt lat="39.822527" lon="2.99991">
        <ele>101.3</ele>
        <time>2016-04-18T18:09:57Z</time>
      </trkpt>
      <trkpt lat="39.822561" lon="2.999955">
        <ele>101.8</ele>
        <time>2016-04-18T18:09:58Z</time>
      </trkpt>
      <trkpt lat="39.822599" lon="2.999996">
        <ele>102.1</ele>
        <time>2016-04-18T18:09:59Z</time>
      </trkpt>
      <trkpt lat="39.822634" lon="3.000035">
        <ele>102.4</ele>
        <time>2016-04-18T18:10:00Z</time>
      </trkpt>
      <trkpt lat="39.82267" lon="3.000076">
        <ele>102.7</ele>
        <time>2016-04-18T18:10:01Z</time>
      </trkpt>
      <trkpt lat="39.822705" lon="3.000111">
        <ele>102.8</ele>
        <time>2016-04-18T18:10:02Z</time>
      </trkpt>
      <trkpt lat="39.822742" lon="3.000151">
        <ele>103</ele>
        <time>2016-04-18T18:10:03Z</time>
      </trkpt>
      <trkpt lat="39.822772" lon="3.000196">
        <ele>103.2</ele>
        <time>2016-04-18T18:10:04Z</time>
      </trkpt>
      <trkpt lat="39.822805" lon="3.000242">
        <ele>103.4</ele>
        <time>2016-04-18T18:10:05Z</time>
      </trkpt>
      <trkpt lat="39.822835" lon="3.000283">
        <ele>103.6</ele>
        <time>2016-04-18T18:10:06Z</time>
      </trkpt>
      <trkpt lat="39.822863" lon="3.000328">
        <ele>103.7</ele>
        <time>2016-04-18T18:10:07Z</time>
      </trkpt>
      <trkpt lat="39.822893" lon="3.000372">
        <ele>103.8</ele>
        <time>2016-04-18T18:10:08Z</time>
      </trkpt>
      <trkpt lat="39.822922" lon="3.000414">
        <ele>103.9</ele>
        <time>2016-04-18T18:10:09Z</time>
      </trkpt>
      <trkpt lat="39.822952" lon="3.000457">
        <ele>104.3</ele>
        <time>2016-04-18T18:10:10Z</time>
      </trkpt>
      <trkpt lat="39.822988" lon="3.000501">
        <ele>104.6</ele>
        <time>2016-04-18T18:10:11Z</time>
      </trkpt>
      <trkpt lat="39.823024" lon="3.000541">
        <ele>104.9</ele>
        <time>2016-04-18T18:10:12Z</time>
      </trkpt>
      <trkpt lat="39.823062" lon="3.000581">
        <ele>105</ele>
        <time>2016-04-18T18:10:13Z</time>
      </trkpt>
      <trkpt lat="39.823105" lon="3.000613">
        <ele>105</ele>
        <time>2016-04-18T18:10:14Z</time>
      </trkpt>
      <trkpt lat="39.82315" lon="3.000653">
        <ele>104.9</ele>
        <time>2016-04-18T18:10:15Z</time>
      </trkpt>
      <trkpt lat="39.823193" lon="3.000691">
        <ele>104.9</ele>
        <time>2016-04-18T18:10:16Z</time>
      </trkpt>
      <trkpt lat="39.823239" lon="3.000734">
        <ele>104.8</ele>
        <time>2016-04-18T18:10:17Z</time>
      </trkpt>
      <trkpt lat="39.82329" lon="3.00077">
        <ele>104.5</ele>
        <time>2016-04-18T18:10:18Z</time>
      </trkpt>
      <trkpt lat="39.823338" lon="3.000804">
        <ele>104.1</ele>
        <time>2016-04-18T18:10:19Z</time>
      </trkpt>
      <trkpt lat="39.823385" lon="3.000833">
        <ele>103.7</ele>
        <time>2016-04-18T18:10:20Z</time>
      </trkpt>
      <trkpt lat="39.823437" lon="3.000865">
        <ele>103.2</ele>
        <time>2016-04-18T18:10:21Z</time>
      </trkpt>
      <trkpt lat="39.823483" lon="3.000899">
        <ele>102.7</ele>
        <time>2016-04-18T18:10:22Z</time>
      </trkpt>
      <trkpt lat="39.823535" lon="3.000928">
        <ele>102.1</ele>
        <time>2016-04-18T18:10:23Z</time>
      </trkpt>
      <trkpt lat="39.823589" lon="3.000954">
        <ele>101.4</ele>
        <time>2016-04-18T18:10:24Z</time>
      </trkpt>
      <trkpt lat="39.823645" lon="3.000977">
        <ele>100.5</ele>
        <time>2016-04-18T18:10:25Z</time>
      </trkpt>
      <trkpt lat="39.823704" lon="3.000981">
        <ele>99.5</ele>
        <time>2016-04-18T18:10:26Z</time>
      </trkpt>
      <trkpt lat="39.823759" lon="3.00101">
        <ele>98.8</ele>
        <time>2016-04-18T18:10:27Z</time>
      </trkpt>
      <trkpt lat="39.823815" lon="3.001037">
        <ele>99</ele>
        <time>2016-04-18T18:10:28Z</time>
      </trkpt>
      <trkpt lat="39.823875" lon="3.001065">
        <ele>99</ele>
        <time>2016-04-18T18:10:29Z</time>
      </trkpt>
      <trkpt lat="39.823934" lon="3.001069">
        <ele>99</ele>
        <time>2016-04-18T18:10:30Z</time>
      </trkpt>
      <trkpt lat="39.823992" lon="3.001084">
        <ele>99</ele>
        <time>2016-04-18T18:10:31Z</time>
      </trkpt>
      <trkpt lat="39.824048" lon="3.001128">
        <ele>99.1</ele>
        <time>2016-04-18T18:10:32Z</time>
      </trkpt>
      <trkpt lat="39.82411" lon="3.001147">
        <ele>99</ele>
        <time>2016-04-18T18:10:33Z</time>
      </trkpt>
      <trkpt lat="39.824168" lon="3.001181">
        <ele>99</ele>
        <time>2016-04-18T18:10:34Z</time>
      </trkpt>
      <trkpt lat="39.824227" lon="3.001224">
        <ele>98.9</ele>
        <time>2016-04-18T18:10:35Z</time>
      </trkpt>
      <trkpt lat="39.824282" lon="3.001281">
        <ele>98.9</ele>
        <time>2016-04-18T18:10:36Z</time>
      </trkpt>
      <trkpt lat="39.824334" lon="3.001348">
        <ele>98.9</ele>
        <time>2016-04-18T18:10:37Z</time>
      </trkpt>
      <trkpt lat="39.824381" lon="3.00142">
        <ele>98.9</ele>
        <time>2016-04-18T18:10:38Z</time>
      </trkpt>
      <trkpt lat="39.824426" lon="3.001493">
        <ele>98.7</ele>
        <time>2016-04-18T18:10:39Z</time>
      </trkpt>
      <trkpt lat="39.824468" lon="3.001565">
        <ele>98.4</ele>
        <time>2016-04-18T18:10:40Z</time>
      </trkpt>
      <trkpt lat="39.824514" lon="3.001643">
        <ele>97.9</ele>
        <time>2016-04-18T18:10:41Z</time>
      </trkpt>
      <trkpt lat="39.824558" lon="3.001718">
        <ele>97.2</ele>
        <time>2016-04-18T18:10:42Z</time>
      </trkpt>
      <trkpt lat="39.824605" lon="3.001793">
        <ele>96.7</ele>
        <time>2016-04-18T18:10:43Z</time>
      </trkpt>
      <trkpt lat="39.824653" lon="3.001864">
        <ele>96.5</ele>
        <time>2016-04-18T18:10:44Z</time>
      </trkpt>
      <trkpt lat="39.824708" lon="3.001934">
        <ele>96.4</ele>
        <time>2016-04-18T18:10:45Z</time>
      </trkpt>
      <trkpt lat="39.824765" lon="3.002">
        <ele>96.2</ele>
        <time>2016-04-18T18:10:46Z</time>
      </trkpt>
      <trkpt lat="39.824817" lon="3.002097">
        <ele>96</ele>
        <time>2016-04-18T18:10:47Z</time>
      </trkpt>
      <trkpt lat="39.824867" lon="3.002169">
        <ele>96</ele>
        <time>2016-04-18T18:10:48Z</time>
      </trkpt>
      <trkpt lat="39.82492" lon="3.002242">
        <ele>96</ele>
        <time>2016-04-18T18:10:49Z</time>
      </trkpt>
      <trkpt lat="39.824971" lon="3.002317">
        <ele>95.9</ele>
        <time>2016-04-18T18:10:50Z</time>
      </trkpt>
      <trkpt lat="39.82502" lon="3.002407">
        <ele>95.8</ele>
        <time>2016-04-18T18:10:51Z</time>
      </trkpt>
      <trkpt lat="39.82507" lon="3.0025">
        <ele>95.6</ele>
        <time>2016-04-18T18:10:52Z</time>
      </trkpt>
      <trkpt lat="39.825119" lon="3.002581">
        <ele>95.4</ele>
        <time>2016-04-18T18:10:53Z</time>
      </trkpt>
      <trkpt lat="39.825169" lon="3.002648">
        <ele>95.2</ele>
        <time>2016-04-18T18:10:54Z</time>
      </trkpt>
      <trkpt lat="39.825224" lon="3.00271">
        <ele>95</ele>
        <time>2016-04-18T18:10:55Z</time>
      </trkpt>
      <trkpt lat="39.825277" lon="3.002769">
        <ele>94.8</ele>
        <time>2016-04-18T18:10:56Z</time>
      </trkpt>
      <trkpt lat="39.825333" lon="3.002829">
        <ele>94.5</ele>
        <time>2016-04-18T18:10:57Z</time>
      </trkpt>
      <trkpt lat="39.825384" lon="3.002891">
        <ele>94.2</ele>
        <time>2016-04-18T18:10:58Z</time>
      </trkpt>
      <trkpt lat="39.825436" lon="3.002957">
        <ele>93.9</ele>
        <time>2016-04-18T18:10:59Z</time>
      </trkpt>
      <trkpt lat="39.825489" lon="3.003011">
        <ele>93.9</ele>
        <time>2016-04-18T18:11:00Z</time>
      </trkpt>
      <trkpt lat="39.82554" lon="3.003072">
        <ele>93.9</ele>
        <time>2016-04-18T18:11:01Z</time>
      </trkpt>
      <trkpt lat="39.825596" lon="3.003134">
        <ele>93.9</ele>
        <time>2016-04-18T18:11:02Z</time>
      </trkpt>
      <trkpt lat="39.825653" lon="3.003191">
        <ele>93.9</ele>
        <time>2016-04-18T18:11:03Z</time>
      </trkpt>
      <trkpt lat="39.825703" lon="3.003259">
        <ele>93.9</ele>
        <time>2016-04-18T18:11:04Z</time>
      </trkpt>
      <trkpt lat="39.825757" lon="3.003324">
        <ele>93.8</ele>
        <time>2016-04-18T18:11:05Z</time>
      </trkpt>
      <trkpt lat="39.825812" lon="3.003389">
        <ele>93.8</ele>
        <time>2016-04-18T18:11:06Z</time>
      </trkpt>
      <trkpt lat="39.825868" lon="3.003461">
        <ele>93.8</ele>
        <time>2016-04-18T18:11:07Z</time>
      </trkpt>
      <trkpt lat="39.82592" lon="3.003532">
        <ele>93.7</ele>
        <time>2016-04-18T18:11:08Z</time>
      </trkpt>
      <trkpt lat="39.825973" lon="3.003597">
        <ele>93.7</ele>
        <time>2016-04-18T18:11:09Z</time>
      </trkpt>
      <trkpt lat="39.826028" lon="3.003669">
        <ele>93.7</ele>
        <time>2016-04-18T18:11:10Z</time>
      </trkpt>
      <trkpt lat="39.826079" lon="3.003739">
        <ele>93.6</ele>
        <time>2016-04-18T18:11:11Z</time>
      </trkpt>
      <trkpt lat="39.826129" lon="3.003811">
        <ele>93.5</ele>
        <time>2016-04-18T18:11:12Z</time>
      </trkpt>
      <trkpt lat="39.826182" lon="3.003891">
        <ele>93.4</ele>
        <time>2016-04-18T18:11:13Z</time>
      </trkpt>
      <trkpt lat="39.826234" lon="3.00396">
        <ele>93.2</ele>
        <time>2016-04-18T18:11:14Z</time>
      </trkpt>
      <trkpt lat="39.826289" lon="3.004035">
        <ele>93.2</ele>
        <time>2016-04-18T18:11:15Z</time>
      </trkpt>
      <trkpt lat="39.826339" lon="3.004117">
        <ele>93.1</ele>
        <time>2016-04-18T18:11:16Z</time>
      </trkpt>
      <trkpt lat="39.826392" lon="3.00419">
        <ele>93.1</ele>
        <time>2016-04-18T18:11:17Z</time>
      </trkpt>
      <trkpt lat="39.826444" lon="3.004264">
        <ele>93.1</ele>
        <time>2016-04-18T18:11:18Z</time>
      </trkpt>
      <trkpt lat="39.826496" lon="3.004338">
        <ele>93.1</ele>
        <time>2016-04-18T18:11:19Z</time>
      </trkpt>
      <trkpt lat="39.826549" lon="3.004402">
        <ele>93.1</ele>
        <time>2016-04-18T18:11:20Z</time>
      </trkpt>
      <trkpt lat="39.826591" lon="3.004521">
        <ele>92.9</ele>
        <time>2016-04-18T18:11:21Z</time>
      </trkpt>
      <trkpt lat="39.826633" lon="3.004598">
        <ele>92.8</ele>
        <time>2016-04-18T18:11:22Z</time>
      </trkpt>
      <trkpt lat="39.826676" lon="3.004675">
        <ele>93</ele>
        <time>2016-04-18T18:11:23Z</time>
      </trkpt>
      <trkpt lat="39.826711" lon="3.004761">
        <ele>93.1</ele>
        <time>2016-04-18T18:11:24Z</time>
      </trkpt>
      <trkpt lat="39.826754" lon="3.004847">
        <ele>93.3</ele>
        <time>2016-04-18T18:11:25Z</time>
      </trkpt>
      <trkpt lat="39.826797" lon="3.004925">
        <ele>93.5</ele>
        <time>2016-04-18T18:11:26Z</time>
      </trkpt>
      <trkpt lat="39.82683" lon="3.005039">
        <ele>93.6</ele>
        <time>2016-04-18T18:11:27Z</time>
      </trkpt>
      <trkpt lat="39.82686" lon="3.005124">
        <ele>93.8</ele>
        <time>2016-04-18T18:11:28Z</time>
      </trkpt>
      <trkpt lat="39.826898" lon="3.005196">
        <ele>93.9</ele>
        <time>2016-04-18T18:11:29Z</time>
      </trkpt>
      <trkpt lat="39.826937" lon="3.005272">
        <ele>94.2</ele>
        <time>2016-04-18T18:11:30Z</time>
      </trkpt>
      <trkpt lat="39.826978" lon="3.00535">
        <ele>94.4</ele>
        <time>2016-04-18T18:11:31Z</time>
      </trkpt>
      <trkpt lat="39.827015" lon="3.00543">
        <ele>94.6</ele>
        <time>2016-04-18T18:11:32Z</time>
      </trkpt>
      <trkpt lat="39.82705" lon="3.005513">
        <ele>94.6</ele>
        <time>2016-04-18T18:11:33Z</time>
      </trkpt>
      <trkpt lat="39.827091" lon="3.005605">
        <ele>94.6</ele>
        <time>2016-04-18T18:11:34Z</time>
      </trkpt>
      <trkpt lat="39.827135" lon="3.005693">
        <ele>94.4</ele>
        <time>2016-04-18T18:11:35Z</time>
      </trkpt>
      <trkpt lat="39.827177" lon="3.005776">
        <ele>94.2</ele>
        <time>2016-04-18T18:11:36Z</time>
      </trkpt>
      <trkpt lat="39.827218" lon="3.00587">
        <ele>94</ele>
        <time>2016-04-18T18:11:37Z</time>
      </trkpt>
      <trkpt lat="39.82726" lon="3.005953">
        <ele>93.8</ele>
        <time>2016-04-18T18:11:38Z</time>
      </trkpt>
      <trkpt lat="39.827309" lon="3.006029">
        <ele>93.6</ele>
        <time>2016-04-18T18:11:39Z</time>
      </trkpt>
      <trkpt lat="39.82737" lon="3.006089">
        <ele>93.5</ele>
        <time>2016-04-18T18:11:40Z</time>
      </trkpt>
      <trkpt lat="39.827448" lon="3.006142">
        <ele>93.3</ele>
        <time>2016-04-18T18:11:41Z</time>
      </trkpt>
      <trkpt lat="39.827512" lon="3.006187">
        <ele>93.2</ele>
        <time>2016-04-18T18:11:42Z</time>
      </trkpt>
      <trkpt lat="39.827583" lon="3.006231">
        <ele>93.1</ele>
        <time>2016-04-18T18:11:43Z</time>
      </trkpt>
      <trkpt lat="39.827651" lon="3.006278">
        <ele>92.9</ele>
        <time>2016-04-18T18:11:44Z</time>
      </trkpt>
      <trkpt lat="39.827723" lon="3.00633">
        <ele>92.8</ele>
        <time>2016-04-18T18:11:45Z</time>
      </trkpt>
      <trkpt lat="39.827792" lon="3.006373">
        <ele>92.7</ele>
        <time>2016-04-18T18:11:46Z</time>
      </trkpt>
      <trkpt lat="39.827862" lon="3.006422">
        <ele>92.6</ele>
        <time>2016-04-18T18:11:47Z</time>
      </trkpt>
      <trkpt lat="39.827934" lon="3.006476">
        <ele>92.5</ele>
        <time>2016-04-18T18:11:48Z</time>
      </trkpt>
      <trkpt lat="39.828002" lon="3.006562">
        <ele>92.4</ele>
        <time>2016-04-18T18:11:49Z</time>
      </trkpt>
      <trkpt lat="39.828062" lon="3.006616">
        <ele>92.3</ele>
        <time>2016-04-18T18:11:50Z</time>
      </trkpt>
      <trkpt lat="39.828122" lon="3.006652">
        <ele>92.3</ele>
        <time>2016-04-18T18:11:51Z</time>
      </trkpt>
      <trkpt lat="39.828186" lon="3.006736">
        <ele>92.1</ele>
        <time>2016-04-18T18:11:52Z</time>
      </trkpt>
      <trkpt lat="39.828252" lon="3.006776">
        <ele>92</ele>
        <time>2016-04-18T18:11:53Z</time>
      </trkpt>
      <trkpt lat="39.828322" lon="3.006833">
        <ele>91.9</ele>
        <time>2016-04-18T18:11:54Z</time>
      </trkpt>
      <trkpt lat="39.828388" lon="3.006884">
        <ele>91.7</ele>
        <time>2016-04-18T18:11:55Z</time>
      </trkpt>
      <trkpt lat="39.828447" lon="3.006956">
        <ele>91.5</ele>
        <time>2016-04-18T18:11:56Z</time>
      </trkpt>
      <trkpt lat="39.828509" lon="3.007024">
        <ele>91.2</ele>
        <time>2016-04-18T18:11:57Z</time>
      </trkpt>
      <trkpt lat="39.82857" lon="3.007087">
        <ele>91</ele>
        <time>2016-04-18T18:11:58Z</time>
      </trkpt>
      <trkpt lat="39.828634" lon="3.007149">
        <ele>90.8</ele>
        <time>2016-04-18T18:11:59Z</time>
      </trkpt>
      <trkpt lat="39.828696" lon="3.007213">
        <ele>90.5</ele>
        <time>2016-04-18T18:12:00Z</time>
      </trkpt>
      <trkpt lat="39.828759" lon="3.007288">
        <ele>90.3</ele>
        <time>2016-04-18T18:12:01Z</time>
      </trkpt>
      <trkpt lat="39.828813" lon="3.007369">
        <ele>90.2</ele>
        <time>2016-04-18T18:12:02Z</time>
      </trkpt>
      <trkpt lat="39.828883" lon="3.007449">
        <ele>90.2</ele>
        <time>2016-04-18T18:12:03Z</time>
      </trkpt>
      <trkpt lat="39.828945" lon="3.00753">
        <ele>90.1</ele>
        <time>2016-04-18T18:12:04Z</time>
      </trkpt>
      <trkpt lat="39.829008" lon="3.007618">
        <ele>89.9</ele>
        <time>2016-04-18T18:12:05Z</time>
      </trkpt>
      <trkpt lat="39.829061" lon="3.007713">
        <ele>89.7</ele>
        <time>2016-04-18T18:12:06Z</time>
      </trkpt>
      <trkpt lat="39.829103" lon="3.007819">
        <ele>89.3</ele>
        <time>2016-04-18T18:12:07Z</time>
      </trkpt>
      <trkpt lat="39.829141" lon="3.007911">
        <ele>89</ele>
        <time>2016-04-18T18:12:08Z</time>
      </trkpt>
      <trkpt lat="39.829177" lon="3.008016">
        <ele>88.9</ele>
        <time>2016-04-18T18:12:09Z</time>
      </trkpt>
      <trkpt lat="39.829218" lon="3.008139">
        <ele>88.9</ele>
        <time>2016-04-18T18:12:10Z</time>
      </trkpt>
      <trkpt lat="39.829251" lon="3.00824">
        <ele>88.9</ele>
        <time>2016-04-18T18:12:11Z</time>
      </trkpt>
      <trkpt lat="39.829291" lon="3.008337">
        <ele>88.9</ele>
        <time>2016-04-18T18:12:12Z</time>
      </trkpt>
      <trkpt lat="39.829329" lon="3.008444">
        <ele>89</ele>
        <time>2016-04-18T18:12:13Z</time>
      </trkpt>
      <trkpt lat="39.829367" lon="3.008554">
        <ele>89.1</ele>
        <time>2016-04-18T18:12:14Z</time>
      </trkpt>
      <trkpt lat="39.829408" lon="3.008661">
        <ele>89.2</ele>
        <time>2016-04-18T18:12:15Z</time>
      </trkpt>
      <trkpt lat="39.829454" lon="3.008775">
        <ele>89.3</ele>
        <time>2016-04-18T18:12:16Z</time>
      </trkpt>
      <trkpt lat="39.829506" lon="3.008889">
        <ele>89</ele>
        <time>2016-04-18T18:12:17Z</time>
      </trkpt>
      <trkpt lat="39.829554" lon="3.009013">
        <ele>88.6</ele>
        <time>2016-04-18T18:12:18Z</time>
      </trkpt>
      <trkpt lat="39.829601" lon="3.009131">
        <ele>88.2</ele>
        <time>2016-04-18T18:12:19Z</time>
      </trkpt>
      <trkpt lat="39.829652" lon="3.009244">
        <ele>87.7</ele>
        <time>2016-04-18T18:12:20Z</time>
      </trkpt>
      <trkpt lat="39.829706" lon="3.009351">
        <ele>87.2</ele>
        <time>2016-04-18T18:12:21Z</time>
      </trkpt>
      <trkpt lat="39.829768" lon="3.009458">
        <ele>86.7</ele>
        <time>2016-04-18T18:12:22Z</time>
      </trkpt>
      <trkpt lat="39.829825" lon="3.009561">
        <ele>86.1</ele>
        <time>2016-04-18T18:12:23Z</time>
      </trkpt>
      <trkpt lat="39.829873" lon="3.009667">
        <ele>85.8</ele>
        <time>2016-04-18T18:12:24Z</time>
      </trkpt>
      <trkpt lat="39.829925" lon="3.009768">
        <ele>85.5</ele>
        <time>2016-04-18T18:12:25Z</time>
      </trkpt>
      <trkpt lat="39.829967" lon="3.00987">
        <ele>85.2</ele>
        <time>2016-04-18T18:12:26Z</time>
      </trkpt>
      <trkpt lat="39.830015" lon="3.009968">
        <ele>84.8</ele>
        <time>2016-04-18T18:12:27Z</time>
      </trkpt>
      <trkpt lat="39.830058" lon="3.010056">
        <ele>84.5</ele>
        <time>2016-04-18T18:12:28Z</time>
      </trkpt>
      <trkpt lat="39.830107" lon="3.010145">
        <ele>84.2</ele>
        <time>2016-04-18T18:12:29Z</time>
      </trkpt>
      <trkpt lat="39.830156" lon="3.010228">
        <ele>83.9</ele>
        <time>2016-04-18T18:12:30Z</time>
      </trkpt>
      <trkpt lat="39.830207" lon="3.010318">
        <ele>83.6</ele>
        <time>2016-04-18T18:12:31Z</time>
      </trkpt>
      <trkpt lat="39.830259" lon="3.010405">
        <ele>83.2</ele>
        <time>2016-04-18T18:12:32Z</time>
      </trkpt>
      <trkpt lat="39.830319" lon="3.010503">
        <ele>82.9</ele>
        <time>2016-04-18T18:12:33Z</time>
      </trkpt>
      <trkpt lat="39.830374" lon="3.010595">
        <ele>82.6</ele>
        <time>2016-04-18T18:12:34Z</time>
      </trkpt>
      <trkpt lat="39.830431" lon="3.010689">
        <ele>82.4</ele>
        <time>2016-04-18T18:12:35Z</time>
      </trkpt>
      <trkpt lat="39.83048" lon="3.010774">
        <ele>82.5</ele>
        <time>2016-04-18T18:12:36Z</time>
      </trkpt>
      <trkpt lat="39.830535" lon="3.010857">
        <ele>82.6</ele>
        <time>2016-04-18T18:12:37Z</time>
      </trkpt>
      <trkpt lat="39.830587" lon="3.010951">
        <ele>82.6</ele>
        <time>2016-04-18T18:12:38Z</time>
      </trkpt>
      <trkpt lat="39.83064" lon="3.011039">
        <ele>82.6</ele>
        <time>2016-04-18T18:12:39Z</time>
      </trkpt>
      <trkpt lat="39.830682" lon="3.011116">
        <ele>82.6</ele>
        <time>2016-04-18T18:12:40Z</time>
      </trkpt>
      <trkpt lat="39.83073" lon="3.011189">
        <ele>82.7</ele>
        <time>2016-04-18T18:12:41Z</time>
      </trkpt>
      <trkpt lat="39.83078" lon="3.011258">
        <ele>82.7</ele>
        <time>2016-04-18T18:12:42Z</time>
      </trkpt>
      <trkpt lat="39.83084" lon="3.011311">
        <ele>82.8</ele>
        <time>2016-04-18T18:12:43Z</time>
      </trkpt>
      <trkpt lat="39.830896" lon="3.011373">
        <ele>82.9</ele>
        <time>2016-04-18T18:12:44Z</time>
      </trkpt>
      <trkpt lat="39.830955" lon="3.011433">
        <ele>83.1</ele>
        <time>2016-04-18T18:12:45Z</time>
      </trkpt>
      <trkpt lat="39.831012" lon="3.0115">
        <ele>83.2</ele>
        <time>2016-04-18T18:12:46Z</time>
      </trkpt>
      <trkpt lat="39.831069" lon="3.011564">
        <ele>83.3</ele>
        <time>2016-04-18T18:12:47Z</time>
      </trkpt>
      <trkpt lat="39.831115" lon="3.011636">
        <ele>83.4</ele>
        <time>2016-04-18T18:12:48Z</time>
      </trkpt>
      <trkpt lat="39.831161" lon="3.011719">
        <ele>83.4</ele>
        <time>2016-04-18T18:12:49Z</time>
      </trkpt>
      <trkpt lat="39.831209" lon="3.01179">
        <ele>83.5</ele>
        <time>2016-04-18T18:12:50Z</time>
      </trkpt>
      <trkpt lat="39.831254" lon="3.011862">
        <ele>83.6</ele>
        <time>2016-04-18T18:12:51Z</time>
      </trkpt>
      <trkpt lat="39.831305" lon="3.011922">
        <ele>83.8</ele>
        <time>2016-04-18T18:12:52Z</time>
      </trkpt>
      <trkpt lat="39.831371" lon="3.011971">
        <ele>84.3</ele>
        <time>2016-04-18T18:12:53Z</time>
      </trkpt>
      <trkpt lat="39.831431" lon="3.01202">
        <ele>84.7</ele>
        <time>2016-04-18T18:12:54Z</time>
      </trkpt>
      <trkpt lat="39.831478" lon="3.012056">
        <ele>85</ele>
        <time>2016-04-18T18:12:55Z</time>
      </trkpt>
      <trkpt lat="39.831533" lon="3.012097">
        <ele>85.3</ele>
        <time>2016-04-18T18:12:56Z</time>
      </trkpt>
      <trkpt lat="39.831589" lon="3.01213">
        <ele>85.7</ele>
        <time>2016-04-18T18:12:57Z</time>
      </trkpt>
      <trkpt lat="39.831648" lon="3.012173">
        <ele>86</ele>
        <time>2016-04-18T18:12:58Z</time>
      </trkpt>
      <trkpt lat="39.831699" lon="3.012222">
        <ele>86.2</ele>
        <time>2016-04-18T18:12:59Z</time>
      </trkpt>
      <trkpt lat="39.831746" lon="3.012282">
        <ele>86.3</ele>
        <time>2016-04-18T18:13:00Z</time>
      </trkpt>
      <trkpt lat="39.831792" lon="3.01234">
        <ele>86.3</ele>
        <time>2016-04-18T18:13:01Z</time>
      </trkpt>
      <trkpt lat="39.831837" lon="3.012401">
        <ele>86.4</ele>
        <time>2016-04-18T18:13:02Z</time>
      </trkpt>
      <trkpt lat="39.831878" lon="3.012464">
        <ele>86.3</ele>
        <time>2016-04-18T18:13:03Z</time>
      </trkpt>
      <trkpt lat="39.831922" lon="3.012529">
        <ele>86.3</ele>
        <time>2016-04-18T18:13:04Z</time>
      </trkpt>
      <trkpt lat="39.831955" lon="3.012598">
        <ele>86.1</ele>
        <time>2016-04-18T18:13:05Z</time>
      </trkpt>
      <trkpt lat="39.831992" lon="3.012679">
        <ele>85.9</ele>
        <time>2016-04-18T18:13:06Z</time>
      </trkpt>
      <trkpt lat="39.832021" lon="3.012746">
        <ele>85.7</ele>
        <time>2016-04-18T18:13:07Z</time>
      </trkpt>
      <trkpt lat="39.83205" lon="3.012828">
        <ele>85.4</ele>
        <time>2016-04-18T18:13:08Z</time>
      </trkpt>
      <trkpt lat="39.83208" lon="3.012906">
        <ele>85</ele>
        <time>2016-04-18T18:13:09Z</time>
      </trkpt>
      <trkpt lat="39.832109" lon="3.012979">
        <ele>84.8</ele>
        <time>2016-04-18T18:13:10Z</time>
      </trkpt>
      <trkpt lat="39.832138" lon="3.013055">
        <ele>84.6</ele>
        <time>2016-04-18T18:13:11Z</time>
      </trkpt>
      <trkpt lat="39.832165" lon="3.013151">
        <ele>84.2</ele>
        <time>2016-04-18T18:13:12Z</time>
      </trkpt>
      <trkpt lat="39.832197" lon="3.013245">
        <ele>83.9</ele>
        <time>2016-04-18T18:13:13Z</time>
      </trkpt>
      <trkpt lat="39.832221" lon="3.01334">
        <ele>83.5</ele>
        <time>2016-04-18T18:13:14Z</time>
      </trkpt>
      <trkpt lat="39.83226" lon="3.013444">
        <ele>83.2</ele>
        <time>2016-04-18T18:13:15Z</time>
      </trkpt>
      <trkpt lat="39.832288" lon="3.013539">
        <ele>82.9</ele>
        <time>2016-04-18T18:13:16Z</time>
      </trkpt>
      <trkpt lat="39.83232" lon="3.013641">
        <ele>82.6</ele>
        <time>2016-04-18T18:13:17Z</time>
      </trkpt>
      <trkpt lat="39.832357" lon="3.013737">
        <ele>82.4</ele>
        <time>2016-04-18T18:13:18Z</time>
      </trkpt>
      <trkpt lat="39.832392" lon="3.013835">
        <ele>82.1</ele>
        <time>2016-04-18T18:13:19Z</time>
      </trkpt>
      <trkpt lat="39.832426" lon="3.013929">
        <ele>81.9</ele>
        <time>2016-04-18T18:13:20Z</time>
      </trkpt>
      <trkpt lat="39.832461" lon="3.014036">
        <ele>81.5</ele>
        <time>2016-04-18T18:13:21Z</time>
      </trkpt>
      <trkpt lat="39.832501" lon="3.014135">
        <ele>81.2</ele>
        <time>2016-04-18T18:13:22Z</time>
      </trkpt>
      <trkpt lat="39.832545" lon="3.014222">
        <ele>81.1</ele>
        <time>2016-04-18T18:13:23Z</time>
      </trkpt>
      <trkpt lat="39.832595" lon="3.014297">
        <ele>81.1</ele>
        <time>2016-04-18T18:13:24Z</time>
      </trkpt>
      <trkpt lat="39.832654" lon="3.014365">
        <ele>81.1</ele>
        <time>2016-04-18T18:13:25Z</time>
      </trkpt>
      <trkpt lat="39.832714" lon="3.014432">
        <ele>81.2</ele>
        <time>2016-04-18T18:13:26Z</time>
      </trkpt>
      <trkpt lat="39.832775" lon="3.014507">
        <ele>81.3</ele>
        <time>2016-04-18T18:13:27Z</time>
      </trkpt>
      <trkpt lat="39.832834" lon="3.014582">
        <ele>81.2</ele>
        <time>2016-04-18T18:13:28Z</time>
      </trkpt>
      <trkpt lat="39.832894" lon="3.014665">
        <ele>81.1</ele>
        <time>2016-04-18T18:13:29Z</time>
      </trkpt>
      <trkpt lat="39.832958" lon="3.014745">
        <ele>80.9</ele>
        <time>2016-04-18T18:13:30Z</time>
      </trkpt>
      <trkpt lat="39.833028" lon="3.014822">
        <ele>80.7</ele>
        <time>2016-04-18T18:13:31Z</time>
      </trkpt>
      <trkpt lat="39.833098" lon="3.014976">
        <ele>79.9</ele>
        <time>2016-04-18T18:13:32Z</time>
      </trkpt>
      <trkpt lat="39.833182" lon="3.015072">
        <ele>79.7</ele>
        <time>2016-04-18T18:13:33Z</time>
      </trkpt>
      <trkpt lat="39.833268" lon="3.015137">
        <ele>79.7</ele>
        <time>2016-04-18T18:13:34Z</time>
      </trkpt>
      <trkpt lat="39.83336" lon="3.015233">
        <ele>79.6</ele>
        <time>2016-04-18T18:13:35Z</time>
      </trkpt>
      <trkpt lat="39.833434" lon="3.015326">
        <ele>79.4</ele>
        <time>2016-04-18T18:13:36Z</time>
      </trkpt>
      <trkpt lat="39.833493" lon="3.015431">
        <ele>79</ele>
        <time>2016-04-18T18:13:37Z</time>
      </trkpt>
      <trkpt lat="39.833545" lon="3.015546">
        <ele>77.9</ele>
        <time>2016-04-18T18:13:38Z</time>
      </trkpt>
      <trkpt lat="39.8336" lon="3.01567">
        <ele>76.6</ele>
        <time>2016-04-18T18:13:39Z</time>
      </trkpt>
      <trkpt lat="39.833655" lon="3.015796">
        <ele>75.4</ele>
        <time>2016-04-18T18:13:40Z</time>
      </trkpt>
      <trkpt lat="39.833712" lon="3.015934">
        <ele>73.9</ele>
        <time>2016-04-18T18:13:41Z</time>
      </trkpt>
      <trkpt lat="39.833771" lon="3.016073">
        <ele>72.5</ele>
        <time>2016-04-18T18:13:42Z</time>
      </trkpt>
      <trkpt lat="39.833836" lon="3.016209">
        <ele>71.4</ele>
        <time>2016-04-18T18:13:43Z</time>
      </trkpt>
      <trkpt lat="39.833897" lon="3.016345">
        <ele>71</ele>
        <time>2016-04-18T18:13:44Z</time>
      </trkpt>
      <trkpt lat="39.833962" lon="3.016479">
        <ele>70.8</ele>
        <time>2016-04-18T18:13:45Z</time>
      </trkpt>
      <trkpt lat="39.83402" lon="3.01661">
        <ele>70.5</ele>
        <time>2016-04-18T18:13:46Z</time>
      </trkpt>
      <trkpt lat="39.834067" lon="3.01675">
        <ele>69.9</ele>
        <time>2016-04-18T18:13:47Z</time>
      </trkpt>
      <trkpt lat="39.834103" lon="3.016881">
        <ele>69.2</ele>
        <time>2016-04-18T18:13:48Z</time>
      </trkpt>
      <trkpt lat="39.834141" lon="3.017007">
        <ele>68.5</ele>
        <time>2016-04-18T18:13:49Z</time>
      </trkpt>
      <trkpt lat="39.834174" lon="3.017127">
        <ele>67.9</ele>
        <time>2016-04-18T18:13:50Z</time>
      </trkpt>
      <trkpt lat="39.834198" lon="3.017243">
        <ele>67.7</ele>
        <time>2016-04-18T18:13:51Z</time>
      </trkpt>
      <trkpt lat="39.83422" lon="3.017355">
        <ele>67.4</ele>
        <time>2016-04-18T18:13:52Z</time>
      </trkpt>
      <trkpt lat="39.834246" lon="3.017472">
        <ele>67.2</ele>
        <time>2016-04-18T18:13:53Z</time>
      </trkpt>
      <trkpt lat="39.834269" lon="3.017587">
        <ele>66.9</ele>
        <time>2016-04-18T18:13:54Z</time>
      </trkpt>
      <trkpt lat="39.834294" lon="3.017696">
        <ele>66.7</ele>
        <time>2016-04-18T18:13:55Z</time>
      </trkpt>
      <trkpt lat="39.834319" lon="3.017808">
        <ele>66.4</ele>
        <time>2016-04-18T18:13:56Z</time>
      </trkpt>
      <trkpt lat="39.834345" lon="3.01792">
        <ele>66.1</ele>
        <time>2016-04-18T18:13:57Z</time>
      </trkpt>
      <trkpt lat="39.834368" lon="3.018019">
        <ele>66.1</ele>
        <time>2016-04-18T18:13:58Z</time>
      </trkpt>
      <trkpt lat="39.834387" lon="3.018128">
        <ele>66</ele>
        <time>2016-04-18T18:13:59Z</time>
      </trkpt>
      <trkpt lat="39.834414" lon="3.018225">
        <ele>66</ele>
        <time>2016-04-18T18:14:00Z</time>
      </trkpt>
      <trkpt lat="39.834439" lon="3.018324">
        <ele>66</ele>
        <time>2016-04-18T18:14:01Z</time>
      </trkpt>
      <trkpt lat="39.834465" lon="3.018436">
        <ele>66</ele>
        <time>2016-04-18T18:14:02Z</time>
      </trkpt>
      <trkpt lat="39.834493" lon="3.018525">
        <ele>65.9</ele>
        <time>2016-04-18T18:14:03Z</time>
      </trkpt>
      <trkpt lat="39.834528" lon="3.018622">
        <ele>66</ele>
        <time>2016-04-18T18:14:04Z</time>
      </trkpt>
      <trkpt lat="39.834574" lon="3.018711">
        <ele>66</ele>
        <time>2016-04-18T18:14:05Z</time>
      </trkpt>
      <trkpt lat="39.834618" lon="3.018801">
        <ele>66.1</ele>
        <time>2016-04-18T18:14:06Z</time>
      </trkpt>
      <trkpt lat="39.834663" lon="3.018892">
        <ele>66.1</ele>
        <time>2016-04-18T18:14:07Z</time>
      </trkpt>
      <trkpt lat="39.834697" lon="3.018993">
        <ele>66.1</ele>
        <time>2016-04-18T18:14:08Z</time>
      </trkpt>
      <trkpt lat="39.834725" lon="3.019098">
        <ele>66</ele>
        <time>2016-04-18T18:14:09Z</time>
      </trkpt>
      <trkpt lat="39.834745" lon="3.01921">
        <ele>65.9</ele>
        <time>2016-04-18T18:14:10Z</time>
      </trkpt>
      <trkpt lat="39.834758" lon="3.019293">
        <ele>65.7</ele>
        <time>2016-04-18T18:14:11Z</time>
      </trkpt>
      <trkpt lat="39.834763" lon="3.0194">
        <ele>65.5</ele>
        <time>2016-04-18T18:14:12Z</time>
      </trkpt>
      <trkpt lat="39.834756" lon="3.019513">
        <ele>65.2</ele>
        <time>2016-04-18T18:14:13Z</time>
      </trkpt>
      <trkpt lat="39.834746" lon="3.019626">
        <ele>64.9</ele>
        <time>2016-04-18T18:14:14Z</time>
      </trkpt>
      <trkpt lat="39.834741" lon="3.019726">
        <ele>64.7</ele>
        <time>2016-04-18T18:14:15Z</time>
      </trkpt>
      <trkpt lat="39.834745" lon="3.019839">
        <ele>64.5</ele>
        <time>2016-04-18T18:14:16Z</time>
      </trkpt>
      <trkpt lat="39.834749" lon="3.019952">
        <ele>64.4</ele>
        <time>2016-04-18T18:14:17Z</time>
      </trkpt>
      <trkpt lat="39.834773" lon="3.020059">
        <ele>64.4</ele>
        <time>2016-04-18T18:14:18Z</time>
      </trkpt>
      <trkpt lat="39.834792" lon="3.020165">
        <ele>64.4</ele>
        <time>2016-04-18T18:14:19Z</time>
      </trkpt>
      <trkpt lat="39.834819" lon="3.020264">
        <ele>64.5</ele>
        <time>2016-04-18T18:14:20Z</time>
      </trkpt>
      <trkpt lat="39.834841" lon="3.020368">
        <ele>64.5</ele>
        <time>2016-04-18T18:14:21Z</time>
      </trkpt>
      <trkpt lat="39.83487" lon="3.020462">
        <ele>64.7</ele>
        <time>2016-04-18T18:14:22Z</time>
      </trkpt>
      <trkpt lat="39.834901" lon="3.020553">
        <ele>65</ele>
        <time>2016-04-18T18:14:23Z</time>
      </trkpt>
      <trkpt lat="39.834935" lon="3.020653">
        <ele>65.3</ele>
        <time>2016-04-18T18:14:24Z</time>
      </trkpt>
      <trkpt lat="39.83497" lon="3.020769">
        <ele>65.5</ele>
        <time>2016-04-18T18:14:25Z</time>
      </trkpt>
      <trkpt lat="39.835005" lon="3.020866">
        <ele>65.8</ele>
        <time>2016-04-18T18:14:26Z</time>
      </trkpt>
      <trkpt lat="39.835037" lon="3.020969">
        <ele>66</ele>
        <time>2016-04-18T18:14:27Z</time>
      </trkpt>
      <trkpt lat="39.835064" lon="3.021076">
        <ele>66.2</ele>
        <time>2016-04-18T18:14:28Z</time>
      </trkpt>
      <trkpt lat="39.835099" lon="3.021208">
        <ele>66.4</ele>
        <time>2016-04-18T18:14:29Z</time>
      </trkpt>
      <trkpt lat="39.835132" lon="3.021319">
        <ele>66.3</ele>
        <time>2016-04-18T18:14:30Z</time>
      </trkpt>
      <trkpt lat="39.835166" lon="3.021409">
        <ele>66.2</ele>
        <time>2016-04-18T18:14:31Z</time>
      </trkpt>
      <trkpt lat="39.835202" lon="3.021515">
        <ele>66</ele>
        <time>2016-04-18T18:14:32Z</time>
      </trkpt>
      <trkpt lat="39.835238" lon="3.021623">
        <ele>65.7</ele>
        <time>2016-04-18T18:14:33Z</time>
      </trkpt>
      <trkpt lat="39.835271" lon="3.021717">
        <ele>65.5</ele>
        <time>2016-04-18T18:14:34Z</time>
      </trkpt>
      <trkpt lat="39.835306" lon="3.021824">
        <ele>65.1</ele>
        <time>2016-04-18T18:14:35Z</time>
      </trkpt>
      <trkpt lat="39.83534" lon="3.021934">
        <ele>64.6</ele>
        <time>2016-04-18T18:14:36Z</time>
      </trkpt>
      <trkpt lat="39.835361" lon="3.022063">
        <ele>64</ele>
        <time>2016-04-18T18:14:37Z</time>
      </trkpt>
      <trkpt lat="39.835385" lon="3.022182">
        <ele>63.5</ele>
        <time>2016-04-18T18:14:38Z</time>
      </trkpt>
      <trkpt lat="39.835414" lon="3.022284">
        <ele>63</ele>
        <time>2016-04-18T18:14:39Z</time>
      </trkpt>
      <trkpt lat="39.835455" lon="3.022391">
        <ele>63</ele>
        <time>2016-04-18T18:14:40Z</time>
      </trkpt>
      <trkpt lat="39.835491" lon="3.022509">
        <ele>62.9</ele>
        <time>2016-04-18T18:14:41Z</time>
      </trkpt>
      <trkpt lat="39.835531" lon="3.022602">
        <ele>62.9</ele>
        <time>2016-04-18T18:14:42Z</time>
      </trkpt>
      <trkpt lat="39.835568" lon="3.022705">
        <ele>62.9</ele>
        <time>2016-04-18T18:14:43Z</time>
      </trkpt>
      <trkpt lat="39.835608" lon="3.022818">
        <ele>62.8</ele>
        <time>2016-04-18T18:14:44Z</time>
      </trkpt>
      <trkpt lat="39.835652" lon="3.022924">
        <ele>62.8</ele>
        <time>2016-04-18T18:14:45Z</time>
      </trkpt>
      <trkpt lat="39.835694" lon="3.023024">
        <ele>62.9</ele>
        <time>2016-04-18T18:14:46Z</time>
      </trkpt>
      <trkpt lat="39.83575" lon="3.023093">
        <ele>63.2</ele>
        <time>2016-04-18T18:14:47Z</time>
      </trkpt>
      <trkpt lat="39.835807" lon="3.023157">
        <ele>63.6</ele>
        <time>2016-04-18T18:14:48Z</time>
      </trkpt>
      <trkpt lat="39.835863" lon="3.023235">
        <ele>63.8</ele>
        <time>2016-04-18T18:14:49Z</time>
      </trkpt>
      <trkpt lat="39.83592" lon="3.023317">
        <ele>63.9</ele>
        <time>2016-04-18T18:14:50Z</time>
      </trkpt>
      <trkpt lat="39.835974" lon="3.023401">
        <ele>64</ele>
        <time>2016-04-18T18:14:51Z</time>
      </trkpt>
      <trkpt lat="39.83603" lon="3.023488">
        <ele>64</ele>
        <time>2016-04-18T18:14:52Z</time>
      </trkpt>
      <trkpt lat="39.836083" lon="3.023571">
        <ele>63.9</ele>
        <time>2016-04-18T18:14:53Z</time>
      </trkpt>
      <trkpt lat="39.836138" lon="3.023656">
        <ele>63.8</ele>
        <time>2016-04-18T18:14:54Z</time>
      </trkpt>
      <trkpt lat="39.836192" lon="3.023754">
        <ele>63.6</ele>
        <time>2016-04-18T18:14:55Z</time>
      </trkpt>
      <trkpt lat="39.83625" lon="3.023848">
        <ele>63.3</ele>
        <time>2016-04-18T18:14:56Z</time>
      </trkpt>
      <trkpt lat="39.836304" lon="3.023932">
        <ele>63.3</ele>
        <time>2016-04-18T18:14:57Z</time>
      </trkpt>
      <trkpt lat="39.83636" lon="3.024018">
        <ele>63.2</ele>
        <time>2016-04-18T18:14:58Z</time>
      </trkpt>
      <trkpt lat="39.836413" lon="3.024112">
        <ele>63.1</ele>
        <time>2016-04-18T18:14:59Z</time>
      </trkpt>
      <trkpt lat="39.836469" lon="3.024199">
        <ele>63</ele>
        <time>2016-04-18T18:15:00Z</time>
      </trkpt>
      <trkpt lat="39.836523" lon="3.024279">
        <ele>62.9</ele>
        <time>2016-04-18T18:15:01Z</time>
      </trkpt>
      <trkpt lat="39.836579" lon="3.024365">
        <ele>62.8</ele>
        <time>2016-04-18T18:15:02Z</time>
      </trkpt>
      <trkpt lat="39.836638" lon="3.024456">
        <ele>62.7</ele>
        <time>2016-04-18T18:15:03Z</time>
      </trkpt>
      <trkpt lat="39.836694" lon="3.024536">
        <ele>62.6</ele>
        <time>2016-04-18T18:15:04Z</time>
      </trkpt>
      <trkpt lat="39.83675" lon="3.024605">
        <ele>62.7</ele>
        <time>2016-04-18T18:15:05Z</time>
      </trkpt>
      <trkpt lat="39.836804" lon="3.024674">
        <ele>62.8</ele>
        <time>2016-04-18T18:15:06Z</time>
      </trkpt>
      <trkpt lat="39.836854" lon="3.024764">
        <ele>62.8</ele>
        <time>2016-04-18T18:15:07Z</time>
      </trkpt>
      <trkpt lat="39.836897" lon="3.024858">
        <ele>62.6</ele>
        <time>2016-04-18T18:15:08Z</time>
      </trkpt>
      <trkpt lat="39.836939" lon="3.024957">
        <ele>62.3</ele>
        <time>2016-04-18T18:15:09Z</time>
      </trkpt>
      <trkpt lat="39.836977" lon="3.025047">
        <ele>62</ele>
        <time>2016-04-18T18:15:10Z</time>
      </trkpt>
      <trkpt lat="39.83703" lon="3.025131">
        <ele>61.8</ele>
        <time>2016-04-18T18:15:11Z</time>
      </trkpt>
      <trkpt lat="39.837088" lon="3.025193">
        <ele>61.6</ele>
        <time>2016-04-18T18:15:12Z</time>
      </trkpt>
      <trkpt lat="39.837145" lon="3.025279">
        <ele>61.3</ele>
        <time>2016-04-18T18:15:13Z</time>
      </trkpt>
      <trkpt lat="39.837221" lon="3.025333">
        <ele>61.2</ele>
        <time>2016-04-18T18:15:14Z</time>
      </trkpt>
      <trkpt lat="39.837292" lon="3.025389">
        <ele>61.2</ele>
        <time>2016-04-18T18:15:15Z</time>
      </trkpt>
      <trkpt lat="39.837348" lon="3.025484">
        <ele>61.1</ele>
        <time>2016-04-18T18:15:16Z</time>
      </trkpt>
      <trkpt lat="39.837419" lon="3.025537">
        <ele>61.3</ele>
        <time>2016-04-18T18:15:17Z</time>
      </trkpt>
      <trkpt lat="39.83749" lon="3.025567">
        <ele>61.6</ele>
        <time>2016-04-18T18:15:18Z</time>
      </trkpt>
      <trkpt lat="39.837556" lon="3.025607">
        <ele>61.8</ele>
        <time>2016-04-18T18:15:19Z</time>
      </trkpt>
      <trkpt lat="39.837623" lon="3.025666">
        <ele>62</ele>
        <time>2016-04-18T18:15:20Z</time>
      </trkpt>
      <trkpt lat="39.837686" lon="3.025745">
        <ele>62.1</ele>
        <time>2016-04-18T18:15:21Z</time>
      </trkpt>
      <trkpt lat="39.837742" lon="3.025832">
        <ele>62.2</ele>
        <time>2016-04-18T18:15:22Z</time>
      </trkpt>
      <trkpt lat="39.837795" lon="3.025922">
        <ele>62.2</ele>
        <time>2016-04-18T18:15:23Z</time>
      </trkpt>
      <trkpt lat="39.837847" lon="3.026001">
        <ele>62.3</ele>
        <time>2016-04-18T18:15:24Z</time>
      </trkpt>
      <trkpt lat="39.837881" lon="3.026123">
        <ele>62.1</ele>
        <time>2016-04-18T18:15:25Z</time>
      </trkpt>
      <trkpt lat="39.837917" lon="3.026233">
        <ele>62</ele>
        <time>2016-04-18T18:15:26Z</time>
      </trkpt>
      <trkpt lat="39.837964" lon="3.026319">
        <ele>61.7</ele>
        <time>2016-04-18T18:15:27Z</time>
      </trkpt>
      <trkpt lat="39.838013" lon="3.026408">
        <ele>61.2</ele>
        <time>2016-04-18T18:15:28Z</time>
      </trkpt>
      <trkpt lat="39.838064" lon="3.026482">
        <ele>60.9</ele>
        <time>2016-04-18T18:15:29Z</time>
      </trkpt>
      <trkpt lat="39.838109" lon="3.026566">
        <ele>60.6</ele>
        <time>2016-04-18T18:15:30Z</time>
      </trkpt>
      <trkpt lat="39.838151" lon="3.026632">
        <ele>60.4</ele>
        <time>2016-04-18T18:15:31Z</time>
      </trkpt>
      <trkpt lat="39.838212" lon="3.02668">
        <ele>60.3</ele>
        <time>2016-04-18T18:15:32Z</time>
      </trkpt>
      <trkpt lat="39.838271" lon="3.02674">
        <ele>60.2</ele>
        <time>2016-04-18T18:15:33Z</time>
      </trkpt>
      <trkpt lat="39.838354" lon="3.02675">
        <ele>60.5</ele>
        <time>2016-04-18T18:15:34Z</time>
      </trkpt>
      <trkpt lat="39.83843" lon="3.026768">
        <ele>60.7</ele>
        <time>2016-04-18T18:15:35Z</time>
      </trkpt>
      <trkpt lat="39.838499" lon="3.026796">
        <ele>60.8</ele>
        <time>2016-04-18T18:15:36Z</time>
      </trkpt>
      <trkpt lat="39.838569" lon="3.026822">
        <ele>61</ele>
        <time>2016-04-18T18:15:37Z</time>
      </trkpt>
      <trkpt lat="39.838625" lon="3.026852">
        <ele>61.1</ele>
        <time>2016-04-18T18:15:38Z</time>
      </trkpt>
      <trkpt lat="39.83868" lon="3.026878">
        <ele>61.2</ele>
        <time>2016-04-18T18:15:39Z</time>
      </trkpt>
      <trkpt lat="39.838739" lon="3.026906">
        <ele>61.4</ele>
        <time>2016-04-18T18:15:40Z</time>
      </trkpt>
      <trkpt lat="39.8388" lon="3.026924">
        <ele>61.6</ele>
        <time>2016-04-18T18:15:41Z</time>
      </trkpt>
      <trkpt lat="39.838857" lon="3.026953">
        <ele>61.8</ele>
        <time>2016-04-18T18:15:42Z</time>
      </trkpt>
      <trkpt lat="39.838914" lon="3.026979">
        <ele>62</ele>
        <time>2016-04-18T18:15:43Z</time>
      </trkpt>
      <trkpt lat="39.838972" lon="3.027001">
        <ele>62.3</ele>
        <time>2016-04-18T18:15:44Z</time>
      </trkpt>
      <trkpt lat="39.839033" lon="3.027016">
        <ele>62.5</ele>
        <time>2016-04-18T18:15:45Z</time>
      </trkpt>
      <trkpt lat="39.839094" lon="3.027025">
        <ele>62.8</ele>
        <time>2016-04-18T18:15:46Z</time>
      </trkpt>
      <trkpt lat="39.839157" lon="3.027031">
        <ele>63.1</ele>
        <time>2016-04-18T18:15:47Z</time>
      </trkpt>
      <trkpt lat="39.839225" lon="3.027032">
        <ele>63.4</ele>
        <time>2016-04-18T18:15:48Z</time>
      </trkpt>
      <trkpt lat="39.839287" lon="3.02703">
        <ele>63.7</ele>
        <time>2016-04-18T18:15:49Z</time>
      </trkpt>
      <trkpt lat="39.839347" lon="3.027024">
        <ele>64</ele>
        <time>2016-04-18T18:15:50Z</time>
      </trkpt>
      <trkpt lat="39.839412" lon="3.027006">
        <ele>64.4</ele>
        <time>2016-04-18T18:15:51Z</time>
      </trkpt>
      <trkpt lat="39.839467" lon="3.026996">
        <ele>64.7</ele>
        <time>2016-04-18T18:15:52Z</time>
      </trkpt>
      <trkpt lat="39.839524" lon="3.026991">
        <ele>64.9</ele>
        <time>2016-04-18T18:15:53Z</time>
      </trkpt>
      <trkpt lat="39.839587" lon="3.026979">
        <ele>65.3</ele>
        <time>2016-04-18T18:15:54Z</time>
      </trkpt>
      <trkpt lat="39.83964" lon="3.026976">
        <ele>65.4</ele>
        <time>2016-04-18T18:15:55Z</time>
      </trkpt>
      <trkpt lat="39.839694" lon="3.02697">
        <ele>65.6</ele>
        <time>2016-04-18T18:15:56Z</time>
      </trkpt>
      <trkpt lat="39.839746" lon="3.02696">
        <ele>65.7</ele>
        <time>2016-04-18T18:15:57Z</time>
      </trkpt>
      <trkpt lat="39.839799" lon="3.026955">
        <ele>65.9</ele>
        <time>2016-04-18T18:15:58Z</time>
      </trkpt>
      <trkpt lat="39.839837" lon="3.026943">
        <ele>66</ele>
        <time>2016-04-18T18:15:59Z</time>
      </trkpt>
      <trkpt lat="39.839886" lon="3.02693">
        <ele>66.2</ele>
        <time>2016-04-18T18:16:00Z</time>
      </trkpt>
      <trkpt lat="39.839917" lon="3.026895">
        <ele>66.3</ele>
        <time>2016-04-18T18:16:01Z</time>
      </trkpt>
      <trkpt lat="39.839974" lon="3.026883">
        <ele>66.5</ele>
        <time>2016-04-18T18:16:02Z</time>
      </trkpt>
      <trkpt lat="39.840041" lon="3.026888">
        <ele>66.7</ele>
        <time>2016-04-18T18:16:03Z</time>
      </trkpt>
      <trkpt lat="39.84009" lon="3.026935">
        <ele>66.7</ele>
        <time>2016-04-18T18:16:04Z</time>
      </trkpt>
      <trkpt lat="39.840097" lon="3.02705">
        <ele>66.3</ele>
        <time>2016-04-18T18:16:05Z</time>
      </trkpt>
      <trkpt lat="39.840105" lon="3.027119">
        <ele>66.2</ele>
        <time>2016-04-18T18:16:06Z</time>
      </trkpt>
      <trkpt lat="39.840092" lon="3.027191">
        <ele>66.2</ele>
        <time>2016-04-18T18:16:07Z</time>
      </trkpt>
      <trkpt lat="39.840086" lon="3.027269">
        <ele>66.1</ele>
        <time>2016-04-18T18:16:08Z</time>
      </trkpt>
      <trkpt lat="39.840088" lon="3.027353">
        <ele>66.1</ele>
        <time>2016-04-18T18:16:09Z</time>
      </trkpt>
      <trkpt lat="39.840074" lon="3.02742">
        <ele>66</ele>
        <time>2016-04-18T18:16:10Z</time>
      </trkpt>
      <trkpt lat="39.840077" lon="3.027487">
        <ele>66</ele>
        <time>2016-04-18T18:16:11Z</time>
      </trkpt>
      <trkpt lat="39.840099" lon="3.027552">
        <ele>66</ele>
        <time>2016-04-18T18:16:12Z</time>
      </trkpt>
      <trkpt lat="39.840124" lon="3.027617">
        <ele>66.1</ele>
        <time>2016-04-18T18:16:13Z</time>
      </trkpt>
      <trkpt lat="39.840154" lon="3.027687">
        <ele>66.1</ele>
        <time>2016-04-18T18:16:14Z</time>
      </trkpt>
      <trkpt lat="39.840193" lon="3.027752">
        <ele>66.2</ele>
        <time>2016-04-18T18:16:15Z</time>
      </trkpt>
      <trkpt lat="39.840231" lon="3.027821">
        <ele>66.4</ele>
        <time>2016-04-18T18:16:16Z</time>
      </trkpt>
      <trkpt lat="39.840275" lon="3.027884">
        <ele>66.5</ele>
        <time>2016-04-18T18:16:17Z</time>
      </trkpt>
      <trkpt lat="39.840312" lon="3.02796">
        <ele>66.4</ele>
        <time>2016-04-18T18:16:18Z</time>
      </trkpt>
      <trkpt lat="39.840352" lon="3.028029">
        <ele>66.1</ele>
        <time>2016-04-18T18:16:19Z</time>
      </trkpt>
      <trkpt lat="39.840389" lon="3.0281">
        <ele>65.8</ele>
        <time>2016-04-18T18:16:20Z</time>
      </trkpt>
      <trkpt lat="39.840445" lon="3.028159">
        <ele>65.7</ele>
        <time>2016-04-18T18:16:21Z</time>
      </trkpt>
      <trkpt lat="39.840496" lon="3.028209">
        <ele>65.6</ele>
        <time>2016-04-18T18:16:22Z</time>
      </trkpt>
      <trkpt lat="39.840554" lon="3.028243">
        <ele>65.6</ele>
        <time>2016-04-18T18:16:23Z</time>
      </trkpt>
      <trkpt lat="39.840611" lon="3.02826">
        <ele>65.8</ele>
        <time>2016-04-18T18:16:24Z</time>
      </trkpt>
      <trkpt lat="39.840667" lon="3.028287">
        <ele>65.8</ele>
        <time>2016-04-18T18:16:25Z</time>
      </trkpt>
      <trkpt lat="39.840728" lon="3.028326">
        <ele>65.9</ele>
        <time>2016-04-18T18:16:26Z</time>
      </trkpt>
      <trkpt lat="39.840777" lon="3.028355">
        <ele>65.9</ele>
        <time>2016-04-18T18:16:27Z</time>
      </trkpt>
      <trkpt lat="39.840828" lon="3.028403">
        <ele>65.8</ele>
        <time>2016-04-18T18:16:28Z</time>
      </trkpt>
      <trkpt lat="39.840874" lon="3.028461">
        <ele>65.6</ele>
        <time>2016-04-18T18:16:29Z</time>
      </trkpt>
      <trkpt lat="39.840912" lon="3.028536">
        <ele>65.2</ele>
        <time>2016-04-18T18:16:30Z</time>
      </trkpt>
      <trkpt lat="39.84095" lon="3.028605">
        <ele>64.9</ele>
        <time>2016-04-18T18:16:31Z</time>
      </trkpt>
      <trkpt lat="39.840983" lon="3.028677">
        <ele>64.5</ele>
        <time>2016-04-18T18:16:32Z</time>
      </trkpt>
      <trkpt lat="39.84101" lon="3.028748">
        <ele>64.1</ele>
        <time>2016-04-18T18:16:33Z</time>
      </trkpt>
      <trkpt lat="39.841039" lon="3.028821">
        <ele>64.2</ele>
        <time>2016-04-18T18:16:34Z</time>
      </trkpt>
      <trkpt lat="39.841065" lon="3.028884">
        <ele>64.2</ele>
        <time>2016-04-18T18:16:35Z</time>
      </trkpt>
      <trkpt lat="39.841099" lon="3.028932">
        <ele>64.3</ele>
        <time>2016-04-18T18:16:36Z</time>
      </trkpt>
      <trkpt lat="39.841128" lon="3.028994">
        <ele>64.4</ele>
        <time>2016-04-18T18:16:37Z</time>
      </trkpt>
      <trkpt lat="39.841148" lon="3.029114">
        <ele>64.4</ele>
        <time>2016-04-18T18:16:38Z</time>
      </trkpt>
      <trkpt lat="39.841175" lon="3.029181">
        <ele>64.5</ele>
        <time>2016-04-18T18:16:39Z</time>
      </trkpt>
      <trkpt lat="39.841198" lon="3.029244">
        <ele>64.7</ele>
        <time>2016-04-18T18:16:40Z</time>
      </trkpt>
      <trkpt lat="39.841225" lon="3.029306">
        <ele>64.8</ele>
        <time>2016-04-18T18:16:41Z</time>
      </trkpt>
      <trkpt lat="39.841254" lon="3.029363">
        <ele>65</ele>
        <time>2016-04-18T18:16:42Z</time>
      </trkpt>
      <trkpt lat="39.841293" lon="3.029415">
        <ele>65.5</ele>
        <time>2016-04-18T18:16:43Z</time>
      </trkpt>
      <trkpt lat="39.841322" lon="3.029471">
        <ele>65.8</ele>
        <time>2016-04-18T18:16:44Z</time>
      </trkpt>
      <trkpt lat="39.841348" lon="3.029522">
        <ele>66.1</ele>
        <time>2016-04-18T18:16:45Z</time>
      </trkpt>
      <trkpt lat="39.841376" lon="3.029571">
        <ele>66.5</ele>
        <time>2016-04-18T18:16:46Z</time>
      </trkpt>
      <trkpt lat="39.841409" lon="3.029591">
        <ele>66.9</ele>
        <time>2016-04-18T18:16:47Z</time>
      </trkpt>
      <trkpt lat="39.841439" lon="3.029629">
        <ele>67.4</ele>
        <time>2016-04-18T18:16:48Z</time>
      </trkpt>
      <trkpt lat="39.841487" lon="3.029679">
        <ele>68.2</ele>
        <time>2016-04-18T18:16:50Z</time>
      </trkpt>
      <trkpt lat="39.841531" lon="3.029699">
        <ele>68.9</ele>
        <time>2016-04-18T18:16:52Z</time>
      </trkpt>
      <trkpt lat="39.841559" lon="3.029712">
        <ele>69.3</ele>
        <time>2016-04-18T18:16:53Z</time>
      </trkpt>
      <trkpt lat="39.841585" lon="3.02974">
        <ele>69.8</ele>
        <time>2016-04-18T18:16:54Z</time>
      </trkpt>
      <trkpt lat="39.841617" lon="3.029784">
        <ele>70.4</ele>
        <time>2016-04-18T18:16:55Z</time>
      </trkpt>
      <trkpt lat="39.841643" lon="3.029824">
        <ele>71</ele>
        <time>2016-04-18T18:16:56Z</time>
      </trkpt>
      <trkpt lat="39.841684" lon="3.029852">
        <ele>71.7</ele>
        <time>2016-04-18T18:16:57Z</time>
      </trkpt>
      <trkpt lat="39.841725" lon="3.029878">
        <ele>72.4</ele>
        <time>2016-04-18T18:16:58Z</time>
      </trkpt>
      <trkpt lat="39.841764" lon="3.029904">
        <ele>73.1</ele>
        <time>2016-04-18T18:16:59Z</time>
      </trkpt>
      <trkpt lat="39.841809" lon="3.029908">
        <ele>73.8</ele>
        <time>2016-04-18T18:17:00Z</time>
      </trkpt>
      <trkpt lat="39.841863" lon="3.029922">
        <ele>74.7</ele>
        <time>2016-04-18T18:17:01Z</time>
      </trkpt>
      <trkpt lat="39.841922" lon="3.029954">
        <ele>75.7</ele>
        <time>2016-04-18T18:17:02Z</time>
      </trkpt>
      <trkpt lat="39.841972" lon="3.029975">
        <ele>76.6</ele>
        <time>2016-04-18T18:17:03Z</time>
      </trkpt>
      <trkpt lat="39.84203" lon="3.029988">
        <ele>77.6</ele>
        <time>2016-04-18T18:17:04Z</time>
      </trkpt>
      <trkpt lat="39.842101" lon="3.030012">
        <ele>78.7</ele>
        <time>2016-04-18T18:17:05Z</time>
      </trkpt>
      <trkpt lat="39.84216" lon="3.030037">
        <ele>79.2</ele>
        <time>2016-04-18T18:17:06Z</time>
      </trkpt>
      <trkpt lat="39.842208" lon="3.030062">
        <ele>79.7</ele>
        <time>2016-04-18T18:17:07Z</time>
      </trkpt>
      <trkpt lat="39.842261" lon="3.030085">
        <ele>80.1</ele>
        <time>2016-04-18T18:17:08Z</time>
      </trkpt>
      <trkpt lat="39.842306" lon="3.030102">
        <ele>80.4</ele>
        <time>2016-04-18T18:17:09Z</time>
      </trkpt>
      <trkpt lat="39.842356" lon="3.030127">
        <ele>80.8</ele>
        <time>2016-04-18T18:17:10Z</time>
      </trkpt>
      <trkpt lat="39.842407" lon="3.030147">
        <ele>81.1</ele>
        <time>2016-04-18T18:17:11Z</time>
      </trkpt>
      <trkpt lat="39.84245" lon="3.030202">
        <ele>81.5</ele>
        <time>2016-04-18T18:17:12Z</time>
      </trkpt>
      <trkpt lat="39.842498" lon="3.030213">
        <ele>81.8</ele>
        <time>2016-04-18T18:17:13Z</time>
      </trkpt>
      <trkpt lat="39.842556" lon="3.03023">
        <ele>82</ele>
        <time>2016-04-18T18:17:14Z</time>
      </trkpt>
      <trkpt lat="39.84261" lon="3.030251">
        <ele>82.2</ele>
        <time>2016-04-18T18:17:15Z</time>
      </trkpt>
      <trkpt lat="39.842672" lon="3.030279">
        <ele>82.5</ele>
        <time>2016-04-18T18:17:16Z</time>
      </trkpt>
      <trkpt lat="39.842733" lon="3.030302">
        <ele>82.7</ele>
        <time>2016-04-18T18:17:17Z</time>
      </trkpt>
      <trkpt lat="39.842794" lon="3.030313">
        <ele>82.8</ele>
        <time>2016-04-18T18:17:18Z</time>
      </trkpt>
      <trkpt lat="39.842862" lon="3.030347">
        <ele>83</ele>
        <time>2016-04-18T18:17:19Z</time>
      </trkpt>
      <trkpt lat="39.842923" lon="3.030361">
        <ele>83.1</ele>
        <time>2016-04-18T18:17:20Z</time>
      </trkpt>
      <trkpt lat="39.84299" lon="3.030374">
        <ele>83.4</ele>
        <time>2016-04-18T18:17:21Z</time>
      </trkpt>
      <trkpt lat="39.843059" lon="3.030405">
        <ele>83.7</ele>
        <time>2016-04-18T18:17:22Z</time>
      </trkpt>
      <trkpt lat="39.843125" lon="3.030425">
        <ele>84</ele>
        <time>2016-04-18T18:17:23Z</time>
      </trkpt>
      <trkpt lat="39.843186" lon="3.030447">
        <ele>84.3</ele>
        <time>2016-04-18T18:17:24Z</time>
      </trkpt>
      <trkpt lat="39.843244" lon="3.030469">
        <ele>84.6</ele>
        <time>2016-04-18T18:17:25Z</time>
      </trkpt>
      <trkpt lat="39.843312" lon="3.030496">
        <ele>84.8</ele>
        <time>2016-04-18T18:17:26Z</time>
      </trkpt>
      <trkpt lat="39.843374" lon="3.030525">
        <ele>85</ele>
        <time>2016-04-18T18:17:27Z</time>
      </trkpt>
      <trkpt lat="39.843439" lon="3.030599">
        <ele>85</ele>
        <time>2016-04-18T18:17:28Z</time>
      </trkpt>
      <trkpt lat="39.843491" lon="3.030581">
        <ele>85.1</ele>
        <time>2016-04-18T18:17:29Z</time>
      </trkpt>
      <trkpt lat="39.843556" lon="3.030602">
        <ele>85.1</ele>
        <time>2016-04-18T18:17:30Z</time>
      </trkpt>
      <trkpt lat="39.843615" lon="3.030633">
        <ele>85</ele>
        <time>2016-04-18T18:17:31Z</time>
      </trkpt>
      <trkpt lat="39.843671" lon="3.030647">
        <ele>85</ele>
        <time>2016-04-18T18:17:32Z</time>
      </trkpt>
      <trkpt lat="39.84374" lon="3.030669">
        <ele>84.9</ele>
        <time>2016-04-18T18:17:33Z</time>
      </trkpt>
      <trkpt lat="39.843811" lon="3.030706">
        <ele>84.9</ele>
        <time>2016-04-18T18:17:34Z</time>
      </trkpt>
      <trkpt lat="39.843871" lon="3.030744">
        <ele>84.8</ele>
        <time>2016-04-18T18:17:35Z</time>
      </trkpt>
      <trkpt lat="39.843932" lon="3.030805">
        <ele>84.4</ele>
        <time>2016-04-18T18:17:36Z</time>
      </trkpt>
      <trkpt lat="39.843994" lon="3.030861">
        <ele>83.9</ele>
        <time>2016-04-18T18:17:37Z</time>
      </trkpt>
      <trkpt lat="39.844074" lon="3.03089">
        <ele>83.8</ele>
        <time>2016-04-18T18:17:38Z</time>
      </trkpt>
      <trkpt lat="39.844134" lon="3.03094">
        <ele>83.2</ele>
        <time>2016-04-18T18:17:39Z</time>
      </trkpt>
      <trkpt lat="39.844203" lon="3.030967">
        <ele>83</ele>
        <time>2016-04-18T18:17:40Z</time>
      </trkpt>
      <trkpt lat="39.844274" lon="3.031012">
        <ele>82.4</ele>
        <time>2016-04-18T18:17:41Z</time>
      </trkpt>
      <trkpt lat="39.844338" lon="3.031057">
        <ele>81.7</ele>
        <time>2016-04-18T18:17:42Z</time>
      </trkpt>
      <trkpt lat="39.844407" lon="3.031108">
        <ele>80.8</ele>
        <time>2016-04-18T18:17:43Z</time>
      </trkpt>
      <trkpt lat="39.844478" lon="3.031156">
        <ele>79.9</ele>
        <time>2016-04-18T18:17:44Z</time>
      </trkpt>
      <trkpt lat="39.844558" lon="3.031204">
        <ele>78.9</ele>
        <time>2016-04-18T18:17:45Z</time>
      </trkpt>
      <trkpt lat="39.844629" lon="3.031269">
        <ele>78.3</ele>
        <time>2016-04-18T18:17:46Z</time>
      </trkpt>
      <trkpt lat="39.844696" lon="3.031328">
        <ele>78.7</ele>
        <time>2016-04-18T18:17:47Z</time>
      </trkpt>
      <trkpt lat="39.844768" lon="3.031393">
        <ele>79</ele>
        <time>2016-04-18T18:17:48Z</time>
      </trkpt>
      <trkpt lat="39.84484" lon="3.031455">
        <ele>79</ele>
        <time>2016-04-18T18:17:49Z</time>
      </trkpt>
      <trkpt lat="39.844923" lon="3.031522">
        <ele>78.9</ele>
        <time>2016-04-18T18:17:50Z</time>
      </trkpt>
      <trkpt lat="39.844994" lon="3.031575">
        <ele>78.7</ele>
        <time>2016-04-18T18:17:51Z</time>
      </trkpt>
      <trkpt lat="39.845068" lon="3.031645">
        <ele>78.1</ele>
        <time>2016-04-18T18:17:52Z</time>
      </trkpt>
      <trkpt lat="39.845146" lon="3.031706">
        <ele>77.4</ele>
        <time>2016-04-18T18:17:53Z</time>
      </trkpt>
      <trkpt lat="39.845228" lon="3.031776">
        <ele>76.4</ele>
        <time>2016-04-18T18:17:54Z</time>
      </trkpt>
      <trkpt lat="39.845302" lon="3.031845">
        <ele>75.3</ele>
        <time>2016-04-18T18:17:55Z</time>
      </trkpt>
      <trkpt lat="39.845378" lon="3.031912">
        <ele>73.9</ele>
        <time>2016-04-18T18:17:56Z</time>
      </trkpt>
      <trkpt lat="39.845451" lon="3.031976">
        <ele>72.6</ele>
        <time>2016-04-18T18:17:57Z</time>
      </trkpt>
      <trkpt lat="39.845532" lon="3.032039">
        <ele>71.4</ele>
        <time>2016-04-18T18:17:58Z</time>
      </trkpt>
      <trkpt lat="39.845603" lon="3.032103">
        <ele>70.6</ele>
        <time>2016-04-18T18:17:59Z</time>
      </trkpt>
      <trkpt lat="39.845683" lon="3.032169">
        <ele>70.5</ele>
        <time>2016-04-18T18:18:00Z</time>
      </trkpt>
      <trkpt lat="39.845762" lon="3.032237">
        <ele>70.3</ele>
        <time>2016-04-18T18:18:01Z</time>
      </trkpt>
      <trkpt lat="39.845838" lon="3.032306">
        <ele>70</ele>
        <time>2016-04-18T18:18:02Z</time>
      </trkpt>
      <trkpt lat="39.845908" lon="3.032365">
        <ele>69.6</ele>
        <time>2016-04-18T18:18:03Z</time>
      </trkpt>
      <trkpt lat="39.845985" lon="3.032431">
        <ele>69</ele>
        <time>2016-04-18T18:18:04Z</time>
      </trkpt>
      <trkpt lat="39.84606" lon="3.032489">
        <ele>68.4</ele>
        <time>2016-04-18T18:18:05Z</time>
      </trkpt>
      <trkpt lat="39.846134" lon="3.032555">
        <ele>67.6</ele>
        <time>2016-04-18T18:18:06Z</time>
      </trkpt>
      <trkpt lat="39.846205" lon="3.032611">
        <ele>66.8</ele>
        <time>2016-04-18T18:18:07Z</time>
      </trkpt>
      <trkpt lat="39.846281" lon="3.032672">
        <ele>66.1</ele>
        <time>2016-04-18T18:18:08Z</time>
      </trkpt>
      <trkpt lat="39.846359" lon="3.032735">
        <ele>65.7</ele>
        <time>2016-04-18T18:18:09Z</time>
      </trkpt>
      <trkpt lat="39.846441" lon="3.032793">
        <ele>65.3</ele>
        <time>2016-04-18T18:18:10Z</time>
      </trkpt>
      <trkpt lat="39.846515" lon="3.032847">
        <ele>64.8</ele>
        <time>2016-04-18T18:18:11Z</time>
      </trkpt>
      <trkpt lat="39.846593" lon="3.032898">
        <ele>64.3</ele>
        <time>2016-04-18T18:18:12Z</time>
      </trkpt>
      <trkpt lat="39.846673" lon="3.032949">
        <ele>63.9</ele>
        <time>2016-04-18T18:18:13Z</time>
      </trkpt>
      <trkpt lat="39.846756" lon="3.033008">
        <ele>63.5</ele>
        <time>2016-04-18T18:18:14Z</time>
      </trkpt>
      <trkpt lat="39.846836" lon="3.033069">
        <ele>63</ele>
        <time>2016-04-18T18:18:15Z</time>
      </trkpt>
      <trkpt lat="39.846921" lon="3.033115">
        <ele>62.4</ele>
        <time>2016-04-18T18:18:16Z</time>
      </trkpt>
      <trkpt lat="39.847009" lon="3.033154">
        <ele>61.9</ele>
        <time>2016-04-18T18:18:17Z</time>
      </trkpt>
      <trkpt lat="39.847099" lon="3.033184">
        <ele>61.4</ele>
        <time>2016-04-18T18:18:18Z</time>
      </trkpt>
      <trkpt lat="39.847184" lon="3.033227">
        <ele>61.2</ele>
        <time>2016-04-18T18:18:19Z</time>
      </trkpt>
      <trkpt lat="39.847274" lon="3.033264">
        <ele>61</ele>
        <time>2016-04-18T18:18:20Z</time>
      </trkpt>
      <trkpt lat="39.847363" lon="3.033294">
        <ele>60.8</ele>
        <time>2016-04-18T18:18:21Z</time>
      </trkpt>
      <trkpt lat="39.847452" lon="3.033321">
        <ele>60.6</ele>
        <time>2016-04-18T18:18:22Z</time>
      </trkpt>
      <trkpt lat="39.847537" lon="3.033342">
        <ele>60.4</ele>
        <time>2016-04-18T18:18:23Z</time>
      </trkpt>
      <trkpt lat="39.847623" lon="3.033365">
        <ele>60.3</ele>
        <time>2016-04-18T18:18:24Z</time>
      </trkpt>
      <trkpt lat="39.847707" lon="3.033377">
        <ele>60.2</ele>
        <time>2016-04-18T18:18:25Z</time>
      </trkpt>
      <trkpt lat="39.847789" lon="3.033394">
        <ele>60</ele>
        <time>2016-04-18T18:18:26Z</time>
      </trkpt>
      <trkpt lat="39.847871" lon="3.033408">
        <ele>59.9</ele>
        <time>2016-04-18T18:18:27Z</time>
      </trkpt>
      <trkpt lat="39.847951" lon="3.033421">
        <ele>59.8</ele>
        <time>2016-04-18T18:18:28Z</time>
      </trkpt>
      <trkpt lat="39.848029" lon="3.033444">
        <ele>59.6</ele>
        <time>2016-04-18T18:18:29Z</time>
      </trkpt>
      <trkpt lat="39.848116" lon="3.033451">
        <ele>59.5</ele>
        <time>2016-04-18T18:18:30Z</time>
      </trkpt>
      <trkpt lat="39.848202" lon="3.033461">
        <ele>59.4</ele>
        <time>2016-04-18T18:18:31Z</time>
      </trkpt>
      <trkpt lat="39.848287" lon="3.033472">
        <ele>59.3</ele>
        <time>2016-04-18T18:18:32Z</time>
      </trkpt>
      <trkpt lat="39.848361" lon="3.033454">
        <ele>59.5</ele>
        <time>2016-04-18T18:18:33Z</time>
      </trkpt>
      <trkpt lat="39.848444" lon="3.033456">
        <ele>59.4</ele>
        <time>2016-04-18T18:18:34Z</time>
      </trkpt>
      <trkpt lat="39.848546" lon="3.033484">
        <ele>59.3</ele>
        <time>2016-04-18T18:18:35Z</time>
      </trkpt>
      <trkpt lat="39.848633" lon="3.033484">
        <ele>59.3</ele>
        <time>2016-04-18T18:18:36Z</time>
      </trkpt>
      <trkpt lat="39.848717" lon="3.033492">
        <ele>59.2</ele>
        <time>2016-04-18T18:18:37Z</time>
      </trkpt>
      <trkpt lat="39.848804" lon="3.03349">
        <ele>59.1</ele>
        <time>2016-04-18T18:18:38Z</time>
      </trkpt>
      <trkpt lat="39.848891" lon="3.033495">
        <ele>58.8</ele>
        <time>2016-04-18T18:18:39Z</time>
      </trkpt>
      <trkpt lat="39.848978" lon="3.033499">
        <ele>58.4</ele>
        <time>2016-04-18T18:18:40Z</time>
      </trkpt>
      <trkpt lat="39.849071" lon="3.033493">
        <ele>58.2</ele>
        <time>2016-04-18T18:18:41Z</time>
      </trkpt>
      <trkpt lat="39.849167" lon="3.033494">
        <ele>57.8</ele>
        <time>2016-04-18T18:18:42Z</time>
      </trkpt>
      <trkpt lat="39.849263" lon="3.033494">
        <ele>57.5</ele>
        <time>2016-04-18T18:18:43Z</time>
      </trkpt>
      <trkpt lat="39.849348" lon="3.033497">
        <ele>57.2</ele>
        <time>2016-04-18T18:18:44Z</time>
      </trkpt>
      <trkpt lat="39.849441" lon="3.033496">
        <ele>56.9</ele>
        <time>2016-04-18T18:18:45Z</time>
      </trkpt>
      <trkpt lat="39.849528" lon="3.033499">
        <ele>56.6</ele>
        <time>2016-04-18T18:18:46Z</time>
      </trkpt>
      <trkpt lat="39.849609" lon="3.033503">
        <ele>56.4</ele>
        <time>2016-04-18T18:18:47Z</time>
      </trkpt>
      <trkpt lat="39.849698" lon="3.033515">
        <ele>56.4</ele>
        <time>2016-04-18T18:18:48Z</time>
      </trkpt>
      <trkpt lat="39.849793" lon="3.033524">
        <ele>56.3</ele>
        <time>2016-04-18T18:18:49Z</time>
      </trkpt>
      <trkpt lat="39.849874" lon="3.033543">
        <ele>56.2</ele>
        <time>2016-04-18T18:18:50Z</time>
      </trkpt>
      <trkpt lat="39.849962" lon="3.033559">
        <ele>56</ele>
        <time>2016-04-18T18:18:51Z</time>
      </trkpt>
      <trkpt lat="39.850058" lon="3.033595">
        <ele>55.6</ele>
        <time>2016-04-18T18:18:52Z</time>
      </trkpt>
      <trkpt lat="39.850145" lon="3.033611">
        <ele>55.3</ele>
        <time>2016-04-18T18:18:53Z</time>
      </trkpt>
      <trkpt lat="39.850222" lon="3.033616">
        <ele>55.3</ele>
        <time>2016-04-18T18:18:54Z</time>
      </trkpt>
      <trkpt lat="39.850308" lon="3.033637">
        <ele>54.9</ele>
        <time>2016-04-18T18:18:55Z</time>
      </trkpt>
      <trkpt lat="39.850385" lon="3.03366">
        <ele>54.5</ele>
        <time>2016-04-18T18:18:56Z</time>
      </trkpt>
      <trkpt lat="39.850468" lon="3.033687">
        <ele>54.3</ele>
        <time>2016-04-18T18:18:57Z</time>
      </trkpt>
      <trkpt lat="39.850551" lon="3.033713">
        <ele>54.3</ele>
        <time>2016-04-18T18:18:58Z</time>
      </trkpt>
      <trkpt lat="39.850643" lon="3.03377">
        <ele>53.9</ele>
        <time>2016-04-18T18:18:59Z</time>
      </trkpt>
      <trkpt lat="39.850733" lon="3.033818">
        <ele>53.9</ele>
        <time>2016-04-18T18:19:00Z</time>
      </trkpt>
      <trkpt lat="39.850808" lon="3.033847">
        <ele>53.9</ele>
        <time>2016-04-18T18:19:01Z</time>
      </trkpt>
      <trkpt lat="39.85089" lon="3.033892">
        <ele>53.9</ele>
        <time>2016-04-18T18:19:02Z</time>
      </trkpt>
      <trkpt lat="39.850971" lon="3.03394">
        <ele>53.8</ele>
        <time>2016-04-18T18:19:03Z</time>
      </trkpt>
      <trkpt lat="39.851049" lon="3.03398">
        <ele>53.8</ele>
        <time>2016-04-18T18:19:04Z</time>
      </trkpt>
      <trkpt lat="39.851128" lon="3.034019">
        <ele>53.8</ele>
        <time>2016-04-18T18:19:05Z</time>
      </trkpt>
      <trkpt lat="39.851207" lon="3.034052">
        <ele>53.9</ele>
        <time>2016-04-18T18:19:06Z</time>
      </trkpt>
      <trkpt lat="39.851285" lon="3.034093">
        <ele>54</ele>
        <time>2016-04-18T18:19:07Z</time>
      </trkpt>
      <trkpt lat="39.851358" lon="3.034145">
        <ele>54.1</ele>
        <time>2016-04-18T18:19:08Z</time>
      </trkpt>
      <trkpt lat="39.851433" lon="3.034178">
        <ele>54.3</ele>
        <time>2016-04-18T18:19:09Z</time>
      </trkpt>
      <trkpt lat="39.85151" lon="3.034208">
        <ele>54.6</ele>
        <time>2016-04-18T18:19:10Z</time>
      </trkpt>
      <trkpt lat="39.85158" lon="3.034243">
        <ele>54.7</ele>
        <time>2016-04-18T18:19:11Z</time>
      </trkpt>
      <trkpt lat="39.851655" lon="3.034285">
        <ele>54.8</ele>
        <time>2016-04-18T18:19:12Z</time>
      </trkpt>
      <trkpt lat="39.851727" lon="3.034308">
        <ele>55.1</ele>
        <time>2016-04-18T18:19:13Z</time>
      </trkpt>
      <trkpt lat="39.851808" lon="3.034339">
        <ele>55.3</ele>
        <time>2016-04-18T18:19:14Z</time>
      </trkpt>
      <trkpt lat="39.851883" lon="3.034373">
        <ele>55.4</ele>
        <time>2016-04-18T18:19:15Z</time>
      </trkpt>
      <trkpt lat="39.85196" lon="3.034394">
        <ele>55.7</ele>
        <time>2016-04-18T18:19:16Z</time>
      </trkpt>
      <trkpt lat="39.852035" lon="3.034414">
        <ele>55.9</ele>
        <time>2016-04-18T18:19:17Z</time>
      </trkpt>
      <trkpt lat="39.852109" lon="3.03443">
        <ele>56.2</ele>
        <time>2016-04-18T18:19:18Z</time>
      </trkpt>
      <trkpt lat="39.852185" lon="3.034449">
        <ele>56.5</ele>
        <time>2016-04-18T18:19:19Z</time>
      </trkpt>
      <trkpt lat="39.852259" lon="3.03446">
        <ele>57</ele>
        <time>2016-04-18T18:19:20Z</time>
      </trkpt>
      <trkpt lat="39.852338" lon="3.034464">
        <ele>57.5</ele>
        <time>2016-04-18T18:19:21Z</time>
      </trkpt>
      <trkpt lat="39.852403" lon="3.034445">
        <ele>58.3</ele>
        <time>2016-04-18T18:19:22Z</time>
      </trkpt>
      <trkpt lat="39.852479" lon="3.03446">
        <ele>58.6</ele>
        <time>2016-04-18T18:19:23Z</time>
      </trkpt>
      <trkpt lat="39.852569" lon="3.034457">
        <ele>59.3</ele>
        <time>2016-04-18T18:19:24Z</time>
      </trkpt>
      <trkpt lat="39.852645" lon="3.034444">
        <ele>60.1</ele>
        <time>2016-04-18T18:19:25Z</time>
      </trkpt>
      <trkpt lat="39.852727" lon="3.034419">
        <ele>61.1</ele>
        <time>2016-04-18T18:19:26Z</time>
      </trkpt>
      <trkpt lat="39.852805" lon="3.034399">
        <ele>62</ele>
        <time>2016-04-18T18:19:27Z</time>
      </trkpt>
      <trkpt lat="39.852882" lon="3.034377">
        <ele>62.9</ele>
        <time>2016-04-18T18:19:28Z</time>
      </trkpt>
      <trkpt lat="39.85295" lon="3.034323">
        <ele>63.8</ele>
        <time>2016-04-18T18:19:29Z</time>
      </trkpt>
      <trkpt lat="39.853017" lon="3.034283">
        <ele>63.7</ele>
        <time>2016-04-18T18:19:30Z</time>
      </trkpt>
      <trkpt lat="39.853065" lon="3.034226">
        <ele>64.1</ele>
        <time>2016-04-18T18:19:31Z</time>
      </trkpt>
      <trkpt lat="39.853153" lon="3.034175">
        <ele>63.8</ele>
        <time>2016-04-18T18:19:32Z</time>
      </trkpt>
      <trkpt lat="39.85323" lon="3.034139">
        <ele>63.4</ele>
        <time>2016-04-18T18:19:33Z</time>
      </trkpt>
      <trkpt lat="39.853302" lon="3.03409">
        <ele>63.2</ele>
        <time>2016-04-18T18:19:34Z</time>
      </trkpt>
      <trkpt lat="39.853354" lon="3.034059">
        <ele>62.9</ele>
        <time>2016-04-18T18:19:35Z</time>
      </trkpt>
      <trkpt lat="39.853409" lon="3.034012">
        <ele>62.7</ele>
        <time>2016-04-18T18:19:36Z</time>
      </trkpt>
      <trkpt lat="39.853475" lon="3.033943">
        <ele>62.5</ele>
        <time>2016-04-18T18:19:37Z</time>
      </trkpt>
      <trkpt lat="39.853523" lon="3.033901">
        <ele>62.2</ele>
        <time>2016-04-18T18:19:38Z</time>
      </trkpt>
      <trkpt lat="39.853604" lon="3.033827">
        <ele>61.7</ele>
        <time>2016-04-18T18:19:39Z</time>
      </trkpt>
      <trkpt lat="39.853674" lon="3.033758">
        <ele>61.1</ele>
        <time>2016-04-18T18:19:40Z</time>
      </trkpt>
      <trkpt lat="39.853741" lon="3.033686">
        <ele>60.5</ele>
        <time>2016-04-18T18:19:41Z</time>
      </trkpt>
      <trkpt lat="39.853805" lon="3.033616">
        <ele>59.6</ele>
        <time>2016-04-18T18:19:42Z</time>
      </trkpt>
      <trkpt lat="39.853863" lon="3.033559">
        <ele>58.9</ele>
        <time>2016-04-18T18:19:43Z</time>
      </trkpt>
      <trkpt lat="39.853928" lon="3.033498">
        <ele>57.9</ele>
        <time>2016-04-18T18:19:44Z</time>
      </trkpt>
      <trkpt lat="39.853999" lon="3.033422">
        <ele>57</ele>
        <time>2016-04-18T18:19:45Z</time>
      </trkpt>
      <trkpt lat="39.85407" lon="3.033348">
        <ele>56</ele>
        <time>2016-04-18T18:19:46Z</time>
      </trkpt>
      <trkpt lat="39.854135" lon="3.033273">
        <ele>55.1</ele>
        <time>2016-04-18T18:19:47Z</time>
      </trkpt>
      <trkpt lat="39.854203" lon="3.033206">
        <ele>54.1</ele>
        <time>2016-04-18T18:19:48Z</time>
      </trkpt>
      <trkpt lat="39.854282" lon="3.033126">
        <ele>52.9</ele>
        <time>2016-04-18T18:19:49Z</time>
      </trkpt>
      <trkpt lat="39.85435" lon="3.033054">
        <ele>51.9</ele>
        <time>2016-04-18T18:19:50Z</time>
      </trkpt>
      <trkpt lat="39.854405" lon="3.03299">
        <ele>51.1</ele>
        <time>2016-04-18T18:19:51Z</time>
      </trkpt>
      <trkpt lat="39.85446" lon="3.032925">
        <ele>50.3</ele>
        <time>2016-04-18T18:19:52Z</time>
      </trkpt>
      <trkpt lat="39.854531" lon="3.032858">
        <ele>49.3</ele>
        <time>2016-04-18T18:19:53Z</time>
      </trkpt>
      <trkpt lat="39.854587" lon="3.032787">
        <ele>48.8</ele>
        <time>2016-04-18T18:19:54Z</time>
      </trkpt>
      <trkpt lat="39.854647" lon="3.032714">
        <ele>48.9</ele>
        <time>2016-04-18T18:19:55Z</time>
      </trkpt>
      <trkpt lat="39.854716" lon="3.032642">
        <ele>49.1</ele>
        <time>2016-04-18T18:19:56Z</time>
      </trkpt>
      <trkpt lat="39.85478" lon="3.032575">
        <ele>49.1</ele>
        <time>2016-04-18T18:19:57Z</time>
      </trkpt>
      <trkpt lat="39.854847" lon="3.032502">
        <ele>49.2</ele>
        <time>2016-04-18T18:19:58Z</time>
      </trkpt>
      <trkpt lat="39.854923" lon="3.032433">
        <ele>49.2</ele>
        <time>2016-04-18T18:19:59Z</time>
      </trkpt>
      <trkpt lat="39.854993" lon="3.032365">
        <ele>49.2</ele>
        <time>2016-04-18T18:20:00Z</time>
      </trkpt>
      <trkpt lat="39.855058" lon="3.032304">
        <ele>49.1</ele>
        <time>2016-04-18T18:20:01Z</time>
      </trkpt>
      <trkpt lat="39.855127" lon="3.032236">
        <ele>49.1</ele>
        <time>2016-04-18T18:20:02Z</time>
      </trkpt>
      <trkpt lat="39.855188" lon="3.032176">
        <ele>49</ele>
        <time>2016-04-18T18:20:03Z</time>
      </trkpt>
      <trkpt lat="39.855254" lon="3.032097">
        <ele>48.9</ele>
        <time>2016-04-18T18:20:04Z</time>
      </trkpt>
      <trkpt lat="39.855317" lon="3.032032">
        <ele>48.7</ele>
        <time>2016-04-18T18:20:05Z</time>
      </trkpt>
      <trkpt lat="39.855381" lon="3.031977">
        <ele>48.5</ele>
        <time>2016-04-18T18:20:06Z</time>
      </trkpt>
      <trkpt lat="39.855448" lon="3.031905">
        <ele>48.4</ele>
        <time>2016-04-18T18:20:07Z</time>
      </trkpt>
      <trkpt lat="39.85551" lon="3.031842">
        <ele>48.5</ele>
        <time>2016-04-18T18:20:08Z</time>
      </trkpt>
      <trkpt lat="39.855562" lon="3.031786">
        <ele>48.6</ele>
        <time>2016-04-18T18:20:09Z</time>
      </trkpt>
      <trkpt lat="39.855612" lon="3.03172">
        <ele>48.7</ele>
        <time>2016-04-18T18:20:10Z</time>
      </trkpt>
      <trkpt lat="39.855676" lon="3.031663">
        <ele>48.9</ele>
        <time>2016-04-18T18:20:11Z</time>
      </trkpt>
      <trkpt lat="39.855731" lon="3.031602">
        <ele>49</ele>
        <time>2016-04-18T18:20:12Z</time>
      </trkpt>
      <trkpt lat="39.855787" lon="3.031544">
        <ele>49.1</ele>
        <time>2016-04-18T18:20:13Z</time>
      </trkpt>
      <trkpt lat="39.855836" lon="3.031488">
        <ele>49.3</ele>
        <time>2016-04-18T18:20:14Z</time>
      </trkpt>
      <trkpt lat="39.855888" lon="3.031425">
        <ele>49.5</ele>
        <time>2016-04-18T18:20:15Z</time>
      </trkpt>
      <trkpt lat="39.855938" lon="3.031373">
        <ele>49.6</ele>
        <time>2016-04-18T18:20:16Z</time>
      </trkpt>
      <trkpt lat="39.855973" lon="3.031327">
        <ele>49.8</ele>
        <time>2016-04-18T18:20:17Z</time>
      </trkpt>
      <trkpt lat="39.856026" lon="3.031271">
        <ele>49.9</ele>
        <time>2016-04-18T18:20:18Z</time>
      </trkpt>
      <trkpt lat="39.856076" lon="3.031214">
        <ele>50.2</ele>
        <time>2016-04-18T18:20:19Z</time>
      </trkpt>
      <trkpt lat="39.856121" lon="3.03116">
        <ele>50.5</ele>
        <time>2016-04-18T18:20:20Z</time>
      </trkpt>
      <trkpt lat="39.856171" lon="3.031111">
        <ele>50.7</ele>
        <time>2016-04-18T18:20:21Z</time>
      </trkpt>
      <trkpt lat="39.856214" lon="3.031056">
        <ele>51</ele>
        <time>2016-04-18T18:20:22Z</time>
      </trkpt>
      <trkpt lat="39.856261" lon="3.031006">
        <ele>51.2</ele>
        <time>2016-04-18T18:20:23Z</time>
      </trkpt>
      <trkpt lat="39.856302" lon="3.030955">
        <ele>51.5</ele>
        <time>2016-04-18T18:20:24Z</time>
      </trkpt>
      <trkpt lat="39.856355" lon="3.030901">
        <ele>51.9</ele>
        <time>2016-04-18T18:20:25Z</time>
      </trkpt>
      <trkpt lat="39.856397" lon="3.030834">
        <ele>52.3</ele>
        <time>2016-04-18T18:20:26Z</time>
      </trkpt>
      <trkpt lat="39.85644" lon="3.030771">
        <ele>52.7</ele>
        <time>2016-04-18T18:20:27Z</time>
      </trkpt>
      <trkpt lat="39.856471" lon="3.030717">
        <ele>53</ele>
        <time>2016-04-18T18:20:28Z</time>
      </trkpt>
      <trkpt lat="39.856501" lon="3.030665">
        <ele>53.3</ele>
        <time>2016-04-18T18:20:29Z</time>
      </trkpt>
      <trkpt lat="39.856542" lon="3.030606">
        <ele>53.7</ele>
        <time>2016-04-18T18:20:30Z</time>
      </trkpt>
      <trkpt lat="39.856574" lon="3.030545">
        <ele>54.1</ele>
        <time>2016-04-18T18:20:31Z</time>
      </trkpt>
      <trkpt lat="39.856619" lon="3.030489">
        <ele>54.5</ele>
        <time>2016-04-18T18:20:32Z</time>
      </trkpt>
      <trkpt lat="39.856654" lon="3.030415">
        <ele>55</ele>
        <time>2016-04-18T18:20:33Z</time>
      </trkpt>
      <trkpt lat="39.856692" lon="3.030339">
        <ele>55.8</ele>
        <time>2016-04-18T18:20:34Z</time>
      </trkpt>
      <trkpt lat="39.856733" lon="3.030272">
        <ele>56.5</ele>
        <time>2016-04-18T18:20:35Z</time>
      </trkpt>
      <trkpt lat="39.856779" lon="3.030216">
        <ele>57.2</ele>
        <time>2016-04-18T18:20:36Z</time>
      </trkpt>
      <trkpt lat="39.856801" lon="3.030155">
        <ele>57.8</ele>
        <time>2016-04-18T18:20:37Z</time>
      </trkpt>
      <trkpt lat="39.85684" lon="3.030093">
        <ele>58.5</ele>
        <time>2016-04-18T18:20:38Z</time>
      </trkpt>
      <trkpt lat="39.856869" lon="3.030046">
        <ele>59</ele>
        <time>2016-04-18T18:20:39Z</time>
      </trkpt>
      <trkpt lat="39.856903" lon="3.029987">
        <ele>59.7</ele>
        <time>2016-04-18T18:20:40Z</time>
      </trkpt>
      <trkpt lat="39.856949" lon="3.02995">
        <ele>60.2</ele>
        <time>2016-04-18T18:20:41Z</time>
      </trkpt>
      <trkpt lat="39.85699" lon="3.029915">
        <ele>60.6</ele>
        <time>2016-04-18T18:20:42Z</time>
      </trkpt>
      <trkpt lat="39.857026" lon="3.029913">
        <ele>60.7</ele>
        <time>2016-04-18T18:20:43Z</time>
      </trkpt>
      <trkpt lat="39.857069" lon="3.029925">
        <ele>60.7</ele>
        <time>2016-04-18T18:20:44Z</time>
      </trkpt>
      <trkpt lat="39.857099" lon="3.029949">
        <ele>60.4</ele>
        <time>2016-04-18T18:20:45Z</time>
      </trkpt>
      <trkpt lat="39.857127" lon="3.029977">
        <ele>60</ele>
        <time>2016-04-18T18:20:46Z</time>
      </trkpt>
      <trkpt lat="39.857134" lon="3.030023">
        <ele>59.6</ele>
        <time>2016-04-18T18:20:47Z</time>
      </trkpt>
      <trkpt lat="39.857151" lon="3.030071">
        <ele>59.1</ele>
        <time>2016-04-18T18:20:48Z</time>
      </trkpt>
      <trkpt lat="39.857175" lon="3.030149">
        <ele>58.3</ele>
        <time>2016-04-18T18:20:49Z</time>
      </trkpt>
      <trkpt lat="39.8572" lon="3.030233">
        <ele>57.5</ele>
        <time>2016-04-18T18:20:50Z</time>
      </trkpt>
      <trkpt lat="39.857226" lon="3.030304">
        <ele>56.8</ele>
        <time>2016-04-18T18:20:51Z</time>
      </trkpt>
      <trkpt lat="39.857248" lon="3.030392">
        <ele>56</ele>
        <time>2016-04-18T18:20:52Z</time>
      </trkpt>
      <trkpt lat="39.857262" lon="3.030492">
        <ele>55.4</ele>
        <time>2016-04-18T18:20:53Z</time>
      </trkpt>
      <trkpt lat="39.857276" lon="3.030601">
        <ele>54.9</ele>
        <time>2016-04-18T18:20:54Z</time>
      </trkpt>
      <trkpt lat="39.857278" lon="3.030721">
        <ele>54.3</ele>
        <time>2016-04-18T18:20:55Z</time>
      </trkpt>
      <trkpt lat="39.857272" lon="3.030828">
        <ele>53.8</ele>
        <time>2016-04-18T18:20:56Z</time>
      </trkpt>
      <trkpt lat="39.857251" lon="3.030937">
        <ele>53.2</ele>
        <time>2016-04-18T18:20:57Z</time>
      </trkpt>
      <trkpt lat="39.857243" lon="3.031047">
        <ele>52.6</ele>
        <time>2016-04-18T18:20:58Z</time>
      </trkpt>
      <trkpt lat="39.857231" lon="3.031165">
        <ele>52</ele>
        <time>2016-04-18T18:20:59Z</time>
      </trkpt>
      <trkpt lat="39.857219" lon="3.031274">
        <ele>51.4</ele>
        <time>2016-04-18T18:21:00Z</time>
      </trkpt>
      <trkpt lat="39.857212" lon="3.031392">
        <ele>50.9</ele>
        <time>2016-04-18T18:21:01Z</time>
      </trkpt>
      <trkpt lat="39.85721" lon="3.031508">
        <ele>50.4</ele>
        <time>2016-04-18T18:21:02Z</time>
      </trkpt>
      <trkpt lat="39.857208" lon="3.031631">
        <ele>49.8</ele>
        <time>2016-04-18T18:21:03Z</time>
      </trkpt>
      <trkpt lat="39.857214" lon="3.031768">
        <ele>49.3</ele>
        <time>2016-04-18T18:21:04Z</time>
      </trkpt>
      <trkpt lat="39.857219" lon="3.031891">
        <ele>48.8</ele>
        <time>2016-04-18T18:21:05Z</time>
      </trkpt>
      <trkpt lat="39.857215" lon="3.032015">
        <ele>48.2</ele>
        <time>2016-04-18T18:21:06Z</time>
      </trkpt>
      <trkpt lat="39.857216" lon="3.032145">
        <ele>47.7</ele>
        <time>2016-04-18T18:21:07Z</time>
      </trkpt>
      <trkpt lat="39.857214" lon="3.032262">
        <ele>47.3</ele>
        <time>2016-04-18T18:21:08Z</time>
      </trkpt>
      <trkpt lat="39.857213" lon="3.032381">
        <ele>46.8</ele>
        <time>2016-04-18T18:21:09Z</time>
      </trkpt>
      <trkpt lat="39.857211" lon="3.0325">
        <ele>46.3</ele>
        <time>2016-04-18T18:21:10Z</time>
      </trkpt>
      <trkpt lat="39.857211" lon="3.032627">
        <ele>45.9</ele>
        <time>2016-04-18T18:21:11Z</time>
      </trkpt>
      <trkpt lat="39.857208" lon="3.032748">
        <ele>45.4</ele>
        <time>2016-04-18T18:21:12Z</time>
      </trkpt>
      <trkpt lat="39.857179" lon="3.032873">
        <ele>44.7</ele>
        <time>2016-04-18T18:21:13Z</time>
      </trkpt>
      <trkpt lat="39.857123" lon="3.032982">
        <ele>43.9</ele>
        <time>2016-04-18T18:21:14Z</time>
      </trkpt>
      <trkpt lat="39.85706" lon="3.033095">
        <ele>43.1</ele>
        <time>2016-04-18T18:21:15Z</time>
      </trkpt>
      <trkpt lat="39.85699" lon="3.033195">
        <ele>42.7</ele>
        <time>2016-04-18T18:21:16Z</time>
      </trkpt>
      <trkpt lat="39.856917" lon="3.033285">
        <ele>42.2</ele>
        <time>2016-04-18T18:21:17Z</time>
      </trkpt>
      <trkpt lat="39.856841" lon="3.033385">
        <ele>41.8</ele>
        <time>2016-04-18T18:21:18Z</time>
      </trkpt>
      <trkpt lat="39.856752" lon="3.033466">
        <ele>41.4</ele>
        <time>2016-04-18T18:21:19Z</time>
      </trkpt>
      <trkpt lat="39.856676" lon="3.033553">
        <ele>40.9</ele>
        <time>2016-04-18T18:21:20Z</time>
      </trkpt>
      <trkpt lat="39.856611" lon="3.033647">
        <ele>40.5</ele>
        <time>2016-04-18T18:21:21Z</time>
      </trkpt>
      <trkpt lat="39.856553" lon="3.033741">
        <ele>40</ele>
        <time>2016-04-18T18:21:22Z</time>
      </trkpt>
      <trkpt lat="39.856497" lon="3.033832">
        <ele>39.8</ele>
        <time>2016-04-18T18:21:23Z</time>
      </trkpt>
      <trkpt lat="39.856447" lon="3.033921">
        <ele>39.6</ele>
        <time>2016-04-18T18:21:24Z</time>
      </trkpt>
      <trkpt lat="39.856394" lon="3.034019">
        <ele>39.4</ele>
        <time>2016-04-18T18:21:25Z</time>
      </trkpt>
      <trkpt lat="39.856341" lon="3.034112">
        <ele>39.1</ele>
        <time>2016-04-18T18:21:26Z</time>
      </trkpt>
      <trkpt lat="39.856292" lon="3.0342">
        <ele>38.9</ele>
        <time>2016-04-18T18:21:27Z</time>
      </trkpt>
      <trkpt lat="39.856245" lon="3.034293">
        <ele>38.7</ele>
        <time>2016-04-18T18:21:28Z</time>
      </trkpt>
      <trkpt lat="39.856206" lon="3.034386">
        <ele>38.4</ele>
        <time>2016-04-18T18:21:29Z</time>
      </trkpt>
      <trkpt lat="39.856169" lon="3.03449">
        <ele>38.1</ele>
        <time>2016-04-18T18:21:30Z</time>
      </trkpt>
      <trkpt lat="39.856137" lon="3.034589">
        <ele>37.9</ele>
        <time>2016-04-18T18:21:31Z</time>
      </trkpt>
      <trkpt lat="39.856111" lon="3.034688">
        <ele>37.6</ele>
        <time>2016-04-18T18:21:32Z</time>
      </trkpt>
      <trkpt lat="39.856093" lon="3.034797">
        <ele>37.3</ele>
        <time>2016-04-18T18:21:33Z</time>
      </trkpt>
      <trkpt lat="39.856072" lon="3.034904">
        <ele>37</ele>
        <time>2016-04-18T18:21:34Z</time>
      </trkpt>
      <trkpt lat="39.856049" lon="3.035">
        <ele>36.8</ele>
        <time>2016-04-18T18:21:35Z</time>
      </trkpt>
      <trkpt lat="39.856019" lon="3.035114">
        <ele>36.4</ele>
        <time>2016-04-18T18:21:36Z</time>
      </trkpt>
      <trkpt lat="39.855974" lon="3.035205">
        <ele>36.2</ele>
        <time>2016-04-18T18:21:37Z</time>
      </trkpt>
      <trkpt lat="39.855944" lon="3.035323">
        <ele>35.9</ele>
        <time>2016-04-18T18:21:38Z</time>
      </trkpt>
      <trkpt lat="39.855918" lon="3.035429">
        <ele>35.6</ele>
        <time>2016-04-18T18:21:39Z</time>
      </trkpt>
      <trkpt lat="39.855888" lon="3.035527">
        <ele>35.3</ele>
        <time>2016-04-18T18:21:40Z</time>
      </trkpt>
      <trkpt lat="39.85585" lon="3.035629">
        <ele>35</ele>
        <time>2016-04-18T18:21:41Z</time>
      </trkpt>
      <trkpt lat="39.855811" lon="3.035723">
        <ele>34.8</ele>
        <time>2016-04-18T18:21:42Z</time>
      </trkpt>
      <trkpt lat="39.855762" lon="3.035818">
        <ele>34.6</ele>
        <time>2016-04-18T18:21:43Z</time>
      </trkpt>
      <trkpt lat="39.855716" lon="3.035912">
        <ele>34.5</ele>
        <time>2016-04-18T18:21:44Z</time>
      </trkpt>
      <trkpt lat="39.855666" lon="3.036005">
        <ele>34.5</ele>
        <time>2016-04-18T18:21:45Z</time>
      </trkpt>
      <trkpt lat="39.855632" lon="3.036087">
        <ele>34.4</ele>
        <time>2016-04-18T18:21:46Z</time>
      </trkpt>
      <trkpt lat="39.855594" lon="3.036183">
        <ele>34.4</ele>
        <time>2016-04-18T18:21:47Z</time>
      </trkpt>
      <trkpt lat="39.85555" lon="3.036276">
        <ele>34.5</ele>
        <time>2016-04-18T18:21:48Z</time>
      </trkpt>
      <trkpt lat="39.855507" lon="3.036362">
        <ele>34.6</ele>
        <time>2016-04-18T18:21:49Z</time>
      </trkpt>
      <trkpt lat="39.85548" lon="3.036436">
        <ele>34.6</ele>
        <time>2016-04-18T18:21:50Z</time>
      </trkpt>
      <trkpt lat="39.855443" lon="3.036528">
        <ele>34.6</ele>
        <time>2016-04-18T18:21:51Z</time>
      </trkpt>
      <trkpt lat="39.855418" lon="3.03661">
        <ele>34.6</ele>
        <time>2016-04-18T18:21:52Z</time>
      </trkpt>
      <trkpt lat="39.855393" lon="3.036694">
        <ele>34.5</ele>
        <time>2016-04-18T18:21:53Z</time>
      </trkpt>
      <trkpt lat="39.855509" lon="3.036755">
        <ele>34.1</ele>
        <time>2016-04-18T18:21:54Z</time>
      </trkpt>
      <trkpt lat="39.855563" lon="3.036826">
        <ele>33.9</ele>
        <time>2016-04-18T18:21:55Z</time>
      </trkpt>
      <trkpt lat="39.855624" lon="3.036912">
        <ele>33.7</ele>
        <time>2016-04-18T18:21:56Z</time>
      </trkpt>
      <trkpt lat="39.85568" lon="3.037026">
        <ele>33.4</ele>
        <time>2016-04-18T18:21:57Z</time>
      </trkpt>
      <trkpt lat="39.855728" lon="3.037106">
        <ele>33.2</ele>
        <time>2016-04-18T18:21:58Z</time>
      </trkpt>
      <trkpt lat="39.855786" lon="3.03717">
        <ele>33.1</ele>
        <time>2016-04-18T18:21:59Z</time>
      </trkpt>
      <trkpt lat="39.85583" lon="3.037244">
        <ele>33</ele>
        <time>2016-04-18T18:22:00Z</time>
      </trkpt>
      <trkpt lat="39.855905" lon="3.03732">
        <ele>32.9</ele>
        <time>2016-04-18T18:22:01Z</time>
      </trkpt>
      <trkpt lat="39.855975" lon="3.037324">
        <ele>32.8</ele>
        <time>2016-04-18T18:22:02Z</time>
      </trkpt>
      <trkpt lat="39.856048" lon="3.037356">
        <ele>32.7</ele>
        <time>2016-04-18T18:22:03Z</time>
      </trkpt>
      <trkpt lat="39.856113" lon="3.037396">
        <ele>32.6</ele>
        <time>2016-04-18T18:22:04Z</time>
      </trkpt>
      <trkpt lat="39.856175" lon="3.037417">
        <ele>32.5</ele>
        <time>2016-04-18T18:22:05Z</time>
      </trkpt>
      <trkpt lat="39.856241" lon="3.037474">
        <ele>32.5</ele>
        <time>2016-04-18T18:22:06Z</time>
      </trkpt>
      <trkpt lat="39.856294" lon="3.037514">
        <ele>32.6</ele>
        <time>2016-04-18T18:22:07Z</time>
      </trkpt>
      <trkpt lat="39.856349" lon="3.037554">
        <ele>32.7</ele>
        <time>2016-04-18T18:22:08Z</time>
      </trkpt>
      <trkpt lat="39.856399" lon="3.037569">
        <ele>32.8</ele>
        <time>2016-04-18T18:22:09Z</time>
      </trkpt>
      <trkpt lat="39.856453" lon="3.037599">
        <ele>32.9</ele>
        <time>2016-04-18T18:22:10Z</time>
      </trkpt>
      <trkpt lat="39.856506" lon="3.037635">
        <ele>33.1</ele>
        <time>2016-04-18T18:22:11Z</time>
      </trkpt>
      <trkpt lat="39.856558" lon="3.037678">
        <ele>33.2</ele>
        <time>2016-04-18T18:22:12Z</time>
      </trkpt>
      <trkpt lat="39.856606" lon="3.037716">
        <ele>33.4</ele>
        <time>2016-04-18T18:22:13Z</time>
      </trkpt>
      <trkpt lat="39.856653" lon="3.037764">
        <ele>33.6</ele>
        <time>2016-04-18T18:22:14Z</time>
      </trkpt>
      <trkpt lat="39.856687" lon="3.037821">
        <ele>33.8</ele>
        <time>2016-04-18T18:22:15Z</time>
      </trkpt>
      <trkpt lat="39.856732" lon="3.037874">
        <ele>34</ele>
        <time>2016-04-18T18:22:16Z</time>
      </trkpt>
      <trkpt lat="39.856777" lon="3.037901">
        <ele>34.2</ele>
        <time>2016-04-18T18:22:17Z</time>
      </trkpt>
      <trkpt lat="39.856822" lon="3.037944">
        <ele>34.3</ele>
        <time>2016-04-18T18:22:18Z</time>
      </trkpt>
      <trkpt lat="39.856868" lon="3.037992">
        <ele>34.3</ele>
        <time>2016-04-18T18:22:19Z</time>
      </trkpt>
      <trkpt lat="39.856916" lon="3.038068">
        <ele>34.2</ele>
        <time>2016-04-18T18:22:20Z</time>
      </trkpt>
      <trkpt lat="39.856969" lon="3.038111">
        <ele>34.3</ele>
        <time>2016-04-18T18:22:21Z</time>
      </trkpt>
      <trkpt lat="39.857022" lon="3.038149">
        <ele>34.3</ele>
        <time>2016-04-18T18:22:22Z</time>
      </trkpt>
      <trkpt lat="39.857073" lon="3.038211">
        <ele>34.3</ele>
        <time>2016-04-18T18:22:23Z</time>
      </trkpt>
      <trkpt lat="39.85713" lon="3.038263">
        <ele>34.2</ele>
        <time>2016-04-18T18:22:24Z</time>
      </trkpt>
      <trkpt lat="39.857202" lon="3.038314">
        <ele>34.1</ele>
        <time>2016-04-18T18:22:25Z</time>
      </trkpt>
      <trkpt lat="39.857265" lon="3.038365">
        <ele>34</ele>
        <time>2016-04-18T18:22:26Z</time>
      </trkpt>
      <trkpt lat="39.857328" lon="3.038416">
        <ele>34</ele>
        <time>2016-04-18T18:22:27Z</time>
      </trkpt>
      <trkpt lat="39.85739" lon="3.038464">
        <ele>33.9</ele>
        <time>2016-04-18T18:22:28Z</time>
      </trkpt>
      <trkpt lat="39.857454" lon="3.038522">
        <ele>33.9</ele>
        <time>2016-04-18T18:22:29Z</time>
      </trkpt>
      <trkpt lat="39.857518" lon="3.03859">
        <ele>33.8</ele>
        <time>2016-04-18T18:22:30Z</time>
      </trkpt>
      <trkpt lat="39.857578" lon="3.03866">
        <ele>33.7</ele>
        <time>2016-04-18T18:22:31Z</time>
      </trkpt>
      <trkpt lat="39.857638" lon="3.038725">
        <ele>33.7</ele>
        <time>2016-04-18T18:22:32Z</time>
      </trkpt>
      <trkpt lat="39.857696" lon="3.038789">
        <ele>33.6</ele>
        <time>2016-04-18T18:22:33Z</time>
      </trkpt>
      <trkpt lat="39.857762" lon="3.038844">
        <ele>33.6</ele>
        <time>2016-04-18T18:22:34Z</time>
      </trkpt>
      <trkpt lat="39.857823" lon="3.03889">
        <ele>33.6</ele>
        <time>2016-04-18T18:22:35Z</time>
      </trkpt>
      <trkpt lat="39.857885" lon="3.03892">
        <ele>33.6</ele>
        <time>2016-04-18T18:22:36Z</time>
      </trkpt>
      <trkpt lat="39.857944" lon="3.038958">
        <ele>33.5</ele>
        <time>2016-04-18T18:22:37Z</time>
      </trkpt>
      <trkpt lat="39.858024" lon="3.038996">
        <ele>33.4</ele>
        <time>2016-04-18T18:22:38Z</time>
      </trkpt>
      <trkpt lat="39.858097" lon="3.039047">
        <ele>33.3</ele>
        <time>2016-04-18T18:22:39Z</time>
      </trkpt>
      <trkpt lat="39.85816" lon="3.039113">
        <ele>33</ele>
        <time>2016-04-18T18:22:40Z</time>
      </trkpt>
      <trkpt lat="39.858222" lon="3.039176">
        <ele>32.8</ele>
        <time>2016-04-18T18:22:41Z</time>
      </trkpt>
      <trkpt lat="39.858282" lon="3.039256">
        <ele>32.4</ele>
        <time>2016-04-18T18:22:42Z</time>
      </trkpt>
      <trkpt lat="39.85834" lon="3.039322">
        <ele>32.1</ele>
        <time>2016-04-18T18:22:43Z</time>
      </trkpt>
      <trkpt lat="39.858399" lon="3.039395">
        <ele>31.7</ele>
        <time>2016-04-18T18:22:44Z</time>
      </trkpt>
      <trkpt lat="39.85846" lon="3.039476">
        <ele>31.2</ele>
        <time>2016-04-18T18:22:45Z</time>
      </trkpt>
      <trkpt lat="39.858521" lon="3.039555">
        <ele>30.7</ele>
        <time>2016-04-18T18:22:46Z</time>
      </trkpt>
      <trkpt lat="39.858574" lon="3.039618">
        <ele>30.4</ele>
        <time>2016-04-18T18:22:47Z</time>
      </trkpt>
      <trkpt lat="39.858628" lon="3.039694">
        <ele>30.2</ele>
        <time>2016-04-18T18:22:48Z</time>
      </trkpt>
      <trkpt lat="39.858684" lon="3.039764">
        <ele>30.1</ele>
        <time>2016-04-18T18:22:49Z</time>
      </trkpt>
      <trkpt lat="39.858752" lon="3.039814">
        <ele>30</ele>
        <time>2016-04-18T18:22:50Z</time>
      </trkpt>
      <trkpt lat="39.858812" lon="3.039877">
        <ele>30.1</ele>
        <time>2016-04-18T18:22:51Z</time>
      </trkpt>
      <trkpt lat="39.858861" lon="3.039952">
        <ele>30.2</ele>
        <time>2016-04-18T18:22:52Z</time>
      </trkpt>
      <trkpt lat="39.858918" lon="3.040023">
        <ele>30.3</ele>
        <time>2016-04-18T18:22:53Z</time>
      </trkpt>
      <trkpt lat="39.858975" lon="3.040095">
        <ele>30.4</ele>
        <time>2016-04-18T18:22:54Z</time>
      </trkpt>
      <trkpt lat="39.85903" lon="3.040153">
        <ele>30.6</ele>
        <time>2016-04-18T18:22:55Z</time>
      </trkpt>
      <trkpt lat="39.859087" lon="3.040215">
        <ele>30.7</ele>
        <time>2016-04-18T18:22:56Z</time>
      </trkpt>
      <trkpt lat="39.859145" lon="3.04027">
        <ele>30.9</ele>
        <time>2016-04-18T18:22:57Z</time>
      </trkpt>
      <trkpt lat="39.859205" lon="3.040318">
        <ele>31</ele>
        <time>2016-04-18T18:22:58Z</time>
      </trkpt>
      <trkpt lat="39.859263" lon="3.040339">
        <ele>31.2</ele>
        <time>2016-04-18T18:22:59Z</time>
      </trkpt>
      <trkpt lat="39.859318" lon="3.040366">
        <ele>31.3</ele>
        <time>2016-04-18T18:23:00Z</time>
      </trkpt>
      <trkpt lat="39.859376" lon="3.040422">
        <ele>31.5</ele>
        <time>2016-04-18T18:23:01Z</time>
      </trkpt>
      <trkpt lat="39.859433" lon="3.040484">
        <ele>31.6</ele>
        <time>2016-04-18T18:23:02Z</time>
      </trkpt>
      <trkpt lat="39.859484" lon="3.040537">
        <ele>31.7</ele>
        <time>2016-04-18T18:23:03Z</time>
      </trkpt>
      <trkpt lat="39.859529" lon="3.040608">
        <ele>31.9</ele>
        <time>2016-04-18T18:23:04Z</time>
      </trkpt>
      <trkpt lat="39.859576" lon="3.040667">
        <ele>32</ele>
        <time>2016-04-18T18:23:05Z</time>
      </trkpt>
      <trkpt lat="39.859617" lon="3.040718">
        <ele>32.2</ele>
        <time>2016-04-18T18:23:06Z</time>
      </trkpt>
      <trkpt lat="39.859664" lon="3.040769">
        <ele>32.4</ele>
        <time>2016-04-18T18:23:07Z</time>
      </trkpt>
      <trkpt lat="39.859712" lon="3.040819">
        <ele>32.6</ele>
        <time>2016-04-18T18:23:08Z</time>
      </trkpt>
      <trkpt lat="39.859761" lon="3.040865">
        <ele>32.9</ele>
        <time>2016-04-18T18:23:09Z</time>
      </trkpt>
      <trkpt lat="39.859807" lon="3.04091">
        <ele>33.1</ele>
        <time>2016-04-18T18:23:10Z</time>
      </trkpt>
      <trkpt lat="39.859851" lon="3.040958">
        <ele>33.3</ele>
        <time>2016-04-18T18:23:11Z</time>
      </trkpt>
      <trkpt lat="39.859896" lon="3.041008">
        <ele>33.5</ele>
        <time>2016-04-18T18:23:12Z</time>
      </trkpt>
      <trkpt lat="39.859945" lon="3.041063">
        <ele>33.7</ele>
        <time>2016-04-18T18:23:13Z</time>
      </trkpt>
      <trkpt lat="39.859991" lon="3.041114">
        <ele>34</ele>
        <time>2016-04-18T18:23:14Z</time>
      </trkpt>
      <trkpt lat="39.860032" lon="3.041177">
        <ele>34.2</ele>
        <time>2016-04-18T18:23:15Z</time>
      </trkpt>
      <trkpt lat="39.860079" lon="3.041222">
        <ele>34.4</ele>
        <time>2016-04-18T18:23:16Z</time>
      </trkpt>
      <trkpt lat="39.860128" lon="3.041265">
        <ele>34.6</ele>
        <time>2016-04-18T18:23:17Z</time>
      </trkpt>
      <trkpt lat="39.860179" lon="3.041308">
        <ele>34.7</ele>
        <time>2016-04-18T18:23:18Z</time>
      </trkpt>
      <trkpt lat="39.860231" lon="3.041351">
        <ele>34.8</ele>
        <time>2016-04-18T18:23:19Z</time>
      </trkpt>
      <trkpt lat="39.860295" lon="3.041319">
        <ele>35.2</ele>
        <time>2016-04-18T18:23:20Z</time>
      </trkpt>
      <trkpt lat="39.860356" lon="3.041294">
        <ele>35.6</ele>
        <time>2016-04-18T18:23:21Z</time>
      </trkpt>
      <trkpt lat="39.860407" lon="3.041259">
        <ele>35.9</ele>
        <time>2016-04-18T18:23:22Z</time>
      </trkpt>
      <trkpt lat="39.860458" lon="3.041236">
        <ele>36.2</ele>
        <time>2016-04-18T18:23:23Z</time>
      </trkpt>
      <trkpt lat="39.860497" lon="3.041195">
        <ele>36.5</ele>
        <time>2016-04-18T18:23:24Z</time>
      </trkpt>
      <trkpt lat="39.860551" lon="3.041151">
        <ele>36.8</ele>
        <time>2016-04-18T18:23:25Z</time>
      </trkpt>
      <trkpt lat="39.860576" lon="3.041124">
        <ele>37</ele>
        <time>2016-04-18T18:23:26Z</time>
      </trkpt>
      <trkpt lat="39.860621" lon="3.041107">
        <ele>37.3</ele>
        <time>2016-04-18T18:23:27Z</time>
      </trkpt>
      <trkpt lat="39.860656" lon="3.041089">
        <ele>37.5</ele>
        <time>2016-04-18T18:23:28Z</time>
      </trkpt>
      <trkpt lat="39.86068" lon="3.041066">
        <ele>37.7</ele>
        <time>2016-04-18T18:23:29Z</time>
      </trkpt>
      <trkpt lat="39.860708" lon="3.041055">
        <ele>37.9</ele>
        <time>2016-04-18T18:23:30Z</time>
      </trkpt>
      <trkpt lat="39.860745" lon="3.041048">
        <ele>38.2</ele>
        <time>2016-04-18T18:23:31Z</time>
      </trkpt>
      <trkpt lat="39.860787" lon="3.041012">
        <ele>38.5</ele>
        <time>2016-04-18T18:23:33Z</time>
      </trkpt>
      <trkpt lat="39.860821" lon="3.040996">
        <ele>38.7</ele>
        <time>2016-04-18T18:23:34Z</time>
      </trkpt>
      <trkpt lat="39.860876" lon="3.040952">
        <ele>39.2</ele>
        <time>2016-04-18T18:23:36Z</time>
      </trkpt>
      <trkpt lat="39.860899" lon="3.040934">
        <ele>39.3</ele>
        <time>2016-04-18T18:23:37Z</time>
      </trkpt>
      <trkpt lat="39.860942" lon="3.040895">
        <ele>39.7</ele>
        <time>2016-04-18T18:23:39Z</time>
      </trkpt>
      <trkpt lat="39.860988" lon="3.040857">
        <ele>40.1</ele>
        <time>2016-04-18T18:23:41Z</time>
      </trkpt>
      <trkpt lat="39.861012" lon="3.040837">
        <ele>40.3</ele>
        <time>2016-04-18T18:23:42Z</time>
      </trkpt>
      <trkpt lat="39.861034" lon="3.040815">
        <ele>40.5</ele>
        <time>2016-04-18T18:23:43Z</time>
      </trkpt>
      <trkpt lat="39.861077" lon="3.040779">
        <ele>40.9</ele>
        <time>2016-04-18T18:23:45Z</time>
      </trkpt>
      <trkpt lat="39.861123" lon="3.040753">
        <ele>41.2</ele>
        <time>2016-04-18T18:23:47Z</time>
      </trkpt>
      <trkpt lat="39.86116" lon="3.040718">
        <ele>41.6</ele>
        <time>2016-04-18T18:23:49Z</time>
      </trkpt>
      <trkpt lat="39.8612" lon="3.040683">
        <ele>42</ele>
        <time>2016-04-18T18:23:51Z</time>
      </trkpt>
      <trkpt lat="39.86124" lon="3.040649">
        <ele>42.4</ele>
        <time>2016-04-18T18:23:53Z</time>
      </trkpt>
      <trkpt lat="39.861272" lon="3.040617">
        <ele>42.8</ele>
        <time>2016-04-18T18:23:55Z</time>
      </trkpt>
      <trkpt lat="39.861297" lon="3.040585">
        <ele>43.2</ele>
        <time>2016-04-18T18:23:57Z</time>
      </trkpt>
      <trkpt lat="39.861322" lon="3.04056">
        <ele>43.6</ele>
        <time>2016-04-18T18:23:59Z</time>
      </trkpt>
      <trkpt lat="39.861348" lon="3.04054">
        <ele>44</ele>
        <time>2016-04-18T18:24:01Z</time>
      </trkpt>
      <trkpt lat="39.861369" lon="3.040516">
        <ele>44.3</ele>
        <time>2016-04-18T18:24:03Z</time>
      </trkpt>
      <trkpt lat="39.861396" lon="3.040487">
        <ele>44.7</ele>
        <time>2016-04-18T18:24:05Z</time>
      </trkpt>
      <trkpt lat="39.861431" lon="3.040465">
        <ele>45.2</ele>
        <time>2016-04-18T18:24:07Z</time>
      </trkpt>
      <trkpt lat="39.861465" lon="3.040446">
        <ele>45.7</ele>
        <time>2016-04-18T18:24:09Z</time>
      </trkpt>
      <trkpt lat="39.861482" lon="3.040415">
        <ele>46.1</ele>
        <time>2016-04-18T18:24:11Z</time>
      </trkpt>
      <trkpt lat="39.861504" lon="3.04038">
        <ele>46.5</ele>
        <time>2016-04-18T18:24:13Z</time>
      </trkpt>
      <trkpt lat="39.861541" lon="3.040377">
        <ele>47</ele>
        <time>2016-04-18T18:24:16Z</time>
      </trkpt>
      <trkpt lat="39.861567" lon="3.040343">
        <ele>47.4</ele>
        <time>2016-04-18T18:24:18Z</time>
      </trkpt>
      <trkpt lat="39.861589" lon="3.040299">
        <ele>47.8</ele>
        <time>2016-04-18T18:24:20Z</time>
      </trkpt>
      <trkpt lat="39.861619" lon="3.040268">
        <ele>48.3</ele>
        <time>2016-04-18T18:24:22Z</time>
      </trkpt>
      <trkpt lat="39.861653" lon="3.040253">
        <ele>48.8</ele>
        <time>2016-04-18T18:24:24Z</time>
      </trkpt>
      <trkpt lat="39.861681" lon="3.040224">
        <ele>49.3</ele>
        <time>2016-04-18T18:24:26Z</time>
      </trkpt>
      <trkpt lat="39.861711" lon="3.040196">
        <ele>49.7</ele>
        <time>2016-04-18T18:24:28Z</time>
      </trkpt>
      <trkpt lat="39.861746" lon="3.040171">
        <ele>50.3</ele>
        <time>2016-04-18T18:24:30Z</time>
      </trkpt>
      <trkpt lat="39.86178" lon="3.040149">
        <ele>50.8</ele>
        <time>2016-04-18T18:24:32Z</time>
      </trkpt>
      <trkpt lat="39.861822" lon="3.04013">
        <ele>51.3</ele>
        <time>2016-04-18T18:24:34Z</time>
      </trkpt>
      <trkpt lat="39.861849" lon="3.040116">
        <ele>51.7</ele>
        <time>2016-04-18T18:24:35Z</time>
      </trkpt>
      <trkpt lat="39.861875" lon="3.040101">
        <ele>52.1</ele>
        <time>2016-04-18T18:24:36Z</time>
      </trkpt>
      <trkpt lat="39.861898" lon="3.040083">
        <ele>52.4</ele>
        <time>2016-04-18T18:24:37Z</time>
      </trkpt>
      <trkpt lat="39.861942" lon="3.040047">
        <ele>53.1</ele>
        <time>2016-04-18T18:24:39Z</time>
      </trkpt>
      <trkpt lat="39.861986" lon="3.040012">
        <ele>53.7</ele>
        <time>2016-04-18T18:24:41Z</time>
      </trkpt>
      <trkpt lat="39.86203" lon="3.039978">
        <ele>54.4</ele>
        <time>2016-04-18T18:24:43Z</time>
      </trkpt>
      <trkpt lat="39.862075" lon="3.039948">
        <ele>55</ele>
        <time>2016-04-18T18:24:45Z</time>
      </trkpt>
      <trkpt lat="39.862121" lon="3.03992">
        <ele>55.6</ele>
        <time>2016-04-18T18:24:47Z</time>
      </trkpt>
      <trkpt lat="39.862171" lon="3.039901">
        <ele>56.2</ele>
        <time>2016-04-18T18:24:49Z</time>
      </trkpt>
      <trkpt lat="39.8622" lon="3.039899">
        <ele>56.6</ele>
        <time>2016-04-18T18:24:50Z</time>
      </trkpt>
      <trkpt lat="39.862229" lon="3.039904">
        <ele>56.9</ele>
        <time>2016-04-18T18:24:51Z</time>
      </trkpt>
      <trkpt lat="39.862266" lon="3.039918">
        <ele>57.2</ele>
        <time>2016-04-18T18:24:52Z</time>
      </trkpt>
      <trkpt lat="39.862309" lon="3.039949">
        <ele>57.5</ele>
        <time>2016-04-18T18:24:53Z</time>
      </trkpt>
      <trkpt lat="39.862358" lon="3.040003">
        <ele>57.8</ele>
        <time>2016-04-18T18:24:54Z</time>
      </trkpt>
      <trkpt lat="39.8624" lon="3.040043">
        <ele>58</ele>
        <time>2016-04-18T18:24:55Z</time>
      </trkpt>
      <trkpt lat="39.862454" lon="3.040088">
        <ele>58.2</ele>
        <time>2016-04-18T18:24:56Z</time>
      </trkpt>
      <trkpt lat="39.862513" lon="3.040139">
        <ele>58.4</ele>
        <time>2016-04-18T18:24:57Z</time>
      </trkpt>
      <trkpt lat="39.862573" lon="3.040185">
        <ele>58.6</ele>
        <time>2016-04-18T18:24:58Z</time>
      </trkpt>
      <trkpt lat="39.862633" lon="3.040231">
        <ele>58.8</ele>
        <time>2016-04-18T18:24:59Z</time>
      </trkpt>
      <trkpt lat="39.862697" lon="3.040274">
        <ele>58.9</ele>
        <time>2016-04-18T18:25:00Z</time>
      </trkpt>
      <trkpt lat="39.862761" lon="3.04032">
        <ele>59</ele>
        <time>2016-04-18T18:25:01Z</time>
      </trkpt>
      <trkpt lat="39.862826" lon="3.04037">
        <ele>58.9</ele>
        <time>2016-04-18T18:25:02Z</time>
      </trkpt>
      <trkpt lat="39.862896" lon="3.040427">
        <ele>58.8</ele>
        <time>2016-04-18T18:25:03Z</time>
      </trkpt>
      <trkpt lat="39.862964" lon="3.040485">
        <ele>58.1</ele>
        <time>2016-04-18T18:25:04Z</time>
      </trkpt>
      <trkpt lat="39.863037" lon="3.040565">
        <ele>57</ele>
        <time>2016-04-18T18:25:05Z</time>
      </trkpt>
      <trkpt lat="39.863115" lon="3.040641">
        <ele>55.9</ele>
        <time>2016-04-18T18:25:06Z</time>
      </trkpt>
      <trkpt lat="39.863186" lon="3.040712">
        <ele>55</ele>
        <time>2016-04-18T18:25:07Z</time>
      </trkpt>
      <trkpt lat="39.86327" lon="3.04078">
        <ele>54</ele>
        <time>2016-04-18T18:25:08Z</time>
      </trkpt>
      <trkpt lat="39.863363" lon="3.040837">
        <ele>53.1</ele>
        <time>2016-04-18T18:25:09Z</time>
      </trkpt>
      <trkpt lat="39.863447" lon="3.040914">
        <ele>52.1</ele>
        <time>2016-04-18T18:25:10Z</time>
      </trkpt>
      <trkpt lat="39.86353" lon="3.040995">
        <ele>51.1</ele>
        <time>2016-04-18T18:25:11Z</time>
      </trkpt>
      <trkpt lat="39.863612" lon="3.041072">
        <ele>50.1</ele>
        <time>2016-04-18T18:25:12Z</time>
      </trkpt>
      <trkpt lat="39.863695" lon="3.041137">
        <ele>49.2</ele>
        <time>2016-04-18T18:25:13Z</time>
      </trkpt>
      <trkpt lat="39.863781" lon="3.041219">
        <ele>48.1</ele>
        <time>2016-04-18T18:25:14Z</time>
      </trkpt>
      <trkpt lat="39.863861" lon="3.041284">
        <ele>47.3</ele>
        <time>2016-04-18T18:25:15Z</time>
      </trkpt>
      <trkpt lat="39.863945" lon="3.041354">
        <ele>46.7</ele>
        <time>2016-04-18T18:25:16Z</time>
      </trkpt>
      <trkpt lat="39.864026" lon="3.041424">
        <ele>46</ele>
        <time>2016-04-18T18:25:17Z</time>
      </trkpt>
      <trkpt lat="39.864113" lon="3.041483">
        <ele>45.5</ele>
        <time>2016-04-18T18:25:18Z</time>
      </trkpt>
      <trkpt lat="39.864198" lon="3.041539">
        <ele>45</ele>
        <time>2016-04-18T18:25:19Z</time>
      </trkpt>
      <trkpt lat="39.864276" lon="3.041603">
        <ele>44.6</ele>
        <time>2016-04-18T18:25:20Z</time>
      </trkpt>
      <trkpt lat="39.864348" lon="3.041677">
        <ele>44.2</ele>
        <time>2016-04-18T18:25:21Z</time>
      </trkpt>
      <trkpt lat="39.864424" lon="3.041745">
        <ele>43.8</ele>
        <time>2016-04-18T18:25:22Z</time>
      </trkpt>
      <trkpt lat="39.864497" lon="3.041808">
        <ele>43.5</ele>
        <time>2016-04-18T18:25:23Z</time>
      </trkpt>
      <trkpt lat="39.864577" lon="3.041855">
        <ele>43.3</ele>
        <time>2016-04-18T18:25:24Z</time>
      </trkpt>
      <trkpt lat="39.864649" lon="3.041919">
        <ele>43.1</ele>
        <time>2016-04-18T18:25:25Z</time>
      </trkpt>
      <trkpt lat="39.864739" lon="3.041998">
        <ele>42.9</ele>
        <time>2016-04-18T18:25:26Z</time>
      </trkpt>
      <trkpt lat="39.864821" lon="3.042054">
        <ele>42.7</ele>
        <time>2016-04-18T18:25:27Z</time>
      </trkpt>
      <trkpt lat="39.864911" lon="3.042094">
        <ele>42.6</ele>
        <time>2016-04-18T18:25:28Z</time>
      </trkpt>
      <trkpt lat="39.86499" lon="3.042134">
        <ele>42.3</ele>
        <time>2016-04-18T18:25:29Z</time>
      </trkpt>
      <trkpt lat="39.865074" lon="3.042177">
        <ele>42.1</ele>
        <time>2016-04-18T18:25:30Z</time>
      </trkpt>
      <trkpt lat="39.865147" lon="3.042223">
        <ele>41.8</ele>
        <time>2016-04-18T18:25:31Z</time>
      </trkpt>
      <trkpt lat="39.865215" lon="3.042265">
        <ele>41.6</ele>
        <time>2016-04-18T18:25:32Z</time>
      </trkpt>
      <trkpt lat="39.865261" lon="3.042291">
        <ele>41.4</ele>
        <time>2016-04-18T18:25:33Z</time>
      </trkpt>
      <trkpt lat="39.865313" lon="3.042316">
        <ele>41.3</ele>
        <time>2016-04-18T18:25:34Z</time>
      </trkpt>
      <trkpt lat="39.865368" lon="3.042361">
        <ele>41.1</ele>
        <time>2016-04-18T18:25:36Z</time>
      </trkpt>
      <trkpt lat="39.865404" lon="3.04238">
        <ele>40.9</ele>
        <time>2016-04-18T18:25:37Z</time>
      </trkpt>
      <trkpt lat="39.86546" lon="3.042404">
        <ele>40.7</ele>
        <time>2016-04-18T18:25:38Z</time>
      </trkpt>
      <trkpt lat="39.865507" lon="3.042444">
        <ele>40.4</ele>
        <time>2016-04-18T18:25:39Z</time>
      </trkpt>
      <trkpt lat="39.865557" lon="3.042478">
        <ele>40.1</ele>
        <time>2016-04-18T18:25:40Z</time>
      </trkpt>
      <trkpt lat="39.865615" lon="3.04251">
        <ele>39.7</ele>
        <time>2016-04-18T18:25:41Z</time>
      </trkpt>
      <trkpt lat="39.865666" lon="3.042563">
        <ele>39.3</ele>
        <time>2016-04-18T18:25:42Z</time>
      </trkpt>
      <trkpt lat="39.865727" lon="3.042601">
        <ele>38.9</ele>
        <time>2016-04-18T18:25:43Z</time>
      </trkpt>
      <trkpt lat="39.865788" lon="3.042636">
        <ele>38.5</ele>
        <time>2016-04-18T18:25:44Z</time>
      </trkpt>
      <trkpt lat="39.865848" lon="3.042672">
        <ele>38.1</ele>
        <time>2016-04-18T18:25:45Z</time>
      </trkpt>
      <trkpt lat="39.865924" lon="3.042717">
        <ele>37.6</ele>
        <time>2016-04-18T18:25:46Z</time>
      </trkpt>
      <trkpt lat="39.865978" lon="3.042751">
        <ele>37.2</ele>
        <time>2016-04-18T18:25:47Z</time>
      </trkpt>
      <trkpt lat="39.866051" lon="3.042799">
        <ele>36.6</ele>
        <time>2016-04-18T18:25:48Z</time>
      </trkpt>
      <trkpt lat="39.866098" lon="3.042857">
        <ele>36.1</ele>
        <time>2016-04-18T18:25:49Z</time>
      </trkpt>
      <trkpt lat="39.866126" lon="3.042927">
        <ele>35.6</ele>
        <time>2016-04-18T18:25:50Z</time>
      </trkpt>
      <trkpt lat="39.866159" lon="3.043013">
        <ele>35.3</ele>
        <time>2016-04-18T18:25:51Z</time>
      </trkpt>
      <trkpt lat="39.866179" lon="3.043108">
        <ele>35.1</ele>
        <time>2016-04-18T18:25:52Z</time>
      </trkpt>
      <trkpt lat="39.8662" lon="3.04321">
        <ele>34.9</ele>
        <time>2016-04-18T18:25:53Z</time>
      </trkpt>
      <trkpt lat="39.866221" lon="3.043302">
        <ele>34.7</ele>
        <time>2016-04-18T18:25:54Z</time>
      </trkpt>
      <trkpt lat="39.866287" lon="3.043363">
        <ele>34.3</ele>
        <time>2016-04-18T18:25:55Z</time>
      </trkpt>
      <trkpt lat="39.866338" lon="3.043426">
        <ele>34.1</ele>
        <time>2016-04-18T18:25:56Z</time>
      </trkpt>
      <trkpt lat="39.866402" lon="3.043471">
        <ele>33.8</ele>
        <time>2016-04-18T18:25:57Z</time>
      </trkpt>
      <trkpt lat="39.866457" lon="3.043524">
        <ele>33.5</ele>
        <time>2016-04-18T18:25:58Z</time>
      </trkpt>
      <trkpt lat="39.866511" lon="3.043579">
        <ele>33.1</ele>
        <time>2016-04-18T18:25:59Z</time>
      </trkpt>
      <trkpt lat="39.866562" lon="3.04364">
        <ele>32.8</ele>
        <time>2016-04-18T18:26:00Z</time>
      </trkpt>
      <trkpt lat="39.866616" lon="3.043699">
        <ele>32.4</ele>
        <time>2016-04-18T18:26:01Z</time>
      </trkpt>
      <trkpt lat="39.866671" lon="3.043752">
        <ele>32</ele>
        <time>2016-04-18T18:26:02Z</time>
      </trkpt>
      <trkpt lat="39.866716" lon="3.043796">
        <ele>32.1</ele>
        <time>2016-04-18T18:26:03Z</time>
      </trkpt>
      <trkpt lat="39.866766" lon="3.043836">
        <ele>32.2</ele>
        <time>2016-04-18T18:26:04Z</time>
      </trkpt>
      <trkpt lat="39.866826" lon="3.043895">
        <ele>32.3</ele>
        <time>2016-04-18T18:26:05Z</time>
      </trkpt>
      <trkpt lat="39.86688" lon="3.043953">
        <ele>32.5</ele>
        <time>2016-04-18T18:26:06Z</time>
      </trkpt>
      <trkpt lat="39.866935" lon="3.044006">
        <ele>32.6</ele>
        <time>2016-04-18T18:26:07Z</time>
      </trkpt>
      <trkpt lat="39.866979" lon="3.044059">
        <ele>32.8</ele>
        <time>2016-04-18T18:26:08Z</time>
      </trkpt>
      <trkpt lat="39.867021" lon="3.044107">
        <ele>32.9</ele>
        <time>2016-04-18T18:26:09Z</time>
      </trkpt>
      <trkpt lat="39.867068" lon="3.044156">
        <ele>33</ele>
        <time>2016-04-18T18:26:10Z</time>
      </trkpt>
      <trkpt lat="39.867125" lon="3.044216">
        <ele>33.2</ele>
        <time>2016-04-18T18:26:11Z</time>
      </trkpt>
      <trkpt lat="39.867173" lon="3.044262">
        <ele>33.2</ele>
        <time>2016-04-18T18:26:12Z</time>
      </trkpt>
      <trkpt lat="39.867219" lon="3.044312">
        <ele>33.3</ele>
        <time>2016-04-18T18:26:13Z</time>
      </trkpt>
      <trkpt lat="39.867268" lon="3.044362">
        <ele>33.4</ele>
        <time>2016-04-18T18:26:14Z</time>
      </trkpt>
      <trkpt lat="39.867323" lon="3.044415">
        <ele>33.4</ele>
        <time>2016-04-18T18:26:15Z</time>
      </trkpt>
      <trkpt lat="39.867378" lon="3.044473">
        <ele>33.3</ele>
        <time>2016-04-18T18:26:16Z</time>
      </trkpt>
      <trkpt lat="39.867433" lon="3.044531">
        <ele>33.2</ele>
        <time>2016-04-18T18:26:17Z</time>
      </trkpt>
      <trkpt lat="39.867486" lon="3.04459">
        <ele>33.2</ele>
        <time>2016-04-18T18:26:18Z</time>
      </trkpt>
      <trkpt lat="39.867541" lon="3.044675">
        <ele>33.5</ele>
        <time>2016-04-18T18:26:19Z</time>
      </trkpt>
      <trkpt lat="39.867594" lon="3.044736">
        <ele>33.6</ele>
        <time>2016-04-18T18:26:20Z</time>
      </trkpt>
      <trkpt lat="39.867655" lon="3.044791">
        <ele>33.6</ele>
        <time>2016-04-18T18:26:21Z</time>
      </trkpt>
      <trkpt lat="39.867711" lon="3.044847">
        <ele>33.6</ele>
        <time>2016-04-18T18:26:22Z</time>
      </trkpt>
      <trkpt lat="39.867762" lon="3.044905">
        <ele>33.6</ele>
        <time>2016-04-18T18:26:23Z</time>
      </trkpt>
      <trkpt lat="39.867814" lon="3.04495">
        <ele>33.5</ele>
        <time>2016-04-18T18:26:24Z</time>
      </trkpt>
      <trkpt lat="39.867857" lon="3.045002">
        <ele>33.6</ele>
        <time>2016-04-18T18:26:25Z</time>
      </trkpt>
      <trkpt lat="39.867901" lon="3.045069">
        <ele>33.6</ele>
        <time>2016-04-18T18:26:26Z</time>
      </trkpt>
      <trkpt lat="39.867948" lon="3.045106">
        <ele>33.5</ele>
        <time>2016-04-18T18:26:27Z</time>
      </trkpt>
      <trkpt lat="39.867999" lon="3.045154">
        <ele>33.5</ele>
        <time>2016-04-18T18:26:28Z</time>
      </trkpt>
      <trkpt lat="39.86806" lon="3.04521">
        <ele>33.3</ele>
        <time>2016-04-18T18:26:29Z</time>
      </trkpt>
      <trkpt lat="39.868102" lon="3.04527">
        <ele>33.4</ele>
        <time>2016-04-18T18:26:30Z</time>
      </trkpt>
      <trkpt lat="39.86815" lon="3.04535">
        <ele>33.4</ele>
        <time>2016-04-18T18:26:31Z</time>
      </trkpt>
      <trkpt lat="39.868203" lon="3.045406">
        <ele>33.2</ele>
        <time>2016-04-18T18:26:32Z</time>
      </trkpt>
      <trkpt lat="39.868263" lon="3.045478">
        <ele>33.1</ele>
        <time>2016-04-18T18:26:33Z</time>
      </trkpt>
      <trkpt lat="39.868319" lon="3.04557">
        <ele>33.1</ele>
        <time>2016-04-18T18:26:34Z</time>
      </trkpt>
      <trkpt lat="39.868379" lon="3.045655">
        <ele>32.9</ele>
        <time>2016-04-18T18:26:35Z</time>
      </trkpt>
      <trkpt lat="39.868431" lon="3.045716">
        <ele>32.7</ele>
        <time>2016-04-18T18:26:36Z</time>
      </trkpt>
      <trkpt lat="39.86848" lon="3.045775">
        <ele>32.4</ele>
        <time>2016-04-18T18:26:37Z</time>
      </trkpt>
      <trkpt lat="39.868533" lon="3.045801">
        <ele>31.9</ele>
        <time>2016-04-18T18:26:38Z</time>
      </trkpt>
      <trkpt lat="39.868583" lon="3.045841">
        <ele>31.5</ele>
        <time>2016-04-18T18:26:39Z</time>
      </trkpt>
      <trkpt lat="39.868631" lon="3.045932">
        <ele>31.4</ele>
        <time>2016-04-18T18:26:40Z</time>
      </trkpt>
      <trkpt lat="39.868674" lon="3.045991">
        <ele>31</ele>
        <time>2016-04-18T18:26:41Z</time>
      </trkpt>
      <trkpt lat="39.868721" lon="3.046058">
        <ele>30.7</ele>
        <time>2016-04-18T18:26:42Z</time>
      </trkpt>
      <trkpt lat="39.868771" lon="3.046139">
        <ele>30.4</ele>
        <time>2016-04-18T18:26:43Z</time>
      </trkpt>
      <trkpt lat="39.868816" lon="3.046208">
        <ele>30.3</ele>
        <time>2016-04-18T18:26:44Z</time>
      </trkpt>
      <trkpt lat="39.868848" lon="3.046276">
        <ele>30.2</ele>
        <time>2016-04-18T18:26:45Z</time>
      </trkpt>
      <trkpt lat="39.868886" lon="3.046349">
        <ele>30.1</ele>
        <time>2016-04-18T18:26:46Z</time>
      </trkpt>
      <trkpt lat="39.868922" lon="3.04644">
        <ele>30</ele>
        <time>2016-04-18T18:26:47Z</time>
      </trkpt>
      <trkpt lat="39.86896" lon="3.046512">
        <ele>29.9</ele>
        <time>2016-04-18T18:26:48Z</time>
      </trkpt>
      <trkpt lat="39.868994" lon="3.046593">
        <ele>29.8</ele>
        <time>2016-04-18T18:26:49Z</time>
      </trkpt>
      <trkpt lat="39.869022" lon="3.046652">
        <ele>29.7</ele>
        <time>2016-04-18T18:26:50Z</time>
      </trkpt>
      <trkpt lat="39.869063" lon="3.046711">
        <ele>29.5</ele>
        <time>2016-04-18T18:26:51Z</time>
      </trkpt>
      <trkpt lat="39.869093" lon="3.046763">
        <ele>29.3</ele>
        <time>2016-04-18T18:26:52Z</time>
      </trkpt>
      <trkpt lat="39.869134" lon="3.046791">
        <ele>29.1</ele>
        <time>2016-04-18T18:26:53Z</time>
      </trkpt>
      <trkpt lat="39.869193" lon="3.046829">
        <ele>28.7</ele>
        <time>2016-04-18T18:26:54Z</time>
      </trkpt>
      <trkpt lat="39.869257" lon="3.04682">
        <ele>28.1</ele>
        <time>2016-04-18T18:26:55Z</time>
      </trkpt>
      <trkpt lat="39.869329" lon="3.046772">
        <ele>27.4</ele>
        <time>2016-04-18T18:26:56Z</time>
      </trkpt>
      <trkpt lat="39.869389" lon="3.046727">
        <ele>26.8</ele>
        <time>2016-04-18T18:26:57Z</time>
      </trkpt>
      <trkpt lat="39.869437" lon="3.046669">
        <ele>26.2</ele>
        <time>2016-04-18T18:26:58Z</time>
      </trkpt>
      <trkpt lat="39.869507" lon="3.046634">
        <ele>25.6</ele>
        <time>2016-04-18T18:26:59Z</time>
      </trkpt>
      <trkpt lat="39.869571" lon="3.046584">
        <ele>24.9</ele>
        <time>2016-04-18T18:27:00Z</time>
      </trkpt>
      <trkpt lat="39.869646" lon="3.046537">
        <ele>24.4</ele>
        <time>2016-04-18T18:27:01Z</time>
      </trkpt>
      <trkpt lat="39.869718" lon="3.046496">
        <ele>24.1</ele>
        <time>2016-04-18T18:27:02Z</time>
      </trkpt>
      <trkpt lat="39.869785" lon="3.046466">
        <ele>23.7</ele>
        <time>2016-04-18T18:27:03Z</time>
      </trkpt>
      <trkpt lat="39.869848" lon="3.04648">
        <ele>23.5</ele>
        <time>2016-04-18T18:27:04Z</time>
      </trkpt>
      <trkpt lat="39.869893" lon="3.04652">
        <ele>23.4</ele>
        <time>2016-04-18T18:27:05Z</time>
      </trkpt>
      <trkpt lat="39.869947" lon="3.046558">
        <ele>23.3</ele>
        <time>2016-04-18T18:27:06Z</time>
      </trkpt>
      <trkpt lat="39.869987" lon="3.046628">
        <ele>23.2</ele>
        <time>2016-04-18T18:27:07Z</time>
      </trkpt>
      <trkpt lat="39.870048" lon="3.046685">
        <ele>23.1</ele>
        <time>2016-04-18T18:27:08Z</time>
      </trkpt>
      <trkpt lat="39.870114" lon="3.046732">
        <ele>22.9</ele>
        <time>2016-04-18T18:27:09Z</time>
      </trkpt>
      <trkpt lat="39.87018" lon="3.046793">
        <ele>22.7</ele>
        <time>2016-04-18T18:27:10Z</time>
      </trkpt>
      <trkpt lat="39.870239" lon="3.046856">
        <ele>22.5</ele>
        <time>2016-04-18T18:27:11Z</time>
      </trkpt>
      <trkpt lat="39.870294" lon="3.046922">
        <ele>22.4</ele>
        <time>2016-04-18T18:27:12Z</time>
      </trkpt>
      <trkpt lat="39.870347" lon="3.046994">
        <ele>22.2</ele>
        <time>2016-04-18T18:27:13Z</time>
      </trkpt>
      <trkpt lat="39.870398" lon="3.047076">
        <ele>22.1</ele>
        <time>2016-04-18T18:27:14Z</time>
      </trkpt>
      <trkpt lat="39.870446" lon="3.047141">
        <ele>22</ele>
        <time>2016-04-18T18:27:15Z</time>
      </trkpt>
      <trkpt lat="39.870486" lon="3.047207">
        <ele>22</ele>
        <time>2016-04-18T18:27:16Z</time>
      </trkpt>
      <trkpt lat="39.870527" lon="3.047287">
        <ele>22.1</ele>
        <time>2016-04-18T18:27:17Z</time>
      </trkpt>
      <trkpt lat="39.87057" lon="3.04738">
        <ele>22.1</ele>
        <time>2016-04-18T18:27:18Z</time>
      </trkpt>
      <trkpt lat="39.870603" lon="3.047453">
        <ele>22.1</ele>
        <time>2016-04-18T18:27:19Z</time>
      </trkpt>
      <trkpt lat="39.870637" lon="3.047542">
        <ele>22.2</ele>
        <time>2016-04-18T18:27:20Z</time>
      </trkpt>
      <trkpt lat="39.870672" lon="3.047623">
        <ele>22.2</ele>
        <time>2016-04-18T18:27:21Z</time>
      </trkpt>
      <trkpt lat="39.870705" lon="3.047705">
        <ele>22.2</ele>
        <time>2016-04-18T18:27:22Z</time>
      </trkpt>
      <trkpt lat="39.87074" lon="3.047783">
        <ele>22.2</ele>
        <time>2016-04-18T18:27:23Z</time>
      </trkpt>
      <trkpt lat="39.870779" lon="3.047856">
        <ele>22.1</ele>
        <time>2016-04-18T18:27:24Z</time>
      </trkpt>
      <trkpt lat="39.870822" lon="3.047936">
        <ele>22.1</ele>
        <time>2016-04-18T18:27:25Z</time>
      </trkpt>
      <trkpt lat="39.870856" lon="3.048051">
        <ele>22.1</ele>
        <time>2016-04-18T18:27:26Z</time>
      </trkpt>
      <trkpt lat="39.870897" lon="3.048126">
        <ele>21.9</ele>
        <time>2016-04-18T18:27:27Z</time>
      </trkpt>
      <trkpt lat="39.870934" lon="3.048202">
        <ele>21.9</ele>
        <time>2016-04-18T18:27:28Z</time>
      </trkpt>
      <trkpt lat="39.870979" lon="3.048271">
        <ele>21.7</ele>
        <time>2016-04-18T18:27:29Z</time>
      </trkpt>
      <trkpt lat="39.871008" lon="3.048339">
        <ele>21.7</ele>
        <time>2016-04-18T18:27:30Z</time>
      </trkpt>
      <trkpt lat="39.871042" lon="3.048413">
        <ele>21.6</ele>
        <time>2016-04-18T18:27:31Z</time>
      </trkpt>
      <trkpt lat="39.87105" lon="3.04851">
        <ele>21.7</ele>
        <time>2016-04-18T18:27:32Z</time>
      </trkpt>
      <trkpt lat="39.871079" lon="3.048631">
        <ele>21.7</ele>
        <time>2016-04-18T18:27:33Z</time>
      </trkpt>
      <trkpt lat="39.871104" lon="3.048723">
        <ele>21.7</ele>
        <time>2016-04-18T18:27:34Z</time>
      </trkpt>
      <trkpt lat="39.871126" lon="3.048848">
        <ele>21.3</ele>
        <time>2016-04-18T18:27:35Z</time>
      </trkpt>
      <trkpt lat="39.87114" lon="3.048944">
        <ele>21</ele>
        <time>2016-04-18T18:27:36Z</time>
      </trkpt>
      <trkpt lat="39.871147" lon="3.049055">
        <ele>20.7</ele>
        <time>2016-04-18T18:27:37Z</time>
      </trkpt>
      <trkpt lat="39.871163" lon="3.049162">
        <ele>20.4</ele>
        <time>2016-04-18T18:27:38Z</time>
      </trkpt>
      <trkpt lat="39.871196" lon="3.049259">
        <ele>20</ele>
        <time>2016-04-18T18:27:39Z</time>
      </trkpt>
      <trkpt lat="39.871208" lon="3.04935">
        <ele>19.7</ele>
        <time>2016-04-18T18:27:40Z</time>
      </trkpt>
      <trkpt lat="39.871225" lon="3.049447">
        <ele>19.4</ele>
        <time>2016-04-18T18:27:41Z</time>
      </trkpt>
      <trkpt lat="39.87122" lon="3.049512">
        <ele>19.3</ele>
        <time>2016-04-18T18:27:42Z</time>
      </trkpt>
      <trkpt lat="39.871218" lon="3.049588">
        <ele>19.1</ele>
        <time>2016-04-18T18:27:43Z</time>
      </trkpt>
      <trkpt lat="39.871263" lon="3.049625">
        <ele>18.8</ele>
        <time>2016-04-18T18:27:44Z</time>
      </trkpt>
      <trkpt lat="39.871309" lon="3.049652">
        <ele>18.5</ele>
        <time>2016-04-18T18:27:45Z</time>
      </trkpt>
      <trkpt lat="39.871382" lon="3.049664">
        <ele>18</ele>
        <time>2016-04-18T18:27:46Z</time>
      </trkpt>
      <trkpt lat="39.871457" lon="3.049648">
        <ele>17.6</ele>
        <time>2016-04-18T18:27:47Z</time>
      </trkpt>
      <trkpt lat="39.871534" lon="3.049658">
        <ele>17.2</ele>
        <time>2016-04-18T18:27:48Z</time>
      </trkpt>
      <trkpt lat="39.871605" lon="3.049656">
        <ele>16.8</ele>
        <time>2016-04-18T18:27:49Z</time>
      </trkpt>
      <trkpt lat="39.871676" lon="3.049655">
        <ele>16.4</ele>
        <time>2016-04-18T18:27:50Z</time>
      </trkpt>
      <trkpt lat="39.871748" lon="3.049611">
        <ele>16</ele>
        <time>2016-04-18T18:27:51Z</time>
      </trkpt>
      <trkpt lat="39.871821" lon="3.049579">
        <ele>15.6</ele>
        <time>2016-04-18T18:27:52Z</time>
      </trkpt>
      <trkpt lat="39.871904" lon="3.049535">
        <ele>15.1</ele>
        <time>2016-04-18T18:27:53Z</time>
      </trkpt>
      <trkpt lat="39.871987" lon="3.049514">
        <ele>14.7</ele>
        <time>2016-04-18T18:27:54Z</time>
      </trkpt>
      <trkpt lat="39.872057" lon="3.049486">
        <ele>14.3</ele>
        <time>2016-04-18T18:27:55Z</time>
      </trkpt>
      <trkpt lat="39.872122" lon="3.049454">
        <ele>14.2</ele>
        <time>2016-04-18T18:27:56Z</time>
      </trkpt>
      <trkpt lat="39.872181" lon="3.049437">
        <ele>14.3</ele>
        <time>2016-04-18T18:27:57Z</time>
      </trkpt>
      <trkpt lat="39.872249" lon="3.049421">
        <ele>14.4</ele>
        <time>2016-04-18T18:27:58Z</time>
      </trkpt>
      <trkpt lat="39.872307" lon="3.049388">
        <ele>14.5</ele>
        <time>2016-04-18T18:27:59Z</time>
      </trkpt>
      <trkpt lat="39.872373" lon="3.049362">
        <ele>14.6</ele>
        <time>2016-04-18T18:28:00Z</time>
      </trkpt>
      <trkpt lat="39.87244" lon="3.049349">
        <ele>14.7</ele>
        <time>2016-04-18T18:28:01Z</time>
      </trkpt>
      <trkpt lat="39.872487" lon="3.049336">
        <ele>14.8</ele>
        <time>2016-04-18T18:28:02Z</time>
      </trkpt>
      <trkpt lat="39.872535" lon="3.049317">
        <ele>14.9</ele>
        <time>2016-04-18T18:28:03Z</time>
      </trkpt>
      <trkpt lat="39.872578" lon="3.049289">
        <ele>14.9</ele>
        <time>2016-04-18T18:28:04Z</time>
      </trkpt>
      <trkpt lat="39.872624" lon="3.049264">
        <ele>15</ele>
        <time>2016-04-18T18:28:05Z</time>
      </trkpt>
      <trkpt lat="39.872666" lon="3.049261">
        <ele>15.1</ele>
        <time>2016-04-18T18:28:06Z</time>
      </trkpt>
      <trkpt lat="39.872703" lon="3.049281">
        <ele>15.1</ele>
        <time>2016-04-18T18:28:07Z</time>
      </trkpt>
      <trkpt lat="39.872724" lon="3.049324">
        <ele>15.1</ele>
        <time>2016-04-18T18:28:08Z</time>
      </trkpt>
      <trkpt lat="39.872728" lon="3.049372">
        <ele>15</ele>
        <time>2016-04-18T18:28:09Z</time>
      </trkpt>
      <trkpt lat="39.872736" lon="3.049431">
        <ele>15</ele>
        <time>2016-04-18T18:28:10Z</time>
      </trkpt>
      <trkpt lat="39.872745" lon="3.049483">
        <ele>14.9</ele>
        <time>2016-04-18T18:28:11Z</time>
      </trkpt>
      <trkpt lat="39.872746" lon="3.049543">
        <ele>14.8</ele>
        <time>2016-04-18T18:28:12Z</time>
      </trkpt>
      <trkpt lat="39.872751" lon="3.049606">
        <ele>14.8</ele>
        <time>2016-04-18T18:28:13Z</time>
      </trkpt>
      <trkpt lat="39.87276" lon="3.049671">
        <ele>14.6</ele>
        <time>2016-04-18T18:28:14Z</time>
      </trkpt>
      <trkpt lat="39.872762" lon="3.049731">
        <ele>14.5</ele>
        <time>2016-04-18T18:28:15Z</time>
      </trkpt>
      <trkpt lat="39.872764" lon="3.049785">
        <ele>14.4</ele>
        <time>2016-04-18T18:28:16Z</time>
      </trkpt>
      <trkpt lat="39.872767" lon="3.049841">
        <ele>14.3</ele>
        <time>2016-04-18T18:28:17Z</time>
      </trkpt>
      <trkpt lat="39.872778" lon="3.049907">
        <ele>14.2</ele>
        <time>2016-04-18T18:28:18Z</time>
      </trkpt>
      <trkpt lat="39.872784" lon="3.04997">
        <ele>14.1</ele>
        <time>2016-04-18T18:28:19Z</time>
      </trkpt>
      <trkpt lat="39.872796" lon="3.05003">
        <ele>13.9</ele>
        <time>2016-04-18T18:28:20Z</time>
      </trkpt>
      <trkpt lat="39.872811" lon="3.050109">
        <ele>13.8</ele>
        <time>2016-04-18T18:28:21Z</time>
      </trkpt>
      <trkpt lat="39.87282" lon="3.050169">
        <ele>13.6</ele>
        <time>2016-04-18T18:28:22Z</time>
      </trkpt>
      <trkpt lat="39.872832" lon="3.050236">
        <ele>13.5</ele>
        <time>2016-04-18T18:28:23Z</time>
      </trkpt>
      <trkpt lat="39.872845" lon="3.050294">
        <ele>13.4</ele>
        <time>2016-04-18T18:28:24Z</time>
      </trkpt>
      <trkpt lat="39.872857" lon="3.050364">
        <ele>13.2</ele>
        <time>2016-04-18T18:28:25Z</time>
      </trkpt>
      <trkpt lat="39.872869" lon="3.05043">
        <ele>13.1</ele>
        <time>2016-04-18T18:28:26Z</time>
      </trkpt>
      <trkpt lat="39.872888" lon="3.050521">
        <ele>13.4</ele>
        <time>2016-04-18T18:28:27Z</time>
      </trkpt>
      <trkpt lat="39.872903" lon="3.050587">
        <ele>13.6</ele>
        <time>2016-04-18T18:28:28Z</time>
      </trkpt>
      <trkpt lat="39.872924" lon="3.050674">
        <ele>13.9</ele>
        <time>2016-04-18T18:28:29Z</time>
      </trkpt>
      <trkpt lat="39.872935" lon="3.050739">
        <ele>14.2</ele>
        <time>2016-04-18T18:28:30Z</time>
      </trkpt>
      <trkpt lat="39.872949" lon="3.050807">
        <ele>14.5</ele>
        <time>2016-04-18T18:28:31Z</time>
      </trkpt>
      <trkpt lat="39.87296" lon="3.050868">
        <ele>14.7</ele>
        <time>2016-04-18T18:28:32Z</time>
      </trkpt>
      <trkpt lat="39.872976" lon="3.050953">
        <ele>15</ele>
        <time>2016-04-18T18:28:33Z</time>
      </trkpt>
      <trkpt lat="39.872985" lon="3.051026">
        <ele>15.3</ele>
        <time>2016-04-18T18:28:34Z</time>
      </trkpt>
      <trkpt lat="39.872998" lon="3.051094">
        <ele>15.5</ele>
        <time>2016-04-18T18:28:35Z</time>
      </trkpt>
      <trkpt lat="39.873018" lon="3.051154">
        <ele>15.7</ele>
        <time>2016-04-18T18:28:36Z</time>
      </trkpt>
      <trkpt lat="39.873026" lon="3.051226">
        <ele>15.9</ele>
        <time>2016-04-18T18:28:37Z</time>
      </trkpt>
      <trkpt lat="39.873037" lon="3.051305">
        <ele>15.9</ele>
        <time>2016-04-18T18:28:38Z</time>
      </trkpt>
      <trkpt lat="39.873039" lon="3.05138">
        <ele>15.9</ele>
        <time>2016-04-18T18:28:39Z</time>
      </trkpt>
      <trkpt lat="39.87305" lon="3.051463">
        <ele>15.8</ele>
        <time>2016-04-18T18:28:40Z</time>
      </trkpt>
      <trkpt lat="39.873064" lon="3.05154">
        <ele>15.7</ele>
        <time>2016-04-18T18:28:41Z</time>
      </trkpt>
      <trkpt lat="39.873078" lon="3.051643">
        <ele>15.6</ele>
        <time>2016-04-18T18:28:42Z</time>
      </trkpt>
      <trkpt lat="39.873087" lon="3.051729">
        <ele>15.5</ele>
        <time>2016-04-18T18:28:43Z</time>
      </trkpt>
      <trkpt lat="39.873094" lon="3.051806">
        <ele>15.5</ele>
        <time>2016-04-18T18:28:44Z</time>
      </trkpt>
      <trkpt lat="39.873101" lon="3.051886">
        <ele>15.4</ele>
        <time>2016-04-18T18:28:45Z</time>
      </trkpt>
      <trkpt lat="39.873115" lon="3.051965">
        <ele>15.3</ele>
        <time>2016-04-18T18:28:46Z</time>
      </trkpt>
      <trkpt lat="39.873126" lon="3.052044">
        <ele>15.3</ele>
        <time>2016-04-18T18:28:47Z</time>
      </trkpt>
      <trkpt lat="39.873134" lon="3.052124">
        <ele>15.2</ele>
        <time>2016-04-18T18:28:48Z</time>
      </trkpt>
      <trkpt lat="39.873146" lon="3.052203">
        <ele>15.1</ele>
        <time>2016-04-18T18:28:49Z</time>
      </trkpt>
      <trkpt lat="39.873162" lon="3.052284">
        <ele>15</ele>
        <time>2016-04-18T18:28:50Z</time>
      </trkpt>
      <trkpt lat="39.87317" lon="3.05237">
        <ele>14.8</ele>
        <time>2016-04-18T18:28:51Z</time>
      </trkpt>
      <trkpt lat="39.873181" lon="3.052454">
        <ele>14.7</ele>
        <time>2016-04-18T18:28:52Z</time>
      </trkpt>
      <trkpt lat="39.873192" lon="3.052539">
        <ele>14.6</ele>
        <time>2016-04-18T18:28:53Z</time>
      </trkpt>
      <trkpt lat="39.873213" lon="3.052633">
        <ele>14.5</ele>
        <time>2016-04-18T18:28:54Z</time>
      </trkpt>
      <trkpt lat="39.87322" lon="3.052717">
        <ele>14.4</ele>
        <time>2016-04-18T18:28:55Z</time>
      </trkpt>
      <trkpt lat="39.873229" lon="3.052809">
        <ele>14.3</ele>
        <time>2016-04-18T18:28:56Z</time>
      </trkpt>
      <trkpt lat="39.873246" lon="3.052917">
        <ele>14.2</ele>
        <time>2016-04-18T18:28:57Z</time>
      </trkpt>
      <trkpt lat="39.873254" lon="3.05301">
        <ele>14.2</ele>
        <time>2016-04-18T18:28:58Z</time>
      </trkpt>
      <trkpt lat="39.873264" lon="3.053101">
        <ele>14.2</ele>
        <time>2016-04-18T18:28:59Z</time>
      </trkpt>
      <trkpt lat="39.873269" lon="3.053195">
        <ele>14.1</ele>
        <time>2016-04-18T18:29:00Z</time>
      </trkpt>
      <trkpt lat="39.87328" lon="3.053273">
        <ele>14.1</ele>
        <time>2016-04-18T18:29:01Z</time>
      </trkpt>
      <trkpt lat="39.873282" lon="3.053338">
        <ele>14.1</ele>
        <time>2016-04-18T18:29:02Z</time>
      </trkpt>
      <trkpt lat="39.873296" lon="3.053418">
        <ele>14.1</ele>
        <time>2016-04-18T18:29:03Z</time>
      </trkpt>
      <trkpt lat="39.873308" lon="3.0535">
        <ele>14.1</ele>
        <time>2016-04-18T18:29:04Z</time>
      </trkpt>
      <trkpt lat="39.873314" lon="3.053606">
        <ele>14</ele>
        <time>2016-04-18T18:29:05Z</time>
      </trkpt>
      <trkpt lat="39.873322" lon="3.053695">
        <ele>14</ele>
        <time>2016-04-18T18:29:06Z</time>
      </trkpt>
      <trkpt lat="39.873328" lon="3.053787">
        <ele>14</ele>
        <time>2016-04-18T18:29:07Z</time>
      </trkpt>
      <trkpt lat="39.873331" lon="3.053874">
        <ele>14</ele>
        <time>2016-04-18T18:29:08Z</time>
      </trkpt>
      <trkpt lat="39.873346" lon="3.053959">
        <ele>14</ele>
        <time>2016-04-18T18:29:09Z</time>
      </trkpt>
      <trkpt lat="39.873356" lon="3.054038">
        <ele>14.1</ele>
        <time>2016-04-18T18:29:10Z</time>
      </trkpt>
      <trkpt lat="39.873366" lon="3.05412">
        <ele>14.1</ele>
        <time>2016-04-18T18:29:11Z</time>
      </trkpt>
      <trkpt lat="39.873372" lon="3.0542">
        <ele>14.1</ele>
        <time>2016-04-18T18:29:12Z</time>
      </trkpt>
      <trkpt lat="39.873384" lon="3.054289">
        <ele>14.1</ele>
        <time>2016-04-18T18:29:13Z</time>
      </trkpt>
      <trkpt lat="39.873392" lon="3.054372">
        <ele>14.1</ele>
        <time>2016-04-18T18:29:14Z</time>
      </trkpt>
      <trkpt lat="39.873402" lon="3.054456">
        <ele>14.2</ele>
        <time>2016-04-18T18:29:15Z</time>
      </trkpt>
      <trkpt lat="39.873413" lon="3.054541">
        <ele>14.2</ele>
        <time>2016-04-18T18:29:16Z</time>
      </trkpt>
      <trkpt lat="39.873426" lon="3.054626">
        <ele>14.1</ele>
        <time>2016-04-18T18:29:17Z</time>
      </trkpt>
      <trkpt lat="39.873436" lon="3.054714">
        <ele>14</ele>
        <time>2016-04-18T18:29:18Z</time>
      </trkpt>
      <trkpt lat="39.873454" lon="3.054797">
        <ele>13.8</ele>
        <time>2016-04-18T18:29:19Z</time>
      </trkpt>
      <trkpt lat="39.873477" lon="3.054874">
        <ele>13.6</ele>
        <time>2016-04-18T18:29:20Z</time>
      </trkpt>
      <trkpt lat="39.873507" lon="3.054932">
        <ele>13.5</ele>
        <time>2016-04-18T18:29:21Z</time>
      </trkpt>
      <trkpt lat="39.873541" lon="3.054993">
        <ele>13.4</ele>
        <time>2016-04-18T18:29:22Z</time>
      </trkpt>
      <trkpt lat="39.873586" lon="3.055063">
        <ele>13.2</ele>
        <time>2016-04-18T18:29:23Z</time>
      </trkpt>
      <trkpt lat="39.873645" lon="3.055098">
        <ele>13.1</ele>
        <time>2016-04-18T18:29:24Z</time>
      </trkpt>
      <trkpt lat="39.873693" lon="3.055159">
        <ele>12.9</ele>
        <time>2016-04-18T18:29:25Z</time>
      </trkpt>
      <trkpt lat="39.873748" lon="3.055204">
        <ele>12.8</ele>
        <time>2016-04-18T18:29:26Z</time>
      </trkpt>
      <trkpt lat="39.87379" lon="3.05527">
        <ele>12.6</ele>
        <time>2016-04-18T18:29:27Z</time>
      </trkpt>
      <trkpt lat="39.873834" lon="3.055323">
        <ele>12.5</ele>
        <time>2016-04-18T18:29:28Z</time>
      </trkpt>
      <trkpt lat="39.873871" lon="3.055385">
        <ele>12.4</ele>
        <time>2016-04-18T18:29:29Z</time>
      </trkpt>
      <trkpt lat="39.873903" lon="3.055442">
        <ele>12.3</ele>
        <time>2016-04-18T18:29:30Z</time>
      </trkpt>
      <trkpt lat="39.873936" lon="3.055512">
        <ele>12.3</ele>
        <time>2016-04-18T18:29:31Z</time>
      </trkpt>
      <trkpt lat="39.873977" lon="3.055581">
        <ele>12.3</ele>
        <time>2016-04-18T18:29:32Z</time>
      </trkpt>
      <trkpt lat="39.874009" lon="3.055653">
        <ele>12.3</ele>
        <time>2016-04-18T18:29:33Z</time>
      </trkpt>
      <trkpt lat="39.874041" lon="3.05572">
        <ele>12.3</ele>
        <time>2016-04-18T18:29:34Z</time>
      </trkpt>
      <trkpt lat="39.874067" lon="3.055782">
        <ele>12.3</ele>
        <time>2016-04-18T18:29:35Z</time>
      </trkpt>
      <trkpt lat="39.874099" lon="3.055856">
        <ele>12.3</ele>
        <time>2016-04-18T18:29:36Z</time>
      </trkpt>
      <trkpt lat="39.87412" lon="3.055924">
        <ele>12.3</ele>
        <time>2016-04-18T18:29:37Z</time>
      </trkpt>
      <trkpt lat="39.874141" lon="3.055983">
        <ele>12.3</ele>
        <time>2016-04-18T18:29:38Z</time>
      </trkpt>
      <trkpt lat="39.87415" lon="3.056077">
        <ele>12.2</ele>
        <time>2016-04-18T18:29:39Z</time>
      </trkpt>
      <trkpt lat="39.874154" lon="3.05617">
        <ele>12.1</ele>
        <time>2016-04-18T18:29:40Z</time>
      </trkpt>
      <trkpt lat="39.874151" lon="3.056237">
        <ele>12</ele>
        <time>2016-04-18T18:29:41Z</time>
      </trkpt>
      <trkpt lat="39.874146" lon="3.056319">
        <ele>11.8</ele>
        <time>2016-04-18T18:29:42Z</time>
      </trkpt>
      <trkpt lat="39.874139" lon="3.056396">
        <ele>11.7</ele>
        <time>2016-04-18T18:29:43Z</time>
      </trkpt>
      <trkpt lat="39.874142" lon="3.056478">
        <ele>11.5</ele>
        <time>2016-04-18T18:29:44Z</time>
      </trkpt>
      <trkpt lat="39.874155" lon="3.05656">
        <ele>11.4</ele>
        <time>2016-04-18T18:29:45Z</time>
      </trkpt>
      <trkpt lat="39.874164" lon="3.056627">
        <ele>11.3</ele>
        <time>2016-04-18T18:29:46Z</time>
      </trkpt>
      <trkpt lat="39.874173" lon="3.056694">
        <ele>11.2</ele>
        <time>2016-04-18T18:29:47Z</time>
      </trkpt>
      <trkpt lat="39.874185" lon="3.056788">
        <ele>11.1</ele>
        <time>2016-04-18T18:29:48Z</time>
      </trkpt>
      <trkpt lat="39.874204" lon="3.05686">
        <ele>11</ele>
        <time>2016-04-18T18:29:49Z</time>
      </trkpt>
      <trkpt lat="39.874209" lon="3.056942">
        <ele>10.8</ele>
        <time>2016-04-18T18:29:50Z</time>
      </trkpt>
      <trkpt lat="39.874213" lon="3.057025">
        <ele>10.7</ele>
        <time>2016-04-18T18:29:51Z</time>
      </trkpt>
      <trkpt lat="39.874219" lon="3.057111">
        <ele>10.5</ele>
        <time>2016-04-18T18:29:52Z</time>
      </trkpt>
      <trkpt lat="39.874212" lon="3.057199">
        <ele>10.5</ele>
        <time>2016-04-18T18:29:53Z</time>
      </trkpt>
      <trkpt lat="39.874196" lon="3.057283">
        <ele>10.4</ele>
        <time>2016-04-18T18:29:54Z</time>
      </trkpt>
      <trkpt lat="39.874181" lon="3.057362">
        <ele>10.3</ele>
        <time>2016-04-18T18:29:55Z</time>
      </trkpt>
      <trkpt lat="39.874165" lon="3.057454">
        <ele>10.3</ele>
        <time>2016-04-18T18:29:56Z</time>
      </trkpt>
      <trkpt lat="39.874151" lon="3.057518">
        <ele>10.2</ele>
        <time>2016-04-18T18:29:57Z</time>
      </trkpt>
      <trkpt lat="39.874153" lon="3.057679">
        <ele>10.1</ele>
        <time>2016-04-18T18:29:59Z</time>
      </trkpt>
      <trkpt lat="39.874154" lon="3.057758">
        <ele>10.1</ele>
        <time>2016-04-18T18:30:00Z</time>
      </trkpt>
      <trkpt lat="39.874144" lon="3.057845">
        <ele>10</ele>
        <time>2016-04-18T18:30:01Z</time>
      </trkpt>
      <trkpt lat="39.874141" lon="3.057939">
        <ele>10</ele>
        <time>2016-04-18T18:30:02Z</time>
      </trkpt>
      <trkpt lat="39.874135" lon="3.05802">
        <ele>10.1</ele>
        <time>2016-04-18T18:30:03Z</time>
      </trkpt>
      <trkpt lat="39.874138" lon="3.058095">
        <ele>10.2</ele>
        <time>2016-04-18T18:30:04Z</time>
      </trkpt>
      <trkpt lat="39.874135" lon="3.058175">
        <ele>10.3</ele>
        <time>2016-04-18T18:30:05Z</time>
      </trkpt>
      <trkpt lat="39.874131" lon="3.058255">
        <ele>10.4</ele>
        <time>2016-04-18T18:30:06Z</time>
      </trkpt>
      <trkpt lat="39.874134" lon="3.058335">
        <ele>10.5</ele>
        <time>2016-04-18T18:30:07Z</time>
      </trkpt>
      <trkpt lat="39.874134" lon="3.058405">
        <ele>10.6</ele>
        <time>2016-04-18T18:30:08Z</time>
      </trkpt>
      <trkpt lat="39.87413" lon="3.058496">
        <ele>10.7</ele>
        <time>2016-04-18T18:30:09Z</time>
      </trkpt>
      <trkpt lat="39.87413" lon="3.05857">
        <ele>10.8</ele>
        <time>2016-04-18T18:30:10Z</time>
      </trkpt>
      <trkpt lat="39.874125" lon="3.058658">
        <ele>10.9</ele>
        <time>2016-04-18T18:30:11Z</time>
      </trkpt>
      <trkpt lat="39.874126" lon="3.058738">
        <ele>11</ele>
        <time>2016-04-18T18:30:12Z</time>
      </trkpt>
      <trkpt lat="39.874164" lon="3.058813">
        <ele>10.9</ele>
        <time>2016-04-18T18:30:13Z</time>
      </trkpt>
      <trkpt lat="39.874215" lon="3.058876">
        <ele>10.9</ele>
        <time>2016-04-18T18:30:14Z</time>
      </trkpt>
      <trkpt lat="39.874263" lon="3.058935">
        <ele>10.8</ele>
        <time>2016-04-18T18:30:15Z</time>
      </trkpt>
      <trkpt lat="39.874309" lon="3.058976">
        <ele>10.8</ele>
        <time>2016-04-18T18:30:16Z</time>
      </trkpt>
      <trkpt lat="39.874369" lon="3.059018">
        <ele>10.8</ele>
        <time>2016-04-18T18:30:17Z</time>
      </trkpt>
      <trkpt lat="39.874423" lon="3.059062">
        <ele>10.9</ele>
        <time>2016-04-18T18:30:18Z</time>
      </trkpt>
      <trkpt lat="39.874482" lon="3.059101">
        <ele>10.9</ele>
        <time>2016-04-18T18:30:19Z</time>
      </trkpt>
      <trkpt lat="39.874544" lon="3.059143">
        <ele>11</ele>
        <time>2016-04-18T18:30:20Z</time>
      </trkpt>
      <trkpt lat="39.874599" lon="3.059194">
        <ele>11</ele>
        <time>2016-04-18T18:30:21Z</time>
      </trkpt>
      <trkpt lat="39.874667" lon="3.059238">
        <ele>11</ele>
        <time>2016-04-18T18:30:22Z</time>
      </trkpt>
      <trkpt lat="39.874729" lon="3.059283">
        <ele>11</ele>
        <time>2016-04-18T18:30:23Z</time>
      </trkpt>
      <trkpt lat="39.874793" lon="3.059327">
        <ele>10.9</ele>
        <time>2016-04-18T18:30:24Z</time>
      </trkpt>
      <trkpt lat="39.874867" lon="3.059355">
        <ele>10.8</ele>
        <time>2016-04-18T18:30:25Z</time>
      </trkpt>
      <trkpt lat="39.874935" lon="3.059391">
        <ele>10.8</ele>
        <time>2016-04-18T18:30:26Z</time>
      </trkpt>
      <trkpt lat="39.875003" lon="3.059434">
        <ele>10.7</ele>
        <time>2016-04-18T18:30:27Z</time>
      </trkpt>
      <trkpt lat="39.875066" lon="3.059472">
        <ele>10.6</ele>
        <time>2016-04-18T18:30:28Z</time>
      </trkpt>
      <trkpt lat="39.875128" lon="3.059512">
        <ele>10.5</ele>
        <time>2016-04-18T18:30:29Z</time>
      </trkpt>
      <trkpt lat="39.875191" lon="3.059568">
        <ele>10.3</ele>
        <time>2016-04-18T18:30:30Z</time>
      </trkpt>
      <trkpt lat="39.875256" lon="3.059606">
        <ele>10.2</ele>
        <time>2016-04-18T18:30:31Z</time>
      </trkpt>
      <trkpt lat="39.875322" lon="3.059665">
        <ele>10.2</ele>
        <time>2016-04-18T18:30:32Z</time>
      </trkpt>
      <trkpt lat="39.875389" lon="3.059708">
        <ele>10.2</ele>
        <time>2016-04-18T18:30:33Z</time>
      </trkpt>
      <trkpt lat="39.875448" lon="3.059755">
        <ele>10.2</ele>
        <time>2016-04-18T18:30:34Z</time>
      </trkpt>
      <trkpt lat="39.875514" lon="3.059806">
        <ele>10.3</ele>
        <time>2016-04-18T18:30:35Z</time>
      </trkpt>
      <trkpt lat="39.875585" lon="3.059843">
        <ele>10.4</ele>
        <time>2016-04-18T18:30:36Z</time>
      </trkpt>
      <trkpt lat="39.875641" lon="3.059883">
        <ele>10.4</ele>
        <time>2016-04-18T18:30:37Z</time>
      </trkpt>
      <trkpt lat="39.875702" lon="3.059936">
        <ele>10.5</ele>
        <time>2016-04-18T18:30:38Z</time>
      </trkpt>
      <trkpt lat="39.875762" lon="3.059984">
        <ele>10.5</ele>
        <time>2016-04-18T18:30:39Z</time>
      </trkpt>
      <trkpt lat="39.875828" lon="3.060033">
        <ele>10.5</ele>
        <time>2016-04-18T18:30:40Z</time>
      </trkpt>
      <trkpt lat="39.875885" lon="3.060076">
        <ele>10.5</ele>
        <time>2016-04-18T18:30:41Z</time>
      </trkpt>
      <trkpt lat="39.875951" lon="3.060131">
        <ele>10.5</ele>
        <time>2016-04-18T18:30:42Z</time>
      </trkpt>
      <trkpt lat="39.876009" lon="3.060181">
        <ele>10.4</ele>
        <time>2016-04-18T18:30:43Z</time>
      </trkpt>
      <trkpt lat="39.876067" lon="3.060231">
        <ele>10.3</ele>
        <time>2016-04-18T18:30:44Z</time>
      </trkpt>
      <trkpt lat="39.876126" lon="3.060282">
        <ele>10.3</ele>
        <time>2016-04-18T18:30:45Z</time>
      </trkpt>
      <trkpt lat="39.876208" lon="3.060355">
        <ele>10.1</ele>
        <time>2016-04-18T18:30:46Z</time>
      </trkpt>
      <trkpt lat="39.876262" lon="3.060411">
        <ele>10</ele>
        <time>2016-04-18T18:30:47Z</time>
      </trkpt>
      <trkpt lat="39.876313" lon="3.060472">
        <ele>10</ele>
        <time>2016-04-18T18:30:48Z</time>
      </trkpt>
      <trkpt lat="39.876373" lon="3.060528">
        <ele>10</ele>
        <time>2016-04-18T18:30:49Z</time>
      </trkpt>
      <trkpt lat="39.876435" lon="3.06059">
        <ele>9.9</ele>
        <time>2016-04-18T18:30:50Z</time>
      </trkpt>
      <trkpt lat="39.876491" lon="3.060646">
        <ele>9.9</ele>
        <time>2016-04-18T18:30:51Z</time>
      </trkpt>
      <trkpt lat="39.876552" lon="3.060702">
        <ele>9.9</ele>
        <time>2016-04-18T18:30:52Z</time>
      </trkpt>
      <trkpt lat="39.876614" lon="3.06076">
        <ele>9.8</ele>
        <time>2016-04-18T18:30:53Z</time>
      </trkpt>
      <trkpt lat="39.876673" lon="3.060843">
        <ele>9.7</ele>
        <time>2016-04-18T18:30:54Z</time>
      </trkpt>
      <trkpt lat="39.87673" lon="3.060908">
        <ele>9.7</ele>
        <time>2016-04-18T18:30:55Z</time>
      </trkpt>
      <trkpt lat="39.876783" lon="3.060947">
        <ele>9.6</ele>
        <time>2016-04-18T18:30:56Z</time>
      </trkpt>
      <trkpt lat="39.876836" lon="3.060991">
        <ele>9.5</ele>
        <time>2016-04-18T18:30:57Z</time>
      </trkpt>
      <trkpt lat="39.876899" lon="3.061039">
        <ele>9.4</ele>
        <time>2016-04-18T18:30:58Z</time>
      </trkpt>
      <trkpt lat="39.876959" lon="3.061096">
        <ele>9.3</ele>
        <time>2016-04-18T18:30:59Z</time>
      </trkpt>
      <trkpt lat="39.877022" lon="3.061144">
        <ele>9.1</ele>
        <time>2016-04-18T18:31:00Z</time>
      </trkpt>
      <trkpt lat="39.877093" lon="3.061215">
        <ele>9</ele>
        <time>2016-04-18T18:31:01Z</time>
      </trkpt>
      <trkpt lat="39.87715" lon="3.061264">
        <ele>9.2</ele>
        <time>2016-04-18T18:31:02Z</time>
      </trkpt>
      <trkpt lat="39.877201" lon="3.061311">
        <ele>9.4</ele>
        <time>2016-04-18T18:31:03Z</time>
      </trkpt>
      <trkpt lat="39.877263" lon="3.061356">
        <ele>9.6</ele>
        <time>2016-04-18T18:31:04Z</time>
      </trkpt>
      <trkpt lat="39.877326" lon="3.061409">
        <ele>9.8</ele>
        <time>2016-04-18T18:31:05Z</time>
      </trkpt>
      <trkpt lat="39.87739" lon="3.061459">
        <ele>10</ele>
        <time>2016-04-18T18:31:06Z</time>
      </trkpt>
      <trkpt lat="39.877446" lon="3.061503">
        <ele>10.2</ele>
        <time>2016-04-18T18:31:07Z</time>
      </trkpt>
      <trkpt lat="39.877503" lon="3.061545">
        <ele>10.4</ele>
        <time>2016-04-18T18:31:08Z</time>
      </trkpt>
      <trkpt lat="39.880495" lon="3.062957">
        <ele>9.1</ele>
        <time>2016-04-18T18:31:51Z</time>
      </trkpt>
      <trkpt lat="39.880597" lon="3.062943">
        <ele>9.4</ele>
        <time>2016-04-18T18:31:53Z</time>
      </trkpt>
      <trkpt lat="39.880673" lon="3.062976">
        <ele>9.5</ele>
        <time>2016-04-18T18:31:54Z</time>
      </trkpt>
      <trkpt lat="39.88074" lon="3.063004">
        <ele>9.6</ele>
        <time>2016-04-18T18:31:55Z</time>
      </trkpt>
      <trkpt lat="39.880789" lon="3.063004">
        <ele>9.7</ele>
        <time>2016-04-18T18:31:56Z</time>
      </trkpt>
      <trkpt lat="39.88085" lon="3.063037">
        <ele>9.8</ele>
        <time>2016-04-18T18:31:57Z</time>
      </trkpt>
      <trkpt lat="39.880969" lon="3.063004">
        <ele>10.2</ele>
        <time>2016-04-18T18:31:59Z</time>
      </trkpt>
      <trkpt lat="39.881009" lon="3.062954">
        <ele>10.4</ele>
        <time>2016-04-18T18:32:00Z</time>
      </trkpt>
      <trkpt lat="39.881043" lon="3.062902">
        <ele>10.5</ele>
        <time>2016-04-18T18:32:01Z</time>
      </trkpt>
      <trkpt lat="39.881081" lon="3.062842">
        <ele>10.7</ele>
        <time>2016-04-18T18:32:02Z</time>
      </trkpt>
      <trkpt lat="39.881116" lon="3.062777">
        <ele>10.8</ele>
        <time>2016-04-18T18:32:03Z</time>
      </trkpt>
      <trkpt lat="39.881152" lon="3.062709">
        <ele>11</ele>
        <time>2016-04-18T18:32:04Z</time>
      </trkpt>
      <trkpt lat="39.881194" lon="3.062648">
        <ele>11.2</ele>
        <time>2016-04-18T18:32:05Z</time>
      </trkpt>
      <trkpt lat="39.881231" lon="3.06258">
        <ele>11.4</ele>
        <time>2016-04-18T18:32:06Z</time>
      </trkpt>
      <trkpt lat="39.881268" lon="3.062512">
        <ele>11.5</ele>
        <time>2016-04-18T18:32:07Z</time>
      </trkpt>
      <trkpt lat="39.881305" lon="3.062445">
        <ele>11.5</ele>
        <time>2016-04-18T18:32:08Z</time>
      </trkpt>
      <trkpt lat="39.88134" lon="3.062377">
        <ele>11.6</ele>
        <time>2016-04-18T18:32:09Z</time>
      </trkpt>
      <trkpt lat="39.881379" lon="3.06231">
        <ele>11.6</ele>
        <time>2016-04-18T18:32:10Z</time>
      </trkpt>
      <trkpt lat="39.881415" lon="3.062244">
        <ele>11.6</ele>
        <time>2016-04-18T18:32:11Z</time>
      </trkpt>
      <trkpt lat="39.881452" lon="3.062177">
        <ele>11.7</ele>
        <time>2016-04-18T18:32:12Z</time>
      </trkpt>
      <trkpt lat="39.881491" lon="3.062114">
        <ele>11.7</ele>
        <time>2016-04-18T18:32:13Z</time>
      </trkpt>
      <trkpt lat="39.881532" lon="3.062044">
        <ele>11.7</ele>
        <time>2016-04-18T18:32:14Z</time>
      </trkpt>
      <trkpt lat="39.881568" lon="3.061972">
        <ele>11.8</ele>
        <time>2016-04-18T18:32:15Z</time>
      </trkpt>
      <trkpt lat="39.881607" lon="3.061901">
        <ele>11.8</ele>
        <time>2016-04-18T18:32:16Z</time>
      </trkpt>
      <trkpt lat="39.881648" lon="3.061828">
        <ele>11.8</ele>
        <time>2016-04-18T18:32:17Z</time>
      </trkpt>
      <trkpt lat="39.881689" lon="3.061756">
        <ele>11.9</ele>
        <time>2016-04-18T18:32:18Z</time>
      </trkpt>
      <trkpt lat="39.881728" lon="3.061687">
        <ele>11.9</ele>
        <time>2016-04-18T18:32:19Z</time>
      </trkpt>
      <trkpt lat="39.88177" lon="3.061621">
        <ele>11.9</ele>
        <time>2016-04-18T18:32:20Z</time>
      </trkpt>
      <trkpt lat="39.88181" lon="3.061543">
        <ele>12</ele>
        <time>2016-04-18T18:32:21Z</time>
      </trkpt>
      <trkpt lat="39.881845" lon="3.061476">
        <ele>12</ele>
        <time>2016-04-18T18:32:22Z</time>
      </trkpt>
      <trkpt lat="39.881882" lon="3.06141">
        <ele>12</ele>
        <time>2016-04-18T18:32:23Z</time>
      </trkpt>
      <trkpt lat="39.881921" lon="3.061342">
        <ele>12.1</ele>
        <time>2016-04-18T18:32:24Z</time>
      </trkpt>
      <trkpt lat="39.881957" lon="3.061272">
        <ele>12.1</ele>
        <time>2016-04-18T18:32:25Z</time>
      </trkpt>
      <trkpt lat="39.881999" lon="3.061207">
        <ele>12.1</ele>
        <time>2016-04-18T18:32:26Z</time>
      </trkpt>
      <trkpt lat="39.882035" lon="3.06114">
        <ele>12.1</ele>
        <time>2016-04-18T18:32:27Z</time>
      </trkpt>
      <trkpt lat="39.88207" lon="3.061075">
        <ele>12</ele>
        <time>2016-04-18T18:32:28Z</time>
      </trkpt>
      <trkpt lat="39.882102" lon="3.061003">
        <ele>12</ele>
        <time>2016-04-18T18:32:29Z</time>
      </trkpt>
      <trkpt lat="39.882143" lon="3.060926">
        <ele>12</ele>
        <time>2016-04-18T18:32:30Z</time>
      </trkpt>
      <trkpt lat="39.882173" lon="3.060859">
        <ele>11.9</ele>
        <time>2016-04-18T18:32:31Z</time>
      </trkpt>
      <trkpt lat="39.882209" lon="3.06079">
        <ele>11.9</ele>
        <time>2016-04-18T18:32:32Z</time>
      </trkpt>
      <trkpt lat="39.882236" lon="3.060733">
        <ele>11.9</ele>
        <time>2016-04-18T18:32:33Z</time>
      </trkpt>
      <trkpt lat="39.882274" lon="3.060655">
        <ele>11.9</ele>
        <time>2016-04-18T18:32:34Z</time>
      </trkpt>
      <trkpt lat="39.882307" lon="3.060583">
        <ele>11.9</ele>
        <time>2016-04-18T18:32:35Z</time>
      </trkpt>
      <trkpt lat="39.882335" lon="3.060517">
        <ele>12</ele>
        <time>2016-04-18T18:32:36Z</time>
      </trkpt>
      <trkpt lat="39.882385" lon="3.060452">
        <ele>12</ele>
        <time>2016-04-18T18:32:37Z</time>
      </trkpt>
      <trkpt lat="39.882432" lon="3.060405">
        <ele>12</ele>
        <time>2016-04-18T18:32:38Z</time>
      </trkpt>
      <trkpt lat="39.882481" lon="3.060402">
        <ele>12</ele>
        <time>2016-04-18T18:32:39Z</time>
      </trkpt>
      <trkpt lat="39.88253" lon="3.060416">
        <ele>12</ele>
        <time>2016-04-18T18:32:40Z</time>
      </trkpt>
      <trkpt lat="39.882567" lon="3.060475">
        <ele>12</ele>
        <time>2016-04-18T18:32:41Z</time>
      </trkpt>
      <trkpt lat="39.882617" lon="3.060512">
        <ele>11.9</ele>
        <time>2016-04-18T18:32:42Z</time>
      </trkpt>
      <trkpt lat="39.882669" lon="3.060551">
        <ele>11.9</ele>
        <time>2016-04-18T18:32:43Z</time>
      </trkpt>
      <trkpt lat="39.882709" lon="3.060604">
        <ele>11.8</ele>
        <time>2016-04-18T18:32:44Z</time>
      </trkpt>
      <trkpt lat="39.882745" lon="3.060662">
        <ele>11.8</ele>
        <time>2016-04-18T18:32:45Z</time>
      </trkpt>
      <trkpt lat="39.882784" lon="3.060728">
        <ele>11.7</ele>
        <time>2016-04-18T18:32:46Z</time>
      </trkpt>
      <trkpt lat="39.882818" lon="3.060798">
        <ele>11.6</ele>
        <time>2016-04-18T18:32:47Z</time>
      </trkpt>
      <trkpt lat="39.882847" lon="3.060868">
        <ele>11.5</ele>
        <time>2016-04-18T18:32:48Z</time>
      </trkpt>
      <trkpt lat="39.882875" lon="3.060943">
        <ele>11.4</ele>
        <time>2016-04-18T18:32:49Z</time>
      </trkpt>
      <trkpt lat="39.882911" lon="3.061003">
        <ele>11.3</ele>
        <time>2016-04-18T18:32:50Z</time>
      </trkpt>
      <trkpt lat="39.882945" lon="3.061069">
        <ele>11.3</ele>
        <time>2016-04-18T18:32:51Z</time>
      </trkpt>
      <trkpt lat="39.882971" lon="3.061131">
        <ele>11.3</ele>
        <time>2016-04-18T18:32:52Z</time>
      </trkpt>
      <trkpt lat="39.883012" lon="3.061198">
        <ele>11.3</ele>
        <time>2016-04-18T18:32:53Z</time>
      </trkpt>
      <trkpt lat="39.883045" lon="3.061256">
        <ele>11.3</ele>
        <time>2016-04-18T18:32:54Z</time>
      </trkpt>
      <trkpt lat="39.88307" lon="3.061314">
        <ele>11.4</ele>
        <time>2016-04-18T18:32:55Z</time>
      </trkpt>
      <trkpt lat="39.883104" lon="3.06139">
        <ele>11.5</ele>
        <time>2016-04-18T18:32:56Z</time>
      </trkpt>
      <trkpt lat="39.883139" lon="3.061457">
        <ele>11.6</ele>
        <time>2016-04-18T18:32:57Z</time>
      </trkpt>
      <trkpt lat="39.883172" lon="3.061526">
        <ele>11.7</ele>
        <time>2016-04-18T18:32:58Z</time>
      </trkpt>
      <trkpt lat="39.883208" lon="3.061599">
        <ele>11.8</ele>
        <time>2016-04-18T18:32:59Z</time>
      </trkpt>
      <trkpt lat="39.883241" lon="3.061674">
        <ele>12</ele>
        <time>2016-04-18T18:33:00Z</time>
      </trkpt>
      <trkpt lat="39.883275" lon="3.061756">
        <ele>12.1</ele>
        <time>2016-04-18T18:33:01Z</time>
      </trkpt>
      <trkpt lat="39.883317" lon="3.061824">
        <ele>12.3</ele>
        <time>2016-04-18T18:33:02Z</time>
      </trkpt>
      <trkpt lat="39.883364" lon="3.061884">
        <ele>12.5</ele>
        <time>2016-04-18T18:33:03Z</time>
      </trkpt>
      <trkpt lat="39.883415" lon="3.061962">
        <ele>12.7</ele>
        <time>2016-04-18T18:33:04Z</time>
      </trkpt>
      <trkpt lat="39.883463" lon="3.062022">
        <ele>12.9</ele>
        <time>2016-04-18T18:33:05Z</time>
      </trkpt>
      <trkpt lat="39.88351" lon="3.062086">
        <ele>13.1</ele>
        <time>2016-04-18T18:33:06Z</time>
      </trkpt>
      <trkpt lat="39.883548" lon="3.062156">
        <ele>13.2</ele>
        <time>2016-04-18T18:33:07Z</time>
      </trkpt>
      <trkpt lat="39.883584" lon="3.062218">
        <ele>13.3</ele>
        <time>2016-04-18T18:33:08Z</time>
      </trkpt>
      <trkpt lat="39.883615" lon="3.06229">
        <ele>13.3</ele>
        <time>2016-04-18T18:33:09Z</time>
      </trkpt>
      <trkpt lat="39.883645" lon="3.062366">
        <ele>13.3</ele>
        <time>2016-04-18T18:33:10Z</time>
      </trkpt>
      <trkpt lat="39.883676" lon="3.062443">
        <ele>13.3</ele>
        <time>2016-04-18T18:33:11Z</time>
      </trkpt>
      <trkpt lat="39.883711" lon="3.062517">
        <ele>13.4</ele>
        <time>2016-04-18T18:33:12Z</time>
      </trkpt>
      <trkpt lat="39.883746" lon="3.062573">
        <ele>13.4</ele>
        <time>2016-04-18T18:33:13Z</time>
      </trkpt>
      <trkpt lat="39.883785" lon="3.062649">
        <ele>13.3</ele>
        <time>2016-04-18T18:33:14Z</time>
      </trkpt>
      <trkpt lat="39.883825" lon="3.062725">
        <ele>13.2</ele>
        <time>2016-04-18T18:33:15Z</time>
      </trkpt>
      <trkpt lat="39.883864" lon="3.062798">
        <ele>13.1</ele>
        <time>2016-04-18T18:33:16Z</time>
      </trkpt>
      <trkpt lat="39.883911" lon="3.062865">
        <ele>13.1</ele>
        <time>2016-04-18T18:33:17Z</time>
      </trkpt>
      <trkpt lat="39.883954" lon="3.062929">
        <ele>13</ele>
        <time>2016-04-18T18:33:18Z</time>
      </trkpt>
      <trkpt lat="39.883998" lon="3.063">
        <ele>12.8</ele>
        <time>2016-04-18T18:33:19Z</time>
      </trkpt>
      <trkpt lat="39.884034" lon="3.063053">
        <ele>12.7</ele>
        <time>2016-04-18T18:33:20Z</time>
      </trkpt>
      <trkpt lat="39.88406" lon="3.063121">
        <ele>12.5</ele>
        <time>2016-04-18T18:33:21Z</time>
      </trkpt>
      <trkpt lat="39.884083" lon="3.063206">
        <ele>12.2</ele>
        <time>2016-04-18T18:33:22Z</time>
      </trkpt>
      <trkpt lat="39.884101" lon="3.063297">
        <ele>12</ele>
        <time>2016-04-18T18:33:23Z</time>
      </trkpt>
      <trkpt lat="39.88412" lon="3.063386">
        <ele>11.7</ele>
        <time>2016-04-18T18:33:24Z</time>
      </trkpt>
      <trkpt lat="39.884135" lon="3.063485">
        <ele>11.4</ele>
        <time>2016-04-18T18:33:25Z</time>
      </trkpt>
      <trkpt lat="39.884148" lon="3.063578">
        <ele>11.1</ele>
        <time>2016-04-18T18:33:26Z</time>
      </trkpt>
      <trkpt lat="39.884167" lon="3.063666">
        <ele>10.8</ele>
        <time>2016-04-18T18:33:27Z</time>
      </trkpt>
      <trkpt lat="39.884187" lon="3.063751">
        <ele>10.4</ele>
        <time>2016-04-18T18:33:28Z</time>
      </trkpt>
      <trkpt lat="39.884221" lon="3.063835">
        <ele>10.3</ele>
        <time>2016-04-18T18:33:29Z</time>
      </trkpt>
      <trkpt lat="39.884253" lon="3.063919">
        <ele>10.2</ele>
        <time>2016-04-18T18:33:30Z</time>
      </trkpt>
      <trkpt lat="39.884293" lon="3.063996">
        <ele>10.1</ele>
        <time>2016-04-18T18:33:31Z</time>
      </trkpt>
      <trkpt lat="39.884343" lon="3.064081">
        <ele>10</ele>
        <time>2016-04-18T18:33:32Z</time>
      </trkpt>
      <trkpt lat="39.884393" lon="3.064163">
        <ele>10</ele>
        <time>2016-04-18T18:33:33Z</time>
      </trkpt>
      <trkpt lat="39.884436" lon="3.06424">
        <ele>9.9</ele>
        <time>2016-04-18T18:33:34Z</time>
      </trkpt>
      <trkpt lat="39.884478" lon="3.064324">
        <ele>9.9</ele>
        <time>2016-04-18T18:33:35Z</time>
      </trkpt>
      <trkpt lat="39.884523" lon="3.064406">
        <ele>9.9</ele>
        <time>2016-04-18T18:33:36Z</time>
      </trkpt>
      <trkpt lat="39.884573" lon="3.064485">
        <ele>9.9</ele>
        <time>2016-04-18T18:33:37Z</time>
      </trkpt>
      <trkpt lat="39.884618" lon="3.064566">
        <ele>10</ele>
        <time>2016-04-18T18:33:38Z</time>
      </trkpt>
      <trkpt lat="39.884666" lon="3.064648">
        <ele>10.1</ele>
        <time>2016-04-18T18:33:39Z</time>
      </trkpt>
      <trkpt lat="39.884713" lon="3.064731">
        <ele>10.1</ele>
        <time>2016-04-18T18:33:40Z</time>
      </trkpt>
      <trkpt lat="39.884761" lon="3.064816">
        <ele>10.2</ele>
        <time>2016-04-18T18:33:41Z</time>
      </trkpt>
      <trkpt lat="39.884806" lon="3.0649">
        <ele>10.2</ele>
        <time>2016-04-18T18:33:42Z</time>
      </trkpt>
      <trkpt lat="39.884849" lon="3.064989">
        <ele>10.2</ele>
        <time>2016-04-18T18:33:43Z</time>
      </trkpt>
      <trkpt lat="39.8849" lon="3.06511">
        <ele>10.1</ele>
        <time>2016-04-18T18:33:44Z</time>
      </trkpt>
      <trkpt lat="39.884949" lon="3.065192">
        <ele>10.1</ele>
        <time>2016-04-18T18:33:45Z</time>
      </trkpt>
      <trkpt lat="39.884999" lon="3.065274">
        <ele>10.1</ele>
        <time>2016-04-18T18:33:46Z</time>
      </trkpt>
      <trkpt lat="39.885045" lon="3.065361">
        <ele>10</ele>
        <time>2016-04-18T18:33:47Z</time>
      </trkpt>
      <trkpt lat="39.885094" lon="3.065442">
        <ele>10</ele>
        <time>2016-04-18T18:33:48Z</time>
      </trkpt>
      <trkpt lat="39.885139" lon="3.06552">
        <ele>10</ele>
        <time>2016-04-18T18:33:49Z</time>
      </trkpt>
      <trkpt lat="39.885185" lon="3.065593">
        <ele>10</ele>
        <time>2016-04-18T18:33:50Z</time>
      </trkpt>
      <trkpt lat="39.885237" lon="3.065659">
        <ele>10</ele>
        <time>2016-04-18T18:33:51Z</time>
      </trkpt>
      <trkpt lat="39.885288" lon="3.065743">
        <ele>10</ele>
        <time>2016-04-18T18:33:52Z</time>
      </trkpt>
      <trkpt lat="39.885328" lon="3.065819">
        <ele>10</ele>
        <time>2016-04-18T18:33:53Z</time>
      </trkpt>
      <trkpt lat="39.885376" lon="3.065897">
        <ele>10</ele>
        <time>2016-04-18T18:33:54Z</time>
      </trkpt>
      <trkpt lat="39.885425" lon="3.066025">
        <ele>10</ele>
        <time>2016-04-18T18:33:55Z</time>
      </trkpt>
      <trkpt lat="39.885471" lon="3.066105">
        <ele>10</ele>
        <time>2016-04-18T18:33:56Z</time>
      </trkpt>
      <trkpt lat="39.885508" lon="3.066177">
        <ele>10</ele>
        <time>2016-04-18T18:33:57Z</time>
      </trkpt>
      <trkpt lat="39.885552" lon="3.066265">
        <ele>10</ele>
        <time>2016-04-18T18:33:58Z</time>
      </trkpt>
      <trkpt lat="39.885595" lon="3.066341">
        <ele>9.9</ele>
        <time>2016-04-18T18:33:59Z</time>
      </trkpt>
      <trkpt lat="39.885629" lon="3.066405">
        <ele>9.9</ele>
        <time>2016-04-18T18:34:00Z</time>
      </trkpt>
      <trkpt lat="39.885673" lon="3.066491">
        <ele>9.8</ele>
        <time>2016-04-18T18:34:01Z</time>
      </trkpt>
      <trkpt lat="39.885716" lon="3.066567">
        <ele>9.8</ele>
        <time>2016-04-18T18:34:02Z</time>
      </trkpt>
      <trkpt lat="39.885758" lon="3.066646">
        <ele>9.7</ele>
        <time>2016-04-18T18:34:03Z</time>
      </trkpt>
      <trkpt lat="39.885804" lon="3.06671">
        <ele>9.7</ele>
        <time>2016-04-18T18:34:04Z</time>
      </trkpt>
      <trkpt lat="39.885833" lon="3.066886">
        <ele>9.6</ele>
        <time>2016-04-18T18:34:05Z</time>
      </trkpt>
      <trkpt lat="39.885882" lon="3.06696">
        <ele>9.6</ele>
        <time>2016-04-18T18:34:06Z</time>
      </trkpt>
      <trkpt lat="39.885926" lon="3.067034">
        <ele>9.6</ele>
        <time>2016-04-18T18:34:07Z</time>
      </trkpt>
      <trkpt lat="39.885967" lon="3.067079">
        <ele>9.7</ele>
        <time>2016-04-18T18:34:08Z</time>
      </trkpt>
      <trkpt lat="39.88601" lon="3.067153">
        <ele>9.6</ele>
        <time>2016-04-18T18:34:09Z</time>
      </trkpt>
      <trkpt lat="39.886058" lon="3.067228">
        <ele>9.5</ele>
        <time>2016-04-18T18:34:10Z</time>
      </trkpt>
      <trkpt lat="39.8861" lon="3.067301">
        <ele>9.3</ele>
        <time>2016-04-18T18:34:11Z</time>
      </trkpt>
      <trkpt lat="39.886152" lon="3.06738">
        <ele>9.2</ele>
        <time>2016-04-18T18:34:12Z</time>
      </trkpt>
      <trkpt lat="39.886193" lon="3.067455">
        <ele>9.1</ele>
        <time>2016-04-18T18:34:13Z</time>
      </trkpt>
      <trkpt lat="39.886235" lon="3.067535">
        <ele>8.9</ele>
        <time>2016-04-18T18:34:14Z</time>
      </trkpt>
      <trkpt lat="39.886276" lon="3.067609">
        <ele>8.9</ele>
        <time>2016-04-18T18:34:15Z</time>
      </trkpt>
      <trkpt lat="39.886315" lon="3.067683">
        <ele>8.9</ele>
        <time>2016-04-18T18:34:16Z</time>
      </trkpt>
      <trkpt lat="39.886358" lon="3.067752">
        <ele>8.9</ele>
        <time>2016-04-18T18:34:17Z</time>
      </trkpt>
      <trkpt lat="39.886411" lon="3.067828">
        <ele>9</ele>
        <time>2016-04-18T18:34:18Z</time>
      </trkpt>
      <trkpt lat="39.886454" lon="3.067902">
        <ele>9</ele>
        <time>2016-04-18T18:34:19Z</time>
      </trkpt>
      <trkpt lat="39.886495" lon="3.067945">
        <ele>9.1</ele>
        <time>2016-04-18T18:34:20Z</time>
      </trkpt>
      <trkpt lat="39.886537" lon="3.068022">
        <ele>9.1</ele>
        <time>2016-04-18T18:34:21Z</time>
      </trkpt>
      <trkpt lat="39.886582" lon="3.068087">
        <ele>9.1</ele>
        <time>2016-04-18T18:34:22Z</time>
      </trkpt>
      <trkpt lat="39.886623" lon="3.068164">
        <ele>9.1</ele>
        <time>2016-04-18T18:34:23Z</time>
      </trkpt>
      <trkpt lat="39.886669" lon="3.068262">
        <ele>9</ele>
        <time>2016-04-18T18:34:24Z</time>
      </trkpt>
      <trkpt lat="39.886717" lon="3.068334">
        <ele>8.9</ele>
        <time>2016-04-18T18:34:25Z</time>
      </trkpt>
      <trkpt lat="39.886761" lon="3.068407">
        <ele>8.8</ele>
        <time>2016-04-18T18:34:26Z</time>
      </trkpt>
      <trkpt lat="39.886797" lon="3.068454">
        <ele>8.7</ele>
        <time>2016-04-18T18:34:27Z</time>
      </trkpt>
      <trkpt lat="39.886842" lon="3.068522">
        <ele>8.6</ele>
        <time>2016-04-18T18:34:28Z</time>
      </trkpt>
      <trkpt lat="39.886884" lon="3.068588">
        <ele>8.4</ele>
        <time>2016-04-18T18:34:29Z</time>
      </trkpt>
      <trkpt lat="39.886935" lon="3.068668">
        <ele>8.2</ele>
        <time>2016-04-18T18:34:30Z</time>
      </trkpt>
      <trkpt lat="39.886978" lon="3.068753">
        <ele>7.9</ele>
        <time>2016-04-18T18:34:31Z</time>
      </trkpt>
      <trkpt lat="39.887018" lon="3.068842">
        <ele>7.7</ele>
        <time>2016-04-18T18:34:32Z</time>
      </trkpt>
      <trkpt lat="39.887062" lon="3.068929">
        <ele>7.6</ele>
        <time>2016-04-18T18:34:33Z</time>
      </trkpt>
      <trkpt lat="39.88711" lon="3.069011">
        <ele>7.4</ele>
        <time>2016-04-18T18:34:34Z</time>
      </trkpt>
      <trkpt lat="39.887156" lon="3.069091">
        <ele>7.1</ele>
        <time>2016-04-18T18:34:35Z</time>
      </trkpt>
      <trkpt lat="39.887201" lon="3.069177">
        <ele>6.9</ele>
        <time>2016-04-18T18:34:36Z</time>
      </trkpt>
      <trkpt lat="39.887247" lon="3.069268">
        <ele>6.6</ele>
        <time>2016-04-18T18:34:37Z</time>
      </trkpt>
      <trkpt lat="39.887287" lon="3.069334">
        <ele>6.4</ele>
        <time>2016-04-18T18:34:38Z</time>
      </trkpt>
      <trkpt lat="39.887334" lon="3.069423">
        <ele>6.1</ele>
        <time>2016-04-18T18:34:39Z</time>
      </trkpt>
      <trkpt lat="39.887378" lon="3.069492">
        <ele>5.9</ele>
        <time>2016-04-18T18:34:40Z</time>
      </trkpt>
      <trkpt lat="39.887419" lon="3.06957">
        <ele>5.6</ele>
        <time>2016-04-18T18:34:41Z</time>
      </trkpt>
      <trkpt lat="39.887465" lon="3.069646">
        <ele>5.4</ele>
        <time>2016-04-18T18:34:42Z</time>
      </trkpt>
      <trkpt lat="39.887512" lon="3.069718">
        <ele>5.2</ele>
        <time>2016-04-18T18:34:43Z</time>
      </trkpt>
      <trkpt lat="39.887553" lon="3.0698">
        <ele>5</ele>
        <time>2016-04-18T18:34:44Z</time>
      </trkpt>
      <trkpt lat="39.887598" lon="3.069879">
        <ele>4.8</ele>
        <time>2016-04-18T18:34:45Z</time>
      </trkpt>
      <trkpt lat="39.887642" lon="3.069958">
        <ele>4.6</ele>
        <time>2016-04-18T18:34:46Z</time>
      </trkpt>
      <trkpt lat="39.887677" lon="3.070038">
        <ele>4.4</ele>
        <time>2016-04-18T18:34:47Z</time>
      </trkpt>
      <trkpt lat="39.88772" lon="3.070116">
        <ele>4.1</ele>
        <time>2016-04-18T18:34:48Z</time>
      </trkpt>
      <trkpt lat="39.887764" lon="3.070193">
        <ele>3.9</ele>
        <time>2016-04-18T18:34:49Z</time>
      </trkpt>
      <trkpt lat="39.887808" lon="3.070256">
        <ele>3.6</ele>
        <time>2016-04-18T18:34:50Z</time>
      </trkpt>
      <trkpt lat="39.887853" lon="3.070334">
        <ele>3.3</ele>
        <time>2016-04-18T18:34:51Z</time>
      </trkpt>
      <trkpt lat="39.887894" lon="3.070402">
        <ele>3.1</ele>
        <time>2016-04-18T18:34:52Z</time>
      </trkpt>
      <trkpt lat="39.887943" lon="3.070477">
        <ele>3</ele>
        <time>2016-04-18T18:34:53Z</time>
      </trkpt>
      <trkpt lat="39.887985" lon="3.070565">
        <ele>3</ele>
        <time>2016-04-18T18:34:54Z</time>
      </trkpt>
      <trkpt lat="39.888027" lon="3.07064">
        <ele>3.1</ele>
        <time>2016-04-18T18:34:55Z</time>
      </trkpt>
      <trkpt lat="39.888063" lon="3.070743">
        <ele>3.1</ele>
        <time>2016-04-18T18:34:56Z</time>
      </trkpt>
      <trkpt lat="39.888104" lon="3.070821">
        <ele>3.2</ele>
        <time>2016-04-18T18:34:57Z</time>
      </trkpt>
      <trkpt lat="39.888145" lon="3.070898">
        <ele>3.3</ele>
        <time>2016-04-18T18:34:58Z</time>
      </trkpt>
      <trkpt lat="39.888188" lon="3.070964">
        <ele>3.4</ele>
        <time>2016-04-18T18:34:59Z</time>
      </trkpt>
      <trkpt lat="39.888234" lon="3.07103">
        <ele>3.6</ele>
        <time>2016-04-18T18:35:00Z</time>
      </trkpt>
      <trkpt lat="39.888275" lon="3.071102">
        <ele>3.7</ele>
        <time>2016-04-18T18:35:01Z</time>
      </trkpt>
      <trkpt lat="39.888318" lon="3.071185">
        <ele>3.9</ele>
        <time>2016-04-18T18:35:02Z</time>
      </trkpt>
      <trkpt lat="39.888355" lon="3.071259">
        <ele>4.1</ele>
        <time>2016-04-18T18:35:03Z</time>
      </trkpt>
      <trkpt lat="39.888407" lon="3.071341">
        <ele>4.2</ele>
        <time>2016-04-18T18:35:04Z</time>
      </trkpt>
      <trkpt lat="39.888444" lon="3.071417">
        <ele>4.3</ele>
        <time>2016-04-18T18:35:05Z</time>
      </trkpt>
      <trkpt lat="39.888487" lon="3.071492">
        <ele>4.4</ele>
        <time>2016-04-18T18:35:06Z</time>
      </trkpt>
      <trkpt lat="39.888531" lon="3.071555">
        <ele>4.5</ele>
        <time>2016-04-18T18:35:07Z</time>
      </trkpt>
      <trkpt lat="39.888572" lon="3.071628">
        <ele>4.6</ele>
        <time>2016-04-18T18:35:08Z</time>
      </trkpt>
      <trkpt lat="39.888609" lon="3.071713">
        <ele>4.7</ele>
        <time>2016-04-18T18:35:09Z</time>
      </trkpt>
      <trkpt lat="39.888648" lon="3.071781">
        <ele>4.8</ele>
        <time>2016-04-18T18:35:10Z</time>
      </trkpt>
      <trkpt lat="39.888694" lon="3.071855">
        <ele>4.9</ele>
        <time>2016-04-18T18:35:11Z</time>
      </trkpt>
      <trkpt lat="39.888734" lon="3.071926">
        <ele>5</ele>
        <time>2016-04-18T18:35:12Z</time>
      </trkpt>
      <trkpt lat="39.888776" lon="3.071975">
        <ele>5</ele>
        <time>2016-04-18T18:35:13Z</time>
      </trkpt>
      <trkpt lat="39.88882" lon="3.072046">
        <ele>5</ele>
        <time>2016-04-18T18:35:14Z</time>
      </trkpt>
      <trkpt lat="39.888861" lon="3.072119">
        <ele>4.9</ele>
        <time>2016-04-18T18:35:15Z</time>
      </trkpt>
      <trkpt lat="39.888907" lon="3.07218">
        <ele>4.7</ele>
        <time>2016-04-18T18:35:16Z</time>
      </trkpt>
      <trkpt lat="39.888957" lon="3.07225">
        <ele>4.5</ele>
        <time>2016-04-18T18:35:17Z</time>
      </trkpt>
      <trkpt lat="39.889006" lon="3.072302">
        <ele>4.4</ele>
        <time>2016-04-18T18:35:18Z</time>
      </trkpt>
      <trkpt lat="39.889067" lon="3.072364">
        <ele>4.2</ele>
        <time>2016-04-18T18:35:19Z</time>
      </trkpt>
      <trkpt lat="39.88912" lon="3.072403">
        <ele>4.2</ele>
        <time>2016-04-18T18:35:20Z</time>
      </trkpt>
      <trkpt lat="39.889175" lon="3.072465">
        <ele>4.1</ele>
        <time>2016-04-18T18:35:21Z</time>
      </trkpt>
      <trkpt lat="39.88922" lon="3.072509">
        <ele>4</ele>
        <time>2016-04-18T18:35:22Z</time>
      </trkpt>
      <trkpt lat="39.889266" lon="3.07255">
        <ele>4</ele>
        <time>2016-04-18T18:35:23Z</time>
      </trkpt>
      <trkpt lat="39.889314" lon="3.072611">
        <ele>4</ele>
        <time>2016-04-18T18:35:24Z</time>
      </trkpt>
      <trkpt lat="39.889369" lon="3.072652">
        <ele>4</ele>
        <time>2016-04-18T18:35:25Z</time>
      </trkpt>
      <trkpt lat="39.889423" lon="3.072692">
        <ele>4</ele>
        <time>2016-04-18T18:35:26Z</time>
      </trkpt>
      <trkpt lat="39.889467" lon="3.072733">
        <ele>4</ele>
        <time>2016-04-18T18:35:27Z</time>
      </trkpt>
      <trkpt lat="39.88952" lon="3.072779">
        <ele>4</ele>
        <time>2016-04-18T18:35:28Z</time>
      </trkpt>
      <trkpt lat="39.889576" lon="3.072815">
        <ele>4.1</ele>
        <time>2016-04-18T18:35:29Z</time>
      </trkpt>
      <trkpt lat="39.889625" lon="3.072859">
        <ele>4.1</ele>
        <time>2016-04-18T18:35:30Z</time>
      </trkpt>
      <trkpt lat="39.88967" lon="3.072885">
        <ele>4</ele>
        <time>2016-04-18T18:35:31Z</time>
      </trkpt>
      <trkpt lat="39.889713" lon="3.072915">
        <ele>4</ele>
        <time>2016-04-18T18:35:32Z</time>
      </trkpt>
      <trkpt lat="39.889761" lon="3.072946">
        <ele>3.9</ele>
        <time>2016-04-18T18:35:33Z</time>
      </trkpt>
      <trkpt lat="39.889815" lon="3.072974">
        <ele>3.8</ele>
        <time>2016-04-18T18:35:34Z</time>
      </trkpt>
      <trkpt lat="39.889866" lon="3.073019">
        <ele>3.7</ele>
        <time>2016-04-18T18:35:35Z</time>
      </trkpt>
      <trkpt lat="39.889917" lon="3.073057">
        <ele>3.6</ele>
        <time>2016-04-18T18:35:36Z</time>
      </trkpt>
      <trkpt lat="39.889968" lon="3.073094">
        <ele>3.5</ele>
        <time>2016-04-18T18:35:37Z</time>
      </trkpt>
      <trkpt lat="39.890007" lon="3.073138">
        <ele>3.3</ele>
        <time>2016-04-18T18:35:38Z</time>
      </trkpt>
      <trkpt lat="39.890041" lon="3.073198">
        <ele>3.2</ele>
        <time>2016-04-18T18:35:39Z</time>
      </trkpt>
      <trkpt lat="39.890069" lon="3.073263">
        <ele>3</ele>
        <time>2016-04-18T18:35:40Z</time>
      </trkpt>
      <trkpt lat="39.890096" lon="3.073369">
        <ele>2.7</ele>
        <time>2016-04-18T18:35:41Z</time>
      </trkpt>
      <trkpt lat="39.890102" lon="3.073445">
        <ele>2.5</ele>
        <time>2016-04-18T18:35:42Z</time>
      </trkpt>
      <trkpt lat="39.890105" lon="3.073518">
        <ele>2.3</ele>
        <time>2016-04-18T18:35:43Z</time>
      </trkpt>
      <trkpt lat="39.890108" lon="3.073594">
        <ele>2.1</ele>
        <time>2016-04-18T18:35:44Z</time>
      </trkpt>
      <trkpt lat="39.890107" lon="3.07366">
        <ele>1.9</ele>
        <time>2016-04-18T18:35:45Z</time>
      </trkpt>
      <trkpt lat="39.890113" lon="3.073734">
        <ele>1.7</ele>
        <time>2016-04-18T18:35:46Z</time>
      </trkpt>
      <trkpt lat="39.890129" lon="3.073808">
        <ele>1.7</ele>
        <time>2016-04-18T18:35:47Z</time>
      </trkpt>
      <trkpt lat="39.890147" lon="3.07388">
        <ele>1.7</ele>
        <time>2016-04-18T18:35:48Z</time>
      </trkpt>
      <trkpt lat="39.890181" lon="3.07395">
        <ele>1.7</ele>
        <time>2016-04-18T18:35:49Z</time>
      </trkpt>
      <trkpt lat="39.89022" lon="3.074019">
        <ele>1.8</ele>
        <time>2016-04-18T18:35:50Z</time>
      </trkpt>
      <trkpt lat="39.890283" lon="3.074038">
        <ele>1.8</ele>
        <time>2016-04-18T18:35:51Z</time>
      </trkpt>
      <trkpt lat="39.890346" lon="3.074039">
        <ele>1.9</ele>
        <time>2016-04-18T18:35:52Z</time>
      </trkpt>
      <trkpt lat="39.890408" lon="3.074039">
        <ele>2</ele>
        <time>2016-04-18T18:35:53Z</time>
      </trkpt>
      <trkpt lat="39.890475" lon="3.074031">
        <ele>2.1</ele>
        <time>2016-04-18T18:35:54Z</time>
      </trkpt>
      <trkpt lat="39.890531" lon="3.073996">
        <ele>2.3</ele>
        <time>2016-04-18T18:35:55Z</time>
      </trkpt>
      <trkpt lat="39.890584" lon="3.073951">
        <ele>2.3</ele>
        <time>2016-04-18T18:35:56Z</time>
      </trkpt>
      <trkpt lat="39.890637" lon="3.073901">
        <ele>2.4</ele>
        <time>2016-04-18T18:35:57Z</time>
      </trkpt>
      <trkpt lat="39.890695" lon="3.073851">
        <ele>2.5</ele>
        <time>2016-04-18T18:35:58Z</time>
      </trkpt>
      <trkpt lat="39.890762" lon="3.073824">
        <ele>2.5</ele>
        <time>2016-04-18T18:35:59Z</time>
      </trkpt>
      <trkpt lat="39.890829" lon="3.073812">
        <ele>2.6</ele>
        <time>2016-04-18T18:36:00Z</time>
      </trkpt>
      <trkpt lat="39.890899" lon="3.073821">
        <ele>2.7</ele>
        <time>2016-04-18T18:36:01Z</time>
      </trkpt>
      <trkpt lat="39.890967" lon="3.07383">
        <ele>2.9</ele>
        <time>2016-04-18T18:36:02Z</time>
      </trkpt>
      <trkpt lat="39.891035" lon="3.073833">
        <ele>3</ele>
        <time>2016-04-18T18:36:03Z</time>
      </trkpt>
      <trkpt lat="39.891102" lon="3.073842">
        <ele>3.1</ele>
        <time>2016-04-18T18:36:04Z</time>
      </trkpt>
      <trkpt lat="39.891172" lon="3.073851">
        <ele>3.2</ele>
        <time>2016-04-18T18:36:05Z</time>
      </trkpt>
      <trkpt lat="39.89124" lon="3.073852">
        <ele>3.4</ele>
        <time>2016-04-18T18:36:06Z</time>
      </trkpt>
      <trkpt lat="39.891313" lon="3.073852">
        <ele>3.3</ele>
        <time>2016-04-18T18:36:07Z</time>
      </trkpt>
      <trkpt lat="39.891377" lon="3.07385">
        <ele>3.2</ele>
        <time>2016-04-18T18:36:08Z</time>
      </trkpt>
      <trkpt lat="39.891444" lon="3.073849">
        <ele>3.1</ele>
        <time>2016-04-18T18:36:09Z</time>
      </trkpt>
      <trkpt lat="39.891513" lon="3.073848">
        <ele>3</ele>
        <time>2016-04-18T18:36:10Z</time>
      </trkpt>
      <trkpt lat="39.891586" lon="3.073849">
        <ele>2.9</ele>
        <time>2016-04-18T18:36:11Z</time>
      </trkpt>
      <trkpt lat="39.891648" lon="3.073844">
        <ele>2.8</ele>
        <time>2016-04-18T18:36:12Z</time>
      </trkpt>
      <trkpt lat="39.891718" lon="3.073839">
        <ele>2.7</ele>
        <time>2016-04-18T18:36:13Z</time>
      </trkpt>
      <trkpt lat="39.891792" lon="3.073837">
        <ele>2.6</ele>
        <time>2016-04-18T18:36:14Z</time>
      </trkpt>
      <trkpt lat="39.891862" lon="3.073839">
        <ele>2.5</ele>
        <time>2016-04-18T18:36:15Z</time>
      </trkpt>
      <trkpt lat="39.891941" lon="3.073837">
        <ele>2.4</ele>
        <time>2016-04-18T18:36:16Z</time>
      </trkpt>
      <trkpt lat="39.892013" lon="3.073834">
        <ele>2.3</ele>
        <time>2016-04-18T18:36:17Z</time>
      </trkpt>
      <trkpt lat="39.892077" lon="3.073832">
        <ele>2.2</ele>
        <time>2016-04-18T18:36:18Z</time>
      </trkpt>
      <trkpt lat="39.892144" lon="3.073831">
        <ele>2.4</ele>
        <time>2016-04-18T18:36:19Z</time>
      </trkpt>
      <trkpt lat="39.892208" lon="3.073832">
        <ele>2.6</ele>
        <time>2016-04-18T18:36:20Z</time>
      </trkpt>
      <trkpt lat="39.892284" lon="3.073831">
        <ele>2.8</ele>
        <time>2016-04-18T18:36:21Z</time>
      </trkpt>
      <trkpt lat="39.892355" lon="3.073822">
        <ele>3.1</ele>
        <time>2016-04-18T18:36:22Z</time>
      </trkpt>
      <trkpt lat="39.892416" lon="3.073821">
        <ele>3.3</ele>
        <time>2016-04-18T18:36:23Z</time>
      </trkpt>
      <trkpt lat="39.892491" lon="3.073822">
        <ele>3.5</ele>
        <time>2016-04-18T18:36:24Z</time>
      </trkpt>
      <trkpt lat="39.892559" lon="3.073829">
        <ele>3.7</ele>
        <time>2016-04-18T18:36:25Z</time>
      </trkpt>
      <trkpt lat="39.892626" lon="3.073826">
        <ele>4</ele>
        <time>2016-04-18T18:36:26Z</time>
      </trkpt>
      <trkpt lat="39.892688" lon="3.073832">
        <ele>4.2</ele>
        <time>2016-04-18T18:36:27Z</time>
      </trkpt>
      <trkpt lat="39.892752" lon="3.073831">
        <ele>4.4</ele>
        <time>2016-04-18T18:36:28Z</time>
      </trkpt>
      <trkpt lat="39.892813" lon="3.073822">
        <ele>4.6</ele>
        <time>2016-04-18T18:36:29Z</time>
      </trkpt>
      <trkpt lat="39.892887" lon="3.073817">
        <ele>4.8</ele>
        <time>2016-04-18T18:36:30Z</time>
      </trkpt>
      <trkpt lat="39.89296" lon="3.073822">
        <ele>4.8</ele>
        <time>2016-04-18T18:36:31Z</time>
      </trkpt>
      <trkpt lat="39.893024" lon="3.073821">
        <ele>4.7</ele>
        <time>2016-04-18T18:36:32Z</time>
      </trkpt>
      <trkpt lat="39.893091" lon="3.073814">
        <ele>4.5</ele>
        <time>2016-04-18T18:36:33Z</time>
      </trkpt>
      <trkpt lat="39.893162" lon="3.073814">
        <ele>4.4</ele>
        <time>2016-04-18T18:36:34Z</time>
      </trkpt>
      <trkpt lat="39.893227" lon="3.073806">
        <ele>4.2</ele>
        <time>2016-04-18T18:36:35Z</time>
      </trkpt>
      <trkpt lat="39.893298" lon="3.073807">
        <ele>4</ele>
        <time>2016-04-18T18:36:36Z</time>
      </trkpt>
      <trkpt lat="39.89336" lon="3.073812">
        <ele>3.9</ele>
        <time>2016-04-18T18:36:37Z</time>
      </trkpt>
      <trkpt lat="39.89343" lon="3.073821">
        <ele>3.7</ele>
        <time>2016-04-18T18:36:38Z</time>
      </trkpt>
      <trkpt lat="39.893499" lon="3.073822">
        <ele>3.6</ele>
        <time>2016-04-18T18:36:39Z</time>
      </trkpt>
      <trkpt lat="39.893565" lon="3.073827">
        <ele>3.4</ele>
        <time>2016-04-18T18:36:40Z</time>
      </trkpt>
      <trkpt lat="39.89364" lon="3.07383">
        <ele>3.3</ele>
        <time>2016-04-18T18:36:41Z</time>
      </trkpt>
      <trkpt lat="39.893713" lon="3.073836">
        <ele>3.1</ele>
        <time>2016-04-18T18:36:42Z</time>
      </trkpt>
      <trkpt lat="39.893784" lon="3.073825">
        <ele>2.9</ele>
        <time>2016-04-18T18:36:43Z</time>
      </trkpt>
      <trkpt lat="39.893849" lon="3.073817">
        <ele>2.7</ele>
        <time>2016-04-18T18:36:44Z</time>
      </trkpt>
      <trkpt lat="39.89393" lon="3.073817">
        <ele>2.4</ele>
        <time>2016-04-18T18:36:45Z</time>
      </trkpt>
      <trkpt lat="39.894003" lon="3.07382">
        <ele>2.1</ele>
        <time>2016-04-18T18:36:46Z</time>
      </trkpt>
      <trkpt lat="39.894078" lon="3.073821">
        <ele>1.9</ele>
        <time>2016-04-18T18:36:47Z</time>
      </trkpt>
      <trkpt lat="39.894155" lon="3.073823">
        <ele>1.6</ele>
        <time>2016-04-18T18:36:48Z</time>
      </trkpt>
      <trkpt lat="39.894225" lon="3.073826">
        <ele>1.4</ele>
        <time>2016-04-18T18:36:49Z</time>
      </trkpt>
      <trkpt lat="39.894299" lon="3.073827">
        <ele>1.1</ele>
        <time>2016-04-18T18:36:50Z</time>
      </trkpt>
      <trkpt lat="39.894367" lon="3.073831">
        <ele>0.9</ele>
        <time>2016-04-18T18:36:51Z</time>
      </trkpt>
      <trkpt lat="39.894453" lon="3.07386">
        <ele>0.7</ele>
        <time>2016-04-18T18:36:52Z</time>
      </trkpt>
      <trkpt lat="39.894526" lon="3.073857">
        <ele>0.4</ele>
        <time>2016-04-18T18:36:53Z</time>
      </trkpt>
      <trkpt lat="39.894599" lon="3.073855">
        <ele>0.3</ele>
        <time>2016-04-18T18:36:54Z</time>
      </trkpt>
      <trkpt lat="39.894657" lon="3.073815">
        <ele>0.2</ele>
        <time>2016-04-18T18:36:55Z</time>
      </trkpt>
      <trkpt lat="39.89473" lon="3.073813">
        <ele>0.3</ele>
        <time>2016-04-18T18:36:56Z</time>
      </trkpt>
      <trkpt lat="39.894795" lon="3.073809">
        <ele>0.4</ele>
        <time>2016-04-18T18:36:57Z</time>
      </trkpt>
      <trkpt lat="39.894861" lon="3.073798">
        <ele>0.4</ele>
        <time>2016-04-18T18:36:58Z</time>
      </trkpt>
      <trkpt lat="39.894935" lon="3.073794">
        <ele>0.5</ele>
        <time>2016-04-18T18:36:59Z</time>
      </trkpt>
      <trkpt lat="39.895004" lon="3.073794">
        <ele>0.6</ele>
        <time>2016-04-18T18:37:00Z</time>
      </trkpt>
      <trkpt lat="39.895082" lon="3.073788">
        <ele>0.7</ele>
        <time>2016-04-18T18:37:01Z</time>
      </trkpt>
      <trkpt lat="39.895153" lon="3.07378">
        <ele>0.8</ele>
        <time>2016-04-18T18:37:02Z</time>
      </trkpt>
      <trkpt lat="39.895222" lon="3.073779">
        <ele>0.8</ele>
        <time>2016-04-18T18:37:03Z</time>
      </trkpt>
      <trkpt lat="39.895292" lon="3.073776">
        <ele>0.9</ele>
        <time>2016-04-18T18:37:04Z</time>
      </trkpt>
      <trkpt lat="39.895364" lon="3.073773">
        <ele>1</ele>
        <time>2016-04-18T18:37:05Z</time>
      </trkpt>
      <trkpt lat="39.895438" lon="3.073772">
        <ele>1.2</ele>
        <time>2016-04-18T18:37:06Z</time>
      </trkpt>
      <trkpt lat="39.895508" lon="3.073765">
        <ele>1.6</ele>
        <time>2016-04-18T18:37:07Z</time>
      </trkpt>
      <trkpt lat="39.895578" lon="3.07377">
        <ele>2</ele>
        <time>2016-04-18T18:37:08Z</time>
      </trkpt>
      <trkpt lat="39.895649" lon="3.073788">
        <ele>2.4</ele>
        <time>2016-04-18T18:37:09Z</time>
      </trkpt>
      <trkpt lat="39.895718" lon="3.073819">
        <ele>2.9</ele>
        <time>2016-04-18T18:37:10Z</time>
      </trkpt>
      <trkpt lat="39.895779" lon="3.073857">
        <ele>3.2</ele>
        <time>2016-04-18T18:37:11Z</time>
      </trkpt>
      <trkpt lat="39.895845" lon="3.073897">
        <ele>3.6</ele>
        <time>2016-04-18T18:37:12Z</time>
      </trkpt>
      <trkpt lat="39.895914" lon="3.073937">
        <ele>3.9</ele>
        <time>2016-04-18T18:37:13Z</time>
      </trkpt>
      <trkpt lat="39.89599" lon="3.073954">
        <ele>4.3</ele>
        <time>2016-04-18T18:37:14Z</time>
      </trkpt>
      <trkpt lat="39.896062" lon="3.073964">
        <ele>4.6</ele>
        <time>2016-04-18T18:37:15Z</time>
      </trkpt>
      <trkpt lat="39.896136" lon="3.073976">
        <ele>4.9</ele>
        <time>2016-04-18T18:37:16Z</time>
      </trkpt>
      <trkpt lat="39.896211" lon="3.074001">
        <ele>5.2</ele>
        <time>2016-04-18T18:37:17Z</time>
      </trkpt>
      <trkpt lat="39.896291" lon="3.074062">
        <ele>5.3</ele>
        <time>2016-04-18T18:37:18Z</time>
      </trkpt>
      <trkpt lat="39.896359" lon="3.074143">
        <ele>5.1</ele>
        <time>2016-04-18T18:37:19Z</time>
      </trkpt>
      <trkpt lat="39.896417" lon="3.074242">
        <ele>4.8</ele>
        <time>2016-04-18T18:37:20Z</time>
      </trkpt>
      <trkpt lat="39.896483" lon="3.074342">
        <ele>4.5</ele>
        <time>2016-04-18T18:37:21Z</time>
      </trkpt>
      <trkpt lat="39.896546" lon="3.074445">
        <ele>4.1</ele>
        <time>2016-04-18T18:37:22Z</time>
      </trkpt>
      <trkpt lat="39.896604" lon="3.074545">
        <ele>3.7</ele>
        <time>2016-04-18T18:37:23Z</time>
      </trkpt>
      <trkpt lat="39.896662" lon="3.074638">
        <ele>3.3</ele>
        <time>2016-04-18T18:37:24Z</time>
      </trkpt>
      <trkpt lat="39.896717" lon="3.074727">
        <ele>3</ele>
        <time>2016-04-18T18:37:25Z</time>
      </trkpt>
      <trkpt lat="39.89677" lon="3.074821">
        <ele>2.7</ele>
        <time>2016-04-18T18:37:26Z</time>
      </trkpt>
      <trkpt lat="39.896825" lon="3.074911">
        <ele>2.4</ele>
        <time>2016-04-18T18:37:27Z</time>
      </trkpt>
      <trkpt lat="39.896871" lon="3.074994">
        <ele>2.1</ele>
        <time>2016-04-18T18:37:28Z</time>
      </trkpt>
      <trkpt lat="39.896924" lon="3.07508">
        <ele>1.9</ele>
        <time>2016-04-18T18:37:29Z</time>
      </trkpt>
      <trkpt lat="39.896976" lon="3.075158">
        <ele>1.7</ele>
        <time>2016-04-18T18:37:30Z</time>
      </trkpt>
      <trkpt lat="39.897024" lon="3.075237">
        <ele>1.4</ele>
        <time>2016-04-18T18:37:31Z</time>
      </trkpt>
      <trkpt lat="39.897076" lon="3.075308">
        <ele>1.3</ele>
        <time>2016-04-18T18:37:32Z</time>
      </trkpt>
      <trkpt lat="39.897124" lon="3.075377">
        <ele>1.3</ele>
        <time>2016-04-18T18:37:33Z</time>
      </trkpt>
      <trkpt lat="39.897169" lon="3.075451">
        <ele>1.4</ele>
        <time>2016-04-18T18:37:34Z</time>
      </trkpt>
      <trkpt lat="39.89721" lon="3.075527">
        <ele>1.6</ele>
        <time>2016-04-18T18:37:35Z</time>
      </trkpt>
      <trkpt lat="39.897253" lon="3.075588">
        <ele>1.8</ele>
        <time>2016-04-18T18:37:36Z</time>
      </trkpt>
      <trkpt lat="39.897291" lon="3.075657">
        <ele>1.9</ele>
        <time>2016-04-18T18:37:37Z</time>
      </trkpt>
      <trkpt lat="39.897333" lon="3.075721">
        <ele>2.1</ele>
        <time>2016-04-18T18:37:38Z</time>
      </trkpt>
      <trkpt lat="39.897373" lon="3.075787">
        <ele>2.2</ele>
        <time>2016-04-18T18:37:39Z</time>
      </trkpt>
      <trkpt lat="39.89741" lon="3.075851">
        <ele>2.4</ele>
        <time>2016-04-18T18:37:40Z</time>
      </trkpt>
      <trkpt lat="39.897439" lon="3.075942">
        <ele>2.4</ele>
        <time>2016-04-18T18:37:41Z</time>
      </trkpt>
      <trkpt lat="39.897434" lon="3.076018">
        <ele>2.4</ele>
        <time>2016-04-18T18:37:42Z</time>
      </trkpt>
      <trkpt lat="39.897393" lon="3.07607">
        <ele>2.2</ele>
        <time>2016-04-18T18:37:43Z</time>
      </trkpt>
      <trkpt lat="39.897355" lon="3.076101">
        <ele>2</ele>
        <time>2016-04-18T18:37:44Z</time>
      </trkpt>
      <trkpt lat="39.897322" lon="3.076154">
        <ele>1.9</ele>
        <time>2016-04-18T18:37:45Z</time>
      </trkpt>
      <trkpt lat="39.897303" lon="3.076192">
        <ele>1.8</ele>
        <time>2016-04-18T18:37:46Z</time>
      </trkpt>
      <trkpt lat="39.897266" lon="3.076226">
        <ele>1.7</ele>
        <time>2016-04-18T18:37:47Z</time>
      </trkpt>
      <trkpt lat="39.897283" lon="3.076263">
        <ele>1.8</ele>
        <time>2016-04-18T18:37:48Z</time>
      </trkpt>
      <trkpt lat="39.897246" lon="3.076332">
        <ele>2.1</ele>
        <time>2016-04-18T18:37:50Z</time>
      </trkpt>
      <trkpt lat="39.897212" lon="3.076376">
        <ele>2.3</ele>
        <time>2016-04-18T18:37:52Z</time>
      </trkpt>
    </trkseg>
  </trk>
</gpx>